<?xml version="1.0" encoding="UTF-8" standalone="no" ?>
<gpx xmlns="http://www.topografix.com/GPX/1/1" xmlns:xsi="http://www.w3.org/2001/XMLSchema-instance" xsi:schemaLocation="http://www.topografix.com/GPX/1/1 http://www.topografix.com/GPX/1/1/gpx.xsd" version="1.1" creator="VisuGPX - https://www.visugpx.com">
  <metadata>
    <name>Rando printemps 2018 Bourbon Lancy</name>
    <desc><![CDATA[Randonnée de printemps du 25 mars  2018 à Bourbon Lancy]]></desc>
  </metadata>
  <trk>
    <name><![CDATA[Rando printemps 2018 Bourbon Lancy_1]]></name>
    <trkseg>
      <trkpt lat="46.6288" lon="3.7408">
        <ele>243.399993</ele>
        <time>2018-03-25T05:55:00Z</time>
      </trkpt>
      <trkpt lat="46.62879" lon="3.74084">
        <ele>242.824981</ele>
        <time>2018-03-25T05:55:01Z</time>
      </trkpt>
      <trkpt lat="46.62873" lon="3.74102">
        <ele>242.9</ele>
        <time>2018-03-25T05:55:13Z</time>
      </trkpt>
      <trkpt lat="46.62868" lon="3.74112">
        <ele>243.6</ele>
        <time>2018-03-25T05:55:16Z</time>
      </trkpt>
      <trkpt lat="46.62864" lon="3.74119">
        <ele>243.9</ele>
        <time>2018-03-25T05:55:18Z</time>
      </trkpt>
      <trkpt lat="46.62859" lon="3.74125">
        <ele>244.2</ele>
        <time>2018-03-25T05:55:20Z</time>
      </trkpt>
      <trkpt lat="46.62854" lon="3.74133">
        <ele>244.4</ele>
        <time>2018-03-25T05:55:22Z</time>
      </trkpt>
      <trkpt lat="46.6285" lon="3.74141">
        <ele>244.4</ele>
        <time>2018-03-25T05:55:24Z</time>
      </trkpt>
      <trkpt lat="46.62844" lon="3.74147">
        <ele>244.4</ele>
        <time>2018-03-25T05:55:26Z</time>
      </trkpt>
      <trkpt lat="46.62837" lon="3.74149">
        <ele>244.3</ele>
        <time>2018-03-25T05:55:28Z</time>
      </trkpt>
      <trkpt lat="46.62829" lon="3.74149">
        <ele>244.3</ele>
        <time>2018-03-25T05:55:30Z</time>
      </trkpt>
      <trkpt lat="46.62822" lon="3.74147">
        <ele>244.2</ele>
        <time>2018-03-25T05:55:32Z</time>
      </trkpt>
      <trkpt lat="46.62815" lon="3.74149">
        <ele>244.2</ele>
        <time>2018-03-25T05:55:34Z</time>
      </trkpt>
      <trkpt lat="46.62808" lon="3.74152">
        <ele>244.1</ele>
        <time>2018-03-25T05:55:36Z</time>
      </trkpt>
      <trkpt lat="46.62802" lon="3.74158">
        <ele>243.8</ele>
        <time>2018-03-25T05:55:38Z</time>
      </trkpt>
      <trkpt lat="46.62799" lon="3.74169">
        <ele>243.5</ele>
        <time>2018-03-25T05:55:40Z</time>
      </trkpt>
      <trkpt lat="46.62797" lon="3.74179">
        <ele>243.4</ele>
        <time>2018-03-25T05:55:42Z</time>
      </trkpt>
      <trkpt lat="46.62794" lon="3.74188">
        <ele>243.3</ele>
        <time>2018-03-25T05:55:44Z</time>
      </trkpt>
      <trkpt lat="46.62793" lon="3.74198">
        <ele>243.3</ele>
        <time>2018-03-25T05:55:46Z</time>
      </trkpt>
      <trkpt lat="46.6279" lon="3.74209">
        <ele>243.4</ele>
        <time>2018-03-25T05:55:48Z</time>
      </trkpt>
      <trkpt lat="46.62788" lon="3.7422">
        <ele>243.4</ele>
        <time>2018-03-25T05:55:50Z</time>
      </trkpt>
      <trkpt lat="46.62786" lon="3.7423">
        <ele>243.4</ele>
        <time>2018-03-25T05:55:52Z</time>
      </trkpt>
      <trkpt lat="46.62783" lon="3.7424">
        <ele>243.4</ele>
        <time>2018-03-25T05:55:54Z</time>
      </trkpt>
      <trkpt lat="46.62781" lon="3.7425">
        <ele>243.4</ele>
        <time>2018-03-25T05:55:56Z</time>
      </trkpt>
      <trkpt lat="46.62779" lon="3.7426">
        <ele>243.4</ele>
        <time>2018-03-25T05:55:58Z</time>
      </trkpt>
      <trkpt lat="46.62776" lon="3.74271">
        <ele>243.4</ele>
        <time>2018-03-25T05:56:00Z</time>
      </trkpt>
      <trkpt lat="46.62774" lon="3.7428">
        <ele>243.4</ele>
        <time>2018-03-25T05:56:02Z</time>
      </trkpt>
      <trkpt lat="46.62773" lon="3.74286">
        <ele>243.4</ele>
        <time>2018-03-25T05:56:03Z</time>
      </trkpt>
      <trkpt lat="46.62769" lon="3.74301">
        <ele>243.4</ele>
        <time>2018-03-25T05:56:06Z</time>
      </trkpt>
      <trkpt lat="46.62767" lon="3.74311">
        <ele>243.4</ele>
        <time>2018-03-25T05:56:08Z</time>
      </trkpt>
      <trkpt lat="46.62764" lon="3.74321">
        <ele>243.5</ele>
        <time>2018-03-25T05:56:10Z</time>
      </trkpt>
      <trkpt lat="46.62761" lon="3.74331">
        <ele>243.6</ele>
        <time>2018-03-25T05:56:12Z</time>
      </trkpt>
      <trkpt lat="46.62759" lon="3.74341">
        <ele>243.6</ele>
        <time>2018-03-25T05:56:14Z</time>
      </trkpt>
      <trkpt lat="46.62756" lon="3.74352">
        <ele>243.6</ele>
        <time>2018-03-25T05:56:16Z</time>
      </trkpt>
      <trkpt lat="46.62753" lon="3.74362">
        <ele>243.5</ele>
        <time>2018-03-25T05:56:18Z</time>
      </trkpt>
      <trkpt lat="46.62751" lon="3.74373">
        <ele>243.5</ele>
        <time>2018-03-25T05:56:20Z</time>
      </trkpt>
      <trkpt lat="46.62748" lon="3.74384">
        <ele>243.4</ele>
        <time>2018-03-25T05:56:22Z</time>
      </trkpt>
      <trkpt lat="46.62745" lon="3.74394">
        <ele>243.4</ele>
        <time>2018-03-25T05:56:24Z</time>
      </trkpt>
      <trkpt lat="46.62742" lon="3.74406">
        <ele>243.5</ele>
        <time>2018-03-25T05:56:26Z</time>
      </trkpt>
      <trkpt lat="46.62739" lon="3.74417">
        <ele>243.7</ele>
        <time>2018-03-25T05:56:28Z</time>
      </trkpt>
      <trkpt lat="46.62737" lon="3.74429">
        <ele>243.8</ele>
        <time>2018-03-25T05:56:30Z</time>
      </trkpt>
      <trkpt lat="46.62734" lon="3.74441">
        <ele>243.8</ele>
        <time>2018-03-25T05:56:32Z</time>
      </trkpt>
      <trkpt lat="46.62732" lon="3.74447">
        <ele>243.7</ele>
        <time>2018-03-25T05:56:33Z</time>
      </trkpt>
      <trkpt lat="46.62731" lon="3.74453">
        <ele>243.7</ele>
        <time>2018-03-25T05:56:34Z</time>
      </trkpt>
      <trkpt lat="46.62729" lon="3.7446">
        <ele>243.7</ele>
        <time>2018-03-25T05:56:35Z</time>
      </trkpt>
      <trkpt lat="46.62728" lon="3.74466">
        <ele>243.6</ele>
        <time>2018-03-25T05:56:36Z</time>
      </trkpt>
      <trkpt lat="46.62726" lon="3.74473">
        <ele>243.6</ele>
        <time>2018-03-25T05:56:37Z</time>
      </trkpt>
      <trkpt lat="46.62725" lon="3.74479">
        <ele>243.6</ele>
        <time>2018-03-25T05:56:38Z</time>
      </trkpt>
      <trkpt lat="46.62723" lon="3.74486">
        <ele>243.5</ele>
        <time>2018-03-25T05:56:39Z</time>
      </trkpt>
      <trkpt lat="46.62722" lon="3.74493">
        <ele>243.5</ele>
        <time>2018-03-25T05:56:40Z</time>
      </trkpt>
      <trkpt lat="46.6272" lon="3.74499">
        <ele>243.5</ele>
        <time>2018-03-25T05:56:41Z</time>
      </trkpt>
      <trkpt lat="46.62719" lon="3.74506">
        <ele>243.4</ele>
        <time>2018-03-25T05:56:42Z</time>
      </trkpt>
      <trkpt lat="46.62717" lon="3.74513">
        <ele>243.3</ele>
        <time>2018-03-25T05:56:43Z</time>
      </trkpt>
      <trkpt lat="46.62715" lon="3.7452">
        <ele>243.3</ele>
        <time>2018-03-25T05:56:44Z</time>
      </trkpt>
      <trkpt lat="46.62713" lon="3.74527">
        <ele>243.2</ele>
        <time>2018-03-25T05:56:45Z</time>
      </trkpt>
      <trkpt lat="46.62712" lon="3.74534">
        <ele>243.1</ele>
        <time>2018-03-25T05:56:46Z</time>
      </trkpt>
      <trkpt lat="46.6271" lon="3.74541">
        <ele>243.1</ele>
        <time>2018-03-25T05:56:47Z</time>
      </trkpt>
      <trkpt lat="46.62708" lon="3.74548">
        <ele>243.1</ele>
        <time>2018-03-25T05:56:48Z</time>
      </trkpt>
      <trkpt lat="46.62707" lon="3.74555">
        <ele>243</ele>
        <time>2018-03-25T05:56:49Z</time>
      </trkpt>
      <trkpt lat="46.62705" lon="3.74562">
        <ele>242.9</ele>
        <time>2018-03-25T05:56:50Z</time>
      </trkpt>
      <trkpt lat="46.62704" lon="3.74568">
        <ele>242.8</ele>
        <time>2018-03-25T05:56:51Z</time>
      </trkpt>
      <trkpt lat="46.62701" lon="3.7458">
        <ele>242.7</ele>
        <time>2018-03-25T05:56:53Z</time>
      </trkpt>
      <trkpt lat="46.62699" lon="3.74592">
        <ele>242.4</ele>
        <time>2018-03-25T05:56:55Z</time>
      </trkpt>
      <trkpt lat="46.62696" lon="3.74604">
        <ele>242.1</ele>
        <time>2018-03-25T05:56:57Z</time>
      </trkpt>
      <trkpt lat="46.62693" lon="3.74616">
        <ele>242</ele>
        <time>2018-03-25T05:56:59Z</time>
      </trkpt>
      <trkpt lat="46.6269" lon="3.74628">
        <ele>241.8</ele>
        <time>2018-03-25T05:57:01Z</time>
      </trkpt>
      <trkpt lat="46.62688" lon="3.74639">
        <ele>241.7</ele>
        <time>2018-03-25T05:57:03Z</time>
      </trkpt>
      <trkpt lat="46.62686" lon="3.74644">
        <ele>241.6</ele>
        <time>2018-03-25T05:57:04Z</time>
      </trkpt>
      <trkpt lat="46.62683" lon="3.7466">
        <ele>241.5</ele>
        <time>2018-03-25T05:57:07Z</time>
      </trkpt>
      <trkpt lat="46.62681" lon="3.74671">
        <ele>241.2</ele>
        <time>2018-03-25T05:57:09Z</time>
      </trkpt>
      <trkpt lat="46.62678" lon="3.74682">
        <ele>241</ele>
        <time>2018-03-25T05:57:11Z</time>
      </trkpt>
      <trkpt lat="46.62675" lon="3.74693">
        <ele>240.9</ele>
        <time>2018-03-25T05:57:13Z</time>
      </trkpt>
      <trkpt lat="46.62673" lon="3.74704">
        <ele>240.8</ele>
        <time>2018-03-25T05:57:15Z</time>
      </trkpt>
      <trkpt lat="46.6267" lon="3.74714">
        <ele>240.8</ele>
        <time>2018-03-25T05:57:17Z</time>
      </trkpt>
      <trkpt lat="46.62668" lon="3.74724">
        <ele>240.7</ele>
        <time>2018-03-25T05:57:19Z</time>
      </trkpt>
      <trkpt lat="46.62666" lon="3.74734">
        <ele>240.5</ele>
        <time>2018-03-25T05:57:21Z</time>
      </trkpt>
      <trkpt lat="46.62664" lon="3.74744">
        <ele>240.3</ele>
        <time>2018-03-25T05:57:23Z</time>
      </trkpt>
      <trkpt lat="46.62662" lon="3.74754">
        <ele>240</ele>
        <time>2018-03-25T05:57:25Z</time>
      </trkpt>
      <trkpt lat="46.6266" lon="3.74763">
        <ele>239.7</ele>
        <time>2018-03-25T05:57:27Z</time>
      </trkpt>
      <trkpt lat="46.62658" lon="3.74772">
        <ele>239.5</ele>
        <time>2018-03-25T05:57:29Z</time>
      </trkpt>
      <trkpt lat="46.62656" lon="3.74781">
        <ele>239.3</ele>
        <time>2018-03-25T05:57:31Z</time>
      </trkpt>
      <trkpt lat="46.62654" lon="3.7479">
        <ele>239.2</ele>
        <time>2018-03-25T05:57:33Z</time>
      </trkpt>
      <trkpt lat="46.62651" lon="3.74799">
        <ele>239.2</ele>
        <time>2018-03-25T05:57:35Z</time>
      </trkpt>
      <trkpt lat="46.62649" lon="3.74808">
        <ele>239.2</ele>
        <time>2018-03-25T05:57:37Z</time>
      </trkpt>
      <trkpt lat="46.62647" lon="3.74818">
        <ele>239.2</ele>
        <time>2018-03-25T05:57:39Z</time>
      </trkpt>
      <trkpt lat="46.62645" lon="3.74827">
        <ele>239.4</ele>
        <time>2018-03-25T05:57:41Z</time>
      </trkpt>
      <trkpt lat="46.62643" lon="3.74837">
        <ele>239.5</ele>
        <time>2018-03-25T05:57:43Z</time>
      </trkpt>
      <trkpt lat="46.6264" lon="3.74846">
        <ele>239.6</ele>
        <time>2018-03-25T05:57:45Z</time>
      </trkpt>
      <trkpt lat="46.62638" lon="3.74856">
        <ele>239.8</ele>
        <time>2018-03-25T05:57:47Z</time>
      </trkpt>
      <trkpt lat="46.62636" lon="3.74865">
        <ele>240.1</ele>
        <time>2018-03-25T05:57:49Z</time>
      </trkpt>
      <trkpt lat="46.62634" lon="3.74875">
        <ele>240.5</ele>
        <time>2018-03-25T05:57:51Z</time>
      </trkpt>
      <trkpt lat="46.62631" lon="3.74884">
        <ele>240.8</ele>
        <time>2018-03-25T05:57:53Z</time>
      </trkpt>
      <trkpt lat="46.62628" lon="3.74892">
        <ele>241.1</ele>
        <time>2018-03-25T05:57:55Z</time>
      </trkpt>
      <trkpt lat="46.62624" lon="3.74901">
        <ele>241.4</ele>
        <time>2018-03-25T05:57:57Z</time>
      </trkpt>
      <trkpt lat="46.62619" lon="3.74911">
        <ele>242.9</ele>
        <time>2018-03-25T05:58:04Z</time>
      </trkpt>
      <trkpt lat="46.62618" lon="3.74912">
        <ele>243.2</ele>
        <time>2018-03-25T05:58:05Z</time>
      </trkpt>
      <trkpt lat="46.62613" lon="3.7493">
        <ele>243.8</ele>
        <time>2018-03-25T05:58:10Z</time>
      </trkpt>
      <trkpt lat="46.62611" lon="3.74942">
        <ele>243.9</ele>
        <time>2018-03-25T05:58:12Z</time>
      </trkpt>
      <trkpt lat="46.62606" lon="3.74949">
        <ele>244.1</ele>
        <time>2018-03-25T05:58:14Z</time>
      </trkpt>
      <trkpt lat="46.62599" lon="3.74952">
        <ele>244.2</ele>
        <time>2018-03-25T05:58:16Z</time>
      </trkpt>
      <trkpt lat="46.62592" lon="3.74952">
        <ele>244.3</ele>
        <time>2018-03-25T05:58:18Z</time>
      </trkpt>
      <trkpt lat="46.62585" lon="3.74951">
        <ele>244.4</ele>
        <time>2018-03-25T05:58:20Z</time>
      </trkpt>
      <trkpt lat="46.62577" lon="3.74951">
        <ele>244.4</ele>
        <time>2018-03-25T05:58:22Z</time>
      </trkpt>
      <trkpt lat="46.6257" lon="3.74952">
        <ele>244.5</ele>
        <time>2018-03-25T05:58:24Z</time>
      </trkpt>
      <trkpt lat="46.62563" lon="3.74952">
        <ele>244.5</ele>
        <time>2018-03-25T05:58:26Z</time>
      </trkpt>
      <trkpt lat="46.62556" lon="3.74953">
        <ele>244.5</ele>
        <time>2018-03-25T05:58:28Z</time>
      </trkpt>
      <trkpt lat="46.62549" lon="3.74957">
        <ele>244.5</ele>
        <time>2018-03-25T05:58:30Z</time>
      </trkpt>
      <trkpt lat="46.62542" lon="3.74959">
        <ele>244.5</ele>
        <time>2018-03-25T05:58:32Z</time>
      </trkpt>
      <trkpt lat="46.62534" lon="3.74959">
        <ele>244.3</ele>
        <time>2018-03-25T05:58:34Z</time>
      </trkpt>
      <trkpt lat="46.62527" lon="3.74959">
        <ele>243.9</ele>
        <time>2018-03-25T05:58:36Z</time>
      </trkpt>
      <trkpt lat="46.62522" lon="3.74959">
        <ele>243.5</ele>
        <time>2018-03-25T05:58:37Z</time>
      </trkpt>
      <trkpt lat="46.62517" lon="3.74959">
        <ele>243.2</ele>
        <time>2018-03-25T05:58:38Z</time>
      </trkpt>
      <trkpt lat="46.62513" lon="3.7496">
        <ele>242.8</ele>
        <time>2018-03-25T05:58:39Z</time>
      </trkpt>
      <trkpt lat="46.62507" lon="3.74961">
        <ele>242.4</ele>
        <time>2018-03-25T05:58:40Z</time>
      </trkpt>
      <trkpt lat="46.62504" lon="3.74965">
        <ele>242.1</ele>
        <time>2018-03-25T05:58:41Z</time>
      </trkpt>
      <trkpt lat="46.62501" lon="3.74971">
        <ele>241.9</ele>
        <time>2018-03-25T05:58:42Z</time>
      </trkpt>
      <trkpt lat="46.62499" lon="3.74977">
        <ele>241.7</ele>
        <time>2018-03-25T05:58:43Z</time>
      </trkpt>
      <trkpt lat="46.62497" lon="3.74983">
        <ele>241.5</ele>
        <time>2018-03-25T05:58:44Z</time>
      </trkpt>
      <trkpt lat="46.62495" lon="3.74989">
        <ele>241.4</ele>
        <time>2018-03-25T05:58:45Z</time>
      </trkpt>
      <trkpt lat="46.62493" lon="3.74995">
        <ele>241.3</ele>
        <time>2018-03-25T05:58:46Z</time>
      </trkpt>
      <trkpt lat="46.62491" lon="3.75002">
        <ele>241.2</ele>
        <time>2018-03-25T05:58:47Z</time>
      </trkpt>
      <trkpt lat="46.6249" lon="3.75008">
        <ele>241.2</ele>
        <time>2018-03-25T05:58:48Z</time>
      </trkpt>
      <trkpt lat="46.62488" lon="3.75015">
        <ele>241.2</ele>
        <time>2018-03-25T05:58:49Z</time>
      </trkpt>
      <trkpt lat="46.62487" lon="3.75021">
        <ele>241.2</ele>
        <time>2018-03-25T05:58:50Z</time>
      </trkpt>
      <trkpt lat="46.62486" lon="3.75028">
        <ele>241.2</ele>
        <time>2018-03-25T05:58:51Z</time>
      </trkpt>
      <trkpt lat="46.62485" lon="3.75035">
        <ele>241.2</ele>
        <time>2018-03-25T05:58:52Z</time>
      </trkpt>
      <trkpt lat="46.62484" lon="3.75041">
        <ele>241.2</ele>
        <time>2018-03-25T05:58:53Z</time>
      </trkpt>
      <trkpt lat="46.62483" lon="3.75048">
        <ele>241.3</ele>
        <time>2018-03-25T05:58:54Z</time>
      </trkpt>
      <trkpt lat="46.62482" lon="3.75054">
        <ele>241.3</ele>
        <time>2018-03-25T05:58:55Z</time>
      </trkpt>
      <trkpt lat="46.6248" lon="3.75061">
        <ele>241.3</ele>
        <time>2018-03-25T05:58:56Z</time>
      </trkpt>
      <trkpt lat="46.62478" lon="3.75074">
        <ele>241.4</ele>
        <time>2018-03-25T05:58:58Z</time>
      </trkpt>
      <trkpt lat="46.62477" lon="3.75086">
        <ele>241.5</ele>
        <time>2018-03-25T05:59:00Z</time>
      </trkpt>
      <trkpt lat="46.62477" lon="3.75099">
        <ele>241.6</ele>
        <time>2018-03-25T05:59:02Z</time>
      </trkpt>
      <trkpt lat="46.62476" lon="3.75111">
        <ele>241.6</ele>
        <time>2018-03-25T05:59:04Z</time>
      </trkpt>
      <trkpt lat="46.62477" lon="3.75123">
        <ele>241.6</ele>
        <time>2018-03-25T05:59:06Z</time>
      </trkpt>
      <trkpt lat="46.62476" lon="3.75129">
        <ele>241.6</ele>
        <time>2018-03-25T05:59:07Z</time>
      </trkpt>
      <trkpt lat="46.62471" lon="3.75144">
        <ele>241.6</ele>
        <time>2018-03-25T05:59:10Z</time>
      </trkpt>
      <trkpt lat="46.62464" lon="3.75148">
        <ele>241.7</ele>
        <time>2018-03-25T05:59:12Z</time>
      </trkpt>
      <trkpt lat="46.62457" lon="3.7515">
        <ele>241.8</ele>
        <time>2018-03-25T05:59:14Z</time>
      </trkpt>
      <trkpt lat="46.62449" lon="3.75152">
        <ele>241.8</ele>
        <time>2018-03-25T05:59:16Z</time>
      </trkpt>
      <trkpt lat="46.62441" lon="3.75155">
        <ele>241.7</ele>
        <time>2018-03-25T05:59:18Z</time>
      </trkpt>
      <trkpt lat="46.62432" lon="3.75158">
        <ele>241.6</ele>
        <time>2018-03-25T05:59:20Z</time>
      </trkpt>
      <trkpt lat="46.62424" lon="3.75161">
        <ele>241.4</ele>
        <time>2018-03-25T05:59:22Z</time>
      </trkpt>
      <trkpt lat="46.62419" lon="3.75162">
        <ele>241.3</ele>
        <time>2018-03-25T05:59:23Z</time>
      </trkpt>
      <trkpt lat="46.62414" lon="3.75162">
        <ele>241.1</ele>
        <time>2018-03-25T05:59:24Z</time>
      </trkpt>
      <trkpt lat="46.6241" lon="3.75163">
        <ele>241</ele>
        <time>2018-03-25T05:59:25Z</time>
      </trkpt>
      <trkpt lat="46.62405" lon="3.75164">
        <ele>240.9</ele>
        <time>2018-03-25T05:59:26Z</time>
      </trkpt>
      <trkpt lat="46.624" lon="3.75165">
        <ele>240.7</ele>
        <time>2018-03-25T05:59:27Z</time>
      </trkpt>
      <trkpt lat="46.62396" lon="3.75167">
        <ele>240.7</ele>
        <time>2018-03-25T05:59:28Z</time>
      </trkpt>
      <trkpt lat="46.62391" lon="3.75168">
        <ele>240.6</ele>
        <time>2018-03-25T05:59:29Z</time>
      </trkpt>
      <trkpt lat="46.62386" lon="3.7517">
        <ele>240.6</ele>
        <time>2018-03-25T05:59:30Z</time>
      </trkpt>
      <trkpt lat="46.62382" lon="3.75172">
        <ele>240.6</ele>
        <time>2018-03-25T05:59:31Z</time>
      </trkpt>
      <trkpt lat="46.62378" lon="3.75173">
        <ele>240.6</ele>
        <time>2018-03-25T05:59:32Z</time>
      </trkpt>
      <trkpt lat="46.62373" lon="3.75174">
        <ele>240.6</ele>
        <time>2018-03-25T05:59:33Z</time>
      </trkpt>
      <trkpt lat="46.62364" lon="3.75177">
        <ele>240.4</ele>
        <time>2018-03-25T05:59:35Z</time>
      </trkpt>
      <trkpt lat="46.6236" lon="3.75177">
        <ele>240.3</ele>
        <time>2018-03-25T05:59:36Z</time>
      </trkpt>
      <trkpt lat="46.62355" lon="3.75178">
        <ele>240.1</ele>
        <time>2018-03-25T05:59:37Z</time>
      </trkpt>
      <trkpt lat="46.6235" lon="3.75179">
        <ele>240</ele>
        <time>2018-03-25T05:59:38Z</time>
      </trkpt>
      <trkpt lat="46.62346" lon="3.7518">
        <ele>239.8</ele>
        <time>2018-03-25T05:59:39Z</time>
      </trkpt>
      <trkpt lat="46.62341" lon="3.75181">
        <ele>239.7</ele>
        <time>2018-03-25T05:59:40Z</time>
      </trkpt>
      <trkpt lat="46.62336" lon="3.75182">
        <ele>239.5</ele>
        <time>2018-03-25T05:59:41Z</time>
      </trkpt>
      <trkpt lat="46.62331" lon="3.75183">
        <ele>239.4</ele>
        <time>2018-03-25T05:59:42Z</time>
      </trkpt>
      <trkpt lat="46.62325" lon="3.75184">
        <ele>239.4</ele>
        <time>2018-03-25T05:59:43Z</time>
      </trkpt>
      <trkpt lat="46.6232" lon="3.75186">
        <ele>239.4</ele>
        <time>2018-03-25T05:59:44Z</time>
      </trkpt>
      <trkpt lat="46.62314" lon="3.75187">
        <ele>239.4</ele>
        <time>2018-03-25T05:59:45Z</time>
      </trkpt>
      <trkpt lat="46.62309" lon="3.75188">
        <ele>239.4</ele>
        <time>2018-03-25T05:59:46Z</time>
      </trkpt>
      <trkpt lat="46.62303" lon="3.75189">
        <ele>239.3</ele>
        <time>2018-03-25T05:59:47Z</time>
      </trkpt>
      <trkpt lat="46.62298" lon="3.7519">
        <ele>239.2</ele>
        <time>2018-03-25T05:59:48Z</time>
      </trkpt>
      <trkpt lat="46.62292" lon="3.75191">
        <ele>239.1</ele>
        <time>2018-03-25T05:59:49Z</time>
      </trkpt>
      <trkpt lat="46.62286" lon="3.75192">
        <ele>239</ele>
        <time>2018-03-25T05:59:50Z</time>
      </trkpt>
      <trkpt lat="46.6228" lon="3.75194">
        <ele>238.7</ele>
        <time>2018-03-25T05:59:51Z</time>
      </trkpt>
      <trkpt lat="46.62273" lon="3.75195">
        <ele>238.5</ele>
        <time>2018-03-25T05:59:52Z</time>
      </trkpt>
      <trkpt lat="46.62267" lon="3.75196">
        <ele>238.1</ele>
        <time>2018-03-25T05:59:53Z</time>
      </trkpt>
      <trkpt lat="46.6226" lon="3.75198">
        <ele>237.8</ele>
        <time>2018-03-25T05:59:54Z</time>
      </trkpt>
      <trkpt lat="46.62253" lon="3.752">
        <ele>237.4</ele>
        <time>2018-03-25T05:59:55Z</time>
      </trkpt>
      <trkpt lat="46.62245" lon="3.75201">
        <ele>236.9</ele>
        <time>2018-03-25T05:59:56Z</time>
      </trkpt>
      <trkpt lat="46.62237" lon="3.75203">
        <ele>236.4</ele>
        <time>2018-03-25T05:59:57Z</time>
      </trkpt>
      <trkpt lat="46.62229" lon="3.75205">
        <ele>235.9</ele>
        <time>2018-03-25T05:59:58Z</time>
      </trkpt>
      <trkpt lat="46.62221" lon="3.75208">
        <ele>235.4</ele>
        <time>2018-03-25T05:59:59Z</time>
      </trkpt>
      <trkpt lat="46.62212" lon="3.7521">
        <ele>234.9</ele>
        <time>2018-03-25T06:00:00Z</time>
      </trkpt>
      <trkpt lat="46.62203" lon="3.75213">
        <ele>234.3</ele>
        <time>2018-03-25T06:00:01Z</time>
      </trkpt>
      <trkpt lat="46.62194" lon="3.75216">
        <ele>233.7</ele>
        <time>2018-03-25T06:00:02Z</time>
      </trkpt>
      <trkpt lat="46.62185" lon="3.75219">
        <ele>233.1</ele>
        <time>2018-03-25T06:00:03Z</time>
      </trkpt>
      <trkpt lat="46.62175" lon="3.75222">
        <ele>232.7</ele>
        <time>2018-03-25T06:00:04Z</time>
      </trkpt>
      <trkpt lat="46.62166" lon="3.75226">
        <ele>232.3</ele>
        <time>2018-03-25T06:00:05Z</time>
      </trkpt>
      <trkpt lat="46.62158" lon="3.75229">
        <ele>232.1</ele>
        <time>2018-03-25T06:00:06Z</time>
      </trkpt>
      <trkpt lat="46.62149" lon="3.75232">
        <ele>231.9</ele>
        <time>2018-03-25T06:00:07Z</time>
      </trkpt>
      <trkpt lat="46.62141" lon="3.75236">
        <ele>231.7</ele>
        <time>2018-03-25T06:00:08Z</time>
      </trkpt>
      <trkpt lat="46.62133" lon="3.75239">
        <ele>231.6</ele>
        <time>2018-03-25T06:00:09Z</time>
      </trkpt>
      <trkpt lat="46.62126" lon="3.75241">
        <ele>231.5</ele>
        <time>2018-03-25T06:00:10Z</time>
      </trkpt>
      <trkpt lat="46.62119" lon="3.75244">
        <ele>231.4</ele>
        <time>2018-03-25T06:00:11Z</time>
      </trkpt>
      <trkpt lat="46.62112" lon="3.75247">
        <ele>231.3</ele>
        <time>2018-03-25T06:00:12Z</time>
      </trkpt>
      <trkpt lat="46.62105" lon="3.7525">
        <ele>231.3</ele>
        <time>2018-03-25T06:00:13Z</time>
      </trkpt>
      <trkpt lat="46.62098" lon="3.75253">
        <ele>231.2</ele>
        <time>2018-03-25T06:00:14Z</time>
      </trkpt>
      <trkpt lat="46.62092" lon="3.75255">
        <ele>231.1</ele>
        <time>2018-03-25T06:00:15Z</time>
      </trkpt>
      <trkpt lat="46.62086" lon="3.75258">
        <ele>231.1</ele>
        <time>2018-03-25T06:00:16Z</time>
      </trkpt>
      <trkpt lat="46.6208" lon="3.75261">
        <ele>231</ele>
        <time>2018-03-25T06:00:17Z</time>
      </trkpt>
      <trkpt lat="46.62074" lon="3.75263">
        <ele>231</ele>
        <time>2018-03-25T06:00:18Z</time>
      </trkpt>
      <trkpt lat="46.62068" lon="3.75266">
        <ele>231</ele>
        <time>2018-03-25T06:00:19Z</time>
      </trkpt>
      <trkpt lat="46.62063" lon="3.75268">
        <ele>230.9</ele>
        <time>2018-03-25T06:00:20Z</time>
      </trkpt>
      <trkpt lat="46.62058" lon="3.7527">
        <ele>230.9</ele>
        <time>2018-03-25T06:00:21Z</time>
      </trkpt>
      <trkpt lat="46.62053" lon="3.75272">
        <ele>230.9</ele>
        <time>2018-03-25T06:00:22Z</time>
      </trkpt>
      <trkpt lat="46.62048" lon="3.75274">
        <ele>230.9</ele>
        <time>2018-03-25T06:00:23Z</time>
      </trkpt>
      <trkpt lat="46.62044" lon="3.75276">
        <ele>230.8</ele>
        <time>2018-03-25T06:00:24Z</time>
      </trkpt>
      <trkpt lat="46.62035" lon="3.7528">
        <ele>230.7</ele>
        <time>2018-03-25T06:00:26Z</time>
      </trkpt>
      <trkpt lat="46.62027" lon="3.75283">
        <ele>230.5</ele>
        <time>2018-03-25T06:00:28Z</time>
      </trkpt>
      <trkpt lat="46.6202" lon="3.75286">
        <ele>230.2</ele>
        <time>2018-03-25T06:00:30Z</time>
      </trkpt>
      <trkpt lat="46.62014" lon="3.75289">
        <ele>229.9</ele>
        <time>2018-03-25T06:00:32Z</time>
      </trkpt>
      <trkpt lat="46.62006" lon="3.75295">
        <ele>229.6</ele>
        <time>2018-03-25T06:00:35Z</time>
      </trkpt>
      <trkpt lat="46.62" lon="3.75303">
        <ele>229.5</ele>
        <time>2018-03-25T06:00:42Z</time>
      </trkpt>
      <trkpt lat="46.61996" lon="3.75313">
        <ele>229.8</ele>
        <time>2018-03-25T06:00:58Z</time>
      </trkpt>
      <trkpt lat="46.61997" lon="3.75326">
        <ele>229.8</ele>
        <time>2018-03-25T06:01:02Z</time>
      </trkpt>
      <trkpt lat="46.61996" lon="3.75337">
        <ele>229.8</ele>
        <time>2018-03-25T06:01:06Z</time>
      </trkpt>
      <trkpt lat="46.61996" lon="3.75348">
        <ele>229.9</ele>
        <time>2018-03-25T06:01:10Z</time>
      </trkpt>
      <trkpt lat="46.61996" lon="3.75351">
        <ele>230</ele>
        <time>2018-03-25T06:01:11Z</time>
      </trkpt>
      <trkpt lat="46.61998" lon="3.7537">
        <ele>230.5</ele>
        <time>2018-03-25T06:01:18Z</time>
      </trkpt>
      <trkpt lat="46.62001" lon="3.75383">
        <ele>230</ele>
        <time>2018-03-25T06:02:57Z</time>
      </trkpt>
      <trkpt lat="46.62001" lon="3.75383">
        <ele>229.9</ele>
        <time>2018-03-25T06:02:58Z</time>
      </trkpt>
      <trkpt lat="46.61999" lon="3.7537">
        <ele>230.1</ele>
        <time>2018-03-25T06:04:52Z</time>
      </trkpt>
      <trkpt lat="46.61997" lon="3.75353">
        <ele>229.2</ele>
        <time>2018-03-25T06:04:57Z</time>
      </trkpt>
      <trkpt lat="46.61997" lon="3.75342">
        <ele>229.7</ele>
        <time>2018-03-25T06:05:00Z</time>
      </trkpt>
      <trkpt lat="46.61998" lon="3.75334">
        <ele>230</ele>
        <time>2018-03-25T06:05:02Z</time>
      </trkpt>
      <trkpt lat="46.62" lon="3.75324">
        <ele>229.1</ele>
        <time>2018-03-25T06:05:04Z</time>
      </trkpt>
      <trkpt lat="46.61997" lon="3.75315">
        <ele>228.5</ele>
        <time>2018-03-25T06:05:06Z</time>
      </trkpt>
      <trkpt lat="46.61991" lon="3.75313">
        <ele>228.7</ele>
        <time>2018-03-25T06:05:08Z</time>
      </trkpt>
      <trkpt lat="46.61983" lon="3.75317">
        <ele>229</ele>
        <time>2018-03-25T06:05:11Z</time>
      </trkpt>
      <trkpt lat="46.61976" lon="3.75321">
        <ele>228.6</ele>
        <time>2018-03-25T06:05:14Z</time>
      </trkpt>
      <trkpt lat="46.61968" lon="3.75328">
        <ele>229.3</ele>
        <time>2018-03-25T06:05:18Z</time>
      </trkpt>
      <trkpt lat="46.61964" lon="3.75337">
        <ele>229.9</ele>
        <time>2018-03-25T06:05:23Z</time>
      </trkpt>
      <trkpt lat="46.61958" lon="3.75344">
        <ele>230.4</ele>
        <time>2018-03-25T06:05:28Z</time>
      </trkpt>
      <trkpt lat="46.6195" lon="3.75346">
        <ele>230.9</ele>
        <time>2018-03-25T06:05:32Z</time>
      </trkpt>
      <trkpt lat="46.61942" lon="3.75347">
        <ele>231.8</ele>
        <time>2018-03-25T06:05:37Z</time>
      </trkpt>
      <trkpt lat="46.61951" lon="3.75347">
        <ele>231</ele>
        <time>2018-03-25T06:05:47Z</time>
      </trkpt>
      <trkpt lat="46.61958" lon="3.75342">
        <ele>231.3</ele>
        <time>2018-03-25T06:05:51Z</time>
      </trkpt>
      <trkpt lat="46.61963" lon="3.75351">
        <ele>230.8</ele>
        <time>2018-03-25T06:05:58Z</time>
      </trkpt>
      <trkpt lat="46.61963" lon="3.75355">
        <ele>230.7</ele>
        <time>2018-03-25T06:05:59Z</time>
      </trkpt>
      <trkpt lat="46.61963" lon="3.75373">
        <ele>230.9</ele>
        <time>2018-03-25T06:06:04Z</time>
      </trkpt>
      <trkpt lat="46.61963" lon="3.75386">
        <ele>232</ele>
        <time>2018-03-25T06:06:08Z</time>
      </trkpt>
      <trkpt lat="46.61963" lon="3.75397">
        <ele>231.8</ele>
        <time>2018-03-25T06:06:11Z</time>
      </trkpt>
      <trkpt lat="46.61965" lon="3.75408">
        <ele>231.7</ele>
        <time>2018-03-25T06:06:14Z</time>
      </trkpt>
      <trkpt lat="46.61972" lon="3.75416">
        <ele>232.7</ele>
        <time>2018-03-25T06:06:17Z</time>
      </trkpt>
      <trkpt lat="46.61977" lon="3.75426">
        <ele>232.4</ele>
        <time>2018-03-25T06:06:20Z</time>
      </trkpt>
      <trkpt lat="46.61981" lon="3.75433">
        <ele>232.6</ele>
        <time>2018-03-25T06:06:22Z</time>
      </trkpt>
      <trkpt lat="46.61983" lon="3.75442">
        <ele>232.9</ele>
        <time>2018-03-25T06:06:24Z</time>
      </trkpt>
      <trkpt lat="46.61986" lon="3.7545">
        <ele>232.9</ele>
        <time>2018-03-25T06:06:26Z</time>
      </trkpt>
      <trkpt lat="46.6199" lon="3.75457">
        <ele>232.6</ele>
        <time>2018-03-25T06:06:28Z</time>
      </trkpt>
      <trkpt lat="46.61997" lon="3.75461">
        <ele>232.4</ele>
        <time>2018-03-25T06:06:30Z</time>
      </trkpt>
      <trkpt lat="46.62004" lon="3.75467">
        <ele>232.6</ele>
        <time>2018-03-25T06:06:32Z</time>
      </trkpt>
      <trkpt lat="46.6201" lon="3.75473">
        <ele>232.9</ele>
        <time>2018-03-25T06:06:34Z</time>
      </trkpt>
      <trkpt lat="46.62016" lon="3.75481">
        <ele>232.8</ele>
        <time>2018-03-25T06:06:36Z</time>
      </trkpt>
      <trkpt lat="46.6202" lon="3.7549">
        <ele>232.6</ele>
        <time>2018-03-25T06:06:38Z</time>
      </trkpt>
      <trkpt lat="46.62025" lon="3.75499">
        <ele>232.2</ele>
        <time>2018-03-25T06:06:40Z</time>
      </trkpt>
      <trkpt lat="46.6203" lon="3.75509">
        <ele>231.8</ele>
        <time>2018-03-25T06:06:42Z</time>
      </trkpt>
      <trkpt lat="46.62035" lon="3.75518">
        <ele>232.5</ele>
        <time>2018-03-25T06:06:44Z</time>
      </trkpt>
      <trkpt lat="46.6204" lon="3.75526">
        <ele>232.8</ele>
        <time>2018-03-25T06:06:46Z</time>
      </trkpt>
      <trkpt lat="46.62045" lon="3.75536">
        <ele>232.6</ele>
        <time>2018-03-25T06:06:48Z</time>
      </trkpt>
      <trkpt lat="46.6205" lon="3.75545">
        <ele>232.6</ele>
        <time>2018-03-25T06:06:50Z</time>
      </trkpt>
      <trkpt lat="46.62054" lon="3.75555">
        <ele>232.4</ele>
        <time>2018-03-25T06:06:52Z</time>
      </trkpt>
      <trkpt lat="46.62059" lon="3.75564">
        <ele>232.2</ele>
        <time>2018-03-25T06:06:54Z</time>
      </trkpt>
      <trkpt lat="46.62065" lon="3.75573">
        <ele>231.8</ele>
        <time>2018-03-25T06:06:56Z</time>
      </trkpt>
      <trkpt lat="46.6207" lon="3.75582">
        <ele>232.1</ele>
        <time>2018-03-25T06:06:58Z</time>
      </trkpt>
      <trkpt lat="46.62074" lon="3.75587">
        <ele>231.8</ele>
        <time>2018-03-25T06:06:59Z</time>
      </trkpt>
      <trkpt lat="46.62077" lon="3.75593">
        <ele>231.6</ele>
        <time>2018-03-25T06:07:00Z</time>
      </trkpt>
      <trkpt lat="46.62079" lon="3.75599">
        <ele>231.5</ele>
        <time>2018-03-25T06:07:01Z</time>
      </trkpt>
      <trkpt lat="46.62082" lon="3.75605">
        <ele>231.3</ele>
        <time>2018-03-25T06:07:02Z</time>
      </trkpt>
      <trkpt lat="46.62084" lon="3.75611">
        <ele>231.2</ele>
        <time>2018-03-25T06:07:03Z</time>
      </trkpt>
      <trkpt lat="46.62085" lon="3.75617">
        <ele>231.4</ele>
        <time>2018-03-25T06:07:04Z</time>
      </trkpt>
      <trkpt lat="46.62087" lon="3.75624">
        <ele>231.5</ele>
        <time>2018-03-25T06:07:05Z</time>
      </trkpt>
      <trkpt lat="46.62088" lon="3.7563">
        <ele>231.5</ele>
        <time>2018-03-25T06:07:06Z</time>
      </trkpt>
      <trkpt lat="46.6209" lon="3.75637">
        <ele>231.6</ele>
        <time>2018-03-25T06:07:07Z</time>
      </trkpt>
      <trkpt lat="46.62092" lon="3.75643">
        <ele>231.6</ele>
        <time>2018-03-25T06:07:08Z</time>
      </trkpt>
      <trkpt lat="46.62093" lon="3.7565">
        <ele>231.6</ele>
        <time>2018-03-25T06:07:09Z</time>
      </trkpt>
      <trkpt lat="46.62095" lon="3.75656">
        <ele>231.6</ele>
        <time>2018-03-25T06:07:10Z</time>
      </trkpt>
      <trkpt lat="46.62098" lon="3.75668">
        <ele>231</ele>
        <time>2018-03-25T06:07:12Z</time>
      </trkpt>
      <trkpt lat="46.62101" lon="3.7568">
        <ele>230.5</ele>
        <time>2018-03-25T06:07:14Z</time>
      </trkpt>
      <trkpt lat="46.62103" lon="3.75686">
        <ele>230.2</ele>
        <time>2018-03-25T06:07:15Z</time>
      </trkpt>
      <trkpt lat="46.62106" lon="3.75699">
        <ele>230.4</ele>
        <time>2018-03-25T06:07:17Z</time>
      </trkpt>
      <trkpt lat="46.62108" lon="3.75711">
        <ele>230.6</ele>
        <time>2018-03-25T06:07:19Z</time>
      </trkpt>
      <trkpt lat="46.62111" lon="3.75721">
        <ele>230.7</ele>
        <time>2018-03-25T06:07:21Z</time>
      </trkpt>
      <trkpt lat="46.62113" lon="3.75731">
        <ele>230.6</ele>
        <time>2018-03-25T06:07:23Z</time>
      </trkpt>
      <trkpt lat="46.62116" lon="3.75741">
        <ele>230.3</ele>
        <time>2018-03-25T06:07:25Z</time>
      </trkpt>
      <trkpt lat="46.6212" lon="3.75751">
        <ele>230.1</ele>
        <time>2018-03-25T06:07:27Z</time>
      </trkpt>
      <trkpt lat="46.62122" lon="3.75763">
        <ele>230.7</ele>
        <time>2018-03-25T06:07:29Z</time>
      </trkpt>
      <trkpt lat="46.62123" lon="3.75776">
        <ele>230.4</ele>
        <time>2018-03-25T06:07:31Z</time>
      </trkpt>
      <trkpt lat="46.62123" lon="3.75789">
        <ele>230.2</ele>
        <time>2018-03-25T06:07:33Z</time>
      </trkpt>
      <trkpt lat="46.62121" lon="3.75801">
        <ele>230</ele>
        <time>2018-03-25T06:07:35Z</time>
      </trkpt>
      <trkpt lat="46.62121" lon="3.75812">
        <ele>229.9</ele>
        <time>2018-03-25T06:07:37Z</time>
      </trkpt>
      <trkpt lat="46.6212" lon="3.75823">
        <ele>230</ele>
        <time>2018-03-25T06:07:39Z</time>
      </trkpt>
      <trkpt lat="46.62119" lon="3.75834">
        <ele>230.3</ele>
        <time>2018-03-25T06:07:41Z</time>
      </trkpt>
      <trkpt lat="46.62118" lon="3.75844">
        <ele>229.9</ele>
        <time>2018-03-25T06:07:43Z</time>
      </trkpt>
      <trkpt lat="46.62118" lon="3.75855">
        <ele>230</ele>
        <time>2018-03-25T06:07:45Z</time>
      </trkpt>
      <trkpt lat="46.62118" lon="3.75865">
        <ele>230</ele>
        <time>2018-03-25T06:07:47Z</time>
      </trkpt>
      <trkpt lat="46.62118" lon="3.75875">
        <ele>230.1</ele>
        <time>2018-03-25T06:07:49Z</time>
      </trkpt>
      <trkpt lat="46.62118" lon="3.75885">
        <ele>230.3</ele>
        <time>2018-03-25T06:07:51Z</time>
      </trkpt>
      <trkpt lat="46.62118" lon="3.75896">
        <ele>230.6</ele>
        <time>2018-03-25T06:07:53Z</time>
      </trkpt>
      <trkpt lat="46.62118" lon="3.75906">
        <ele>230.8</ele>
        <time>2018-03-25T06:07:55Z</time>
      </trkpt>
      <trkpt lat="46.62118" lon="3.75916">
        <ele>230.9</ele>
        <time>2018-03-25T06:07:57Z</time>
      </trkpt>
      <trkpt lat="46.62118" lon="3.75926">
        <ele>231.1</ele>
        <time>2018-03-25T06:07:59Z</time>
      </trkpt>
      <trkpt lat="46.62118" lon="3.75937">
        <ele>231.2</ele>
        <time>2018-03-25T06:08:01Z</time>
      </trkpt>
      <trkpt lat="46.62118" lon="3.75942">
        <ele>231.3</ele>
        <time>2018-03-25T06:08:02Z</time>
      </trkpt>
      <trkpt lat="46.62119" lon="3.75958">
        <ele>231</ele>
        <time>2018-03-25T06:08:05Z</time>
      </trkpt>
      <trkpt lat="46.62119" lon="3.75969">
        <ele>230.6</ele>
        <time>2018-03-25T06:08:07Z</time>
      </trkpt>
      <trkpt lat="46.62119" lon="3.7598">
        <ele>231.3</ele>
        <time>2018-03-25T06:08:09Z</time>
      </trkpt>
      <trkpt lat="46.62119" lon="3.75991">
        <ele>231.1</ele>
        <time>2018-03-25T06:08:11Z</time>
      </trkpt>
      <trkpt lat="46.62119" lon="3.76003">
        <ele>230.9</ele>
        <time>2018-03-25T06:08:13Z</time>
      </trkpt>
      <trkpt lat="46.6212" lon="3.76014">
        <ele>231.1</ele>
        <time>2018-03-25T06:08:15Z</time>
      </trkpt>
      <trkpt lat="46.6212" lon="3.76025">
        <ele>230.7</ele>
        <time>2018-03-25T06:08:17Z</time>
      </trkpt>
      <trkpt lat="46.6212" lon="3.76035">
        <ele>231.2</ele>
        <time>2018-03-25T06:08:19Z</time>
      </trkpt>
      <trkpt lat="46.62122" lon="3.76046">
        <ele>231.5</ele>
        <time>2018-03-25T06:08:21Z</time>
      </trkpt>
      <trkpt lat="46.62125" lon="3.76057">
        <ele>231.5</ele>
        <time>2018-03-25T06:08:23Z</time>
      </trkpt>
      <trkpt lat="46.62128" lon="3.76068">
        <ele>231.4</ele>
        <time>2018-03-25T06:08:25Z</time>
      </trkpt>
      <trkpt lat="46.62132" lon="3.76079">
        <ele>230.9</ele>
        <time>2018-03-25T06:08:27Z</time>
      </trkpt>
      <trkpt lat="46.62135" lon="3.76084">
        <ele>230.4</ele>
        <time>2018-03-25T06:08:28Z</time>
      </trkpt>
      <trkpt lat="46.62138" lon="3.7609">
        <ele>230.1</ele>
        <time>2018-03-25T06:08:29Z</time>
      </trkpt>
      <trkpt lat="46.62141" lon="3.76095">
        <ele>230</ele>
        <time>2018-03-25T06:08:30Z</time>
      </trkpt>
      <trkpt lat="46.62144" lon="3.76101">
        <ele>230</ele>
        <time>2018-03-25T06:08:31Z</time>
      </trkpt>
      <trkpt lat="46.62146" lon="3.76107">
        <ele>230.3</ele>
        <time>2018-03-25T06:08:32Z</time>
      </trkpt>
      <trkpt lat="46.62148" lon="3.76113">
        <ele>230.5</ele>
        <time>2018-03-25T06:08:33Z</time>
      </trkpt>
      <trkpt lat="46.62149" lon="3.7612">
        <ele>230.7</ele>
        <time>2018-03-25T06:08:34Z</time>
      </trkpt>
      <trkpt lat="46.62149" lon="3.76127">
        <ele>230.4</ele>
        <time>2018-03-25T06:08:35Z</time>
      </trkpt>
      <trkpt lat="46.6215" lon="3.76133">
        <ele>230.2</ele>
        <time>2018-03-25T06:08:36Z</time>
      </trkpt>
      <trkpt lat="46.62149" lon="3.7614">
        <ele>229.8</ele>
        <time>2018-03-25T06:08:37Z</time>
      </trkpt>
      <trkpt lat="46.62148" lon="3.76153">
        <ele>229.3</ele>
        <time>2018-03-25T06:08:39Z</time>
      </trkpt>
      <trkpt lat="46.62148" lon="3.76165">
        <ele>229.1</ele>
        <time>2018-03-25T06:08:41Z</time>
      </trkpt>
      <trkpt lat="46.62151" lon="3.76176">
        <ele>229.2</ele>
        <time>2018-03-25T06:08:43Z</time>
      </trkpt>
      <trkpt lat="46.62154" lon="3.76187">
        <ele>229.1</ele>
        <time>2018-03-25T06:08:45Z</time>
      </trkpt>
      <trkpt lat="46.62157" lon="3.76199">
        <ele>228.8</ele>
        <time>2018-03-25T06:08:47Z</time>
      </trkpt>
      <trkpt lat="46.62157" lon="3.76211">
        <ele>228.8</ele>
        <time>2018-03-25T06:08:49Z</time>
      </trkpt>
      <trkpt lat="46.62155" lon="3.76222">
        <ele>228.9</ele>
        <time>2018-03-25T06:08:51Z</time>
      </trkpt>
      <trkpt lat="46.62151" lon="3.7623">
        <ele>228.7</ele>
        <time>2018-03-25T06:08:53Z</time>
      </trkpt>
      <trkpt lat="46.62147" lon="3.7624">
        <ele>229.7</ele>
        <time>2018-03-25T06:08:55Z</time>
      </trkpt>
      <trkpt lat="46.62145" lon="3.76251">
        <ele>230</ele>
        <time>2018-03-25T06:08:57Z</time>
      </trkpt>
      <trkpt lat="46.62145" lon="3.76261">
        <ele>229.9</ele>
        <time>2018-03-25T06:08:59Z</time>
      </trkpt>
      <trkpt lat="46.62144" lon="3.7627">
        <ele>230.3</ele>
        <time>2018-03-25T06:09:01Z</time>
      </trkpt>
      <trkpt lat="46.62144" lon="3.7628">
        <ele>230.2</ele>
        <time>2018-03-25T06:09:03Z</time>
      </trkpt>
      <trkpt lat="46.62143" lon="3.76285">
        <ele>229.9</ele>
        <time>2018-03-25T06:09:04Z</time>
      </trkpt>
      <trkpt lat="46.62139" lon="3.76298">
        <ele>229.7</ele>
        <time>2018-03-25T06:09:07Z</time>
      </trkpt>
      <trkpt lat="46.62136" lon="3.76306">
        <ele>229.8</ele>
        <time>2018-03-25T06:09:09Z</time>
      </trkpt>
      <trkpt lat="46.62132" lon="3.76314">
        <ele>229.5</ele>
        <time>2018-03-25T06:09:11Z</time>
      </trkpt>
      <trkpt lat="46.62129" lon="3.76323">
        <ele>229.5</ele>
        <time>2018-03-25T06:09:13Z</time>
      </trkpt>
      <trkpt lat="46.62126" lon="3.76332">
        <ele>230.3</ele>
        <time>2018-03-25T06:09:15Z</time>
      </trkpt>
      <trkpt lat="46.62122" lon="3.76339">
        <ele>230.9</ele>
        <time>2018-03-25T06:09:17Z</time>
      </trkpt>
      <trkpt lat="46.62115" lon="3.76347">
        <ele>231</ele>
        <time>2018-03-25T06:09:20Z</time>
      </trkpt>
      <trkpt lat="46.62108" lon="3.76351">
        <ele>231</ele>
        <time>2018-03-25T06:09:23Z</time>
      </trkpt>
      <trkpt lat="46.621" lon="3.76357">
        <ele>231.2</ele>
        <time>2018-03-25T06:09:26Z</time>
      </trkpt>
      <trkpt lat="46.62093" lon="3.76364">
        <ele>231.3</ele>
        <time>2018-03-25T06:09:29Z</time>
      </trkpt>
      <trkpt lat="46.62089" lon="3.76371">
        <ele>231.3</ele>
        <time>2018-03-25T06:09:31Z</time>
      </trkpt>
      <trkpt lat="46.62088" lon="3.7638">
        <ele>231.4</ele>
        <time>2018-03-25T06:09:33Z</time>
      </trkpt>
      <trkpt lat="46.62088" lon="3.7639">
        <ele>231.4</ele>
        <time>2018-03-25T06:09:35Z</time>
      </trkpt>
      <trkpt lat="46.62089" lon="3.76401">
        <ele>231.6</ele>
        <time>2018-03-25T06:09:37Z</time>
      </trkpt>
      <trkpt lat="46.62091" lon="3.76411">
        <ele>231.5</ele>
        <time>2018-03-25T06:09:39Z</time>
      </trkpt>
      <trkpt lat="46.62091" lon="3.76422">
        <ele>231.3</ele>
        <time>2018-03-25T06:09:41Z</time>
      </trkpt>
      <trkpt lat="46.62086" lon="3.7643">
        <ele>231.3</ele>
        <time>2018-03-25T06:09:43Z</time>
      </trkpt>
      <trkpt lat="46.62079" lon="3.76437">
        <ele>230.8</ele>
        <time>2018-03-25T06:09:45Z</time>
      </trkpt>
      <trkpt lat="46.62073" lon="3.76443">
        <ele>230.9</ele>
        <time>2018-03-25T06:09:47Z</time>
      </trkpt>
      <trkpt lat="46.62067" lon="3.76449">
        <ele>231.3</ele>
        <time>2018-03-25T06:09:49Z</time>
      </trkpt>
      <trkpt lat="46.6206" lon="3.76456">
        <ele>231.3</ele>
        <time>2018-03-25T06:09:51Z</time>
      </trkpt>
      <trkpt lat="46.62054" lon="3.76462">
        <ele>231.4</ele>
        <time>2018-03-25T06:09:53Z</time>
      </trkpt>
      <trkpt lat="46.62048" lon="3.76468">
        <ele>231.6</ele>
        <time>2018-03-25T06:09:55Z</time>
      </trkpt>
      <trkpt lat="46.62042" lon="3.76474">
        <ele>231.4</ele>
        <time>2018-03-25T06:09:57Z</time>
      </trkpt>
      <trkpt lat="46.62036" lon="3.7648">
        <ele>231.7</ele>
        <time>2018-03-25T06:09:59Z</time>
      </trkpt>
      <trkpt lat="46.6203" lon="3.76484">
        <ele>231.6</ele>
        <time>2018-03-25T06:10:01Z</time>
      </trkpt>
      <trkpt lat="46.62026" lon="3.7649">
        <ele>231.6</ele>
        <time>2018-03-25T06:10:03Z</time>
      </trkpt>
      <trkpt lat="46.62023" lon="3.76499">
        <ele>231.7</ele>
        <time>2018-03-25T06:10:05Z</time>
      </trkpt>
      <trkpt lat="46.62022" lon="3.76503">
        <ele>231.8</ele>
        <time>2018-03-25T06:10:06Z</time>
      </trkpt>
      <trkpt lat="46.62021" lon="3.76517">
        <ele>230.4</ele>
        <time>2018-03-25T06:10:09Z</time>
      </trkpt>
      <trkpt lat="46.6202" lon="3.76526">
        <ele>231.5</ele>
        <time>2018-03-25T06:10:11Z</time>
      </trkpt>
      <trkpt lat="46.62019" lon="3.76536">
        <ele>231.5</ele>
        <time>2018-03-25T06:10:13Z</time>
      </trkpt>
      <trkpt lat="46.62018" lon="3.76546">
        <ele>231.4</ele>
        <time>2018-03-25T06:10:15Z</time>
      </trkpt>
      <trkpt lat="46.62017" lon="3.76556">
        <ele>231.8</ele>
        <time>2018-03-25T06:10:17Z</time>
      </trkpt>
      <trkpt lat="46.62017" lon="3.76566">
        <ele>232.4</ele>
        <time>2018-03-25T06:10:19Z</time>
      </trkpt>
      <trkpt lat="46.62016" lon="3.76576">
        <ele>232.6</ele>
        <time>2018-03-25T06:10:21Z</time>
      </trkpt>
      <trkpt lat="46.62015" lon="3.76585">
        <ele>232.5</ele>
        <time>2018-03-25T06:10:23Z</time>
      </trkpt>
      <trkpt lat="46.62016" lon="3.76594">
        <ele>232.4</ele>
        <time>2018-03-25T06:10:25Z</time>
      </trkpt>
      <trkpt lat="46.62022" lon="3.76603">
        <ele>232.2</ele>
        <time>2018-03-25T06:10:28Z</time>
      </trkpt>
      <trkpt lat="46.62029" lon="3.76609">
        <ele>232.9</ele>
        <time>2018-03-25T06:10:31Z</time>
      </trkpt>
      <trkpt lat="46.62036" lon="3.76615">
        <ele>232.8</ele>
        <time>2018-03-25T06:10:34Z</time>
      </trkpt>
      <trkpt lat="46.62043" lon="3.76622">
        <ele>232.5</ele>
        <time>2018-03-25T06:10:37Z</time>
      </trkpt>
      <trkpt lat="46.6205" lon="3.76627">
        <ele>233.8</ele>
        <time>2018-03-25T06:10:40Z</time>
      </trkpt>
      <trkpt lat="46.62057" lon="3.76633">
        <ele>234</ele>
        <time>2018-03-25T06:10:43Z</time>
      </trkpt>
      <trkpt lat="46.6206" lon="3.76644">
        <ele>234.5</ele>
        <time>2018-03-25T06:10:47Z</time>
      </trkpt>
      <trkpt lat="46.62054" lon="3.7665">
        <ele>234.7</ele>
        <time>2018-03-25T06:10:50Z</time>
      </trkpt>
      <trkpt lat="46.62047" lon="3.76656">
        <ele>234.7</ele>
        <time>2018-03-25T06:10:53Z</time>
      </trkpt>
      <trkpt lat="46.6204" lon="3.7666">
        <ele>234.8</ele>
        <time>2018-03-25T06:10:56Z</time>
      </trkpt>
      <trkpt lat="46.62032" lon="3.76663">
        <ele>235.1</ele>
        <time>2018-03-25T06:10:59Z</time>
      </trkpt>
      <trkpt lat="46.62027" lon="3.76667">
        <ele>235.7</ele>
        <time>2018-03-25T06:11:01Z</time>
      </trkpt>
      <trkpt lat="46.62021" lon="3.76671">
        <ele>235.7</ele>
        <time>2018-03-25T06:11:03Z</time>
      </trkpt>
      <trkpt lat="46.62016" lon="3.76677">
        <ele>236.1</ele>
        <time>2018-03-25T06:11:05Z</time>
      </trkpt>
      <trkpt lat="46.62011" lon="3.76681">
        <ele>236.5</ele>
        <time>2018-03-25T06:11:07Z</time>
      </trkpt>
      <trkpt lat="46.62008" lon="3.76683">
        <ele>236.6</ele>
        <time>2018-03-25T06:11:08Z</time>
      </trkpt>
      <trkpt lat="46.62" lon="3.76691">
        <ele>236.9</ele>
        <time>2018-03-25T06:11:11Z</time>
      </trkpt>
      <trkpt lat="46.61996" lon="3.76701">
        <ele>236.8</ele>
        <time>2018-03-25T06:11:14Z</time>
      </trkpt>
      <trkpt lat="46.61993" lon="3.76713">
        <ele>236.6</ele>
        <time>2018-03-25T06:11:18Z</time>
      </trkpt>
      <trkpt lat="46.61989" lon="3.76722">
        <ele>237.5</ele>
        <time>2018-03-25T06:11:21Z</time>
      </trkpt>
      <trkpt lat="46.61987" lon="3.76732">
        <ele>237.7</ele>
        <time>2018-03-25T06:11:24Z</time>
      </trkpt>
      <trkpt lat="46.61985" lon="3.76744">
        <ele>238.2</ele>
        <time>2018-03-25T06:11:27Z</time>
      </trkpt>
      <trkpt lat="46.6198" lon="3.76755">
        <ele>238.2</ele>
        <time>2018-03-25T06:11:30Z</time>
      </trkpt>
      <trkpt lat="46.61975" lon="3.76764">
        <ele>238.2</ele>
        <time>2018-03-25T06:11:32Z</time>
      </trkpt>
      <trkpt lat="46.61971" lon="3.76775">
        <ele>238.6</ele>
        <time>2018-03-25T06:11:35Z</time>
      </trkpt>
      <trkpt lat="46.61973" lon="3.76787">
        <ele>237.3</ele>
        <time>2018-03-25T06:11:40Z</time>
      </trkpt>
      <trkpt lat="46.61969" lon="3.76797">
        <ele>237.1</ele>
        <time>2018-03-25T06:11:43Z</time>
      </trkpt>
      <trkpt lat="46.61964" lon="3.76803">
        <ele>237.3</ele>
        <time>2018-03-25T06:11:45Z</time>
      </trkpt>
      <trkpt lat="46.61959" lon="3.76811">
        <ele>237.2</ele>
        <time>2018-03-25T06:11:47Z</time>
      </trkpt>
      <trkpt lat="46.61953" lon="3.7682">
        <ele>237.1</ele>
        <time>2018-03-25T06:11:49Z</time>
      </trkpt>
      <trkpt lat="46.61947" lon="3.76828">
        <ele>236.9</ele>
        <time>2018-03-25T06:11:51Z</time>
      </trkpt>
      <trkpt lat="46.61941" lon="3.76837">
        <ele>236.7</ele>
        <time>2018-03-25T06:11:53Z</time>
      </trkpt>
      <trkpt lat="46.61935" lon="3.76847">
        <ele>236.4</ele>
        <time>2018-03-25T06:11:55Z</time>
      </trkpt>
      <trkpt lat="46.61932" lon="3.76852">
        <ele>236.2</ele>
        <time>2018-03-25T06:11:56Z</time>
      </trkpt>
      <trkpt lat="46.61929" lon="3.76856">
        <ele>236.4</ele>
        <time>2018-03-25T06:11:57Z</time>
      </trkpt>
      <trkpt lat="46.61925" lon="3.76861">
        <ele>236.5</ele>
        <time>2018-03-25T06:11:58Z</time>
      </trkpt>
      <trkpt lat="46.61919" lon="3.76871">
        <ele>235.8</ele>
        <time>2018-03-25T06:12:00Z</time>
      </trkpt>
      <trkpt lat="46.61914" lon="3.76879">
        <ele>235.8</ele>
        <time>2018-03-25T06:12:02Z</time>
      </trkpt>
      <trkpt lat="46.61909" lon="3.76887">
        <ele>236.5</ele>
        <time>2018-03-25T06:12:04Z</time>
      </trkpt>
      <trkpt lat="46.61904" lon="3.76895">
        <ele>237.1</ele>
        <time>2018-03-25T06:12:06Z</time>
      </trkpt>
      <trkpt lat="46.61898" lon="3.76902">
        <ele>236.3</ele>
        <time>2018-03-25T06:12:08Z</time>
      </trkpt>
      <trkpt lat="46.61895" lon="3.76905">
        <ele>236</ele>
        <time>2018-03-25T06:12:09Z</time>
      </trkpt>
      <trkpt lat="46.61886" lon="3.76915">
        <ele>236</ele>
        <time>2018-03-25T06:12:12Z</time>
      </trkpt>
      <trkpt lat="46.61881" lon="3.76921">
        <ele>236.3</ele>
        <time>2018-03-25T06:12:14Z</time>
      </trkpt>
      <trkpt lat="46.61876" lon="3.76927">
        <ele>236.5</ele>
        <time>2018-03-25T06:12:16Z</time>
      </trkpt>
      <trkpt lat="46.61868" lon="3.76934">
        <ele>236.6</ele>
        <time>2018-03-25T06:12:19Z</time>
      </trkpt>
      <trkpt lat="46.61863" lon="3.7694">
        <ele>237.2</ele>
        <time>2018-03-25T06:12:21Z</time>
      </trkpt>
      <trkpt lat="46.61857" lon="3.76946">
        <ele>237.7</ele>
        <time>2018-03-25T06:12:23Z</time>
      </trkpt>
      <trkpt lat="46.6185" lon="3.7695">
        <ele>238</ele>
        <time>2018-03-25T06:12:25Z</time>
      </trkpt>
      <trkpt lat="46.61842" lon="3.76955">
        <ele>237.6</ele>
        <time>2018-03-25T06:12:27Z</time>
      </trkpt>
      <trkpt lat="46.61834" lon="3.7696">
        <ele>236.9</ele>
        <time>2018-03-25T06:12:29Z</time>
      </trkpt>
      <trkpt lat="46.61827" lon="3.76965">
        <ele>236.9</ele>
        <time>2018-03-25T06:12:31Z</time>
      </trkpt>
      <trkpt lat="46.6182" lon="3.76971">
        <ele>237.1</ele>
        <time>2018-03-25T06:12:33Z</time>
      </trkpt>
      <trkpt lat="46.61814" lon="3.76978">
        <ele>237.4</ele>
        <time>2018-03-25T06:12:35Z</time>
      </trkpt>
      <trkpt lat="46.6181" lon="3.76987">
        <ele>237.3</ele>
        <time>2018-03-25T06:12:37Z</time>
      </trkpt>
      <trkpt lat="46.61808" lon="3.76997">
        <ele>237.2</ele>
        <time>2018-03-25T06:12:39Z</time>
      </trkpt>
      <trkpt lat="46.61808" lon="3.77007">
        <ele>237.2</ele>
        <time>2018-03-25T06:12:41Z</time>
      </trkpt>
      <trkpt lat="46.61809" lon="3.77017">
        <ele>237.4</ele>
        <time>2018-03-25T06:12:43Z</time>
      </trkpt>
      <trkpt lat="46.61809" lon="3.77027">
        <ele>237.2</ele>
        <time>2018-03-25T06:12:45Z</time>
      </trkpt>
      <trkpt lat="46.61809" lon="3.77037">
        <ele>237</ele>
        <time>2018-03-25T06:12:47Z</time>
      </trkpt>
      <trkpt lat="46.61807" lon="3.7705">
        <ele>237.3</ele>
        <time>2018-03-25T06:12:50Z</time>
      </trkpt>
      <trkpt lat="46.61806" lon="3.77061">
        <ele>237.8</ele>
        <time>2018-03-25T06:12:53Z</time>
      </trkpt>
      <trkpt lat="46.61799" lon="3.77068">
        <ele>239.1</ele>
        <time>2018-03-25T06:12:59Z</time>
      </trkpt>
      <trkpt lat="46.61796" lon="3.7708">
        <ele>238.9</ele>
        <time>2018-03-25T06:13:03Z</time>
      </trkpt>
      <trkpt lat="46.61793" lon="3.77089">
        <ele>240.2</ele>
        <time>2018-03-25T06:13:06Z</time>
      </trkpt>
      <trkpt lat="46.6179" lon="3.77101">
        <ele>241.3</ele>
        <time>2018-03-25T06:13:10Z</time>
      </trkpt>
      <trkpt lat="46.61788" lon="3.77104">
        <ele>241.9</ele>
        <time>2018-03-25T06:13:11Z</time>
      </trkpt>
      <trkpt lat="46.61783" lon="3.77119">
        <ele>243.8</ele>
        <time>2018-03-25T06:13:16Z</time>
      </trkpt>
      <trkpt lat="46.61781" lon="3.77129">
        <ele>244.9</ele>
        <time>2018-03-25T06:13:19Z</time>
      </trkpt>
      <trkpt lat="46.61777" lon="3.77138">
        <ele>246.9</ele>
        <time>2018-03-25T06:13:22Z</time>
      </trkpt>
      <trkpt lat="46.61774" lon="3.77148">
        <ele>247.4</ele>
        <time>2018-03-25T06:13:25Z</time>
      </trkpt>
      <trkpt lat="46.61771" lon="3.77157">
        <ele>248.3</ele>
        <time>2018-03-25T06:13:28Z</time>
      </trkpt>
      <trkpt lat="46.61768" lon="3.77166">
        <ele>248.9</ele>
        <time>2018-03-25T06:13:31Z</time>
      </trkpt>
      <trkpt lat="46.61765" lon="3.77176">
        <ele>248.8</ele>
        <time>2018-03-25T06:13:34Z</time>
      </trkpt>
      <trkpt lat="46.61761" lon="3.77186">
        <ele>249.2</ele>
        <time>2018-03-25T06:13:37Z</time>
      </trkpt>
      <trkpt lat="46.61757" lon="3.77196">
        <ele>250.5</ele>
        <time>2018-03-25T06:13:40Z</time>
      </trkpt>
      <trkpt lat="46.61753" lon="3.77206">
        <ele>251</ele>
        <time>2018-03-25T06:13:43Z</time>
      </trkpt>
      <trkpt lat="46.61749" lon="3.77216">
        <ele>251.1</ele>
        <time>2018-03-25T06:13:46Z</time>
      </trkpt>
      <trkpt lat="46.61745" lon="3.77225">
        <ele>252.3</ele>
        <time>2018-03-25T06:13:49Z</time>
      </trkpt>
      <trkpt lat="46.6174" lon="3.77234">
        <ele>253.5</ele>
        <time>2018-03-25T06:13:54Z</time>
      </trkpt>
      <trkpt lat="46.61735" lon="3.77241">
        <ele>253.3</ele>
        <time>2018-03-25T06:13:57Z</time>
      </trkpt>
      <trkpt lat="46.61732" lon="3.77249">
        <ele>253.2</ele>
        <time>2018-03-25T06:13:59Z</time>
      </trkpt>
      <trkpt lat="46.61729" lon="3.77261">
        <ele>253.2</ele>
        <time>2018-03-25T06:14:01Z</time>
      </trkpt>
      <trkpt lat="46.61729" lon="3.77268">
        <ele>253.3</ele>
        <time>2018-03-25T06:14:02Z</time>
      </trkpt>
      <trkpt lat="46.6173" lon="3.77276">
        <ele>252.8</ele>
        <time>2018-03-25T06:14:03Z</time>
      </trkpt>
      <trkpt lat="46.61733" lon="3.77284">
        <ele>252.3</ele>
        <time>2018-03-25T06:14:04Z</time>
      </trkpt>
      <trkpt lat="46.61737" lon="3.7729">
        <ele>252</ele>
        <time>2018-03-25T06:14:05Z</time>
      </trkpt>
      <trkpt lat="46.61741" lon="3.77296">
        <ele>251.7</ele>
        <time>2018-03-25T06:14:06Z</time>
      </trkpt>
      <trkpt lat="46.61746" lon="3.77302">
        <ele>251.5</ele>
        <time>2018-03-25T06:14:07Z</time>
      </trkpt>
      <trkpt lat="46.61751" lon="3.7731">
        <ele>250.9</ele>
        <time>2018-03-25T06:14:08Z</time>
      </trkpt>
      <trkpt lat="46.61754" lon="3.7732">
        <ele>250.5</ele>
        <time>2018-03-25T06:14:09Z</time>
      </trkpt>
      <trkpt lat="46.61754" lon="3.77331">
        <ele>250.1</ele>
        <time>2018-03-25T06:14:10Z</time>
      </trkpt>
      <trkpt lat="46.61752" lon="3.77342">
        <ele>249.9</ele>
        <time>2018-03-25T06:14:11Z</time>
      </trkpt>
      <trkpt lat="46.61746" lon="3.7735">
        <ele>249.7</ele>
        <time>2018-03-25T06:14:12Z</time>
      </trkpt>
      <trkpt lat="46.6174" lon="3.77353">
        <ele>248.6</ele>
        <time>2018-03-25T06:14:13Z</time>
      </trkpt>
      <trkpt lat="46.61734" lon="3.77353">
        <ele>247.8</ele>
        <time>2018-03-25T06:14:14Z</time>
      </trkpt>
      <trkpt lat="46.61728" lon="3.77351">
        <ele>247.4</ele>
        <time>2018-03-25T06:14:15Z</time>
      </trkpt>
      <trkpt lat="46.61723" lon="3.77351">
        <ele>247.1</ele>
        <time>2018-03-25T06:14:16Z</time>
      </trkpt>
      <trkpt lat="46.61718" lon="3.77351">
        <ele>246.8</ele>
        <time>2018-03-25T06:14:17Z</time>
      </trkpt>
      <trkpt lat="46.6171" lon="3.77353">
        <ele>246.6</ele>
        <time>2018-03-25T06:14:19Z</time>
      </trkpt>
      <trkpt lat="46.61703" lon="3.77357">
        <ele>246.5</ele>
        <time>2018-03-25T06:14:21Z</time>
      </trkpt>
      <trkpt lat="46.61697" lon="3.77361">
        <ele>246.9</ele>
        <time>2018-03-25T06:14:23Z</time>
      </trkpt>
      <trkpt lat="46.61692" lon="3.77365">
        <ele>247</ele>
        <time>2018-03-25T06:14:25Z</time>
      </trkpt>
      <trkpt lat="46.61686" lon="3.77369">
        <ele>247.5</ele>
        <time>2018-03-25T06:14:27Z</time>
      </trkpt>
      <trkpt lat="46.61678" lon="3.77374">
        <ele>247.8</ele>
        <time>2018-03-25T06:14:30Z</time>
      </trkpt>
      <trkpt lat="46.6167" lon="3.77381">
        <ele>248.4</ele>
        <time>2018-03-25T06:14:33Z</time>
      </trkpt>
      <trkpt lat="46.61662" lon="3.77387">
        <ele>249.6</ele>
        <time>2018-03-25T06:14:36Z</time>
      </trkpt>
      <trkpt lat="46.61655" lon="3.77392">
        <ele>249.3</ele>
        <time>2018-03-25T06:14:39Z</time>
      </trkpt>
      <trkpt lat="46.61647" lon="3.77397">
        <ele>249.2</ele>
        <time>2018-03-25T06:14:42Z</time>
      </trkpt>
      <trkpt lat="46.61639" lon="3.77403">
        <ele>249</ele>
        <time>2018-03-25T06:14:45Z</time>
      </trkpt>
      <trkpt lat="46.61631" lon="3.77409">
        <ele>249.9</ele>
        <time>2018-03-25T06:14:48Z</time>
      </trkpt>
      <trkpt lat="46.61626" lon="3.77418">
        <ele>250.6</ele>
        <time>2018-03-25T06:14:51Z</time>
      </trkpt>
      <trkpt lat="46.61622" lon="3.77429">
        <ele>251.3</ele>
        <time>2018-03-25T06:14:55Z</time>
      </trkpt>
      <trkpt lat="46.61617" lon="3.77436">
        <ele>252.1</ele>
        <time>2018-03-25T06:14:58Z</time>
      </trkpt>
      <trkpt lat="46.61611" lon="3.77443">
        <ele>252.7</ele>
        <time>2018-03-25T06:15:01Z</time>
      </trkpt>
      <trkpt lat="46.61605" lon="3.77448">
        <ele>254.2</ele>
        <time>2018-03-25T06:15:04Z</time>
      </trkpt>
      <trkpt lat="46.61597" lon="3.77454">
        <ele>253.9</ele>
        <time>2018-03-25T06:15:08Z</time>
      </trkpt>
      <trkpt lat="46.61591" lon="3.7746">
        <ele>254.1</ele>
        <time>2018-03-25T06:15:12Z</time>
      </trkpt>
      <trkpt lat="46.61589" lon="3.77462">
        <ele>254.4</ele>
        <time>2018-03-25T06:15:13Z</time>
      </trkpt>
      <trkpt lat="46.61577" lon="3.77477">
        <ele>255.8</ele>
        <time>2018-03-25T06:15:20Z</time>
      </trkpt>
      <trkpt lat="46.61571" lon="3.77485">
        <ele>256.4</ele>
        <time>2018-03-25T06:15:24Z</time>
      </trkpt>
      <trkpt lat="46.61565" lon="3.77493">
        <ele>257.5</ele>
        <time>2018-03-25T06:15:29Z</time>
      </trkpt>
      <trkpt lat="46.61559" lon="3.775">
        <ele>258.4</ele>
        <time>2018-03-25T06:15:33Z</time>
      </trkpt>
      <trkpt lat="46.61553" lon="3.77508">
        <ele>260.2</ele>
        <time>2018-03-25T06:15:37Z</time>
      </trkpt>
      <trkpt lat="46.61547" lon="3.77517">
        <ele>261.3</ele>
        <time>2018-03-25T06:15:41Z</time>
      </trkpt>
      <trkpt lat="46.61541" lon="3.77526">
        <ele>262.1</ele>
        <time>2018-03-25T06:15:45Z</time>
      </trkpt>
      <trkpt lat="46.61537" lon="3.77536">
        <ele>262.7</ele>
        <time>2018-03-25T06:15:49Z</time>
      </trkpt>
      <trkpt lat="46.61533" lon="3.77544">
        <ele>263.8</ele>
        <time>2018-03-25T06:15:53Z</time>
      </trkpt>
      <trkpt lat="46.61529" lon="3.77554">
        <ele>264.6</ele>
        <time>2018-03-25T06:15:57Z</time>
      </trkpt>
      <trkpt lat="46.61525" lon="3.77563">
        <ele>266.7</ele>
        <time>2018-03-25T06:16:01Z</time>
      </trkpt>
      <trkpt lat="46.61519" lon="3.77572">
        <ele>266.6</ele>
        <time>2018-03-25T06:16:05Z</time>
      </trkpt>
      <trkpt lat="46.61515" lon="3.7758">
        <ele>267.4</ele>
        <time>2018-03-25T06:16:09Z</time>
      </trkpt>
      <trkpt lat="46.6151" lon="3.77588">
        <ele>267.5</ele>
        <time>2018-03-25T06:16:13Z</time>
      </trkpt>
      <trkpt lat="46.61509" lon="3.7759">
        <ele>267.7</ele>
        <time>2018-03-25T06:16:14Z</time>
      </trkpt>
      <trkpt lat="46.615" lon="3.77605">
        <ele>268.7</ele>
        <time>2018-03-25T06:16:21Z</time>
      </trkpt>
      <trkpt lat="46.61495" lon="3.77615">
        <ele>269.6</ele>
        <time>2018-03-25T06:16:25Z</time>
      </trkpt>
      <trkpt lat="46.6149" lon="3.77623">
        <ele>270.4</ele>
        <time>2018-03-25T06:16:28Z</time>
      </trkpt>
      <trkpt lat="46.61485" lon="3.77632">
        <ele>271.4</ele>
        <time>2018-03-25T06:16:32Z</time>
      </trkpt>
      <trkpt lat="46.6148" lon="3.7764">
        <ele>271.8</ele>
        <time>2018-03-25T06:16:36Z</time>
      </trkpt>
      <trkpt lat="46.61474" lon="3.7765">
        <ele>272.6</ele>
        <time>2018-03-25T06:16:40Z</time>
      </trkpt>
      <trkpt lat="46.61469" lon="3.77657">
        <ele>273.2</ele>
        <time>2018-03-25T06:16:44Z</time>
      </trkpt>
      <trkpt lat="46.61465" lon="3.77666">
        <ele>274.5</ele>
        <time>2018-03-25T06:16:48Z</time>
      </trkpt>
      <trkpt lat="46.61462" lon="3.77677">
        <ele>275.3</ele>
        <time>2018-03-25T06:16:52Z</time>
      </trkpt>
      <trkpt lat="46.61459" lon="3.77687">
        <ele>275.3</ele>
        <time>2018-03-25T06:16:55Z</time>
      </trkpt>
      <trkpt lat="46.61456" lon="3.77697">
        <ele>275</ele>
        <time>2018-03-25T06:16:58Z</time>
      </trkpt>
      <trkpt lat="46.61453" lon="3.77709">
        <ele>274.9</ele>
        <time>2018-03-25T06:17:01Z</time>
      </trkpt>
      <trkpt lat="46.61451" lon="3.77721">
        <ele>275.1</ele>
        <time>2018-03-25T06:17:04Z</time>
      </trkpt>
      <trkpt lat="46.61448" lon="3.77733">
        <ele>275.4</ele>
        <time>2018-03-25T06:17:07Z</time>
      </trkpt>
      <trkpt lat="46.61446" lon="3.77742">
        <ele>275.6</ele>
        <time>2018-03-25T06:17:09Z</time>
      </trkpt>
      <trkpt lat="46.61443" lon="3.77754">
        <ele>275.5</ele>
        <time>2018-03-25T06:17:12Z</time>
      </trkpt>
      <trkpt lat="46.6144" lon="3.77765">
        <ele>275.9</ele>
        <time>2018-03-25T06:17:15Z</time>
      </trkpt>
      <trkpt lat="46.61439" lon="3.77769">
        <ele>276.4</ele>
        <time>2018-03-25T06:17:16Z</time>
      </trkpt>
      <trkpt lat="46.61435" lon="3.77789">
        <ele>276.4</ele>
        <time>2018-03-25T06:17:21Z</time>
      </trkpt>
      <trkpt lat="46.61432" lon="3.77799">
        <ele>276.5</ele>
        <time>2018-03-25T06:17:24Z</time>
      </trkpt>
      <trkpt lat="46.6143" lon="3.7781">
        <ele>276.9</ele>
        <time>2018-03-25T06:17:27Z</time>
      </trkpt>
      <trkpt lat="46.61427" lon="3.7782">
        <ele>276.5</ele>
        <time>2018-03-25T06:17:30Z</time>
      </trkpt>
      <trkpt lat="46.61425" lon="3.77831">
        <ele>276.9</ele>
        <time>2018-03-25T06:17:34Z</time>
      </trkpt>
      <trkpt lat="46.61423" lon="3.77843">
        <ele>277.8</ele>
        <time>2018-03-25T06:17:38Z</time>
      </trkpt>
      <trkpt lat="46.6142" lon="3.77854">
        <ele>279.6</ele>
        <time>2018-03-25T06:17:42Z</time>
      </trkpt>
      <trkpt lat="46.61418" lon="3.77865">
        <ele>280.5</ele>
        <time>2018-03-25T06:17:46Z</time>
      </trkpt>
      <trkpt lat="46.61414" lon="3.77876">
        <ele>280.9</ele>
        <time>2018-03-25T06:17:50Z</time>
      </trkpt>
      <trkpt lat="46.61411" lon="3.77887">
        <ele>281.5</ele>
        <time>2018-03-25T06:17:53Z</time>
      </trkpt>
      <trkpt lat="46.61408" lon="3.77897">
        <ele>282.3</ele>
        <time>2018-03-25T06:17:56Z</time>
      </trkpt>
      <trkpt lat="46.61406" lon="3.77907">
        <ele>283.1</ele>
        <time>2018-03-25T06:17:59Z</time>
      </trkpt>
      <trkpt lat="46.61404" lon="3.7792">
        <ele>283.8</ele>
        <time>2018-03-25T06:18:03Z</time>
      </trkpt>
      <trkpt lat="46.61403" lon="3.77929">
        <ele>284.2</ele>
        <time>2018-03-25T06:18:06Z</time>
      </trkpt>
      <trkpt lat="46.61401" lon="3.7794">
        <ele>284.4</ele>
        <time>2018-03-25T06:18:09Z</time>
      </trkpt>
      <trkpt lat="46.614" lon="3.77951">
        <ele>284.5</ele>
        <time>2018-03-25T06:18:12Z</time>
      </trkpt>
      <trkpt lat="46.61398" lon="3.77961">
        <ele>284.4</ele>
        <time>2018-03-25T06:18:15Z</time>
      </trkpt>
      <trkpt lat="46.61397" lon="3.77971">
        <ele>285.6</ele>
        <time>2018-03-25T06:18:18Z</time>
      </trkpt>
      <trkpt lat="46.61397" lon="3.77975">
        <ele>286</ele>
        <time>2018-03-25T06:18:19Z</time>
      </trkpt>
      <trkpt lat="46.61394" lon="3.77994">
        <ele>285.8</ele>
        <time>2018-03-25T06:18:25Z</time>
      </trkpt>
      <trkpt lat="46.61393" lon="3.78005">
        <ele>285.7</ele>
        <time>2018-03-25T06:18:28Z</time>
      </trkpt>
      <trkpt lat="46.61394" lon="3.78014">
        <ele>286.1</ele>
        <time>2018-03-25T06:18:30Z</time>
      </trkpt>
      <trkpt lat="46.61393" lon="3.78023">
        <ele>286.5</ele>
        <time>2018-03-25T06:18:32Z</time>
      </trkpt>
      <trkpt lat="46.61391" lon="3.78032">
        <ele>286.8</ele>
        <time>2018-03-25T06:18:34Z</time>
      </trkpt>
      <trkpt lat="46.61388" lon="3.78044">
        <ele>286.9</ele>
        <time>2018-03-25T06:18:37Z</time>
      </trkpt>
      <trkpt lat="46.61386" lon="3.78055">
        <ele>286.6</ele>
        <time>2018-03-25T06:18:40Z</time>
      </trkpt>
      <trkpt lat="46.61385" lon="3.78065">
        <ele>287.5</ele>
        <time>2018-03-25T06:18:43Z</time>
      </trkpt>
      <trkpt lat="46.61384" lon="3.78077">
        <ele>287.5</ele>
        <time>2018-03-25T06:18:46Z</time>
      </trkpt>
      <trkpt lat="46.61382" lon="3.78088">
        <ele>288.3</ele>
        <time>2018-03-25T06:18:49Z</time>
      </trkpt>
      <trkpt lat="46.6138" lon="3.78099">
        <ele>288.8</ele>
        <time>2018-03-25T06:18:52Z</time>
      </trkpt>
      <trkpt lat="46.61378" lon="3.78109">
        <ele>289.3</ele>
        <time>2018-03-25T06:18:55Z</time>
      </trkpt>
      <trkpt lat="46.61377" lon="3.78119">
        <ele>290</ele>
        <time>2018-03-25T06:18:58Z</time>
      </trkpt>
      <trkpt lat="46.61374" lon="3.78132">
        <ele>290.7</ele>
        <time>2018-03-25T06:19:02Z</time>
      </trkpt>
      <trkpt lat="46.61373" lon="3.78141">
        <ele>290.7</ele>
        <time>2018-03-25T06:19:05Z</time>
      </trkpt>
      <trkpt lat="46.61371" lon="3.78152">
        <ele>291.7</ele>
        <time>2018-03-25T06:19:08Z</time>
      </trkpt>
      <trkpt lat="46.61369" lon="3.78163">
        <ele>292.3</ele>
        <time>2018-03-25T06:19:11Z</time>
      </trkpt>
      <trkpt lat="46.61367" lon="3.78175">
        <ele>292.1</ele>
        <time>2018-03-25T06:19:14Z</time>
      </trkpt>
      <trkpt lat="46.61365" lon="3.78187">
        <ele>291.9</ele>
        <time>2018-03-25T06:19:17Z</time>
      </trkpt>
      <trkpt lat="46.61363" lon="3.78198">
        <ele>293.1</ele>
        <time>2018-03-25T06:19:20Z</time>
      </trkpt>
      <trkpt lat="46.61363" lon="3.78202">
        <ele>293.3</ele>
        <time>2018-03-25T06:19:21Z</time>
      </trkpt>
      <trkpt lat="46.61359" lon="3.78222">
        <ele>293.6</ele>
        <time>2018-03-25T06:19:26Z</time>
      </trkpt>
      <trkpt lat="46.61358" lon="3.78233">
        <ele>294.6</ele>
        <time>2018-03-25T06:19:29Z</time>
      </trkpt>
      <trkpt lat="46.61357" lon="3.78244">
        <ele>295.4</ele>
        <time>2018-03-25T06:19:32Z</time>
      </trkpt>
      <trkpt lat="46.61355" lon="3.78255">
        <ele>296</ele>
        <time>2018-03-25T06:19:35Z</time>
      </trkpt>
      <trkpt lat="46.61354" lon="3.78267">
        <ele>297.1</ele>
        <time>2018-03-25T06:19:38Z</time>
      </trkpt>
      <trkpt lat="46.61353" lon="3.78277">
        <ele>297.2</ele>
        <time>2018-03-25T06:19:41Z</time>
      </trkpt>
      <trkpt lat="46.61351" lon="3.78288">
        <ele>297.6</ele>
        <time>2018-03-25T06:19:44Z</time>
      </trkpt>
      <trkpt lat="46.61349" lon="3.78299">
        <ele>298.1</ele>
        <time>2018-03-25T06:19:47Z</time>
      </trkpt>
      <trkpt lat="46.61347" lon="3.78311">
        <ele>298.6</ele>
        <time>2018-03-25T06:19:50Z</time>
      </trkpt>
      <trkpt lat="46.61344" lon="3.78322">
        <ele>299.1</ele>
        <time>2018-03-25T06:19:53Z</time>
      </trkpt>
      <trkpt lat="46.6134" lon="3.78333">
        <ele>299.4</ele>
        <time>2018-03-25T06:19:56Z</time>
      </trkpt>
      <trkpt lat="46.61337" lon="3.78343">
        <ele>300.2</ele>
        <time>2018-03-25T06:19:59Z</time>
      </trkpt>
      <trkpt lat="46.61333" lon="3.78354">
        <ele>300.9</ele>
        <time>2018-03-25T06:20:02Z</time>
      </trkpt>
      <trkpt lat="46.61329" lon="3.78364">
        <ele>300.9</ele>
        <time>2018-03-25T06:20:05Z</time>
      </trkpt>
      <trkpt lat="46.61325" lon="3.78374">
        <ele>301.3</ele>
        <time>2018-03-25T06:20:08Z</time>
      </trkpt>
      <trkpt lat="46.61321" lon="3.78385">
        <ele>301.8</ele>
        <time>2018-03-25T06:20:11Z</time>
      </trkpt>
      <trkpt lat="46.61317" lon="3.78395">
        <ele>302.5</ele>
        <time>2018-03-25T06:20:14Z</time>
      </trkpt>
      <trkpt lat="46.61313" lon="3.78406">
        <ele>303.4</ele>
        <time>2018-03-25T06:20:17Z</time>
      </trkpt>
      <trkpt lat="46.61309" lon="3.78417">
        <ele>304</ele>
        <time>2018-03-25T06:20:20Z</time>
      </trkpt>
      <trkpt lat="46.61305" lon="3.78428">
        <ele>305.1</ele>
        <time>2018-03-25T06:20:23Z</time>
      </trkpt>
      <trkpt lat="46.61303" lon="3.78432">
        <ele>305.1</ele>
        <time>2018-03-25T06:20:24Z</time>
      </trkpt>
      <trkpt lat="46.61297" lon="3.78449">
        <ele>305.8</ele>
        <time>2018-03-25T06:20:29Z</time>
      </trkpt>
      <trkpt lat="46.61293" lon="3.7846">
        <ele>306.5</ele>
        <time>2018-03-25T06:20:32Z</time>
      </trkpt>
      <trkpt lat="46.61289" lon="3.7847">
        <ele>306.8</ele>
        <time>2018-03-25T06:20:35Z</time>
      </trkpt>
      <trkpt lat="46.61285" lon="3.78481">
        <ele>307.9</ele>
        <time>2018-03-25T06:20:38Z</time>
      </trkpt>
      <trkpt lat="46.61281" lon="3.78491">
        <ele>308.1</ele>
        <time>2018-03-25T06:20:41Z</time>
      </trkpt>
      <trkpt lat="46.61277" lon="3.78503">
        <ele>308.1</ele>
        <time>2018-03-25T06:20:44Z</time>
      </trkpt>
      <trkpt lat="46.61274" lon="3.78515">
        <ele>308</ele>
        <time>2018-03-25T06:20:47Z</time>
      </trkpt>
      <trkpt lat="46.61271" lon="3.78526">
        <ele>308.5</ele>
        <time>2018-03-25T06:20:50Z</time>
      </trkpt>
      <trkpt lat="46.6127" lon="3.78534">
        <ele>308.7</ele>
        <time>2018-03-25T06:20:52Z</time>
      </trkpt>
      <trkpt lat="46.61268" lon="3.78543">
        <ele>308.6</ele>
        <time>2018-03-25T06:20:54Z</time>
      </trkpt>
      <trkpt lat="46.61267" lon="3.78552">
        <ele>308.8</ele>
        <time>2018-03-25T06:20:56Z</time>
      </trkpt>
      <trkpt lat="46.61264" lon="3.7856">
        <ele>309.1</ele>
        <time>2018-03-25T06:20:58Z</time>
      </trkpt>
      <trkpt lat="46.61261" lon="3.78569">
        <ele>309.4</ele>
        <time>2018-03-25T06:21:00Z</time>
      </trkpt>
      <trkpt lat="46.6126" lon="3.78578">
        <ele>309.4</ele>
        <time>2018-03-25T06:21:02Z</time>
      </trkpt>
      <trkpt lat="46.61258" lon="3.78587">
        <ele>309.2</ele>
        <time>2018-03-25T06:21:04Z</time>
      </trkpt>
      <trkpt lat="46.61256" lon="3.78596">
        <ele>308.8</ele>
        <time>2018-03-25T06:21:06Z</time>
      </trkpt>
      <trkpt lat="46.61254" lon="3.78605">
        <ele>308.4</ele>
        <time>2018-03-25T06:21:08Z</time>
      </trkpt>
      <trkpt lat="46.61252" lon="3.78616">
        <ele>308.1</ele>
        <time>2018-03-25T06:21:10Z</time>
      </trkpt>
      <trkpt lat="46.6125" lon="3.78627">
        <ele>308</ele>
        <time>2018-03-25T06:21:12Z</time>
      </trkpt>
      <trkpt lat="46.61248" lon="3.78633">
        <ele>308</ele>
        <time>2018-03-25T06:21:13Z</time>
      </trkpt>
      <trkpt lat="46.61245" lon="3.78645">
        <ele>307.5</ele>
        <time>2018-03-25T06:21:15Z</time>
      </trkpt>
      <trkpt lat="46.61243" lon="3.78657">
        <ele>307.8</ele>
        <time>2018-03-25T06:21:17Z</time>
      </trkpt>
      <trkpt lat="46.61241" lon="3.78667">
        <ele>308.5</ele>
        <time>2018-03-25T06:21:19Z</time>
      </trkpt>
      <trkpt lat="46.61239" lon="3.78677">
        <ele>308.6</ele>
        <time>2018-03-25T06:21:21Z</time>
      </trkpt>
      <trkpt lat="46.61237" lon="3.78688">
        <ele>308.4</ele>
        <time>2018-03-25T06:21:23Z</time>
      </trkpt>
      <trkpt lat="46.61235" lon="3.78699">
        <ele>308.1</ele>
        <time>2018-03-25T06:21:25Z</time>
      </trkpt>
      <trkpt lat="46.61234" lon="3.78704">
        <ele>308.2</ele>
        <time>2018-03-25T06:21:26Z</time>
      </trkpt>
      <trkpt lat="46.61231" lon="3.78721">
        <ele>308.3</ele>
        <time>2018-03-25T06:21:29Z</time>
      </trkpt>
      <trkpt lat="46.61229" lon="3.78733">
        <ele>308.1</ele>
        <time>2018-03-25T06:21:31Z</time>
      </trkpt>
      <trkpt lat="46.61228" lon="3.78739">
        <ele>308</ele>
        <time>2018-03-25T06:21:32Z</time>
      </trkpt>
      <trkpt lat="46.61227" lon="3.78746">
        <ele>308</ele>
        <time>2018-03-25T06:21:33Z</time>
      </trkpt>
      <trkpt lat="46.61226" lon="3.78752">
        <ele>308</ele>
        <time>2018-03-25T06:21:34Z</time>
      </trkpt>
      <trkpt lat="46.61225" lon="3.78759">
        <ele>308</ele>
        <time>2018-03-25T06:21:35Z</time>
      </trkpt>
      <trkpt lat="46.61224" lon="3.78766">
        <ele>307.6</ele>
        <time>2018-03-25T06:21:36Z</time>
      </trkpt>
      <trkpt lat="46.61223" lon="3.78773">
        <ele>307.3</ele>
        <time>2018-03-25T06:21:37Z</time>
      </trkpt>
      <trkpt lat="46.61222" lon="3.78786">
        <ele>307.6</ele>
        <time>2018-03-25T06:21:39Z</time>
      </trkpt>
      <trkpt lat="46.61222" lon="3.78792">
        <ele>307.5</ele>
        <time>2018-03-25T06:21:40Z</time>
      </trkpt>
      <trkpt lat="46.61221" lon="3.78799">
        <ele>307.4</ele>
        <time>2018-03-25T06:21:41Z</time>
      </trkpt>
      <trkpt lat="46.6122" lon="3.78807">
        <ele>307.4</ele>
        <time>2018-03-25T06:21:42Z</time>
      </trkpt>
      <trkpt lat="46.61219" lon="3.78815">
        <ele>307.1</ele>
        <time>2018-03-25T06:21:43Z</time>
      </trkpt>
      <trkpt lat="46.61217" lon="3.78823">
        <ele>307</ele>
        <time>2018-03-25T06:21:44Z</time>
      </trkpt>
      <trkpt lat="46.61216" lon="3.78831">
        <ele>306.7</ele>
        <time>2018-03-25T06:21:45Z</time>
      </trkpt>
      <trkpt lat="46.61214" lon="3.78839">
        <ele>306.5</ele>
        <time>2018-03-25T06:21:46Z</time>
      </trkpt>
      <trkpt lat="46.61213" lon="3.78847">
        <ele>306.4</ele>
        <time>2018-03-25T06:21:47Z</time>
      </trkpt>
      <trkpt lat="46.61211" lon="3.78856">
        <ele>306.1</ele>
        <time>2018-03-25T06:21:48Z</time>
      </trkpt>
      <trkpt lat="46.61209" lon="3.78864">
        <ele>305.9</ele>
        <time>2018-03-25T06:21:49Z</time>
      </trkpt>
      <trkpt lat="46.61207" lon="3.78873">
        <ele>305.9</ele>
        <time>2018-03-25T06:21:50Z</time>
      </trkpt>
      <trkpt lat="46.61205" lon="3.7888">
        <ele>305.8</ele>
        <time>2018-03-25T06:21:51Z</time>
      </trkpt>
      <trkpt lat="46.61203" lon="3.78888">
        <ele>305.5</ele>
        <time>2018-03-25T06:21:52Z</time>
      </trkpt>
      <trkpt lat="46.61201" lon="3.78896">
        <ele>305.3</ele>
        <time>2018-03-25T06:21:53Z</time>
      </trkpt>
      <trkpt lat="46.61199" lon="3.78905">
        <ele>305.2</ele>
        <time>2018-03-25T06:21:54Z</time>
      </trkpt>
      <trkpt lat="46.61197" lon="3.78914">
        <ele>304.9</ele>
        <time>2018-03-25T06:21:55Z</time>
      </trkpt>
      <trkpt lat="46.61194" lon="3.78923">
        <ele>304.6</ele>
        <time>2018-03-25T06:21:56Z</time>
      </trkpt>
      <trkpt lat="46.61192" lon="3.78932">
        <ele>304.4</ele>
        <time>2018-03-25T06:21:57Z</time>
      </trkpt>
      <trkpt lat="46.6119" lon="3.78941">
        <ele>304.3</ele>
        <time>2018-03-25T06:21:58Z</time>
      </trkpt>
      <trkpt lat="46.61188" lon="3.7895">
        <ele>304.1</ele>
        <time>2018-03-25T06:21:59Z</time>
      </trkpt>
      <trkpt lat="46.61186" lon="3.78958">
        <ele>304</ele>
        <time>2018-03-25T06:22:00Z</time>
      </trkpt>
      <trkpt lat="46.61182" lon="3.78965">
        <ele>303.9</ele>
        <time>2018-03-25T06:22:01Z</time>
      </trkpt>
      <trkpt lat="46.61177" lon="3.78971">
        <ele>303.3</ele>
        <time>2018-03-25T06:22:02Z</time>
      </trkpt>
      <trkpt lat="46.61172" lon="3.78974">
        <ele>302.8</ele>
        <time>2018-03-25T06:22:03Z</time>
      </trkpt>
      <trkpt lat="46.61165" lon="3.78977">
        <ele>303</ele>
        <time>2018-03-25T06:22:04Z</time>
      </trkpt>
      <trkpt lat="46.61159" lon="3.78982">
        <ele>303.2</ele>
        <time>2018-03-25T06:22:05Z</time>
      </trkpt>
      <trkpt lat="46.61153" lon="3.78986">
        <ele>303.3</ele>
        <time>2018-03-25T06:22:06Z</time>
      </trkpt>
      <trkpt lat="46.61147" lon="3.78991">
        <ele>302.6</ele>
        <time>2018-03-25T06:22:07Z</time>
      </trkpt>
      <trkpt lat="46.61141" lon="3.78996">
        <ele>302</ele>
        <time>2018-03-25T06:22:08Z</time>
      </trkpt>
      <trkpt lat="46.61134" lon="3.79001">
        <ele>301.2</ele>
        <time>2018-03-25T06:22:09Z</time>
      </trkpt>
      <trkpt lat="46.61128" lon="3.79006">
        <ele>300.6</ele>
        <time>2018-03-25T06:22:10Z</time>
      </trkpt>
      <trkpt lat="46.61121" lon="3.7901">
        <ele>300.1</ele>
        <time>2018-03-25T06:22:11Z</time>
      </trkpt>
      <trkpt lat="46.61115" lon="3.79014">
        <ele>299.8</ele>
        <time>2018-03-25T06:22:12Z</time>
      </trkpt>
      <trkpt lat="46.61108" lon="3.79016">
        <ele>299.5</ele>
        <time>2018-03-25T06:22:13Z</time>
      </trkpt>
      <trkpt lat="46.61102" lon="3.79018">
        <ele>298.9</ele>
        <time>2018-03-25T06:22:14Z</time>
      </trkpt>
      <trkpt lat="46.61096" lon="3.79019">
        <ele>298.4</ele>
        <time>2018-03-25T06:22:15Z</time>
      </trkpt>
      <trkpt lat="46.61089" lon="3.79021">
        <ele>298.1</ele>
        <time>2018-03-25T06:22:16Z</time>
      </trkpt>
      <trkpt lat="46.61083" lon="3.79022">
        <ele>298</ele>
        <time>2018-03-25T06:22:17Z</time>
      </trkpt>
      <trkpt lat="46.61076" lon="3.79024">
        <ele>297.8</ele>
        <time>2018-03-25T06:22:18Z</time>
      </trkpt>
      <trkpt lat="46.6107" lon="3.79025">
        <ele>297.5</ele>
        <time>2018-03-25T06:22:19Z</time>
      </trkpt>
      <trkpt lat="46.61063" lon="3.79026">
        <ele>297.2</ele>
        <time>2018-03-25T06:22:20Z</time>
      </trkpt>
      <trkpt lat="46.61056" lon="3.79029">
        <ele>296.5</ele>
        <time>2018-03-25T06:22:21Z</time>
      </trkpt>
      <trkpt lat="46.61049" lon="3.79032">
        <ele>296.1</ele>
        <time>2018-03-25T06:22:22Z</time>
      </trkpt>
      <trkpt lat="46.61042" lon="3.79034">
        <ele>295.6</ele>
        <time>2018-03-25T06:22:23Z</time>
      </trkpt>
      <trkpt lat="46.61035" lon="3.79037">
        <ele>295.2</ele>
        <time>2018-03-25T06:22:24Z</time>
      </trkpt>
      <trkpt lat="46.61029" lon="3.7904">
        <ele>294.9</ele>
        <time>2018-03-25T06:22:25Z</time>
      </trkpt>
      <trkpt lat="46.61022" lon="3.79044">
        <ele>294.6</ele>
        <time>2018-03-25T06:22:26Z</time>
      </trkpt>
      <trkpt lat="46.61015" lon="3.79048">
        <ele>294.3</ele>
        <time>2018-03-25T06:22:27Z</time>
      </trkpt>
      <trkpt lat="46.61008" lon="3.79052">
        <ele>293.7</ele>
        <time>2018-03-25T06:22:28Z</time>
      </trkpt>
      <trkpt lat="46.61002" lon="3.79055">
        <ele>293.2</ele>
        <time>2018-03-25T06:22:29Z</time>
      </trkpt>
      <trkpt lat="46.60998" lon="3.79057">
        <ele>292.6</ele>
        <time>2018-03-25T06:22:30Z</time>
      </trkpt>
      <trkpt lat="46.60992" lon="3.7906">
        <ele>291.7</ele>
        <time>2018-03-25T06:22:32Z</time>
      </trkpt>
      <trkpt lat="46.60986" lon="3.79062">
        <ele>291.2</ele>
        <time>2018-03-25T06:22:34Z</time>
      </trkpt>
      <trkpt lat="46.60979" lon="3.79067">
        <ele>290.9</ele>
        <time>2018-03-25T06:22:36Z</time>
      </trkpt>
      <trkpt lat="46.60973" lon="3.79073">
        <ele>290.7</ele>
        <time>2018-03-25T06:22:38Z</time>
      </trkpt>
      <trkpt lat="46.60968" lon="3.79078">
        <ele>290.7</ele>
        <time>2018-03-25T06:22:40Z</time>
      </trkpt>
      <trkpt lat="46.60964" lon="3.79084">
        <ele>290.7</ele>
        <time>2018-03-25T06:22:42Z</time>
      </trkpt>
      <trkpt lat="46.60958" lon="3.7909">
        <ele>290.7</ele>
        <time>2018-03-25T06:22:44Z</time>
      </trkpt>
      <trkpt lat="46.60951" lon="3.79092">
        <ele>290.1</ele>
        <time>2018-03-25T06:22:46Z</time>
      </trkpt>
      <trkpt lat="46.60946" lon="3.79099">
        <ele>289.2</ele>
        <time>2018-03-25T06:22:48Z</time>
      </trkpt>
      <trkpt lat="46.6094" lon="3.79106">
        <ele>289.5</ele>
        <time>2018-03-25T06:22:50Z</time>
      </trkpt>
      <trkpt lat="46.60936" lon="3.79114">
        <ele>289.3</ele>
        <time>2018-03-25T06:22:52Z</time>
      </trkpt>
      <trkpt lat="46.60931" lon="3.79123">
        <ele>288.9</ele>
        <time>2018-03-25T06:22:55Z</time>
      </trkpt>
      <trkpt lat="46.60926" lon="3.7913">
        <ele>288.5</ele>
        <time>2018-03-25T06:22:57Z</time>
      </trkpt>
      <trkpt lat="46.60922" lon="3.79137">
        <ele>287.9</ele>
        <time>2018-03-25T06:22:59Z</time>
      </trkpt>
      <trkpt lat="46.60916" lon="3.79143">
        <ele>287.8</ele>
        <time>2018-03-25T06:23:01Z</time>
      </trkpt>
      <trkpt lat="46.6091" lon="3.79151">
        <ele>287.8</ele>
        <time>2018-03-25T06:23:04Z</time>
      </trkpt>
      <trkpt lat="46.60904" lon="3.7916">
        <ele>287.4</ele>
        <time>2018-03-25T06:23:07Z</time>
      </trkpt>
      <trkpt lat="46.609" lon="3.7917">
        <ele>287.1</ele>
        <time>2018-03-25T06:23:10Z</time>
      </trkpt>
      <trkpt lat="46.60896" lon="3.79177">
        <ele>287.6</ele>
        <time>2018-03-25T06:23:12Z</time>
      </trkpt>
      <trkpt lat="46.60891" lon="3.79185">
        <ele>287.5</ele>
        <time>2018-03-25T06:23:14Z</time>
      </trkpt>
      <trkpt lat="46.60887" lon="3.79193">
        <ele>287.6</ele>
        <time>2018-03-25T06:23:16Z</time>
      </trkpt>
      <trkpt lat="46.60883" lon="3.79199">
        <ele>287.7</ele>
        <time>2018-03-25T06:23:18Z</time>
      </trkpt>
      <trkpt lat="46.60878" lon="3.79206">
        <ele>287.6</ele>
        <time>2018-03-25T06:23:20Z</time>
      </trkpt>
      <trkpt lat="46.60873" lon="3.79214">
        <ele>287.3</ele>
        <time>2018-03-25T06:23:22Z</time>
      </trkpt>
      <trkpt lat="46.60867" lon="3.79221">
        <ele>287.4</ele>
        <time>2018-03-25T06:23:24Z</time>
      </trkpt>
      <trkpt lat="46.60861" lon="3.7923">
        <ele>286.9</ele>
        <time>2018-03-25T06:23:26Z</time>
      </trkpt>
      <trkpt lat="46.60853" lon="3.79236">
        <ele>286.6</ele>
        <time>2018-03-25T06:23:28Z</time>
      </trkpt>
      <trkpt lat="46.60849" lon="3.79239">
        <ele>286.5</ele>
        <time>2018-03-25T06:23:29Z</time>
      </trkpt>
      <trkpt lat="46.60841" lon="3.79245">
        <ele>286.3</ele>
        <time>2018-03-25T06:23:31Z</time>
      </trkpt>
      <trkpt lat="46.60834" lon="3.79249">
        <ele>285.6</ele>
        <time>2018-03-25T06:23:33Z</time>
      </trkpt>
      <trkpt lat="46.60829" lon="3.79251">
        <ele>285.4</ele>
        <time>2018-03-25T06:23:34Z</time>
      </trkpt>
      <trkpt lat="46.60825" lon="3.79254">
        <ele>284.9</ele>
        <time>2018-03-25T06:23:35Z</time>
      </trkpt>
      <trkpt lat="46.60816" lon="3.79257">
        <ele>284.7</ele>
        <time>2018-03-25T06:23:37Z</time>
      </trkpt>
      <trkpt lat="46.60812" lon="3.79259">
        <ele>284.7</ele>
        <time>2018-03-25T06:23:38Z</time>
      </trkpt>
      <trkpt lat="46.60807" lon="3.7926">
        <ele>284.8</ele>
        <time>2018-03-25T06:23:39Z</time>
      </trkpt>
      <trkpt lat="46.60803" lon="3.79262">
        <ele>284.6</ele>
        <time>2018-03-25T06:23:40Z</time>
      </trkpt>
      <trkpt lat="46.60798" lon="3.79263">
        <ele>284.6</ele>
        <time>2018-03-25T06:23:41Z</time>
      </trkpt>
      <trkpt lat="46.60794" lon="3.79264">
        <ele>284.4</ele>
        <time>2018-03-25T06:23:42Z</time>
      </trkpt>
      <trkpt lat="46.60789" lon="3.79265">
        <ele>284.2</ele>
        <time>2018-03-25T06:23:43Z</time>
      </trkpt>
      <trkpt lat="46.60784" lon="3.79266">
        <ele>284.4</ele>
        <time>2018-03-25T06:23:44Z</time>
      </trkpt>
      <trkpt lat="46.60776" lon="3.79267">
        <ele>284.7</ele>
        <time>2018-03-25T06:23:46Z</time>
      </trkpt>
      <trkpt lat="46.60768" lon="3.79267">
        <ele>284.1</ele>
        <time>2018-03-25T06:23:48Z</time>
      </trkpt>
      <trkpt lat="46.60762" lon="3.79263">
        <ele>282.8</ele>
        <time>2018-03-25T06:23:50Z</time>
      </trkpt>
      <trkpt lat="46.60754" lon="3.79259">
        <ele>281</ele>
        <time>2018-03-25T06:23:53Z</time>
      </trkpt>
      <trkpt lat="46.60748" lon="3.79255">
        <ele>280.4</ele>
        <time>2018-03-25T06:23:55Z</time>
      </trkpt>
      <trkpt lat="46.60743" lon="3.79249">
        <ele>280.3</ele>
        <time>2018-03-25T06:23:57Z</time>
      </trkpt>
      <trkpt lat="46.60738" lon="3.79242">
        <ele>280.1</ele>
        <time>2018-03-25T06:23:59Z</time>
      </trkpt>
      <trkpt lat="46.60731" lon="3.7924">
        <ele>279.6</ele>
        <time>2018-03-25T06:24:01Z</time>
      </trkpt>
      <trkpt lat="46.60724" lon="3.79239">
        <ele>278.7</ele>
        <time>2018-03-25T06:24:03Z</time>
      </trkpt>
      <trkpt lat="46.60718" lon="3.79236">
        <ele>277.9</ele>
        <time>2018-03-25T06:24:05Z</time>
      </trkpt>
      <trkpt lat="46.60711" lon="3.79233">
        <ele>277.7</ele>
        <time>2018-03-25T06:24:07Z</time>
      </trkpt>
      <trkpt lat="46.60703" lon="3.79232">
        <ele>277.3</ele>
        <time>2018-03-25T06:24:09Z</time>
      </trkpt>
      <trkpt lat="46.60696" lon="3.79231">
        <ele>277.3</ele>
        <time>2018-03-25T06:24:11Z</time>
      </trkpt>
      <trkpt lat="46.60689" lon="3.7923">
        <ele>276.8</ele>
        <time>2018-03-25T06:24:13Z</time>
      </trkpt>
      <trkpt lat="46.60683" lon="3.79228">
        <ele>275.8</ele>
        <time>2018-03-25T06:24:15Z</time>
      </trkpt>
      <trkpt lat="46.60676" lon="3.79226">
        <ele>275.1</ele>
        <time>2018-03-25T06:24:17Z</time>
      </trkpt>
      <trkpt lat="46.6067" lon="3.79224">
        <ele>274.6</ele>
        <time>2018-03-25T06:24:19Z</time>
      </trkpt>
      <trkpt lat="46.60664" lon="3.79222">
        <ele>273.9</ele>
        <time>2018-03-25T06:24:21Z</time>
      </trkpt>
      <trkpt lat="46.60656" lon="3.7922">
        <ele>273</ele>
        <time>2018-03-25T06:24:23Z</time>
      </trkpt>
      <trkpt lat="46.60648" lon="3.7922">
        <ele>272.2</ele>
        <time>2018-03-25T06:24:25Z</time>
      </trkpt>
      <trkpt lat="46.60642" lon="3.7922">
        <ele>271.4</ele>
        <time>2018-03-25T06:24:27Z</time>
      </trkpt>
      <trkpt lat="46.60635" lon="3.79222">
        <ele>271</ele>
        <time>2018-03-25T06:24:29Z</time>
      </trkpt>
      <trkpt lat="46.60632" lon="3.79222">
        <ele>270.8</ele>
        <time>2018-03-25T06:24:30Z</time>
      </trkpt>
      <trkpt lat="46.6062" lon="3.79226">
        <ele>269.8</ele>
        <time>2018-03-25T06:24:34Z</time>
      </trkpt>
      <trkpt lat="46.60614" lon="3.79228">
        <ele>269.9</ele>
        <time>2018-03-25T06:24:36Z</time>
      </trkpt>
      <trkpt lat="46.60606" lon="3.79231">
        <ele>269.4</ele>
        <time>2018-03-25T06:24:38Z</time>
      </trkpt>
      <trkpt lat="46.60602" lon="3.79231">
        <ele>269.3</ele>
        <time>2018-03-25T06:24:39Z</time>
      </trkpt>
      <trkpt lat="46.60597" lon="3.79232">
        <ele>269.2</ele>
        <time>2018-03-25T06:24:40Z</time>
      </trkpt>
      <trkpt lat="46.60592" lon="3.79233">
        <ele>269</ele>
        <time>2018-03-25T06:24:41Z</time>
      </trkpt>
      <trkpt lat="46.60584" lon="3.79234">
        <ele>268.7</ele>
        <time>2018-03-25T06:24:43Z</time>
      </trkpt>
      <trkpt lat="46.60576" lon="3.79231">
        <ele>268.7</ele>
        <time>2018-03-25T06:24:45Z</time>
      </trkpt>
      <trkpt lat="46.60568" lon="3.79229">
        <ele>268.4</ele>
        <time>2018-03-25T06:24:47Z</time>
      </trkpt>
      <trkpt lat="46.60559" lon="3.79228">
        <ele>268.6</ele>
        <time>2018-03-25T06:24:49Z</time>
      </trkpt>
      <trkpt lat="46.60551" lon="3.7923">
        <ele>268.4</ele>
        <time>2018-03-25T06:24:51Z</time>
      </trkpt>
      <trkpt lat="46.60543" lon="3.79234">
        <ele>267.9</ele>
        <time>2018-03-25T06:24:53Z</time>
      </trkpt>
      <trkpt lat="46.60534" lon="3.79236">
        <ele>267.5</ele>
        <time>2018-03-25T06:24:55Z</time>
      </trkpt>
      <trkpt lat="46.60526" lon="3.79236">
        <ele>266.4</ele>
        <time>2018-03-25T06:24:57Z</time>
      </trkpt>
      <trkpt lat="46.60517" lon="3.79238">
        <ele>265.9</ele>
        <time>2018-03-25T06:24:59Z</time>
      </trkpt>
      <trkpt lat="46.60509" lon="3.79239">
        <ele>265.4</ele>
        <time>2018-03-25T06:25:01Z</time>
      </trkpt>
      <trkpt lat="46.605" lon="3.7924">
        <ele>265.2</ele>
        <time>2018-03-25T06:25:03Z</time>
      </trkpt>
      <trkpt lat="46.60493" lon="3.79244">
        <ele>264.5</ele>
        <time>2018-03-25T06:25:05Z</time>
      </trkpt>
      <trkpt lat="46.60485" lon="3.79248">
        <ele>263.8</ele>
        <time>2018-03-25T06:25:07Z</time>
      </trkpt>
      <trkpt lat="46.60477" lon="3.79251">
        <ele>264</ele>
        <time>2018-03-25T06:25:10Z</time>
      </trkpt>
      <trkpt lat="46.60469" lon="3.79255">
        <ele>262.8</ele>
        <time>2018-03-25T06:25:13Z</time>
      </trkpt>
      <trkpt lat="46.60462" lon="3.79258">
        <ele>262.2</ele>
        <time>2018-03-25T06:25:15Z</time>
      </trkpt>
      <trkpt lat="46.60455" lon="3.79261">
        <ele>261.9</ele>
        <time>2018-03-25T06:25:17Z</time>
      </trkpt>
      <trkpt lat="46.60447" lon="3.79264">
        <ele>261.9</ele>
        <time>2018-03-25T06:25:19Z</time>
      </trkpt>
      <trkpt lat="46.60438" lon="3.79269">
        <ele>262.1</ele>
        <time>2018-03-25T06:25:21Z</time>
      </trkpt>
      <trkpt lat="46.60431" lon="3.79274">
        <ele>262.4</ele>
        <time>2018-03-25T06:25:23Z</time>
      </trkpt>
      <trkpt lat="46.60427" lon="3.79277">
        <ele>262</ele>
        <time>2018-03-25T06:25:24Z</time>
      </trkpt>
      <trkpt lat="46.60423" lon="3.7928">
        <ele>261.8</ele>
        <time>2018-03-25T06:25:25Z</time>
      </trkpt>
      <trkpt lat="46.60415" lon="3.79286">
        <ele>261.4</ele>
        <time>2018-03-25T06:25:27Z</time>
      </trkpt>
      <trkpt lat="46.60409" lon="3.79292">
        <ele>261.1</ele>
        <time>2018-03-25T06:25:29Z</time>
      </trkpt>
      <trkpt lat="46.60403" lon="3.79298">
        <ele>261.2</ele>
        <time>2018-03-25T06:25:31Z</time>
      </trkpt>
      <trkpt lat="46.604" lon="3.79301">
        <ele>261.4</ele>
        <time>2018-03-25T06:25:32Z</time>
      </trkpt>
      <trkpt lat="46.60392" lon="3.79308">
        <ele>261.7</ele>
        <time>2018-03-25T06:25:35Z</time>
      </trkpt>
      <trkpt lat="46.60387" lon="3.79314">
        <ele>260.9</ele>
        <time>2018-03-25T06:25:37Z</time>
      </trkpt>
      <trkpt lat="46.60382" lon="3.79321">
        <ele>261</ele>
        <time>2018-03-25T06:25:39Z</time>
      </trkpt>
      <trkpt lat="46.60375" lon="3.79329">
        <ele>261.9</ele>
        <time>2018-03-25T06:25:42Z</time>
      </trkpt>
      <trkpt lat="46.60369" lon="3.79333">
        <ele>261.5</ele>
        <time>2018-03-25T06:25:44Z</time>
      </trkpt>
      <trkpt lat="46.60362" lon="3.79336">
        <ele>261.5</ele>
        <time>2018-03-25T06:25:46Z</time>
      </trkpt>
      <trkpt lat="46.60353" lon="3.7934">
        <ele>261.9</ele>
        <time>2018-03-25T06:25:49Z</time>
      </trkpt>
      <trkpt lat="46.60347" lon="3.79343">
        <ele>261.9</ele>
        <time>2018-03-25T06:25:51Z</time>
      </trkpt>
      <trkpt lat="46.6034" lon="3.79345">
        <ele>261.5</ele>
        <time>2018-03-25T06:25:53Z</time>
      </trkpt>
      <trkpt lat="46.60333" lon="3.79348">
        <ele>261.4</ele>
        <time>2018-03-25T06:25:55Z</time>
      </trkpt>
      <trkpt lat="46.60325" lon="3.79352">
        <ele>261.5</ele>
        <time>2018-03-25T06:25:57Z</time>
      </trkpt>
      <trkpt lat="46.60317" lon="3.79359">
        <ele>261.6</ele>
        <time>2018-03-25T06:25:59Z</time>
      </trkpt>
      <trkpt lat="46.60313" lon="3.79362">
        <ele>261.2</ele>
        <time>2018-03-25T06:26:00Z</time>
      </trkpt>
      <trkpt lat="46.60309" lon="3.79366">
        <ele>260.9</ele>
        <time>2018-03-25T06:26:01Z</time>
      </trkpt>
      <trkpt lat="46.60303" lon="3.79368">
        <ele>260.3</ele>
        <time>2018-03-25T06:26:02Z</time>
      </trkpt>
      <trkpt lat="46.60298" lon="3.79371">
        <ele>259.9</ele>
        <time>2018-03-25T06:26:03Z</time>
      </trkpt>
      <trkpt lat="46.60292" lon="3.79372">
        <ele>259.6</ele>
        <time>2018-03-25T06:26:04Z</time>
      </trkpt>
      <trkpt lat="46.60286" lon="3.79373">
        <ele>259.6</ele>
        <time>2018-03-25T06:26:05Z</time>
      </trkpt>
      <trkpt lat="46.60279" lon="3.79374">
        <ele>259.6</ele>
        <time>2018-03-25T06:26:06Z</time>
      </trkpt>
      <trkpt lat="46.60272" lon="3.79377">
        <ele>259.1</ele>
        <time>2018-03-25T06:26:07Z</time>
      </trkpt>
      <trkpt lat="46.60264" lon="3.7938">
        <ele>258.6</ele>
        <time>2018-03-25T06:26:08Z</time>
      </trkpt>
      <trkpt lat="46.60257" lon="3.79383">
        <ele>258.3</ele>
        <time>2018-03-25T06:26:09Z</time>
      </trkpt>
      <trkpt lat="46.60248" lon="3.79386">
        <ele>257.8</ele>
        <time>2018-03-25T06:26:10Z</time>
      </trkpt>
      <trkpt lat="46.60241" lon="3.7939">
        <ele>257.4</ele>
        <time>2018-03-25T06:26:11Z</time>
      </trkpt>
      <trkpt lat="46.60233" lon="3.79394">
        <ele>256.9</ele>
        <time>2018-03-25T06:26:12Z</time>
      </trkpt>
      <trkpt lat="46.60226" lon="3.794">
        <ele>256.5</ele>
        <time>2018-03-25T06:26:13Z</time>
      </trkpt>
      <trkpt lat="46.60219" lon="3.79409">
        <ele>255.9</ele>
        <time>2018-03-25T06:26:14Z</time>
      </trkpt>
      <trkpt lat="46.60213" lon="3.79418">
        <ele>255.5</ele>
        <time>2018-03-25T06:26:15Z</time>
      </trkpt>
      <trkpt lat="46.60207" lon="3.79427">
        <ele>255.1</ele>
        <time>2018-03-25T06:26:16Z</time>
      </trkpt>
      <trkpt lat="46.60201" lon="3.79434">
        <ele>254</ele>
        <time>2018-03-25T06:26:17Z</time>
      </trkpt>
      <trkpt lat="46.60193" lon="3.79439">
        <ele>253.1</ele>
        <time>2018-03-25T06:26:18Z</time>
      </trkpt>
      <trkpt lat="46.60184" lon="3.79442">
        <ele>251.7</ele>
        <time>2018-03-25T06:26:19Z</time>
      </trkpt>
      <trkpt lat="46.60173" lon="3.79445">
        <ele>250.7</ele>
        <time>2018-03-25T06:26:20Z</time>
      </trkpt>
      <trkpt lat="46.60163" lon="3.79447">
        <ele>249.3</ele>
        <time>2018-03-25T06:26:21Z</time>
      </trkpt>
      <trkpt lat="46.60154" lon="3.79448">
        <ele>248.2</ele>
        <time>2018-03-25T06:26:22Z</time>
      </trkpt>
      <trkpt lat="46.60144" lon="3.79451">
        <ele>247.4</ele>
        <time>2018-03-25T06:26:23Z</time>
      </trkpt>
      <trkpt lat="46.60135" lon="3.79454">
        <ele>247</ele>
        <time>2018-03-25T06:26:24Z</time>
      </trkpt>
      <trkpt lat="46.60127" lon="3.79457">
        <ele>246.6</ele>
        <time>2018-03-25T06:26:25Z</time>
      </trkpt>
      <trkpt lat="46.60121" lon="3.79459">
        <ele>246.3</ele>
        <time>2018-03-25T06:26:26Z</time>
      </trkpt>
      <trkpt lat="46.60115" lon="3.7946">
        <ele>246.1</ele>
        <time>2018-03-25T06:26:27Z</time>
      </trkpt>
      <trkpt lat="46.60106" lon="3.7946">
        <ele>245.9</ele>
        <time>2018-03-25T06:26:29Z</time>
      </trkpt>
      <trkpt lat="46.60098" lon="3.79457">
        <ele>247</ele>
        <time>2018-03-25T06:26:32Z</time>
      </trkpt>
      <trkpt lat="46.60096" lon="3.79456">
        <ele>247.8</ele>
        <time>2018-03-25T06:26:33Z</time>
      </trkpt>
      <trkpt lat="46.60086" lon="3.79439">
        <ele>251.2</ele>
        <time>2018-03-25T06:26:42Z</time>
      </trkpt>
      <trkpt lat="46.60081" lon="3.79433">
        <ele>252</ele>
        <time>2018-03-25T06:26:46Z</time>
      </trkpt>
      <trkpt lat="46.60075" lon="3.79427">
        <ele>253</ele>
        <time>2018-03-25T06:26:50Z</time>
      </trkpt>
      <trkpt lat="46.60067" lon="3.79422">
        <ele>253.2</ele>
        <time>2018-03-25T06:26:54Z</time>
      </trkpt>
      <trkpt lat="46.6006" lon="3.79418">
        <ele>254.9</ele>
        <time>2018-03-25T06:26:58Z</time>
      </trkpt>
      <trkpt lat="46.60053" lon="3.79414">
        <ele>255.8</ele>
        <time>2018-03-25T06:27:02Z</time>
      </trkpt>
      <trkpt lat="46.60045" lon="3.79409">
        <ele>256.4</ele>
        <time>2018-03-25T06:27:07Z</time>
      </trkpt>
      <trkpt lat="46.60038" lon="3.79403">
        <ele>257.9</ele>
        <time>2018-03-25T06:27:12Z</time>
      </trkpt>
      <trkpt lat="46.60031" lon="3.79398">
        <ele>258.3</ele>
        <time>2018-03-25T06:27:16Z</time>
      </trkpt>
      <trkpt lat="46.60025" lon="3.79393">
        <ele>259</ele>
        <time>2018-03-25T06:27:20Z</time>
      </trkpt>
      <trkpt lat="46.60018" lon="3.79389">
        <ele>259.3</ele>
        <time>2018-03-25T06:27:24Z</time>
      </trkpt>
      <trkpt lat="46.60011" lon="3.79382">
        <ele>260.2</ele>
        <time>2018-03-25T06:27:28Z</time>
      </trkpt>
      <trkpt lat="46.60005" lon="3.79389">
        <ele>262.4</ele>
        <time>2018-03-25T06:27:35Z</time>
      </trkpt>
      <trkpt lat="46.60005" lon="3.79391">
        <ele>262.3</ele>
        <time>2018-03-25T06:27:36Z</time>
      </trkpt>
      <trkpt lat="46.60006" lon="3.79413">
        <ele>264</ele>
        <time>2018-03-25T06:27:46Z</time>
      </trkpt>
      <trkpt lat="46.60008" lon="3.79423">
        <ele>263.9</ele>
        <time>2018-03-25T06:27:50Z</time>
      </trkpt>
      <trkpt lat="46.60011" lon="3.79433">
        <ele>264.7</ele>
        <time>2018-03-25T06:27:54Z</time>
      </trkpt>
      <trkpt lat="46.60013" lon="3.79445">
        <ele>265.3</ele>
        <time>2018-03-25T06:27:58Z</time>
      </trkpt>
      <trkpt lat="46.60006" lon="3.79452">
        <ele>266.2</ele>
        <time>2018-03-25T06:28:03Z</time>
      </trkpt>
      <trkpt lat="46.59998" lon="3.79449">
        <ele>267.1</ele>
        <time>2018-03-25T06:28:08Z</time>
      </trkpt>
      <trkpt lat="46.5999" lon="3.79444">
        <ele>268.8</ele>
        <time>2018-03-25T06:28:13Z</time>
      </trkpt>
      <trkpt lat="46.59981" lon="3.7944">
        <ele>269.8</ele>
        <time>2018-03-25T06:28:17Z</time>
      </trkpt>
      <trkpt lat="46.59973" lon="3.79438">
        <ele>270.1</ele>
        <time>2018-03-25T06:28:21Z</time>
      </trkpt>
      <trkpt lat="46.59964" lon="3.79437">
        <ele>270.7</ele>
        <time>2018-03-25T06:28:25Z</time>
      </trkpt>
      <trkpt lat="46.59956" lon="3.79438">
        <ele>271.2</ele>
        <time>2018-03-25T06:28:29Z</time>
      </trkpt>
      <trkpt lat="46.59949" lon="3.79439">
        <ele>272.3</ele>
        <time>2018-03-25T06:28:32Z</time>
      </trkpt>
      <trkpt lat="46.59942" lon="3.79441">
        <ele>272.8</ele>
        <time>2018-03-25T06:28:35Z</time>
      </trkpt>
      <trkpt lat="46.59935" lon="3.79443">
        <ele>273.3</ele>
        <time>2018-03-25T06:28:38Z</time>
      </trkpt>
      <trkpt lat="46.59933" lon="3.79444">
        <ele>273.4</ele>
        <time>2018-03-25T06:28:39Z</time>
      </trkpt>
      <trkpt lat="46.59921" lon="3.79445">
        <ele>274.5</ele>
        <time>2018-03-25T06:28:44Z</time>
      </trkpt>
      <trkpt lat="46.59913" lon="3.79452">
        <ele>275</ele>
        <time>2018-03-25T06:28:48Z</time>
      </trkpt>
      <trkpt lat="46.59911" lon="3.79463">
        <ele>275.4</ele>
        <time>2018-03-25T06:28:52Z</time>
      </trkpt>
      <trkpt lat="46.59908" lon="3.79473">
        <ele>276.2</ele>
        <time>2018-03-25T06:28:55Z</time>
      </trkpt>
      <trkpt lat="46.59906" lon="3.79483">
        <ele>275.9</ele>
        <time>2018-03-25T06:28:58Z</time>
      </trkpt>
      <trkpt lat="46.59902" lon="3.79494">
        <ele>275.4</ele>
        <time>2018-03-25T06:29:01Z</time>
      </trkpt>
      <trkpt lat="46.599" lon="3.79502">
        <ele>275.5</ele>
        <time>2018-03-25T06:29:03Z</time>
      </trkpt>
      <trkpt lat="46.59898" lon="3.79512">
        <ele>275.6</ele>
        <time>2018-03-25T06:29:05Z</time>
      </trkpt>
      <trkpt lat="46.59895" lon="3.79522">
        <ele>275.4</ele>
        <time>2018-03-25T06:29:07Z</time>
      </trkpt>
      <trkpt lat="46.59892" lon="3.79532">
        <ele>275</ele>
        <time>2018-03-25T06:29:09Z</time>
      </trkpt>
      <trkpt lat="46.59889" lon="3.79544">
        <ele>274.7</ele>
        <time>2018-03-25T06:29:11Z</time>
      </trkpt>
      <trkpt lat="46.59888" lon="3.7955">
        <ele>274.6</ele>
        <time>2018-03-25T06:29:12Z</time>
      </trkpt>
      <trkpt lat="46.59886" lon="3.79556">
        <ele>274.4</ele>
        <time>2018-03-25T06:29:13Z</time>
      </trkpt>
      <trkpt lat="46.59884" lon="3.79562">
        <ele>274.3</ele>
        <time>2018-03-25T06:29:14Z</time>
      </trkpt>
      <trkpt lat="46.59882" lon="3.79569">
        <ele>274.3</ele>
        <time>2018-03-25T06:29:15Z</time>
      </trkpt>
      <trkpt lat="46.5988" lon="3.79576">
        <ele>274.2</ele>
        <time>2018-03-25T06:29:16Z</time>
      </trkpt>
      <trkpt lat="46.59878" lon="3.79583">
        <ele>274.2</ele>
        <time>2018-03-25T06:29:17Z</time>
      </trkpt>
      <trkpt lat="46.59876" lon="3.7959">
        <ele>273.9</ele>
        <time>2018-03-25T06:29:18Z</time>
      </trkpt>
      <trkpt lat="46.59874" lon="3.79598">
        <ele>273.8</ele>
        <time>2018-03-25T06:29:19Z</time>
      </trkpt>
      <trkpt lat="46.59871" lon="3.79605">
        <ele>273.5</ele>
        <time>2018-03-25T06:29:20Z</time>
      </trkpt>
      <trkpt lat="46.59869" lon="3.79612">
        <ele>273.3</ele>
        <time>2018-03-25T06:29:21Z</time>
      </trkpt>
      <trkpt lat="46.59867" lon="3.7962">
        <ele>272.8</ele>
        <time>2018-03-25T06:29:22Z</time>
      </trkpt>
      <trkpt lat="46.59865" lon="3.79627">
        <ele>272.4</ele>
        <time>2018-03-25T06:29:23Z</time>
      </trkpt>
      <trkpt lat="46.59863" lon="3.79635">
        <ele>272.1</ele>
        <time>2018-03-25T06:29:24Z</time>
      </trkpt>
      <trkpt lat="46.59861" lon="3.79643">
        <ele>272.2</ele>
        <time>2018-03-25T06:29:25Z</time>
      </trkpt>
      <trkpt lat="46.59858" lon="3.79651">
        <ele>272.2</ele>
        <time>2018-03-25T06:29:26Z</time>
      </trkpt>
      <trkpt lat="46.59856" lon="3.79659">
        <ele>272.2</ele>
        <time>2018-03-25T06:29:27Z</time>
      </trkpt>
      <trkpt lat="46.59853" lon="3.79667">
        <ele>272.2</ele>
        <time>2018-03-25T06:29:28Z</time>
      </trkpt>
      <trkpt lat="46.5985" lon="3.79676">
        <ele>272.1</ele>
        <time>2018-03-25T06:29:29Z</time>
      </trkpt>
      <trkpt lat="46.59848" lon="3.79684">
        <ele>272.1</ele>
        <time>2018-03-25T06:29:30Z</time>
      </trkpt>
      <trkpt lat="46.59845" lon="3.79692">
        <ele>272</ele>
        <time>2018-03-25T06:29:31Z</time>
      </trkpt>
      <trkpt lat="46.59842" lon="3.797">
        <ele>271.4</ele>
        <time>2018-03-25T06:29:32Z</time>
      </trkpt>
      <trkpt lat="46.59839" lon="3.79707">
        <ele>270.9</ele>
        <time>2018-03-25T06:29:33Z</time>
      </trkpt>
      <trkpt lat="46.59837" lon="3.79714">
        <ele>270.9</ele>
        <time>2018-03-25T06:29:34Z</time>
      </trkpt>
      <trkpt lat="46.59834" lon="3.79722">
        <ele>270.9</ele>
        <time>2018-03-25T06:29:35Z</time>
      </trkpt>
      <trkpt lat="46.59832" lon="3.79729">
        <ele>271</ele>
        <time>2018-03-25T06:29:36Z</time>
      </trkpt>
      <trkpt lat="46.59829" lon="3.79735">
        <ele>270.6</ele>
        <time>2018-03-25T06:29:37Z</time>
      </trkpt>
      <trkpt lat="46.59826" lon="3.79742">
        <ele>270.3</ele>
        <time>2018-03-25T06:29:38Z</time>
      </trkpt>
      <trkpt lat="46.59824" lon="3.79748">
        <ele>270.2</ele>
        <time>2018-03-25T06:29:39Z</time>
      </trkpt>
      <trkpt lat="46.59821" lon="3.79755">
        <ele>270.1</ele>
        <time>2018-03-25T06:29:40Z</time>
      </trkpt>
      <trkpt lat="46.59819" lon="3.79762">
        <ele>270</ele>
        <time>2018-03-25T06:29:41Z</time>
      </trkpt>
      <trkpt lat="46.59816" lon="3.79768">
        <ele>269.8</ele>
        <time>2018-03-25T06:29:42Z</time>
      </trkpt>
      <trkpt lat="46.59814" lon="3.79773">
        <ele>269.6</ele>
        <time>2018-03-25T06:29:43Z</time>
      </trkpt>
      <trkpt lat="46.59811" lon="3.79779">
        <ele>269.5</ele>
        <time>2018-03-25T06:29:44Z</time>
      </trkpt>
      <trkpt lat="46.59809" lon="3.79785">
        <ele>269.5</ele>
        <time>2018-03-25T06:29:45Z</time>
      </trkpt>
      <trkpt lat="46.59806" lon="3.79792">
        <ele>269.7</ele>
        <time>2018-03-25T06:29:46Z</time>
      </trkpt>
      <trkpt lat="46.59803" lon="3.79803">
        <ele>270</ele>
        <time>2018-03-25T06:29:48Z</time>
      </trkpt>
      <trkpt lat="46.59799" lon="3.79814">
        <ele>269.8</ele>
        <time>2018-03-25T06:29:50Z</time>
      </trkpt>
      <trkpt lat="46.59795" lon="3.79824">
        <ele>269.4</ele>
        <time>2018-03-25T06:29:52Z</time>
      </trkpt>
      <trkpt lat="46.59791" lon="3.79833">
        <ele>270</ele>
        <time>2018-03-25T06:29:54Z</time>
      </trkpt>
      <trkpt lat="46.59787" lon="3.79843">
        <ele>270.3</ele>
        <time>2018-03-25T06:29:57Z</time>
      </trkpt>
      <trkpt lat="46.59783" lon="3.79855">
        <ele>270</ele>
        <time>2018-03-25T06:30:00Z</time>
      </trkpt>
      <trkpt lat="46.59779" lon="3.79866">
        <ele>271.2</ele>
        <time>2018-03-25T06:30:03Z</time>
      </trkpt>
      <trkpt lat="46.59776" lon="3.79875">
        <ele>271.8</ele>
        <time>2018-03-25T06:30:05Z</time>
      </trkpt>
      <trkpt lat="46.59773" lon="3.79885">
        <ele>272.2</ele>
        <time>2018-03-25T06:30:07Z</time>
      </trkpt>
      <trkpt lat="46.5977" lon="3.79894">
        <ele>272</ele>
        <time>2018-03-25T06:30:09Z</time>
      </trkpt>
      <trkpt lat="46.59767" lon="3.79904">
        <ele>272.4</ele>
        <time>2018-03-25T06:30:11Z</time>
      </trkpt>
      <trkpt lat="46.59765" lon="3.79914">
        <ele>272.8</ele>
        <time>2018-03-25T06:30:13Z</time>
      </trkpt>
      <trkpt lat="46.59765" lon="3.79924">
        <ele>273.3</ele>
        <time>2018-03-25T06:30:15Z</time>
      </trkpt>
      <trkpt lat="46.59765" lon="3.79934">
        <ele>273.8</ele>
        <time>2018-03-25T06:30:17Z</time>
      </trkpt>
      <trkpt lat="46.59764" lon="3.79943">
        <ele>274.1</ele>
        <time>2018-03-25T06:30:19Z</time>
      </trkpt>
      <trkpt lat="46.59764" lon="3.79953">
        <ele>275</ele>
        <time>2018-03-25T06:30:21Z</time>
      </trkpt>
      <trkpt lat="46.59765" lon="3.79962">
        <ele>275.2</ele>
        <time>2018-03-25T06:30:23Z</time>
      </trkpt>
      <trkpt lat="46.59765" lon="3.79972">
        <ele>274.8</ele>
        <time>2018-03-25T06:30:25Z</time>
      </trkpt>
      <trkpt lat="46.59765" lon="3.79982">
        <ele>274.9</ele>
        <time>2018-03-25T06:30:27Z</time>
      </trkpt>
      <trkpt lat="46.59764" lon="3.79992">
        <ele>275.2</ele>
        <time>2018-03-25T06:30:29Z</time>
      </trkpt>
      <trkpt lat="46.59764" lon="3.80003">
        <ele>275.5</ele>
        <time>2018-03-25T06:30:31Z</time>
      </trkpt>
      <trkpt lat="46.59763" lon="3.80013">
        <ele>275.1</ele>
        <time>2018-03-25T06:30:33Z</time>
      </trkpt>
      <trkpt lat="46.59764" lon="3.80023">
        <ele>275.2</ele>
        <time>2018-03-25T06:30:35Z</time>
      </trkpt>
      <trkpt lat="46.59764" lon="3.80034">
        <ele>275.4</ele>
        <time>2018-03-25T06:30:37Z</time>
      </trkpt>
      <trkpt lat="46.59765" lon="3.80044">
        <ele>275.7</ele>
        <time>2018-03-25T06:30:39Z</time>
      </trkpt>
      <trkpt lat="46.59767" lon="3.80055">
        <ele>276</ele>
        <time>2018-03-25T06:30:41Z</time>
      </trkpt>
      <trkpt lat="46.59767" lon="3.8006">
        <ele>276.1</ele>
        <time>2018-03-25T06:30:42Z</time>
      </trkpt>
      <trkpt lat="46.59771" lon="3.80075">
        <ele>276.7</ele>
        <time>2018-03-25T06:30:45Z</time>
      </trkpt>
      <trkpt lat="46.59773" lon="3.80086">
        <ele>275.8</ele>
        <time>2018-03-25T06:30:47Z</time>
      </trkpt>
      <trkpt lat="46.59775" lon="3.80097">
        <ele>275.9</ele>
        <time>2018-03-25T06:30:49Z</time>
      </trkpt>
      <trkpt lat="46.59778" lon="3.80108">
        <ele>276</ele>
        <time>2018-03-25T06:30:51Z</time>
      </trkpt>
      <trkpt lat="46.5978" lon="3.8012">
        <ele>275.6</ele>
        <time>2018-03-25T06:30:53Z</time>
      </trkpt>
      <trkpt lat="46.59783" lon="3.80132">
        <ele>275.1</ele>
        <time>2018-03-25T06:30:55Z</time>
      </trkpt>
      <trkpt lat="46.59785" lon="3.80144">
        <ele>275</ele>
        <time>2018-03-25T06:30:57Z</time>
      </trkpt>
      <trkpt lat="46.59787" lon="3.80156">
        <ele>275.3</ele>
        <time>2018-03-25T06:30:59Z</time>
      </trkpt>
      <trkpt lat="46.5979" lon="3.80168">
        <ele>275.6</ele>
        <time>2018-03-25T06:31:01Z</time>
      </trkpt>
      <trkpt lat="46.59793" lon="3.80179">
        <ele>275.4</ele>
        <time>2018-03-25T06:31:03Z</time>
      </trkpt>
      <trkpt lat="46.59795" lon="3.8019">
        <ele>275.1</ele>
        <time>2018-03-25T06:31:05Z</time>
      </trkpt>
      <trkpt lat="46.59798" lon="3.80201">
        <ele>275.3</ele>
        <time>2018-03-25T06:31:07Z</time>
      </trkpt>
      <trkpt lat="46.598" lon="3.80212">
        <ele>275.6</ele>
        <time>2018-03-25T06:31:09Z</time>
      </trkpt>
      <trkpt lat="46.59803" lon="3.80222">
        <ele>275.3</ele>
        <time>2018-03-25T06:31:11Z</time>
      </trkpt>
      <trkpt lat="46.59805" lon="3.80234">
        <ele>275.2</ele>
        <time>2018-03-25T06:31:13Z</time>
      </trkpt>
      <trkpt lat="46.59808" lon="3.80246">
        <ele>275.8</ele>
        <time>2018-03-25T06:31:15Z</time>
      </trkpt>
      <trkpt lat="46.59809" lon="3.80252">
        <ele>276</ele>
        <time>2018-03-25T06:31:16Z</time>
      </trkpt>
      <trkpt lat="46.5981" lon="3.80258">
        <ele>275.8</ele>
        <time>2018-03-25T06:31:17Z</time>
      </trkpt>
      <trkpt lat="46.59811" lon="3.80265">
        <ele>275.6</ele>
        <time>2018-03-25T06:31:18Z</time>
      </trkpt>
      <trkpt lat="46.59812" lon="3.80272">
        <ele>275.4</ele>
        <time>2018-03-25T06:31:19Z</time>
      </trkpt>
      <trkpt lat="46.59813" lon="3.80278">
        <ele>275.3</ele>
        <time>2018-03-25T06:31:20Z</time>
      </trkpt>
      <trkpt lat="46.59815" lon="3.80285">
        <ele>275.2</ele>
        <time>2018-03-25T06:31:21Z</time>
      </trkpt>
      <trkpt lat="46.59816" lon="3.80291">
        <ele>274.9</ele>
        <time>2018-03-25T06:31:22Z</time>
      </trkpt>
      <trkpt lat="46.59819" lon="3.80303">
        <ele>274.7</ele>
        <time>2018-03-25T06:31:24Z</time>
      </trkpt>
      <trkpt lat="46.59822" lon="3.80315">
        <ele>274.4</ele>
        <time>2018-03-25T06:31:26Z</time>
      </trkpt>
      <trkpt lat="46.59826" lon="3.80326">
        <ele>273.9</ele>
        <time>2018-03-25T06:31:28Z</time>
      </trkpt>
      <trkpt lat="46.59827" lon="3.80332">
        <ele>274.1</ele>
        <time>2018-03-25T06:31:29Z</time>
      </trkpt>
      <trkpt lat="46.59829" lon="3.80338">
        <ele>274.3</ele>
        <time>2018-03-25T06:31:30Z</time>
      </trkpt>
      <trkpt lat="46.59831" lon="3.80344">
        <ele>274.1</ele>
        <time>2018-03-25T06:31:31Z</time>
      </trkpt>
      <trkpt lat="46.59833" lon="3.80351">
        <ele>274</ele>
        <time>2018-03-25T06:31:32Z</time>
      </trkpt>
      <trkpt lat="46.59837" lon="3.80363">
        <ele>273.5</ele>
        <time>2018-03-25T06:31:34Z</time>
      </trkpt>
      <trkpt lat="46.59838" lon="3.80369">
        <ele>273.4</ele>
        <time>2018-03-25T06:31:35Z</time>
      </trkpt>
      <trkpt lat="46.5984" lon="3.80375">
        <ele>273.2</ele>
        <time>2018-03-25T06:31:36Z</time>
      </trkpt>
      <trkpt lat="46.59842" lon="3.80381">
        <ele>273.1</ele>
        <time>2018-03-25T06:31:37Z</time>
      </trkpt>
      <trkpt lat="46.59845" lon="3.80393">
        <ele>273.8</ele>
        <time>2018-03-25T06:31:39Z</time>
      </trkpt>
      <trkpt lat="46.59847" lon="3.80399">
        <ele>274</ele>
        <time>2018-03-25T06:31:40Z</time>
      </trkpt>
      <trkpt lat="46.59849" lon="3.80405">
        <ele>273.9</ele>
        <time>2018-03-25T06:31:41Z</time>
      </trkpt>
      <trkpt lat="46.59851" lon="3.80411">
        <ele>273.9</ele>
        <time>2018-03-25T06:31:42Z</time>
      </trkpt>
      <trkpt lat="46.59853" lon="3.80418">
        <ele>274.2</ele>
        <time>2018-03-25T06:31:43Z</time>
      </trkpt>
      <trkpt lat="46.59855" lon="3.80424">
        <ele>274.4</ele>
        <time>2018-03-25T06:31:44Z</time>
      </trkpt>
      <trkpt lat="46.59857" lon="3.8043">
        <ele>274.6</ele>
        <time>2018-03-25T06:31:45Z</time>
      </trkpt>
      <trkpt lat="46.59858" lon="3.80436">
        <ele>274.8</ele>
        <time>2018-03-25T06:31:46Z</time>
      </trkpt>
      <trkpt lat="46.59861" lon="3.80442">
        <ele>274.9</ele>
        <time>2018-03-25T06:31:47Z</time>
      </trkpt>
      <trkpt lat="46.59864" lon="3.80454">
        <ele>274.2</ele>
        <time>2018-03-25T06:31:49Z</time>
      </trkpt>
      <trkpt lat="46.59868" lon="3.80466">
        <ele>274.4</ele>
        <time>2018-03-25T06:31:51Z</time>
      </trkpt>
      <trkpt lat="46.5987" lon="3.80472">
        <ele>274.5</ele>
        <time>2018-03-25T06:31:52Z</time>
      </trkpt>
      <trkpt lat="46.59872" lon="3.80478">
        <ele>274.3</ele>
        <time>2018-03-25T06:31:53Z</time>
      </trkpt>
      <trkpt lat="46.59874" lon="3.80484">
        <ele>274.1</ele>
        <time>2018-03-25T06:31:54Z</time>
      </trkpt>
      <trkpt lat="46.59878" lon="3.80495">
        <ele>274.4</ele>
        <time>2018-03-25T06:31:56Z</time>
      </trkpt>
      <trkpt lat="46.59881" lon="3.80507">
        <ele>274.6</ele>
        <time>2018-03-25T06:31:58Z</time>
      </trkpt>
      <trkpt lat="46.59885" lon="3.80519">
        <ele>274.6</ele>
        <time>2018-03-25T06:32:00Z</time>
      </trkpt>
      <trkpt lat="46.59888" lon="3.80531">
        <ele>274.4</ele>
        <time>2018-03-25T06:32:02Z</time>
      </trkpt>
      <trkpt lat="46.59892" lon="3.80542">
        <ele>274.2</ele>
        <time>2018-03-25T06:32:04Z</time>
      </trkpt>
      <trkpt lat="46.59896" lon="3.80553">
        <ele>274.1</ele>
        <time>2018-03-25T06:32:06Z</time>
      </trkpt>
      <trkpt lat="46.59899" lon="3.80565">
        <ele>273.9</ele>
        <time>2018-03-25T06:32:08Z</time>
      </trkpt>
      <trkpt lat="46.59903" lon="3.80576">
        <ele>274.5</ele>
        <time>2018-03-25T06:32:10Z</time>
      </trkpt>
      <trkpt lat="46.59906" lon="3.80586">
        <ele>274.2</ele>
        <time>2018-03-25T06:32:12Z</time>
      </trkpt>
      <trkpt lat="46.59909" lon="3.80597">
        <ele>274.1</ele>
        <time>2018-03-25T06:32:14Z</time>
      </trkpt>
      <trkpt lat="46.59912" lon="3.80608">
        <ele>274.3</ele>
        <time>2018-03-25T06:32:16Z</time>
      </trkpt>
      <trkpt lat="46.59915" lon="3.80618">
        <ele>274.5</ele>
        <time>2018-03-25T06:32:18Z</time>
      </trkpt>
      <trkpt lat="46.59918" lon="3.80628">
        <ele>274.7</ele>
        <time>2018-03-25T06:32:20Z</time>
      </trkpt>
      <trkpt lat="46.59921" lon="3.80639">
        <ele>274.5</ele>
        <time>2018-03-25T06:32:22Z</time>
      </trkpt>
      <trkpt lat="46.59923" lon="3.80649">
        <ele>274.8</ele>
        <time>2018-03-25T06:32:24Z</time>
      </trkpt>
      <trkpt lat="46.59925" lon="3.8066">
        <ele>275</ele>
        <time>2018-03-25T06:32:26Z</time>
      </trkpt>
      <trkpt lat="46.59929" lon="3.80672">
        <ele>275.2</ele>
        <time>2018-03-25T06:32:28Z</time>
      </trkpt>
      <trkpt lat="46.59933" lon="3.80683">
        <ele>275.3</ele>
        <time>2018-03-25T06:32:30Z</time>
      </trkpt>
      <trkpt lat="46.59936" lon="3.80694">
        <ele>274.6</ele>
        <time>2018-03-25T06:32:32Z</time>
      </trkpt>
      <trkpt lat="46.5994" lon="3.80705">
        <ele>275.1</ele>
        <time>2018-03-25T06:32:34Z</time>
      </trkpt>
      <trkpt lat="46.59943" lon="3.80715">
        <ele>275</ele>
        <time>2018-03-25T06:32:36Z</time>
      </trkpt>
      <trkpt lat="46.59947" lon="3.80726">
        <ele>275.3</ele>
        <time>2018-03-25T06:32:38Z</time>
      </trkpt>
      <trkpt lat="46.59951" lon="3.80736">
        <ele>276</ele>
        <time>2018-03-25T06:32:40Z</time>
      </trkpt>
      <trkpt lat="46.59954" lon="3.80746">
        <ele>276.1</ele>
        <time>2018-03-25T06:32:42Z</time>
      </trkpt>
      <trkpt lat="46.59957" lon="3.80756">
        <ele>275.8</ele>
        <time>2018-03-25T06:32:44Z</time>
      </trkpt>
      <trkpt lat="46.59959" lon="3.80761">
        <ele>276.1</ele>
        <time>2018-03-25T06:32:45Z</time>
      </trkpt>
      <trkpt lat="46.59964" lon="3.80777">
        <ele>277.4</ele>
        <time>2018-03-25T06:32:48Z</time>
      </trkpt>
      <trkpt lat="46.59968" lon="3.80788">
        <ele>277.8</ele>
        <time>2018-03-25T06:32:50Z</time>
      </trkpt>
      <trkpt lat="46.59971" lon="3.80799">
        <ele>277.8</ele>
        <time>2018-03-25T06:32:52Z</time>
      </trkpt>
      <trkpt lat="46.59974" lon="3.8081">
        <ele>277.7</ele>
        <time>2018-03-25T06:32:54Z</time>
      </trkpt>
      <trkpt lat="46.59978" lon="3.8082">
        <ele>277.6</ele>
        <time>2018-03-25T06:32:56Z</time>
      </trkpt>
      <trkpt lat="46.59981" lon="3.8083">
        <ele>277.9</ele>
        <time>2018-03-25T06:32:58Z</time>
      </trkpt>
      <trkpt lat="46.59985" lon="3.8084">
        <ele>278.3</ele>
        <time>2018-03-25T06:33:00Z</time>
      </trkpt>
      <trkpt lat="46.59989" lon="3.80849">
        <ele>278.4</ele>
        <time>2018-03-25T06:33:02Z</time>
      </trkpt>
      <trkpt lat="46.59993" lon="3.80858">
        <ele>278.5</ele>
        <time>2018-03-25T06:33:04Z</time>
      </trkpt>
      <trkpt lat="46.59998" lon="3.80867">
        <ele>278.4</ele>
        <time>2018-03-25T06:33:06Z</time>
      </trkpt>
      <trkpt lat="46.60002" lon="3.80876">
        <ele>278.3</ele>
        <time>2018-03-25T06:33:08Z</time>
      </trkpt>
      <trkpt lat="46.60007" lon="3.80886">
        <ele>278.9</ele>
        <time>2018-03-25T06:33:10Z</time>
      </trkpt>
      <trkpt lat="46.60012" lon="3.80896">
        <ele>279.4</ele>
        <time>2018-03-25T06:33:12Z</time>
      </trkpt>
      <trkpt lat="46.60017" lon="3.80906">
        <ele>279.4</ele>
        <time>2018-03-25T06:33:14Z</time>
      </trkpt>
      <trkpt lat="46.60023" lon="3.80916">
        <ele>279.6</ele>
        <time>2018-03-25T06:33:16Z</time>
      </trkpt>
      <trkpt lat="46.60025" lon="3.80922">
        <ele>279.8</ele>
        <time>2018-03-25T06:33:17Z</time>
      </trkpt>
      <trkpt lat="46.60028" lon="3.80928">
        <ele>279.5</ele>
        <time>2018-03-25T06:33:18Z</time>
      </trkpt>
      <trkpt lat="46.60031" lon="3.80933">
        <ele>279.3</ele>
        <time>2018-03-25T06:33:19Z</time>
      </trkpt>
      <trkpt lat="46.60034" lon="3.80938">
        <ele>279.1</ele>
        <time>2018-03-25T06:33:20Z</time>
      </trkpt>
      <trkpt lat="46.60038" lon="3.80943">
        <ele>279.1</ele>
        <time>2018-03-25T06:33:21Z</time>
      </trkpt>
      <trkpt lat="46.60041" lon="3.80948">
        <ele>279.1</ele>
        <time>2018-03-25T06:33:22Z</time>
      </trkpt>
      <trkpt lat="46.60045" lon="3.80953">
        <ele>279.1</ele>
        <time>2018-03-25T06:33:23Z</time>
      </trkpt>
      <trkpt lat="46.60049" lon="3.80958">
        <ele>279.2</ele>
        <time>2018-03-25T06:33:24Z</time>
      </trkpt>
      <trkpt lat="46.60053" lon="3.80963">
        <ele>278.3</ele>
        <time>2018-03-25T06:33:25Z</time>
      </trkpt>
      <trkpt lat="46.60057" lon="3.80968">
        <ele>277.6</ele>
        <time>2018-03-25T06:33:26Z</time>
      </trkpt>
      <trkpt lat="46.60062" lon="3.80974">
        <ele>277.1</ele>
        <time>2018-03-25T06:33:27Z</time>
      </trkpt>
      <trkpt lat="46.60066" lon="3.8098">
        <ele>277</ele>
        <time>2018-03-25T06:33:28Z</time>
      </trkpt>
      <trkpt lat="46.60071" lon="3.80986">
        <ele>277</ele>
        <time>2018-03-25T06:33:29Z</time>
      </trkpt>
      <trkpt lat="46.60075" lon="3.80993">
        <ele>276.6</ele>
        <time>2018-03-25T06:33:30Z</time>
      </trkpt>
      <trkpt lat="46.60079" lon="3.81">
        <ele>276.3</ele>
        <time>2018-03-25T06:33:31Z</time>
      </trkpt>
      <trkpt lat="46.60083" lon="3.81008">
        <ele>276.2</ele>
        <time>2018-03-25T06:33:32Z</time>
      </trkpt>
      <trkpt lat="46.60087" lon="3.81016">
        <ele>276.2</ele>
        <time>2018-03-25T06:33:33Z</time>
      </trkpt>
      <trkpt lat="46.60092" lon="3.81024">
        <ele>276.2</ele>
        <time>2018-03-25T06:33:34Z</time>
      </trkpt>
      <trkpt lat="46.60097" lon="3.81032">
        <ele>275.8</ele>
        <time>2018-03-25T06:33:35Z</time>
      </trkpt>
      <trkpt lat="46.60103" lon="3.81039">
        <ele>275.5</ele>
        <time>2018-03-25T06:33:36Z</time>
      </trkpt>
      <trkpt lat="46.60109" lon="3.81047">
        <ele>275.4</ele>
        <time>2018-03-25T06:33:37Z</time>
      </trkpt>
      <trkpt lat="46.60115" lon="3.81054">
        <ele>275.3</ele>
        <time>2018-03-25T06:33:38Z</time>
      </trkpt>
      <trkpt lat="46.60119" lon="3.81065">
        <ele>274.3</ele>
        <time>2018-03-25T06:33:40Z</time>
      </trkpt>
      <trkpt lat="46.60115" lon="3.81072">
        <ele>272.8</ele>
        <time>2018-03-25T06:33:43Z</time>
      </trkpt>
      <trkpt lat="46.60107" lon="3.81076">
        <ele>272.8</ele>
        <time>2018-03-25T06:33:46Z</time>
      </trkpt>
      <trkpt lat="46.60104" lon="3.81078">
        <ele>273</ele>
        <time>2018-03-25T06:33:47Z</time>
      </trkpt>
      <trkpt lat="46.60095" lon="3.81084">
        <ele>274.1</ele>
        <time>2018-03-25T06:33:50Z</time>
      </trkpt>
      <trkpt lat="46.60089" lon="3.81088">
        <ele>275.3</ele>
        <time>2018-03-25T06:33:52Z</time>
      </trkpt>
      <trkpt lat="46.60084" lon="3.81092">
        <ele>276</ele>
        <time>2018-03-25T06:33:54Z</time>
      </trkpt>
      <trkpt lat="46.60079" lon="3.81096">
        <ele>276.5</ele>
        <time>2018-03-25T06:33:56Z</time>
      </trkpt>
      <trkpt lat="46.60073" lon="3.81102">
        <ele>277.1</ele>
        <time>2018-03-25T06:33:58Z</time>
      </trkpt>
      <trkpt lat="46.60067" lon="3.81108">
        <ele>278.1</ele>
        <time>2018-03-25T06:34:00Z</time>
      </trkpt>
      <trkpt lat="46.60062" lon="3.81113">
        <ele>279.1</ele>
        <time>2018-03-25T06:34:02Z</time>
      </trkpt>
      <trkpt lat="46.60057" lon="3.81119">
        <ele>280</ele>
        <time>2018-03-25T06:34:04Z</time>
      </trkpt>
      <trkpt lat="46.60052" lon="3.81125">
        <ele>280.1</ele>
        <time>2018-03-25T06:34:06Z</time>
      </trkpt>
      <trkpt lat="46.60046" lon="3.81132">
        <ele>280.5</ele>
        <time>2018-03-25T06:34:08Z</time>
      </trkpt>
      <trkpt lat="46.60042" lon="3.81139">
        <ele>281</ele>
        <time>2018-03-25T06:34:10Z</time>
      </trkpt>
      <trkpt lat="46.60037" lon="3.81146">
        <ele>281.9</ele>
        <time>2018-03-25T06:34:12Z</time>
      </trkpt>
      <trkpt lat="46.60031" lon="3.81154">
        <ele>282.6</ele>
        <time>2018-03-25T06:34:14Z</time>
      </trkpt>
      <trkpt lat="46.60025" lon="3.81161">
        <ele>282.9</ele>
        <time>2018-03-25T06:34:16Z</time>
      </trkpt>
      <trkpt lat="46.6002" lon="3.81167">
        <ele>283.4</ele>
        <time>2018-03-25T06:34:18Z</time>
      </trkpt>
      <trkpt lat="46.60014" lon="3.81175">
        <ele>283.9</ele>
        <time>2018-03-25T06:34:20Z</time>
      </trkpt>
      <trkpt lat="46.60008" lon="3.81181">
        <ele>284</ele>
        <time>2018-03-25T06:34:22Z</time>
      </trkpt>
      <trkpt lat="46.60002" lon="3.81187">
        <ele>284.4</ele>
        <time>2018-03-25T06:34:24Z</time>
      </trkpt>
      <trkpt lat="46.59996" lon="3.81193">
        <ele>284.7</ele>
        <time>2018-03-25T06:34:26Z</time>
      </trkpt>
      <trkpt lat="46.59988" lon="3.81199">
        <ele>284.6</ele>
        <time>2018-03-25T06:34:28Z</time>
      </trkpt>
      <trkpt lat="46.59984" lon="3.81202">
        <ele>284.6</ele>
        <time>2018-03-25T06:34:29Z</time>
      </trkpt>
      <trkpt lat="46.5998" lon="3.81205">
        <ele>284.5</ele>
        <time>2018-03-25T06:34:30Z</time>
      </trkpt>
      <trkpt lat="46.59976" lon="3.81208">
        <ele>284.4</ele>
        <time>2018-03-25T06:34:31Z</time>
      </trkpt>
      <trkpt lat="46.59971" lon="3.81211">
        <ele>284.5</ele>
        <time>2018-03-25T06:34:32Z</time>
      </trkpt>
      <trkpt lat="46.59966" lon="3.81214">
        <ele>284.5</ele>
        <time>2018-03-25T06:34:33Z</time>
      </trkpt>
      <trkpt lat="46.59961" lon="3.81216">
        <ele>284.4</ele>
        <time>2018-03-25T06:34:34Z</time>
      </trkpt>
      <trkpt lat="46.59956" lon="3.81219">
        <ele>284.2</ele>
        <time>2018-03-25T06:34:35Z</time>
      </trkpt>
      <trkpt lat="46.59951" lon="3.81222">
        <ele>284.1</ele>
        <time>2018-03-25T06:34:36Z</time>
      </trkpt>
      <trkpt lat="46.59945" lon="3.81225">
        <ele>283.9</ele>
        <time>2018-03-25T06:34:37Z</time>
      </trkpt>
      <trkpt lat="46.59939" lon="3.81227">
        <ele>283.7</ele>
        <time>2018-03-25T06:34:38Z</time>
      </trkpt>
      <trkpt lat="46.59933" lon="3.8123">
        <ele>283.7</ele>
        <time>2018-03-25T06:34:39Z</time>
      </trkpt>
      <trkpt lat="46.59927" lon="3.81231">
        <ele>283.8</ele>
        <time>2018-03-25T06:34:40Z</time>
      </trkpt>
      <trkpt lat="46.5992" lon="3.81233">
        <ele>283.8</ele>
        <time>2018-03-25T06:34:41Z</time>
      </trkpt>
      <trkpt lat="46.59914" lon="3.81236">
        <ele>283.4</ele>
        <time>2018-03-25T06:34:42Z</time>
      </trkpt>
      <trkpt lat="46.59907" lon="3.81238">
        <ele>283.1</ele>
        <time>2018-03-25T06:34:43Z</time>
      </trkpt>
      <trkpt lat="46.59899" lon="3.8124">
        <ele>282.5</ele>
        <time>2018-03-25T06:34:44Z</time>
      </trkpt>
      <trkpt lat="46.59892" lon="3.81242">
        <ele>282</ele>
        <time>2018-03-25T06:34:45Z</time>
      </trkpt>
      <trkpt lat="46.59884" lon="3.81244">
        <ele>281.7</ele>
        <time>2018-03-25T06:34:46Z</time>
      </trkpt>
      <trkpt lat="46.59876" lon="3.81246">
        <ele>281.4</ele>
        <time>2018-03-25T06:34:47Z</time>
      </trkpt>
      <trkpt lat="46.59868" lon="3.81248">
        <ele>281.2</ele>
        <time>2018-03-25T06:34:48Z</time>
      </trkpt>
      <trkpt lat="46.5986" lon="3.81251">
        <ele>280.8</ele>
        <time>2018-03-25T06:34:49Z</time>
      </trkpt>
      <trkpt lat="46.59851" lon="3.81253">
        <ele>280.6</ele>
        <time>2018-03-25T06:34:50Z</time>
      </trkpt>
      <trkpt lat="46.59843" lon="3.81257">
        <ele>280</ele>
        <time>2018-03-25T06:34:51Z</time>
      </trkpt>
      <trkpt lat="46.59836" lon="3.8126">
        <ele>279.6</ele>
        <time>2018-03-25T06:34:52Z</time>
      </trkpt>
      <trkpt lat="46.59828" lon="3.81264">
        <ele>279.3</ele>
        <time>2018-03-25T06:34:53Z</time>
      </trkpt>
      <trkpt lat="46.59821" lon="3.81268">
        <ele>279.5</ele>
        <time>2018-03-25T06:34:54Z</time>
      </trkpt>
      <trkpt lat="46.59814" lon="3.81272">
        <ele>279.6</ele>
        <time>2018-03-25T06:34:55Z</time>
      </trkpt>
      <trkpt lat="46.59808" lon="3.81276">
        <ele>279.1</ele>
        <time>2018-03-25T06:34:56Z</time>
      </trkpt>
      <trkpt lat="46.59802" lon="3.8128">
        <ele>278.8</ele>
        <time>2018-03-25T06:34:57Z</time>
      </trkpt>
      <trkpt lat="46.59796" lon="3.81284">
        <ele>278.3</ele>
        <time>2018-03-25T06:34:58Z</time>
      </trkpt>
      <trkpt lat="46.5979" lon="3.81289">
        <ele>278</ele>
        <time>2018-03-25T06:34:59Z</time>
      </trkpt>
      <trkpt lat="46.59784" lon="3.81294">
        <ele>277.7</ele>
        <time>2018-03-25T06:35:00Z</time>
      </trkpt>
      <trkpt lat="46.59778" lon="3.81299">
        <ele>277.8</ele>
        <time>2018-03-25T06:35:01Z</time>
      </trkpt>
      <trkpt lat="46.59773" lon="3.81304">
        <ele>277.8</ele>
        <time>2018-03-25T06:35:02Z</time>
      </trkpt>
      <trkpt lat="46.59768" lon="3.8131">
        <ele>277.7</ele>
        <time>2018-03-25T06:35:03Z</time>
      </trkpt>
      <trkpt lat="46.59763" lon="3.81315">
        <ele>277.6</ele>
        <time>2018-03-25T06:35:04Z</time>
      </trkpt>
      <trkpt lat="46.59758" lon="3.8132">
        <ele>277.6</ele>
        <time>2018-03-25T06:35:05Z</time>
      </trkpt>
      <trkpt lat="46.59754" lon="3.81325">
        <ele>277.6</ele>
        <time>2018-03-25T06:35:06Z</time>
      </trkpt>
      <trkpt lat="46.5975" lon="3.8133">
        <ele>277.6</ele>
        <time>2018-03-25T06:35:07Z</time>
      </trkpt>
      <trkpt lat="46.59746" lon="3.81334">
        <ele>278.3</ele>
        <time>2018-03-25T06:35:08Z</time>
      </trkpt>
      <trkpt lat="46.59742" lon="3.81339">
        <ele>278.8</ele>
        <time>2018-03-25T06:35:09Z</time>
      </trkpt>
      <trkpt lat="46.59736" lon="3.81348">
        <ele>279.5</ele>
        <time>2018-03-25T06:35:11Z</time>
      </trkpt>
      <trkpt lat="46.5973" lon="3.81357">
        <ele>280.2</ele>
        <time>2018-03-25T06:35:13Z</time>
      </trkpt>
      <trkpt lat="46.59725" lon="3.81365">
        <ele>280.9</ele>
        <time>2018-03-25T06:35:15Z</time>
      </trkpt>
      <trkpt lat="46.5972" lon="3.81373">
        <ele>281.1</ele>
        <time>2018-03-25T06:35:17Z</time>
      </trkpt>
      <trkpt lat="46.59715" lon="3.81381">
        <ele>281</ele>
        <time>2018-03-25T06:35:19Z</time>
      </trkpt>
      <trkpt lat="46.5971" lon="3.8139">
        <ele>281</ele>
        <time>2018-03-25T06:35:21Z</time>
      </trkpt>
      <trkpt lat="46.59705" lon="3.81398">
        <ele>281.5</ele>
        <time>2018-03-25T06:35:23Z</time>
      </trkpt>
      <trkpt lat="46.59699" lon="3.81407">
        <ele>281.7</ele>
        <time>2018-03-25T06:35:25Z</time>
      </trkpt>
      <trkpt lat="46.59693" lon="3.81415">
        <ele>281.5</ele>
        <time>2018-03-25T06:35:27Z</time>
      </trkpt>
      <trkpt lat="46.59688" lon="3.81423">
        <ele>281.7</ele>
        <time>2018-03-25T06:35:29Z</time>
      </trkpt>
      <trkpt lat="46.59682" lon="3.81431">
        <ele>282.1</ele>
        <time>2018-03-25T06:35:31Z</time>
      </trkpt>
      <trkpt lat="46.59676" lon="3.81438">
        <ele>282.2</ele>
        <time>2018-03-25T06:35:33Z</time>
      </trkpt>
      <trkpt lat="46.5967" lon="3.81445">
        <ele>283.1</ele>
        <time>2018-03-25T06:35:35Z</time>
      </trkpt>
      <trkpt lat="46.59664" lon="3.81452">
        <ele>283.7</ele>
        <time>2018-03-25T06:35:37Z</time>
      </trkpt>
      <trkpt lat="46.59658" lon="3.81458">
        <ele>284.3</ele>
        <time>2018-03-25T06:35:39Z</time>
      </trkpt>
      <trkpt lat="46.59652" lon="3.81464">
        <ele>284.6</ele>
        <time>2018-03-25T06:35:41Z</time>
      </trkpt>
      <trkpt lat="46.59646" lon="3.81468">
        <ele>284.9</ele>
        <time>2018-03-25T06:35:43Z</time>
      </trkpt>
      <trkpt lat="46.5964" lon="3.81473">
        <ele>285.3</ele>
        <time>2018-03-25T06:35:45Z</time>
      </trkpt>
      <trkpt lat="46.59633" lon="3.81478">
        <ele>285.5</ele>
        <time>2018-03-25T06:35:47Z</time>
      </trkpt>
      <trkpt lat="46.59626" lon="3.81481">
        <ele>286.5</ele>
        <time>2018-03-25T06:35:49Z</time>
      </trkpt>
      <trkpt lat="46.59623" lon="3.81484">
        <ele>286.8</ele>
        <time>2018-03-25T06:35:50Z</time>
      </trkpt>
      <trkpt lat="46.59613" lon="3.81491">
        <ele>287.2</ele>
        <time>2018-03-25T06:35:53Z</time>
      </trkpt>
      <trkpt lat="46.59607" lon="3.81495">
        <ele>287</ele>
        <time>2018-03-25T06:35:55Z</time>
      </trkpt>
      <trkpt lat="46.59601" lon="3.815">
        <ele>286.6</ele>
        <time>2018-03-25T06:35:57Z</time>
      </trkpt>
      <trkpt lat="46.59595" lon="3.81505">
        <ele>287.4</ele>
        <time>2018-03-25T06:35:59Z</time>
      </trkpt>
      <trkpt lat="46.59589" lon="3.81511">
        <ele>288.6</ele>
        <time>2018-03-25T06:36:01Z</time>
      </trkpt>
      <trkpt lat="46.59582" lon="3.81517">
        <ele>289.3</ele>
        <time>2018-03-25T06:36:03Z</time>
      </trkpt>
      <trkpt lat="46.59577" lon="3.81524">
        <ele>289.2</ele>
        <time>2018-03-25T06:36:05Z</time>
      </trkpt>
      <trkpt lat="46.59571" lon="3.81531">
        <ele>288.9</ele>
        <time>2018-03-25T06:36:07Z</time>
      </trkpt>
      <trkpt lat="46.59565" lon="3.81538">
        <ele>288.6</ele>
        <time>2018-03-25T06:36:09Z</time>
      </trkpt>
      <trkpt lat="46.59561" lon="3.81546">
        <ele>288.6</ele>
        <time>2018-03-25T06:36:11Z</time>
      </trkpt>
      <trkpt lat="46.59556" lon="3.81554">
        <ele>289.3</ele>
        <time>2018-03-25T06:36:13Z</time>
      </trkpt>
      <trkpt lat="46.59551" lon="3.81562">
        <ele>289.3</ele>
        <time>2018-03-25T06:36:15Z</time>
      </trkpt>
      <trkpt lat="46.59546" lon="3.8157">
        <ele>289.1</ele>
        <time>2018-03-25T06:36:17Z</time>
      </trkpt>
      <trkpt lat="46.59541" lon="3.81578">
        <ele>289.5</ele>
        <time>2018-03-25T06:36:19Z</time>
      </trkpt>
      <trkpt lat="46.59537" lon="3.81587">
        <ele>290.1</ele>
        <time>2018-03-25T06:36:21Z</time>
      </trkpt>
      <trkpt lat="46.59533" lon="3.81595">
        <ele>289.5</ele>
        <time>2018-03-25T06:36:23Z</time>
      </trkpt>
      <trkpt lat="46.59528" lon="3.81604">
        <ele>289.5</ele>
        <time>2018-03-25T06:36:25Z</time>
      </trkpt>
      <trkpt lat="46.59525" lon="3.81612">
        <ele>289.6</ele>
        <time>2018-03-25T06:36:27Z</time>
      </trkpt>
      <trkpt lat="46.59521" lon="3.81621">
        <ele>289.5</ele>
        <time>2018-03-25T06:36:29Z</time>
      </trkpt>
      <trkpt lat="46.59516" lon="3.81631">
        <ele>290</ele>
        <time>2018-03-25T06:36:32Z</time>
      </trkpt>
      <trkpt lat="46.59513" lon="3.81639">
        <ele>290.7</ele>
        <time>2018-03-25T06:36:34Z</time>
      </trkpt>
      <trkpt lat="46.5951" lon="3.81648">
        <ele>290.4</ele>
        <time>2018-03-25T06:36:36Z</time>
      </trkpt>
      <trkpt lat="46.59506" lon="3.8166">
        <ele>291.5</ele>
        <time>2018-03-25T06:36:39Z</time>
      </trkpt>
      <trkpt lat="46.59503" lon="3.8167">
        <ele>291.8</ele>
        <time>2018-03-25T06:36:41Z</time>
      </trkpt>
      <trkpt lat="46.59501" lon="3.81678">
        <ele>291.7</ele>
        <time>2018-03-25T06:36:43Z</time>
      </trkpt>
      <trkpt lat="46.59498" lon="3.81687">
        <ele>291.7</ele>
        <time>2018-03-25T06:36:45Z</time>
      </trkpt>
      <trkpt lat="46.59495" lon="3.81695">
        <ele>291.6</ele>
        <time>2018-03-25T06:36:47Z</time>
      </trkpt>
      <trkpt lat="46.59492" lon="3.81704">
        <ele>291.5</ele>
        <time>2018-03-25T06:36:49Z</time>
      </trkpt>
      <trkpt lat="46.59489" lon="3.81713">
        <ele>292.3</ele>
        <time>2018-03-25T06:36:51Z</time>
      </trkpt>
      <trkpt lat="46.59487" lon="3.81718">
        <ele>292.6</ele>
        <time>2018-03-25T06:36:52Z</time>
      </trkpt>
      <trkpt lat="46.59481" lon="3.81732">
        <ele>292.8</ele>
        <time>2018-03-25T06:36:55Z</time>
      </trkpt>
      <trkpt lat="46.59478" lon="3.81742">
        <ele>293.1</ele>
        <time>2018-03-25T06:36:57Z</time>
      </trkpt>
      <trkpt lat="46.59474" lon="3.81751">
        <ele>293.5</ele>
        <time>2018-03-25T06:36:59Z</time>
      </trkpt>
      <trkpt lat="46.5947" lon="3.8176">
        <ele>293.7</ele>
        <time>2018-03-25T06:37:01Z</time>
      </trkpt>
      <trkpt lat="46.59467" lon="3.81769">
        <ele>294</ele>
        <time>2018-03-25T06:37:03Z</time>
      </trkpt>
      <trkpt lat="46.59463" lon="3.81779">
        <ele>294.4</ele>
        <time>2018-03-25T06:37:05Z</time>
      </trkpt>
      <trkpt lat="46.5946" lon="3.81788">
        <ele>294.5</ele>
        <time>2018-03-25T06:37:07Z</time>
      </trkpt>
      <trkpt lat="46.59456" lon="3.81796">
        <ele>294.8</ele>
        <time>2018-03-25T06:37:09Z</time>
      </trkpt>
      <trkpt lat="46.59453" lon="3.81805">
        <ele>295.1</ele>
        <time>2018-03-25T06:37:11Z</time>
      </trkpt>
      <trkpt lat="46.59448" lon="3.81813">
        <ele>295</ele>
        <time>2018-03-25T06:37:13Z</time>
      </trkpt>
      <trkpt lat="46.59443" lon="3.81818">
        <ele>295</ele>
        <time>2018-03-25T06:37:15Z</time>
      </trkpt>
      <trkpt lat="46.59436" lon="3.81822">
        <ele>294.2</ele>
        <time>2018-03-25T06:37:17Z</time>
      </trkpt>
      <trkpt lat="46.59429" lon="3.81825">
        <ele>294.4</ele>
        <time>2018-03-25T06:37:19Z</time>
      </trkpt>
      <trkpt lat="46.59421" lon="3.81826">
        <ele>295.1</ele>
        <time>2018-03-25T06:37:21Z</time>
      </trkpt>
      <trkpt lat="46.59413" lon="3.81827">
        <ele>295.7</ele>
        <time>2018-03-25T06:37:23Z</time>
      </trkpt>
      <trkpt lat="46.59405" lon="3.81827">
        <ele>296.3</ele>
        <time>2018-03-25T06:37:25Z</time>
      </trkpt>
      <trkpt lat="46.59401" lon="3.81827">
        <ele>296</ele>
        <time>2018-03-25T06:37:26Z</time>
      </trkpt>
      <trkpt lat="46.59396" lon="3.81827">
        <ele>295.8</ele>
        <time>2018-03-25T06:37:27Z</time>
      </trkpt>
      <trkpt lat="46.59391" lon="3.81827">
        <ele>295.9</ele>
        <time>2018-03-25T06:37:28Z</time>
      </trkpt>
      <trkpt lat="46.59385" lon="3.81826">
        <ele>295.9</ele>
        <time>2018-03-25T06:37:29Z</time>
      </trkpt>
      <trkpt lat="46.5938" lon="3.81826">
        <ele>296</ele>
        <time>2018-03-25T06:37:30Z</time>
      </trkpt>
      <trkpt lat="46.59374" lon="3.81825">
        <ele>295.7</ele>
        <time>2018-03-25T06:37:31Z</time>
      </trkpt>
      <trkpt lat="46.59368" lon="3.81825">
        <ele>295.4</ele>
        <time>2018-03-25T06:37:32Z</time>
      </trkpt>
      <trkpt lat="46.59363" lon="3.81825">
        <ele>295.2</ele>
        <time>2018-03-25T06:37:33Z</time>
      </trkpt>
      <trkpt lat="46.59357" lon="3.81825">
        <ele>295.1</ele>
        <time>2018-03-25T06:37:34Z</time>
      </trkpt>
      <trkpt lat="46.59351" lon="3.81825">
        <ele>294.7</ele>
        <time>2018-03-25T06:37:35Z</time>
      </trkpt>
      <trkpt lat="46.59345" lon="3.81825">
        <ele>294.4</ele>
        <time>2018-03-25T06:37:36Z</time>
      </trkpt>
      <trkpt lat="46.5934" lon="3.81825">
        <ele>294.2</ele>
        <time>2018-03-25T06:37:37Z</time>
      </trkpt>
      <trkpt lat="46.59334" lon="3.81825">
        <ele>294.2</ele>
        <time>2018-03-25T06:37:38Z</time>
      </trkpt>
      <trkpt lat="46.59328" lon="3.81826">
        <ele>294.2</ele>
        <time>2018-03-25T06:37:39Z</time>
      </trkpt>
      <trkpt lat="46.59322" lon="3.81826">
        <ele>294.1</ele>
        <time>2018-03-25T06:37:40Z</time>
      </trkpt>
      <trkpt lat="46.59317" lon="3.81828">
        <ele>293.9</ele>
        <time>2018-03-25T06:37:41Z</time>
      </trkpt>
      <trkpt lat="46.59311" lon="3.81829">
        <ele>293.8</ele>
        <time>2018-03-25T06:37:42Z</time>
      </trkpt>
      <trkpt lat="46.59305" lon="3.81831">
        <ele>293.3</ele>
        <time>2018-03-25T06:37:43Z</time>
      </trkpt>
      <trkpt lat="46.59299" lon="3.81834">
        <ele>292.8</ele>
        <time>2018-03-25T06:37:44Z</time>
      </trkpt>
      <trkpt lat="46.59293" lon="3.81836">
        <ele>293</ele>
        <time>2018-03-25T06:37:45Z</time>
      </trkpt>
      <trkpt lat="46.59288" lon="3.81838">
        <ele>293.1</ele>
        <time>2018-03-25T06:37:46Z</time>
      </trkpt>
      <trkpt lat="46.59282" lon="3.81841">
        <ele>293</ele>
        <time>2018-03-25T06:37:47Z</time>
      </trkpt>
      <trkpt lat="46.59277" lon="3.81843">
        <ele>292.9</ele>
        <time>2018-03-25T06:37:48Z</time>
      </trkpt>
      <trkpt lat="46.59271" lon="3.81845">
        <ele>292.9</ele>
        <time>2018-03-25T06:37:49Z</time>
      </trkpt>
      <trkpt lat="46.59266" lon="3.81847">
        <ele>292.8</ele>
        <time>2018-03-25T06:37:50Z</time>
      </trkpt>
      <trkpt lat="46.59261" lon="3.81849">
        <ele>292.8</ele>
        <time>2018-03-25T06:37:51Z</time>
      </trkpt>
      <trkpt lat="46.59256" lon="3.81851">
        <ele>292.6</ele>
        <time>2018-03-25T06:37:52Z</time>
      </trkpt>
      <trkpt lat="46.59251" lon="3.81853">
        <ele>292.4</ele>
        <time>2018-03-25T06:37:53Z</time>
      </trkpt>
      <trkpt lat="46.59246" lon="3.81855">
        <ele>292.3</ele>
        <time>2018-03-25T06:37:54Z</time>
      </trkpt>
      <trkpt lat="46.59241" lon="3.81857">
        <ele>292.1</ele>
        <time>2018-03-25T06:37:55Z</time>
      </trkpt>
      <trkpt lat="46.59236" lon="3.81859">
        <ele>292.1</ele>
        <time>2018-03-25T06:37:56Z</time>
      </trkpt>
      <trkpt lat="46.59232" lon="3.81861">
        <ele>292.3</ele>
        <time>2018-03-25T06:37:57Z</time>
      </trkpt>
      <trkpt lat="46.59224" lon="3.81866">
        <ele>292.7</ele>
        <time>2018-03-25T06:37:59Z</time>
      </trkpt>
      <trkpt lat="46.59216" lon="3.8187">
        <ele>292.9</ele>
        <time>2018-03-25T06:38:01Z</time>
      </trkpt>
      <trkpt lat="46.59209" lon="3.81874">
        <ele>292.2</ele>
        <time>2018-03-25T06:38:03Z</time>
      </trkpt>
      <trkpt lat="46.59201" lon="3.81879">
        <ele>292.6</ele>
        <time>2018-03-25T06:38:05Z</time>
      </trkpt>
      <trkpt lat="46.59195" lon="3.81884">
        <ele>293.2</ele>
        <time>2018-03-25T06:38:07Z</time>
      </trkpt>
      <trkpt lat="46.59189" lon="3.81889">
        <ele>293</ele>
        <time>2018-03-25T06:38:09Z</time>
      </trkpt>
      <trkpt lat="46.59183" lon="3.81894">
        <ele>293</ele>
        <time>2018-03-25T06:38:11Z</time>
      </trkpt>
      <trkpt lat="46.59175" lon="3.819">
        <ele>294</ele>
        <time>2018-03-25T06:38:14Z</time>
      </trkpt>
      <trkpt lat="46.59168" lon="3.81906">
        <ele>294.4</ele>
        <time>2018-03-25T06:38:17Z</time>
      </trkpt>
      <trkpt lat="46.59162" lon="3.81911">
        <ele>294.4</ele>
        <time>2018-03-25T06:38:19Z</time>
      </trkpt>
      <trkpt lat="46.59157" lon="3.81916">
        <ele>294.7</ele>
        <time>2018-03-25T06:38:21Z</time>
      </trkpt>
      <trkpt lat="46.59151" lon="3.81921">
        <ele>295.2</ele>
        <time>2018-03-25T06:38:23Z</time>
      </trkpt>
      <trkpt lat="46.59146" lon="3.81926">
        <ele>295.1</ele>
        <time>2018-03-25T06:38:25Z</time>
      </trkpt>
      <trkpt lat="46.5914" lon="3.81932">
        <ele>294.8</ele>
        <time>2018-03-25T06:38:27Z</time>
      </trkpt>
      <trkpt lat="46.59136" lon="3.81937">
        <ele>295.8</ele>
        <time>2018-03-25T06:38:29Z</time>
      </trkpt>
      <trkpt lat="46.59131" lon="3.81943">
        <ele>296.1</ele>
        <time>2018-03-25T06:38:31Z</time>
      </trkpt>
      <trkpt lat="46.59126" lon="3.81948">
        <ele>296.6</ele>
        <time>2018-03-25T06:38:33Z</time>
      </trkpt>
      <trkpt lat="46.59121" lon="3.81954">
        <ele>297.2</ele>
        <time>2018-03-25T06:38:35Z</time>
      </trkpt>
      <trkpt lat="46.59116" lon="3.81959">
        <ele>297.8</ele>
        <time>2018-03-25T06:38:37Z</time>
      </trkpt>
      <trkpt lat="46.5911" lon="3.81964">
        <ele>298.3</ele>
        <time>2018-03-25T06:38:39Z</time>
      </trkpt>
      <trkpt lat="46.59103" lon="3.8197">
        <ele>299.1</ele>
        <time>2018-03-25T06:38:42Z</time>
      </trkpt>
      <trkpt lat="46.59096" lon="3.81977">
        <ele>299.1</ele>
        <time>2018-03-25T06:38:45Z</time>
      </trkpt>
      <trkpt lat="46.5909" lon="3.81982">
        <ele>299.7</ele>
        <time>2018-03-25T06:38:48Z</time>
      </trkpt>
      <trkpt lat="46.59083" lon="3.81987">
        <ele>300.8</ele>
        <time>2018-03-25T06:38:51Z</time>
      </trkpt>
      <trkpt lat="46.59077" lon="3.81991">
        <ele>301.8</ele>
        <time>2018-03-25T06:38:54Z</time>
      </trkpt>
      <trkpt lat="46.59074" lon="3.81992">
        <ele>301.8</ele>
        <time>2018-03-25T06:38:55Z</time>
      </trkpt>
      <trkpt lat="46.59063" lon="3.82">
        <ele>302.5</ele>
        <time>2018-03-25T06:39:00Z</time>
      </trkpt>
      <trkpt lat="46.59057" lon="3.82005">
        <ele>303.3</ele>
        <time>2018-03-25T06:39:03Z</time>
      </trkpt>
      <trkpt lat="46.5905" lon="3.82011">
        <ele>303.5</ele>
        <time>2018-03-25T06:39:06Z</time>
      </trkpt>
      <trkpt lat="46.59044" lon="3.82018">
        <ele>304.1</ele>
        <time>2018-03-25T06:39:09Z</time>
      </trkpt>
      <trkpt lat="46.59039" lon="3.82026">
        <ele>304.9</ele>
        <time>2018-03-25T06:39:12Z</time>
      </trkpt>
      <trkpt lat="46.59034" lon="3.82034">
        <ele>305.5</ele>
        <time>2018-03-25T06:39:15Z</time>
      </trkpt>
      <trkpt lat="46.59029" lon="3.82042">
        <ele>305.7</ele>
        <time>2018-03-25T06:39:18Z</time>
      </trkpt>
      <trkpt lat="46.59024" lon="3.8205">
        <ele>305.7</ele>
        <time>2018-03-25T06:39:21Z</time>
      </trkpt>
      <trkpt lat="46.59018" lon="3.82059">
        <ele>306.4</ele>
        <time>2018-03-25T06:39:24Z</time>
      </trkpt>
      <trkpt lat="46.59013" lon="3.82067">
        <ele>306.7</ele>
        <time>2018-03-25T06:39:27Z</time>
      </trkpt>
      <trkpt lat="46.59007" lon="3.82075">
        <ele>307</ele>
        <time>2018-03-25T06:39:30Z</time>
      </trkpt>
      <trkpt lat="46.59001" lon="3.82083">
        <ele>307.2</ele>
        <time>2018-03-25T06:39:33Z</time>
      </trkpt>
      <trkpt lat="46.58995" lon="3.82091">
        <ele>307.3</ele>
        <time>2018-03-25T06:39:36Z</time>
      </trkpt>
      <trkpt lat="46.58989" lon="3.82098">
        <ele>307.7</ele>
        <time>2018-03-25T06:39:39Z</time>
      </trkpt>
      <trkpt lat="46.58984" lon="3.82107">
        <ele>308.3</ele>
        <time>2018-03-25T06:39:42Z</time>
      </trkpt>
      <trkpt lat="46.58983" lon="3.82117">
        <ele>308.7</ele>
        <time>2018-03-25T06:39:45Z</time>
      </trkpt>
      <trkpt lat="46.58986" lon="3.82128">
        <ele>309.1</ele>
        <time>2018-03-25T06:39:48Z</time>
      </trkpt>
      <trkpt lat="46.58989" lon="3.82139">
        <ele>309.3</ele>
        <time>2018-03-25T06:39:51Z</time>
      </trkpt>
      <trkpt lat="46.58993" lon="3.82149">
        <ele>309.7</ele>
        <time>2018-03-25T06:39:54Z</time>
      </trkpt>
      <trkpt lat="46.58995" lon="3.8216">
        <ele>309.8</ele>
        <time>2018-03-25T06:39:57Z</time>
      </trkpt>
      <trkpt lat="46.58995" lon="3.82164">
        <ele>310.3</ele>
        <time>2018-03-25T06:39:58Z</time>
      </trkpt>
      <trkpt lat="46.59" lon="3.82182">
        <ele>311.2</ele>
        <time>2018-03-25T06:40:03Z</time>
      </trkpt>
      <trkpt lat="46.59004" lon="3.82194">
        <ele>311.3</ele>
        <time>2018-03-25T06:40:06Z</time>
      </trkpt>
      <trkpt lat="46.59007" lon="3.82205">
        <ele>311.4</ele>
        <time>2018-03-25T06:40:09Z</time>
      </trkpt>
      <trkpt lat="46.5901" lon="3.82217">
        <ele>312.1</ele>
        <time>2018-03-25T06:40:12Z</time>
      </trkpt>
      <trkpt lat="46.59013" lon="3.82228">
        <ele>313</ele>
        <time>2018-03-25T06:40:15Z</time>
      </trkpt>
      <trkpt lat="46.59016" lon="3.8224">
        <ele>313.3</ele>
        <time>2018-03-25T06:40:18Z</time>
      </trkpt>
      <trkpt lat="46.59019" lon="3.82251">
        <ele>313.3</ele>
        <time>2018-03-25T06:40:21Z</time>
      </trkpt>
      <trkpt lat="46.59023" lon="3.82261">
        <ele>312.6</ele>
        <time>2018-03-25T06:40:24Z</time>
      </trkpt>
      <trkpt lat="46.59026" lon="3.82272">
        <ele>313.3</ele>
        <time>2018-03-25T06:40:27Z</time>
      </trkpt>
      <trkpt lat="46.59029" lon="3.82284">
        <ele>313.9</ele>
        <time>2018-03-25T06:40:30Z</time>
      </trkpt>
      <trkpt lat="46.59032" lon="3.82296">
        <ele>314.4</ele>
        <time>2018-03-25T06:40:33Z</time>
      </trkpt>
      <trkpt lat="46.59036" lon="3.82308">
        <ele>315.3</ele>
        <time>2018-03-25T06:40:36Z</time>
      </trkpt>
      <trkpt lat="46.59039" lon="3.82319">
        <ele>315.5</ele>
        <time>2018-03-25T06:40:39Z</time>
      </trkpt>
      <trkpt lat="46.59043" lon="3.82331">
        <ele>315.5</ele>
        <time>2018-03-25T06:40:42Z</time>
      </trkpt>
      <trkpt lat="46.59046" lon="3.82342">
        <ele>315.4</ele>
        <time>2018-03-25T06:40:45Z</time>
      </trkpt>
      <trkpt lat="46.5905" lon="3.82354">
        <ele>316</ele>
        <time>2018-03-25T06:40:48Z</time>
      </trkpt>
      <trkpt lat="46.59053" lon="3.82365">
        <ele>316.4</ele>
        <time>2018-03-25T06:40:51Z</time>
      </trkpt>
      <trkpt lat="46.59057" lon="3.82376">
        <ele>317.2</ele>
        <time>2018-03-25T06:40:54Z</time>
      </trkpt>
      <trkpt lat="46.59061" lon="3.82387">
        <ele>318.2</ele>
        <time>2018-03-25T06:40:57Z</time>
      </trkpt>
      <trkpt lat="46.59063" lon="3.82398">
        <ele>318.7</ele>
        <time>2018-03-25T06:41:00Z</time>
      </trkpt>
      <trkpt lat="46.59064" lon="3.82402">
        <ele>318.5</ele>
        <time>2018-03-25T06:41:01Z</time>
      </trkpt>
      <trkpt lat="46.5907" lon="3.82421">
        <ele>319.2</ele>
        <time>2018-03-25T06:41:06Z</time>
      </trkpt>
      <trkpt lat="46.59073" lon="3.82432">
        <ele>319.5</ele>
        <time>2018-03-25T06:41:09Z</time>
      </trkpt>
      <trkpt lat="46.59076" lon="3.82443">
        <ele>319.8</ele>
        <time>2018-03-25T06:41:12Z</time>
      </trkpt>
      <trkpt lat="46.59079" lon="3.82455">
        <ele>320.2</ele>
        <time>2018-03-25T06:41:15Z</time>
      </trkpt>
      <trkpt lat="46.59082" lon="3.82467">
        <ele>320.6</ele>
        <time>2018-03-25T06:41:18Z</time>
      </trkpt>
      <trkpt lat="46.59084" lon="3.8248">
        <ele>321</ele>
        <time>2018-03-25T06:41:21Z</time>
      </trkpt>
      <trkpt lat="46.59086" lon="3.82489">
        <ele>322.4</ele>
        <time>2018-03-25T06:41:23Z</time>
      </trkpt>
      <trkpt lat="46.59087" lon="3.82497">
        <ele>322.8</ele>
        <time>2018-03-25T06:41:25Z</time>
      </trkpt>
      <trkpt lat="46.59089" lon="3.82506">
        <ele>322.6</ele>
        <time>2018-03-25T06:41:27Z</time>
      </trkpt>
      <trkpt lat="46.5909" lon="3.82515">
        <ele>323</ele>
        <time>2018-03-25T06:41:29Z</time>
      </trkpt>
      <trkpt lat="46.59092" lon="3.82527">
        <ele>323.7</ele>
        <time>2018-03-25T06:41:32Z</time>
      </trkpt>
      <trkpt lat="46.59095" lon="3.82539">
        <ele>323.5</ele>
        <time>2018-03-25T06:41:35Z</time>
      </trkpt>
      <trkpt lat="46.59098" lon="3.82551">
        <ele>323.9</ele>
        <time>2018-03-25T06:41:38Z</time>
      </trkpt>
      <trkpt lat="46.591" lon="3.82559">
        <ele>324.3</ele>
        <time>2018-03-25T06:41:40Z</time>
      </trkpt>
      <trkpt lat="46.59102" lon="3.82567">
        <ele>324.4</ele>
        <time>2018-03-25T06:41:42Z</time>
      </trkpt>
      <trkpt lat="46.59106" lon="3.82579">
        <ele>324.8</ele>
        <time>2018-03-25T06:41:45Z</time>
      </trkpt>
      <trkpt lat="46.59109" lon="3.82587">
        <ele>324.9</ele>
        <time>2018-03-25T06:41:47Z</time>
      </trkpt>
      <trkpt lat="46.59112" lon="3.82595">
        <ele>325.7</ele>
        <time>2018-03-25T06:41:49Z</time>
      </trkpt>
      <trkpt lat="46.59114" lon="3.82603">
        <ele>325.7</ele>
        <time>2018-03-25T06:41:51Z</time>
      </trkpt>
      <trkpt lat="46.59118" lon="3.82614">
        <ele>325.3</ele>
        <time>2018-03-25T06:41:54Z</time>
      </trkpt>
      <trkpt lat="46.59121" lon="3.82623">
        <ele>326.7</ele>
        <time>2018-03-25T06:41:56Z</time>
      </trkpt>
      <trkpt lat="46.59123" lon="3.82631">
        <ele>326.8</ele>
        <time>2018-03-25T06:41:58Z</time>
      </trkpt>
      <trkpt lat="46.59126" lon="3.82638">
        <ele>327.3</ele>
        <time>2018-03-25T06:42:00Z</time>
      </trkpt>
      <trkpt lat="46.59129" lon="3.82646">
        <ele>327.7</ele>
        <time>2018-03-25T06:42:02Z</time>
      </trkpt>
      <trkpt lat="46.5913" lon="3.8265">
        <ele>327.6</ele>
        <time>2018-03-25T06:42:03Z</time>
      </trkpt>
      <trkpt lat="46.59135" lon="3.82661">
        <ele>327.9</ele>
        <time>2018-03-25T06:42:06Z</time>
      </trkpt>
      <trkpt lat="46.59139" lon="3.82668">
        <ele>328.1</ele>
        <time>2018-03-25T06:42:08Z</time>
      </trkpt>
      <trkpt lat="46.59144" lon="3.82675">
        <ele>328.8</ele>
        <time>2018-03-25T06:42:10Z</time>
      </trkpt>
      <trkpt lat="46.59149" lon="3.82681">
        <ele>328.8</ele>
        <time>2018-03-25T06:42:12Z</time>
      </trkpt>
      <trkpt lat="46.59154" lon="3.82686">
        <ele>328.8</ele>
        <time>2018-03-25T06:42:14Z</time>
      </trkpt>
      <trkpt lat="46.59159" lon="3.82691">
        <ele>328.8</ele>
        <time>2018-03-25T06:42:16Z</time>
      </trkpt>
      <trkpt lat="46.59164" lon="3.82696">
        <ele>328.7</ele>
        <time>2018-03-25T06:42:18Z</time>
      </trkpt>
      <trkpt lat="46.5917" lon="3.827">
        <ele>328.7</ele>
        <time>2018-03-25T06:42:20Z</time>
      </trkpt>
      <trkpt lat="46.59175" lon="3.82704">
        <ele>329.6</ele>
        <time>2018-03-25T06:42:22Z</time>
      </trkpt>
      <trkpt lat="46.59181" lon="3.82709">
        <ele>330.1</ele>
        <time>2018-03-25T06:42:24Z</time>
      </trkpt>
      <trkpt lat="46.59186" lon="3.82713">
        <ele>330.4</ele>
        <time>2018-03-25T06:42:26Z</time>
      </trkpt>
      <trkpt lat="46.59192" lon="3.82718">
        <ele>330.6</ele>
        <time>2018-03-25T06:42:28Z</time>
      </trkpt>
      <trkpt lat="46.59199" lon="3.82723">
        <ele>330.6</ele>
        <time>2018-03-25T06:42:30Z</time>
      </trkpt>
      <trkpt lat="46.59206" lon="3.8273">
        <ele>330.3</ele>
        <time>2018-03-25T06:42:32Z</time>
      </trkpt>
      <trkpt lat="46.5921" lon="3.82734">
        <ele>330.3</ele>
        <time>2018-03-25T06:42:33Z</time>
      </trkpt>
      <trkpt lat="46.59214" lon="3.82738">
        <ele>330.4</ele>
        <time>2018-03-25T06:42:34Z</time>
      </trkpt>
      <trkpt lat="46.59218" lon="3.82742">
        <ele>330.4</ele>
        <time>2018-03-25T06:42:35Z</time>
      </trkpt>
      <trkpt lat="46.59222" lon="3.82747">
        <ele>330.4</ele>
        <time>2018-03-25T06:42:36Z</time>
      </trkpt>
      <trkpt lat="46.59226" lon="3.82751">
        <ele>330.5</ele>
        <time>2018-03-25T06:42:37Z</time>
      </trkpt>
      <trkpt lat="46.5923" lon="3.82757">
        <ele>330.6</ele>
        <time>2018-03-25T06:42:38Z</time>
      </trkpt>
      <trkpt lat="46.59235" lon="3.82762">
        <ele>330.7</ele>
        <time>2018-03-25T06:42:39Z</time>
      </trkpt>
      <trkpt lat="46.59239" lon="3.82768">
        <ele>330.5</ele>
        <time>2018-03-25T06:42:40Z</time>
      </trkpt>
      <trkpt lat="46.59243" lon="3.82775">
        <ele>330.3</ele>
        <time>2018-03-25T06:42:41Z</time>
      </trkpt>
      <trkpt lat="46.59247" lon="3.82781">
        <ele>330.1</ele>
        <time>2018-03-25T06:42:42Z</time>
      </trkpt>
      <trkpt lat="46.59251" lon="3.82788">
        <ele>329.7</ele>
        <time>2018-03-25T06:42:43Z</time>
      </trkpt>
      <trkpt lat="46.59255" lon="3.82795">
        <ele>329.4</ele>
        <time>2018-03-25T06:42:44Z</time>
      </trkpt>
      <trkpt lat="46.59259" lon="3.82802">
        <ele>329.2</ele>
        <time>2018-03-25T06:42:45Z</time>
      </trkpt>
      <trkpt lat="46.59264" lon="3.82809">
        <ele>329.1</ele>
        <time>2018-03-25T06:42:46Z</time>
      </trkpt>
      <trkpt lat="46.59267" lon="3.82816">
        <ele>329</ele>
        <time>2018-03-25T06:42:47Z</time>
      </trkpt>
      <trkpt lat="46.59271" lon="3.82823">
        <ele>328.9</ele>
        <time>2018-03-25T06:42:48Z</time>
      </trkpt>
      <trkpt lat="46.59275" lon="3.8283">
        <ele>328.8</ele>
        <time>2018-03-25T06:42:49Z</time>
      </trkpt>
      <trkpt lat="46.59279" lon="3.82837">
        <ele>328.7</ele>
        <time>2018-03-25T06:42:50Z</time>
      </trkpt>
      <trkpt lat="46.59283" lon="3.82844">
        <ele>328.6</ele>
        <time>2018-03-25T06:42:51Z</time>
      </trkpt>
      <trkpt lat="46.59287" lon="3.82852">
        <ele>328.1</ele>
        <time>2018-03-25T06:42:52Z</time>
      </trkpt>
      <trkpt lat="46.5929" lon="3.82859">
        <ele>327.7</ele>
        <time>2018-03-25T06:42:53Z</time>
      </trkpt>
      <trkpt lat="46.59294" lon="3.82867">
        <ele>327.5</ele>
        <time>2018-03-25T06:42:54Z</time>
      </trkpt>
      <trkpt lat="46.59298" lon="3.82874">
        <ele>327.3</ele>
        <time>2018-03-25T06:42:55Z</time>
      </trkpt>
      <trkpt lat="46.59302" lon="3.82881">
        <ele>327.1</ele>
        <time>2018-03-25T06:42:56Z</time>
      </trkpt>
      <trkpt lat="46.59307" lon="3.82889">
        <ele>326.8</ele>
        <time>2018-03-25T06:42:57Z</time>
      </trkpt>
      <trkpt lat="46.59311" lon="3.82896">
        <ele>326.6</ele>
        <time>2018-03-25T06:42:58Z</time>
      </trkpt>
      <trkpt lat="46.59316" lon="3.82904">
        <ele>326.3</ele>
        <time>2018-03-25T06:42:59Z</time>
      </trkpt>
      <trkpt lat="46.5932" lon="3.82912">
        <ele>326</ele>
        <time>2018-03-25T06:43:00Z</time>
      </trkpt>
      <trkpt lat="46.59325" lon="3.82919">
        <ele>325.8</ele>
        <time>2018-03-25T06:43:01Z</time>
      </trkpt>
      <trkpt lat="46.59329" lon="3.82926">
        <ele>325.9</ele>
        <time>2018-03-25T06:43:02Z</time>
      </trkpt>
      <trkpt lat="46.59334" lon="3.82933">
        <ele>325.9</ele>
        <time>2018-03-25T06:43:03Z</time>
      </trkpt>
      <trkpt lat="46.59338" lon="3.82939">
        <ele>325.8</ele>
        <time>2018-03-25T06:43:04Z</time>
      </trkpt>
      <trkpt lat="46.59343" lon="3.82945">
        <ele>325.7</ele>
        <time>2018-03-25T06:43:05Z</time>
      </trkpt>
      <trkpt lat="46.59347" lon="3.82951">
        <ele>325.3</ele>
        <time>2018-03-25T06:43:06Z</time>
      </trkpt>
      <trkpt lat="46.59352" lon="3.82957">
        <ele>325</ele>
        <time>2018-03-25T06:43:07Z</time>
      </trkpt>
      <trkpt lat="46.59357" lon="3.82962">
        <ele>324.7</ele>
        <time>2018-03-25T06:43:08Z</time>
      </trkpt>
      <trkpt lat="46.59361" lon="3.82967">
        <ele>324.9</ele>
        <time>2018-03-25T06:43:09Z</time>
      </trkpt>
      <trkpt lat="46.59366" lon="3.82971">
        <ele>325</ele>
        <time>2018-03-25T06:43:10Z</time>
      </trkpt>
      <trkpt lat="46.59371" lon="3.82976">
        <ele>324.9</ele>
        <time>2018-03-25T06:43:11Z</time>
      </trkpt>
      <trkpt lat="46.59375" lon="3.8298">
        <ele>324.9</ele>
        <time>2018-03-25T06:43:12Z</time>
      </trkpt>
      <trkpt lat="46.5938" lon="3.82985">
        <ele>324.9</ele>
        <time>2018-03-25T06:43:13Z</time>
      </trkpt>
      <trkpt lat="46.59384" lon="3.82989">
        <ele>324.9</ele>
        <time>2018-03-25T06:43:14Z</time>
      </trkpt>
      <trkpt lat="46.59388" lon="3.82993">
        <ele>324.8</ele>
        <time>2018-03-25T06:43:15Z</time>
      </trkpt>
      <trkpt lat="46.59393" lon="3.82997">
        <ele>324.7</ele>
        <time>2018-03-25T06:43:16Z</time>
      </trkpt>
      <trkpt lat="46.59397" lon="3.83001">
        <ele>324.6</ele>
        <time>2018-03-25T06:43:17Z</time>
      </trkpt>
      <trkpt lat="46.59401" lon="3.83005">
        <ele>324.2</ele>
        <time>2018-03-25T06:43:18Z</time>
      </trkpt>
      <trkpt lat="46.59405" lon="3.83009">
        <ele>324</ele>
        <time>2018-03-25T06:43:19Z</time>
      </trkpt>
      <trkpt lat="46.59409" lon="3.83013">
        <ele>323.8</ele>
        <time>2018-03-25T06:43:20Z</time>
      </trkpt>
      <trkpt lat="46.59413" lon="3.83017">
        <ele>324</ele>
        <time>2018-03-25T06:43:21Z</time>
      </trkpt>
      <trkpt lat="46.59416" lon="3.83021">
        <ele>324.1</ele>
        <time>2018-03-25T06:43:22Z</time>
      </trkpt>
      <trkpt lat="46.5942" lon="3.83024">
        <ele>324.2</ele>
        <time>2018-03-25T06:43:23Z</time>
      </trkpt>
      <trkpt lat="46.59424" lon="3.83028">
        <ele>324.3</ele>
        <time>2018-03-25T06:43:24Z</time>
      </trkpt>
      <trkpt lat="46.59431" lon="3.83036">
        <ele>324.5</ele>
        <time>2018-03-25T06:43:26Z</time>
      </trkpt>
      <trkpt lat="46.59438" lon="3.83043">
        <ele>324.5</ele>
        <time>2018-03-25T06:43:28Z</time>
      </trkpt>
      <trkpt lat="46.59445" lon="3.8305">
        <ele>324.3</ele>
        <time>2018-03-25T06:43:30Z</time>
      </trkpt>
      <trkpt lat="46.59452" lon="3.83057">
        <ele>324.2</ele>
        <time>2018-03-25T06:43:32Z</time>
      </trkpt>
      <trkpt lat="46.59459" lon="3.83064">
        <ele>324.4</ele>
        <time>2018-03-25T06:43:34Z</time>
      </trkpt>
      <trkpt lat="46.59465" lon="3.83071">
        <ele>324.5</ele>
        <time>2018-03-25T06:43:36Z</time>
      </trkpt>
      <trkpt lat="46.59471" lon="3.83078">
        <ele>325.2</ele>
        <time>2018-03-25T06:43:38Z</time>
      </trkpt>
      <trkpt lat="46.59477" lon="3.83086">
        <ele>325.5</ele>
        <time>2018-03-25T06:43:40Z</time>
      </trkpt>
      <trkpt lat="46.59483" lon="3.83093">
        <ele>325.4</ele>
        <time>2018-03-25T06:43:42Z</time>
      </trkpt>
      <trkpt lat="46.59489" lon="3.831">
        <ele>325.3</ele>
        <time>2018-03-25T06:43:44Z</time>
      </trkpt>
      <trkpt lat="46.59495" lon="3.83107">
        <ele>325.3</ele>
        <time>2018-03-25T06:43:46Z</time>
      </trkpt>
      <trkpt lat="46.595" lon="3.83115">
        <ele>326.8</ele>
        <time>2018-03-25T06:43:48Z</time>
      </trkpt>
      <trkpt lat="46.59507" lon="3.83122">
        <ele>326.8</ele>
        <time>2018-03-25T06:43:50Z</time>
      </trkpt>
      <trkpt lat="46.59514" lon="3.83127">
        <ele>326.9</ele>
        <time>2018-03-25T06:43:52Z</time>
      </trkpt>
      <trkpt lat="46.5952" lon="3.83134">
        <ele>327.1</ele>
        <time>2018-03-25T06:43:54Z</time>
      </trkpt>
      <trkpt lat="46.59526" lon="3.8314">
        <ele>327.4</ele>
        <time>2018-03-25T06:43:56Z</time>
      </trkpt>
      <trkpt lat="46.59532" lon="3.83145">
        <ele>327.7</ele>
        <time>2018-03-25T06:43:58Z</time>
      </trkpt>
      <trkpt lat="46.59539" lon="3.8315">
        <ele>328.1</ele>
        <time>2018-03-25T06:44:00Z</time>
      </trkpt>
      <trkpt lat="46.59546" lon="3.83155">
        <ele>328.5</ele>
        <time>2018-03-25T06:44:02Z</time>
      </trkpt>
      <trkpt lat="46.59552" lon="3.83161">
        <ele>328.9</ele>
        <time>2018-03-25T06:44:04Z</time>
      </trkpt>
      <trkpt lat="46.59555" lon="3.83164">
        <ele>329</ele>
        <time>2018-03-25T06:44:05Z</time>
      </trkpt>
      <trkpt lat="46.59563" lon="3.83173">
        <ele>330.2</ele>
        <time>2018-03-25T06:44:08Z</time>
      </trkpt>
      <trkpt lat="46.59569" lon="3.83179">
        <ele>331</ele>
        <time>2018-03-25T06:44:10Z</time>
      </trkpt>
      <trkpt lat="46.59574" lon="3.83185">
        <ele>331.9</ele>
        <time>2018-03-25T06:44:12Z</time>
      </trkpt>
      <trkpt lat="46.59579" lon="3.83192">
        <ele>332.5</ele>
        <time>2018-03-25T06:44:14Z</time>
      </trkpt>
      <trkpt lat="46.59583" lon="3.83198">
        <ele>332.4</ele>
        <time>2018-03-25T06:44:16Z</time>
      </trkpt>
      <trkpt lat="46.59588" lon="3.83205">
        <ele>332.7</ele>
        <time>2018-03-25T06:44:18Z</time>
      </trkpt>
      <trkpt lat="46.59593" lon="3.83211">
        <ele>333.7</ele>
        <time>2018-03-25T06:44:20Z</time>
      </trkpt>
      <trkpt lat="46.59597" lon="3.83218">
        <ele>334.7</ele>
        <time>2018-03-25T06:44:22Z</time>
      </trkpt>
      <trkpt lat="46.59602" lon="3.83226">
        <ele>333.9</ele>
        <time>2018-03-25T06:44:24Z</time>
      </trkpt>
      <trkpt lat="46.59606" lon="3.83233">
        <ele>334.3</ele>
        <time>2018-03-25T06:44:26Z</time>
      </trkpt>
      <trkpt lat="46.5961" lon="3.8324">
        <ele>334.4</ele>
        <time>2018-03-25T06:44:28Z</time>
      </trkpt>
      <trkpt lat="46.59614" lon="3.83247">
        <ele>334.6</ele>
        <time>2018-03-25T06:44:30Z</time>
      </trkpt>
      <trkpt lat="46.5962" lon="3.83257">
        <ele>335.8</ele>
        <time>2018-03-25T06:44:33Z</time>
      </trkpt>
      <trkpt lat="46.59623" lon="3.83264">
        <ele>336.8</ele>
        <time>2018-03-25T06:44:35Z</time>
      </trkpt>
      <trkpt lat="46.59627" lon="3.83271">
        <ele>337</ele>
        <time>2018-03-25T06:44:37Z</time>
      </trkpt>
      <trkpt lat="46.59631" lon="3.83278">
        <ele>337.2</ele>
        <time>2018-03-25T06:44:39Z</time>
      </trkpt>
      <trkpt lat="46.59636" lon="3.83285">
        <ele>337.5</ele>
        <time>2018-03-25T06:44:41Z</time>
      </trkpt>
      <trkpt lat="46.59639" lon="3.83292">
        <ele>337.3</ele>
        <time>2018-03-25T06:44:43Z</time>
      </trkpt>
      <trkpt lat="46.59643" lon="3.833">
        <ele>337.6</ele>
        <time>2018-03-25T06:44:45Z</time>
      </trkpt>
      <trkpt lat="46.59647" lon="3.83309">
        <ele>338.1</ele>
        <time>2018-03-25T06:44:47Z</time>
      </trkpt>
      <trkpt lat="46.59653" lon="3.83318">
        <ele>338.1</ele>
        <time>2018-03-25T06:44:49Z</time>
      </trkpt>
      <trkpt lat="46.59656" lon="3.83323">
        <ele>338.1</ele>
        <time>2018-03-25T06:44:50Z</time>
      </trkpt>
      <trkpt lat="46.5966" lon="3.83327">
        <ele>337.6</ele>
        <time>2018-03-25T06:44:51Z</time>
      </trkpt>
      <trkpt lat="46.59663" lon="3.83333">
        <ele>337.2</ele>
        <time>2018-03-25T06:44:52Z</time>
      </trkpt>
      <trkpt lat="46.59667" lon="3.83339">
        <ele>336.9</ele>
        <time>2018-03-25T06:44:53Z</time>
      </trkpt>
      <trkpt lat="46.59672" lon="3.83345">
        <ele>336.5</ele>
        <time>2018-03-25T06:44:54Z</time>
      </trkpt>
      <trkpt lat="46.59676" lon="3.83351">
        <ele>336.2</ele>
        <time>2018-03-25T06:44:55Z</time>
      </trkpt>
      <trkpt lat="46.59681" lon="3.83357">
        <ele>336.1</ele>
        <time>2018-03-25T06:44:56Z</time>
      </trkpt>
      <trkpt lat="46.59687" lon="3.83363">
        <ele>336</ele>
        <time>2018-03-25T06:44:57Z</time>
      </trkpt>
      <trkpt lat="46.59692" lon="3.8337">
        <ele>335.3</ele>
        <time>2018-03-25T06:44:58Z</time>
      </trkpt>
      <trkpt lat="46.59697" lon="3.83377">
        <ele>334.8</ele>
        <time>2018-03-25T06:44:59Z</time>
      </trkpt>
      <trkpt lat="46.59702" lon="3.83385">
        <ele>334.4</ele>
        <time>2018-03-25T06:45:00Z</time>
      </trkpt>
      <trkpt lat="46.59708" lon="3.83393">
        <ele>334.1</ele>
        <time>2018-03-25T06:45:01Z</time>
      </trkpt>
      <trkpt lat="46.59713" lon="3.83401">
        <ele>334</ele>
        <time>2018-03-25T06:45:02Z</time>
      </trkpt>
      <trkpt lat="46.59719" lon="3.8341">
        <ele>333.1</ele>
        <time>2018-03-25T06:45:03Z</time>
      </trkpt>
      <trkpt lat="46.59725" lon="3.83419">
        <ele>332.5</ele>
        <time>2018-03-25T06:45:04Z</time>
      </trkpt>
      <trkpt lat="46.5973" lon="3.83429">
        <ele>332.1</ele>
        <time>2018-03-25T06:45:05Z</time>
      </trkpt>
      <trkpt lat="46.59736" lon="3.83438">
        <ele>331.4</ele>
        <time>2018-03-25T06:45:06Z</time>
      </trkpt>
      <trkpt lat="46.59742" lon="3.83447">
        <ele>330.9</ele>
        <time>2018-03-25T06:45:07Z</time>
      </trkpt>
      <trkpt lat="46.59748" lon="3.83456">
        <ele>330.2</ele>
        <time>2018-03-25T06:45:08Z</time>
      </trkpt>
      <trkpt lat="46.59753" lon="3.83464">
        <ele>329.7</ele>
        <time>2018-03-25T06:45:09Z</time>
      </trkpt>
      <trkpt lat="46.59758" lon="3.83473">
        <ele>329.1</ele>
        <time>2018-03-25T06:45:10Z</time>
      </trkpt>
      <trkpt lat="46.59763" lon="3.83481">
        <ele>328.7</ele>
        <time>2018-03-25T06:45:11Z</time>
      </trkpt>
      <trkpt lat="46.59767" lon="3.83489">
        <ele>328.4</ele>
        <time>2018-03-25T06:45:12Z</time>
      </trkpt>
      <trkpt lat="46.59772" lon="3.83497">
        <ele>328.1</ele>
        <time>2018-03-25T06:45:13Z</time>
      </trkpt>
      <trkpt lat="46.59777" lon="3.83505">
        <ele>327.9</ele>
        <time>2018-03-25T06:45:14Z</time>
      </trkpt>
      <trkpt lat="46.59781" lon="3.83514">
        <ele>327.5</ele>
        <time>2018-03-25T06:45:15Z</time>
      </trkpt>
      <trkpt lat="46.59786" lon="3.83522">
        <ele>327.2</ele>
        <time>2018-03-25T06:45:16Z</time>
      </trkpt>
      <trkpt lat="46.5979" lon="3.8353">
        <ele>326.7</ele>
        <time>2018-03-25T06:45:17Z</time>
      </trkpt>
      <trkpt lat="46.59795" lon="3.83538">
        <ele>326.2</ele>
        <time>2018-03-25T06:45:18Z</time>
      </trkpt>
      <trkpt lat="46.59799" lon="3.83545">
        <ele>325.9</ele>
        <time>2018-03-25T06:45:19Z</time>
      </trkpt>
      <trkpt lat="46.59803" lon="3.83552">
        <ele>325.4</ele>
        <time>2018-03-25T06:45:20Z</time>
      </trkpt>
      <trkpt lat="46.59806" lon="3.83557">
        <ele>325.1</ele>
        <time>2018-03-25T06:45:21Z</time>
      </trkpt>
      <trkpt lat="46.59814" lon="3.83562">
        <ele>325.2</ele>
        <time>2018-03-25T06:45:23Z</time>
      </trkpt>
      <trkpt lat="46.59819" lon="3.83556">
        <ele>325</ele>
        <time>2018-03-25T06:45:25Z</time>
      </trkpt>
      <trkpt lat="46.59818" lon="3.83546">
        <ele>324.9</ele>
        <time>2018-03-25T06:45:27Z</time>
      </trkpt>
      <trkpt lat="46.59817" lon="3.83535">
        <ele>325.1</ele>
        <time>2018-03-25T06:45:29Z</time>
      </trkpt>
      <trkpt lat="46.59816" lon="3.83524">
        <ele>325.4</ele>
        <time>2018-03-25T06:45:31Z</time>
      </trkpt>
      <trkpt lat="46.59814" lon="3.83512">
        <ele>324.5</ele>
        <time>2018-03-25T06:45:33Z</time>
      </trkpt>
      <trkpt lat="46.59813" lon="3.83505">
        <ele>324.6</ele>
        <time>2018-03-25T06:45:34Z</time>
      </trkpt>
      <trkpt lat="46.59813" lon="3.83498">
        <ele>324.7</ele>
        <time>2018-03-25T06:45:35Z</time>
      </trkpt>
      <trkpt lat="46.59812" lon="3.83491">
        <ele>324.2</ele>
        <time>2018-03-25T06:45:36Z</time>
      </trkpt>
      <trkpt lat="46.59811" lon="3.83484">
        <ele>323.8</ele>
        <time>2018-03-25T06:45:37Z</time>
      </trkpt>
      <trkpt lat="46.5981" lon="3.83476">
        <ele>323.6</ele>
        <time>2018-03-25T06:45:38Z</time>
      </trkpt>
      <trkpt lat="46.59809" lon="3.83468">
        <ele>323.2</ele>
        <time>2018-03-25T06:45:39Z</time>
      </trkpt>
      <trkpt lat="46.59808" lon="3.83459">
        <ele>322.9</ele>
        <time>2018-03-25T06:45:40Z</time>
      </trkpt>
      <trkpt lat="46.59807" lon="3.8345">
        <ele>322.9</ele>
        <time>2018-03-25T06:45:41Z</time>
      </trkpt>
      <trkpt lat="46.59806" lon="3.8344">
        <ele>323</ele>
        <time>2018-03-25T06:45:42Z</time>
      </trkpt>
      <trkpt lat="46.59804" lon="3.8343">
        <ele>323</ele>
        <time>2018-03-25T06:45:43Z</time>
      </trkpt>
      <trkpt lat="46.59803" lon="3.83419">
        <ele>322.4</ele>
        <time>2018-03-25T06:45:44Z</time>
      </trkpt>
      <trkpt lat="46.59802" lon="3.83408">
        <ele>321.9</ele>
        <time>2018-03-25T06:45:45Z</time>
      </trkpt>
      <trkpt lat="46.59801" lon="3.83396">
        <ele>321.5</ele>
        <time>2018-03-25T06:45:46Z</time>
      </trkpt>
      <trkpt lat="46.598" lon="3.83385">
        <ele>321.3</ele>
        <time>2018-03-25T06:45:47Z</time>
      </trkpt>
      <trkpt lat="46.59799" lon="3.83374">
        <ele>320.9</ele>
        <time>2018-03-25T06:45:48Z</time>
      </trkpt>
      <trkpt lat="46.59798" lon="3.83363">
        <ele>320.6</ele>
        <time>2018-03-25T06:45:49Z</time>
      </trkpt>
      <trkpt lat="46.59797" lon="3.83353">
        <ele>320.4</ele>
        <time>2018-03-25T06:45:50Z</time>
      </trkpt>
      <trkpt lat="46.59795" lon="3.83343">
        <ele>320.4</ele>
        <time>2018-03-25T06:45:51Z</time>
      </trkpt>
      <trkpt lat="46.59794" lon="3.83333">
        <ele>320.4</ele>
        <time>2018-03-25T06:45:52Z</time>
      </trkpt>
      <trkpt lat="46.59794" lon="3.83324">
        <ele>320.1</ele>
        <time>2018-03-25T06:45:53Z</time>
      </trkpt>
      <trkpt lat="46.59793" lon="3.83316">
        <ele>319.9</ele>
        <time>2018-03-25T06:45:54Z</time>
      </trkpt>
      <trkpt lat="46.59792" lon="3.83308">
        <ele>319.7</ele>
        <time>2018-03-25T06:45:55Z</time>
      </trkpt>
      <trkpt lat="46.59791" lon="3.833">
        <ele>319.8</ele>
        <time>2018-03-25T06:45:56Z</time>
      </trkpt>
      <trkpt lat="46.59791" lon="3.83292">
        <ele>319.8</ele>
        <time>2018-03-25T06:45:57Z</time>
      </trkpt>
      <trkpt lat="46.5979" lon="3.83285">
        <ele>320.1</ele>
        <time>2018-03-25T06:45:58Z</time>
      </trkpt>
      <trkpt lat="46.59789" lon="3.83278">
        <ele>320.3</ele>
        <time>2018-03-25T06:45:59Z</time>
      </trkpt>
      <trkpt lat="46.59789" lon="3.83272">
        <ele>320.3</ele>
        <time>2018-03-25T06:46:00Z</time>
      </trkpt>
      <trkpt lat="46.59788" lon="3.83259">
        <ele>320.4</ele>
        <time>2018-03-25T06:46:02Z</time>
      </trkpt>
      <trkpt lat="46.59787" lon="3.83247">
        <ele>320.4</ele>
        <time>2018-03-25T06:46:04Z</time>
      </trkpt>
      <trkpt lat="46.59785" lon="3.83236">
        <ele>321.1</ele>
        <time>2018-03-25T06:46:06Z</time>
      </trkpt>
      <trkpt lat="46.59785" lon="3.8323">
        <ele>321.2</ele>
        <time>2018-03-25T06:46:07Z</time>
      </trkpt>
      <trkpt lat="46.59783" lon="3.83214">
        <ele>321.9</ele>
        <time>2018-03-25T06:46:10Z</time>
      </trkpt>
      <trkpt lat="46.59782" lon="3.83204">
        <ele>322.7</ele>
        <time>2018-03-25T06:46:12Z</time>
      </trkpt>
      <trkpt lat="46.59781" lon="3.83194">
        <ele>323.4</ele>
        <time>2018-03-25T06:46:14Z</time>
      </trkpt>
      <trkpt lat="46.5978" lon="3.83184">
        <ele>323.6</ele>
        <time>2018-03-25T06:46:16Z</time>
      </trkpt>
      <trkpt lat="46.59779" lon="3.83174">
        <ele>323.5</ele>
        <time>2018-03-25T06:46:18Z</time>
      </trkpt>
      <trkpt lat="46.59778" lon="3.83164">
        <ele>323.8</ele>
        <time>2018-03-25T06:46:20Z</time>
      </trkpt>
      <trkpt lat="46.59776" lon="3.83155">
        <ele>324.3</ele>
        <time>2018-03-25T06:46:22Z</time>
      </trkpt>
      <trkpt lat="46.59775" lon="3.83145">
        <ele>324.9</ele>
        <time>2018-03-25T06:46:24Z</time>
      </trkpt>
      <trkpt lat="46.59774" lon="3.83135">
        <ele>324.9</ele>
        <time>2018-03-25T06:46:26Z</time>
      </trkpt>
      <trkpt lat="46.59773" lon="3.83125">
        <ele>324.6</ele>
        <time>2018-03-25T06:46:28Z</time>
      </trkpt>
      <trkpt lat="46.59771" lon="3.83115">
        <ele>325.3</ele>
        <time>2018-03-25T06:46:30Z</time>
      </trkpt>
      <trkpt lat="46.5977" lon="3.83105">
        <ele>325.4</ele>
        <time>2018-03-25T06:46:32Z</time>
      </trkpt>
      <trkpt lat="46.59769" lon="3.83095">
        <ele>325.6</ele>
        <time>2018-03-25T06:46:34Z</time>
      </trkpt>
      <trkpt lat="46.59768" lon="3.83085">
        <ele>325.8</ele>
        <time>2018-03-25T06:46:36Z</time>
      </trkpt>
      <trkpt lat="46.59766" lon="3.83075">
        <ele>326.3</ele>
        <time>2018-03-25T06:46:38Z</time>
      </trkpt>
      <trkpt lat="46.59765" lon="3.83065">
        <ele>326.9</ele>
        <time>2018-03-25T06:46:40Z</time>
      </trkpt>
      <trkpt lat="46.59764" lon="3.83054">
        <ele>326.4</ele>
        <time>2018-03-25T06:46:42Z</time>
      </trkpt>
      <trkpt lat="46.59762" lon="3.83043">
        <ele>325.9</ele>
        <time>2018-03-25T06:46:44Z</time>
      </trkpt>
      <trkpt lat="46.59761" lon="3.83032">
        <ele>325.9</ele>
        <time>2018-03-25T06:46:46Z</time>
      </trkpt>
      <trkpt lat="46.5976" lon="3.83021">
        <ele>326.2</ele>
        <time>2018-03-25T06:46:48Z</time>
      </trkpt>
      <trkpt lat="46.59758" lon="3.8301">
        <ele>326.7</ele>
        <time>2018-03-25T06:46:50Z</time>
      </trkpt>
      <trkpt lat="46.59757" lon="3.82999">
        <ele>327.1</ele>
        <time>2018-03-25T06:46:52Z</time>
      </trkpt>
      <trkpt lat="46.59756" lon="3.82988">
        <ele>327.3</ele>
        <time>2018-03-25T06:46:54Z</time>
      </trkpt>
      <trkpt lat="46.59755" lon="3.82978">
        <ele>327.9</ele>
        <time>2018-03-25T06:46:56Z</time>
      </trkpt>
      <trkpt lat="46.59754" lon="3.82969">
        <ele>327.4</ele>
        <time>2018-03-25T06:46:58Z</time>
      </trkpt>
      <trkpt lat="46.59753" lon="3.82959">
        <ele>327.5</ele>
        <time>2018-03-25T06:47:00Z</time>
      </trkpt>
      <trkpt lat="46.59753" lon="3.82949">
        <ele>328.3</ele>
        <time>2018-03-25T06:47:02Z</time>
      </trkpt>
      <trkpt lat="46.59752" lon="3.82939">
        <ele>329.1</ele>
        <time>2018-03-25T06:47:04Z</time>
      </trkpt>
      <trkpt lat="46.59751" lon="3.82929">
        <ele>329.3</ele>
        <time>2018-03-25T06:47:06Z</time>
      </trkpt>
      <trkpt lat="46.5975" lon="3.82919">
        <ele>329.5</ele>
        <time>2018-03-25T06:47:08Z</time>
      </trkpt>
      <trkpt lat="46.59749" lon="3.82914">
        <ele>329.8</ele>
        <time>2018-03-25T06:47:09Z</time>
      </trkpt>
      <trkpt lat="46.59747" lon="3.82898">
        <ele>330.4</ele>
        <time>2018-03-25T06:47:12Z</time>
      </trkpt>
      <trkpt lat="46.59747" lon="3.82888">
        <ele>330.6</ele>
        <time>2018-03-25T06:47:14Z</time>
      </trkpt>
      <trkpt lat="46.59745" lon="3.82878">
        <ele>330.8</ele>
        <time>2018-03-25T06:47:16Z</time>
      </trkpt>
      <trkpt lat="46.59744" lon="3.82868">
        <ele>330.1</ele>
        <time>2018-03-25T06:47:18Z</time>
      </trkpt>
      <trkpt lat="46.59743" lon="3.82857">
        <ele>329.3</ele>
        <time>2018-03-25T06:47:20Z</time>
      </trkpt>
      <trkpt lat="46.59742" lon="3.82846">
        <ele>328.9</ele>
        <time>2018-03-25T06:47:22Z</time>
      </trkpt>
      <trkpt lat="46.59741" lon="3.82835">
        <ele>328.5</ele>
        <time>2018-03-25T06:47:24Z</time>
      </trkpt>
      <trkpt lat="46.59741" lon="3.82825">
        <ele>328.5</ele>
        <time>2018-03-25T06:47:26Z</time>
      </trkpt>
      <trkpt lat="46.59742" lon="3.82814">
        <ele>328.9</ele>
        <time>2018-03-25T06:47:28Z</time>
      </trkpt>
      <trkpt lat="46.59747" lon="3.82805">
        <ele>329.2</ele>
        <time>2018-03-25T06:47:30Z</time>
      </trkpt>
      <trkpt lat="46.59755" lon="3.82803">
        <ele>329.8</ele>
        <time>2018-03-25T06:47:32Z</time>
      </trkpt>
      <trkpt lat="46.59763" lon="3.82803">
        <ele>328.8</ele>
        <time>2018-03-25T06:47:34Z</time>
      </trkpt>
      <trkpt lat="46.59767" lon="3.82803">
        <ele>328.5</ele>
        <time>2018-03-25T06:47:35Z</time>
      </trkpt>
      <trkpt lat="46.59772" lon="3.82803">
        <ele>328.1</ele>
        <time>2018-03-25T06:47:36Z</time>
      </trkpt>
      <trkpt lat="46.59777" lon="3.82802">
        <ele>327.8</ele>
        <time>2018-03-25T06:47:37Z</time>
      </trkpt>
      <trkpt lat="46.59782" lon="3.82802">
        <ele>328.2</ele>
        <time>2018-03-25T06:47:38Z</time>
      </trkpt>
      <trkpt lat="46.59787" lon="3.82802">
        <ele>328.6</ele>
        <time>2018-03-25T06:47:39Z</time>
      </trkpt>
      <trkpt lat="46.59793" lon="3.82802">
        <ele>328.4</ele>
        <time>2018-03-25T06:47:40Z</time>
      </trkpt>
      <trkpt lat="46.59798" lon="3.82802">
        <ele>328.3</ele>
        <time>2018-03-25T06:47:41Z</time>
      </trkpt>
      <trkpt lat="46.59804" lon="3.82802">
        <ele>328.2</ele>
        <time>2018-03-25T06:47:42Z</time>
      </trkpt>
      <trkpt lat="46.59811" lon="3.82803">
        <ele>328.1</ele>
        <time>2018-03-25T06:47:43Z</time>
      </trkpt>
      <trkpt lat="46.59818" lon="3.82803">
        <ele>328</ele>
        <time>2018-03-25T06:47:44Z</time>
      </trkpt>
      <trkpt lat="46.59825" lon="3.82803">
        <ele>327.2</ele>
        <time>2018-03-25T06:47:45Z</time>
      </trkpt>
      <trkpt lat="46.59832" lon="3.82803">
        <ele>326.6</ele>
        <time>2018-03-25T06:47:46Z</time>
      </trkpt>
      <trkpt lat="46.59839" lon="3.82803">
        <ele>326.1</ele>
        <time>2018-03-25T06:47:47Z</time>
      </trkpt>
      <trkpt lat="46.59846" lon="3.82802">
        <ele>325.7</ele>
        <time>2018-03-25T06:47:48Z</time>
      </trkpt>
      <trkpt lat="46.59853" lon="3.82802">
        <ele>325.5</ele>
        <time>2018-03-25T06:47:49Z</time>
      </trkpt>
      <trkpt lat="46.5986" lon="3.82802">
        <ele>325.1</ele>
        <time>2018-03-25T06:47:50Z</time>
      </trkpt>
      <trkpt lat="46.59867" lon="3.82801">
        <ele>324.9</ele>
        <time>2018-03-25T06:47:51Z</time>
      </trkpt>
      <trkpt lat="46.59874" lon="3.828">
        <ele>324.5</ele>
        <time>2018-03-25T06:47:52Z</time>
      </trkpt>
      <trkpt lat="46.5988" lon="3.82799">
        <ele>324.2</ele>
        <time>2018-03-25T06:47:53Z</time>
      </trkpt>
      <trkpt lat="46.59887" lon="3.82798">
        <ele>323.9</ele>
        <time>2018-03-25T06:47:54Z</time>
      </trkpt>
      <trkpt lat="46.59894" lon="3.82797">
        <ele>323.6</ele>
        <time>2018-03-25T06:47:55Z</time>
      </trkpt>
      <trkpt lat="46.59901" lon="3.82795">
        <ele>323.3</ele>
        <time>2018-03-25T06:47:56Z</time>
      </trkpt>
      <trkpt lat="46.59907" lon="3.82794">
        <ele>322.9</ele>
        <time>2018-03-25T06:47:57Z</time>
      </trkpt>
      <trkpt lat="46.59914" lon="3.82793">
        <ele>322.6</ele>
        <time>2018-03-25T06:47:58Z</time>
      </trkpt>
      <trkpt lat="46.59921" lon="3.82792">
        <ele>322.6</ele>
        <time>2018-03-25T06:47:59Z</time>
      </trkpt>
      <trkpt lat="46.59927" lon="3.82791">
        <ele>322.6</ele>
        <time>2018-03-25T06:48:00Z</time>
      </trkpt>
      <trkpt lat="46.59934" lon="3.8279">
        <ele>322.6</ele>
        <time>2018-03-25T06:48:01Z</time>
      </trkpt>
      <trkpt lat="46.59941" lon="3.82789">
        <ele>322.3</ele>
        <time>2018-03-25T06:48:02Z</time>
      </trkpt>
      <trkpt lat="46.59947" lon="3.82788">
        <ele>322</ele>
        <time>2018-03-25T06:48:03Z</time>
      </trkpt>
      <trkpt lat="46.59954" lon="3.82788">
        <ele>321.4</ele>
        <time>2018-03-25T06:48:04Z</time>
      </trkpt>
      <trkpt lat="46.59961" lon="3.82787">
        <ele>321</ele>
        <time>2018-03-25T06:48:05Z</time>
      </trkpt>
      <trkpt lat="46.59967" lon="3.82786">
        <ele>320.5</ele>
        <time>2018-03-25T06:48:06Z</time>
      </trkpt>
      <trkpt lat="46.59974" lon="3.82786">
        <ele>320.2</ele>
        <time>2018-03-25T06:48:07Z</time>
      </trkpt>
      <trkpt lat="46.59981" lon="3.82786">
        <ele>319.9</ele>
        <time>2018-03-25T06:48:08Z</time>
      </trkpt>
      <trkpt lat="46.59988" lon="3.82787">
        <ele>319.9</ele>
        <time>2018-03-25T06:48:09Z</time>
      </trkpt>
      <trkpt lat="46.59994" lon="3.82788">
        <ele>319.8</ele>
        <time>2018-03-25T06:48:10Z</time>
      </trkpt>
      <trkpt lat="46.60001" lon="3.82789">
        <ele>320</ele>
        <time>2018-03-25T06:48:11Z</time>
      </trkpt>
      <trkpt lat="46.60007" lon="3.8279">
        <ele>320.1</ele>
        <time>2018-03-25T06:48:12Z</time>
      </trkpt>
      <trkpt lat="46.60014" lon="3.8279">
        <ele>320.2</ele>
        <time>2018-03-25T06:48:13Z</time>
      </trkpt>
      <trkpt lat="46.60021" lon="3.82789">
        <ele>319.9</ele>
        <time>2018-03-25T06:48:14Z</time>
      </trkpt>
      <trkpt lat="46.60027" lon="3.82789">
        <ele>319.8</ele>
        <time>2018-03-25T06:48:15Z</time>
      </trkpt>
      <trkpt lat="46.60034" lon="3.82789">
        <ele>319.6</ele>
        <time>2018-03-25T06:48:16Z</time>
      </trkpt>
      <trkpt lat="46.60042" lon="3.82789">
        <ele>319.5</ele>
        <time>2018-03-25T06:48:17Z</time>
      </trkpt>
      <trkpt lat="46.60049" lon="3.82788">
        <ele>319.2</ele>
        <time>2018-03-25T06:48:18Z</time>
      </trkpt>
      <trkpt lat="46.60057" lon="3.82789">
        <ele>318.9</ele>
        <time>2018-03-25T06:48:19Z</time>
      </trkpt>
      <trkpt lat="46.60065" lon="3.82792">
        <ele>318.7</ele>
        <time>2018-03-25T06:48:20Z</time>
      </trkpt>
      <trkpt lat="46.60072" lon="3.82798">
        <ele>318.3</ele>
        <time>2018-03-25T06:48:21Z</time>
      </trkpt>
      <trkpt lat="46.60079" lon="3.82804">
        <ele>318</ele>
        <time>2018-03-25T06:48:22Z</time>
      </trkpt>
      <trkpt lat="46.60087" lon="3.82812">
        <ele>317.4</ele>
        <time>2018-03-25T06:48:23Z</time>
      </trkpt>
      <trkpt lat="46.60094" lon="3.8282">
        <ele>316.9</ele>
        <time>2018-03-25T06:48:24Z</time>
      </trkpt>
      <trkpt lat="46.60102" lon="3.82829">
        <ele>316.5</ele>
        <time>2018-03-25T06:48:25Z</time>
      </trkpt>
      <trkpt lat="46.6011" lon="3.82837">
        <ele>315.5</ele>
        <time>2018-03-25T06:48:26Z</time>
      </trkpt>
      <trkpt lat="46.60118" lon="3.82846">
        <ele>314.8</ele>
        <time>2018-03-25T06:48:27Z</time>
      </trkpt>
      <trkpt lat="46.60127" lon="3.82854">
        <ele>313.7</ele>
        <time>2018-03-25T06:48:28Z</time>
      </trkpt>
      <trkpt lat="46.60135" lon="3.82863">
        <ele>312.9</ele>
        <time>2018-03-25T06:48:29Z</time>
      </trkpt>
      <trkpt lat="46.60142" lon="3.82873">
        <ele>312.1</ele>
        <time>2018-03-25T06:48:30Z</time>
      </trkpt>
      <trkpt lat="46.6015" lon="3.82882">
        <ele>311.5</ele>
        <time>2018-03-25T06:48:31Z</time>
      </trkpt>
      <trkpt lat="46.60158" lon="3.82891">
        <ele>311</ele>
        <time>2018-03-25T06:48:32Z</time>
      </trkpt>
      <trkpt lat="46.60166" lon="3.82901">
        <ele>310.8</ele>
        <time>2018-03-25T06:48:33Z</time>
      </trkpt>
      <trkpt lat="46.60173" lon="3.82909">
        <ele>310.7</ele>
        <time>2018-03-25T06:48:34Z</time>
      </trkpt>
      <trkpt lat="46.6018" lon="3.82916">
        <ele>309.8</ele>
        <time>2018-03-25T06:48:35Z</time>
      </trkpt>
      <trkpt lat="46.60185" lon="3.82922">
        <ele>309.2</ele>
        <time>2018-03-25T06:48:36Z</time>
      </trkpt>
      <trkpt lat="46.60189" lon="3.8293">
        <ele>307.5</ele>
        <time>2018-03-25T06:48:37Z</time>
      </trkpt>
      <trkpt lat="46.60192" lon="3.8294">
        <ele>306.2</ele>
        <time>2018-03-25T06:48:38Z</time>
      </trkpt>
      <trkpt lat="46.60192" lon="3.82952">
        <ele>305.2</ele>
        <time>2018-03-25T06:48:39Z</time>
      </trkpt>
      <trkpt lat="46.60191" lon="3.82962">
        <ele>304.3</ele>
        <time>2018-03-25T06:48:40Z</time>
      </trkpt>
      <trkpt lat="46.60189" lon="3.82974">
        <ele>303.6</ele>
        <time>2018-03-25T06:48:41Z</time>
      </trkpt>
      <trkpt lat="46.60186" lon="3.82987">
        <ele>302.6</ele>
        <time>2018-03-25T06:48:42Z</time>
      </trkpt>
      <trkpt lat="46.60185" lon="3.83">
        <ele>301.7</ele>
        <time>2018-03-25T06:48:43Z</time>
      </trkpt>
      <trkpt lat="46.60183" lon="3.83014">
        <ele>301.1</ele>
        <time>2018-03-25T06:48:44Z</time>
      </trkpt>
      <trkpt lat="46.60182" lon="3.83026">
        <ele>300.1</ele>
        <time>2018-03-25T06:48:45Z</time>
      </trkpt>
      <trkpt lat="46.6018" lon="3.83037">
        <ele>299.3</ele>
        <time>2018-03-25T06:48:46Z</time>
      </trkpt>
      <trkpt lat="46.60179" lon="3.83046">
        <ele>298.1</ele>
        <time>2018-03-25T06:48:47Z</time>
      </trkpt>
      <trkpt lat="46.60183" lon="3.83057">
        <ele>296.1</ele>
        <time>2018-03-25T06:48:49Z</time>
      </trkpt>
      <trkpt lat="46.60188" lon="3.83059">
        <ele>295.3</ele>
        <time>2018-03-25T06:48:50Z</time>
      </trkpt>
      <trkpt lat="46.60193" lon="3.83059">
        <ele>294.7</ele>
        <time>2018-03-25T06:48:51Z</time>
      </trkpt>
      <trkpt lat="46.60199" lon="3.83059">
        <ele>294.2</ele>
        <time>2018-03-25T06:48:52Z</time>
      </trkpt>
      <trkpt lat="46.60205" lon="3.83061">
        <ele>293.8</ele>
        <time>2018-03-25T06:48:53Z</time>
      </trkpt>
      <trkpt lat="46.60212" lon="3.83064">
        <ele>293.2</ele>
        <time>2018-03-25T06:48:54Z</time>
      </trkpt>
      <trkpt lat="46.60218" lon="3.83067">
        <ele>292.8</ele>
        <time>2018-03-25T06:48:55Z</time>
      </trkpt>
      <trkpt lat="46.60225" lon="3.83071">
        <ele>292</ele>
        <time>2018-03-25T06:48:56Z</time>
      </trkpt>
      <trkpt lat="46.60231" lon="3.83075">
        <ele>291.4</ele>
        <time>2018-03-25T06:48:57Z</time>
      </trkpt>
      <trkpt lat="46.60237" lon="3.8308">
        <ele>290.9</ele>
        <time>2018-03-25T06:48:58Z</time>
      </trkpt>
      <trkpt lat="46.60244" lon="3.83085">
        <ele>291.3</ele>
        <time>2018-03-25T06:48:59Z</time>
      </trkpt>
      <trkpt lat="46.6025" lon="3.83091">
        <ele>291.5</ele>
        <time>2018-03-25T06:49:00Z</time>
      </trkpt>
      <trkpt lat="46.60257" lon="3.83096">
        <ele>291.3</ele>
        <time>2018-03-25T06:49:01Z</time>
      </trkpt>
      <trkpt lat="46.60264" lon="3.83099">
        <ele>291.1</ele>
        <time>2018-03-25T06:49:02Z</time>
      </trkpt>
      <trkpt lat="46.60271" lon="3.83098">
        <ele>291</ele>
        <time>2018-03-25T06:49:03Z</time>
      </trkpt>
      <trkpt lat="46.60278" lon="3.83095">
        <ele>290.7</ele>
        <time>2018-03-25T06:49:04Z</time>
      </trkpt>
      <trkpt lat="46.60285" lon="3.8309">
        <ele>290.5</ele>
        <time>2018-03-25T06:49:05Z</time>
      </trkpt>
      <trkpt lat="46.60291" lon="3.83084">
        <ele>290.2</ele>
        <time>2018-03-25T06:49:06Z</time>
      </trkpt>
      <trkpt lat="46.60297" lon="3.83077">
        <ele>290</ele>
        <time>2018-03-25T06:49:07Z</time>
      </trkpt>
      <trkpt lat="46.60303" lon="3.83071">
        <ele>289.3</ele>
        <time>2018-03-25T06:49:08Z</time>
      </trkpt>
      <trkpt lat="46.60309" lon="3.83065">
        <ele>288.7</ele>
        <time>2018-03-25T06:49:09Z</time>
      </trkpt>
      <trkpt lat="46.60315" lon="3.83058">
        <ele>288.3</ele>
        <time>2018-03-25T06:49:10Z</time>
      </trkpt>
      <trkpt lat="46.60321" lon="3.83052">
        <ele>288</ele>
        <time>2018-03-25T06:49:11Z</time>
      </trkpt>
      <trkpt lat="46.60326" lon="3.83045">
        <ele>287.7</ele>
        <time>2018-03-25T06:49:12Z</time>
      </trkpt>
      <trkpt lat="46.60332" lon="3.83037">
        <ele>287.4</ele>
        <time>2018-03-25T06:49:13Z</time>
      </trkpt>
      <trkpt lat="46.60337" lon="3.8303">
        <ele>287.2</ele>
        <time>2018-03-25T06:49:14Z</time>
      </trkpt>
      <trkpt lat="46.60341" lon="3.83023">
        <ele>287</ele>
        <time>2018-03-25T06:49:15Z</time>
      </trkpt>
      <trkpt lat="46.60346" lon="3.83016">
        <ele>286.6</ele>
        <time>2018-03-25T06:49:16Z</time>
      </trkpt>
      <trkpt lat="46.60351" lon="3.83009">
        <ele>286.3</ele>
        <time>2018-03-25T06:49:17Z</time>
      </trkpt>
      <trkpt lat="46.60357" lon="3.83002">
        <ele>285.7</ele>
        <time>2018-03-25T06:49:18Z</time>
      </trkpt>
      <trkpt lat="46.60362" lon="3.82995">
        <ele>285.3</ele>
        <time>2018-03-25T06:49:19Z</time>
      </trkpt>
      <trkpt lat="46.60368" lon="3.82988">
        <ele>284.8</ele>
        <time>2018-03-25T06:49:20Z</time>
      </trkpt>
      <trkpt lat="46.60373" lon="3.82981">
        <ele>284.5</ele>
        <time>2018-03-25T06:49:21Z</time>
      </trkpt>
      <trkpt lat="46.60378" lon="3.82973">
        <ele>284.2</ele>
        <time>2018-03-25T06:49:22Z</time>
      </trkpt>
      <trkpt lat="46.60383" lon="3.82966">
        <ele>284.2</ele>
        <time>2018-03-25T06:49:23Z</time>
      </trkpt>
      <trkpt lat="46.60388" lon="3.82958">
        <ele>284.3</ele>
        <time>2018-03-25T06:49:24Z</time>
      </trkpt>
      <trkpt lat="46.60393" lon="3.82951">
        <ele>283.6</ele>
        <time>2018-03-25T06:49:25Z</time>
      </trkpt>
      <trkpt lat="46.60398" lon="3.82944">
        <ele>283.2</ele>
        <time>2018-03-25T06:49:26Z</time>
      </trkpt>
      <trkpt lat="46.60403" lon="3.82937">
        <ele>282.8</ele>
        <time>2018-03-25T06:49:27Z</time>
      </trkpt>
      <trkpt lat="46.60408" lon="3.82931">
        <ele>282.5</ele>
        <time>2018-03-25T06:49:28Z</time>
      </trkpt>
      <trkpt lat="46.60413" lon="3.82924">
        <ele>282.3</ele>
        <time>2018-03-25T06:49:29Z</time>
      </trkpt>
      <trkpt lat="46.60418" lon="3.82918">
        <ele>281.9</ele>
        <time>2018-03-25T06:49:30Z</time>
      </trkpt>
      <trkpt lat="46.60423" lon="3.82911">
        <ele>281.5</ele>
        <time>2018-03-25T06:49:31Z</time>
      </trkpt>
      <trkpt lat="46.60429" lon="3.82905">
        <ele>281.5</ele>
        <time>2018-03-25T06:49:32Z</time>
      </trkpt>
      <trkpt lat="46.60434" lon="3.82899">
        <ele>281.5</ele>
        <time>2018-03-25T06:49:33Z</time>
      </trkpt>
      <trkpt lat="46.6044" lon="3.82894">
        <ele>281.5</ele>
        <time>2018-03-25T06:49:34Z</time>
      </trkpt>
      <trkpt lat="46.60445" lon="3.82889">
        <ele>281.2</ele>
        <time>2018-03-25T06:49:35Z</time>
      </trkpt>
      <trkpt lat="46.60449" lon="3.82883">
        <ele>280.9</ele>
        <time>2018-03-25T06:49:36Z</time>
      </trkpt>
      <trkpt lat="46.60454" lon="3.82877">
        <ele>280.5</ele>
        <time>2018-03-25T06:49:37Z</time>
      </trkpt>
      <trkpt lat="46.60457" lon="3.8287">
        <ele>280.1</ele>
        <time>2018-03-25T06:49:38Z</time>
      </trkpt>
      <trkpt lat="46.60461" lon="3.82863">
        <ele>279.8</ele>
        <time>2018-03-25T06:49:39Z</time>
      </trkpt>
      <trkpt lat="46.60464" lon="3.82856">
        <ele>279.6</ele>
        <time>2018-03-25T06:49:40Z</time>
      </trkpt>
      <trkpt lat="46.60468" lon="3.82848">
        <ele>279.4</ele>
        <time>2018-03-25T06:49:41Z</time>
      </trkpt>
      <trkpt lat="46.60471" lon="3.8284">
        <ele>279.3</ele>
        <time>2018-03-25T06:49:42Z</time>
      </trkpt>
      <trkpt lat="46.60474" lon="3.82832">
        <ele>279.2</ele>
        <time>2018-03-25T06:49:43Z</time>
      </trkpt>
      <trkpt lat="46.60477" lon="3.82824">
        <ele>278.9</ele>
        <time>2018-03-25T06:49:44Z</time>
      </trkpt>
      <trkpt lat="46.6048" lon="3.82815">
        <ele>278.6</ele>
        <time>2018-03-25T06:49:45Z</time>
      </trkpt>
      <trkpt lat="46.60483" lon="3.82806">
        <ele>278.4</ele>
        <time>2018-03-25T06:49:46Z</time>
      </trkpt>
      <trkpt lat="46.60487" lon="3.82796">
        <ele>278.1</ele>
        <time>2018-03-25T06:49:47Z</time>
      </trkpt>
      <trkpt lat="46.6049" lon="3.82787">
        <ele>277.8</ele>
        <time>2018-03-25T06:49:48Z</time>
      </trkpt>
      <trkpt lat="46.60493" lon="3.82778">
        <ele>277.5</ele>
        <time>2018-03-25T06:49:49Z</time>
      </trkpt>
      <trkpt lat="46.60496" lon="3.82767">
        <ele>277.2</ele>
        <time>2018-03-25T06:49:50Z</time>
      </trkpt>
      <trkpt lat="46.60499" lon="3.82756">
        <ele>276.6</ele>
        <time>2018-03-25T06:49:51Z</time>
      </trkpt>
      <trkpt lat="46.60502" lon="3.82744">
        <ele>276.1</ele>
        <time>2018-03-25T06:49:52Z</time>
      </trkpt>
      <trkpt lat="46.60506" lon="3.82733">
        <ele>275.8</ele>
        <time>2018-03-25T06:49:53Z</time>
      </trkpt>
      <trkpt lat="46.60511" lon="3.82722">
        <ele>275.6</ele>
        <time>2018-03-25T06:49:54Z</time>
      </trkpt>
      <trkpt lat="46.60516" lon="3.82711">
        <ele>275.4</ele>
        <time>2018-03-25T06:49:55Z</time>
      </trkpt>
      <trkpt lat="46.60522" lon="3.82701">
        <ele>274.6</ele>
        <time>2018-03-25T06:49:56Z</time>
      </trkpt>
      <trkpt lat="46.60529" lon="3.82691">
        <ele>274.1</ele>
        <time>2018-03-25T06:49:57Z</time>
      </trkpt>
      <trkpt lat="46.60535" lon="3.82681">
        <ele>273.5</ele>
        <time>2018-03-25T06:49:58Z</time>
      </trkpt>
      <trkpt lat="46.60542" lon="3.82671">
        <ele>273.1</ele>
        <time>2018-03-25T06:49:59Z</time>
      </trkpt>
      <trkpt lat="46.60548" lon="3.8266">
        <ele>272.8</ele>
        <time>2018-03-25T06:50:00Z</time>
      </trkpt>
      <trkpt lat="46.60553" lon="3.82648">
        <ele>272</ele>
        <time>2018-03-25T06:50:01Z</time>
      </trkpt>
      <trkpt lat="46.60559" lon="3.82637">
        <ele>271.5</ele>
        <time>2018-03-25T06:50:02Z</time>
      </trkpt>
      <trkpt lat="46.60565" lon="3.82625">
        <ele>270.9</ele>
        <time>2018-03-25T06:50:03Z</time>
      </trkpt>
      <trkpt lat="46.6057" lon="3.82613">
        <ele>270.5</ele>
        <time>2018-03-25T06:50:04Z</time>
      </trkpt>
      <trkpt lat="46.60575" lon="3.82601">
        <ele>270.2</ele>
        <time>2018-03-25T06:50:05Z</time>
      </trkpt>
      <trkpt lat="46.6058" lon="3.82588">
        <ele>269.3</ele>
        <time>2018-03-25T06:50:06Z</time>
      </trkpt>
      <trkpt lat="46.60585" lon="3.82577">
        <ele>268.7</ele>
        <time>2018-03-25T06:50:07Z</time>
      </trkpt>
      <trkpt lat="46.60591" lon="3.82566">
        <ele>267.5</ele>
        <time>2018-03-25T06:50:08Z</time>
      </trkpt>
      <trkpt lat="46.60596" lon="3.82554">
        <ele>266.7</ele>
        <time>2018-03-25T06:50:09Z</time>
      </trkpt>
      <trkpt lat="46.60601" lon="3.82542">
        <ele>265.8</ele>
        <time>2018-03-25T06:50:10Z</time>
      </trkpt>
      <trkpt lat="46.60607" lon="3.8253">
        <ele>265.2</ele>
        <time>2018-03-25T06:50:11Z</time>
      </trkpt>
      <trkpt lat="46.60613" lon="3.82518">
        <ele>264.7</ele>
        <time>2018-03-25T06:50:12Z</time>
      </trkpt>
      <trkpt lat="46.6062" lon="3.82507">
        <ele>264.1</ele>
        <time>2018-03-25T06:50:13Z</time>
      </trkpt>
      <trkpt lat="46.60627" lon="3.82496">
        <ele>263.6</ele>
        <time>2018-03-25T06:50:14Z</time>
      </trkpt>
      <trkpt lat="46.60635" lon="3.82486">
        <ele>262.6</ele>
        <time>2018-03-25T06:50:15Z</time>
      </trkpt>
      <trkpt lat="46.60643" lon="3.82476">
        <ele>261.9</ele>
        <time>2018-03-25T06:50:16Z</time>
      </trkpt>
      <trkpt lat="46.60651" lon="3.82466">
        <ele>261.7</ele>
        <time>2018-03-25T06:50:17Z</time>
      </trkpt>
      <trkpt lat="46.60658" lon="3.82456">
        <ele>261.5</ele>
        <time>2018-03-25T06:50:18Z</time>
      </trkpt>
      <trkpt lat="46.60665" lon="3.82447">
        <ele>261.4</ele>
        <time>2018-03-25T06:50:19Z</time>
      </trkpt>
      <trkpt lat="46.60672" lon="3.8244">
        <ele>260.3</ele>
        <time>2018-03-25T06:50:20Z</time>
      </trkpt>
      <trkpt lat="46.60679" lon="3.82436">
        <ele>259.4</ele>
        <time>2018-03-25T06:50:21Z</time>
      </trkpt>
      <trkpt lat="46.60685" lon="3.82436">
        <ele>258.2</ele>
        <time>2018-03-25T06:50:22Z</time>
      </trkpt>
      <trkpt lat="46.60691" lon="3.82443">
        <ele>256.7</ele>
        <time>2018-03-25T06:50:24Z</time>
      </trkpt>
      <trkpt lat="46.60696" lon="3.82452">
        <ele>256.5</ele>
        <time>2018-03-25T06:50:27Z</time>
      </trkpt>
      <trkpt lat="46.607" lon="3.82459">
        <ele>257.4</ele>
        <time>2018-03-25T06:50:30Z</time>
      </trkpt>
      <trkpt lat="46.60706" lon="3.82468">
        <ele>257.5</ele>
        <time>2018-03-25T06:50:33Z</time>
      </trkpt>
      <trkpt lat="46.60711" lon="3.82475">
        <ele>258.3</ele>
        <time>2018-03-25T06:50:35Z</time>
      </trkpt>
      <trkpt lat="46.60715" lon="3.82484">
        <ele>258.6</ele>
        <time>2018-03-25T06:50:37Z</time>
      </trkpt>
      <trkpt lat="46.6072" lon="3.82492">
        <ele>258.4</ele>
        <time>2018-03-25T06:50:39Z</time>
      </trkpt>
      <trkpt lat="46.60724" lon="3.82501">
        <ele>258.4</ele>
        <time>2018-03-25T06:50:41Z</time>
      </trkpt>
      <trkpt lat="46.60729" lon="3.8251">
        <ele>258.4</ele>
        <time>2018-03-25T06:50:43Z</time>
      </trkpt>
      <trkpt lat="46.60735" lon="3.82519">
        <ele>259</ele>
        <time>2018-03-25T06:50:45Z</time>
      </trkpt>
      <trkpt lat="46.60741" lon="3.82527">
        <ele>258.9</ele>
        <time>2018-03-25T06:50:47Z</time>
      </trkpt>
      <trkpt lat="46.60747" lon="3.82533">
        <ele>258.8</ele>
        <time>2018-03-25T06:50:49Z</time>
      </trkpt>
      <trkpt lat="46.60754" lon="3.82538">
        <ele>258.9</ele>
        <time>2018-03-25T06:50:51Z</time>
      </trkpt>
      <trkpt lat="46.60761" lon="3.82543">
        <ele>259</ele>
        <time>2018-03-25T06:50:53Z</time>
      </trkpt>
      <trkpt lat="46.60767" lon="3.82547">
        <ele>259.1</ele>
        <time>2018-03-25T06:50:55Z</time>
      </trkpt>
      <trkpt lat="46.60775" lon="3.82553">
        <ele>259.7</ele>
        <time>2018-03-25T06:50:58Z</time>
      </trkpt>
      <trkpt lat="46.60783" lon="3.82558">
        <ele>260.5</ele>
        <time>2018-03-25T06:51:01Z</time>
      </trkpt>
      <trkpt lat="46.60791" lon="3.82564">
        <ele>260.6</ele>
        <time>2018-03-25T06:51:04Z</time>
      </trkpt>
      <trkpt lat="46.60798" lon="3.8257">
        <ele>261.2</ele>
        <time>2018-03-25T06:51:07Z</time>
      </trkpt>
      <trkpt lat="46.60804" lon="3.82574">
        <ele>261.4</ele>
        <time>2018-03-25T06:51:09Z</time>
      </trkpt>
      <trkpt lat="46.60809" lon="3.82578">
        <ele>261.8</ele>
        <time>2018-03-25T06:51:11Z</time>
      </trkpt>
      <trkpt lat="46.60817" lon="3.82584">
        <ele>262</ele>
        <time>2018-03-25T06:51:14Z</time>
      </trkpt>
      <trkpt lat="46.6082" lon="3.82586">
        <ele>262.3</ele>
        <time>2018-03-25T06:51:15Z</time>
      </trkpt>
      <trkpt lat="46.60828" lon="3.82593">
        <ele>263</ele>
        <time>2018-03-25T06:51:18Z</time>
      </trkpt>
      <trkpt lat="46.60836" lon="3.82599">
        <ele>263.5</ele>
        <time>2018-03-25T06:51:21Z</time>
      </trkpt>
      <trkpt lat="46.60844" lon="3.82605">
        <ele>264.8</ele>
        <time>2018-03-25T06:51:24Z</time>
      </trkpt>
      <trkpt lat="46.60852" lon="3.82612">
        <ele>265.8</ele>
        <time>2018-03-25T06:51:27Z</time>
      </trkpt>
      <trkpt lat="46.60857" lon="3.82616">
        <ele>266.2</ele>
        <time>2018-03-25T06:51:29Z</time>
      </trkpt>
      <trkpt lat="46.60865" lon="3.82623">
        <ele>266.9</ele>
        <time>2018-03-25T06:51:32Z</time>
      </trkpt>
      <trkpt lat="46.6087" lon="3.82628">
        <ele>267</ele>
        <time>2018-03-25T06:51:34Z</time>
      </trkpt>
      <trkpt lat="46.60875" lon="3.82633">
        <ele>267.1</ele>
        <time>2018-03-25T06:51:36Z</time>
      </trkpt>
      <trkpt lat="46.60882" lon="3.8264">
        <ele>267</ele>
        <time>2018-03-25T06:51:39Z</time>
      </trkpt>
      <trkpt lat="46.60887" lon="3.82645">
        <ele>267.6</ele>
        <time>2018-03-25T06:51:41Z</time>
      </trkpt>
      <trkpt lat="46.60892" lon="3.8265">
        <ele>267.9</ele>
        <time>2018-03-25T06:51:43Z</time>
      </trkpt>
      <trkpt lat="46.60898" lon="3.82655">
        <ele>267.7</ele>
        <time>2018-03-25T06:51:45Z</time>
      </trkpt>
      <trkpt lat="46.60903" lon="3.82661">
        <ele>267.4</ele>
        <time>2018-03-25T06:51:47Z</time>
      </trkpt>
      <trkpt lat="46.60908" lon="3.82666">
        <ele>268</ele>
        <time>2018-03-25T06:51:49Z</time>
      </trkpt>
      <trkpt lat="46.60913" lon="3.82672">
        <ele>268.7</ele>
        <time>2018-03-25T06:51:51Z</time>
      </trkpt>
      <trkpt lat="46.60918" lon="3.82678">
        <ele>268.8</ele>
        <time>2018-03-25T06:51:53Z</time>
      </trkpt>
      <trkpt lat="46.60923" lon="3.82683">
        <ele>268.8</ele>
        <time>2018-03-25T06:51:55Z</time>
      </trkpt>
      <trkpt lat="46.60929" lon="3.82689">
        <ele>268.7</ele>
        <time>2018-03-25T06:51:57Z</time>
      </trkpt>
      <trkpt lat="46.60934" lon="3.82694">
        <ele>268.4</ele>
        <time>2018-03-25T06:51:59Z</time>
      </trkpt>
      <trkpt lat="46.60939" lon="3.827">
        <ele>268.5</ele>
        <time>2018-03-25T06:52:01Z</time>
      </trkpt>
      <trkpt lat="46.60945" lon="3.82703">
        <ele>268.7</ele>
        <time>2018-03-25T06:52:03Z</time>
      </trkpt>
      <trkpt lat="46.60951" lon="3.82707">
        <ele>269</ele>
        <time>2018-03-25T06:52:05Z</time>
      </trkpt>
      <trkpt lat="46.60957" lon="3.8271">
        <ele>269.3</ele>
        <time>2018-03-25T06:52:07Z</time>
      </trkpt>
      <trkpt lat="46.60964" lon="3.82712">
        <ele>269.6</ele>
        <time>2018-03-25T06:52:09Z</time>
      </trkpt>
      <trkpt lat="46.60971" lon="3.82712">
        <ele>269.8</ele>
        <time>2018-03-25T06:52:11Z</time>
      </trkpt>
      <trkpt lat="46.60978" lon="3.82712">
        <ele>270.1</ele>
        <time>2018-03-25T06:52:13Z</time>
      </trkpt>
      <trkpt lat="46.60986" lon="3.8271">
        <ele>270.2</ele>
        <time>2018-03-25T06:52:15Z</time>
      </trkpt>
      <trkpt lat="46.6099" lon="3.8271">
        <ele>270.3</ele>
        <time>2018-03-25T06:52:16Z</time>
      </trkpt>
      <trkpt lat="46.61001" lon="3.82707">
        <ele>270.1</ele>
        <time>2018-03-25T06:52:19Z</time>
      </trkpt>
      <trkpt lat="46.61009" lon="3.82705">
        <ele>270.1</ele>
        <time>2018-03-25T06:52:21Z</time>
      </trkpt>
      <trkpt lat="46.61016" lon="3.82703">
        <ele>270.2</ele>
        <time>2018-03-25T06:52:23Z</time>
      </trkpt>
      <trkpt lat="46.61024" lon="3.82701">
        <ele>269.7</ele>
        <time>2018-03-25T06:52:25Z</time>
      </trkpt>
      <trkpt lat="46.61032" lon="3.82699">
        <ele>270.1</ele>
        <time>2018-03-25T06:52:27Z</time>
      </trkpt>
      <trkpt lat="46.6104" lon="3.82697">
        <ele>270.2</ele>
        <time>2018-03-25T06:52:29Z</time>
      </trkpt>
      <trkpt lat="46.61048" lon="3.82695">
        <ele>270.3</ele>
        <time>2018-03-25T06:52:31Z</time>
      </trkpt>
      <trkpt lat="46.61056" lon="3.82692">
        <ele>270.3</ele>
        <time>2018-03-25T06:52:33Z</time>
      </trkpt>
      <trkpt lat="46.61063" lon="3.8269">
        <ele>270</ele>
        <time>2018-03-25T06:52:35Z</time>
      </trkpt>
      <trkpt lat="46.61071" lon="3.82688">
        <ele>269.9</ele>
        <time>2018-03-25T06:52:37Z</time>
      </trkpt>
      <trkpt lat="46.61079" lon="3.82686">
        <ele>270.4</ele>
        <time>2018-03-25T06:52:39Z</time>
      </trkpt>
      <trkpt lat="46.61087" lon="3.82684">
        <ele>270.3</ele>
        <time>2018-03-25T06:52:41Z</time>
      </trkpt>
      <trkpt lat="46.61095" lon="3.82682">
        <ele>270.5</ele>
        <time>2018-03-25T06:52:43Z</time>
      </trkpt>
      <trkpt lat="46.61103" lon="3.8268">
        <ele>270.7</ele>
        <time>2018-03-25T06:52:45Z</time>
      </trkpt>
      <trkpt lat="46.61111" lon="3.82678">
        <ele>270.7</ele>
        <time>2018-03-25T06:52:47Z</time>
      </trkpt>
      <trkpt lat="46.61119" lon="3.82677">
        <ele>271.1</ele>
        <time>2018-03-25T06:52:49Z</time>
      </trkpt>
      <trkpt lat="46.61127" lon="3.82676">
        <ele>271.2</ele>
        <time>2018-03-25T06:52:51Z</time>
      </trkpt>
      <trkpt lat="46.61135" lon="3.82676">
        <ele>271</ele>
        <time>2018-03-25T06:52:53Z</time>
      </trkpt>
      <trkpt lat="46.61143" lon="3.82676">
        <ele>270.9</ele>
        <time>2018-03-25T06:52:55Z</time>
      </trkpt>
      <trkpt lat="46.6115" lon="3.82677">
        <ele>270.9</ele>
        <time>2018-03-25T06:52:57Z</time>
      </trkpt>
      <trkpt lat="46.61158" lon="3.82678">
        <ele>270.9</ele>
        <time>2018-03-25T06:52:59Z</time>
      </trkpt>
      <trkpt lat="46.61166" lon="3.8268">
        <ele>271</ele>
        <time>2018-03-25T06:53:01Z</time>
      </trkpt>
      <trkpt lat="46.61174" lon="3.82682">
        <ele>270.9</ele>
        <time>2018-03-25T06:53:03Z</time>
      </trkpt>
      <trkpt lat="46.61181" lon="3.82685">
        <ele>271.3</ele>
        <time>2018-03-25T06:53:05Z</time>
      </trkpt>
      <trkpt lat="46.61189" lon="3.82686">
        <ele>271.2</ele>
        <time>2018-03-25T06:53:07Z</time>
      </trkpt>
      <trkpt lat="46.61196" lon="3.82688">
        <ele>271.2</ele>
        <time>2018-03-25T06:53:09Z</time>
      </trkpt>
      <trkpt lat="46.61203" lon="3.82689">
        <ele>271.4</ele>
        <time>2018-03-25T06:53:11Z</time>
      </trkpt>
      <trkpt lat="46.6121" lon="3.82689">
        <ele>271.4</ele>
        <time>2018-03-25T06:53:13Z</time>
      </trkpt>
      <trkpt lat="46.61217" lon="3.82689">
        <ele>271.1</ele>
        <time>2018-03-25T06:53:15Z</time>
      </trkpt>
      <trkpt lat="46.61225" lon="3.82683">
        <ele>270.7</ele>
        <time>2018-03-25T06:53:18Z</time>
      </trkpt>
      <trkpt lat="46.61226" lon="3.82679">
        <ele>271.1</ele>
        <time>2018-03-25T06:53:19Z</time>
      </trkpt>
      <trkpt lat="46.61228" lon="3.82665">
        <ele>271.2</ele>
        <time>2018-03-25T06:53:22Z</time>
      </trkpt>
      <trkpt lat="46.61228" lon="3.82655">
        <ele>271.8</ele>
        <time>2018-03-25T06:53:24Z</time>
      </trkpt>
      <trkpt lat="46.61229" lon="3.82645">
        <ele>271.8</ele>
        <time>2018-03-25T06:53:26Z</time>
      </trkpt>
      <trkpt lat="46.61229" lon="3.82634">
        <ele>271.5</ele>
        <time>2018-03-25T06:53:28Z</time>
      </trkpt>
      <trkpt lat="46.61229" lon="3.82624">
        <ele>271.7</ele>
        <time>2018-03-25T06:53:30Z</time>
      </trkpt>
      <trkpt lat="46.61229" lon="3.82613">
        <ele>272.1</ele>
        <time>2018-03-25T06:53:32Z</time>
      </trkpt>
      <trkpt lat="46.61229" lon="3.82603">
        <ele>272</ele>
        <time>2018-03-25T06:53:34Z</time>
      </trkpt>
      <trkpt lat="46.6123" lon="3.82592">
        <ele>272.2</ele>
        <time>2018-03-25T06:53:36Z</time>
      </trkpt>
      <trkpt lat="46.6123" lon="3.82582">
        <ele>272.3</ele>
        <time>2018-03-25T06:53:38Z</time>
      </trkpt>
      <trkpt lat="46.6123" lon="3.82572">
        <ele>272.5</ele>
        <time>2018-03-25T06:53:40Z</time>
      </trkpt>
      <trkpt lat="46.6123" lon="3.82561">
        <ele>272.4</ele>
        <time>2018-03-25T06:53:42Z</time>
      </trkpt>
      <trkpt lat="46.6123" lon="3.8255">
        <ele>272.2</ele>
        <time>2018-03-25T06:53:44Z</time>
      </trkpt>
      <trkpt lat="46.6123" lon="3.82539">
        <ele>272.9</ele>
        <time>2018-03-25T06:53:46Z</time>
      </trkpt>
      <trkpt lat="46.61229" lon="3.82527">
        <ele>272.8</ele>
        <time>2018-03-25T06:53:48Z</time>
      </trkpt>
      <trkpt lat="46.61229" lon="3.82516">
        <ele>272.7</ele>
        <time>2018-03-25T06:53:50Z</time>
      </trkpt>
      <trkpt lat="46.61228" lon="3.82505">
        <ele>272.9</ele>
        <time>2018-03-25T06:53:52Z</time>
      </trkpt>
      <trkpt lat="46.61228" lon="3.82494">
        <ele>272.8</ele>
        <time>2018-03-25T06:53:54Z</time>
      </trkpt>
      <trkpt lat="46.61226" lon="3.82483">
        <ele>272.5</ele>
        <time>2018-03-25T06:53:56Z</time>
      </trkpt>
      <trkpt lat="46.61225" lon="3.82472">
        <ele>272.5</ele>
        <time>2018-03-25T06:53:58Z</time>
      </trkpt>
      <trkpt lat="46.61224" lon="3.82461">
        <ele>271.9</ele>
        <time>2018-03-25T06:54:00Z</time>
      </trkpt>
      <trkpt lat="46.61222" lon="3.8245">
        <ele>272.1</ele>
        <time>2018-03-25T06:54:02Z</time>
      </trkpt>
      <trkpt lat="46.61219" lon="3.82438">
        <ele>272.2</ele>
        <time>2018-03-25T06:54:04Z</time>
      </trkpt>
      <trkpt lat="46.61217" lon="3.82427">
        <ele>272.6</ele>
        <time>2018-03-25T06:54:06Z</time>
      </trkpt>
      <trkpt lat="46.61214" lon="3.82415">
        <ele>273</ele>
        <time>2018-03-25T06:54:08Z</time>
      </trkpt>
      <trkpt lat="46.61211" lon="3.82404">
        <ele>272.8</ele>
        <time>2018-03-25T06:54:10Z</time>
      </trkpt>
      <trkpt lat="46.61208" lon="3.82392">
        <ele>272.7</ele>
        <time>2018-03-25T06:54:12Z</time>
      </trkpt>
      <trkpt lat="46.61206" lon="3.82386">
        <ele>272.6</ele>
        <time>2018-03-25T06:54:13Z</time>
      </trkpt>
      <trkpt lat="46.61204" lon="3.8238">
        <ele>272.5</ele>
        <time>2018-03-25T06:54:14Z</time>
      </trkpt>
      <trkpt lat="46.61202" lon="3.82373">
        <ele>272.4</ele>
        <time>2018-03-25T06:54:15Z</time>
      </trkpt>
      <trkpt lat="46.61201" lon="3.82367">
        <ele>272.7</ele>
        <time>2018-03-25T06:54:16Z</time>
      </trkpt>
      <trkpt lat="46.61199" lon="3.82361">
        <ele>272.9</ele>
        <time>2018-03-25T06:54:17Z</time>
      </trkpt>
      <trkpt lat="46.61198" lon="3.82354">
        <ele>272.3</ele>
        <time>2018-03-25T06:54:18Z</time>
      </trkpt>
      <trkpt lat="46.61197" lon="3.82348">
        <ele>271.9</ele>
        <time>2018-03-25T06:54:19Z</time>
      </trkpt>
      <trkpt lat="46.61195" lon="3.82342">
        <ele>272.2</ele>
        <time>2018-03-25T06:54:20Z</time>
      </trkpt>
      <trkpt lat="46.61194" lon="3.82335">
        <ele>272.4</ele>
        <time>2018-03-25T06:54:21Z</time>
      </trkpt>
      <trkpt lat="46.61193" lon="3.82329">
        <ele>272.5</ele>
        <time>2018-03-25T06:54:22Z</time>
      </trkpt>
      <trkpt lat="46.61192" lon="3.82322">
        <ele>272.5</ele>
        <time>2018-03-25T06:54:23Z</time>
      </trkpt>
      <trkpt lat="46.6119" lon="3.8231">
        <ele>272.3</ele>
        <time>2018-03-25T06:54:25Z</time>
      </trkpt>
      <trkpt lat="46.61188" lon="3.82297">
        <ele>272.2</ele>
        <time>2018-03-25T06:54:27Z</time>
      </trkpt>
      <trkpt lat="46.61186" lon="3.82285">
        <ele>272.5</ele>
        <time>2018-03-25T06:54:29Z</time>
      </trkpt>
      <trkpt lat="46.61184" lon="3.82273">
        <ele>272.4</ele>
        <time>2018-03-25T06:54:31Z</time>
      </trkpt>
      <trkpt lat="46.61182" lon="3.82261">
        <ele>272.1</ele>
        <time>2018-03-25T06:54:33Z</time>
      </trkpt>
      <trkpt lat="46.61181" lon="3.82249">
        <ele>271.7</ele>
        <time>2018-03-25T06:54:35Z</time>
      </trkpt>
      <trkpt lat="46.6118" lon="3.82237">
        <ele>271.6</ele>
        <time>2018-03-25T06:54:37Z</time>
      </trkpt>
      <trkpt lat="46.61179" lon="3.82226">
        <ele>271.6</ele>
        <time>2018-03-25T06:54:39Z</time>
      </trkpt>
      <trkpt lat="46.61178" lon="3.82214">
        <ele>271.6</ele>
        <time>2018-03-25T06:54:41Z</time>
      </trkpt>
      <trkpt lat="46.61178" lon="3.82203">
        <ele>272.4</ele>
        <time>2018-03-25T06:54:43Z</time>
      </trkpt>
      <trkpt lat="46.61177" lon="3.82191">
        <ele>272</ele>
        <time>2018-03-25T06:54:45Z</time>
      </trkpt>
      <trkpt lat="46.61176" lon="3.8218">
        <ele>272.2</ele>
        <time>2018-03-25T06:54:47Z</time>
      </trkpt>
      <trkpt lat="46.61176" lon="3.8217">
        <ele>272.5</ele>
        <time>2018-03-25T06:54:49Z</time>
      </trkpt>
      <trkpt lat="46.61175" lon="3.82159">
        <ele>272.7</ele>
        <time>2018-03-25T06:54:51Z</time>
      </trkpt>
      <trkpt lat="46.61175" lon="3.82149">
        <ele>273</ele>
        <time>2018-03-25T06:54:53Z</time>
      </trkpt>
      <trkpt lat="46.61175" lon="3.82139">
        <ele>273.8</ele>
        <time>2018-03-25T06:54:55Z</time>
      </trkpt>
      <trkpt lat="46.61174" lon="3.82129">
        <ele>274.3</ele>
        <time>2018-03-25T06:54:57Z</time>
      </trkpt>
      <trkpt lat="46.61174" lon="3.82118">
        <ele>274.9</ele>
        <time>2018-03-25T06:54:59Z</time>
      </trkpt>
      <trkpt lat="46.61174" lon="3.82108">
        <ele>275.3</ele>
        <time>2018-03-25T06:55:01Z</time>
      </trkpt>
      <trkpt lat="46.61175" lon="3.82099">
        <ele>275.6</ele>
        <time>2018-03-25T06:55:03Z</time>
      </trkpt>
      <trkpt lat="46.61175" lon="3.8209">
        <ele>275.9</ele>
        <time>2018-03-25T06:55:05Z</time>
      </trkpt>
      <trkpt lat="46.61176" lon="3.82081">
        <ele>276</ele>
        <time>2018-03-25T06:55:07Z</time>
      </trkpt>
      <trkpt lat="46.61176" lon="3.82072">
        <ele>277.2</ele>
        <time>2018-03-25T06:55:09Z</time>
      </trkpt>
      <trkpt lat="46.61176" lon="3.82063">
        <ele>277.7</ele>
        <time>2018-03-25T06:55:11Z</time>
      </trkpt>
      <trkpt lat="46.61177" lon="3.82054">
        <ele>278.4</ele>
        <time>2018-03-25T06:55:13Z</time>
      </trkpt>
      <trkpt lat="46.61177" lon="3.82044">
        <ele>278.8</ele>
        <time>2018-03-25T06:55:15Z</time>
      </trkpt>
      <trkpt lat="46.61177" lon="3.82035">
        <ele>279</ele>
        <time>2018-03-25T06:55:17Z</time>
      </trkpt>
      <trkpt lat="46.61177" lon="3.82026">
        <ele>279.4</ele>
        <time>2018-03-25T06:55:19Z</time>
      </trkpt>
      <trkpt lat="46.61176" lon="3.82017">
        <ele>279.2</ele>
        <time>2018-03-25T06:55:21Z</time>
      </trkpt>
      <trkpt lat="46.61176" lon="3.82012">
        <ele>279.7</ele>
        <time>2018-03-25T06:55:22Z</time>
      </trkpt>
      <trkpt lat="46.61174" lon="3.81999">
        <ele>280.7</ele>
        <time>2018-03-25T06:55:25Z</time>
      </trkpt>
      <trkpt lat="46.61172" lon="3.81991">
        <ele>281.4</ele>
        <time>2018-03-25T06:55:27Z</time>
      </trkpt>
      <trkpt lat="46.6117" lon="3.81982">
        <ele>281.8</ele>
        <time>2018-03-25T06:55:29Z</time>
      </trkpt>
      <trkpt lat="46.61168" lon="3.81974">
        <ele>282</ele>
        <time>2018-03-25T06:55:31Z</time>
      </trkpt>
      <trkpt lat="46.61166" lon="3.81965">
        <ele>282.8</ele>
        <time>2018-03-25T06:55:33Z</time>
      </trkpt>
      <trkpt lat="46.61164" lon="3.81956">
        <ele>282.5</ele>
        <time>2018-03-25T06:55:35Z</time>
      </trkpt>
      <trkpt lat="46.61162" lon="3.81948">
        <ele>282.7</ele>
        <time>2018-03-25T06:55:37Z</time>
      </trkpt>
      <trkpt lat="46.61161" lon="3.81939">
        <ele>283.1</ele>
        <time>2018-03-25T06:55:39Z</time>
      </trkpt>
      <trkpt lat="46.6116" lon="3.8193">
        <ele>283.1</ele>
        <time>2018-03-25T06:55:41Z</time>
      </trkpt>
      <trkpt lat="46.61159" lon="3.81921">
        <ele>282.9</ele>
        <time>2018-03-25T06:55:43Z</time>
      </trkpt>
      <trkpt lat="46.61158" lon="3.81911">
        <ele>283.3</ele>
        <time>2018-03-25T06:55:45Z</time>
      </trkpt>
      <trkpt lat="46.61157" lon="3.81901">
        <ele>282.8</ele>
        <time>2018-03-25T06:55:47Z</time>
      </trkpt>
      <trkpt lat="46.61156" lon="3.81892">
        <ele>282.8</ele>
        <time>2018-03-25T06:55:49Z</time>
      </trkpt>
      <trkpt lat="46.61155" lon="3.81883">
        <ele>283.5</ele>
        <time>2018-03-25T06:55:51Z</time>
      </trkpt>
      <trkpt lat="46.61155" lon="3.81874">
        <ele>284.3</ele>
        <time>2018-03-25T06:55:53Z</time>
      </trkpt>
      <trkpt lat="46.61154" lon="3.81864">
        <ele>284.7</ele>
        <time>2018-03-25T06:55:55Z</time>
      </trkpt>
      <trkpt lat="46.61153" lon="3.81855">
        <ele>285.3</ele>
        <time>2018-03-25T06:55:57Z</time>
      </trkpt>
      <trkpt lat="46.61152" lon="3.81846">
        <ele>285.5</ele>
        <time>2018-03-25T06:55:59Z</time>
      </trkpt>
      <trkpt lat="46.61151" lon="3.81837">
        <ele>285.2</ele>
        <time>2018-03-25T06:56:01Z</time>
      </trkpt>
      <trkpt lat="46.61151" lon="3.81827">
        <ele>285.2</ele>
        <time>2018-03-25T06:56:03Z</time>
      </trkpt>
      <trkpt lat="46.6115" lon="3.81818">
        <ele>285.5</ele>
        <time>2018-03-25T06:56:05Z</time>
      </trkpt>
      <trkpt lat="46.61149" lon="3.81808">
        <ele>285.8</ele>
        <time>2018-03-25T06:56:07Z</time>
      </trkpt>
      <trkpt lat="46.61149" lon="3.81798">
        <ele>285.8</ele>
        <time>2018-03-25T06:56:09Z</time>
      </trkpt>
      <trkpt lat="46.61148" lon="3.81788">
        <ele>286</ele>
        <time>2018-03-25T06:56:11Z</time>
      </trkpt>
      <trkpt lat="46.61147" lon="3.81779">
        <ele>286.5</ele>
        <time>2018-03-25T06:56:13Z</time>
      </trkpt>
      <trkpt lat="46.61146" lon="3.81769">
        <ele>286.4</ele>
        <time>2018-03-25T06:56:15Z</time>
      </trkpt>
      <trkpt lat="46.61145" lon="3.8176">
        <ele>286.7</ele>
        <time>2018-03-25T06:56:17Z</time>
      </trkpt>
      <trkpt lat="46.61144" lon="3.8175">
        <ele>287.3</ele>
        <time>2018-03-25T06:56:19Z</time>
      </trkpt>
      <trkpt lat="46.61143" lon="3.81741">
        <ele>287.6</ele>
        <time>2018-03-25T06:56:21Z</time>
      </trkpt>
      <trkpt lat="46.61142" lon="3.81731">
        <ele>287.9</ele>
        <time>2018-03-25T06:56:23Z</time>
      </trkpt>
      <trkpt lat="46.61141" lon="3.81727">
        <ele>288.3</ele>
        <time>2018-03-25T06:56:24Z</time>
      </trkpt>
      <trkpt lat="46.6114" lon="3.81713">
        <ele>288.7</ele>
        <time>2018-03-25T06:56:27Z</time>
      </trkpt>
      <trkpt lat="46.61139" lon="3.81703">
        <ele>289</ele>
        <time>2018-03-25T06:56:29Z</time>
      </trkpt>
      <trkpt lat="46.61138" lon="3.81694">
        <ele>289.1</ele>
        <time>2018-03-25T06:56:31Z</time>
      </trkpt>
      <trkpt lat="46.61137" lon="3.81684">
        <ele>289</ele>
        <time>2018-03-25T06:56:33Z</time>
      </trkpt>
      <trkpt lat="46.61136" lon="3.81674">
        <ele>289.4</ele>
        <time>2018-03-25T06:56:35Z</time>
      </trkpt>
      <trkpt lat="46.61135" lon="3.81664">
        <ele>289.4</ele>
        <time>2018-03-25T06:56:37Z</time>
      </trkpt>
      <trkpt lat="46.61135" lon="3.81655">
        <ele>289.7</ele>
        <time>2018-03-25T06:56:39Z</time>
      </trkpt>
      <trkpt lat="46.61134" lon="3.81645">
        <ele>289.9</ele>
        <time>2018-03-25T06:56:41Z</time>
      </trkpt>
      <trkpt lat="46.61133" lon="3.81636">
        <ele>289.8</ele>
        <time>2018-03-25T06:56:43Z</time>
      </trkpt>
      <trkpt lat="46.61132" lon="3.81626">
        <ele>289.5</ele>
        <time>2018-03-25T06:56:45Z</time>
      </trkpt>
      <trkpt lat="46.61131" lon="3.81616">
        <ele>289.6</ele>
        <time>2018-03-25T06:56:47Z</time>
      </trkpt>
      <trkpt lat="46.61129" lon="3.81606">
        <ele>289.5</ele>
        <time>2018-03-25T06:56:49Z</time>
      </trkpt>
      <trkpt lat="46.61128" lon="3.81595">
        <ele>289.6</ele>
        <time>2018-03-25T06:56:51Z</time>
      </trkpt>
      <trkpt lat="46.61127" lon="3.81586">
        <ele>289.3</ele>
        <time>2018-03-25T06:56:53Z</time>
      </trkpt>
      <trkpt lat="46.61125" lon="3.81576">
        <ele>289</ele>
        <time>2018-03-25T06:56:55Z</time>
      </trkpt>
      <trkpt lat="46.61124" lon="3.81567">
        <ele>289</ele>
        <time>2018-03-25T06:56:57Z</time>
      </trkpt>
      <trkpt lat="46.61123" lon="3.81558">
        <ele>288.5</ele>
        <time>2018-03-25T06:56:59Z</time>
      </trkpt>
      <trkpt lat="46.61126" lon="3.81547">
        <ele>288.4</ele>
        <time>2018-03-25T06:57:02Z</time>
      </trkpt>
      <trkpt lat="46.61131" lon="3.81549">
        <ele>288.7</ele>
        <time>2018-03-25T06:57:04Z</time>
      </trkpt>
      <trkpt lat="46.61137" lon="3.81555">
        <ele>289.1</ele>
        <time>2018-03-25T06:57:06Z</time>
      </trkpt>
      <trkpt lat="46.61143" lon="3.81561">
        <ele>289.6</ele>
        <time>2018-03-25T06:57:08Z</time>
      </trkpt>
      <trkpt lat="46.61149" lon="3.81567">
        <ele>290.1</ele>
        <time>2018-03-25T06:57:10Z</time>
      </trkpt>
      <trkpt lat="46.61155" lon="3.81573">
        <ele>290.3</ele>
        <time>2018-03-25T06:57:12Z</time>
      </trkpt>
      <trkpt lat="46.6116" lon="3.81579">
        <ele>290.3</ele>
        <time>2018-03-25T06:57:14Z</time>
      </trkpt>
      <trkpt lat="46.61166" lon="3.81585">
        <ele>290.4</ele>
        <time>2018-03-25T06:57:16Z</time>
      </trkpt>
      <trkpt lat="46.61172" lon="3.81591">
        <ele>290.3</ele>
        <time>2018-03-25T06:57:18Z</time>
      </trkpt>
      <trkpt lat="46.61177" lon="3.81597">
        <ele>290.2</ele>
        <time>2018-03-25T06:57:20Z</time>
      </trkpt>
      <trkpt lat="46.61183" lon="3.81604">
        <ele>290.2</ele>
        <time>2018-03-25T06:57:22Z</time>
      </trkpt>
      <trkpt lat="46.61188" lon="3.81611">
        <ele>290.1</ele>
        <time>2018-03-25T06:57:24Z</time>
      </trkpt>
      <trkpt lat="46.61191" lon="3.81614">
        <ele>290.1</ele>
        <time>2018-03-25T06:57:25Z</time>
      </trkpt>
      <trkpt lat="46.61198" lon="3.81626">
        <ele>290.3</ele>
        <time>2018-03-25T06:57:28Z</time>
      </trkpt>
      <trkpt lat="46.61203" lon="3.81633">
        <ele>290.4</ele>
        <time>2018-03-25T06:57:30Z</time>
      </trkpt>
      <trkpt lat="46.61208" lon="3.81641">
        <ele>290.8</ele>
        <time>2018-03-25T06:57:32Z</time>
      </trkpt>
      <trkpt lat="46.61213" lon="3.81649">
        <ele>290.7</ele>
        <time>2018-03-25T06:57:34Z</time>
      </trkpt>
      <trkpt lat="46.61218" lon="3.81657">
        <ele>290.7</ele>
        <time>2018-03-25T06:57:36Z</time>
      </trkpt>
      <trkpt lat="46.61224" lon="3.81664">
        <ele>291.1</ele>
        <time>2018-03-25T06:57:38Z</time>
      </trkpt>
      <trkpt lat="46.6123" lon="3.81671">
        <ele>291.2</ele>
        <time>2018-03-25T06:57:40Z</time>
      </trkpt>
      <trkpt lat="46.61235" lon="3.81678">
        <ele>290.9</ele>
        <time>2018-03-25T06:57:42Z</time>
      </trkpt>
      <trkpt lat="46.61242" lon="3.81684">
        <ele>291</ele>
        <time>2018-03-25T06:57:44Z</time>
      </trkpt>
      <trkpt lat="46.61248" lon="3.8169">
        <ele>291.9</ele>
        <time>2018-03-25T06:57:46Z</time>
      </trkpt>
      <trkpt lat="46.61254" lon="3.81696">
        <ele>292.1</ele>
        <time>2018-03-25T06:57:48Z</time>
      </trkpt>
      <trkpt lat="46.61261" lon="3.81702">
        <ele>291.9</ele>
        <time>2018-03-25T06:57:50Z</time>
      </trkpt>
      <trkpt lat="46.61267" lon="3.81708">
        <ele>292</ele>
        <time>2018-03-25T06:57:52Z</time>
      </trkpt>
      <trkpt lat="46.61273" lon="3.81713">
        <ele>292.3</ele>
        <time>2018-03-25T06:57:54Z</time>
      </trkpt>
      <trkpt lat="46.61279" lon="3.81718">
        <ele>292.5</ele>
        <time>2018-03-25T06:57:56Z</time>
      </trkpt>
      <trkpt lat="46.61285" lon="3.81723">
        <ele>292.9</ele>
        <time>2018-03-25T06:57:58Z</time>
      </trkpt>
      <trkpt lat="46.61291" lon="3.81728">
        <ele>293.1</ele>
        <time>2018-03-25T06:58:00Z</time>
      </trkpt>
      <trkpt lat="46.61298" lon="3.81732">
        <ele>293.6</ele>
        <time>2018-03-25T06:58:02Z</time>
      </trkpt>
      <trkpt lat="46.61304" lon="3.81737">
        <ele>293.6</ele>
        <time>2018-03-25T06:58:04Z</time>
      </trkpt>
      <trkpt lat="46.61311" lon="3.81741">
        <ele>293.2</ele>
        <time>2018-03-25T06:58:06Z</time>
      </trkpt>
      <trkpt lat="46.61317" lon="3.81745">
        <ele>293.8</ele>
        <time>2018-03-25T06:58:08Z</time>
      </trkpt>
      <trkpt lat="46.61324" lon="3.81749">
        <ele>293.2</ele>
        <time>2018-03-25T06:58:10Z</time>
      </trkpt>
      <trkpt lat="46.6133" lon="3.81754">
        <ele>293.4</ele>
        <time>2018-03-25T06:58:12Z</time>
      </trkpt>
      <trkpt lat="46.61337" lon="3.81758">
        <ele>293.6</ele>
        <time>2018-03-25T06:58:14Z</time>
      </trkpt>
      <trkpt lat="46.61344" lon="3.81762">
        <ele>294.1</ele>
        <time>2018-03-25T06:58:16Z</time>
      </trkpt>
      <trkpt lat="46.6135" lon="3.81766">
        <ele>294.6</ele>
        <time>2018-03-25T06:58:18Z</time>
      </trkpt>
      <trkpt lat="46.61357" lon="3.8177">
        <ele>294.4</ele>
        <time>2018-03-25T06:58:20Z</time>
      </trkpt>
      <trkpt lat="46.61364" lon="3.81775">
        <ele>294.3</ele>
        <time>2018-03-25T06:58:22Z</time>
      </trkpt>
      <trkpt lat="46.6137" lon="3.81779">
        <ele>293.6</ele>
        <time>2018-03-25T06:58:24Z</time>
      </trkpt>
      <trkpt lat="46.61377" lon="3.81784">
        <ele>293.7</ele>
        <time>2018-03-25T06:58:26Z</time>
      </trkpt>
      <trkpt lat="46.61381" lon="3.81786">
        <ele>293.9</ele>
        <time>2018-03-25T06:58:27Z</time>
      </trkpt>
      <trkpt lat="46.61391" lon="3.81792">
        <ele>295</ele>
        <time>2018-03-25T06:58:30Z</time>
      </trkpt>
      <trkpt lat="46.61398" lon="3.81796">
        <ele>294.9</ele>
        <time>2018-03-25T06:58:32Z</time>
      </trkpt>
      <trkpt lat="46.61405" lon="3.818">
        <ele>294.8</ele>
        <time>2018-03-25T06:58:34Z</time>
      </trkpt>
      <trkpt lat="46.61411" lon="3.81805">
        <ele>295.6</ele>
        <time>2018-03-25T06:58:36Z</time>
      </trkpt>
      <trkpt lat="46.61418" lon="3.81809">
        <ele>295.4</ele>
        <time>2018-03-25T06:58:38Z</time>
      </trkpt>
      <trkpt lat="46.61425" lon="3.81813">
        <ele>294.6</ele>
        <time>2018-03-25T06:58:40Z</time>
      </trkpt>
      <trkpt lat="46.61432" lon="3.81817">
        <ele>294.6</ele>
        <time>2018-03-25T06:58:42Z</time>
      </trkpt>
      <trkpt lat="46.61438" lon="3.81821">
        <ele>295.1</ele>
        <time>2018-03-25T06:58:44Z</time>
      </trkpt>
      <trkpt lat="46.61445" lon="3.81826">
        <ele>295.5</ele>
        <time>2018-03-25T06:58:46Z</time>
      </trkpt>
      <trkpt lat="46.61451" lon="3.8183">
        <ele>295.5</ele>
        <time>2018-03-25T06:58:48Z</time>
      </trkpt>
      <trkpt lat="46.61457" lon="3.81834">
        <ele>295.3</ele>
        <time>2018-03-25T06:58:50Z</time>
      </trkpt>
      <trkpt lat="46.61464" lon="3.81838">
        <ele>295.5</ele>
        <time>2018-03-25T06:58:52Z</time>
      </trkpt>
      <trkpt lat="46.6147" lon="3.81842">
        <ele>295.8</ele>
        <time>2018-03-25T06:58:54Z</time>
      </trkpt>
      <trkpt lat="46.61476" lon="3.81846">
        <ele>295.9</ele>
        <time>2018-03-25T06:58:56Z</time>
      </trkpt>
      <trkpt lat="46.61482" lon="3.81849">
        <ele>296.6</ele>
        <time>2018-03-25T06:58:58Z</time>
      </trkpt>
      <trkpt lat="46.61488" lon="3.81853">
        <ele>296.4</ele>
        <time>2018-03-25T06:59:00Z</time>
      </trkpt>
      <trkpt lat="46.61494" lon="3.81857">
        <ele>296.7</ele>
        <time>2018-03-25T06:59:02Z</time>
      </trkpt>
      <trkpt lat="46.615" lon="3.8186">
        <ele>297</ele>
        <time>2018-03-25T06:59:04Z</time>
      </trkpt>
      <trkpt lat="46.61506" lon="3.81863">
        <ele>297.1</ele>
        <time>2018-03-25T06:59:06Z</time>
      </trkpt>
      <trkpt lat="46.61512" lon="3.81866">
        <ele>297</ele>
        <time>2018-03-25T06:59:08Z</time>
      </trkpt>
      <trkpt lat="46.61518" lon="3.81869">
        <ele>297.6</ele>
        <time>2018-03-25T06:59:10Z</time>
      </trkpt>
      <trkpt lat="46.61525" lon="3.81871">
        <ele>298.5</ele>
        <time>2018-03-25T06:59:12Z</time>
      </trkpt>
      <trkpt lat="46.61531" lon="3.81872">
        <ele>299.1</ele>
        <time>2018-03-25T06:59:14Z</time>
      </trkpt>
      <trkpt lat="46.61539" lon="3.81872">
        <ele>299</ele>
        <time>2018-03-25T06:59:17Z</time>
      </trkpt>
      <trkpt lat="46.61548" lon="3.81874">
        <ele>298.9</ele>
        <time>2018-03-25T06:59:20Z</time>
      </trkpt>
      <trkpt lat="46.61554" lon="3.81876">
        <ele>298.7</ele>
        <time>2018-03-25T06:59:22Z</time>
      </trkpt>
      <trkpt lat="46.61563" lon="3.81878">
        <ele>299.6</ele>
        <time>2018-03-25T06:59:25Z</time>
      </trkpt>
      <trkpt lat="46.61571" lon="3.8188">
        <ele>300.3</ele>
        <time>2018-03-25T06:59:28Z</time>
      </trkpt>
      <trkpt lat="46.61574" lon="3.81881">
        <ele>300.1</ele>
        <time>2018-03-25T06:59:29Z</time>
      </trkpt>
      <trkpt lat="46.61589" lon="3.81884">
        <ele>300.3</ele>
        <time>2018-03-25T06:59:34Z</time>
      </trkpt>
      <trkpt lat="46.61597" lon="3.81886">
        <ele>301</ele>
        <time>2018-03-25T06:59:37Z</time>
      </trkpt>
      <trkpt lat="46.61603" lon="3.81888">
        <ele>301.4</ele>
        <time>2018-03-25T06:59:39Z</time>
      </trkpt>
      <trkpt lat="46.61609" lon="3.81889">
        <ele>301.5</ele>
        <time>2018-03-25T06:59:41Z</time>
      </trkpt>
      <trkpt lat="46.61618" lon="3.81891">
        <ele>301.1</ele>
        <time>2018-03-25T06:59:44Z</time>
      </trkpt>
      <trkpt lat="46.61624" lon="3.81893">
        <ele>300.9</ele>
        <time>2018-03-25T06:59:46Z</time>
      </trkpt>
      <trkpt lat="46.6163" lon="3.81894">
        <ele>301.8</ele>
        <time>2018-03-25T06:59:48Z</time>
      </trkpt>
      <trkpt lat="46.61636" lon="3.81896">
        <ele>301.6</ele>
        <time>2018-03-25T06:59:50Z</time>
      </trkpt>
      <trkpt lat="46.61642" lon="3.81898">
        <ele>302</ele>
        <time>2018-03-25T06:59:52Z</time>
      </trkpt>
      <trkpt lat="46.61648" lon="3.81899">
        <ele>302</ele>
        <time>2018-03-25T06:59:54Z</time>
      </trkpt>
      <trkpt lat="46.61654" lon="3.81901">
        <ele>302</ele>
        <time>2018-03-25T06:59:56Z</time>
      </trkpt>
      <trkpt lat="46.61661" lon="3.81902">
        <ele>302.1</ele>
        <time>2018-03-25T06:59:58Z</time>
      </trkpt>
      <trkpt lat="46.61667" lon="3.81903">
        <ele>302.3</ele>
        <time>2018-03-25T07:00:00Z</time>
      </trkpt>
      <trkpt lat="46.61673" lon="3.81904">
        <ele>303.3</ele>
        <time>2018-03-25T07:00:02Z</time>
      </trkpt>
      <trkpt lat="46.61679" lon="3.81905">
        <ele>302.3</ele>
        <time>2018-03-25T07:00:04Z</time>
      </trkpt>
      <trkpt lat="46.61685" lon="3.81906">
        <ele>302.2</ele>
        <time>2018-03-25T07:00:06Z</time>
      </trkpt>
      <trkpt lat="46.61694" lon="3.81908">
        <ele>302.1</ele>
        <time>2018-03-25T07:00:09Z</time>
      </trkpt>
      <trkpt lat="46.617" lon="3.81908">
        <ele>302.1</ele>
        <time>2018-03-25T07:00:11Z</time>
      </trkpt>
      <trkpt lat="46.61706" lon="3.81909">
        <ele>302.1</ele>
        <time>2018-03-25T07:00:13Z</time>
      </trkpt>
      <trkpt lat="46.61715" lon="3.81911">
        <ele>301.9</ele>
        <time>2018-03-25T07:00:16Z</time>
      </trkpt>
      <trkpt lat="46.61721" lon="3.81911">
        <ele>301.9</ele>
        <time>2018-03-25T07:00:18Z</time>
      </trkpt>
      <trkpt lat="46.61727" lon="3.81912">
        <ele>301.6</ele>
        <time>2018-03-25T07:00:20Z</time>
      </trkpt>
      <trkpt lat="46.61734" lon="3.81913">
        <ele>301.3</ele>
        <time>2018-03-25T07:00:22Z</time>
      </trkpt>
      <trkpt lat="46.6174" lon="3.81915">
        <ele>301.3</ele>
        <time>2018-03-25T07:00:24Z</time>
      </trkpt>
      <trkpt lat="46.61747" lon="3.81916">
        <ele>301.2</ele>
        <time>2018-03-25T07:00:26Z</time>
      </trkpt>
      <trkpt lat="46.61754" lon="3.81917">
        <ele>301.6</ele>
        <time>2018-03-25T07:00:28Z</time>
      </trkpt>
      <trkpt lat="46.6176" lon="3.8192">
        <ele>301.6</ele>
        <time>2018-03-25T07:00:30Z</time>
      </trkpt>
      <trkpt lat="46.61764" lon="3.81921">
        <ele>301.5</ele>
        <time>2018-03-25T07:00:31Z</time>
      </trkpt>
      <trkpt lat="46.61774" lon="3.81923">
        <ele>301.6</ele>
        <time>2018-03-25T07:00:34Z</time>
      </trkpt>
      <trkpt lat="46.61781" lon="3.81924">
        <ele>301.5</ele>
        <time>2018-03-25T07:00:36Z</time>
      </trkpt>
      <trkpt lat="46.61789" lon="3.81926">
        <ele>301.1</ele>
        <time>2018-03-25T07:00:38Z</time>
      </trkpt>
      <trkpt lat="46.61796" lon="3.81927">
        <ele>301</ele>
        <time>2018-03-25T07:00:40Z</time>
      </trkpt>
      <trkpt lat="46.61804" lon="3.81928">
        <ele>301.1</ele>
        <time>2018-03-25T07:00:42Z</time>
      </trkpt>
      <trkpt lat="46.61811" lon="3.81929">
        <ele>301</ele>
        <time>2018-03-25T07:00:44Z</time>
      </trkpt>
      <trkpt lat="46.61818" lon="3.8193">
        <ele>301.2</ele>
        <time>2018-03-25T07:00:46Z</time>
      </trkpt>
      <trkpt lat="46.61825" lon="3.8193">
        <ele>301.6</ele>
        <time>2018-03-25T07:00:48Z</time>
      </trkpt>
      <trkpt lat="46.61832" lon="3.8193">
        <ele>300.6</ele>
        <time>2018-03-25T07:00:50Z</time>
      </trkpt>
      <trkpt lat="46.6184" lon="3.81929">
        <ele>300.6</ele>
        <time>2018-03-25T07:00:52Z</time>
      </trkpt>
      <trkpt lat="46.61847" lon="3.81927">
        <ele>301.2</ele>
        <time>2018-03-25T07:00:54Z</time>
      </trkpt>
      <trkpt lat="46.61854" lon="3.81925">
        <ele>301.2</ele>
        <time>2018-03-25T07:00:56Z</time>
      </trkpt>
      <trkpt lat="46.61861" lon="3.81923">
        <ele>300.8</ele>
        <time>2018-03-25T07:00:58Z</time>
      </trkpt>
      <trkpt lat="46.61869" lon="3.8192">
        <ele>300.6</ele>
        <time>2018-03-25T07:01:00Z</time>
      </trkpt>
      <trkpt lat="46.61876" lon="3.81917">
        <ele>299.9</ele>
        <time>2018-03-25T07:01:02Z</time>
      </trkpt>
      <trkpt lat="46.61883" lon="3.81914">
        <ele>299.7</ele>
        <time>2018-03-25T07:01:04Z</time>
      </trkpt>
      <trkpt lat="46.6189" lon="3.81911">
        <ele>299</ele>
        <time>2018-03-25T07:01:06Z</time>
      </trkpt>
      <trkpt lat="46.61897" lon="3.81907">
        <ele>299.2</ele>
        <time>2018-03-25T07:01:08Z</time>
      </trkpt>
      <trkpt lat="46.61904" lon="3.81904">
        <ele>299.2</ele>
        <time>2018-03-25T07:01:10Z</time>
      </trkpt>
      <trkpt lat="46.61911" lon="3.819">
        <ele>299</ele>
        <time>2018-03-25T07:01:12Z</time>
      </trkpt>
      <trkpt lat="46.61918" lon="3.81897">
        <ele>298.9</ele>
        <time>2018-03-25T07:01:14Z</time>
      </trkpt>
      <trkpt lat="46.61925" lon="3.81894">
        <ele>299.7</ele>
        <time>2018-03-25T07:01:16Z</time>
      </trkpt>
      <trkpt lat="46.61932" lon="3.8189">
        <ele>299.9</ele>
        <time>2018-03-25T07:01:18Z</time>
      </trkpt>
      <trkpt lat="46.61939" lon="3.81887">
        <ele>299.7</ele>
        <time>2018-03-25T07:01:20Z</time>
      </trkpt>
      <trkpt lat="46.61946" lon="3.81884">
        <ele>299.4</ele>
        <time>2018-03-25T07:01:22Z</time>
      </trkpt>
      <trkpt lat="46.61952" lon="3.81882">
        <ele>299.4</ele>
        <time>2018-03-25T07:01:24Z</time>
      </trkpt>
      <trkpt lat="46.61958" lon="3.81879">
        <ele>299.4</ele>
        <time>2018-03-25T07:01:26Z</time>
      </trkpt>
      <trkpt lat="46.61964" lon="3.81876">
        <ele>299.9</ele>
        <time>2018-03-25T07:01:28Z</time>
      </trkpt>
      <trkpt lat="46.6197" lon="3.81874">
        <ele>300.2</ele>
        <time>2018-03-25T07:01:30Z</time>
      </trkpt>
      <trkpt lat="46.61976" lon="3.81872">
        <ele>299.7</ele>
        <time>2018-03-25T07:01:32Z</time>
      </trkpt>
      <trkpt lat="46.61979" lon="3.81871">
        <ele>299.2</ele>
        <time>2018-03-25T07:01:33Z</time>
      </trkpt>
      <trkpt lat="46.61989" lon="3.8187">
        <ele>299.6</ele>
        <time>2018-03-25T07:01:36Z</time>
      </trkpt>
      <trkpt lat="46.61995" lon="3.81869">
        <ele>300.3</ele>
        <time>2018-03-25T07:01:38Z</time>
      </trkpt>
      <trkpt lat="46.62001" lon="3.81868">
        <ele>299.9</ele>
        <time>2018-03-25T07:01:40Z</time>
      </trkpt>
      <trkpt lat="46.62007" lon="3.81868">
        <ele>300</ele>
        <time>2018-03-25T07:01:42Z</time>
      </trkpt>
      <trkpt lat="46.62014" lon="3.81867">
        <ele>299.7</ele>
        <time>2018-03-25T07:01:44Z</time>
      </trkpt>
      <trkpt lat="46.62022" lon="3.81864">
        <ele>299.4</ele>
        <time>2018-03-25T07:01:47Z</time>
      </trkpt>
      <trkpt lat="46.62031" lon="3.81862">
        <ele>299.8</ele>
        <time>2018-03-25T07:01:50Z</time>
      </trkpt>
      <trkpt lat="46.62039" lon="3.8186">
        <ele>299.1</ele>
        <time>2018-03-25T07:01:53Z</time>
      </trkpt>
      <trkpt lat="46.62047" lon="3.81862">
        <ele>299.3</ele>
        <time>2018-03-25T07:01:56Z</time>
      </trkpt>
      <trkpt lat="46.62054" lon="3.81867">
        <ele>299.8</ele>
        <time>2018-03-25T07:01:59Z</time>
      </trkpt>
      <trkpt lat="46.62059" lon="3.81875">
        <ele>299.8</ele>
        <time>2018-03-25T07:02:02Z</time>
      </trkpt>
      <trkpt lat="46.62063" lon="3.81884">
        <ele>299.9</ele>
        <time>2018-03-25T07:02:05Z</time>
      </trkpt>
      <trkpt lat="46.62066" lon="3.81894">
        <ele>300.2</ele>
        <time>2018-03-25T07:02:08Z</time>
      </trkpt>
      <trkpt lat="46.62069" lon="3.81903">
        <ele>299.6</ele>
        <time>2018-03-25T07:02:10Z</time>
      </trkpt>
      <trkpt lat="46.62071" lon="3.81913">
        <ele>299.4</ele>
        <time>2018-03-25T07:02:12Z</time>
      </trkpt>
      <trkpt lat="46.62074" lon="3.81923">
        <ele>299.5</ele>
        <time>2018-03-25T07:02:14Z</time>
      </trkpt>
      <trkpt lat="46.62076" lon="3.81933">
        <ele>299.5</ele>
        <time>2018-03-25T07:02:16Z</time>
      </trkpt>
      <trkpt lat="46.62078" lon="3.81943">
        <ele>299.8</ele>
        <time>2018-03-25T07:02:18Z</time>
      </trkpt>
      <trkpt lat="46.6208" lon="3.81954">
        <ele>299.1</ele>
        <time>2018-03-25T07:02:20Z</time>
      </trkpt>
      <trkpt lat="46.62082" lon="3.81963">
        <ele>298.8</ele>
        <time>2018-03-25T07:02:22Z</time>
      </trkpt>
      <trkpt lat="46.62084" lon="3.81973">
        <ele>298.9</ele>
        <time>2018-03-25T07:02:24Z</time>
      </trkpt>
      <trkpt lat="46.62087" lon="3.81983">
        <ele>299</ele>
        <time>2018-03-25T07:02:26Z</time>
      </trkpt>
      <trkpt lat="46.62089" lon="3.81993">
        <ele>298.9</ele>
        <time>2018-03-25T07:02:28Z</time>
      </trkpt>
      <trkpt lat="46.62092" lon="3.82002">
        <ele>298.1</ele>
        <time>2018-03-25T07:02:30Z</time>
      </trkpt>
      <trkpt lat="46.62093" lon="3.82011">
        <ele>297.7</ele>
        <time>2018-03-25T07:02:32Z</time>
      </trkpt>
      <trkpt lat="46.62093" lon="3.82021">
        <ele>297</ele>
        <time>2018-03-25T07:02:34Z</time>
      </trkpt>
      <trkpt lat="46.62094" lon="3.82025">
        <ele>296.8</ele>
        <time>2018-03-25T07:02:35Z</time>
      </trkpt>
      <trkpt lat="46.62096" lon="3.82039">
        <ele>296.7</ele>
        <time>2018-03-25T07:02:38Z</time>
      </trkpt>
      <trkpt lat="46.62099" lon="3.82047">
        <ele>297</ele>
        <time>2018-03-25T07:02:40Z</time>
      </trkpt>
      <trkpt lat="46.62103" lon="3.82055">
        <ele>297.5</ele>
        <time>2018-03-25T07:02:42Z</time>
      </trkpt>
      <trkpt lat="46.62108" lon="3.82062">
        <ele>297.3</ele>
        <time>2018-03-25T07:02:44Z</time>
      </trkpt>
      <trkpt lat="46.62114" lon="3.82069">
        <ele>296.7</ele>
        <time>2018-03-25T07:02:46Z</time>
      </trkpt>
      <trkpt lat="46.62119" lon="3.82074">
        <ele>296.3</ele>
        <time>2018-03-25T07:02:48Z</time>
      </trkpt>
      <trkpt lat="46.62126" lon="3.82082">
        <ele>296.7</ele>
        <time>2018-03-25T07:02:51Z</time>
      </trkpt>
      <trkpt lat="46.62133" lon="3.82089">
        <ele>295.6</ele>
        <time>2018-03-25T07:02:54Z</time>
      </trkpt>
      <trkpt lat="46.6214" lon="3.82095">
        <ele>296.2</ele>
        <time>2018-03-25T07:02:57Z</time>
      </trkpt>
      <trkpt lat="46.62147" lon="3.82103">
        <ele>296.3</ele>
        <time>2018-03-25T07:03:00Z</time>
      </trkpt>
      <trkpt lat="46.62153" lon="3.82111">
        <ele>296.7</ele>
        <time>2018-03-25T07:03:03Z</time>
      </trkpt>
      <trkpt lat="46.62158" lon="3.82121">
        <ele>295.9</ele>
        <time>2018-03-25T07:03:06Z</time>
      </trkpt>
      <trkpt lat="46.62163" lon="3.8213">
        <ele>296.4</ele>
        <time>2018-03-25T07:03:09Z</time>
      </trkpt>
      <trkpt lat="46.62166" lon="3.82141">
        <ele>296.8</ele>
        <time>2018-03-25T07:03:12Z</time>
      </trkpt>
      <trkpt lat="46.62169" lon="3.82153">
        <ele>297.4</ele>
        <time>2018-03-25T07:03:15Z</time>
      </trkpt>
      <trkpt lat="46.6217" lon="3.82165">
        <ele>297.7</ele>
        <time>2018-03-25T07:03:18Z</time>
      </trkpt>
      <trkpt lat="46.62171" lon="3.82178">
        <ele>298.6</ele>
        <time>2018-03-25T07:03:21Z</time>
      </trkpt>
      <trkpt lat="46.62172" lon="3.82188">
        <ele>298.7</ele>
        <time>2018-03-25T07:03:23Z</time>
      </trkpt>
      <trkpt lat="46.62173" lon="3.82197">
        <ele>298.8</ele>
        <time>2018-03-25T07:03:25Z</time>
      </trkpt>
      <trkpt lat="46.62174" lon="3.82206">
        <ele>299.1</ele>
        <time>2018-03-25T07:03:27Z</time>
      </trkpt>
      <trkpt lat="46.62175" lon="3.82215">
        <ele>298.5</ele>
        <time>2018-03-25T07:03:29Z</time>
      </trkpt>
      <trkpt lat="46.62177" lon="3.82225">
        <ele>298.1</ele>
        <time>2018-03-25T07:03:31Z</time>
      </trkpt>
      <trkpt lat="46.62179" lon="3.82235">
        <ele>297.8</ele>
        <time>2018-03-25T07:03:33Z</time>
      </trkpt>
      <trkpt lat="46.62181" lon="3.82244">
        <ele>297.4</ele>
        <time>2018-03-25T07:03:35Z</time>
      </trkpt>
      <trkpt lat="46.62182" lon="3.82249">
        <ele>297.2</ele>
        <time>2018-03-25T07:03:36Z</time>
      </trkpt>
      <trkpt lat="46.62188" lon="3.82261">
        <ele>297.3</ele>
        <time>2018-03-25T07:03:39Z</time>
      </trkpt>
      <trkpt lat="46.62194" lon="3.82267">
        <ele>297</ele>
        <time>2018-03-25T07:03:41Z</time>
      </trkpt>
      <trkpt lat="46.62198" lon="3.8227">
        <ele>296.4</ele>
        <time>2018-03-25T07:03:42Z</time>
      </trkpt>
      <trkpt lat="46.62202" lon="3.82274">
        <ele>295.9</ele>
        <time>2018-03-25T07:03:43Z</time>
      </trkpt>
      <trkpt lat="46.62206" lon="3.82279">
        <ele>295.6</ele>
        <time>2018-03-25T07:03:44Z</time>
      </trkpt>
      <trkpt lat="46.6221" lon="3.82283">
        <ele>295.3</ele>
        <time>2018-03-25T07:03:45Z</time>
      </trkpt>
      <trkpt lat="46.62215" lon="3.82291">
        <ele>294.6</ele>
        <time>2018-03-25T07:03:47Z</time>
      </trkpt>
      <trkpt lat="46.62221" lon="3.82296">
        <ele>293.8</ele>
        <time>2018-03-25T07:03:49Z</time>
      </trkpt>
      <trkpt lat="46.62229" lon="3.823">
        <ele>293.2</ele>
        <time>2018-03-25T07:03:52Z</time>
      </trkpt>
      <trkpt lat="46.62236" lon="3.82307">
        <ele>292.3</ele>
        <time>2018-03-25T07:03:54Z</time>
      </trkpt>
      <trkpt lat="46.6224" lon="3.82311">
        <ele>292</ele>
        <time>2018-03-25T07:03:55Z</time>
      </trkpt>
      <trkpt lat="46.62243" lon="3.82316">
        <ele>291.8</ele>
        <time>2018-03-25T07:03:56Z</time>
      </trkpt>
      <trkpt lat="46.62249" lon="3.82326">
        <ele>291.5</ele>
        <time>2018-03-25T07:03:58Z</time>
      </trkpt>
      <trkpt lat="46.62252" lon="3.82332">
        <ele>291.3</ele>
        <time>2018-03-25T07:03:59Z</time>
      </trkpt>
      <trkpt lat="46.62255" lon="3.82339">
        <ele>291.1</ele>
        <time>2018-03-25T07:04:00Z</time>
      </trkpt>
      <trkpt lat="46.62257" lon="3.82347">
        <ele>290.8</ele>
        <time>2018-03-25T07:04:01Z</time>
      </trkpt>
      <trkpt lat="46.62259" lon="3.82356">
        <ele>290.5</ele>
        <time>2018-03-25T07:04:02Z</time>
      </trkpt>
      <trkpt lat="46.6226" lon="3.82364">
        <ele>290.3</ele>
        <time>2018-03-25T07:04:03Z</time>
      </trkpt>
      <trkpt lat="46.62261" lon="3.82374">
        <ele>290</ele>
        <time>2018-03-25T07:04:04Z</time>
      </trkpt>
      <trkpt lat="46.62262" lon="3.82383">
        <ele>289.8</ele>
        <time>2018-03-25T07:04:05Z</time>
      </trkpt>
      <trkpt lat="46.62264" lon="3.82392">
        <ele>289.2</ele>
        <time>2018-03-25T07:04:06Z</time>
      </trkpt>
      <trkpt lat="46.62266" lon="3.82401">
        <ele>288.7</ele>
        <time>2018-03-25T07:04:07Z</time>
      </trkpt>
      <trkpt lat="46.62269" lon="3.82409">
        <ele>288.3</ele>
        <time>2018-03-25T07:04:08Z</time>
      </trkpt>
      <trkpt lat="46.62271" lon="3.82418">
        <ele>288.5</ele>
        <time>2018-03-25T07:04:09Z</time>
      </trkpt>
      <trkpt lat="46.62273" lon="3.82427">
        <ele>288.6</ele>
        <time>2018-03-25T07:04:10Z</time>
      </trkpt>
      <trkpt lat="46.62275" lon="3.82436">
        <ele>288.1</ele>
        <time>2018-03-25T07:04:11Z</time>
      </trkpt>
      <trkpt lat="46.62275" lon="3.82445">
        <ele>287.7</ele>
        <time>2018-03-25T07:04:12Z</time>
      </trkpt>
      <trkpt lat="46.62275" lon="3.82454">
        <ele>287.6</ele>
        <time>2018-03-25T07:04:13Z</time>
      </trkpt>
      <trkpt lat="46.62274" lon="3.82464">
        <ele>287.6</ele>
        <time>2018-03-25T07:04:14Z</time>
      </trkpt>
      <trkpt lat="46.62274" lon="3.82472">
        <ele>287.6</ele>
        <time>2018-03-25T07:04:15Z</time>
      </trkpt>
      <trkpt lat="46.62275" lon="3.82481">
        <ele>287.3</ele>
        <time>2018-03-25T07:04:16Z</time>
      </trkpt>
      <trkpt lat="46.62275" lon="3.8249">
        <ele>287.1</ele>
        <time>2018-03-25T07:04:17Z</time>
      </trkpt>
      <trkpt lat="46.62277" lon="3.82499">
        <ele>286.5</ele>
        <time>2018-03-25T07:04:18Z</time>
      </trkpt>
      <trkpt lat="46.62278" lon="3.82507">
        <ele>286</ele>
        <time>2018-03-25T07:04:19Z</time>
      </trkpt>
      <trkpt lat="46.62279" lon="3.82514">
        <ele>285.7</ele>
        <time>2018-03-25T07:04:20Z</time>
      </trkpt>
      <trkpt lat="46.6228" lon="3.82522">
        <ele>285.4</ele>
        <time>2018-03-25T07:04:21Z</time>
      </trkpt>
      <trkpt lat="46.62281" lon="3.82528">
        <ele>285.1</ele>
        <time>2018-03-25T07:04:22Z</time>
      </trkpt>
      <trkpt lat="46.62283" lon="3.82535">
        <ele>285</ele>
        <time>2018-03-25T07:04:23Z</time>
      </trkpt>
      <trkpt lat="46.62286" lon="3.82547">
        <ele>285</ele>
        <time>2018-03-25T07:04:25Z</time>
      </trkpt>
      <trkpt lat="46.62288" lon="3.82558">
        <ele>285</ele>
        <time>2018-03-25T07:04:27Z</time>
      </trkpt>
      <trkpt lat="46.62288" lon="3.82567">
        <ele>284.9</ele>
        <time>2018-03-25T07:04:29Z</time>
      </trkpt>
      <trkpt lat="46.62285" lon="3.82578">
        <ele>285.9</ele>
        <time>2018-03-25T07:04:32Z</time>
      </trkpt>
      <trkpt lat="46.62282" lon="3.82587">
        <ele>286.6</ele>
        <time>2018-03-25T07:04:35Z</time>
      </trkpt>
      <trkpt lat="46.62279" lon="3.82597">
        <ele>286.8</ele>
        <time>2018-03-25T07:04:38Z</time>
      </trkpt>
      <trkpt lat="46.62279" lon="3.826">
        <ele>286.8</ele>
        <time>2018-03-25T07:04:39Z</time>
      </trkpt>
      <trkpt lat="46.62278" lon="3.82619">
        <ele>289.5</ele>
        <time>2018-03-25T07:04:45Z</time>
      </trkpt>
      <trkpt lat="46.62281" lon="3.8263">
        <ele>291.6</ele>
        <time>2018-03-25T07:04:49Z</time>
      </trkpt>
      <trkpt lat="46.62283" lon="3.82641">
        <ele>293.1</ele>
        <time>2018-03-25T07:04:53Z</time>
      </trkpt>
      <trkpt lat="46.62286" lon="3.82651">
        <ele>295.1</ele>
        <time>2018-03-25T07:04:57Z</time>
      </trkpt>
      <trkpt lat="46.62288" lon="3.82661">
        <ele>295.9</ele>
        <time>2018-03-25T07:05:01Z</time>
      </trkpt>
      <trkpt lat="46.6229" lon="3.82673">
        <ele>297.2</ele>
        <time>2018-03-25T07:05:05Z</time>
      </trkpt>
      <trkpt lat="46.62292" lon="3.82684">
        <ele>298.1</ele>
        <time>2018-03-25T07:05:09Z</time>
      </trkpt>
      <trkpt lat="46.62293" lon="3.82696">
        <ele>298.6</ele>
        <time>2018-03-25T07:05:13Z</time>
      </trkpt>
      <trkpt lat="46.62295" lon="3.82708">
        <ele>299.3</ele>
        <time>2018-03-25T07:05:17Z</time>
      </trkpt>
      <trkpt lat="46.62299" lon="3.82718">
        <ele>300.6</ele>
        <time>2018-03-25T07:05:21Z</time>
      </trkpt>
      <trkpt lat="46.62304" lon="3.82728">
        <ele>301.9</ele>
        <time>2018-03-25T07:05:25Z</time>
      </trkpt>
      <trkpt lat="46.62309" lon="3.82735">
        <ele>302.2</ele>
        <time>2018-03-25T07:05:28Z</time>
      </trkpt>
      <trkpt lat="46.62315" lon="3.82742">
        <ele>302.9</ele>
        <time>2018-03-25T07:05:31Z</time>
      </trkpt>
      <trkpt lat="46.62322" lon="3.82751">
        <ele>301.8</ele>
        <time>2018-03-25T07:05:34Z</time>
      </trkpt>
      <trkpt lat="46.62327" lon="3.82756">
        <ele>301.4</ele>
        <time>2018-03-25T07:05:36Z</time>
      </trkpt>
      <trkpt lat="46.62334" lon="3.82759">
        <ele>301.4</ele>
        <time>2018-03-25T07:05:38Z</time>
      </trkpt>
      <trkpt lat="46.62341" lon="3.8276">
        <ele>301.5</ele>
        <time>2018-03-25T07:05:40Z</time>
      </trkpt>
      <trkpt lat="46.62344" lon="3.8276">
        <ele>301.5</ele>
        <time>2018-03-25T07:05:41Z</time>
      </trkpt>
      <trkpt lat="46.62355" lon="3.82759">
        <ele>301.7</ele>
        <time>2018-03-25T07:05:44Z</time>
      </trkpt>
      <trkpt lat="46.62363" lon="3.8276">
        <ele>301.7</ele>
        <time>2018-03-25T07:05:46Z</time>
      </trkpt>
      <trkpt lat="46.6237" lon="3.82766">
        <ele>301.6</ele>
        <time>2018-03-25T07:05:48Z</time>
      </trkpt>
      <trkpt lat="46.62375" lon="3.82775">
        <ele>301.3</ele>
        <time>2018-03-25T07:05:50Z</time>
      </trkpt>
      <trkpt lat="46.62378" lon="3.82786">
        <ele>300.8</ele>
        <time>2018-03-25T07:05:52Z</time>
      </trkpt>
      <trkpt lat="46.62382" lon="3.82797">
        <ele>301.1</ele>
        <time>2018-03-25T07:05:54Z</time>
      </trkpt>
      <trkpt lat="46.62383" lon="3.82804">
        <ele>301.2</ele>
        <time>2018-03-25T07:05:55Z</time>
      </trkpt>
      <trkpt lat="46.62384" lon="3.82811">
        <ele>301</ele>
        <time>2018-03-25T07:05:56Z</time>
      </trkpt>
      <trkpt lat="46.62386" lon="3.82818">
        <ele>300.7</ele>
        <time>2018-03-25T07:05:57Z</time>
      </trkpt>
      <trkpt lat="46.62387" lon="3.82825">
        <ele>300.6</ele>
        <time>2018-03-25T07:05:58Z</time>
      </trkpt>
      <trkpt lat="46.62388" lon="3.82832">
        <ele>300.4</ele>
        <time>2018-03-25T07:05:59Z</time>
      </trkpt>
      <trkpt lat="46.62389" lon="3.82839">
        <ele>300.3</ele>
        <time>2018-03-25T07:06:00Z</time>
      </trkpt>
      <trkpt lat="46.6239" lon="3.82846">
        <ele>300.3</ele>
        <time>2018-03-25T07:06:01Z</time>
      </trkpt>
      <trkpt lat="46.62391" lon="3.82853">
        <ele>300.3</ele>
        <time>2018-03-25T07:06:02Z</time>
      </trkpt>
      <trkpt lat="46.62392" lon="3.8286">
        <ele>300.5</ele>
        <time>2018-03-25T07:06:03Z</time>
      </trkpt>
      <trkpt lat="46.62394" lon="3.82866">
        <ele>300.7</ele>
        <time>2018-03-25T07:06:04Z</time>
      </trkpt>
      <trkpt lat="46.62395" lon="3.82873">
        <ele>300.4</ele>
        <time>2018-03-25T07:06:05Z</time>
      </trkpt>
      <trkpt lat="46.62397" lon="3.82879">
        <ele>300.2</ele>
        <time>2018-03-25T07:06:06Z</time>
      </trkpt>
      <trkpt lat="46.62398" lon="3.82886">
        <ele>300</ele>
        <time>2018-03-25T07:06:07Z</time>
      </trkpt>
      <trkpt lat="46.62401" lon="3.82898">
        <ele>300</ele>
        <time>2018-03-25T07:06:09Z</time>
      </trkpt>
      <trkpt lat="46.62404" lon="3.8291">
        <ele>300.4</ele>
        <time>2018-03-25T07:06:11Z</time>
      </trkpt>
      <trkpt lat="46.62406" lon="3.82921">
        <ele>300</ele>
        <time>2018-03-25T07:06:13Z</time>
      </trkpt>
      <trkpt lat="46.62409" lon="3.82932">
        <ele>299.7</ele>
        <time>2018-03-25T07:06:15Z</time>
      </trkpt>
      <trkpt lat="46.62411" lon="3.82943">
        <ele>299.5</ele>
        <time>2018-03-25T07:06:17Z</time>
      </trkpt>
      <trkpt lat="46.62413" lon="3.82953">
        <ele>299.4</ele>
        <time>2018-03-25T07:06:19Z</time>
      </trkpt>
      <trkpt lat="46.62416" lon="3.82963">
        <ele>299.8</ele>
        <time>2018-03-25T07:06:21Z</time>
      </trkpt>
      <trkpt lat="46.62418" lon="3.82972">
        <ele>300.8</ele>
        <time>2018-03-25T07:06:23Z</time>
      </trkpt>
      <trkpt lat="46.6242" lon="3.82981">
        <ele>300.9</ele>
        <time>2018-03-25T07:06:25Z</time>
      </trkpt>
      <trkpt lat="46.62422" lon="3.82994">
        <ele>300.7</ele>
        <time>2018-03-25T07:06:28Z</time>
      </trkpt>
      <trkpt lat="46.62424" lon="3.83006">
        <ele>301.3</ele>
        <time>2018-03-25T07:06:31Z</time>
      </trkpt>
      <trkpt lat="46.62423" lon="3.83016">
        <ele>302.2</ele>
        <time>2018-03-25T07:06:34Z</time>
      </trkpt>
      <trkpt lat="46.62416" lon="3.8302">
        <ele>303.5</ele>
        <time>2018-03-25T07:06:37Z</time>
      </trkpt>
      <trkpt lat="46.62408" lon="3.83021">
        <ele>303.6</ele>
        <time>2018-03-25T07:06:40Z</time>
      </trkpt>
      <trkpt lat="46.62401" lon="3.83021">
        <ele>303.4</ele>
        <time>2018-03-25T07:06:42Z</time>
      </trkpt>
      <trkpt lat="46.62398" lon="3.83021">
        <ele>303.8</ele>
        <time>2018-03-25T07:06:43Z</time>
      </trkpt>
      <trkpt lat="46.62389" lon="3.83021">
        <ele>304.6</ele>
        <time>2018-03-25T07:06:46Z</time>
      </trkpt>
      <trkpt lat="46.62383" lon="3.83021">
        <ele>304.8</ele>
        <time>2018-03-25T07:06:48Z</time>
      </trkpt>
      <trkpt lat="46.62377" lon="3.8302">
        <ele>304.9</ele>
        <time>2018-03-25T07:06:50Z</time>
      </trkpt>
      <trkpt lat="46.6237" lon="3.8302">
        <ele>303.5</ele>
        <time>2018-03-25T07:06:52Z</time>
      </trkpt>
      <trkpt lat="46.62364" lon="3.8302">
        <ele>303.8</ele>
        <time>2018-03-25T07:06:54Z</time>
      </trkpt>
      <trkpt lat="46.62358" lon="3.8302">
        <ele>304.5</ele>
        <time>2018-03-25T07:06:56Z</time>
      </trkpt>
      <trkpt lat="46.62351" lon="3.8302">
        <ele>305</ele>
        <time>2018-03-25T07:06:58Z</time>
      </trkpt>
      <trkpt lat="46.62345" lon="3.83019">
        <ele>305.2</ele>
        <time>2018-03-25T07:07:00Z</time>
      </trkpt>
      <trkpt lat="46.62338" lon="3.83019">
        <ele>304.9</ele>
        <time>2018-03-25T07:07:02Z</time>
      </trkpt>
      <trkpt lat="46.62332" lon="3.83021">
        <ele>304.7</ele>
        <time>2018-03-25T07:07:04Z</time>
      </trkpt>
      <trkpt lat="46.62326" lon="3.83025">
        <ele>304.7</ele>
        <time>2018-03-25T07:07:06Z</time>
      </trkpt>
      <trkpt lat="46.62324" lon="3.83035">
        <ele>304.4</ele>
        <time>2018-03-25T07:07:08Z</time>
      </trkpt>
      <trkpt lat="46.62327" lon="3.83046">
        <ele>304.5</ele>
        <time>2018-03-25T07:07:10Z</time>
      </trkpt>
      <trkpt lat="46.6233" lon="3.83056">
        <ele>304.5</ele>
        <time>2018-03-25T07:07:12Z</time>
      </trkpt>
      <trkpt lat="46.62334" lon="3.83066">
        <ele>304.5</ele>
        <time>2018-03-25T07:07:14Z</time>
      </trkpt>
      <trkpt lat="46.62338" lon="3.83076">
        <ele>304.5</ele>
        <time>2018-03-25T07:07:16Z</time>
      </trkpt>
      <trkpt lat="46.62342" lon="3.83087">
        <ele>304.2</ele>
        <time>2018-03-25T07:07:18Z</time>
      </trkpt>
      <trkpt lat="46.62346" lon="3.83097">
        <ele>303.8</ele>
        <time>2018-03-25T07:07:20Z</time>
      </trkpt>
      <trkpt lat="46.6235" lon="3.83107">
        <ele>303.8</ele>
        <time>2018-03-25T07:07:22Z</time>
      </trkpt>
      <trkpt lat="46.62354" lon="3.83117">
        <ele>303.7</ele>
        <time>2018-03-25T07:07:24Z</time>
      </trkpt>
      <trkpt lat="46.62358" lon="3.83127">
        <ele>303.6</ele>
        <time>2018-03-25T07:07:26Z</time>
      </trkpt>
      <trkpt lat="46.62362" lon="3.83137">
        <ele>303.4</ele>
        <time>2018-03-25T07:07:28Z</time>
      </trkpt>
      <trkpt lat="46.62366" lon="3.83146">
        <ele>304.2</ele>
        <time>2018-03-25T07:07:30Z</time>
      </trkpt>
      <trkpt lat="46.6237" lon="3.83156">
        <ele>304.8</ele>
        <time>2018-03-25T07:07:32Z</time>
      </trkpt>
      <trkpt lat="46.62373" lon="3.83166">
        <ele>304.6</ele>
        <time>2018-03-25T07:07:34Z</time>
      </trkpt>
      <trkpt lat="46.62376" lon="3.83175">
        <ele>304.4</ele>
        <time>2018-03-25T07:07:36Z</time>
      </trkpt>
      <trkpt lat="46.6238" lon="3.83185">
        <ele>304.8</ele>
        <time>2018-03-25T07:07:38Z</time>
      </trkpt>
      <trkpt lat="46.62384" lon="3.83194">
        <ele>305.4</ele>
        <time>2018-03-25T07:07:40Z</time>
      </trkpt>
      <trkpt lat="46.62387" lon="3.83204">
        <ele>305.7</ele>
        <time>2018-03-25T07:07:42Z</time>
      </trkpt>
      <trkpt lat="46.62391" lon="3.83215">
        <ele>305.7</ele>
        <time>2018-03-25T07:07:44Z</time>
      </trkpt>
      <trkpt lat="46.62394" lon="3.8322">
        <ele>305.6</ele>
        <time>2018-03-25T07:07:45Z</time>
      </trkpt>
      <trkpt lat="46.62406" lon="3.83228">
        <ele>305.5</ele>
        <time>2018-03-25T07:07:48Z</time>
      </trkpt>
      <trkpt lat="46.62412" lon="3.83227">
        <ele>305.9</ele>
        <time>2018-03-25T07:07:50Z</time>
      </trkpt>
      <trkpt lat="46.62418" lon="3.83225">
        <ele>305.9</ele>
        <time>2018-03-25T07:07:52Z</time>
      </trkpt>
      <trkpt lat="46.62424" lon="3.83222">
        <ele>305.7</ele>
        <time>2018-03-25T07:07:54Z</time>
      </trkpt>
      <trkpt lat="46.6243" lon="3.83219">
        <ele>305.6</ele>
        <time>2018-03-25T07:07:56Z</time>
      </trkpt>
      <trkpt lat="46.62436" lon="3.83216">
        <ele>306.2</ele>
        <time>2018-03-25T07:07:58Z</time>
      </trkpt>
      <trkpt lat="46.62442" lon="3.83213">
        <ele>306.5</ele>
        <time>2018-03-25T07:08:00Z</time>
      </trkpt>
      <trkpt lat="46.62448" lon="3.83209">
        <ele>306.6</ele>
        <time>2018-03-25T07:08:02Z</time>
      </trkpt>
      <trkpt lat="46.62454" lon="3.83205">
        <ele>306.9</ele>
        <time>2018-03-25T07:08:04Z</time>
      </trkpt>
      <trkpt lat="46.62462" lon="3.83202">
        <ele>307.7</ele>
        <time>2018-03-25T07:08:07Z</time>
      </trkpt>
      <trkpt lat="46.62471" lon="3.83199">
        <ele>307.7</ele>
        <time>2018-03-25T07:08:10Z</time>
      </trkpt>
      <trkpt lat="46.62479" lon="3.83198">
        <ele>307.5</ele>
        <time>2018-03-25T07:08:13Z</time>
      </trkpt>
      <trkpt lat="46.62486" lon="3.83193">
        <ele>307.5</ele>
        <time>2018-03-25T07:08:16Z</time>
      </trkpt>
      <trkpt lat="46.62493" lon="3.83187">
        <ele>307.5</ele>
        <time>2018-03-25T07:08:19Z</time>
      </trkpt>
      <trkpt lat="46.62502" lon="3.83188">
        <ele>307.7</ele>
        <time>2018-03-25T07:08:22Z</time>
      </trkpt>
      <trkpt lat="46.62509" lon="3.83196">
        <ele>308.1</ele>
        <time>2018-03-25T07:08:25Z</time>
      </trkpt>
      <trkpt lat="46.62516" lon="3.83203">
        <ele>308.9</ele>
        <time>2018-03-25T07:08:28Z</time>
      </trkpt>
      <trkpt lat="46.62523" lon="3.8321">
        <ele>309.3</ele>
        <time>2018-03-25T07:08:31Z</time>
      </trkpt>
      <trkpt lat="46.62531" lon="3.83215">
        <ele>310</ele>
        <time>2018-03-25T07:08:34Z</time>
      </trkpt>
      <trkpt lat="46.62537" lon="3.83224">
        <ele>310.7</ele>
        <time>2018-03-25T07:08:37Z</time>
      </trkpt>
      <trkpt lat="46.62544" lon="3.83233">
        <ele>310.9</ele>
        <time>2018-03-25T07:08:40Z</time>
      </trkpt>
      <trkpt lat="46.62551" lon="3.8324">
        <ele>310.7</ele>
        <time>2018-03-25T07:08:43Z</time>
      </trkpt>
      <trkpt lat="46.62558" lon="3.83248">
        <ele>310.8</ele>
        <time>2018-03-25T07:08:46Z</time>
      </trkpt>
      <trkpt lat="46.6256" lon="3.8325">
        <ele>311.1</ele>
        <time>2018-03-25T07:08:47Z</time>
      </trkpt>
      <trkpt lat="46.62572" lon="3.83263">
        <ele>311.5</ele>
        <time>2018-03-25T07:08:52Z</time>
      </trkpt>
      <trkpt lat="46.62579" lon="3.83271">
        <ele>311.9</ele>
        <time>2018-03-25T07:08:55Z</time>
      </trkpt>
      <trkpt lat="46.62586" lon="3.83278">
        <ele>313.1</ele>
        <time>2018-03-25T07:08:58Z</time>
      </trkpt>
      <trkpt lat="46.62593" lon="3.83286">
        <ele>313.7</ele>
        <time>2018-03-25T07:09:01Z</time>
      </trkpt>
      <trkpt lat="46.62598" lon="3.83291">
        <ele>313.9</ele>
        <time>2018-03-25T07:09:03Z</time>
      </trkpt>
      <trkpt lat="46.62603" lon="3.83296">
        <ele>314.9</ele>
        <time>2018-03-25T07:09:05Z</time>
      </trkpt>
      <trkpt lat="46.62608" lon="3.83301">
        <ele>315.1</ele>
        <time>2018-03-25T07:09:07Z</time>
      </trkpt>
      <trkpt lat="46.62613" lon="3.83306">
        <ele>315</ele>
        <time>2018-03-25T07:09:09Z</time>
      </trkpt>
      <trkpt lat="46.62618" lon="3.83311">
        <ele>315.4</ele>
        <time>2018-03-25T07:09:11Z</time>
      </trkpt>
      <trkpt lat="46.62624" lon="3.83316">
        <ele>315.8</ele>
        <time>2018-03-25T07:09:13Z</time>
      </trkpt>
      <trkpt lat="46.62629" lon="3.83321">
        <ele>316.1</ele>
        <time>2018-03-25T07:09:15Z</time>
      </trkpt>
      <trkpt lat="46.62634" lon="3.83326">
        <ele>316.5</ele>
        <time>2018-03-25T07:09:17Z</time>
      </trkpt>
      <trkpt lat="46.6264" lon="3.83331">
        <ele>315.5</ele>
        <time>2018-03-25T07:09:19Z</time>
      </trkpt>
      <trkpt lat="46.62645" lon="3.83336">
        <ele>315.9</ele>
        <time>2018-03-25T07:09:21Z</time>
      </trkpt>
      <trkpt lat="46.62651" lon="3.83341">
        <ele>316.2</ele>
        <time>2018-03-25T07:09:23Z</time>
      </trkpt>
      <trkpt lat="46.62656" lon="3.83346">
        <ele>316.1</ele>
        <time>2018-03-25T07:09:25Z</time>
      </trkpt>
      <trkpt lat="46.62661" lon="3.83351">
        <ele>315.9</ele>
        <time>2018-03-25T07:09:27Z</time>
      </trkpt>
      <trkpt lat="46.62667" lon="3.83357">
        <ele>316</ele>
        <time>2018-03-25T07:09:29Z</time>
      </trkpt>
      <trkpt lat="46.62672" lon="3.83363">
        <ele>316.8</ele>
        <time>2018-03-25T07:09:31Z</time>
      </trkpt>
      <trkpt lat="46.62677" lon="3.83368">
        <ele>316.7</ele>
        <time>2018-03-25T07:09:33Z</time>
      </trkpt>
      <trkpt lat="46.62682" lon="3.83374">
        <ele>316.4</ele>
        <time>2018-03-25T07:09:35Z</time>
      </trkpt>
      <trkpt lat="46.62688" lon="3.8338">
        <ele>316.3</ele>
        <time>2018-03-25T07:09:37Z</time>
      </trkpt>
      <trkpt lat="46.62693" lon="3.83386">
        <ele>316.4</ele>
        <time>2018-03-25T07:09:39Z</time>
      </trkpt>
      <trkpt lat="46.62699" lon="3.83393">
        <ele>316.3</ele>
        <time>2018-03-25T07:09:41Z</time>
      </trkpt>
      <trkpt lat="46.62704" lon="3.83399">
        <ele>316.9</ele>
        <time>2018-03-25T07:09:43Z</time>
      </trkpt>
      <trkpt lat="46.6271" lon="3.83404">
        <ele>317.6</ele>
        <time>2018-03-25T07:09:45Z</time>
      </trkpt>
      <trkpt lat="46.62715" lon="3.83411">
        <ele>317.4</ele>
        <time>2018-03-25T07:09:47Z</time>
      </trkpt>
      <trkpt lat="46.62717" lon="3.83414">
        <ele>317.1</ele>
        <time>2018-03-25T07:09:48Z</time>
      </trkpt>
      <trkpt lat="46.62725" lon="3.83423">
        <ele>317.2</ele>
        <time>2018-03-25T07:09:51Z</time>
      </trkpt>
      <trkpt lat="46.62731" lon="3.83429">
        <ele>317.1</ele>
        <time>2018-03-25T07:09:53Z</time>
      </trkpt>
      <trkpt lat="46.62736" lon="3.83435">
        <ele>317.3</ele>
        <time>2018-03-25T07:09:55Z</time>
      </trkpt>
      <trkpt lat="46.62742" lon="3.83442">
        <ele>317.7</ele>
        <time>2018-03-25T07:09:57Z</time>
      </trkpt>
      <trkpt lat="46.62748" lon="3.83449">
        <ele>318.1</ele>
        <time>2018-03-25T07:09:59Z</time>
      </trkpt>
      <trkpt lat="46.62754" lon="3.83457">
        <ele>317.8</ele>
        <time>2018-03-25T07:10:01Z</time>
      </trkpt>
      <trkpt lat="46.62761" lon="3.83464">
        <ele>317.3</ele>
        <time>2018-03-25T07:10:03Z</time>
      </trkpt>
      <trkpt lat="46.62767" lon="3.83473">
        <ele>317.1</ele>
        <time>2018-03-25T07:10:05Z</time>
      </trkpt>
      <trkpt lat="46.62774" lon="3.83481">
        <ele>317.3</ele>
        <time>2018-03-25T07:10:07Z</time>
      </trkpt>
      <trkpt lat="46.6278" lon="3.83489">
        <ele>317</ele>
        <time>2018-03-25T07:10:09Z</time>
      </trkpt>
      <trkpt lat="46.62786" lon="3.83498">
        <ele>317.7</ele>
        <time>2018-03-25T07:10:11Z</time>
      </trkpt>
      <trkpt lat="46.62792" lon="3.83506">
        <ele>317.5</ele>
        <time>2018-03-25T07:10:13Z</time>
      </trkpt>
      <trkpt lat="46.62799" lon="3.83515">
        <ele>316.9</ele>
        <time>2018-03-25T07:10:15Z</time>
      </trkpt>
      <trkpt lat="46.62805" lon="3.83524">
        <ele>317</ele>
        <time>2018-03-25T07:10:17Z</time>
      </trkpt>
      <trkpt lat="46.62811" lon="3.83532">
        <ele>317.4</ele>
        <time>2018-03-25T07:10:19Z</time>
      </trkpt>
      <trkpt lat="46.62817" lon="3.8354">
        <ele>316.8</ele>
        <time>2018-03-25T07:10:21Z</time>
      </trkpt>
      <trkpt lat="46.62823" lon="3.83548">
        <ele>316.9</ele>
        <time>2018-03-25T07:10:23Z</time>
      </trkpt>
      <trkpt lat="46.62828" lon="3.83556">
        <ele>316.9</ele>
        <time>2018-03-25T07:10:25Z</time>
      </trkpt>
      <trkpt lat="46.62835" lon="3.83562">
        <ele>317.1</ele>
        <time>2018-03-25T07:10:28Z</time>
      </trkpt>
      <trkpt lat="46.62843" lon="3.83561">
        <ele>317.6</ele>
        <time>2018-03-25T07:10:31Z</time>
      </trkpt>
      <trkpt lat="46.62852" lon="3.83558">
        <ele>317.5</ele>
        <time>2018-03-25T07:10:34Z</time>
      </trkpt>
      <trkpt lat="46.62858" lon="3.83555">
        <ele>317.6</ele>
        <time>2018-03-25T07:10:36Z</time>
      </trkpt>
      <trkpt lat="46.62864" lon="3.83552">
        <ele>317.9</ele>
        <time>2018-03-25T07:10:38Z</time>
      </trkpt>
      <trkpt lat="46.6287" lon="3.83549">
        <ele>317.8</ele>
        <time>2018-03-25T07:10:40Z</time>
      </trkpt>
      <trkpt lat="46.62876" lon="3.83546">
        <ele>317.6</ele>
        <time>2018-03-25T07:10:42Z</time>
      </trkpt>
      <trkpt lat="46.62882" lon="3.83543">
        <ele>317.7</ele>
        <time>2018-03-25T07:10:44Z</time>
      </trkpt>
      <trkpt lat="46.62889" lon="3.8354">
        <ele>318.2</ele>
        <time>2018-03-25T07:10:46Z</time>
      </trkpt>
      <trkpt lat="46.62895" lon="3.83537">
        <ele>318.8</ele>
        <time>2018-03-25T07:10:48Z</time>
      </trkpt>
      <trkpt lat="46.62898" lon="3.83535">
        <ele>318.9</ele>
        <time>2018-03-25T07:10:49Z</time>
      </trkpt>
      <trkpt lat="46.62907" lon="3.83531">
        <ele>319.4</ele>
        <time>2018-03-25T07:10:52Z</time>
      </trkpt>
      <trkpt lat="46.62914" lon="3.83528">
        <ele>319.7</ele>
        <time>2018-03-25T07:10:54Z</time>
      </trkpt>
      <trkpt lat="46.6292" lon="3.83525">
        <ele>319.6</ele>
        <time>2018-03-25T07:10:56Z</time>
      </trkpt>
      <trkpt lat="46.62926" lon="3.83522">
        <ele>319.8</ele>
        <time>2018-03-25T07:10:58Z</time>
      </trkpt>
      <trkpt lat="46.62932" lon="3.83519">
        <ele>320</ele>
        <time>2018-03-25T07:11:00Z</time>
      </trkpt>
      <trkpt lat="46.62938" lon="3.83516">
        <ele>320.2</ele>
        <time>2018-03-25T07:11:02Z</time>
      </trkpt>
      <trkpt lat="46.62944" lon="3.83513">
        <ele>320.4</ele>
        <time>2018-03-25T07:11:04Z</time>
      </trkpt>
      <trkpt lat="46.6295" lon="3.8351">
        <ele>320.6</ele>
        <time>2018-03-25T07:11:06Z</time>
      </trkpt>
      <trkpt lat="46.62956" lon="3.83508">
        <ele>320.6</ele>
        <time>2018-03-25T07:11:08Z</time>
      </trkpt>
      <trkpt lat="46.62962" lon="3.83506">
        <ele>320.6</ele>
        <time>2018-03-25T07:11:10Z</time>
      </trkpt>
      <trkpt lat="46.62968" lon="3.83503">
        <ele>320.8</ele>
        <time>2018-03-25T07:11:12Z</time>
      </trkpt>
      <trkpt lat="46.62976" lon="3.83501">
        <ele>321.3</ele>
        <time>2018-03-25T07:11:15Z</time>
      </trkpt>
      <trkpt lat="46.62984" lon="3.83499">
        <ele>322.3</ele>
        <time>2018-03-25T07:11:18Z</time>
      </trkpt>
      <trkpt lat="46.6299" lon="3.83499">
        <ele>323.1</ele>
        <time>2018-03-25T07:11:21Z</time>
      </trkpt>
      <trkpt lat="46.62996" lon="3.83498">
        <ele>323.3</ele>
        <time>2018-03-25T07:11:23Z</time>
      </trkpt>
      <trkpt lat="46.63005" lon="3.83497">
        <ele>324.4</ele>
        <time>2018-03-25T07:11:26Z</time>
      </trkpt>
      <trkpt lat="46.63013" lon="3.83496">
        <ele>324.9</ele>
        <time>2018-03-25T07:11:29Z</time>
      </trkpt>
      <trkpt lat="46.6302" lon="3.83495">
        <ele>325.9</ele>
        <time>2018-03-25T07:11:32Z</time>
      </trkpt>
      <trkpt lat="46.63028" lon="3.83494">
        <ele>326.3</ele>
        <time>2018-03-25T07:11:35Z</time>
      </trkpt>
      <trkpt lat="46.63035" lon="3.83493">
        <ele>327.4</ele>
        <time>2018-03-25T07:11:38Z</time>
      </trkpt>
      <trkpt lat="46.63042" lon="3.83492">
        <ele>327.4</ele>
        <time>2018-03-25T07:11:41Z</time>
      </trkpt>
      <trkpt lat="46.63049" lon="3.83491">
        <ele>328</ele>
        <time>2018-03-25T07:11:44Z</time>
      </trkpt>
      <trkpt lat="46.63056" lon="3.8349">
        <ele>328.2</ele>
        <time>2018-03-25T07:11:47Z</time>
      </trkpt>
      <trkpt lat="46.63063" lon="3.83489">
        <ele>329</ele>
        <time>2018-03-25T07:11:50Z</time>
      </trkpt>
      <trkpt lat="46.63065" lon="3.83489">
        <ele>329.4</ele>
        <time>2018-03-25T07:11:51Z</time>
      </trkpt>
      <trkpt lat="46.63078" lon="3.8349">
        <ele>330.1</ele>
        <time>2018-03-25T07:11:56Z</time>
      </trkpt>
      <trkpt lat="46.63085" lon="3.83493">
        <ele>331.7</ele>
        <time>2018-03-25T07:11:59Z</time>
      </trkpt>
      <trkpt lat="46.63092" lon="3.83497">
        <ele>331.9</ele>
        <time>2018-03-25T07:12:02Z</time>
      </trkpt>
      <trkpt lat="46.631" lon="3.83501">
        <ele>332.5</ele>
        <time>2018-03-25T07:12:05Z</time>
      </trkpt>
      <trkpt lat="46.63108" lon="3.83505">
        <ele>332.4</ele>
        <time>2018-03-25T07:12:08Z</time>
      </trkpt>
      <trkpt lat="46.63115" lon="3.8351">
        <ele>333.3</ele>
        <time>2018-03-25T07:12:11Z</time>
      </trkpt>
      <trkpt lat="46.63123" lon="3.83514">
        <ele>333.8</ele>
        <time>2018-03-25T07:12:14Z</time>
      </trkpt>
      <trkpt lat="46.6313" lon="3.8352">
        <ele>334.2</ele>
        <time>2018-03-25T07:12:17Z</time>
      </trkpt>
      <trkpt lat="46.63137" lon="3.83525">
        <ele>334.8</ele>
        <time>2018-03-25T07:12:20Z</time>
      </trkpt>
      <trkpt lat="46.63144" lon="3.8353">
        <ele>335.9</ele>
        <time>2018-03-25T07:12:23Z</time>
      </trkpt>
      <trkpt lat="46.6315" lon="3.83535">
        <ele>335.4</ele>
        <time>2018-03-25T07:12:26Z</time>
      </trkpt>
      <trkpt lat="46.63157" lon="3.83539">
        <ele>334.9</ele>
        <time>2018-03-25T07:12:29Z</time>
      </trkpt>
      <trkpt lat="46.63164" lon="3.83544">
        <ele>335.2</ele>
        <time>2018-03-25T07:12:32Z</time>
      </trkpt>
      <trkpt lat="46.6317" lon="3.83548">
        <ele>335.5</ele>
        <time>2018-03-25T07:12:35Z</time>
      </trkpt>
      <trkpt lat="46.63177" lon="3.83553">
        <ele>335.8</ele>
        <time>2018-03-25T07:12:38Z</time>
      </trkpt>
      <trkpt lat="46.63185" lon="3.83558">
        <ele>336.9</ele>
        <time>2018-03-25T07:12:41Z</time>
      </trkpt>
      <trkpt lat="46.63192" lon="3.83562">
        <ele>337.3</ele>
        <time>2018-03-25T07:12:44Z</time>
      </trkpt>
      <trkpt lat="46.63199" lon="3.83568">
        <ele>337.8</ele>
        <time>2018-03-25T07:12:47Z</time>
      </trkpt>
      <trkpt lat="46.63206" lon="3.83573">
        <ele>337.7</ele>
        <time>2018-03-25T07:12:50Z</time>
      </trkpt>
      <trkpt lat="46.63213" lon="3.83578">
        <ele>338</ele>
        <time>2018-03-25T07:12:53Z</time>
      </trkpt>
      <trkpt lat="46.63216" lon="3.8358">
        <ele>338.1</ele>
        <time>2018-03-25T07:12:54Z</time>
      </trkpt>
      <trkpt lat="46.63228" lon="3.83586">
        <ele>339.9</ele>
        <time>2018-03-25T07:12:59Z</time>
      </trkpt>
      <trkpt lat="46.63235" lon="3.8359">
        <ele>340.5</ele>
        <time>2018-03-25T07:13:02Z</time>
      </trkpt>
      <trkpt lat="46.63244" lon="3.83592">
        <ele>340.9</ele>
        <time>2018-03-25T07:13:06Z</time>
      </trkpt>
      <trkpt lat="46.63251" lon="3.83592">
        <ele>341.2</ele>
        <time>2018-03-25T07:13:09Z</time>
      </trkpt>
      <trkpt lat="46.6326" lon="3.8359">
        <ele>341.5</ele>
        <time>2018-03-25T07:13:12Z</time>
      </trkpt>
      <trkpt lat="46.63268" lon="3.83586">
        <ele>341.9</ele>
        <time>2018-03-25T07:13:15Z</time>
      </trkpt>
      <trkpt lat="46.63275" lon="3.83582">
        <ele>342.9</ele>
        <time>2018-03-25T07:13:18Z</time>
      </trkpt>
      <trkpt lat="46.63282" lon="3.83578">
        <ele>343.8</ele>
        <time>2018-03-25T07:13:21Z</time>
      </trkpt>
      <trkpt lat="46.63288" lon="3.83575">
        <ele>343.8</ele>
        <time>2018-03-25T07:13:24Z</time>
      </trkpt>
      <trkpt lat="46.63297" lon="3.8357">
        <ele>345</ele>
        <time>2018-03-25T07:13:28Z</time>
      </trkpt>
      <trkpt lat="46.63304" lon="3.83567">
        <ele>344.5</ele>
        <time>2018-03-25T07:13:31Z</time>
      </trkpt>
      <trkpt lat="46.63312" lon="3.83564">
        <ele>344.2</ele>
        <time>2018-03-25T07:13:34Z</time>
      </trkpt>
      <trkpt lat="46.63319" lon="3.83562">
        <ele>345.7</ele>
        <time>2018-03-25T07:13:37Z</time>
      </trkpt>
      <trkpt lat="46.63326" lon="3.83558">
        <ele>346.3</ele>
        <time>2018-03-25T07:13:40Z</time>
      </trkpt>
      <trkpt lat="46.63333" lon="3.83555">
        <ele>346.6</ele>
        <time>2018-03-25T07:13:43Z</time>
      </trkpt>
      <trkpt lat="46.6334" lon="3.83552">
        <ele>346.7</ele>
        <time>2018-03-25T07:13:46Z</time>
      </trkpt>
      <trkpt lat="46.63348" lon="3.83549">
        <ele>346.9</ele>
        <time>2018-03-25T07:13:49Z</time>
      </trkpt>
      <trkpt lat="46.63356" lon="3.83546">
        <ele>347.3</ele>
        <time>2018-03-25T07:13:52Z</time>
      </trkpt>
      <trkpt lat="46.63364" lon="3.83542">
        <ele>347.7</ele>
        <time>2018-03-25T07:13:55Z</time>
      </trkpt>
      <trkpt lat="46.63367" lon="3.83542">
        <ele>347.9</ele>
        <time>2018-03-25T07:13:56Z</time>
      </trkpt>
      <trkpt lat="46.6338" lon="3.83537">
        <ele>348.4</ele>
        <time>2018-03-25T07:14:01Z</time>
      </trkpt>
      <trkpt lat="46.63388" lon="3.83535">
        <ele>348.8</ele>
        <time>2018-03-25T07:14:04Z</time>
      </trkpt>
      <trkpt lat="46.63397" lon="3.83532">
        <ele>348.4</ele>
        <time>2018-03-25T07:14:07Z</time>
      </trkpt>
      <trkpt lat="46.63405" lon="3.83529">
        <ele>349.5</ele>
        <time>2018-03-25T07:14:10Z</time>
      </trkpt>
      <trkpt lat="46.63413" lon="3.83525">
        <ele>350.3</ele>
        <time>2018-03-25T07:14:13Z</time>
      </trkpt>
      <trkpt lat="46.63421" lon="3.83522">
        <ele>350.4</ele>
        <time>2018-03-25T07:14:16Z</time>
      </trkpt>
      <trkpt lat="46.63429" lon="3.83517">
        <ele>350.7</ele>
        <time>2018-03-25T07:14:20Z</time>
      </trkpt>
      <trkpt lat="46.63436" lon="3.83513">
        <ele>350.5</ele>
        <time>2018-03-25T07:14:23Z</time>
      </trkpt>
      <trkpt lat="46.63443" lon="3.83509">
        <ele>350.4</ele>
        <time>2018-03-25T07:14:26Z</time>
      </trkpt>
      <trkpt lat="46.6345" lon="3.83505">
        <ele>351.2</ele>
        <time>2018-03-25T07:14:29Z</time>
      </trkpt>
      <trkpt lat="46.63458" lon="3.83502">
        <ele>351.7</ele>
        <time>2018-03-25T07:14:32Z</time>
      </trkpt>
      <trkpt lat="46.63464" lon="3.83499">
        <ele>351.4</ele>
        <time>2018-03-25T07:14:34Z</time>
      </trkpt>
      <trkpt lat="46.6347" lon="3.83496">
        <ele>351.5</ele>
        <time>2018-03-25T07:14:36Z</time>
      </trkpt>
      <trkpt lat="46.63476" lon="3.83494">
        <ele>351.5</ele>
        <time>2018-03-25T07:14:38Z</time>
      </trkpt>
      <trkpt lat="46.63485" lon="3.83491">
        <ele>351.6</ele>
        <time>2018-03-25T07:14:41Z</time>
      </trkpt>
      <trkpt lat="46.63493" lon="3.83487">
        <ele>351.8</ele>
        <time>2018-03-25T07:14:44Z</time>
      </trkpt>
      <trkpt lat="46.63498" lon="3.83484">
        <ele>352.4</ele>
        <time>2018-03-25T07:14:46Z</time>
      </trkpt>
      <trkpt lat="46.63506" lon="3.83481">
        <ele>352.3</ele>
        <time>2018-03-25T07:14:49Z</time>
      </trkpt>
      <trkpt lat="46.63513" lon="3.83477">
        <ele>352.4</ele>
        <time>2018-03-25T07:14:52Z</time>
      </trkpt>
      <trkpt lat="46.63521" lon="3.83481">
        <ele>353.1</ele>
        <time>2018-03-25T07:14:56Z</time>
      </trkpt>
      <trkpt lat="46.63522" lon="3.83485">
        <ele>353.3</ele>
        <time>2018-03-25T07:14:57Z</time>
      </trkpt>
      <trkpt lat="46.63524" lon="3.83503">
        <ele>353.9</ele>
        <time>2018-03-25T07:15:01Z</time>
      </trkpt>
      <trkpt lat="46.63525" lon="3.83514">
        <ele>354.6</ele>
        <time>2018-03-25T07:15:03Z</time>
      </trkpt>
      <trkpt lat="46.63526" lon="3.83525">
        <ele>354.6</ele>
        <time>2018-03-25T07:15:05Z</time>
      </trkpt>
      <trkpt lat="46.63527" lon="3.83537">
        <ele>354.3</ele>
        <time>2018-03-25T07:15:07Z</time>
      </trkpt>
      <trkpt lat="46.63528" lon="3.83549">
        <ele>353.7</ele>
        <time>2018-03-25T07:15:09Z</time>
      </trkpt>
      <trkpt lat="46.63529" lon="3.83556">
        <ele>353.4</ele>
        <time>2018-03-25T07:15:10Z</time>
      </trkpt>
      <trkpt lat="46.63529" lon="3.83563">
        <ele>353.2</ele>
        <time>2018-03-25T07:15:11Z</time>
      </trkpt>
      <trkpt lat="46.6353" lon="3.8357">
        <ele>352.9</ele>
        <time>2018-03-25T07:15:12Z</time>
      </trkpt>
      <trkpt lat="46.6353" lon="3.83577">
        <ele>352.6</ele>
        <time>2018-03-25T07:15:13Z</time>
      </trkpt>
      <trkpt lat="46.63531" lon="3.83585">
        <ele>352.5</ele>
        <time>2018-03-25T07:15:14Z</time>
      </trkpt>
      <trkpt lat="46.63531" lon="3.83592">
        <ele>352.4</ele>
        <time>2018-03-25T07:15:15Z</time>
      </trkpt>
      <trkpt lat="46.63531" lon="3.83601">
        <ele>352.3</ele>
        <time>2018-03-25T07:15:16Z</time>
      </trkpt>
      <trkpt lat="46.63531" lon="3.83609">
        <ele>352.2</ele>
        <time>2018-03-25T07:15:17Z</time>
      </trkpt>
      <trkpt lat="46.63532" lon="3.83618">
        <ele>352.1</ele>
        <time>2018-03-25T07:15:18Z</time>
      </trkpt>
      <trkpt lat="46.63532" lon="3.83628">
        <ele>352.1</ele>
        <time>2018-03-25T07:15:19Z</time>
      </trkpt>
      <trkpt lat="46.63531" lon="3.83638">
        <ele>351.5</ele>
        <time>2018-03-25T07:15:20Z</time>
      </trkpt>
      <trkpt lat="46.63531" lon="3.83648">
        <ele>351</ele>
        <time>2018-03-25T07:15:21Z</time>
      </trkpt>
      <trkpt lat="46.63531" lon="3.83659">
        <ele>350.6</ele>
        <time>2018-03-25T07:15:22Z</time>
      </trkpt>
      <trkpt lat="46.63531" lon="3.8367">
        <ele>350.2</ele>
        <time>2018-03-25T07:15:23Z</time>
      </trkpt>
      <trkpt lat="46.63531" lon="3.8368">
        <ele>350.2</ele>
        <time>2018-03-25T07:15:24Z</time>
      </trkpt>
      <trkpt lat="46.63531" lon="3.83691">
        <ele>350.1</ele>
        <time>2018-03-25T07:15:25Z</time>
      </trkpt>
      <trkpt lat="46.63531" lon="3.83701">
        <ele>350.1</ele>
        <time>2018-03-25T07:15:26Z</time>
      </trkpt>
      <trkpt lat="46.63531" lon="3.83711">
        <ele>349.9</ele>
        <time>2018-03-25T07:15:27Z</time>
      </trkpt>
      <trkpt lat="46.63531" lon="3.83722">
        <ele>349.8</ele>
        <time>2018-03-25T07:15:28Z</time>
      </trkpt>
      <trkpt lat="46.63531" lon="3.83732">
        <ele>349.2</ele>
        <time>2018-03-25T07:15:29Z</time>
      </trkpt>
      <trkpt lat="46.63531" lon="3.83742">
        <ele>348.7</ele>
        <time>2018-03-25T07:15:30Z</time>
      </trkpt>
      <trkpt lat="46.6353" lon="3.83752">
        <ele>348.5</ele>
        <time>2018-03-25T07:15:31Z</time>
      </trkpt>
      <trkpt lat="46.63529" lon="3.83761">
        <ele>348.3</ele>
        <time>2018-03-25T07:15:32Z</time>
      </trkpt>
      <trkpt lat="46.63528" lon="3.83771">
        <ele>348.1</ele>
        <time>2018-03-25T07:15:33Z</time>
      </trkpt>
      <trkpt lat="46.63527" lon="3.8378">
        <ele>348.4</ele>
        <time>2018-03-25T07:15:34Z</time>
      </trkpt>
      <trkpt lat="46.63525" lon="3.83789">
        <ele>348.7</ele>
        <time>2018-03-25T07:15:35Z</time>
      </trkpt>
      <trkpt lat="46.63524" lon="3.83799">
        <ele>348.2</ele>
        <time>2018-03-25T07:15:36Z</time>
      </trkpt>
      <trkpt lat="46.63522" lon="3.83808">
        <ele>347.9</ele>
        <time>2018-03-25T07:15:37Z</time>
      </trkpt>
      <trkpt lat="46.6352" lon="3.83818">
        <ele>347.6</ele>
        <time>2018-03-25T07:15:38Z</time>
      </trkpt>
      <trkpt lat="46.63518" lon="3.83828">
        <ele>347.5</ele>
        <time>2018-03-25T07:15:39Z</time>
      </trkpt>
      <trkpt lat="46.63517" lon="3.83838">
        <ele>347.5</ele>
        <time>2018-03-25T07:15:40Z</time>
      </trkpt>
      <trkpt lat="46.63516" lon="3.83848">
        <ele>347.5</ele>
        <time>2018-03-25T07:15:41Z</time>
      </trkpt>
      <trkpt lat="46.63516" lon="3.83859">
        <ele>347.6</ele>
        <time>2018-03-25T07:15:42Z</time>
      </trkpt>
      <trkpt lat="46.63516" lon="3.83869">
        <ele>347</ele>
        <time>2018-03-25T07:15:43Z</time>
      </trkpt>
      <trkpt lat="46.63517" lon="3.83879">
        <ele>346.5</ele>
        <time>2018-03-25T07:15:44Z</time>
      </trkpt>
      <trkpt lat="46.63518" lon="3.8389">
        <ele>346.2</ele>
        <time>2018-03-25T07:15:45Z</time>
      </trkpt>
      <trkpt lat="46.63519" lon="3.83901">
        <ele>345.9</ele>
        <time>2018-03-25T07:15:46Z</time>
      </trkpt>
      <trkpt lat="46.6352" lon="3.83912">
        <ele>345.7</ele>
        <time>2018-03-25T07:15:47Z</time>
      </trkpt>
      <trkpt lat="46.63521" lon="3.83923">
        <ele>345.5</ele>
        <time>2018-03-25T07:15:48Z</time>
      </trkpt>
      <trkpt lat="46.63522" lon="3.83936">
        <ele>345.3</ele>
        <time>2018-03-25T07:15:49Z</time>
      </trkpt>
      <trkpt lat="46.63524" lon="3.83948">
        <ele>344.4</ele>
        <time>2018-03-25T07:15:50Z</time>
      </trkpt>
      <trkpt lat="46.63524" lon="3.83962">
        <ele>343.7</ele>
        <time>2018-03-25T07:15:51Z</time>
      </trkpt>
      <trkpt lat="46.63525" lon="3.83976">
        <ele>343.1</ele>
        <time>2018-03-25T07:15:52Z</time>
      </trkpt>
      <trkpt lat="46.63525" lon="3.83991">
        <ele>342.4</ele>
        <time>2018-03-25T07:15:53Z</time>
      </trkpt>
      <trkpt lat="46.63524" lon="3.84007">
        <ele>341.9</ele>
        <time>2018-03-25T07:15:54Z</time>
      </trkpt>
      <trkpt lat="46.63524" lon="3.84024">
        <ele>341.1</ele>
        <time>2018-03-25T07:15:55Z</time>
      </trkpt>
      <trkpt lat="46.63524" lon="3.84041">
        <ele>340.6</ele>
        <time>2018-03-25T07:15:56Z</time>
      </trkpt>
      <trkpt lat="46.63525" lon="3.84058">
        <ele>340.1</ele>
        <time>2018-03-25T07:15:57Z</time>
      </trkpt>
      <trkpt lat="46.63526" lon="3.84076">
        <ele>339.2</ele>
        <time>2018-03-25T07:15:58Z</time>
      </trkpt>
      <trkpt lat="46.63527" lon="3.84094">
        <ele>338.5</ele>
        <time>2018-03-25T07:15:59Z</time>
      </trkpt>
      <trkpt lat="46.63528" lon="3.84113">
        <ele>337.3</ele>
        <time>2018-03-25T07:16:00Z</time>
      </trkpt>
      <trkpt lat="46.63528" lon="3.84132">
        <ele>336.4</ele>
        <time>2018-03-25T07:16:01Z</time>
      </trkpt>
      <trkpt lat="46.63529" lon="3.84151">
        <ele>335</ele>
        <time>2018-03-25T07:16:02Z</time>
      </trkpt>
      <trkpt lat="46.63529" lon="3.8417">
        <ele>334</ele>
        <time>2018-03-25T07:16:03Z</time>
      </trkpt>
      <trkpt lat="46.63529" lon="3.84189">
        <ele>333.2</ele>
        <time>2018-03-25T07:16:04Z</time>
      </trkpt>
      <trkpt lat="46.63529" lon="3.84208">
        <ele>332.3</ele>
        <time>2018-03-25T07:16:05Z</time>
      </trkpt>
      <trkpt lat="46.63529" lon="3.84226">
        <ele>331.6</ele>
        <time>2018-03-25T07:16:06Z</time>
      </trkpt>
      <trkpt lat="46.63529" lon="3.84244">
        <ele>330.9</ele>
        <time>2018-03-25T07:16:07Z</time>
      </trkpt>
      <trkpt lat="46.63529" lon="3.84261">
        <ele>330.3</ele>
        <time>2018-03-25T07:16:08Z</time>
      </trkpt>
      <trkpt lat="46.63526" lon="3.84278">
        <ele>329.6</ele>
        <time>2018-03-25T07:16:09Z</time>
      </trkpt>
      <trkpt lat="46.63523" lon="3.84294">
        <ele>329.1</ele>
        <time>2018-03-25T07:16:10Z</time>
      </trkpt>
      <trkpt lat="46.63519" lon="3.84309">
        <ele>328.7</ele>
        <time>2018-03-25T07:16:11Z</time>
      </trkpt>
      <trkpt lat="46.63514" lon="3.84323">
        <ele>328.3</ele>
        <time>2018-03-25T07:16:12Z</time>
      </trkpt>
      <trkpt lat="46.6351" lon="3.84337">
        <ele>328</ele>
        <time>2018-03-25T07:16:13Z</time>
      </trkpt>
      <trkpt lat="46.63507" lon="3.84351">
        <ele>327.1</ele>
        <time>2018-03-25T07:16:14Z</time>
      </trkpt>
      <trkpt lat="46.63504" lon="3.84364">
        <ele>326.4</ele>
        <time>2018-03-25T07:16:15Z</time>
      </trkpt>
      <trkpt lat="46.63504" lon="3.84378">
        <ele>325.9</ele>
        <time>2018-03-25T07:16:16Z</time>
      </trkpt>
      <trkpt lat="46.63504" lon="3.84391">
        <ele>325.8</ele>
        <time>2018-03-25T07:16:17Z</time>
      </trkpt>
      <trkpt lat="46.63505" lon="3.84404">
        <ele>325.8</ele>
        <time>2018-03-25T07:16:18Z</time>
      </trkpt>
      <trkpt lat="46.63507" lon="3.84417">
        <ele>325.5</ele>
        <time>2018-03-25T07:16:19Z</time>
      </trkpt>
      <trkpt lat="46.63509" lon="3.84428">
        <ele>325.3</ele>
        <time>2018-03-25T07:16:20Z</time>
      </trkpt>
      <trkpt lat="46.63511" lon="3.84438">
        <ele>325.1</ele>
        <time>2018-03-25T07:16:21Z</time>
      </trkpt>
      <trkpt lat="46.63514" lon="3.84448">
        <ele>324.9</ele>
        <time>2018-03-25T07:16:22Z</time>
      </trkpt>
      <trkpt lat="46.63516" lon="3.84456">
        <ele>324.7</ele>
        <time>2018-03-25T07:16:23Z</time>
      </trkpt>
      <trkpt lat="46.63519" lon="3.84464">
        <ele>325</ele>
        <time>2018-03-25T07:16:24Z</time>
      </trkpt>
      <trkpt lat="46.63521" lon="3.84471">
        <ele>325.2</ele>
        <time>2018-03-25T07:16:25Z</time>
      </trkpt>
      <trkpt lat="46.63524" lon="3.84478">
        <ele>324.5</ele>
        <time>2018-03-25T07:16:26Z</time>
      </trkpt>
      <trkpt lat="46.63527" lon="3.84485">
        <ele>324</ele>
        <time>2018-03-25T07:16:27Z</time>
      </trkpt>
      <trkpt lat="46.63529" lon="3.84492">
        <ele>324.7</ele>
        <time>2018-03-25T07:16:28Z</time>
      </trkpt>
      <trkpt lat="46.63532" lon="3.84498">
        <ele>325.2</ele>
        <time>2018-03-25T07:16:29Z</time>
      </trkpt>
      <trkpt lat="46.63534" lon="3.84504">
        <ele>325.5</ele>
        <time>2018-03-25T07:16:30Z</time>
      </trkpt>
      <trkpt lat="46.63536" lon="3.8451">
        <ele>325.6</ele>
        <time>2018-03-25T07:16:31Z</time>
      </trkpt>
      <trkpt lat="46.63538" lon="3.84516">
        <ele>325.6</ele>
        <time>2018-03-25T07:16:32Z</time>
      </trkpt>
      <trkpt lat="46.63542" lon="3.84527">
        <ele>325.2</ele>
        <time>2018-03-25T07:16:34Z</time>
      </trkpt>
      <trkpt lat="46.63547" lon="3.84537">
        <ele>325.2</ele>
        <time>2018-03-25T07:16:36Z</time>
      </trkpt>
      <trkpt lat="46.63551" lon="3.84547">
        <ele>324.9</ele>
        <time>2018-03-25T07:16:38Z</time>
      </trkpt>
      <trkpt lat="46.63553" lon="3.84559">
        <ele>324.5</ele>
        <time>2018-03-25T07:16:40Z</time>
      </trkpt>
      <trkpt lat="46.63555" lon="3.8457">
        <ele>324.4</ele>
        <time>2018-03-25T07:16:42Z</time>
      </trkpt>
      <trkpt lat="46.63556" lon="3.84581">
        <ele>325</ele>
        <time>2018-03-25T07:16:44Z</time>
      </trkpt>
      <trkpt lat="46.63557" lon="3.84592">
        <ele>325.3</ele>
        <time>2018-03-25T07:16:46Z</time>
      </trkpt>
      <trkpt lat="46.63557" lon="3.84602">
        <ele>325.5</ele>
        <time>2018-03-25T07:16:48Z</time>
      </trkpt>
      <trkpt lat="46.63558" lon="3.84612">
        <ele>325.9</ele>
        <time>2018-03-25T07:16:50Z</time>
      </trkpt>
      <trkpt lat="46.63558" lon="3.84622">
        <ele>325.8</ele>
        <time>2018-03-25T07:16:52Z</time>
      </trkpt>
      <trkpt lat="46.63558" lon="3.84631">
        <ele>325.2</ele>
        <time>2018-03-25T07:16:54Z</time>
      </trkpt>
      <trkpt lat="46.63559" lon="3.84641">
        <ele>326.1</ele>
        <time>2018-03-25T07:16:56Z</time>
      </trkpt>
      <trkpt lat="46.6356" lon="3.8465">
        <ele>326.5</ele>
        <time>2018-03-25T07:16:58Z</time>
      </trkpt>
      <trkpt lat="46.6356" lon="3.84654">
        <ele>327.2</ele>
        <time>2018-03-25T07:16:59Z</time>
      </trkpt>
      <trkpt lat="46.6356" lon="3.84668">
        <ele>328.1</ele>
        <time>2018-03-25T07:17:02Z</time>
      </trkpt>
      <trkpt lat="46.63561" lon="3.84677">
        <ele>328.4</ele>
        <time>2018-03-25T07:17:04Z</time>
      </trkpt>
      <trkpt lat="46.63561" lon="3.8469">
        <ele>328.8</ele>
        <time>2018-03-25T07:17:07Z</time>
      </trkpt>
      <trkpt lat="46.63561" lon="3.84702">
        <ele>328.9</ele>
        <time>2018-03-25T07:17:10Z</time>
      </trkpt>
      <trkpt lat="46.63561" lon="3.84715">
        <ele>330</ele>
        <time>2018-03-25T07:17:13Z</time>
      </trkpt>
      <trkpt lat="46.63562" lon="3.84728">
        <ele>331.3</ele>
        <time>2018-03-25T07:17:16Z</time>
      </trkpt>
      <trkpt lat="46.63562" lon="3.8474">
        <ele>331.7</ele>
        <time>2018-03-25T07:17:19Z</time>
      </trkpt>
      <trkpt lat="46.63563" lon="3.84751">
        <ele>332.3</ele>
        <time>2018-03-25T07:17:22Z</time>
      </trkpt>
      <trkpt lat="46.63564" lon="3.84761">
        <ele>333.9</ele>
        <time>2018-03-25T07:17:25Z</time>
      </trkpt>
      <trkpt lat="46.63565" lon="3.84771">
        <ele>334.5</ele>
        <time>2018-03-25T07:17:28Z</time>
      </trkpt>
      <trkpt lat="46.63567" lon="3.84781">
        <ele>335.8</ele>
        <time>2018-03-25T07:17:31Z</time>
      </trkpt>
      <trkpt lat="46.63568" lon="3.8479">
        <ele>337.1</ele>
        <time>2018-03-25T07:17:34Z</time>
      </trkpt>
      <trkpt lat="46.63571" lon="3.84801">
        <ele>338.1</ele>
        <time>2018-03-25T07:17:38Z</time>
      </trkpt>
      <trkpt lat="46.63574" lon="3.84813">
        <ele>338.4</ele>
        <time>2018-03-25T07:17:42Z</time>
      </trkpt>
      <trkpt lat="46.63577" lon="3.84824">
        <ele>339</ele>
        <time>2018-03-25T07:17:46Z</time>
      </trkpt>
      <trkpt lat="46.6358" lon="3.84834">
        <ele>339.2</ele>
        <time>2018-03-25T07:17:50Z</time>
      </trkpt>
      <trkpt lat="46.63584" lon="3.84845">
        <ele>340.5</ele>
        <time>2018-03-25T07:17:54Z</time>
      </trkpt>
      <trkpt lat="46.63587" lon="3.84856">
        <ele>341.3</ele>
        <time>2018-03-25T07:17:58Z</time>
      </trkpt>
      <trkpt lat="46.63589" lon="3.84866">
        <ele>341.7</ele>
        <time>2018-03-25T07:18:01Z</time>
      </trkpt>
      <trkpt lat="46.6359" lon="3.84869">
        <ele>342.1</ele>
        <time>2018-03-25T07:18:02Z</time>
      </trkpt>
      <trkpt lat="46.63595" lon="3.8489">
        <ele>342.9</ele>
        <time>2018-03-25T07:18:09Z</time>
      </trkpt>
      <trkpt lat="46.63598" lon="3.84899">
        <ele>342.9</ele>
        <time>2018-03-25T07:18:12Z</time>
      </trkpt>
      <trkpt lat="46.63601" lon="3.84908">
        <ele>342.8</ele>
        <time>2018-03-25T07:18:15Z</time>
      </trkpt>
      <trkpt lat="46.63605" lon="3.84918">
        <ele>343.2</ele>
        <time>2018-03-25T07:18:18Z</time>
      </trkpt>
      <trkpt lat="46.63608" lon="3.84927">
        <ele>343.2</ele>
        <time>2018-03-25T07:18:21Z</time>
      </trkpt>
      <trkpt lat="46.63612" lon="3.84937">
        <ele>343.9</ele>
        <time>2018-03-25T07:18:24Z</time>
      </trkpt>
      <trkpt lat="46.63616" lon="3.84946">
        <ele>344.2</ele>
        <time>2018-03-25T07:18:27Z</time>
      </trkpt>
      <trkpt lat="46.63621" lon="3.84956">
        <ele>344.4</ele>
        <time>2018-03-25T07:18:30Z</time>
      </trkpt>
      <trkpt lat="46.63625" lon="3.84963">
        <ele>344.4</ele>
        <time>2018-03-25T07:18:32Z</time>
      </trkpt>
      <trkpt lat="46.63628" lon="3.84971">
        <ele>344.5</ele>
        <time>2018-03-25T07:18:34Z</time>
      </trkpt>
      <trkpt lat="46.63631" lon="3.84979">
        <ele>344.5</ele>
        <time>2018-03-25T07:18:36Z</time>
      </trkpt>
      <trkpt lat="46.63634" lon="3.84988">
        <ele>344.9</ele>
        <time>2018-03-25T07:18:38Z</time>
      </trkpt>
      <trkpt lat="46.63638" lon="3.84996">
        <ele>345.4</ele>
        <time>2018-03-25T07:18:40Z</time>
      </trkpt>
      <trkpt lat="46.63641" lon="3.85003">
        <ele>344.9</ele>
        <time>2018-03-25T07:18:42Z</time>
      </trkpt>
      <trkpt lat="46.63645" lon="3.8501">
        <ele>344.5</ele>
        <time>2018-03-25T07:18:44Z</time>
      </trkpt>
      <trkpt lat="46.63649" lon="3.85022">
        <ele>345.1</ele>
        <time>2018-03-25T07:18:47Z</time>
      </trkpt>
      <trkpt lat="46.63651" lon="3.8503">
        <ele>345.5</ele>
        <time>2018-03-25T07:18:49Z</time>
      </trkpt>
      <trkpt lat="46.63654" lon="3.85039">
        <ele>345.8</ele>
        <time>2018-03-25T07:18:51Z</time>
      </trkpt>
      <trkpt lat="46.63658" lon="3.85049">
        <ele>345.9</ele>
        <time>2018-03-25T07:18:53Z</time>
      </trkpt>
      <trkpt lat="46.6366" lon="3.85055">
        <ele>345.8</ele>
        <time>2018-03-25T07:18:54Z</time>
      </trkpt>
      <trkpt lat="46.63662" lon="3.85062">
        <ele>345.8</ele>
        <time>2018-03-25T07:18:55Z</time>
      </trkpt>
      <trkpt lat="46.63664" lon="3.85071">
        <ele>345.5</ele>
        <time>2018-03-25T07:18:56Z</time>
      </trkpt>
      <trkpt lat="46.63666" lon="3.85078">
        <ele>345.2</ele>
        <time>2018-03-25T07:18:57Z</time>
      </trkpt>
      <trkpt lat="46.63668" lon="3.85086">
        <ele>345.4</ele>
        <time>2018-03-25T07:18:58Z</time>
      </trkpt>
      <trkpt lat="46.6367" lon="3.85093">
        <ele>345.5</ele>
        <time>2018-03-25T07:18:59Z</time>
      </trkpt>
      <trkpt lat="46.63671" lon="3.851">
        <ele>345.6</ele>
        <time>2018-03-25T07:19:00Z</time>
      </trkpt>
      <trkpt lat="46.63673" lon="3.85105">
        <ele>345.2</ele>
        <time>2018-03-25T07:19:01Z</time>
      </trkpt>
      <trkpt lat="46.63675" lon="3.85112">
        <ele>345</ele>
        <time>2018-03-25T07:19:02Z</time>
      </trkpt>
      <trkpt lat="46.63677" lon="3.85118">
        <ele>345.1</ele>
        <time>2018-03-25T07:19:03Z</time>
      </trkpt>
      <trkpt lat="46.63678" lon="3.85124">
        <ele>345.3</ele>
        <time>2018-03-25T07:19:04Z</time>
      </trkpt>
      <trkpt lat="46.6368" lon="3.8513">
        <ele>344.9</ele>
        <time>2018-03-25T07:19:05Z</time>
      </trkpt>
      <trkpt lat="46.63686" lon="3.8514">
        <ele>344.3</ele>
        <time>2018-03-25T07:19:07Z</time>
      </trkpt>
      <trkpt lat="46.63693" lon="3.85147">
        <ele>344.6</ele>
        <time>2018-03-25T07:19:09Z</time>
      </trkpt>
      <trkpt lat="46.63699" lon="3.85148">
        <ele>345.1</ele>
        <time>2018-03-25T07:19:11Z</time>
      </trkpt>
      <trkpt lat="46.63707" lon="3.85147">
        <ele>345.3</ele>
        <time>2018-03-25T07:19:14Z</time>
      </trkpt>
      <trkpt lat="46.63714" lon="3.85144">
        <ele>346.1</ele>
        <time>2018-03-25T07:19:17Z</time>
      </trkpt>
      <trkpt lat="46.63721" lon="3.85138">
        <ele>346.3</ele>
        <time>2018-03-25T07:19:21Z</time>
      </trkpt>
      <trkpt lat="46.63728" lon="3.85131">
        <ele>347.7</ele>
        <time>2018-03-25T07:19:26Z</time>
      </trkpt>
      <trkpt lat="46.63734" lon="3.85124">
        <ele>348.9</ele>
        <time>2018-03-25T07:19:30Z</time>
      </trkpt>
      <trkpt lat="46.63739" lon="3.85116">
        <ele>350.6</ele>
        <time>2018-03-25T07:19:34Z</time>
      </trkpt>
      <trkpt lat="46.63745" lon="3.85108">
        <ele>351.1</ele>
        <time>2018-03-25T07:19:38Z</time>
      </trkpt>
      <trkpt lat="46.6375" lon="3.85098">
        <ele>351.8</ele>
        <time>2018-03-25T07:19:43Z</time>
      </trkpt>
      <trkpt lat="46.63756" lon="3.85092">
        <ele>353.5</ele>
        <time>2018-03-25T07:19:48Z</time>
      </trkpt>
      <trkpt lat="46.63763" lon="3.85091">
        <ele>354.6</ele>
        <time>2018-03-25T07:19:52Z</time>
      </trkpt>
      <trkpt lat="46.63772" lon="3.85092">
        <ele>356.1</ele>
        <time>2018-03-25T07:19:56Z</time>
      </trkpt>
      <trkpt lat="46.6378" lon="3.85088">
        <ele>358.4</ele>
        <time>2018-03-25T07:20:02Z</time>
      </trkpt>
      <trkpt lat="46.63787" lon="3.85081">
        <ele>359.7</ele>
        <time>2018-03-25T07:20:10Z</time>
      </trkpt>
      <trkpt lat="46.63787" lon="3.8508">
        <ele>359.8</ele>
        <time>2018-03-25T07:20:11Z</time>
      </trkpt>
      <trkpt lat="46.63781" lon="3.85058">
        <ele>363.5</ele>
        <time>2018-03-25T07:20:32Z</time>
      </trkpt>
      <trkpt lat="46.63778" lon="3.85046">
        <ele>365</ele>
        <time>2018-03-25T07:20:41Z</time>
      </trkpt>
      <trkpt lat="46.63775" lon="3.85035">
        <ele>367.6</ele>
        <time>2018-03-25T07:20:51Z</time>
      </trkpt>
      <trkpt lat="46.63774" lon="3.85022">
        <ele>369</ele>
        <time>2018-03-25T07:21:02Z</time>
      </trkpt>
      <trkpt lat="46.63773" lon="3.8501">
        <ele>371.3</ele>
        <time>2018-03-25T07:21:13Z</time>
      </trkpt>
      <trkpt lat="46.63773" lon="3.85009">
        <ele>371.2</ele>
        <time>2018-03-25T07:21:14Z</time>
      </trkpt>
      <trkpt lat="46.63771" lon="3.84986">
        <ele>374.2</ele>
        <time>2018-03-25T07:21:31Z</time>
      </trkpt>
      <trkpt lat="46.63771" lon="3.84974">
        <ele>376.1</ele>
        <time>2018-03-25T07:21:39Z</time>
      </trkpt>
      <trkpt lat="46.63771" lon="3.84961">
        <ele>377.3</ele>
        <time>2018-03-25T07:21:48Z</time>
      </trkpt>
      <trkpt lat="46.63774" lon="3.84949">
        <ele>379.1</ele>
        <time>2018-03-25T07:21:58Z</time>
      </trkpt>
      <trkpt lat="46.63776" lon="3.84938">
        <ele>381.1</ele>
        <time>2018-03-25T07:22:06Z</time>
      </trkpt>
      <trkpt lat="46.63781" lon="3.84927">
        <ele>381.9</ele>
        <time>2018-03-25T07:22:15Z</time>
      </trkpt>
      <trkpt lat="46.63782" lon="3.84926">
        <ele>382.1</ele>
        <time>2018-03-25T07:22:16Z</time>
      </trkpt>
      <trkpt lat="46.6379" lon="3.84907">
        <ele>384.4</ele>
        <time>2018-03-25T07:22:33Z</time>
      </trkpt>
      <trkpt lat="46.63796" lon="3.84898">
        <ele>386</ele>
        <time>2018-03-25T07:22:41Z</time>
      </trkpt>
      <trkpt lat="46.63803" lon="3.84892">
        <ele>387.6</ele>
        <time>2018-03-25T07:22:49Z</time>
      </trkpt>
      <trkpt lat="46.6381" lon="3.84885">
        <ele>387.8</ele>
        <time>2018-03-25T07:22:57Z</time>
      </trkpt>
      <trkpt lat="46.63817" lon="3.8488">
        <ele>388.4</ele>
        <time>2018-03-25T07:23:06Z</time>
      </trkpt>
      <trkpt lat="46.63825" lon="3.84875">
        <ele>390.5</ele>
        <time>2018-03-25T07:23:14Z</time>
      </trkpt>
      <trkpt lat="46.63834" lon="3.8487">
        <ele>391.9</ele>
        <time>2018-03-25T07:23:24Z</time>
      </trkpt>
      <trkpt lat="46.63835" lon="3.8487">
        <ele>392.4</ele>
        <time>2018-03-25T07:23:25Z</time>
      </trkpt>
      <trkpt lat="46.63848" lon="3.84858">
        <ele>392.8</ele>
        <time>2018-03-25T07:23:53Z</time>
      </trkpt>
      <trkpt lat="46.63856" lon="3.84856">
        <ele>395</ele>
        <time>2018-03-25T07:24:00Z</time>
      </trkpt>
      <trkpt lat="46.63864" lon="3.84856">
        <ele>396.3</ele>
        <time>2018-03-25T07:24:04Z</time>
      </trkpt>
      <trkpt lat="46.63872" lon="3.84856">
        <ele>396.2</ele>
        <time>2018-03-25T07:24:08Z</time>
      </trkpt>
      <trkpt lat="46.63881" lon="3.84855">
        <ele>397.1</ele>
        <time>2018-03-25T07:24:12Z</time>
      </trkpt>
      <trkpt lat="46.63889" lon="3.84853">
        <ele>397.4</ele>
        <time>2018-03-25T07:24:16Z</time>
      </trkpt>
      <trkpt lat="46.63898" lon="3.84851">
        <ele>397.7</ele>
        <time>2018-03-25T07:24:20Z</time>
      </trkpt>
      <trkpt lat="46.63905" lon="3.8485">
        <ele>398.5</ele>
        <time>2018-03-25T07:24:24Z</time>
      </trkpt>
      <trkpt lat="46.63912" lon="3.84849">
        <ele>398.9</ele>
        <time>2018-03-25T07:24:27Z</time>
      </trkpt>
      <trkpt lat="46.63914" lon="3.84848">
        <ele>399.1</ele>
        <time>2018-03-25T07:24:28Z</time>
      </trkpt>
      <trkpt lat="46.63929" lon="3.84845">
        <ele>400.3</ele>
        <time>2018-03-25T07:24:35Z</time>
      </trkpt>
      <trkpt lat="46.63937" lon="3.84845">
        <ele>400.5</ele>
        <time>2018-03-25T07:24:39Z</time>
      </trkpt>
      <trkpt lat="46.63945" lon="3.84844">
        <ele>401.2</ele>
        <time>2018-03-25T07:24:43Z</time>
      </trkpt>
      <trkpt lat="46.63952" lon="3.84845">
        <ele>402.3</ele>
        <time>2018-03-25T07:24:47Z</time>
      </trkpt>
      <trkpt lat="46.63961" lon="3.84845">
        <ele>403</ele>
        <time>2018-03-25T07:24:51Z</time>
      </trkpt>
      <trkpt lat="46.63967" lon="3.84845">
        <ele>402.8</ele>
        <time>2018-03-25T07:24:54Z</time>
      </trkpt>
      <trkpt lat="46.63975" lon="3.84846">
        <ele>403.2</ele>
        <time>2018-03-25T07:24:58Z</time>
      </trkpt>
      <trkpt lat="46.63984" lon="3.84845">
        <ele>404.1</ele>
        <time>2018-03-25T07:25:02Z</time>
      </trkpt>
      <trkpt lat="46.63992" lon="3.84844">
        <ele>404.3</ele>
        <time>2018-03-25T07:25:06Z</time>
      </trkpt>
      <trkpt lat="46.64" lon="3.84843">
        <ele>405</ele>
        <time>2018-03-25T07:25:09Z</time>
      </trkpt>
      <trkpt lat="46.64007" lon="3.84842">
        <ele>405.1</ele>
        <time>2018-03-25T07:25:12Z</time>
      </trkpt>
      <trkpt lat="46.64013" lon="3.8484">
        <ele>406.1</ele>
        <time>2018-03-25T07:25:15Z</time>
      </trkpt>
      <trkpt lat="46.64022" lon="3.84839">
        <ele>406</ele>
        <time>2018-03-25T07:25:19Z</time>
      </trkpt>
      <trkpt lat="46.6403" lon="3.84837">
        <ele>406.8</ele>
        <time>2018-03-25T07:25:23Z</time>
      </trkpt>
      <trkpt lat="46.64038" lon="3.84834">
        <ele>407.5</ele>
        <time>2018-03-25T07:25:27Z</time>
      </trkpt>
      <trkpt lat="46.64046" lon="3.84829">
        <ele>408.2</ele>
        <time>2018-03-25T07:25:31Z</time>
      </trkpt>
      <trkpt lat="46.64048" lon="3.84828">
        <ele>408</ele>
        <time>2018-03-25T07:25:32Z</time>
      </trkpt>
      <trkpt lat="46.6406" lon="3.84819">
        <ele>408.5</ele>
        <time>2018-03-25T07:25:38Z</time>
      </trkpt>
      <trkpt lat="46.64066" lon="3.84814">
        <ele>409</ele>
        <time>2018-03-25T07:25:41Z</time>
      </trkpt>
      <trkpt lat="46.64073" lon="3.84809">
        <ele>409.9</ele>
        <time>2018-03-25T07:25:44Z</time>
      </trkpt>
      <trkpt lat="46.64079" lon="3.84804">
        <ele>410.8</ele>
        <time>2018-03-25T07:25:48Z</time>
      </trkpt>
      <trkpt lat="46.64086" lon="3.84798">
        <ele>411.2</ele>
        <time>2018-03-25T07:25:52Z</time>
      </trkpt>
      <trkpt lat="46.64094" lon="3.8479">
        <ele>412.9</ele>
        <time>2018-03-25T07:25:57Z</time>
      </trkpt>
      <trkpt lat="46.641" lon="3.84785">
        <ele>413.5</ele>
        <time>2018-03-25T07:26:01Z</time>
      </trkpt>
      <trkpt lat="46.64107" lon="3.84779">
        <ele>413.2</ele>
        <time>2018-03-25T07:26:05Z</time>
      </trkpt>
      <trkpt lat="46.64114" lon="3.84773">
        <ele>414.6</ele>
        <time>2018-03-25T07:26:09Z</time>
      </trkpt>
      <trkpt lat="46.64121" lon="3.84766">
        <ele>416.3</ele>
        <time>2018-03-25T07:26:14Z</time>
      </trkpt>
      <trkpt lat="46.64128" lon="3.84761">
        <ele>417.3</ele>
        <time>2018-03-25T07:26:18Z</time>
      </trkpt>
      <trkpt lat="46.64136" lon="3.84757">
        <ele>418.1</ele>
        <time>2018-03-25T07:26:22Z</time>
      </trkpt>
      <trkpt lat="46.64142" lon="3.84752">
        <ele>418</ele>
        <time>2018-03-25T07:26:26Z</time>
      </trkpt>
      <trkpt lat="46.6415" lon="3.84746">
        <ele>419.2</ele>
        <time>2018-03-25T07:26:31Z</time>
      </trkpt>
      <trkpt lat="46.64157" lon="3.8474">
        <ele>420.3</ele>
        <time>2018-03-25T07:26:36Z</time>
      </trkpt>
      <trkpt lat="46.64159" lon="3.84739">
        <ele>421</ele>
        <time>2018-03-25T07:26:37Z</time>
      </trkpt>
      <trkpt lat="46.64172" lon="3.8473">
        <ele>423.3</ele>
        <time>2018-03-25T07:26:47Z</time>
      </trkpt>
      <trkpt lat="46.6418" lon="3.84726">
        <ele>424.2</ele>
        <time>2018-03-25T07:26:53Z</time>
      </trkpt>
      <trkpt lat="46.64187" lon="3.84722">
        <ele>425.2</ele>
        <time>2018-03-25T07:26:58Z</time>
      </trkpt>
      <trkpt lat="46.64194" lon="3.84719">
        <ele>426.1</ele>
        <time>2018-03-25T07:27:03Z</time>
      </trkpt>
      <trkpt lat="46.64202" lon="3.84715">
        <ele>427.1</ele>
        <time>2018-03-25T07:27:08Z</time>
      </trkpt>
      <trkpt lat="46.6421" lon="3.84713">
        <ele>427.1</ele>
        <time>2018-03-25T07:27:14Z</time>
      </trkpt>
      <trkpt lat="46.64218" lon="3.84711">
        <ele>428.9</ele>
        <time>2018-03-25T07:27:20Z</time>
      </trkpt>
      <trkpt lat="46.64226" lon="3.84709">
        <ele>429.7</ele>
        <time>2018-03-25T07:27:26Z</time>
      </trkpt>
      <trkpt lat="46.64233" lon="3.84708">
        <ele>431.1</ele>
        <time>2018-03-25T07:27:32Z</time>
      </trkpt>
      <trkpt lat="46.64242" lon="3.84706">
        <ele>431.5</ele>
        <time>2018-03-25T07:27:39Z</time>
      </trkpt>
      <trkpt lat="46.64243" lon="3.84705">
        <ele>431.6</ele>
        <time>2018-03-25T07:27:40Z</time>
      </trkpt>
      <trkpt lat="46.64259" lon="3.847">
        <ele>434.6</ele>
        <time>2018-03-25T07:27:53Z</time>
      </trkpt>
      <trkpt lat="46.64267" lon="3.84696">
        <ele>434.5</ele>
        <time>2018-03-25T07:28:00Z</time>
      </trkpt>
      <trkpt lat="46.64275" lon="3.8469">
        <ele>435.3</ele>
        <time>2018-03-25T07:28:08Z</time>
      </trkpt>
      <trkpt lat="46.64282" lon="3.84683">
        <ele>437.1</ele>
        <time>2018-03-25T07:28:15Z</time>
      </trkpt>
      <trkpt lat="46.6429" lon="3.84678">
        <ele>437.9</ele>
        <time>2018-03-25T07:28:22Z</time>
      </trkpt>
      <trkpt lat="46.64297" lon="3.84673">
        <ele>438.7</ele>
        <time>2018-03-25T07:28:29Z</time>
      </trkpt>
      <trkpt lat="46.64305" lon="3.84669">
        <ele>439.1</ele>
        <time>2018-03-25T07:28:36Z</time>
      </trkpt>
      <trkpt lat="46.64312" lon="3.84664">
        <ele>440.5</ele>
        <time>2018-03-25T07:28:43Z</time>
      </trkpt>
      <trkpt lat="46.64313" lon="3.84664">
        <ele>440.6</ele>
        <time>2018-03-25T07:28:44Z</time>
      </trkpt>
      <trkpt lat="46.64328" lon="3.84656">
        <ele>442.5</ele>
        <time>2018-03-25T07:28:57Z</time>
      </trkpt>
      <trkpt lat="46.64335" lon="3.84651">
        <ele>442.8</ele>
        <time>2018-03-25T07:29:03Z</time>
      </trkpt>
      <trkpt lat="46.64341" lon="3.84646">
        <ele>444.6</ele>
        <time>2018-03-25T07:29:11Z</time>
      </trkpt>
      <trkpt lat="46.64345" lon="3.84636">
        <ele>444.4</ele>
        <time>2018-03-25T07:29:15Z</time>
      </trkpt>
      <trkpt lat="46.64349" lon="3.84628">
        <ele>445</ele>
        <time>2018-03-25T07:29:18Z</time>
      </trkpt>
      <trkpt lat="46.64354" lon="3.84621">
        <ele>445</ele>
        <time>2018-03-25T07:29:21Z</time>
      </trkpt>
      <trkpt lat="46.64358" lon="3.84613">
        <ele>446.2</ele>
        <time>2018-03-25T07:29:24Z</time>
      </trkpt>
      <trkpt lat="46.64362" lon="3.84604">
        <ele>445.8</ele>
        <time>2018-03-25T07:29:27Z</time>
      </trkpt>
      <trkpt lat="46.64366" lon="3.84594">
        <ele>446.3</ele>
        <time>2018-03-25T07:29:30Z</time>
      </trkpt>
      <trkpt lat="46.6437" lon="3.84584">
        <ele>446.9</ele>
        <time>2018-03-25T07:29:33Z</time>
      </trkpt>
      <trkpt lat="46.64374" lon="3.84574">
        <ele>446.2</ele>
        <time>2018-03-25T07:29:36Z</time>
      </trkpt>
      <trkpt lat="46.64379" lon="3.84564">
        <ele>446.7</ele>
        <time>2018-03-25T07:29:39Z</time>
      </trkpt>
      <trkpt lat="46.64384" lon="3.84553">
        <ele>447.3</ele>
        <time>2018-03-25T07:29:42Z</time>
      </trkpt>
      <trkpt lat="46.64388" lon="3.84542">
        <ele>447.5</ele>
        <time>2018-03-25T07:29:45Z</time>
      </trkpt>
      <trkpt lat="46.6439" lon="3.84539">
        <ele>447.2</ele>
        <time>2018-03-25T07:29:46Z</time>
      </trkpt>
      <trkpt lat="46.64397" lon="3.84521">
        <ele>447.3</ele>
        <time>2018-03-25T07:29:51Z</time>
      </trkpt>
      <trkpt lat="46.644" lon="3.84511">
        <ele>447.4</ele>
        <time>2018-03-25T07:29:54Z</time>
      </trkpt>
      <trkpt lat="46.64404" lon="3.84502">
        <ele>447.7</ele>
        <time>2018-03-25T07:29:57Z</time>
      </trkpt>
      <trkpt lat="46.64409" lon="3.84492">
        <ele>447.9</ele>
        <time>2018-03-25T07:30:00Z</time>
      </trkpt>
      <trkpt lat="46.64413" lon="3.84482">
        <ele>447.8</ele>
        <time>2018-03-25T07:30:03Z</time>
      </trkpt>
      <trkpt lat="46.64417" lon="3.84472">
        <ele>447.5</ele>
        <time>2018-03-25T07:30:06Z</time>
      </trkpt>
      <trkpt lat="46.6442" lon="3.84463">
        <ele>447.6</ele>
        <time>2018-03-25T07:30:09Z</time>
      </trkpt>
      <trkpt lat="46.64423" lon="3.84452">
        <ele>448.3</ele>
        <time>2018-03-25T07:30:12Z</time>
      </trkpt>
      <trkpt lat="46.64424" lon="3.84441">
        <ele>449</ele>
        <time>2018-03-25T07:30:15Z</time>
      </trkpt>
      <trkpt lat="46.64425" lon="3.8443">
        <ele>449.6</ele>
        <time>2018-03-25T07:30:18Z</time>
      </trkpt>
      <trkpt lat="46.64427" lon="3.84419">
        <ele>450.1</ele>
        <time>2018-03-25T07:30:21Z</time>
      </trkpt>
      <trkpt lat="46.6443" lon="3.8441">
        <ele>450.5</ele>
        <time>2018-03-25T07:30:24Z</time>
      </trkpt>
      <trkpt lat="46.64433" lon="3.844">
        <ele>450.7</ele>
        <time>2018-03-25T07:30:27Z</time>
      </trkpt>
      <trkpt lat="46.64434" lon="3.84389">
        <ele>451.3</ele>
        <time>2018-03-25T07:30:30Z</time>
      </trkpt>
      <trkpt lat="46.64437" lon="3.84378">
        <ele>450.9</ele>
        <time>2018-03-25T07:30:33Z</time>
      </trkpt>
      <trkpt lat="46.64439" lon="3.84368">
        <ele>451.6</ele>
        <time>2018-03-25T07:30:36Z</time>
      </trkpt>
      <trkpt lat="46.64443" lon="3.84358">
        <ele>452.2</ele>
        <time>2018-03-25T07:30:39Z</time>
      </trkpt>
      <trkpt lat="46.64444" lon="3.84347">
        <ele>452.6</ele>
        <time>2018-03-25T07:30:42Z</time>
      </trkpt>
      <trkpt lat="46.64444" lon="3.84338">
        <ele>452.4</ele>
        <time>2018-03-25T07:30:44Z</time>
      </trkpt>
      <trkpt lat="46.64443" lon="3.84328">
        <ele>452.6</ele>
        <time>2018-03-25T07:30:46Z</time>
      </trkpt>
      <trkpt lat="46.64443" lon="3.84324">
        <ele>452.9</ele>
        <time>2018-03-25T07:30:47Z</time>
      </trkpt>
      <trkpt lat="46.64443" lon="3.84309">
        <ele>452.5</ele>
        <time>2018-03-25T07:30:50Z</time>
      </trkpt>
      <trkpt lat="46.64442" lon="3.843">
        <ele>452.5</ele>
        <time>2018-03-25T07:30:52Z</time>
      </trkpt>
      <trkpt lat="46.64441" lon="3.84291">
        <ele>452.7</ele>
        <time>2018-03-25T07:30:54Z</time>
      </trkpt>
      <trkpt lat="46.6444" lon="3.84279">
        <ele>451.7</ele>
        <time>2018-03-25T07:30:57Z</time>
      </trkpt>
      <trkpt lat="46.64439" lon="3.84267">
        <ele>452.4</ele>
        <time>2018-03-25T07:31:00Z</time>
      </trkpt>
      <trkpt lat="46.64437" lon="3.84258">
        <ele>452.5</ele>
        <time>2018-03-25T07:31:02Z</time>
      </trkpt>
      <trkpt lat="46.64435" lon="3.84246">
        <ele>453.5</ele>
        <time>2018-03-25T07:31:05Z</time>
      </trkpt>
      <trkpt lat="46.64433" lon="3.84233">
        <ele>454.3</ele>
        <time>2018-03-25T07:31:08Z</time>
      </trkpt>
      <trkpt lat="46.64431" lon="3.84225">
        <ele>454.3</ele>
        <time>2018-03-25T07:31:10Z</time>
      </trkpt>
      <trkpt lat="46.64428" lon="3.84213">
        <ele>454</ele>
        <time>2018-03-25T07:31:13Z</time>
      </trkpt>
      <trkpt lat="46.64425" lon="3.84205">
        <ele>454</ele>
        <time>2018-03-25T07:31:15Z</time>
      </trkpt>
      <trkpt lat="46.64423" lon="3.84197">
        <ele>454.4</ele>
        <time>2018-03-25T07:31:17Z</time>
      </trkpt>
      <trkpt lat="46.64418" lon="3.84185">
        <ele>455.3</ele>
        <time>2018-03-25T07:31:20Z</time>
      </trkpt>
      <trkpt lat="46.64414" lon="3.84175">
        <ele>455.9</ele>
        <time>2018-03-25T07:31:23Z</time>
      </trkpt>
      <trkpt lat="46.64409" lon="3.84165">
        <ele>455.4</ele>
        <time>2018-03-25T07:31:26Z</time>
      </trkpt>
      <trkpt lat="46.64405" lon="3.84159">
        <ele>455.3</ele>
        <time>2018-03-25T07:31:28Z</time>
      </trkpt>
      <trkpt lat="46.64401" lon="3.84152">
        <ele>455.4</ele>
        <time>2018-03-25T07:31:30Z</time>
      </trkpt>
      <trkpt lat="46.64396" lon="3.84144">
        <ele>456.1</ele>
        <time>2018-03-25T07:31:32Z</time>
      </trkpt>
      <trkpt lat="46.64392" lon="3.84136">
        <ele>456.5</ele>
        <time>2018-03-25T07:31:34Z</time>
      </trkpt>
      <trkpt lat="46.64389" lon="3.84128">
        <ele>456.5</ele>
        <time>2018-03-25T07:31:36Z</time>
      </trkpt>
      <trkpt lat="46.64387" lon="3.84119">
        <ele>456.4</ele>
        <time>2018-03-25T07:31:38Z</time>
      </trkpt>
      <trkpt lat="46.64386" lon="3.8411">
        <ele>456.6</ele>
        <time>2018-03-25T07:31:40Z</time>
      </trkpt>
      <trkpt lat="46.64385" lon="3.84101">
        <ele>456.7</ele>
        <time>2018-03-25T07:31:42Z</time>
      </trkpt>
      <trkpt lat="46.64384" lon="3.84089">
        <ele>456.5</ele>
        <time>2018-03-25T07:31:45Z</time>
      </trkpt>
      <trkpt lat="46.64382" lon="3.84078">
        <ele>456.4</ele>
        <time>2018-03-25T07:31:48Z</time>
      </trkpt>
      <trkpt lat="46.64382" lon="3.84074">
        <ele>456.5</ele>
        <time>2018-03-25T07:31:49Z</time>
      </trkpt>
      <trkpt lat="46.64379" lon="3.84058">
        <ele>456.9</ele>
        <time>2018-03-25T07:31:53Z</time>
      </trkpt>
      <trkpt lat="46.64378" lon="3.84049">
        <ele>456.8</ele>
        <time>2018-03-25T07:31:55Z</time>
      </trkpt>
      <trkpt lat="46.64376" lon="3.84036">
        <ele>456.9</ele>
        <time>2018-03-25T07:31:58Z</time>
      </trkpt>
      <trkpt lat="46.64375" lon="3.84028">
        <ele>456.8</ele>
        <time>2018-03-25T07:32:00Z</time>
      </trkpt>
      <trkpt lat="46.64374" lon="3.84018">
        <ele>456.7</ele>
        <time>2018-03-25T07:32:02Z</time>
      </trkpt>
      <trkpt lat="46.64372" lon="3.84008">
        <ele>457.1</ele>
        <time>2018-03-25T07:32:04Z</time>
      </trkpt>
      <trkpt lat="46.64371" lon="3.83996">
        <ele>456.8</ele>
        <time>2018-03-25T07:32:07Z</time>
      </trkpt>
      <trkpt lat="46.64369" lon="3.83987">
        <ele>456.4</ele>
        <time>2018-03-25T07:32:09Z</time>
      </trkpt>
      <trkpt lat="46.64367" lon="3.83974">
        <ele>456.2</ele>
        <time>2018-03-25T07:32:12Z</time>
      </trkpt>
      <trkpt lat="46.64364" lon="3.83963">
        <ele>456</ele>
        <time>2018-03-25T07:32:15Z</time>
      </trkpt>
      <trkpt lat="46.64362" lon="3.83955">
        <ele>456.1</ele>
        <time>2018-03-25T07:32:17Z</time>
      </trkpt>
      <trkpt lat="46.64359" lon="3.83946">
        <ele>456.5</ele>
        <time>2018-03-25T07:32:19Z</time>
      </trkpt>
      <trkpt lat="46.64356" lon="3.83937">
        <ele>456.9</ele>
        <time>2018-03-25T07:32:21Z</time>
      </trkpt>
      <trkpt lat="46.64353" lon="3.83927">
        <ele>457</ele>
        <time>2018-03-25T07:32:23Z</time>
      </trkpt>
      <trkpt lat="46.64351" lon="3.83917">
        <ele>457</ele>
        <time>2018-03-25T07:32:25Z</time>
      </trkpt>
      <trkpt lat="46.64353" lon="3.83905">
        <ele>456.8</ele>
        <time>2018-03-25T07:32:28Z</time>
      </trkpt>
      <trkpt lat="46.6436" lon="3.83897">
        <ele>456.8</ele>
        <time>2018-03-25T07:35:25Z</time>
      </trkpt>
      <trkpt lat="46.64361" lon="3.83898">
        <ele>456.5</ele>
        <time>2018-03-25T07:35:26Z</time>
      </trkpt>
      <trkpt lat="46.64363" lon="3.83876">
        <ele>457.7</ele>
        <time>2018-03-25T07:35:35Z</time>
      </trkpt>
      <trkpt lat="46.64356" lon="3.83868">
        <ele>459.5</ele>
        <time>2018-03-25T07:35:42Z</time>
      </trkpt>
      <trkpt lat="46.64349" lon="3.8386">
        <ele>461.4</ele>
        <time>2018-03-25T07:35:49Z</time>
      </trkpt>
      <trkpt lat="46.64343" lon="3.83856">
        <ele>461.9</ele>
        <time>2018-03-25T07:35:53Z</time>
      </trkpt>
      <trkpt lat="46.64336" lon="3.83849">
        <ele>462.4</ele>
        <time>2018-03-25T07:35:56Z</time>
      </trkpt>
      <trkpt lat="46.64331" lon="3.83843">
        <ele>461.2</ele>
        <time>2018-03-25T07:35:58Z</time>
      </trkpt>
      <trkpt lat="46.64325" lon="3.83837">
        <ele>460.1</ele>
        <time>2018-03-25T07:36:00Z</time>
      </trkpt>
      <trkpt lat="46.64319" lon="3.83831">
        <ele>458.7</ele>
        <time>2018-03-25T07:36:02Z</time>
      </trkpt>
      <trkpt lat="46.64315" lon="3.83828">
        <ele>458.2</ele>
        <time>2018-03-25T07:36:03Z</time>
      </trkpt>
      <trkpt lat="46.6431" lon="3.83825">
        <ele>457.6</ele>
        <time>2018-03-25T07:36:04Z</time>
      </trkpt>
      <trkpt lat="46.64303" lon="3.83819">
        <ele>456.1</ele>
        <time>2018-03-25T07:36:06Z</time>
      </trkpt>
      <trkpt lat="46.64299" lon="3.83815">
        <ele>455.3</ele>
        <time>2018-03-25T07:36:07Z</time>
      </trkpt>
      <trkpt lat="46.64294" lon="3.8381">
        <ele>454.7</ele>
        <time>2018-03-25T07:36:08Z</time>
      </trkpt>
      <trkpt lat="46.64289" lon="3.83805">
        <ele>454.1</ele>
        <time>2018-03-25T07:36:09Z</time>
      </trkpt>
      <trkpt lat="46.64283" lon="3.838">
        <ele>453.8</ele>
        <time>2018-03-25T07:36:10Z</time>
      </trkpt>
      <trkpt lat="46.64278" lon="3.83795">
        <ele>452.9</ele>
        <time>2018-03-25T07:36:11Z</time>
      </trkpt>
      <trkpt lat="46.64274" lon="3.83792">
        <ele>452.3</ele>
        <time>2018-03-25T07:36:12Z</time>
      </trkpt>
      <trkpt lat="46.64269" lon="3.83789">
        <ele>451.3</ele>
        <time>2018-03-25T07:36:13Z</time>
      </trkpt>
      <trkpt lat="46.64263" lon="3.83785">
        <ele>450.5</ele>
        <time>2018-03-25T07:36:14Z</time>
      </trkpt>
      <trkpt lat="46.64259" lon="3.83782">
        <ele>449.9</ele>
        <time>2018-03-25T07:36:15Z</time>
      </trkpt>
      <trkpt lat="46.64254" lon="3.83779">
        <ele>448.9</ele>
        <time>2018-03-25T07:36:16Z</time>
      </trkpt>
      <trkpt lat="46.64248" lon="3.83774">
        <ele>448.1</ele>
        <time>2018-03-25T07:36:17Z</time>
      </trkpt>
      <trkpt lat="46.64242" lon="3.8377">
        <ele>447.2</ele>
        <time>2018-03-25T07:36:18Z</time>
      </trkpt>
      <trkpt lat="46.64236" lon="3.83764">
        <ele>446.6</ele>
        <time>2018-03-25T07:36:19Z</time>
      </trkpt>
      <trkpt lat="46.6423" lon="3.83759">
        <ele>445.5</ele>
        <time>2018-03-25T07:36:20Z</time>
      </trkpt>
      <trkpt lat="46.64225" lon="3.83755">
        <ele>444.7</ele>
        <time>2018-03-25T07:36:21Z</time>
      </trkpt>
      <trkpt lat="46.64219" lon="3.83751">
        <ele>444.1</ele>
        <time>2018-03-25T07:36:22Z</time>
      </trkpt>
      <trkpt lat="46.64214" lon="3.83747">
        <ele>442.7</ele>
        <time>2018-03-25T07:36:23Z</time>
      </trkpt>
      <trkpt lat="46.64207" lon="3.83742">
        <ele>441.7</ele>
        <time>2018-03-25T07:36:24Z</time>
      </trkpt>
      <trkpt lat="46.642" lon="3.83738">
        <ele>439.8</ele>
        <time>2018-03-25T07:36:25Z</time>
      </trkpt>
      <trkpt lat="46.64193" lon="3.83732">
        <ele>438.5</ele>
        <time>2018-03-25T07:36:26Z</time>
      </trkpt>
      <trkpt lat="46.64186" lon="3.83727">
        <ele>437.4</ele>
        <time>2018-03-25T07:36:27Z</time>
      </trkpt>
      <trkpt lat="46.6418" lon="3.83722">
        <ele>435.9</ele>
        <time>2018-03-25T07:36:28Z</time>
      </trkpt>
      <trkpt lat="46.64174" lon="3.83717">
        <ele>434.8</ele>
        <time>2018-03-25T07:36:29Z</time>
      </trkpt>
      <trkpt lat="46.64168" lon="3.83712">
        <ele>432.9</ele>
        <time>2018-03-25T07:36:30Z</time>
      </trkpt>
      <trkpt lat="46.64161" lon="3.83707">
        <ele>431.6</ele>
        <time>2018-03-25T07:36:31Z</time>
      </trkpt>
      <trkpt lat="46.64156" lon="3.83703">
        <ele>430</ele>
        <time>2018-03-25T07:36:32Z</time>
      </trkpt>
      <trkpt lat="46.64151" lon="3.83694">
        <ele>428</ele>
        <time>2018-03-25T07:36:34Z</time>
      </trkpt>
      <trkpt lat="46.64152" lon="3.83683">
        <ele>425.2</ele>
        <time>2018-03-25T07:36:36Z</time>
      </trkpt>
      <trkpt lat="46.64153" lon="3.83677">
        <ele>424.4</ele>
        <time>2018-03-25T07:36:37Z</time>
      </trkpt>
      <trkpt lat="46.64155" lon="3.8367">
        <ele>423.9</ele>
        <time>2018-03-25T07:36:38Z</time>
      </trkpt>
      <trkpt lat="46.64156" lon="3.83662">
        <ele>422.9</ele>
        <time>2018-03-25T07:36:39Z</time>
      </trkpt>
      <trkpt lat="46.64157" lon="3.83656">
        <ele>422.1</ele>
        <time>2018-03-25T07:36:40Z</time>
      </trkpt>
      <trkpt lat="46.64158" lon="3.83648">
        <ele>421.6</ele>
        <time>2018-03-25T07:36:41Z</time>
      </trkpt>
      <trkpt lat="46.64159" lon="3.83639">
        <ele>421</ele>
        <time>2018-03-25T07:36:42Z</time>
      </trkpt>
      <trkpt lat="46.64159" lon="3.83628">
        <ele>420.6</ele>
        <time>2018-03-25T07:36:43Z</time>
      </trkpt>
      <trkpt lat="46.64159" lon="3.83617">
        <ele>419.7</ele>
        <time>2018-03-25T07:36:44Z</time>
      </trkpt>
      <trkpt lat="46.6416" lon="3.83604">
        <ele>418.9</ele>
        <time>2018-03-25T07:36:45Z</time>
      </trkpt>
      <trkpt lat="46.64162" lon="3.83591">
        <ele>418.4</ele>
        <time>2018-03-25T07:36:46Z</time>
      </trkpt>
      <trkpt lat="46.64164" lon="3.83579">
        <ele>416.8</ele>
        <time>2018-03-25T07:36:47Z</time>
      </trkpt>
      <trkpt lat="46.64166" lon="3.83568">
        <ele>415.6</ele>
        <time>2018-03-25T07:36:48Z</time>
      </trkpt>
      <trkpt lat="46.64167" lon="3.83559">
        <ele>413.9</ele>
        <time>2018-03-25T07:36:49Z</time>
      </trkpt>
      <trkpt lat="46.64168" lon="3.83548">
        <ele>412.7</ele>
        <time>2018-03-25T07:36:50Z</time>
      </trkpt>
      <trkpt lat="46.6417" lon="3.83537">
        <ele>410.6</ele>
        <time>2018-03-25T07:36:51Z</time>
      </trkpt>
      <trkpt lat="46.64173" lon="3.83526">
        <ele>409.1</ele>
        <time>2018-03-25T07:36:52Z</time>
      </trkpt>
      <trkpt lat="46.64177" lon="3.83515">
        <ele>407.9</ele>
        <time>2018-03-25T07:36:53Z</time>
      </trkpt>
      <trkpt lat="46.64179" lon="3.83503">
        <ele>406.3</ele>
        <time>2018-03-25T07:36:54Z</time>
      </trkpt>
      <trkpt lat="46.6418" lon="3.83491">
        <ele>405</ele>
        <time>2018-03-25T07:36:55Z</time>
      </trkpt>
      <trkpt lat="46.64181" lon="3.8348">
        <ele>404.2</ele>
        <time>2018-03-25T07:36:56Z</time>
      </trkpt>
      <trkpt lat="46.64181" lon="3.83469">
        <ele>403.5</ele>
        <time>2018-03-25T07:36:57Z</time>
      </trkpt>
      <trkpt lat="46.6418" lon="3.83458">
        <ele>401.5</ele>
        <time>2018-03-25T07:36:58Z</time>
      </trkpt>
      <trkpt lat="46.64178" lon="3.83447">
        <ele>400</ele>
        <time>2018-03-25T07:36:59Z</time>
      </trkpt>
      <trkpt lat="46.64177" lon="3.83437">
        <ele>398.8</ele>
        <time>2018-03-25T07:37:00Z</time>
      </trkpt>
      <trkpt lat="46.64176" lon="3.83431">
        <ele>397.4</ele>
        <time>2018-03-25T07:37:01Z</time>
      </trkpt>
      <trkpt lat="46.64174" lon="3.8342">
        <ele>394.3</ele>
        <time>2018-03-25T07:37:03Z</time>
      </trkpt>
      <trkpt lat="46.6418" lon="3.8341">
        <ele>388.9</ele>
        <time>2018-03-25T07:37:11Z</time>
      </trkpt>
      <trkpt lat="46.64186" lon="3.83401">
        <ele>391.3</ele>
        <time>2018-03-25T07:37:22Z</time>
      </trkpt>
      <trkpt lat="46.64195" lon="3.83397">
        <ele>393.8</ele>
        <time>2018-03-25T07:37:31Z</time>
      </trkpt>
      <trkpt lat="46.64196" lon="3.83396">
        <ele>394.1</ele>
        <time>2018-03-25T07:37:32Z</time>
      </trkpt>
      <trkpt lat="46.64211" lon="3.83399">
        <ele>397</ele>
        <time>2018-03-25T07:37:46Z</time>
      </trkpt>
      <trkpt lat="46.6422" lon="3.83401">
        <ele>398.2</ele>
        <time>2018-03-25T07:37:56Z</time>
      </trkpt>
      <trkpt lat="46.64228" lon="3.83402">
        <ele>398.6</ele>
        <time>2018-03-25T07:38:02Z</time>
      </trkpt>
      <trkpt lat="46.64235" lon="3.83408">
        <ele>399.1</ele>
        <time>2018-03-25T07:38:08Z</time>
      </trkpt>
      <trkpt lat="46.64243" lon="3.8341">
        <ele>400</ele>
        <time>2018-03-25T07:38:12Z</time>
      </trkpt>
      <trkpt lat="46.64251" lon="3.83413">
        <ele>399.8</ele>
        <time>2018-03-25T07:38:16Z</time>
      </trkpt>
      <trkpt lat="46.64259" lon="3.83416">
        <ele>401.5</ele>
        <time>2018-03-25T07:38:20Z</time>
      </trkpt>
      <trkpt lat="46.64267" lon="3.83421">
        <ele>401.9</ele>
        <time>2018-03-25T07:38:24Z</time>
      </trkpt>
      <trkpt lat="46.64273" lon="3.83425">
        <ele>402.5</ele>
        <time>2018-03-25T07:38:27Z</time>
      </trkpt>
      <trkpt lat="46.6428" lon="3.8343">
        <ele>402.2</ele>
        <time>2018-03-25T07:38:30Z</time>
      </trkpt>
      <trkpt lat="46.64285" lon="3.83434">
        <ele>402.3</ele>
        <time>2018-03-25T07:38:32Z</time>
      </trkpt>
      <trkpt lat="46.64288" lon="3.83437">
        <ele>402.4</ele>
        <time>2018-03-25T07:38:33Z</time>
      </trkpt>
      <trkpt lat="46.64297" lon="3.83444">
        <ele>402.4</ele>
        <time>2018-03-25T07:38:36Z</time>
      </trkpt>
      <trkpt lat="46.64304" lon="3.83452">
        <ele>402.7</ele>
        <time>2018-03-25T07:38:39Z</time>
      </trkpt>
      <trkpt lat="46.64311" lon="3.83459">
        <ele>402.8</ele>
        <time>2018-03-25T07:38:42Z</time>
      </trkpt>
      <trkpt lat="46.64317" lon="3.83466">
        <ele>403.1</ele>
        <time>2018-03-25T07:38:45Z</time>
      </trkpt>
      <trkpt lat="46.64324" lon="3.83474">
        <ele>402.9</ele>
        <time>2018-03-25T07:38:48Z</time>
      </trkpt>
      <trkpt lat="46.6433" lon="3.8348">
        <ele>403.3</ele>
        <time>2018-03-25T07:38:51Z</time>
      </trkpt>
      <trkpt lat="46.64338" lon="3.83485">
        <ele>405</ele>
        <time>2018-03-25T07:38:54Z</time>
      </trkpt>
      <trkpt lat="46.64344" lon="3.83488">
        <ele>404.5</ele>
        <time>2018-03-25T07:38:56Z</time>
      </trkpt>
      <trkpt lat="46.64351" lon="3.8349">
        <ele>404.8</ele>
        <time>2018-03-25T07:38:58Z</time>
      </trkpt>
      <trkpt lat="46.64357" lon="3.83493">
        <ele>404.7</ele>
        <time>2018-03-25T07:39:00Z</time>
      </trkpt>
      <trkpt lat="46.64363" lon="3.83495">
        <ele>404.8</ele>
        <time>2018-03-25T07:39:02Z</time>
      </trkpt>
      <trkpt lat="46.6437" lon="3.83497">
        <ele>404.5</ele>
        <time>2018-03-25T07:39:04Z</time>
      </trkpt>
      <trkpt lat="46.64376" lon="3.83498">
        <ele>404</ele>
        <time>2018-03-25T07:39:06Z</time>
      </trkpt>
      <trkpt lat="46.64384" lon="3.835">
        <ele>404.7</ele>
        <time>2018-03-25T07:39:08Z</time>
      </trkpt>
      <trkpt lat="46.64393" lon="3.83502">
        <ele>404.5</ele>
        <time>2018-03-25T07:39:10Z</time>
      </trkpt>
      <trkpt lat="46.64402" lon="3.83504">
        <ele>404.6</ele>
        <time>2018-03-25T07:39:12Z</time>
      </trkpt>
      <trkpt lat="46.6441" lon="3.83508">
        <ele>404.3</ele>
        <time>2018-03-25T07:39:14Z</time>
      </trkpt>
      <trkpt lat="46.64417" lon="3.83512">
        <ele>403.7</ele>
        <time>2018-03-25T07:39:16Z</time>
      </trkpt>
      <trkpt lat="46.64424" lon="3.83515">
        <ele>403.2</ele>
        <time>2018-03-25T07:39:18Z</time>
      </trkpt>
      <trkpt lat="46.64431" lon="3.83517">
        <ele>402.4</ele>
        <time>2018-03-25T07:39:20Z</time>
      </trkpt>
      <trkpt lat="46.64439" lon="3.83518">
        <ele>402.8</ele>
        <time>2018-03-25T07:39:22Z</time>
      </trkpt>
      <trkpt lat="46.64447" lon="3.83519">
        <ele>402.7</ele>
        <time>2018-03-25T07:39:24Z</time>
      </trkpt>
      <trkpt lat="46.64455" lon="3.83519">
        <ele>402.7</ele>
        <time>2018-03-25T07:39:26Z</time>
      </trkpt>
      <trkpt lat="46.64464" lon="3.83519">
        <ele>402.7</ele>
        <time>2018-03-25T07:39:28Z</time>
      </trkpt>
      <trkpt lat="46.64472" lon="3.8352">
        <ele>402.5</ele>
        <time>2018-03-25T07:39:30Z</time>
      </trkpt>
      <trkpt lat="46.6448" lon="3.83521">
        <ele>402.4</ele>
        <time>2018-03-25T07:39:32Z</time>
      </trkpt>
      <trkpt lat="46.64487" lon="3.83522">
        <ele>403</ele>
        <time>2018-03-25T07:39:34Z</time>
      </trkpt>
      <trkpt lat="46.64491" lon="3.83523">
        <ele>403.1</ele>
        <time>2018-03-25T07:39:35Z</time>
      </trkpt>
      <trkpt lat="46.64503" lon="3.83526">
        <ele>403.1</ele>
        <time>2018-03-25T07:39:38Z</time>
      </trkpt>
      <trkpt lat="46.64511" lon="3.83528">
        <ele>403.4</ele>
        <time>2018-03-25T07:39:40Z</time>
      </trkpt>
      <trkpt lat="46.64517" lon="3.8353">
        <ele>403.9</ele>
        <time>2018-03-25T07:39:42Z</time>
      </trkpt>
      <trkpt lat="46.64524" lon="3.83531">
        <ele>404.2</ele>
        <time>2018-03-25T07:39:44Z</time>
      </trkpt>
      <trkpt lat="46.64532" lon="3.83533">
        <ele>404.2</ele>
        <time>2018-03-25T07:39:47Z</time>
      </trkpt>
      <trkpt lat="46.6454" lon="3.83535">
        <ele>404.9</ele>
        <time>2018-03-25T07:39:50Z</time>
      </trkpt>
      <trkpt lat="46.64546" lon="3.83537">
        <ele>404.7</ele>
        <time>2018-03-25T07:39:52Z</time>
      </trkpt>
      <trkpt lat="46.64552" lon="3.83539">
        <ele>404.5</ele>
        <time>2018-03-25T07:39:54Z</time>
      </trkpt>
      <trkpt lat="46.64559" lon="3.83541">
        <ele>404.7</ele>
        <time>2018-03-25T07:39:56Z</time>
      </trkpt>
      <trkpt lat="46.64566" lon="3.83544">
        <ele>404.9</ele>
        <time>2018-03-25T07:39:58Z</time>
      </trkpt>
      <trkpt lat="46.64572" lon="3.83546">
        <ele>404.8</ele>
        <time>2018-03-25T07:40:00Z</time>
      </trkpt>
      <trkpt lat="46.64581" lon="3.83549">
        <ele>405.1</ele>
        <time>2018-03-25T07:40:03Z</time>
      </trkpt>
      <trkpt lat="46.64587" lon="3.8355">
        <ele>405.8</ele>
        <time>2018-03-25T07:40:05Z</time>
      </trkpt>
      <trkpt lat="46.64594" lon="3.8355">
        <ele>405.9</ele>
        <time>2018-03-25T07:40:07Z</time>
      </trkpt>
      <trkpt lat="46.64601" lon="3.83551">
        <ele>406.2</ele>
        <time>2018-03-25T07:40:09Z</time>
      </trkpt>
      <trkpt lat="46.64609" lon="3.8355">
        <ele>406.3</ele>
        <time>2018-03-25T07:40:11Z</time>
      </trkpt>
      <trkpt lat="46.64617" lon="3.8355">
        <ele>406.1</ele>
        <time>2018-03-25T07:40:13Z</time>
      </trkpt>
      <trkpt lat="46.64625" lon="3.83549">
        <ele>405.9</ele>
        <time>2018-03-25T07:40:15Z</time>
      </trkpt>
      <trkpt lat="46.64634" lon="3.8355">
        <ele>406</ele>
        <time>2018-03-25T07:40:17Z</time>
      </trkpt>
      <trkpt lat="46.64642" lon="3.8355">
        <ele>405.3</ele>
        <time>2018-03-25T07:40:19Z</time>
      </trkpt>
      <trkpt lat="46.64651" lon="3.83551">
        <ele>405.4</ele>
        <time>2018-03-25T07:40:22Z</time>
      </trkpt>
      <trkpt lat="46.64659" lon="3.83554">
        <ele>404.1</ele>
        <time>2018-03-25T07:40:29Z</time>
      </trkpt>
      <trkpt lat="46.64668" lon="3.83555">
        <ele>404.9</ele>
        <time>2018-03-25T07:40:33Z</time>
      </trkpt>
      <trkpt lat="46.64676" lon="3.83559">
        <ele>405.1</ele>
        <time>2018-03-25T07:40:36Z</time>
      </trkpt>
      <trkpt lat="46.64679" lon="3.8356">
        <ele>405.1</ele>
        <time>2018-03-25T07:40:37Z</time>
      </trkpt>
      <trkpt lat="46.64689" lon="3.83566">
        <ele>404.8</ele>
        <time>2018-03-25T07:40:41Z</time>
      </trkpt>
      <trkpt lat="46.64696" lon="3.83571">
        <ele>405.9</ele>
        <time>2018-03-25T07:40:44Z</time>
      </trkpt>
      <trkpt lat="46.64704" lon="3.83575">
        <ele>406.8</ele>
        <time>2018-03-25T07:40:47Z</time>
      </trkpt>
      <trkpt lat="46.6471" lon="3.8358">
        <ele>407.1</ele>
        <time>2018-03-25T07:40:50Z</time>
      </trkpt>
      <trkpt lat="46.64716" lon="3.83585">
        <ele>407.4</ele>
        <time>2018-03-25T07:40:53Z</time>
      </trkpt>
      <trkpt lat="46.64722" lon="3.83591">
        <ele>407.8</ele>
        <time>2018-03-25T07:40:56Z</time>
      </trkpt>
      <trkpt lat="46.64728" lon="3.83599">
        <ele>407.9</ele>
        <time>2018-03-25T07:40:59Z</time>
      </trkpt>
      <trkpt lat="46.64735" lon="3.83603">
        <ele>408.7</ele>
        <time>2018-03-25T07:41:02Z</time>
      </trkpt>
      <trkpt lat="46.64742" lon="3.83608">
        <ele>409.8</ele>
        <time>2018-03-25T07:41:06Z</time>
      </trkpt>
      <trkpt lat="46.64749" lon="3.83614">
        <ele>409.6</ele>
        <time>2018-03-25T07:41:09Z</time>
      </trkpt>
      <trkpt lat="46.64754" lon="3.8362">
        <ele>410.1</ele>
        <time>2018-03-25T07:41:12Z</time>
      </trkpt>
      <trkpt lat="46.64758" lon="3.83626">
        <ele>410.2</ele>
        <time>2018-03-25T07:41:14Z</time>
      </trkpt>
      <trkpt lat="46.64763" lon="3.83632">
        <ele>411.1</ele>
        <time>2018-03-25T07:41:16Z</time>
      </trkpt>
      <trkpt lat="46.64769" lon="3.83639">
        <ele>410.8</ele>
        <time>2018-03-25T07:41:19Z</time>
      </trkpt>
      <trkpt lat="46.64774" lon="3.83645">
        <ele>411.5</ele>
        <time>2018-03-25T07:41:22Z</time>
      </trkpt>
      <trkpt lat="46.64782" lon="3.83652">
        <ele>411.8</ele>
        <time>2018-03-25T07:41:25Z</time>
      </trkpt>
      <trkpt lat="46.64789" lon="3.83658">
        <ele>412</ele>
        <time>2018-03-25T07:41:28Z</time>
      </trkpt>
      <trkpt lat="46.64796" lon="3.83665">
        <ele>413.2</ele>
        <time>2018-03-25T07:41:32Z</time>
      </trkpt>
      <trkpt lat="46.64804" lon="3.83669">
        <ele>413.6</ele>
        <time>2018-03-25T07:41:36Z</time>
      </trkpt>
      <trkpt lat="46.64811" lon="3.83673">
        <ele>413.6</ele>
        <time>2018-03-25T07:41:39Z</time>
      </trkpt>
      <trkpt lat="46.64814" lon="3.83675">
        <ele>413.7</ele>
        <time>2018-03-25T07:41:40Z</time>
      </trkpt>
      <trkpt lat="46.64825" lon="3.83681">
        <ele>414.9</ele>
        <time>2018-03-25T07:41:45Z</time>
      </trkpt>
      <trkpt lat="46.64831" lon="3.83684">
        <ele>415.3</ele>
        <time>2018-03-25T07:41:47Z</time>
      </trkpt>
      <trkpt lat="46.64838" lon="3.83686">
        <ele>415</ele>
        <time>2018-03-25T07:41:49Z</time>
      </trkpt>
      <trkpt lat="46.64844" lon="3.83688">
        <ele>415.2</ele>
        <time>2018-03-25T07:41:51Z</time>
      </trkpt>
      <trkpt lat="46.64851" lon="3.83688">
        <ele>415.4</ele>
        <time>2018-03-25T07:41:53Z</time>
      </trkpt>
      <trkpt lat="46.64859" lon="3.83688">
        <ele>415.6</ele>
        <time>2018-03-25T07:41:56Z</time>
      </trkpt>
      <trkpt lat="46.64865" lon="3.83688">
        <ele>416</ele>
        <time>2018-03-25T07:41:58Z</time>
      </trkpt>
      <trkpt lat="46.64874" lon="3.83689">
        <ele>416.5</ele>
        <time>2018-03-25T07:42:01Z</time>
      </trkpt>
      <trkpt lat="46.64881" lon="3.8369">
        <ele>417.1</ele>
        <time>2018-03-25T07:42:04Z</time>
      </trkpt>
      <trkpt lat="46.64888" lon="3.83692">
        <ele>416.4</ele>
        <time>2018-03-25T07:42:07Z</time>
      </trkpt>
      <trkpt lat="46.64896" lon="3.83693">
        <ele>416.2</ele>
        <time>2018-03-25T07:42:10Z</time>
      </trkpt>
      <trkpt lat="46.64903" lon="3.83695">
        <ele>416.2</ele>
        <time>2018-03-25T07:42:13Z</time>
      </trkpt>
      <trkpt lat="46.6491" lon="3.83697">
        <ele>416.7</ele>
        <time>2018-03-25T07:42:16Z</time>
      </trkpt>
      <trkpt lat="46.64918" lon="3.83698">
        <ele>417.1</ele>
        <time>2018-03-25T07:42:19Z</time>
      </trkpt>
      <trkpt lat="46.64926" lon="3.83699">
        <ele>417.1</ele>
        <time>2018-03-25T07:42:22Z</time>
      </trkpt>
      <trkpt lat="46.64934" lon="3.83699">
        <ele>417.4</ele>
        <time>2018-03-25T07:42:25Z</time>
      </trkpt>
      <trkpt lat="46.64942" lon="3.837">
        <ele>417.7</ele>
        <time>2018-03-25T07:42:28Z</time>
      </trkpt>
      <trkpt lat="46.6495" lon="3.83702">
        <ele>417.4</ele>
        <time>2018-03-25T07:42:31Z</time>
      </trkpt>
      <trkpt lat="46.64956" lon="3.83704">
        <ele>417.2</ele>
        <time>2018-03-25T07:42:33Z</time>
      </trkpt>
      <trkpt lat="46.64962" lon="3.83706">
        <ele>416.7</ele>
        <time>2018-03-25T07:42:35Z</time>
      </trkpt>
      <trkpt lat="46.64969" lon="3.83707">
        <ele>416.8</ele>
        <time>2018-03-25T07:42:37Z</time>
      </trkpt>
      <trkpt lat="46.64976" lon="3.83708">
        <ele>417.2</ele>
        <time>2018-03-25T07:42:39Z</time>
      </trkpt>
      <trkpt lat="46.64983" lon="3.83709">
        <ele>417.1</ele>
        <time>2018-03-25T07:42:41Z</time>
      </trkpt>
      <trkpt lat="46.64986" lon="3.8371">
        <ele>417</ele>
        <time>2018-03-25T07:42:42Z</time>
      </trkpt>
      <trkpt lat="46.64997" lon="3.83713">
        <ele>417.2</ele>
        <time>2018-03-25T07:42:45Z</time>
      </trkpt>
      <trkpt lat="46.65004" lon="3.83715">
        <ele>417.2</ele>
        <time>2018-03-25T07:42:47Z</time>
      </trkpt>
      <trkpt lat="46.65011" lon="3.83717">
        <ele>417.5</ele>
        <time>2018-03-25T07:42:49Z</time>
      </trkpt>
      <trkpt lat="46.65018" lon="3.83716">
        <ele>417</ele>
        <time>2018-03-25T07:42:51Z</time>
      </trkpt>
      <trkpt lat="46.65025" lon="3.83709">
        <ele>415.7</ele>
        <time>2018-03-25T07:42:54Z</time>
      </trkpt>
      <trkpt lat="46.65031" lon="3.83702">
        <ele>415.5</ele>
        <time>2018-03-25T07:42:57Z</time>
      </trkpt>
      <trkpt lat="46.65037" lon="3.83696">
        <ele>415.2</ele>
        <time>2018-03-25T07:42:59Z</time>
      </trkpt>
      <trkpt lat="46.65042" lon="3.83689">
        <ele>415.2</ele>
        <time>2018-03-25T07:43:01Z</time>
      </trkpt>
      <trkpt lat="46.65046" lon="3.83683">
        <ele>415.1</ele>
        <time>2018-03-25T07:43:03Z</time>
      </trkpt>
      <trkpt lat="46.65051" lon="3.83676">
        <ele>416.3</ele>
        <time>2018-03-25T07:43:05Z</time>
      </trkpt>
      <trkpt lat="46.65057" lon="3.83671">
        <ele>416.5</ele>
        <time>2018-03-25T07:43:07Z</time>
      </trkpt>
      <trkpt lat="46.65062" lon="3.83665">
        <ele>416.1</ele>
        <time>2018-03-25T07:43:09Z</time>
      </trkpt>
      <trkpt lat="46.65069" lon="3.83658">
        <ele>415.4</ele>
        <time>2018-03-25T07:43:12Z</time>
      </trkpt>
      <trkpt lat="46.65075" lon="3.83653">
        <ele>415.3</ele>
        <time>2018-03-25T07:43:14Z</time>
      </trkpt>
      <trkpt lat="46.65082" lon="3.83645">
        <ele>415.8</ele>
        <time>2018-03-25T07:43:17Z</time>
      </trkpt>
      <trkpt lat="46.65088" lon="3.83638">
        <ele>416.2</ele>
        <time>2018-03-25T07:43:20Z</time>
      </trkpt>
      <trkpt lat="46.65093" lon="3.83631">
        <ele>417.1</ele>
        <time>2018-03-25T07:43:23Z</time>
      </trkpt>
      <trkpt lat="46.651" lon="3.83624">
        <ele>417.8</ele>
        <time>2018-03-25T07:43:26Z</time>
      </trkpt>
      <trkpt lat="46.65106" lon="3.83618">
        <ele>418.6</ele>
        <time>2018-03-25T07:43:29Z</time>
      </trkpt>
      <trkpt lat="46.6511" lon="3.83613">
        <ele>417.9</ele>
        <time>2018-03-25T07:43:31Z</time>
      </trkpt>
      <trkpt lat="46.65116" lon="3.83607">
        <ele>417.5</ele>
        <time>2018-03-25T07:43:33Z</time>
      </trkpt>
      <trkpt lat="46.65121" lon="3.836">
        <ele>417.7</ele>
        <time>2018-03-25T07:43:35Z</time>
      </trkpt>
      <trkpt lat="46.65125" lon="3.83593">
        <ele>418</ele>
        <time>2018-03-25T07:43:37Z</time>
      </trkpt>
      <trkpt lat="46.65129" lon="3.83584">
        <ele>417.9</ele>
        <time>2018-03-25T07:43:40Z</time>
      </trkpt>
      <trkpt lat="46.65134" lon="3.83578">
        <ele>417.9</ele>
        <time>2018-03-25T07:43:42Z</time>
      </trkpt>
      <trkpt lat="46.65136" lon="3.83574">
        <ele>418</ele>
        <time>2018-03-25T07:43:43Z</time>
      </trkpt>
      <trkpt lat="46.65144" lon="3.83561">
        <ele>418</ele>
        <time>2018-03-25T07:43:47Z</time>
      </trkpt>
      <trkpt lat="46.65149" lon="3.83551">
        <ele>417.6</ele>
        <time>2018-03-25T07:43:50Z</time>
      </trkpt>
      <trkpt lat="46.65153" lon="3.83543">
        <ele>417.5</ele>
        <time>2018-03-25T07:43:52Z</time>
      </trkpt>
      <trkpt lat="46.65159" lon="3.83534">
        <ele>417.7</ele>
        <time>2018-03-25T07:43:54Z</time>
      </trkpt>
      <trkpt lat="46.65162" lon="3.83529">
        <ele>417.9</ele>
        <time>2018-03-25T07:43:55Z</time>
      </trkpt>
      <trkpt lat="46.65165" lon="3.83524">
        <ele>417.3</ele>
        <time>2018-03-25T07:43:56Z</time>
      </trkpt>
      <trkpt lat="46.65169" lon="3.83518">
        <ele>416.9</ele>
        <time>2018-03-25T07:43:57Z</time>
      </trkpt>
      <trkpt lat="46.65174" lon="3.83513">
        <ele>416.6</ele>
        <time>2018-03-25T07:43:58Z</time>
      </trkpt>
      <trkpt lat="46.6518" lon="3.83508">
        <ele>415.5</ele>
        <time>2018-03-25T07:43:59Z</time>
      </trkpt>
      <trkpt lat="46.65185" lon="3.83502">
        <ele>414.7</ele>
        <time>2018-03-25T07:44:00Z</time>
      </trkpt>
      <trkpt lat="46.65191" lon="3.83497">
        <ele>414.5</ele>
        <time>2018-03-25T07:44:01Z</time>
      </trkpt>
      <trkpt lat="46.65197" lon="3.8349">
        <ele>414.4</ele>
        <time>2018-03-25T07:44:02Z</time>
      </trkpt>
      <trkpt lat="46.65201" lon="3.83484">
        <ele>414.3</ele>
        <time>2018-03-25T07:44:03Z</time>
      </trkpt>
      <trkpt lat="46.65206" lon="3.83477">
        <ele>413.7</ele>
        <time>2018-03-25T07:44:04Z</time>
      </trkpt>
      <trkpt lat="46.65211" lon="3.8347">
        <ele>413.3</ele>
        <time>2018-03-25T07:44:05Z</time>
      </trkpt>
      <trkpt lat="46.65218" lon="3.83463">
        <ele>412.6</ele>
        <time>2018-03-25T07:44:06Z</time>
      </trkpt>
      <trkpt lat="46.65226" lon="3.83456">
        <ele>412.1</ele>
        <time>2018-03-25T07:44:07Z</time>
      </trkpt>
      <trkpt lat="46.65234" lon="3.83449">
        <ele>410.8</ele>
        <time>2018-03-25T07:44:08Z</time>
      </trkpt>
      <trkpt lat="46.6524" lon="3.83442">
        <ele>409.9</ele>
        <time>2018-03-25T07:44:09Z</time>
      </trkpt>
      <trkpt lat="46.65246" lon="3.83433">
        <ele>409.2</ele>
        <time>2018-03-25T07:44:10Z</time>
      </trkpt>
      <trkpt lat="46.65252" lon="3.83423">
        <ele>408.3</ele>
        <time>2018-03-25T07:44:11Z</time>
      </trkpt>
      <trkpt lat="46.65258" lon="3.83413">
        <ele>407.6</ele>
        <time>2018-03-25T07:44:12Z</time>
      </trkpt>
      <trkpt lat="46.65265" lon="3.83403">
        <ele>406.6</ele>
        <time>2018-03-25T07:44:13Z</time>
      </trkpt>
      <trkpt lat="46.65272" lon="3.83394">
        <ele>405.9</ele>
        <time>2018-03-25T07:44:14Z</time>
      </trkpt>
      <trkpt lat="46.65278" lon="3.83387">
        <ele>404.2</ele>
        <time>2018-03-25T07:44:15Z</time>
      </trkpt>
      <trkpt lat="46.65285" lon="3.8338">
        <ele>402.9</ele>
        <time>2018-03-25T07:44:16Z</time>
      </trkpt>
      <trkpt lat="46.65291" lon="3.83373">
        <ele>401.9</ele>
        <time>2018-03-25T07:44:17Z</time>
      </trkpt>
      <trkpt lat="46.65297" lon="3.83365">
        <ele>400.2</ele>
        <time>2018-03-25T07:44:18Z</time>
      </trkpt>
      <trkpt lat="46.65303" lon="3.83358">
        <ele>399</ele>
        <time>2018-03-25T07:44:19Z</time>
      </trkpt>
      <trkpt lat="46.65309" lon="3.8335">
        <ele>397.5</ele>
        <time>2018-03-25T07:44:20Z</time>
      </trkpt>
      <trkpt lat="46.65315" lon="3.83343">
        <ele>396.4</ele>
        <time>2018-03-25T07:44:21Z</time>
      </trkpt>
      <trkpt lat="46.65321" lon="3.83337">
        <ele>395.6</ele>
        <time>2018-03-25T07:44:22Z</time>
      </trkpt>
      <trkpt lat="46.65326" lon="3.8333">
        <ele>394.3</ele>
        <time>2018-03-25T07:44:23Z</time>
      </trkpt>
      <trkpt lat="46.65332" lon="3.83322">
        <ele>393.3</ele>
        <time>2018-03-25T07:44:24Z</time>
      </trkpt>
      <trkpt lat="46.65337" lon="3.83315">
        <ele>391.7</ele>
        <time>2018-03-25T07:44:25Z</time>
      </trkpt>
      <trkpt lat="46.65342" lon="3.83307">
        <ele>390.5</ele>
        <time>2018-03-25T07:44:26Z</time>
      </trkpt>
      <trkpt lat="46.65348" lon="3.83299">
        <ele>389.6</ele>
        <time>2018-03-25T07:44:27Z</time>
      </trkpt>
      <trkpt lat="46.65355" lon="3.8329">
        <ele>389</ele>
        <time>2018-03-25T07:44:28Z</time>
      </trkpt>
      <trkpt lat="46.65362" lon="3.83282">
        <ele>388.5</ele>
        <time>2018-03-25T07:44:29Z</time>
      </trkpt>
      <trkpt lat="46.65368" lon="3.83273">
        <ele>387.4</ele>
        <time>2018-03-25T07:44:30Z</time>
      </trkpt>
      <trkpt lat="46.65375" lon="3.83265">
        <ele>386.6</ele>
        <time>2018-03-25T07:44:31Z</time>
      </trkpt>
      <trkpt lat="46.65382" lon="3.83256">
        <ele>385.4</ele>
        <time>2018-03-25T07:44:32Z</time>
      </trkpt>
      <trkpt lat="46.65389" lon="3.83249">
        <ele>384.4</ele>
        <time>2018-03-25T07:44:33Z</time>
      </trkpt>
      <trkpt lat="46.65395" lon="3.83242">
        <ele>383.4</ele>
        <time>2018-03-25T07:44:34Z</time>
      </trkpt>
      <trkpt lat="46.65401" lon="3.83234">
        <ele>382.6</ele>
        <time>2018-03-25T07:44:35Z</time>
      </trkpt>
      <trkpt lat="46.65407" lon="3.83227">
        <ele>382</ele>
        <time>2018-03-25T07:44:36Z</time>
      </trkpt>
      <trkpt lat="46.65414" lon="3.83219">
        <ele>380.9</ele>
        <time>2018-03-25T07:44:37Z</time>
      </trkpt>
      <trkpt lat="46.65421" lon="3.83211">
        <ele>380.2</ele>
        <time>2018-03-25T07:44:38Z</time>
      </trkpt>
      <trkpt lat="46.65427" lon="3.83204">
        <ele>378.9</ele>
        <time>2018-03-25T07:44:39Z</time>
      </trkpt>
      <trkpt lat="46.65433" lon="3.83198">
        <ele>378</ele>
        <time>2018-03-25T07:44:40Z</time>
      </trkpt>
      <trkpt lat="46.65439" lon="3.83192">
        <ele>377.3</ele>
        <time>2018-03-25T07:44:41Z</time>
      </trkpt>
      <trkpt lat="46.65445" lon="3.83187">
        <ele>376.1</ele>
        <time>2018-03-25T07:44:42Z</time>
      </trkpt>
      <trkpt lat="46.6545" lon="3.83182">
        <ele>375.3</ele>
        <time>2018-03-25T07:44:43Z</time>
      </trkpt>
      <trkpt lat="46.65455" lon="3.83176">
        <ele>373.9</ele>
        <time>2018-03-25T07:44:44Z</time>
      </trkpt>
      <trkpt lat="46.65459" lon="3.83169">
        <ele>372.9</ele>
        <time>2018-03-25T07:44:45Z</time>
      </trkpt>
      <trkpt lat="46.65462" lon="3.83162">
        <ele>371.6</ele>
        <time>2018-03-25T07:44:46Z</time>
      </trkpt>
      <trkpt lat="46.65466" lon="3.83155">
        <ele>370.6</ele>
        <time>2018-03-25T07:44:47Z</time>
      </trkpt>
      <trkpt lat="46.65469" lon="3.83147">
        <ele>369.8</ele>
        <time>2018-03-25T07:44:48Z</time>
      </trkpt>
      <trkpt lat="46.65473" lon="3.83139">
        <ele>369.1</ele>
        <time>2018-03-25T07:44:49Z</time>
      </trkpt>
      <trkpt lat="46.65475" lon="3.8313">
        <ele>368.6</ele>
        <time>2018-03-25T07:44:50Z</time>
      </trkpt>
      <trkpt lat="46.65478" lon="3.8312">
        <ele>367.5</ele>
        <time>2018-03-25T07:44:51Z</time>
      </trkpt>
      <trkpt lat="46.65481" lon="3.83112">
        <ele>366.7</ele>
        <time>2018-03-25T07:44:52Z</time>
      </trkpt>
      <trkpt lat="46.65486" lon="3.83103">
        <ele>366</ele>
        <time>2018-03-25T07:44:53Z</time>
      </trkpt>
      <trkpt lat="46.65491" lon="3.83094">
        <ele>365.5</ele>
        <time>2018-03-25T07:44:54Z</time>
      </trkpt>
      <trkpt lat="46.65495" lon="3.83085">
        <ele>365.1</ele>
        <time>2018-03-25T07:44:55Z</time>
      </trkpt>
      <trkpt lat="46.655" lon="3.83075">
        <ele>363.8</ele>
        <time>2018-03-25T07:44:56Z</time>
      </trkpt>
      <trkpt lat="46.65504" lon="3.83064">
        <ele>362.8</ele>
        <time>2018-03-25T07:44:57Z</time>
      </trkpt>
      <trkpt lat="46.6551" lon="3.83055">
        <ele>362.6</ele>
        <time>2018-03-25T07:44:58Z</time>
      </trkpt>
      <trkpt lat="46.65514" lon="3.83044">
        <ele>362.4</ele>
        <time>2018-03-25T07:44:59Z</time>
      </trkpt>
      <trkpt lat="46.65519" lon="3.83033">
        <ele>362.2</ele>
        <time>2018-03-25T07:45:00Z</time>
      </trkpt>
      <trkpt lat="46.65525" lon="3.83022">
        <ele>361.6</ele>
        <time>2018-03-25T07:45:01Z</time>
      </trkpt>
      <trkpt lat="46.65531" lon="3.83012">
        <ele>361.1</ele>
        <time>2018-03-25T07:45:02Z</time>
      </trkpt>
      <trkpt lat="46.65536" lon="3.83002">
        <ele>360.4</ele>
        <time>2018-03-25T07:45:03Z</time>
      </trkpt>
      <trkpt lat="46.65541" lon="3.82991">
        <ele>359.8</ele>
        <time>2018-03-25T07:45:04Z</time>
      </trkpt>
      <trkpt lat="46.65544" lon="3.8298">
        <ele>359.7</ele>
        <time>2018-03-25T07:45:05Z</time>
      </trkpt>
      <trkpt lat="46.65548" lon="3.82971">
        <ele>359.5</ele>
        <time>2018-03-25T07:45:06Z</time>
      </trkpt>
      <trkpt lat="46.65551" lon="3.82964">
        <ele>359.4</ele>
        <time>2018-03-25T07:45:07Z</time>
      </trkpt>
      <trkpt lat="46.65558" lon="3.82961">
        <ele>357.3</ele>
        <time>2018-03-25T07:45:09Z</time>
      </trkpt>
      <trkpt lat="46.65563" lon="3.82965">
        <ele>356</ele>
        <time>2018-03-25T07:45:11Z</time>
      </trkpt>
      <trkpt lat="46.65569" lon="3.82969">
        <ele>354.8</ele>
        <time>2018-03-25T07:45:13Z</time>
      </trkpt>
      <trkpt lat="46.65574" lon="3.82974">
        <ele>354.4</ele>
        <time>2018-03-25T07:45:15Z</time>
      </trkpt>
      <trkpt lat="46.6558" lon="3.82979">
        <ele>354.3</ele>
        <time>2018-03-25T07:45:17Z</time>
      </trkpt>
      <trkpt lat="46.65586" lon="3.82984">
        <ele>354.4</ele>
        <time>2018-03-25T07:45:19Z</time>
      </trkpt>
      <trkpt lat="46.65592" lon="3.8299">
        <ele>354.7</ele>
        <time>2018-03-25T07:45:21Z</time>
      </trkpt>
      <trkpt lat="46.65598" lon="3.82996">
        <ele>354.5</ele>
        <time>2018-03-25T07:45:23Z</time>
      </trkpt>
      <trkpt lat="46.65604" lon="3.83002">
        <ele>355.2</ele>
        <time>2018-03-25T07:45:25Z</time>
      </trkpt>
      <trkpt lat="46.65609" lon="3.83008">
        <ele>355.3</ele>
        <time>2018-03-25T07:45:27Z</time>
      </trkpt>
      <trkpt lat="46.65615" lon="3.83014">
        <ele>355</ele>
        <time>2018-03-25T07:45:29Z</time>
      </trkpt>
      <trkpt lat="46.65621" lon="3.8302">
        <ele>354.9</ele>
        <time>2018-03-25T07:45:31Z</time>
      </trkpt>
      <trkpt lat="46.65628" lon="3.83026">
        <ele>355</ele>
        <time>2018-03-25T07:45:33Z</time>
      </trkpt>
      <trkpt lat="46.65634" lon="3.83031">
        <ele>354.8</ele>
        <time>2018-03-25T07:45:35Z</time>
      </trkpt>
      <trkpt lat="46.6564" lon="3.83038">
        <ele>355.5</ele>
        <time>2018-03-25T07:45:37Z</time>
      </trkpt>
      <trkpt lat="46.65646" lon="3.83044">
        <ele>355.6</ele>
        <time>2018-03-25T07:45:39Z</time>
      </trkpt>
      <trkpt lat="46.65652" lon="3.8305">
        <ele>355.2</ele>
        <time>2018-03-25T07:45:41Z</time>
      </trkpt>
      <trkpt lat="46.65659" lon="3.83057">
        <ele>355.4</ele>
        <time>2018-03-25T07:45:43Z</time>
      </trkpt>
      <trkpt lat="46.65665" lon="3.83063">
        <ele>355.9</ele>
        <time>2018-03-25T07:45:45Z</time>
      </trkpt>
      <trkpt lat="46.65669" lon="3.83066">
        <ele>356.1</ele>
        <time>2018-03-25T07:45:46Z</time>
      </trkpt>
      <trkpt lat="46.65678" lon="3.83077">
        <ele>355.9</ele>
        <time>2018-03-25T07:45:49Z</time>
      </trkpt>
      <trkpt lat="46.65685" lon="3.83083">
        <ele>356.4</ele>
        <time>2018-03-25T07:45:51Z</time>
      </trkpt>
      <trkpt lat="46.65691" lon="3.8309">
        <ele>355.9</ele>
        <time>2018-03-25T07:45:53Z</time>
      </trkpt>
      <trkpt lat="46.65698" lon="3.83096">
        <ele>355.5</ele>
        <time>2018-03-25T07:45:55Z</time>
      </trkpt>
      <trkpt lat="46.65705" lon="3.83102">
        <ele>355.4</ele>
        <time>2018-03-25T07:45:57Z</time>
      </trkpt>
      <trkpt lat="46.65712" lon="3.83109">
        <ele>355.4</ele>
        <time>2018-03-25T07:45:59Z</time>
      </trkpt>
      <trkpt lat="46.65719" lon="3.83115">
        <ele>355.8</ele>
        <time>2018-03-25T07:46:01Z</time>
      </trkpt>
      <trkpt lat="46.65727" lon="3.83121">
        <ele>355.5</ele>
        <time>2018-03-25T07:46:03Z</time>
      </trkpt>
      <trkpt lat="46.65735" lon="3.83126">
        <ele>355.1</ele>
        <time>2018-03-25T07:46:05Z</time>
      </trkpt>
      <trkpt lat="46.65739" lon="3.83129">
        <ele>354.9</ele>
        <time>2018-03-25T07:46:06Z</time>
      </trkpt>
      <trkpt lat="46.65744" lon="3.83131">
        <ele>354.8</ele>
        <time>2018-03-25T07:46:07Z</time>
      </trkpt>
      <trkpt lat="46.65749" lon="3.83133">
        <ele>354.8</ele>
        <time>2018-03-25T07:46:08Z</time>
      </trkpt>
      <trkpt lat="46.65754" lon="3.83135">
        <ele>354.7</ele>
        <time>2018-03-25T07:46:09Z</time>
      </trkpt>
      <trkpt lat="46.65758" lon="3.83137">
        <ele>354.6</ele>
        <time>2018-03-25T07:46:10Z</time>
      </trkpt>
      <trkpt lat="46.65763" lon="3.83138">
        <ele>354.5</ele>
        <time>2018-03-25T07:46:11Z</time>
      </trkpt>
      <trkpt lat="46.65768" lon="3.8314">
        <ele>354.7</ele>
        <time>2018-03-25T07:46:12Z</time>
      </trkpt>
      <trkpt lat="46.65773" lon="3.83143">
        <ele>354.8</ele>
        <time>2018-03-25T07:46:13Z</time>
      </trkpt>
      <trkpt lat="46.65778" lon="3.83148">
        <ele>354.1</ele>
        <time>2018-03-25T07:46:14Z</time>
      </trkpt>
      <trkpt lat="46.65781" lon="3.83155">
        <ele>353.6</ele>
        <time>2018-03-25T07:46:15Z</time>
      </trkpt>
      <trkpt lat="46.65782" lon="3.83162">
        <ele>353.2</ele>
        <time>2018-03-25T07:46:16Z</time>
      </trkpt>
      <trkpt lat="46.65782" lon="3.8317">
        <ele>352.7</ele>
        <time>2018-03-25T07:46:17Z</time>
      </trkpt>
      <trkpt lat="46.65781" lon="3.83177">
        <ele>352.4</ele>
        <time>2018-03-25T07:46:18Z</time>
      </trkpt>
      <trkpt lat="46.6578" lon="3.83185">
        <ele>352.1</ele>
        <time>2018-03-25T07:46:19Z</time>
      </trkpt>
      <trkpt lat="46.65777" lon="3.83192">
        <ele>352</ele>
        <time>2018-03-25T07:46:20Z</time>
      </trkpt>
      <trkpt lat="46.65769" lon="3.83196">
        <ele>351.7</ele>
        <time>2018-03-25T07:46:22Z</time>
      </trkpt>
      <trkpt lat="46.65763" lon="3.832">
        <ele>352.1</ele>
        <time>2018-03-25T07:46:24Z</time>
      </trkpt>
      <trkpt lat="46.65758" lon="3.8321">
        <ele>353.1</ele>
        <time>2018-03-25T07:46:27Z</time>
      </trkpt>
      <trkpt lat="46.65752" lon="3.83219">
        <ele>352.8</ele>
        <time>2018-03-25T07:46:31Z</time>
      </trkpt>
      <trkpt lat="46.65744" lon="3.83225">
        <ele>352.9</ele>
        <time>2018-03-25T07:46:35Z</time>
      </trkpt>
      <trkpt lat="46.65737" lon="3.83231">
        <ele>353.9</ele>
        <time>2018-03-25T07:46:39Z</time>
      </trkpt>
      <trkpt lat="46.6573" lon="3.83237">
        <ele>354.5</ele>
        <time>2018-03-25T07:46:44Z</time>
      </trkpt>
      <trkpt lat="46.65724" lon="3.83243">
        <ele>355.1</ele>
        <time>2018-03-25T07:46:47Z</time>
      </trkpt>
      <trkpt lat="46.65722" lon="3.83244">
        <ele>355.1</ele>
        <time>2018-03-25T07:46:48Z</time>
      </trkpt>
      <trkpt lat="46.65711" lon="3.83253">
        <ele>355.6</ele>
        <time>2018-03-25T07:46:54Z</time>
      </trkpt>
      <trkpt lat="46.65704" lon="3.83259">
        <ele>357.3</ele>
        <time>2018-03-25T07:46:59Z</time>
      </trkpt>
      <trkpt lat="46.65697" lon="3.83267">
        <ele>359.2</ele>
        <time>2018-03-25T07:47:04Z</time>
      </trkpt>
      <trkpt lat="46.65691" lon="3.83275">
        <ele>359.4</ele>
        <time>2018-03-25T07:47:08Z</time>
      </trkpt>
      <trkpt lat="46.65685" lon="3.83284">
        <ele>360.6</ele>
        <time>2018-03-25T07:47:12Z</time>
      </trkpt>
      <trkpt lat="46.6568" lon="3.83295">
        <ele>361.8</ele>
        <time>2018-03-25T07:47:17Z</time>
      </trkpt>
      <trkpt lat="46.65675" lon="3.83303">
        <ele>362.4</ele>
        <time>2018-03-25T07:47:20Z</time>
      </trkpt>
      <trkpt lat="46.6567" lon="3.83312">
        <ele>362.8</ele>
        <time>2018-03-25T07:47:23Z</time>
      </trkpt>
      <trkpt lat="46.65666" lon="3.8332">
        <ele>363.3</ele>
        <time>2018-03-25T07:47:26Z</time>
      </trkpt>
      <trkpt lat="46.65661" lon="3.83329">
        <ele>364.3</ele>
        <time>2018-03-25T07:47:30Z</time>
      </trkpt>
      <trkpt lat="46.65656" lon="3.83337">
        <ele>365.2</ele>
        <time>2018-03-25T07:47:33Z</time>
      </trkpt>
      <trkpt lat="46.65651" lon="3.83344">
        <ele>365.4</ele>
        <time>2018-03-25T07:47:36Z</time>
      </trkpt>
      <trkpt lat="46.65646" lon="3.83354">
        <ele>365.9</ele>
        <time>2018-03-25T07:47:40Z</time>
      </trkpt>
      <trkpt lat="46.65641" lon="3.83362">
        <ele>367</ele>
        <time>2018-03-25T07:47:44Z</time>
      </trkpt>
      <trkpt lat="46.65638" lon="3.83372">
        <ele>368</ele>
        <time>2018-03-25T07:47:48Z</time>
      </trkpt>
      <trkpt lat="46.65638" lon="3.83374">
        <ele>368.1</ele>
        <time>2018-03-25T07:47:49Z</time>
      </trkpt>
      <trkpt lat="46.65628" lon="3.83392">
        <ele>369.4</ele>
        <time>2018-03-25T07:47:57Z</time>
      </trkpt>
      <trkpt lat="46.65623" lon="3.83399">
        <ele>369.3</ele>
        <time>2018-03-25T07:48:00Z</time>
      </trkpt>
      <trkpt lat="46.65617" lon="3.83408">
        <ele>371.3</ele>
        <time>2018-03-25T07:48:04Z</time>
      </trkpt>
      <trkpt lat="46.65612" lon="3.83417">
        <ele>371</ele>
        <time>2018-03-25T07:48:09Z</time>
      </trkpt>
      <trkpt lat="46.65607" lon="3.83425">
        <ele>372</ele>
        <time>2018-03-25T07:48:13Z</time>
      </trkpt>
      <trkpt lat="46.65601" lon="3.83432">
        <ele>371.9</ele>
        <time>2018-03-25T07:48:17Z</time>
      </trkpt>
      <trkpt lat="46.65596" lon="3.83441">
        <ele>372.4</ele>
        <time>2018-03-25T07:48:20Z</time>
      </trkpt>
      <trkpt lat="46.65592" lon="3.83449">
        <ele>372.5</ele>
        <time>2018-03-25T07:48:23Z</time>
      </trkpt>
      <trkpt lat="46.65588" lon="3.83458">
        <ele>373.3</ele>
        <time>2018-03-25T07:48:27Z</time>
      </trkpt>
      <trkpt lat="46.65582" lon="3.83465">
        <ele>373.9</ele>
        <time>2018-03-25T07:48:30Z</time>
      </trkpt>
      <trkpt lat="46.65576" lon="3.83473">
        <ele>374</ele>
        <time>2018-03-25T07:48:33Z</time>
      </trkpt>
      <trkpt lat="46.6557" lon="3.83479">
        <ele>374.4</ele>
        <time>2018-03-25T07:48:36Z</time>
      </trkpt>
      <trkpt lat="46.65565" lon="3.83487">
        <ele>375.1</ele>
        <time>2018-03-25T07:48:39Z</time>
      </trkpt>
      <trkpt lat="46.65558" lon="3.83496">
        <ele>375.2</ele>
        <time>2018-03-25T07:48:43Z</time>
      </trkpt>
      <trkpt lat="46.65554" lon="3.83502">
        <ele>375.8</ele>
        <time>2018-03-25T07:48:46Z</time>
      </trkpt>
      <trkpt lat="46.65549" lon="3.83511">
        <ele>376.6</ele>
        <time>2018-03-25T07:48:49Z</time>
      </trkpt>
      <trkpt lat="46.65547" lon="3.83514">
        <ele>376.8</ele>
        <time>2018-03-25T07:48:50Z</time>
      </trkpt>
      <trkpt lat="46.65539" lon="3.83532">
        <ele>377.9</ele>
        <time>2018-03-25T07:48:58Z</time>
      </trkpt>
      <trkpt lat="46.65536" lon="3.83543">
        <ele>378.7</ele>
        <time>2018-03-25T07:49:02Z</time>
      </trkpt>
      <trkpt lat="46.65533" lon="3.83555">
        <ele>379.1</ele>
        <time>2018-03-25T07:49:07Z</time>
      </trkpt>
      <trkpt lat="46.65529" lon="3.83565">
        <ele>379.6</ele>
        <time>2018-03-25T07:49:11Z</time>
      </trkpt>
      <trkpt lat="46.65525" lon="3.83576">
        <ele>379.3</ele>
        <time>2018-03-25T07:49:15Z</time>
      </trkpt>
      <trkpt lat="46.65522" lon="3.83586">
        <ele>379.9</ele>
        <time>2018-03-25T07:49:18Z</time>
      </trkpt>
      <trkpt lat="46.65518" lon="3.83597">
        <ele>379.9</ele>
        <time>2018-03-25T07:49:21Z</time>
      </trkpt>
      <trkpt lat="46.65515" lon="3.83606">
        <ele>380.2</ele>
        <time>2018-03-25T07:49:24Z</time>
      </trkpt>
      <trkpt lat="46.6551" lon="3.83615">
        <ele>381.2</ele>
        <time>2018-03-25T07:49:27Z</time>
      </trkpt>
      <trkpt lat="46.65504" lon="3.83625">
        <ele>381.3</ele>
        <time>2018-03-25T07:49:30Z</time>
      </trkpt>
      <trkpt lat="46.65499" lon="3.83632">
        <ele>381.1</ele>
        <time>2018-03-25T07:49:33Z</time>
      </trkpt>
      <trkpt lat="46.65493" lon="3.83642">
        <ele>381.5</ele>
        <time>2018-03-25T07:49:36Z</time>
      </trkpt>
      <trkpt lat="46.65487" lon="3.8365">
        <ele>381.6</ele>
        <time>2018-03-25T07:49:39Z</time>
      </trkpt>
      <trkpt lat="46.65481" lon="3.83659">
        <ele>381.5</ele>
        <time>2018-03-25T07:49:42Z</time>
      </trkpt>
      <trkpt lat="46.65476" lon="3.83667">
        <ele>382.5</ele>
        <time>2018-03-25T07:49:45Z</time>
      </trkpt>
      <trkpt lat="46.65472" lon="3.83675">
        <ele>383.8</ele>
        <time>2018-03-25T07:49:48Z</time>
      </trkpt>
      <trkpt lat="46.65467" lon="3.83684">
        <ele>383.8</ele>
        <time>2018-03-25T07:49:51Z</time>
      </trkpt>
      <trkpt lat="46.65466" lon="3.83686">
        <ele>383.7</ele>
        <time>2018-03-25T07:49:52Z</time>
      </trkpt>
      <trkpt lat="46.65457" lon="3.83699">
        <ele>384.7</ele>
        <time>2018-03-25T07:49:57Z</time>
      </trkpt>
      <trkpt lat="46.65451" lon="3.83706">
        <ele>384.7</ele>
        <time>2018-03-25T07:50:00Z</time>
      </trkpt>
      <trkpt lat="46.65444" lon="3.83713">
        <ele>385</ele>
        <time>2018-03-25T07:50:03Z</time>
      </trkpt>
      <trkpt lat="46.65438" lon="3.83719">
        <ele>386.3</ele>
        <time>2018-03-25T07:50:06Z</time>
      </trkpt>
      <trkpt lat="46.65432" lon="3.83726">
        <ele>386.8</ele>
        <time>2018-03-25T07:50:09Z</time>
      </trkpt>
      <trkpt lat="46.65426" lon="3.83734">
        <ele>387</ele>
        <time>2018-03-25T07:50:12Z</time>
      </trkpt>
      <trkpt lat="46.65421" lon="3.83741">
        <ele>387.6</ele>
        <time>2018-03-25T07:50:15Z</time>
      </trkpt>
      <trkpt lat="46.65415" lon="3.8375">
        <ele>388.1</ele>
        <time>2018-03-25T07:50:19Z</time>
      </trkpt>
      <trkpt lat="46.65409" lon="3.83757">
        <ele>388.5</ele>
        <time>2018-03-25T07:50:22Z</time>
      </trkpt>
      <trkpt lat="46.65405" lon="3.83765">
        <ele>388.4</ele>
        <time>2018-03-25T07:50:25Z</time>
      </trkpt>
      <trkpt lat="46.65401" lon="3.83773">
        <ele>389.3</ele>
        <time>2018-03-25T07:50:28Z</time>
      </trkpt>
      <trkpt lat="46.65397" lon="3.83782">
        <ele>389.4</ele>
        <time>2018-03-25T07:50:31Z</time>
      </trkpt>
      <trkpt lat="46.65394" lon="3.83791">
        <ele>388.8</ele>
        <time>2018-03-25T07:50:34Z</time>
      </trkpt>
      <trkpt lat="46.654" lon="3.838">
        <ele>389</ele>
        <time>2018-03-25T07:50:37Z</time>
      </trkpt>
      <trkpt lat="46.65408" lon="3.83802">
        <ele>389.3</ele>
        <time>2018-03-25T07:50:39Z</time>
      </trkpt>
      <trkpt lat="46.65413" lon="3.83804">
        <ele>389.1</ele>
        <time>2018-03-25T07:50:40Z</time>
      </trkpt>
      <trkpt lat="46.65417" lon="3.83806">
        <ele>388.8</ele>
        <time>2018-03-25T07:50:41Z</time>
      </trkpt>
      <trkpt lat="46.65423" lon="3.83808">
        <ele>388.7</ele>
        <time>2018-03-25T07:50:42Z</time>
      </trkpt>
      <trkpt lat="46.65427" lon="3.8381">
        <ele>388.4</ele>
        <time>2018-03-25T07:50:43Z</time>
      </trkpt>
      <trkpt lat="46.65432" lon="3.83812">
        <ele>388.2</ele>
        <time>2018-03-25T07:50:44Z</time>
      </trkpt>
      <trkpt lat="46.65437" lon="3.83815">
        <ele>387.8</ele>
        <time>2018-03-25T07:50:45Z</time>
      </trkpt>
      <trkpt lat="46.65443" lon="3.83819">
        <ele>387.5</ele>
        <time>2018-03-25T07:50:46Z</time>
      </trkpt>
      <trkpt lat="46.65447" lon="3.83823">
        <ele>387.1</ele>
        <time>2018-03-25T07:50:47Z</time>
      </trkpt>
      <trkpt lat="46.65452" lon="3.83827">
        <ele>386.8</ele>
        <time>2018-03-25T07:50:48Z</time>
      </trkpt>
      <trkpt lat="46.65459" lon="3.83834">
        <ele>386.1</ele>
        <time>2018-03-25T07:50:50Z</time>
      </trkpt>
      <trkpt lat="46.65463" lon="3.83837">
        <ele>385.7</ele>
        <time>2018-03-25T07:50:51Z</time>
      </trkpt>
      <trkpt lat="46.65467" lon="3.83841">
        <ele>385.5</ele>
        <time>2018-03-25T07:50:52Z</time>
      </trkpt>
      <trkpt lat="46.65472" lon="3.83845">
        <ele>385.3</ele>
        <time>2018-03-25T07:50:53Z</time>
      </trkpt>
      <trkpt lat="46.65477" lon="3.83848">
        <ele>385.2</ele>
        <time>2018-03-25T07:50:54Z</time>
      </trkpt>
      <trkpt lat="46.65482" lon="3.83851">
        <ele>385.1</ele>
        <time>2018-03-25T07:50:55Z</time>
      </trkpt>
      <trkpt lat="46.65487" lon="3.83854">
        <ele>385.1</ele>
        <time>2018-03-25T07:50:56Z</time>
      </trkpt>
      <trkpt lat="46.65492" lon="3.83857">
        <ele>384.9</ele>
        <time>2018-03-25T07:50:57Z</time>
      </trkpt>
      <trkpt lat="46.65497" lon="3.83859">
        <ele>384.8</ele>
        <time>2018-03-25T07:50:58Z</time>
      </trkpt>
      <trkpt lat="46.65501" lon="3.83862">
        <ele>384.2</ele>
        <time>2018-03-25T07:50:59Z</time>
      </trkpt>
      <trkpt lat="46.65509" lon="3.83867">
        <ele>383.4</ele>
        <time>2018-03-25T07:51:01Z</time>
      </trkpt>
      <trkpt lat="46.65516" lon="3.83872">
        <ele>383.8</ele>
        <time>2018-03-25T07:51:03Z</time>
      </trkpt>
      <trkpt lat="46.6552" lon="3.83875">
        <ele>383.8</ele>
        <time>2018-03-25T07:51:04Z</time>
      </trkpt>
      <trkpt lat="46.65529" lon="3.8388">
        <ele>383.9</ele>
        <time>2018-03-25T07:51:06Z</time>
      </trkpt>
      <trkpt lat="46.65537" lon="3.83883">
        <ele>383.9</ele>
        <time>2018-03-25T07:51:08Z</time>
      </trkpt>
      <trkpt lat="46.65544" lon="3.83886">
        <ele>383.8</ele>
        <time>2018-03-25T07:51:10Z</time>
      </trkpt>
      <trkpt lat="46.65552" lon="3.83889">
        <ele>384</ele>
        <time>2018-03-25T07:51:12Z</time>
      </trkpt>
      <trkpt lat="46.65559" lon="3.8389">
        <ele>383.7</ele>
        <time>2018-03-25T07:51:14Z</time>
      </trkpt>
      <trkpt lat="46.65566" lon="3.83891">
        <ele>383.5</ele>
        <time>2018-03-25T07:51:16Z</time>
      </trkpt>
      <trkpt lat="46.65571" lon="3.83892">
        <ele>383.4</ele>
        <time>2018-03-25T07:51:17Z</time>
      </trkpt>
      <trkpt lat="46.65576" lon="3.83892">
        <ele>383.4</ele>
        <time>2018-03-25T07:51:18Z</time>
      </trkpt>
      <trkpt lat="46.6558" lon="3.83891">
        <ele>383.3</ele>
        <time>2018-03-25T07:51:19Z</time>
      </trkpt>
      <trkpt lat="46.65585" lon="3.83891">
        <ele>383.3</ele>
        <time>2018-03-25T07:51:20Z</time>
      </trkpt>
      <trkpt lat="46.65594" lon="3.83891">
        <ele>383.3</ele>
        <time>2018-03-25T07:51:22Z</time>
      </trkpt>
      <trkpt lat="46.65598" lon="3.83891">
        <ele>383</ele>
        <time>2018-03-25T07:51:23Z</time>
      </trkpt>
      <trkpt lat="46.65604" lon="3.8389">
        <ele>382.8</ele>
        <time>2018-03-25T07:51:24Z</time>
      </trkpt>
      <trkpt lat="46.65608" lon="3.8389">
        <ele>382.8</ele>
        <time>2018-03-25T07:51:25Z</time>
      </trkpt>
      <trkpt lat="46.65613" lon="3.8389">
        <ele>382.8</ele>
        <time>2018-03-25T07:51:26Z</time>
      </trkpt>
      <trkpt lat="46.65618" lon="3.83891">
        <ele>382.8</ele>
        <time>2018-03-25T07:51:27Z</time>
      </trkpt>
      <trkpt lat="46.65623" lon="3.83892">
        <ele>382.5</ele>
        <time>2018-03-25T07:51:28Z</time>
      </trkpt>
      <trkpt lat="46.65629" lon="3.83893">
        <ele>382.4</ele>
        <time>2018-03-25T07:51:29Z</time>
      </trkpt>
      <trkpt lat="46.65635" lon="3.83895">
        <ele>382</ele>
        <time>2018-03-25T07:51:30Z</time>
      </trkpt>
      <trkpt lat="46.65641" lon="3.83897">
        <ele>381.7</ele>
        <time>2018-03-25T07:51:31Z</time>
      </trkpt>
      <trkpt lat="46.65648" lon="3.83899">
        <ele>381.5</ele>
        <time>2018-03-25T07:51:32Z</time>
      </trkpt>
      <trkpt lat="46.65654" lon="3.83901">
        <ele>381.5</ele>
        <time>2018-03-25T07:51:33Z</time>
      </trkpt>
      <trkpt lat="46.6566" lon="3.83903">
        <ele>381.4</ele>
        <time>2018-03-25T07:51:34Z</time>
      </trkpt>
      <trkpt lat="46.65667" lon="3.83906">
        <ele>380.7</ele>
        <time>2018-03-25T07:51:35Z</time>
      </trkpt>
      <trkpt lat="46.65673" lon="3.83909">
        <ele>380.1</ele>
        <time>2018-03-25T07:51:36Z</time>
      </trkpt>
      <trkpt lat="46.6568" lon="3.83912">
        <ele>379.7</ele>
        <time>2018-03-25T07:51:37Z</time>
      </trkpt>
      <trkpt lat="46.65686" lon="3.83915">
        <ele>379.4</ele>
        <time>2018-03-25T07:51:38Z</time>
      </trkpt>
      <trkpt lat="46.65694" lon="3.83918">
        <ele>379.2</ele>
        <time>2018-03-25T07:51:39Z</time>
      </trkpt>
      <trkpt lat="46.65702" lon="3.83921">
        <ele>378.7</ele>
        <time>2018-03-25T07:51:40Z</time>
      </trkpt>
      <trkpt lat="46.6571" lon="3.83924">
        <ele>378.2</ele>
        <time>2018-03-25T07:51:41Z</time>
      </trkpt>
      <trkpt lat="46.65719" lon="3.83927">
        <ele>377.4</ele>
        <time>2018-03-25T07:51:42Z</time>
      </trkpt>
      <trkpt lat="46.65728" lon="3.8393">
        <ele>376.7</ele>
        <time>2018-03-25T07:51:43Z</time>
      </trkpt>
      <trkpt lat="46.65736" lon="3.83933">
        <ele>376.3</ele>
        <time>2018-03-25T07:51:44Z</time>
      </trkpt>
      <trkpt lat="46.65744" lon="3.83935">
        <ele>376</ele>
        <time>2018-03-25T07:51:45Z</time>
      </trkpt>
      <trkpt lat="46.65753" lon="3.83937">
        <ele>375.8</ele>
        <time>2018-03-25T07:51:46Z</time>
      </trkpt>
      <trkpt lat="46.65762" lon="3.83939">
        <ele>375.3</ele>
        <time>2018-03-25T07:51:47Z</time>
      </trkpt>
      <trkpt lat="46.65771" lon="3.83941">
        <ele>375</ele>
        <time>2018-03-25T07:51:48Z</time>
      </trkpt>
      <trkpt lat="46.6578" lon="3.83942">
        <ele>374.6</ele>
        <time>2018-03-25T07:51:49Z</time>
      </trkpt>
      <trkpt lat="46.6579" lon="3.83943">
        <ele>374.4</ele>
        <time>2018-03-25T07:51:50Z</time>
      </trkpt>
      <trkpt lat="46.65799" lon="3.83943">
        <ele>374.2</ele>
        <time>2018-03-25T07:51:51Z</time>
      </trkpt>
      <trkpt lat="46.65809" lon="3.83942">
        <ele>373.5</ele>
        <time>2018-03-25T07:51:52Z</time>
      </trkpt>
      <trkpt lat="46.65817" lon="3.8394">
        <ele>373</ele>
        <time>2018-03-25T07:51:53Z</time>
      </trkpt>
      <trkpt lat="46.65827" lon="3.83937">
        <ele>372.5</ele>
        <time>2018-03-25T07:51:54Z</time>
      </trkpt>
      <trkpt lat="46.65838" lon="3.83937">
        <ele>372.1</ele>
        <time>2018-03-25T07:51:55Z</time>
      </trkpt>
      <trkpt lat="46.65848" lon="3.8394">
        <ele>370.7</ele>
        <time>2018-03-25T07:51:56Z</time>
      </trkpt>
      <trkpt lat="46.65858" lon="3.83943">
        <ele>369.6</ele>
        <time>2018-03-25T07:51:57Z</time>
      </trkpt>
      <trkpt lat="46.65867" lon="3.83947">
        <ele>368.8</ele>
        <time>2018-03-25T07:51:58Z</time>
      </trkpt>
      <trkpt lat="46.65876" lon="3.83949">
        <ele>367.7</ele>
        <time>2018-03-25T07:51:59Z</time>
      </trkpt>
      <trkpt lat="46.65885" lon="3.83951">
        <ele>366.9</ele>
        <time>2018-03-25T07:52:00Z</time>
      </trkpt>
      <trkpt lat="46.65894" lon="3.83952">
        <ele>365.6</ele>
        <time>2018-03-25T07:52:01Z</time>
      </trkpt>
      <trkpt lat="46.65905" lon="3.83953">
        <ele>364.5</ele>
        <time>2018-03-25T07:52:02Z</time>
      </trkpt>
      <trkpt lat="46.65915" lon="3.83954">
        <ele>363.6</ele>
        <time>2018-03-25T07:52:03Z</time>
      </trkpt>
      <trkpt lat="46.65926" lon="3.83955">
        <ele>363</ele>
        <time>2018-03-25T07:52:04Z</time>
      </trkpt>
      <trkpt lat="46.65937" lon="3.83956">
        <ele>362.5</ele>
        <time>2018-03-25T07:52:05Z</time>
      </trkpt>
      <trkpt lat="46.65947" lon="3.83957">
        <ele>361.3</ele>
        <time>2018-03-25T07:52:06Z</time>
      </trkpt>
      <trkpt lat="46.65958" lon="3.83958">
        <ele>360.3</ele>
        <time>2018-03-25T07:52:07Z</time>
      </trkpt>
      <trkpt lat="46.65968" lon="3.83958">
        <ele>358.9</ele>
        <time>2018-03-25T07:52:08Z</time>
      </trkpt>
      <trkpt lat="46.65979" lon="3.83958">
        <ele>357.8</ele>
        <time>2018-03-25T07:52:09Z</time>
      </trkpt>
      <trkpt lat="46.65989" lon="3.83958">
        <ele>357</ele>
        <time>2018-03-25T07:52:10Z</time>
      </trkpt>
      <trkpt lat="46.65999" lon="3.83958">
        <ele>356.1</ele>
        <time>2018-03-25T07:52:11Z</time>
      </trkpt>
      <trkpt lat="46.66009" lon="3.83958">
        <ele>355.4</ele>
        <time>2018-03-25T07:52:12Z</time>
      </trkpt>
      <trkpt lat="46.66018" lon="3.83957">
        <ele>354.5</ele>
        <time>2018-03-25T07:52:13Z</time>
      </trkpt>
      <trkpt lat="46.66028" lon="3.83956">
        <ele>353.9</ele>
        <time>2018-03-25T07:52:14Z</time>
      </trkpt>
      <trkpt lat="46.66037" lon="3.83956">
        <ele>353.8</ele>
        <time>2018-03-25T07:52:15Z</time>
      </trkpt>
      <trkpt lat="46.66046" lon="3.83955">
        <ele>353.7</ele>
        <time>2018-03-25T07:52:16Z</time>
      </trkpt>
      <trkpt lat="46.66055" lon="3.83956">
        <ele>353.6</ele>
        <time>2018-03-25T07:52:17Z</time>
      </trkpt>
      <trkpt lat="46.66063" lon="3.83959">
        <ele>352.8</ele>
        <time>2018-03-25T07:52:18Z</time>
      </trkpt>
      <trkpt lat="46.66071" lon="3.83964">
        <ele>352.2</ele>
        <time>2018-03-25T07:52:19Z</time>
      </trkpt>
      <trkpt lat="46.66077" lon="3.83972">
        <ele>351.7</ele>
        <time>2018-03-25T07:52:20Z</time>
      </trkpt>
      <trkpt lat="46.66084" lon="3.8398">
        <ele>351.3</ele>
        <time>2018-03-25T07:52:21Z</time>
      </trkpt>
      <trkpt lat="46.6609" lon="3.83987">
        <ele>351.1</ele>
        <time>2018-03-25T07:52:22Z</time>
      </trkpt>
      <trkpt lat="46.66096" lon="3.83995">
        <ele>351</ele>
        <time>2018-03-25T07:52:23Z</time>
      </trkpt>
      <trkpt lat="46.66102" lon="3.84002">
        <ele>350.9</ele>
        <time>2018-03-25T07:52:24Z</time>
      </trkpt>
      <trkpt lat="46.66107" lon="3.8401">
        <ele>350.5</ele>
        <time>2018-03-25T07:52:25Z</time>
      </trkpt>
      <trkpt lat="46.66112" lon="3.84018">
        <ele>350.3</ele>
        <time>2018-03-25T07:52:26Z</time>
      </trkpt>
      <trkpt lat="46.66117" lon="3.84026">
        <ele>350.5</ele>
        <time>2018-03-25T07:52:27Z</time>
      </trkpt>
      <trkpt lat="46.66121" lon="3.84035">
        <ele>350.6</ele>
        <time>2018-03-25T07:52:28Z</time>
      </trkpt>
      <trkpt lat="46.66124" lon="3.84044">
        <ele>350.7</ele>
        <time>2018-03-25T07:52:29Z</time>
      </trkpt>
      <trkpt lat="46.66127" lon="3.84054">
        <ele>350.1</ele>
        <time>2018-03-25T07:52:30Z</time>
      </trkpt>
      <trkpt lat="46.66129" lon="3.84063">
        <ele>349.7</ele>
        <time>2018-03-25T07:52:31Z</time>
      </trkpt>
      <trkpt lat="46.66131" lon="3.84072">
        <ele>349.2</ele>
        <time>2018-03-25T07:52:32Z</time>
      </trkpt>
      <trkpt lat="46.66133" lon="3.84081">
        <ele>348.9</ele>
        <time>2018-03-25T07:52:33Z</time>
      </trkpt>
      <trkpt lat="46.66135" lon="3.84091">
        <ele>348.8</ele>
        <time>2018-03-25T07:52:34Z</time>
      </trkpt>
      <trkpt lat="46.66137" lon="3.841">
        <ele>348.8</ele>
        <time>2018-03-25T07:52:35Z</time>
      </trkpt>
      <trkpt lat="46.66139" lon="3.84109">
        <ele>348.7</ele>
        <time>2018-03-25T07:52:36Z</time>
      </trkpt>
      <trkpt lat="46.66141" lon="3.84117">
        <ele>348.9</ele>
        <time>2018-03-25T07:52:37Z</time>
      </trkpt>
      <trkpt lat="46.66144" lon="3.84126">
        <ele>349</ele>
        <time>2018-03-25T07:52:38Z</time>
      </trkpt>
      <trkpt lat="46.66146" lon="3.84135">
        <ele>349</ele>
        <time>2018-03-25T07:52:39Z</time>
      </trkpt>
      <trkpt lat="46.66149" lon="3.84144">
        <ele>349</ele>
        <time>2018-03-25T07:52:40Z</time>
      </trkpt>
      <trkpt lat="46.66152" lon="3.84153">
        <ele>348.7</ele>
        <time>2018-03-25T07:52:41Z</time>
      </trkpt>
      <trkpt lat="46.66154" lon="3.84162">
        <ele>348.4</ele>
        <time>2018-03-25T07:52:42Z</time>
      </trkpt>
      <trkpt lat="46.66157" lon="3.84171">
        <ele>348.2</ele>
        <time>2018-03-25T07:52:43Z</time>
      </trkpt>
      <trkpt lat="46.66161" lon="3.8418">
        <ele>347.8</ele>
        <time>2018-03-25T07:52:44Z</time>
      </trkpt>
      <trkpt lat="46.66165" lon="3.84189">
        <ele>347.5</ele>
        <time>2018-03-25T07:52:45Z</time>
      </trkpt>
      <trkpt lat="46.66169" lon="3.84198">
        <ele>347.1</ele>
        <time>2018-03-25T07:52:46Z</time>
      </trkpt>
      <trkpt lat="46.66173" lon="3.84207">
        <ele>346.8</ele>
        <time>2018-03-25T07:52:47Z</time>
      </trkpt>
      <trkpt lat="46.66178" lon="3.84214">
        <ele>346.5</ele>
        <time>2018-03-25T07:52:48Z</time>
      </trkpt>
      <trkpt lat="46.66183" lon="3.84221">
        <ele>346.8</ele>
        <time>2018-03-25T07:52:49Z</time>
      </trkpt>
      <trkpt lat="46.66189" lon="3.84228">
        <ele>347</ele>
        <time>2018-03-25T07:52:50Z</time>
      </trkpt>
      <trkpt lat="46.66195" lon="3.84234">
        <ele>346.3</ele>
        <time>2018-03-25T07:52:51Z</time>
      </trkpt>
      <trkpt lat="46.66201" lon="3.8424">
        <ele>345.8</ele>
        <time>2018-03-25T07:52:52Z</time>
      </trkpt>
      <trkpt lat="46.66207" lon="3.84246">
        <ele>345.4</ele>
        <time>2018-03-25T07:52:53Z</time>
      </trkpt>
      <trkpt lat="46.66213" lon="3.84252">
        <ele>345</ele>
        <time>2018-03-25T07:52:54Z</time>
      </trkpt>
      <trkpt lat="46.66219" lon="3.84256">
        <ele>344.8</ele>
        <time>2018-03-25T07:52:55Z</time>
      </trkpt>
      <trkpt lat="46.66226" lon="3.84258">
        <ele>345</ele>
        <time>2018-03-25T07:52:56Z</time>
      </trkpt>
      <trkpt lat="46.66233" lon="3.84258">
        <ele>345.1</ele>
        <time>2018-03-25T07:52:57Z</time>
      </trkpt>
      <trkpt lat="46.6624" lon="3.84257">
        <ele>344.7</ele>
        <time>2018-03-25T07:52:58Z</time>
      </trkpt>
      <trkpt lat="46.66247" lon="3.84255">
        <ele>344.5</ele>
        <time>2018-03-25T07:52:59Z</time>
      </trkpt>
      <trkpt lat="46.66254" lon="3.84252">
        <ele>344.4</ele>
        <time>2018-03-25T07:53:00Z</time>
      </trkpt>
      <trkpt lat="46.66262" lon="3.84248">
        <ele>344.3</ele>
        <time>2018-03-25T07:53:01Z</time>
      </trkpt>
      <trkpt lat="46.66269" lon="3.84244">
        <ele>344.3</ele>
        <time>2018-03-25T07:53:02Z</time>
      </trkpt>
      <trkpt lat="46.66277" lon="3.84238">
        <ele>344.1</ele>
        <time>2018-03-25T07:53:03Z</time>
      </trkpt>
      <trkpt lat="46.66284" lon="3.84232">
        <ele>344</ele>
        <time>2018-03-25T07:53:04Z</time>
      </trkpt>
      <trkpt lat="46.66292" lon="3.84224">
        <ele>343.3</ele>
        <time>2018-03-25T07:53:05Z</time>
      </trkpt>
      <trkpt lat="46.663" lon="3.84215">
        <ele>342.8</ele>
        <time>2018-03-25T07:53:06Z</time>
      </trkpt>
      <trkpt lat="46.66306" lon="3.84205">
        <ele>342.5</ele>
        <time>2018-03-25T07:53:07Z</time>
      </trkpt>
      <trkpt lat="46.66313" lon="3.84196">
        <ele>341.2</ele>
        <time>2018-03-25T07:53:08Z</time>
      </trkpt>
      <trkpt lat="46.66318" lon="3.84187">
        <ele>340.3</ele>
        <time>2018-03-25T07:53:09Z</time>
      </trkpt>
      <trkpt lat="46.66323" lon="3.84178">
        <ele>339</ele>
        <time>2018-03-25T07:53:10Z</time>
      </trkpt>
      <trkpt lat="46.66328" lon="3.8417">
        <ele>338</ele>
        <time>2018-03-25T07:53:11Z</time>
      </trkpt>
      <trkpt lat="46.66333" lon="3.84162">
        <ele>336.8</ele>
        <time>2018-03-25T07:53:12Z</time>
      </trkpt>
      <trkpt lat="46.66339" lon="3.84154">
        <ele>335.9</ele>
        <time>2018-03-25T07:53:13Z</time>
      </trkpt>
      <trkpt lat="46.66345" lon="3.84145">
        <ele>335.2</ele>
        <time>2018-03-25T07:53:14Z</time>
      </trkpt>
      <trkpt lat="46.66352" lon="3.84135">
        <ele>334.3</ele>
        <time>2018-03-25T07:53:15Z</time>
      </trkpt>
      <trkpt lat="46.66359" lon="3.84124">
        <ele>333.5</ele>
        <time>2018-03-25T07:53:16Z</time>
      </trkpt>
      <trkpt lat="46.66368" lon="3.84113">
        <ele>332.3</ele>
        <time>2018-03-25T07:53:17Z</time>
      </trkpt>
      <trkpt lat="46.66376" lon="3.84101">
        <ele>331.3</ele>
        <time>2018-03-25T07:53:18Z</time>
      </trkpt>
      <trkpt lat="46.66383" lon="3.84088">
        <ele>329.3</ele>
        <time>2018-03-25T07:53:19Z</time>
      </trkpt>
      <trkpt lat="46.66389" lon="3.84074">
        <ele>327.8</ele>
        <time>2018-03-25T07:53:20Z</time>
      </trkpt>
      <trkpt lat="46.66396" lon="3.84061">
        <ele>326.6</ele>
        <time>2018-03-25T07:53:21Z</time>
      </trkpt>
      <trkpt lat="46.66402" lon="3.8405">
        <ele>324.5</ele>
        <time>2018-03-25T07:53:22Z</time>
      </trkpt>
      <trkpt lat="46.66407" lon="3.84043">
        <ele>322.9</ele>
        <time>2018-03-25T07:53:23Z</time>
      </trkpt>
      <trkpt lat="46.66414" lon="3.84038">
        <ele>320.7</ele>
        <time>2018-03-25T07:53:24Z</time>
      </trkpt>
      <trkpt lat="46.66422" lon="3.84037">
        <ele>319</ele>
        <time>2018-03-25T07:53:25Z</time>
      </trkpt>
      <trkpt lat="46.66431" lon="3.84039">
        <ele>317.7</ele>
        <time>2018-03-25T07:53:26Z</time>
      </trkpt>
      <trkpt lat="46.66439" lon="3.84044">
        <ele>316.1</ele>
        <time>2018-03-25T07:53:27Z</time>
      </trkpt>
      <trkpt lat="46.66447" lon="3.8405">
        <ele>314.8</ele>
        <time>2018-03-25T07:53:28Z</time>
      </trkpt>
      <trkpt lat="46.66455" lon="3.84057">
        <ele>313.8</ele>
        <time>2018-03-25T07:53:29Z</time>
      </trkpt>
      <trkpt lat="46.66464" lon="3.84064">
        <ele>313</ele>
        <time>2018-03-25T07:53:30Z</time>
      </trkpt>
      <trkpt lat="46.66472" lon="3.8407">
        <ele>312</ele>
        <time>2018-03-25T07:53:31Z</time>
      </trkpt>
      <trkpt lat="46.66481" lon="3.84075">
        <ele>311.3</ele>
        <time>2018-03-25T07:53:32Z</time>
      </trkpt>
      <trkpt lat="46.6649" lon="3.84078">
        <ele>310.7</ele>
        <time>2018-03-25T07:53:33Z</time>
      </trkpt>
      <trkpt lat="46.66499" lon="3.84077">
        <ele>310.2</ele>
        <time>2018-03-25T07:53:34Z</time>
      </trkpt>
      <trkpt lat="46.66508" lon="3.84073">
        <ele>309.8</ele>
        <time>2018-03-25T07:53:35Z</time>
      </trkpt>
      <trkpt lat="46.66515" lon="3.84069">
        <ele>309.2</ele>
        <time>2018-03-25T07:53:36Z</time>
      </trkpt>
      <trkpt lat="46.66522" lon="3.84067">
        <ele>308.7</ele>
        <time>2018-03-25T07:53:37Z</time>
      </trkpt>
      <trkpt lat="46.66528" lon="3.8407">
        <ele>308</ele>
        <time>2018-03-25T07:53:38Z</time>
      </trkpt>
      <trkpt lat="46.66531" lon="3.84076">
        <ele>307.5</ele>
        <time>2018-03-25T07:53:39Z</time>
      </trkpt>
      <trkpt lat="46.66534" lon="3.84083">
        <ele>307.1</ele>
        <time>2018-03-25T07:53:40Z</time>
      </trkpt>
      <trkpt lat="46.66537" lon="3.84089">
        <ele>306.3</ele>
        <time>2018-03-25T07:53:41Z</time>
      </trkpt>
      <trkpt lat="46.66541" lon="3.84094">
        <ele>305.7</ele>
        <time>2018-03-25T07:53:42Z</time>
      </trkpt>
      <trkpt lat="46.66545" lon="3.84099">
        <ele>305.2</ele>
        <time>2018-03-25T07:53:43Z</time>
      </trkpt>
      <trkpt lat="46.66549" lon="3.84104">
        <ele>304.8</ele>
        <time>2018-03-25T07:53:44Z</time>
      </trkpt>
      <trkpt lat="46.66553" lon="3.84108">
        <ele>304.5</ele>
        <time>2018-03-25T07:53:45Z</time>
      </trkpt>
      <trkpt lat="46.66558" lon="3.84112">
        <ele>304.4</ele>
        <time>2018-03-25T07:53:46Z</time>
      </trkpt>
      <trkpt lat="46.66563" lon="3.84117">
        <ele>304.2</ele>
        <time>2018-03-25T07:53:47Z</time>
      </trkpt>
      <trkpt lat="46.66568" lon="3.84122">
        <ele>303.8</ele>
        <time>2018-03-25T07:53:48Z</time>
      </trkpt>
      <trkpt lat="46.66573" lon="3.84126">
        <ele>303.4</ele>
        <time>2018-03-25T07:53:49Z</time>
      </trkpt>
      <trkpt lat="46.66579" lon="3.8413">
        <ele>303.2</ele>
        <time>2018-03-25T07:53:50Z</time>
      </trkpt>
      <trkpt lat="46.66585" lon="3.84135">
        <ele>303.1</ele>
        <time>2018-03-25T07:53:51Z</time>
      </trkpt>
      <trkpt lat="46.66591" lon="3.84139">
        <ele>303</ele>
        <time>2018-03-25T07:53:52Z</time>
      </trkpt>
      <trkpt lat="46.66597" lon="3.84142">
        <ele>303</ele>
        <time>2018-03-25T07:53:53Z</time>
      </trkpt>
      <trkpt lat="46.66602" lon="3.84145">
        <ele>303</ele>
        <time>2018-03-25T07:53:54Z</time>
      </trkpt>
      <trkpt lat="46.66608" lon="3.84147">
        <ele>302.2</ele>
        <time>2018-03-25T07:53:55Z</time>
      </trkpt>
      <trkpt lat="46.66614" lon="3.84151">
        <ele>301.6</ele>
        <time>2018-03-25T07:53:56Z</time>
      </trkpt>
      <trkpt lat="46.66619" lon="3.84155">
        <ele>301.2</ele>
        <time>2018-03-25T07:53:57Z</time>
      </trkpt>
      <trkpt lat="46.66624" lon="3.8416">
        <ele>301</ele>
        <time>2018-03-25T07:53:58Z</time>
      </trkpt>
      <trkpt lat="46.6663" lon="3.84164">
        <ele>300.8</ele>
        <time>2018-03-25T07:53:59Z</time>
      </trkpt>
      <trkpt lat="46.66635" lon="3.8417">
        <ele>300.9</ele>
        <time>2018-03-25T07:54:00Z</time>
      </trkpt>
      <trkpt lat="46.66641" lon="3.84176">
        <ele>301.1</ele>
        <time>2018-03-25T07:54:01Z</time>
      </trkpt>
      <trkpt lat="46.66648" lon="3.84182">
        <ele>300.3</ele>
        <time>2018-03-25T07:54:02Z</time>
      </trkpt>
      <trkpt lat="46.66655" lon="3.8419">
        <ele>299.7</ele>
        <time>2018-03-25T07:54:03Z</time>
      </trkpt>
      <trkpt lat="46.66662" lon="3.84197">
        <ele>299.3</ele>
        <time>2018-03-25T07:54:04Z</time>
      </trkpt>
      <trkpt lat="46.6667" lon="3.84203">
        <ele>298.7</ele>
        <time>2018-03-25T07:54:05Z</time>
      </trkpt>
      <trkpt lat="46.66678" lon="3.84209">
        <ele>298.2</ele>
        <time>2018-03-25T07:54:06Z</time>
      </trkpt>
      <trkpt lat="46.66686" lon="3.84216">
        <ele>297.6</ele>
        <time>2018-03-25T07:54:07Z</time>
      </trkpt>
      <trkpt lat="46.66694" lon="3.84222">
        <ele>297.2</ele>
        <time>2018-03-25T07:54:08Z</time>
      </trkpt>
      <trkpt lat="46.66701" lon="3.8423">
        <ele>295.5</ele>
        <time>2018-03-25T07:54:09Z</time>
      </trkpt>
      <trkpt lat="46.66709" lon="3.84238">
        <ele>294.3</ele>
        <time>2018-03-25T07:54:10Z</time>
      </trkpt>
      <trkpt lat="46.66716" lon="3.84247">
        <ele>293.4</ele>
        <time>2018-03-25T07:54:11Z</time>
      </trkpt>
      <trkpt lat="46.66723" lon="3.84256">
        <ele>292.5</ele>
        <time>2018-03-25T07:54:12Z</time>
      </trkpt>
      <trkpt lat="46.6673" lon="3.84266">
        <ele>291.8</ele>
        <time>2018-03-25T07:54:13Z</time>
      </trkpt>
      <trkpt lat="46.66736" lon="3.84277">
        <ele>290.5</ele>
        <time>2018-03-25T07:54:14Z</time>
      </trkpt>
      <trkpt lat="46.66744" lon="3.84287">
        <ele>289.5</ele>
        <time>2018-03-25T07:54:15Z</time>
      </trkpt>
      <trkpt lat="46.66752" lon="3.84296">
        <ele>287.7</ele>
        <time>2018-03-25T07:54:16Z</time>
      </trkpt>
      <trkpt lat="46.66759" lon="3.84305">
        <ele>286.4</ele>
        <time>2018-03-25T07:54:17Z</time>
      </trkpt>
      <trkpt lat="46.66765" lon="3.84315">
        <ele>285.4</ele>
        <time>2018-03-25T07:54:18Z</time>
      </trkpt>
      <trkpt lat="46.66772" lon="3.84324">
        <ele>284.2</ele>
        <time>2018-03-25T07:54:19Z</time>
      </trkpt>
      <trkpt lat="46.66778" lon="3.84334">
        <ele>283.2</ele>
        <time>2018-03-25T07:54:20Z</time>
      </trkpt>
      <trkpt lat="46.66784" lon="3.84343">
        <ele>281.6</ele>
        <time>2018-03-25T07:54:21Z</time>
      </trkpt>
      <trkpt lat="46.6679" lon="3.84351">
        <ele>280.5</ele>
        <time>2018-03-25T07:54:22Z</time>
      </trkpt>
      <trkpt lat="46.66796" lon="3.8436">
        <ele>279.3</ele>
        <time>2018-03-25T07:54:23Z</time>
      </trkpt>
      <trkpt lat="46.66803" lon="3.84368">
        <ele>278.4</ele>
        <time>2018-03-25T07:54:24Z</time>
      </trkpt>
      <trkpt lat="46.66809" lon="3.84374">
        <ele>277.7</ele>
        <time>2018-03-25T07:54:25Z</time>
      </trkpt>
      <trkpt lat="46.66816" lon="3.8438">
        <ele>276</ele>
        <time>2018-03-25T07:54:26Z</time>
      </trkpt>
      <trkpt lat="46.66824" lon="3.84386">
        <ele>274.6</ele>
        <time>2018-03-25T07:54:27Z</time>
      </trkpt>
      <trkpt lat="46.66832" lon="3.84392">
        <ele>273.4</ele>
        <time>2018-03-25T07:54:28Z</time>
      </trkpt>
      <trkpt lat="46.66839" lon="3.84398">
        <ele>272.5</ele>
        <time>2018-03-25T07:54:29Z</time>
      </trkpt>
      <trkpt lat="46.66847" lon="3.84403">
        <ele>271.9</ele>
        <time>2018-03-25T07:54:30Z</time>
      </trkpt>
      <trkpt lat="46.66854" lon="3.84407">
        <ele>270.5</ele>
        <time>2018-03-25T07:54:31Z</time>
      </trkpt>
      <trkpt lat="46.6686" lon="3.8441">
        <ele>269.4</ele>
        <time>2018-03-25T07:54:32Z</time>
      </trkpt>
      <trkpt lat="46.66867" lon="3.8441">
        <ele>267.2</ele>
        <time>2018-03-25T07:54:33Z</time>
      </trkpt>
      <trkpt lat="46.66875" lon="3.84408">
        <ele>265.5</ele>
        <time>2018-03-25T07:54:34Z</time>
      </trkpt>
      <trkpt lat="46.66882" lon="3.84404">
        <ele>263.7</ele>
        <time>2018-03-25T07:54:35Z</time>
      </trkpt>
      <trkpt lat="46.66889" lon="3.84397">
        <ele>262.4</ele>
        <time>2018-03-25T07:54:36Z</time>
      </trkpt>
      <trkpt lat="46.66895" lon="3.84388">
        <ele>261.4</ele>
        <time>2018-03-25T07:54:37Z</time>
      </trkpt>
      <trkpt lat="46.66902" lon="3.84378">
        <ele>260</ele>
        <time>2018-03-25T07:54:38Z</time>
      </trkpt>
      <trkpt lat="46.66907" lon="3.84367">
        <ele>259</ele>
        <time>2018-03-25T07:54:39Z</time>
      </trkpt>
      <trkpt lat="46.66911" lon="3.84356">
        <ele>257.5</ele>
        <time>2018-03-25T07:54:40Z</time>
      </trkpt>
      <trkpt lat="46.66914" lon="3.84345">
        <ele>256.4</ele>
        <time>2018-03-25T07:54:41Z</time>
      </trkpt>
      <trkpt lat="46.66916" lon="3.84334">
        <ele>254.9</ele>
        <time>2018-03-25T07:54:42Z</time>
      </trkpt>
      <trkpt lat="46.66919" lon="3.84326">
        <ele>253.9</ele>
        <time>2018-03-25T07:54:43Z</time>
      </trkpt>
      <trkpt lat="46.66924" lon="3.84317">
        <ele>251.2</ele>
        <time>2018-03-25T07:54:45Z</time>
      </trkpt>
      <trkpt lat="46.66927" lon="3.84326">
        <ele>245.7</ele>
        <time>2018-03-25T07:54:49Z</time>
      </trkpt>
      <trkpt lat="46.66926" lon="3.84335">
        <ele>244.7</ele>
        <time>2018-03-25T07:54:51Z</time>
      </trkpt>
      <trkpt lat="46.66925" lon="3.84344">
        <ele>244.4</ele>
        <time>2018-03-25T07:54:53Z</time>
      </trkpt>
      <trkpt lat="46.66923" lon="3.84353">
        <ele>243.9</ele>
        <time>2018-03-25T07:54:55Z</time>
      </trkpt>
      <trkpt lat="46.66921" lon="3.84366">
        <ele>243.6</ele>
        <time>2018-03-25T07:54:58Z</time>
      </trkpt>
      <trkpt lat="46.6692" lon="3.8437">
        <ele>244</ele>
        <time>2018-03-25T07:54:59Z</time>
      </trkpt>
      <trkpt lat="46.66915" lon="3.84386">
        <ele>245.1</ele>
        <time>2018-03-25T07:55:03Z</time>
      </trkpt>
      <trkpt lat="46.66911" lon="3.84394">
        <ele>245.5</ele>
        <time>2018-03-25T07:55:05Z</time>
      </trkpt>
      <trkpt lat="46.66909" lon="3.84402">
        <ele>246.2</ele>
        <time>2018-03-25T07:55:07Z</time>
      </trkpt>
      <trkpt lat="46.66905" lon="3.84414">
        <ele>246.8</ele>
        <time>2018-03-25T07:55:10Z</time>
      </trkpt>
      <trkpt lat="46.66901" lon="3.84425">
        <ele>247.3</ele>
        <time>2018-03-25T07:55:13Z</time>
      </trkpt>
      <trkpt lat="46.66898" lon="3.84433">
        <ele>247.4</ele>
        <time>2018-03-25T07:55:15Z</time>
      </trkpt>
      <trkpt lat="46.66894" lon="3.84441">
        <ele>247.7</ele>
        <time>2018-03-25T07:55:17Z</time>
      </trkpt>
      <trkpt lat="46.66888" lon="3.84449">
        <ele>247.8</ele>
        <time>2018-03-25T07:55:19Z</time>
      </trkpt>
      <trkpt lat="46.66881" lon="3.84456">
        <ele>247.8</ele>
        <time>2018-03-25T07:55:21Z</time>
      </trkpt>
      <trkpt lat="46.66874" lon="3.84462">
        <ele>247.8</ele>
        <time>2018-03-25T07:55:23Z</time>
      </trkpt>
      <trkpt lat="46.66868" lon="3.84469">
        <ele>248</ele>
        <time>2018-03-25T07:55:25Z</time>
      </trkpt>
      <trkpt lat="46.66863" lon="3.84477">
        <ele>248</ele>
        <time>2018-03-25T07:55:27Z</time>
      </trkpt>
      <trkpt lat="46.66858" lon="3.84485">
        <ele>248.3</ele>
        <time>2018-03-25T07:55:29Z</time>
      </trkpt>
      <trkpt lat="46.66854" lon="3.84493">
        <ele>248.4</ele>
        <time>2018-03-25T07:55:31Z</time>
      </trkpt>
      <trkpt lat="46.66851" lon="3.84501">
        <ele>248.8</ele>
        <time>2018-03-25T07:55:33Z</time>
      </trkpt>
      <trkpt lat="46.66846" lon="3.84511">
        <ele>249.3</ele>
        <time>2018-03-25T07:55:36Z</time>
      </trkpt>
      <trkpt lat="46.66841" lon="3.8452">
        <ele>250</ele>
        <time>2018-03-25T07:55:39Z</time>
      </trkpt>
      <trkpt lat="46.66834" lon="3.84528">
        <ele>250.7</ele>
        <time>2018-03-25T07:55:42Z</time>
      </trkpt>
      <trkpt lat="46.66827" lon="3.84535">
        <ele>251.6</ele>
        <time>2018-03-25T07:55:45Z</time>
      </trkpt>
      <trkpt lat="46.6682" lon="3.8454">
        <ele>251.6</ele>
        <time>2018-03-25T07:55:48Z</time>
      </trkpt>
      <trkpt lat="46.66812" lon="3.84546">
        <ele>253.4</ele>
        <time>2018-03-25T07:55:51Z</time>
      </trkpt>
      <trkpt lat="46.66805" lon="3.84551">
        <ele>254.4</ele>
        <time>2018-03-25T07:55:54Z</time>
      </trkpt>
      <trkpt lat="46.66798" lon="3.84555">
        <ele>255.8</ele>
        <time>2018-03-25T07:55:57Z</time>
      </trkpt>
      <trkpt lat="46.6679" lon="3.84561">
        <ele>257.1</ele>
        <time>2018-03-25T07:56:03Z</time>
      </trkpt>
      <trkpt lat="46.66789" lon="3.84561">
        <ele>257.1</ele>
        <time>2018-03-25T07:56:04Z</time>
      </trkpt>
      <trkpt lat="46.66775" lon="3.84567">
        <ele>259.4</ele>
        <time>2018-03-25T07:56:16Z</time>
      </trkpt>
      <trkpt lat="46.66766" lon="3.8457">
        <ele>261.6</ele>
        <time>2018-03-25T07:56:23Z</time>
      </trkpt>
      <trkpt lat="46.66758" lon="3.84575">
        <ele>263.3</ele>
        <time>2018-03-25T07:56:31Z</time>
      </trkpt>
      <trkpt lat="46.6675" lon="3.84577">
        <ele>265</ele>
        <time>2018-03-25T07:56:39Z</time>
      </trkpt>
      <trkpt lat="46.66742" lon="3.8458">
        <ele>267.3</ele>
        <time>2018-03-25T07:56:47Z</time>
      </trkpt>
      <trkpt lat="46.66734" lon="3.84584">
        <ele>267.9</ele>
        <time>2018-03-25T07:56:55Z</time>
      </trkpt>
      <trkpt lat="46.66725" lon="3.84588">
        <ele>269.3</ele>
        <time>2018-03-25T07:57:04Z</time>
      </trkpt>
      <trkpt lat="46.66724" lon="3.84588">
        <ele>269.5</ele>
        <time>2018-03-25T07:57:05Z</time>
      </trkpt>
      <trkpt lat="46.6671" lon="3.84596">
        <ele>274.2</ele>
        <time>2018-03-25T07:57:21Z</time>
      </trkpt>
      <trkpt lat="46.66703" lon="3.84601">
        <ele>274.8</ele>
        <time>2018-03-25T07:57:29Z</time>
      </trkpt>
      <trkpt lat="46.66696" lon="3.84608">
        <ele>276.4</ele>
        <time>2018-03-25T07:57:37Z</time>
      </trkpt>
      <trkpt lat="46.66688" lon="3.84614">
        <ele>277.5</ele>
        <time>2018-03-25T07:57:45Z</time>
      </trkpt>
      <trkpt lat="46.66683" lon="3.84624">
        <ele>279</ele>
        <time>2018-03-25T07:57:55Z</time>
      </trkpt>
      <trkpt lat="46.66683" lon="3.84637">
        <ele>279.3</ele>
        <time>2018-03-25T07:58:00Z</time>
      </trkpt>
      <trkpt lat="46.66685" lon="3.84645">
        <ele>279.3</ele>
        <time>2018-03-25T07:58:02Z</time>
      </trkpt>
      <trkpt lat="46.66686" lon="3.84656">
        <ele>279</ele>
        <time>2018-03-25T07:58:04Z</time>
      </trkpt>
      <trkpt lat="46.66686" lon="3.84663">
        <ele>278.7</ele>
        <time>2018-03-25T07:58:05Z</time>
      </trkpt>
      <trkpt lat="46.66684" lon="3.84671">
        <ele>278.6</ele>
        <time>2018-03-25T07:58:06Z</time>
      </trkpt>
      <trkpt lat="46.66681" lon="3.84677">
        <ele>278.4</ele>
        <time>2018-03-25T07:58:07Z</time>
      </trkpt>
      <trkpt lat="46.66676" lon="3.84682">
        <ele>278.2</ele>
        <time>2018-03-25T07:58:08Z</time>
      </trkpt>
      <trkpt lat="46.66673" lon="3.84687">
        <ele>278.5</ele>
        <time>2018-03-25T07:58:09Z</time>
      </trkpt>
      <trkpt lat="46.6667" lon="3.84693">
        <ele>278.7</ele>
        <time>2018-03-25T07:58:10Z</time>
      </trkpt>
      <trkpt lat="46.66667" lon="3.84699">
        <ele>278.5</ele>
        <time>2018-03-25T07:58:11Z</time>
      </trkpt>
      <trkpt lat="46.66661" lon="3.84709">
        <ele>278.2</ele>
        <time>2018-03-25T07:58:13Z</time>
      </trkpt>
      <trkpt lat="46.66656" lon="3.84718">
        <ele>277</ele>
        <time>2018-03-25T07:58:15Z</time>
      </trkpt>
      <trkpt lat="46.66652" lon="3.84727">
        <ele>277.4</ele>
        <time>2018-03-25T07:58:17Z</time>
      </trkpt>
      <trkpt lat="46.66648" lon="3.84736">
        <ele>277.6</ele>
        <time>2018-03-25T07:58:19Z</time>
      </trkpt>
      <trkpt lat="46.66644" lon="3.84745">
        <ele>277.9</ele>
        <time>2018-03-25T07:58:21Z</time>
      </trkpt>
      <trkpt lat="46.66641" lon="3.84754">
        <ele>278.5</ele>
        <time>2018-03-25T07:58:23Z</time>
      </trkpt>
      <trkpt lat="46.66637" lon="3.84763">
        <ele>279</ele>
        <time>2018-03-25T07:58:25Z</time>
      </trkpt>
      <trkpt lat="46.66634" lon="3.84772">
        <ele>278.6</ele>
        <time>2018-03-25T07:58:27Z</time>
      </trkpt>
      <trkpt lat="46.66631" lon="3.84781">
        <ele>279.2</ele>
        <time>2018-03-25T07:58:29Z</time>
      </trkpt>
      <trkpt lat="46.66628" lon="3.84791">
        <ele>279.2</ele>
        <time>2018-03-25T07:58:31Z</time>
      </trkpt>
      <trkpt lat="46.66625" lon="3.84801">
        <ele>279</ele>
        <time>2018-03-25T07:58:33Z</time>
      </trkpt>
      <trkpt lat="46.66623" lon="3.84812">
        <ele>279</ele>
        <time>2018-03-25T07:58:35Z</time>
      </trkpt>
      <trkpt lat="46.66621" lon="3.84822">
        <ele>279</ele>
        <time>2018-03-25T07:58:37Z</time>
      </trkpt>
      <trkpt lat="46.66619" lon="3.84833">
        <ele>279.1</ele>
        <time>2018-03-25T07:58:39Z</time>
      </trkpt>
      <trkpt lat="46.66618" lon="3.84845">
        <ele>279.3</ele>
        <time>2018-03-25T07:58:41Z</time>
      </trkpt>
      <trkpt lat="46.66617" lon="3.84857">
        <ele>279.2</ele>
        <time>2018-03-25T07:58:43Z</time>
      </trkpt>
      <trkpt lat="46.66617" lon="3.84868">
        <ele>279.4</ele>
        <time>2018-03-25T07:58:45Z</time>
      </trkpt>
      <trkpt lat="46.66617" lon="3.8488">
        <ele>279.7</ele>
        <time>2018-03-25T07:58:47Z</time>
      </trkpt>
      <trkpt lat="46.66618" lon="3.84891">
        <ele>280</ele>
        <time>2018-03-25T07:58:49Z</time>
      </trkpt>
      <trkpt lat="46.66618" lon="3.84903">
        <ele>280.1</ele>
        <time>2018-03-25T07:58:51Z</time>
      </trkpt>
      <trkpt lat="46.66618" lon="3.84914">
        <ele>280.9</ele>
        <time>2018-03-25T07:58:53Z</time>
      </trkpt>
      <trkpt lat="46.66618" lon="3.84925">
        <ele>281.6</ele>
        <time>2018-03-25T07:58:55Z</time>
      </trkpt>
      <trkpt lat="46.66618" lon="3.84936">
        <ele>282</ele>
        <time>2018-03-25T07:58:57Z</time>
      </trkpt>
      <trkpt lat="46.66618" lon="3.84946">
        <ele>282.9</ele>
        <time>2018-03-25T07:58:59Z</time>
      </trkpt>
      <trkpt lat="46.66618" lon="3.84956">
        <ele>283.8</ele>
        <time>2018-03-25T07:59:01Z</time>
      </trkpt>
      <trkpt lat="46.66618" lon="3.84966">
        <ele>284.2</ele>
        <time>2018-03-25T07:59:03Z</time>
      </trkpt>
      <trkpt lat="46.66618" lon="3.84975">
        <ele>285.1</ele>
        <time>2018-03-25T07:59:05Z</time>
      </trkpt>
      <trkpt lat="46.66614" lon="3.84982">
        <ele>285.2</ele>
        <time>2018-03-25T07:59:07Z</time>
      </trkpt>
      <trkpt lat="46.66612" lon="3.84985">
        <ele>285.2</ele>
        <time>2018-03-25T07:59:08Z</time>
      </trkpt>
      <trkpt lat="46.66603" lon="3.8499">
        <ele>285.5</ele>
        <time>2018-03-25T07:59:11Z</time>
      </trkpt>
      <trkpt lat="46.66596" lon="3.84992">
        <ele>285.8</ele>
        <time>2018-03-25T07:59:13Z</time>
      </trkpt>
      <trkpt lat="46.66588" lon="3.84995">
        <ele>285.7</ele>
        <time>2018-03-25T07:59:15Z</time>
      </trkpt>
      <trkpt lat="46.6658" lon="3.84999">
        <ele>285.5</ele>
        <time>2018-03-25T07:59:17Z</time>
      </trkpt>
      <trkpt lat="46.66576" lon="3.85002">
        <ele>285.4</ele>
        <time>2018-03-25T07:59:18Z</time>
      </trkpt>
      <trkpt lat="46.66571" lon="3.85004">
        <ele>285.3</ele>
        <time>2018-03-25T07:59:19Z</time>
      </trkpt>
      <trkpt lat="46.66567" lon="3.85006">
        <ele>285.5</ele>
        <time>2018-03-25T07:59:20Z</time>
      </trkpt>
      <trkpt lat="46.66562" lon="3.85008">
        <ele>285.6</ele>
        <time>2018-03-25T07:59:21Z</time>
      </trkpt>
      <trkpt lat="46.66557" lon="3.85009">
        <ele>285.7</ele>
        <time>2018-03-25T07:59:22Z</time>
      </trkpt>
      <trkpt lat="46.66552" lon="3.85011">
        <ele>285.7</ele>
        <time>2018-03-25T07:59:23Z</time>
      </trkpt>
      <trkpt lat="46.66546" lon="3.85014">
        <ele>285.7</ele>
        <time>2018-03-25T07:59:24Z</time>
      </trkpt>
      <trkpt lat="46.66541" lon="3.85016">
        <ele>285.6</ele>
        <time>2018-03-25T07:59:25Z</time>
      </trkpt>
      <trkpt lat="46.66534" lon="3.85017">
        <ele>285.5</ele>
        <time>2018-03-25T07:59:26Z</time>
      </trkpt>
      <trkpt lat="46.66527" lon="3.85017">
        <ele>284.8</ele>
        <time>2018-03-25T07:59:27Z</time>
      </trkpt>
      <trkpt lat="46.6652" lon="3.85017">
        <ele>284.3</ele>
        <time>2018-03-25T07:59:28Z</time>
      </trkpt>
      <trkpt lat="46.66512" lon="3.85015">
        <ele>284</ele>
        <time>2018-03-25T07:59:29Z</time>
      </trkpt>
      <trkpt lat="46.66504" lon="3.85011">
        <ele>283.4</ele>
        <time>2018-03-25T07:59:30Z</time>
      </trkpt>
      <trkpt lat="46.66496" lon="3.85007">
        <ele>283</ele>
        <time>2018-03-25T07:59:31Z</time>
      </trkpt>
      <trkpt lat="46.66487" lon="3.85007">
        <ele>282.5</ele>
        <time>2018-03-25T07:59:32Z</time>
      </trkpt>
      <trkpt lat="46.66478" lon="3.85009">
        <ele>282.1</ele>
        <time>2018-03-25T07:59:33Z</time>
      </trkpt>
      <trkpt lat="46.66469" lon="3.85011">
        <ele>281.3</ele>
        <time>2018-03-25T07:59:34Z</time>
      </trkpt>
      <trkpt lat="46.6646" lon="3.85012">
        <ele>280.6</ele>
        <time>2018-03-25T07:59:35Z</time>
      </trkpt>
      <trkpt lat="46.66451" lon="3.85011">
        <ele>280.1</ele>
        <time>2018-03-25T07:59:36Z</time>
      </trkpt>
      <trkpt lat="46.66443" lon="3.85009">
        <ele>279.5</ele>
        <time>2018-03-25T07:59:37Z</time>
      </trkpt>
      <trkpt lat="46.66434" lon="3.85006">
        <ele>279.1</ele>
        <time>2018-03-25T07:59:38Z</time>
      </trkpt>
      <trkpt lat="46.66426" lon="3.85003">
        <ele>278.5</ele>
        <time>2018-03-25T07:59:39Z</time>
      </trkpt>
      <trkpt lat="46.66417" lon="3.85001">
        <ele>278</ele>
        <time>2018-03-25T07:59:40Z</time>
      </trkpt>
      <trkpt lat="46.66409" lon="3.84999">
        <ele>277.7</ele>
        <time>2018-03-25T07:59:41Z</time>
      </trkpt>
      <trkpt lat="46.66401" lon="3.84997">
        <ele>277.4</ele>
        <time>2018-03-25T07:59:42Z</time>
      </trkpt>
      <trkpt lat="46.66392" lon="3.84997">
        <ele>277.1</ele>
        <time>2018-03-25T07:59:43Z</time>
      </trkpt>
      <trkpt lat="46.66385" lon="3.84998">
        <ele>277</ele>
        <time>2018-03-25T07:59:44Z</time>
      </trkpt>
      <trkpt lat="46.66377" lon="3.85">
        <ele>277</ele>
        <time>2018-03-25T07:59:45Z</time>
      </trkpt>
      <trkpt lat="46.66369" lon="3.85003">
        <ele>276.3</ele>
        <time>2018-03-25T07:59:46Z</time>
      </trkpt>
      <trkpt lat="46.66362" lon="3.85006">
        <ele>275.8</ele>
        <time>2018-03-25T07:59:47Z</time>
      </trkpt>
      <trkpt lat="46.66356" lon="3.85009">
        <ele>275.4</ele>
        <time>2018-03-25T07:59:48Z</time>
      </trkpt>
      <trkpt lat="46.66349" lon="3.85012">
        <ele>275.1</ele>
        <time>2018-03-25T07:59:49Z</time>
      </trkpt>
      <trkpt lat="46.66342" lon="3.85013">
        <ele>274.8</ele>
        <time>2018-03-25T07:59:50Z</time>
      </trkpt>
      <trkpt lat="46.66335" lon="3.85015">
        <ele>274.5</ele>
        <time>2018-03-25T07:59:51Z</time>
      </trkpt>
      <trkpt lat="46.66329" lon="3.85017">
        <ele>274.2</ele>
        <time>2018-03-25T07:59:52Z</time>
      </trkpt>
      <trkpt lat="46.66322" lon="3.85018">
        <ele>274.2</ele>
        <time>2018-03-25T07:59:53Z</time>
      </trkpt>
      <trkpt lat="46.66316" lon="3.8502">
        <ele>274.1</ele>
        <time>2018-03-25T07:59:54Z</time>
      </trkpt>
      <trkpt lat="46.66308" lon="3.85022">
        <ele>274.1</ele>
        <time>2018-03-25T07:59:55Z</time>
      </trkpt>
      <trkpt lat="46.66301" lon="3.85024">
        <ele>273.7</ele>
        <time>2018-03-25T07:59:56Z</time>
      </trkpt>
      <trkpt lat="46.66293" lon="3.85026">
        <ele>273.4</ele>
        <time>2018-03-25T07:59:57Z</time>
      </trkpt>
      <trkpt lat="46.66285" lon="3.85029">
        <ele>273.2</ele>
        <time>2018-03-25T07:59:58Z</time>
      </trkpt>
      <trkpt lat="46.66276" lon="3.85033">
        <ele>273</ele>
        <time>2018-03-25T07:59:59Z</time>
      </trkpt>
      <trkpt lat="46.66269" lon="3.85037">
        <ele>272.6</ele>
        <time>2018-03-25T08:00:00Z</time>
      </trkpt>
      <trkpt lat="46.66261" lon="3.85042">
        <ele>272.3</ele>
        <time>2018-03-25T08:00:01Z</time>
      </trkpt>
      <trkpt lat="46.66254" lon="3.85048">
        <ele>272.1</ele>
        <time>2018-03-25T08:00:02Z</time>
      </trkpt>
      <trkpt lat="46.66247" lon="3.85054">
        <ele>272.1</ele>
        <time>2018-03-25T08:00:03Z</time>
      </trkpt>
      <trkpt lat="46.66241" lon="3.85061">
        <ele>272.2</ele>
        <time>2018-03-25T08:00:04Z</time>
      </trkpt>
      <trkpt lat="46.66235" lon="3.85068">
        <ele>271.9</ele>
        <time>2018-03-25T08:00:05Z</time>
      </trkpt>
      <trkpt lat="46.66229" lon="3.85074">
        <ele>271.6</ele>
        <time>2018-03-25T08:00:06Z</time>
      </trkpt>
      <trkpt lat="46.66223" lon="3.8508">
        <ele>271.5</ele>
        <time>2018-03-25T08:00:07Z</time>
      </trkpt>
      <trkpt lat="46.66216" lon="3.85085">
        <ele>270.8</ele>
        <time>2018-03-25T08:00:08Z</time>
      </trkpt>
      <trkpt lat="46.6621" lon="3.85092">
        <ele>270.2</ele>
        <time>2018-03-25T08:00:09Z</time>
      </trkpt>
      <trkpt lat="46.66205" lon="3.85099">
        <ele>270</ele>
        <time>2018-03-25T08:00:10Z</time>
      </trkpt>
      <trkpt lat="46.66201" lon="3.85107">
        <ele>269.8</ele>
        <time>2018-03-25T08:00:11Z</time>
      </trkpt>
      <trkpt lat="46.66198" lon="3.85116">
        <ele>270</ele>
        <time>2018-03-25T08:00:12Z</time>
      </trkpt>
      <trkpt lat="46.66195" lon="3.85125">
        <ele>270.1</ele>
        <time>2018-03-25T08:00:13Z</time>
      </trkpt>
      <trkpt lat="46.66193" lon="3.85134">
        <ele>270.2</ele>
        <time>2018-03-25T08:00:14Z</time>
      </trkpt>
      <trkpt lat="46.66191" lon="3.85144">
        <ele>269.9</ele>
        <time>2018-03-25T08:00:15Z</time>
      </trkpt>
      <trkpt lat="46.66189" lon="3.85152">
        <ele>269.6</ele>
        <time>2018-03-25T08:00:16Z</time>
      </trkpt>
      <trkpt lat="46.66186" lon="3.8516">
        <ele>269.5</ele>
        <time>2018-03-25T08:00:17Z</time>
      </trkpt>
      <trkpt lat="46.66183" lon="3.85166">
        <ele>269.4</ele>
        <time>2018-03-25T08:00:18Z</time>
      </trkpt>
      <trkpt lat="46.66181" lon="3.85172">
        <ele>269.3</ele>
        <time>2018-03-25T08:00:19Z</time>
      </trkpt>
      <trkpt lat="46.66178" lon="3.85177">
        <ele>270.2</ele>
        <time>2018-03-25T08:00:20Z</time>
      </trkpt>
      <trkpt lat="46.66175" lon="3.85183">
        <ele>270.8</ele>
        <time>2018-03-25T08:00:21Z</time>
      </trkpt>
      <trkpt lat="46.66171" lon="3.85188">
        <ele>270.9</ele>
        <time>2018-03-25T08:00:22Z</time>
      </trkpt>
      <trkpt lat="46.66167" lon="3.85193">
        <ele>271</ele>
        <time>2018-03-25T08:00:23Z</time>
      </trkpt>
      <trkpt lat="46.66163" lon="3.85197">
        <ele>270.8</ele>
        <time>2018-03-25T08:00:24Z</time>
      </trkpt>
      <trkpt lat="46.66159" lon="3.852">
        <ele>270.6</ele>
        <time>2018-03-25T08:00:25Z</time>
      </trkpt>
      <trkpt lat="46.66154" lon="3.85204">
        <ele>270.5</ele>
        <time>2018-03-25T08:00:26Z</time>
      </trkpt>
      <trkpt lat="46.6615" lon="3.85206">
        <ele>270.7</ele>
        <time>2018-03-25T08:00:27Z</time>
      </trkpt>
      <trkpt lat="46.66145" lon="3.85209">
        <ele>270.9</ele>
        <time>2018-03-25T08:00:28Z</time>
      </trkpt>
      <trkpt lat="46.6614" lon="3.85211">
        <ele>270.5</ele>
        <time>2018-03-25T08:00:29Z</time>
      </trkpt>
      <trkpt lat="46.66135" lon="3.85213">
        <ele>270.3</ele>
        <time>2018-03-25T08:00:30Z</time>
      </trkpt>
      <trkpt lat="46.6613" lon="3.85215">
        <ele>270.4</ele>
        <time>2018-03-25T08:00:31Z</time>
      </trkpt>
      <trkpt lat="46.66124" lon="3.85217">
        <ele>270.6</ele>
        <time>2018-03-25T08:00:32Z</time>
      </trkpt>
      <trkpt lat="46.66119" lon="3.85219">
        <ele>270.7</ele>
        <time>2018-03-25T08:00:33Z</time>
      </trkpt>
      <trkpt lat="46.66114" lon="3.85221">
        <ele>270.4</ele>
        <time>2018-03-25T08:00:34Z</time>
      </trkpt>
      <trkpt lat="46.66108" lon="3.85222">
        <ele>270.2</ele>
        <time>2018-03-25T08:00:35Z</time>
      </trkpt>
      <trkpt lat="46.66102" lon="3.85224">
        <ele>270</ele>
        <time>2018-03-25T08:00:36Z</time>
      </trkpt>
      <trkpt lat="46.66096" lon="3.85226">
        <ele>269.9</ele>
        <time>2018-03-25T08:00:37Z</time>
      </trkpt>
      <trkpt lat="46.6609" lon="3.85228">
        <ele>269.8</ele>
        <time>2018-03-25T08:00:38Z</time>
      </trkpt>
      <trkpt lat="46.66085" lon="3.8523">
        <ele>269.7</ele>
        <time>2018-03-25T08:00:39Z</time>
      </trkpt>
      <trkpt lat="46.66078" lon="3.85232">
        <ele>269.6</ele>
        <time>2018-03-25T08:00:40Z</time>
      </trkpt>
      <trkpt lat="46.66072" lon="3.85233">
        <ele>269.2</ele>
        <time>2018-03-25T08:00:41Z</time>
      </trkpt>
      <trkpt lat="46.66066" lon="3.85235">
        <ele>268.9</ele>
        <time>2018-03-25T08:00:42Z</time>
      </trkpt>
      <trkpt lat="46.66059" lon="3.85237">
        <ele>268.3</ele>
        <time>2018-03-25T08:00:43Z</time>
      </trkpt>
      <trkpt lat="46.66052" lon="3.8524">
        <ele>267.9</ele>
        <time>2018-03-25T08:00:44Z</time>
      </trkpt>
      <trkpt lat="46.66044" lon="3.85243">
        <ele>267.5</ele>
        <time>2018-03-25T08:00:45Z</time>
      </trkpt>
      <trkpt lat="46.66037" lon="3.85247">
        <ele>267</ele>
        <time>2018-03-25T08:00:46Z</time>
      </trkpt>
      <trkpt lat="46.66029" lon="3.85251">
        <ele>266.7</ele>
        <time>2018-03-25T08:00:47Z</time>
      </trkpt>
      <trkpt lat="46.66021" lon="3.85255">
        <ele>265.6</ele>
        <time>2018-03-25T08:00:48Z</time>
      </trkpt>
      <trkpt lat="46.66013" lon="3.85255">
        <ele>264.8</ele>
        <time>2018-03-25T08:00:49Z</time>
      </trkpt>
      <trkpt lat="46.66004" lon="3.85252">
        <ele>263.8</ele>
        <time>2018-03-25T08:00:50Z</time>
      </trkpt>
      <trkpt lat="46.65996" lon="3.8525">
        <ele>263.1</ele>
        <time>2018-03-25T08:00:51Z</time>
      </trkpt>
      <trkpt lat="46.65988" lon="3.85248">
        <ele>262.5</ele>
        <time>2018-03-25T08:00:52Z</time>
      </trkpt>
      <trkpt lat="46.65982" lon="3.85248">
        <ele>261.2</ele>
        <time>2018-03-25T08:00:53Z</time>
      </trkpt>
      <trkpt lat="46.65975" lon="3.85251">
        <ele>260.1</ele>
        <time>2018-03-25T08:00:54Z</time>
      </trkpt>
      <trkpt lat="46.65969" lon="3.85254">
        <ele>258.4</ele>
        <time>2018-03-25T08:00:55Z</time>
      </trkpt>
      <trkpt lat="46.65964" lon="3.85258">
        <ele>257</ele>
        <time>2018-03-25T08:00:56Z</time>
      </trkpt>
      <trkpt lat="46.65959" lon="3.85261">
        <ele>255.2</ele>
        <time>2018-03-25T08:00:57Z</time>
      </trkpt>
      <trkpt lat="46.65951" lon="3.85266">
        <ele>252.9</ele>
        <time>2018-03-25T08:00:59Z</time>
      </trkpt>
      <trkpt lat="46.65943" lon="3.8527">
        <ele>249.8</ele>
        <time>2018-03-25T08:01:02Z</time>
      </trkpt>
      <trkpt lat="46.65936" lon="3.85275">
        <ele>250.4</ele>
        <time>2018-03-25T08:01:09Z</time>
      </trkpt>
      <trkpt lat="46.65935" lon="3.85276">
        <ele>250.8</ele>
        <time>2018-03-25T08:01:10Z</time>
      </trkpt>
      <trkpt lat="46.65921" lon="3.85287">
        <ele>252.2</ele>
        <time>2018-03-25T08:01:16Z</time>
      </trkpt>
      <trkpt lat="46.65913" lon="3.85294">
        <ele>253.2</ele>
        <time>2018-03-25T08:01:20Z</time>
      </trkpt>
      <trkpt lat="46.65907" lon="3.85301">
        <ele>253.2</ele>
        <time>2018-03-25T08:01:23Z</time>
      </trkpt>
      <trkpt lat="46.65901" lon="3.85306">
        <ele>253.7</ele>
        <time>2018-03-25T08:01:26Z</time>
      </trkpt>
      <trkpt lat="46.65894" lon="3.85313">
        <ele>253.9</ele>
        <time>2018-03-25T08:01:29Z</time>
      </trkpt>
      <trkpt lat="46.65888" lon="3.85317">
        <ele>254.6</ele>
        <time>2018-03-25T08:01:32Z</time>
      </trkpt>
      <trkpt lat="46.65881" lon="3.85321">
        <ele>255.8</ele>
        <time>2018-03-25T08:01:35Z</time>
      </trkpt>
      <trkpt lat="46.65875" lon="3.85322">
        <ele>256.2</ele>
        <time>2018-03-25T08:01:38Z</time>
      </trkpt>
      <trkpt lat="46.65868" lon="3.85327">
        <ele>256.5</ele>
        <time>2018-03-25T08:01:41Z</time>
      </trkpt>
      <trkpt lat="46.65859" lon="3.85329">
        <ele>256.3</ele>
        <time>2018-03-25T08:01:45Z</time>
      </trkpt>
      <trkpt lat="46.65852" lon="3.85327">
        <ele>256.1</ele>
        <time>2018-03-25T08:01:49Z</time>
      </trkpt>
      <trkpt lat="46.65845" lon="3.85326">
        <ele>256.4</ele>
        <time>2018-03-25T08:01:51Z</time>
      </trkpt>
      <trkpt lat="46.65838" lon="3.85324">
        <ele>256.2</ele>
        <time>2018-03-25T08:01:53Z</time>
      </trkpt>
      <trkpt lat="46.65831" lon="3.85322">
        <ele>255</ele>
        <time>2018-03-25T08:01:55Z</time>
      </trkpt>
      <trkpt lat="46.65824" lon="3.85322">
        <ele>253.7</ele>
        <time>2018-03-25T08:01:57Z</time>
      </trkpt>
      <trkpt lat="46.65818" lon="3.85328">
        <ele>252.7</ele>
        <time>2018-03-25T08:01:59Z</time>
      </trkpt>
      <trkpt lat="46.6581" lon="3.85327">
        <ele>252.4</ele>
        <time>2018-03-25T08:02:01Z</time>
      </trkpt>
      <trkpt lat="46.65801" lon="3.85324">
        <ele>252.3</ele>
        <time>2018-03-25T08:02:04Z</time>
      </trkpt>
      <trkpt lat="46.65793" lon="3.85323">
        <ele>252.3</ele>
        <time>2018-03-25T08:02:07Z</time>
      </trkpt>
      <trkpt lat="46.65784" lon="3.8532">
        <ele>253</ele>
        <time>2018-03-25T08:02:10Z</time>
      </trkpt>
      <trkpt lat="46.65782" lon="3.85319">
        <ele>253.4</ele>
        <time>2018-03-25T08:02:11Z</time>
      </trkpt>
      <trkpt lat="46.65769" lon="3.85316">
        <ele>254.1</ele>
        <time>2018-03-25T08:02:16Z</time>
      </trkpt>
      <trkpt lat="46.65761" lon="3.85312">
        <ele>254.6</ele>
        <time>2018-03-25T08:02:19Z</time>
      </trkpt>
      <trkpt lat="46.65753" lon="3.85308">
        <ele>254.4</ele>
        <time>2018-03-25T08:02:22Z</time>
      </trkpt>
      <trkpt lat="46.65746" lon="3.85305">
        <ele>254.8</ele>
        <time>2018-03-25T08:02:25Z</time>
      </trkpt>
      <trkpt lat="46.65739" lon="3.85302">
        <ele>254.9</ele>
        <time>2018-03-25T08:02:28Z</time>
      </trkpt>
      <trkpt lat="46.65732" lon="3.853">
        <ele>256.5</ele>
        <time>2018-03-25T08:02:32Z</time>
      </trkpt>
      <trkpt lat="46.65724" lon="3.85297">
        <ele>258</ele>
        <time>2018-03-25T08:02:37Z</time>
      </trkpt>
      <trkpt lat="46.65717" lon="3.85293">
        <ele>258.8</ele>
        <time>2018-03-25T08:02:40Z</time>
      </trkpt>
      <trkpt lat="46.65709" lon="3.85291">
        <ele>259.8</ele>
        <time>2018-03-25T08:02:43Z</time>
      </trkpt>
      <trkpt lat="46.65701" lon="3.85288">
        <ele>260.5</ele>
        <time>2018-03-25T08:02:47Z</time>
      </trkpt>
      <trkpt lat="46.65694" lon="3.85285">
        <ele>261.1</ele>
        <time>2018-03-25T08:02:51Z</time>
      </trkpt>
      <trkpt lat="46.65686" lon="3.85282">
        <ele>261.8</ele>
        <time>2018-03-25T08:02:56Z</time>
      </trkpt>
      <trkpt lat="46.65678" lon="3.8528">
        <ele>262</ele>
        <time>2018-03-25T08:03:02Z</time>
      </trkpt>
      <trkpt lat="46.6567" lon="3.85277">
        <ele>264.6</ele>
        <time>2018-03-25T08:03:09Z</time>
      </trkpt>
      <trkpt lat="46.65663" lon="3.85275">
        <ele>265.9</ele>
        <time>2018-03-25T08:03:16Z</time>
      </trkpt>
      <trkpt lat="46.65661" lon="3.85275">
        <ele>266.1</ele>
        <time>2018-03-25T08:03:17Z</time>
      </trkpt>
      <trkpt lat="46.65647" lon="3.85269">
        <ele>268.2</ele>
        <time>2018-03-25T08:03:31Z</time>
      </trkpt>
      <trkpt lat="46.65641" lon="3.85261">
        <ele>270.6</ele>
        <time>2018-03-25T08:03:40Z</time>
      </trkpt>
      <trkpt lat="46.65634" lon="3.85252">
        <ele>273.5</ele>
        <time>2018-03-25T08:03:52Z</time>
      </trkpt>
      <trkpt lat="46.65628" lon="3.85243">
        <ele>275.3</ele>
        <time>2018-03-25T08:04:02Z</time>
      </trkpt>
      <trkpt lat="46.65621" lon="3.85235">
        <ele>277.4</ele>
        <time>2018-03-25T08:04:13Z</time>
      </trkpt>
      <trkpt lat="46.65616" lon="3.85226">
        <ele>278.7</ele>
        <time>2018-03-25T08:04:23Z</time>
      </trkpt>
      <trkpt lat="46.65616" lon="3.85225">
        <ele>279.3</ele>
        <time>2018-03-25T08:04:24Z</time>
      </trkpt>
      <trkpt lat="46.65605" lon="3.85207">
        <ele>283</ele>
        <time>2018-03-25T08:04:43Z</time>
      </trkpt>
      <trkpt lat="46.656" lon="3.85198">
        <ele>283.7</ele>
        <time>2018-03-25T08:04:53Z</time>
      </trkpt>
      <trkpt lat="46.65593" lon="3.85192">
        <ele>284.8</ele>
        <time>2018-03-25T08:05:02Z</time>
      </trkpt>
      <trkpt lat="46.65586" lon="3.85185">
        <ele>285.7</ele>
        <time>2018-03-25T08:05:51Z</time>
      </trkpt>
      <trkpt lat="46.65585" lon="3.85183">
        <ele>285.5</ele>
        <time>2018-03-25T08:05:52Z</time>
      </trkpt>
      <trkpt lat="46.65574" lon="3.85167">
        <ele>287</ele>
        <time>2018-03-25T08:06:05Z</time>
      </trkpt>
      <trkpt lat="46.65568" lon="3.85159">
        <ele>288</ele>
        <time>2018-03-25T08:06:12Z</time>
      </trkpt>
      <trkpt lat="46.65562" lon="3.85153">
        <ele>287.2</ele>
        <time>2018-03-25T08:06:17Z</time>
      </trkpt>
      <trkpt lat="46.65556" lon="3.85145">
        <ele>288.2</ele>
        <time>2018-03-25T08:06:21Z</time>
      </trkpt>
      <trkpt lat="46.6555" lon="3.85136">
        <ele>288.2</ele>
        <time>2018-03-25T08:06:25Z</time>
      </trkpt>
      <trkpt lat="46.65544" lon="3.85129">
        <ele>288.3</ele>
        <time>2018-03-25T08:06:28Z</time>
      </trkpt>
      <trkpt lat="46.65537" lon="3.85122">
        <ele>288.6</ele>
        <time>2018-03-25T08:06:31Z</time>
      </trkpt>
      <trkpt lat="46.65531" lon="3.85116">
        <ele>288.6</ele>
        <time>2018-03-25T08:06:34Z</time>
      </trkpt>
      <trkpt lat="46.65525" lon="3.8511">
        <ele>289.2</ele>
        <time>2018-03-25T08:06:37Z</time>
      </trkpt>
      <trkpt lat="46.6552" lon="3.85103">
        <ele>289.5</ele>
        <time>2018-03-25T08:06:40Z</time>
      </trkpt>
      <trkpt lat="46.65514" lon="3.85096">
        <ele>289.2</ele>
        <time>2018-03-25T08:06:44Z</time>
      </trkpt>
      <trkpt lat="46.65508" lon="3.85088">
        <ele>290.6</ele>
        <time>2018-03-25T08:06:48Z</time>
      </trkpt>
      <trkpt lat="46.65503" lon="3.8508">
        <ele>292</ele>
        <time>2018-03-25T08:06:52Z</time>
      </trkpt>
      <trkpt lat="46.65501" lon="3.85078">
        <ele>292.3</ele>
        <time>2018-03-25T08:06:53Z</time>
      </trkpt>
      <trkpt lat="46.6549" lon="3.85064">
        <ele>293.6</ele>
        <time>2018-03-25T08:07:00Z</time>
      </trkpt>
      <trkpt lat="46.65485" lon="3.85057">
        <ele>294.1</ele>
        <time>2018-03-25T08:07:04Z</time>
      </trkpt>
      <trkpt lat="46.65479" lon="3.85048">
        <ele>294.7</ele>
        <time>2018-03-25T08:07:09Z</time>
      </trkpt>
      <trkpt lat="46.65473" lon="3.85041">
        <ele>297.3</ele>
        <time>2018-03-25T08:07:14Z</time>
      </trkpt>
      <trkpt lat="46.65466" lon="3.85034">
        <ele>298.3</ele>
        <time>2018-03-25T08:07:21Z</time>
      </trkpt>
      <trkpt lat="46.6546" lon="3.85026">
        <ele>300.4</ele>
        <time>2018-03-25T08:07:29Z</time>
      </trkpt>
      <trkpt lat="46.65456" lon="3.85015">
        <ele>300.7</ele>
        <time>2018-03-25T08:07:37Z</time>
      </trkpt>
      <trkpt lat="46.65456" lon="3.85002">
        <ele>302.1</ele>
        <time>2018-03-25T08:07:47Z</time>
      </trkpt>
      <trkpt lat="46.65456" lon="3.8499">
        <ele>303.8</ele>
        <time>2018-03-25T08:07:56Z</time>
      </trkpt>
      <trkpt lat="46.65456" lon="3.84988">
        <ele>304.1</ele>
        <time>2018-03-25T08:07:57Z</time>
      </trkpt>
      <trkpt lat="46.65456" lon="3.84965">
        <ele>306.5</ele>
        <time>2018-03-25T08:08:12Z</time>
      </trkpt>
      <trkpt lat="46.65455" lon="3.84952">
        <ele>307.5</ele>
        <time>2018-03-25T08:08:20Z</time>
      </trkpt>
      <trkpt lat="46.65453" lon="3.84939">
        <ele>308.9</ele>
        <time>2018-03-25T08:08:28Z</time>
      </trkpt>
      <trkpt lat="46.6545" lon="3.84928">
        <ele>309.7</ele>
        <time>2018-03-25T08:08:35Z</time>
      </trkpt>
      <trkpt lat="46.65445" lon="3.84918">
        <ele>311</ele>
        <time>2018-03-25T08:08:43Z</time>
      </trkpt>
      <trkpt lat="46.65438" lon="3.84909">
        <ele>312.6</ele>
        <time>2018-03-25T08:08:51Z</time>
      </trkpt>
      <trkpt lat="46.65431" lon="3.84903">
        <ele>313.4</ele>
        <time>2018-03-25T08:08:59Z</time>
      </trkpt>
      <trkpt lat="46.65429" lon="3.84902">
        <ele>313.5</ele>
        <time>2018-03-25T08:09:00Z</time>
      </trkpt>
      <trkpt lat="46.65416" lon="3.84893">
        <ele>315.7</ele>
        <time>2018-03-25T08:09:14Z</time>
      </trkpt>
      <trkpt lat="46.65409" lon="3.84888">
        <ele>316.9</ele>
        <time>2018-03-25T08:09:23Z</time>
      </trkpt>
      <trkpt lat="46.65401" lon="3.84883">
        <ele>317.7</ele>
        <time>2018-03-25T08:09:34Z</time>
      </trkpt>
      <trkpt lat="46.65393" lon="3.84879">
        <ele>320.7</ele>
        <time>2018-03-25T08:09:46Z</time>
      </trkpt>
      <trkpt lat="46.65385" lon="3.84875">
        <ele>322.7</ele>
        <time>2018-03-25T08:09:58Z</time>
      </trkpt>
      <trkpt lat="46.65378" lon="3.84867">
        <ele>325</ele>
        <time>2018-03-25T08:10:11Z</time>
      </trkpt>
      <trkpt lat="46.65377" lon="3.84866">
        <ele>325.2</ele>
        <time>2018-03-25T08:10:12Z</time>
      </trkpt>
      <trkpt lat="46.65364" lon="3.84863">
        <ele>328.5</ele>
        <time>2018-03-25T08:10:35Z</time>
      </trkpt>
      <trkpt lat="46.65357" lon="3.84868">
        <ele>328.2</ele>
        <time>2018-03-25T08:10:40Z</time>
      </trkpt>
      <trkpt lat="46.65348" lon="3.8487">
        <ele>328.8</ele>
        <time>2018-03-25T08:10:45Z</time>
      </trkpt>
      <trkpt lat="46.65341" lon="3.84873">
        <ele>330.1</ele>
        <time>2018-03-25T08:10:49Z</time>
      </trkpt>
      <trkpt lat="46.65334" lon="3.84878">
        <ele>330.4</ele>
        <time>2018-03-25T08:10:54Z</time>
      </trkpt>
      <trkpt lat="46.65327" lon="3.84882">
        <ele>330.8</ele>
        <time>2018-03-25T08:10:58Z</time>
      </trkpt>
      <trkpt lat="46.6532" lon="3.84887">
        <ele>330.3</ele>
        <time>2018-03-25T08:11:02Z</time>
      </trkpt>
      <trkpt lat="46.65314" lon="3.84892">
        <ele>330.8</ele>
        <time>2018-03-25T08:11:05Z</time>
      </trkpt>
      <trkpt lat="46.65307" lon="3.84897">
        <ele>331.7</ele>
        <time>2018-03-25T08:11:08Z</time>
      </trkpt>
      <trkpt lat="46.653" lon="3.84903">
        <ele>331.7</ele>
        <time>2018-03-25T08:11:11Z</time>
      </trkpt>
      <trkpt lat="46.65294" lon="3.84907">
        <ele>331</ele>
        <time>2018-03-25T08:11:13Z</time>
      </trkpt>
      <trkpt lat="46.65291" lon="3.84909">
        <ele>330.7</ele>
        <time>2018-03-25T08:11:14Z</time>
      </trkpt>
      <trkpt lat="46.65281" lon="3.84914">
        <ele>330</ele>
        <time>2018-03-25T08:11:17Z</time>
      </trkpt>
      <trkpt lat="46.65273" lon="3.84917">
        <ele>329.4</ele>
        <time>2018-03-25T08:11:19Z</time>
      </trkpt>
      <trkpt lat="46.65267" lon="3.84918">
        <ele>329.1</ele>
        <time>2018-03-25T08:11:20Z</time>
      </trkpt>
      <trkpt lat="46.65261" lon="3.84921">
        <ele>329</ele>
        <time>2018-03-25T08:11:21Z</time>
      </trkpt>
      <trkpt lat="46.65255" lon="3.84924">
        <ele>328.6</ele>
        <time>2018-03-25T08:11:22Z</time>
      </trkpt>
      <trkpt lat="46.65248" lon="3.84928">
        <ele>328.3</ele>
        <time>2018-03-25T08:11:23Z</time>
      </trkpt>
      <trkpt lat="46.65241" lon="3.84934">
        <ele>327.8</ele>
        <time>2018-03-25T08:11:24Z</time>
      </trkpt>
      <trkpt lat="46.65234" lon="3.8494">
        <ele>327.4</ele>
        <time>2018-03-25T08:11:25Z</time>
      </trkpt>
      <trkpt lat="46.65228" lon="3.84945">
        <ele>327.1</ele>
        <time>2018-03-25T08:11:26Z</time>
      </trkpt>
      <trkpt lat="46.65221" lon="3.84951">
        <ele>327</ele>
        <time>2018-03-25T08:11:27Z</time>
      </trkpt>
      <trkpt lat="46.65216" lon="3.84956">
        <ele>326.8</ele>
        <time>2018-03-25T08:11:28Z</time>
      </trkpt>
      <trkpt lat="46.65211" lon="3.84962">
        <ele>326.1</ele>
        <time>2018-03-25T08:11:29Z</time>
      </trkpt>
      <trkpt lat="46.65206" lon="3.84967">
        <ele>325.6</ele>
        <time>2018-03-25T08:11:30Z</time>
      </trkpt>
      <trkpt lat="46.65202" lon="3.84972">
        <ele>325.1</ele>
        <time>2018-03-25T08:11:31Z</time>
      </trkpt>
      <trkpt lat="46.65198" lon="3.84977">
        <ele>324.7</ele>
        <time>2018-03-25T08:11:32Z</time>
      </trkpt>
      <trkpt lat="46.65194" lon="3.84981">
        <ele>324.3</ele>
        <time>2018-03-25T08:11:33Z</time>
      </trkpt>
      <trkpt lat="46.65188" lon="3.8499">
        <ele>324.7</ele>
        <time>2018-03-25T08:11:35Z</time>
      </trkpt>
      <trkpt lat="46.65182" lon="3.84998">
        <ele>324.7</ele>
        <time>2018-03-25T08:11:37Z</time>
      </trkpt>
      <trkpt lat="46.65177" lon="3.85005">
        <ele>324.2</ele>
        <time>2018-03-25T08:11:39Z</time>
      </trkpt>
      <trkpt lat="46.65171" lon="3.85012">
        <ele>324.1</ele>
        <time>2018-03-25T08:11:41Z</time>
      </trkpt>
      <trkpt lat="46.65165" lon="3.85019">
        <ele>324.4</ele>
        <time>2018-03-25T08:11:43Z</time>
      </trkpt>
      <trkpt lat="46.65159" lon="3.85025">
        <ele>324.9</ele>
        <time>2018-03-25T08:11:45Z</time>
      </trkpt>
      <trkpt lat="46.65153" lon="3.85031">
        <ele>325.4</ele>
        <time>2018-03-25T08:11:47Z</time>
      </trkpt>
      <trkpt lat="46.65148" lon="3.85037">
        <ele>325.4</ele>
        <time>2018-03-25T08:11:49Z</time>
      </trkpt>
      <trkpt lat="46.65143" lon="3.85043">
        <ele>325.7</ele>
        <time>2018-03-25T08:11:51Z</time>
      </trkpt>
      <trkpt lat="46.65136" lon="3.85049">
        <ele>325.7</ele>
        <time>2018-03-25T08:11:54Z</time>
      </trkpt>
      <trkpt lat="46.65131" lon="3.85055">
        <ele>325.8</ele>
        <time>2018-03-25T08:11:56Z</time>
      </trkpt>
      <trkpt lat="46.65126" lon="3.85062">
        <ele>325.6</ele>
        <time>2018-03-25T08:11:58Z</time>
      </trkpt>
      <trkpt lat="46.6512" lon="3.8507">
        <ele>325.7</ele>
        <time>2018-03-25T08:12:00Z</time>
      </trkpt>
      <trkpt lat="46.65116" lon="3.85074">
        <ele>325.7</ele>
        <time>2018-03-25T08:12:01Z</time>
      </trkpt>
      <trkpt lat="46.65111" lon="3.85078">
        <ele>325.5</ele>
        <time>2018-03-25T08:12:02Z</time>
      </trkpt>
      <trkpt lat="46.65106" lon="3.8508">
        <ele>325.3</ele>
        <time>2018-03-25T08:12:03Z</time>
      </trkpt>
      <trkpt lat="46.65102" lon="3.85081">
        <ele>325</ele>
        <time>2018-03-25T08:12:04Z</time>
      </trkpt>
      <trkpt lat="46.65096" lon="3.85083">
        <ele>324.8</ele>
        <time>2018-03-25T08:12:05Z</time>
      </trkpt>
      <trkpt lat="46.65091" lon="3.85085">
        <ele>324.6</ele>
        <time>2018-03-25T08:12:06Z</time>
      </trkpt>
      <trkpt lat="46.65087" lon="3.85086">
        <ele>324.3</ele>
        <time>2018-03-25T08:12:07Z</time>
      </trkpt>
      <trkpt lat="46.65081" lon="3.85088">
        <ele>324.1</ele>
        <time>2018-03-25T08:12:08Z</time>
      </trkpt>
      <trkpt lat="46.65076" lon="3.85089">
        <ele>323.8</ele>
        <time>2018-03-25T08:12:09Z</time>
      </trkpt>
      <trkpt lat="46.65067" lon="3.8509">
        <ele>323.5</ele>
        <time>2018-03-25T08:12:11Z</time>
      </trkpt>
      <trkpt lat="46.65063" lon="3.8509">
        <ele>323.4</ele>
        <time>2018-03-25T08:12:12Z</time>
      </trkpt>
      <trkpt lat="46.65058" lon="3.8509">
        <ele>323.3</ele>
        <time>2018-03-25T08:12:13Z</time>
      </trkpt>
      <trkpt lat="46.65053" lon="3.8509">
        <ele>323</ele>
        <time>2018-03-25T08:12:14Z</time>
      </trkpt>
      <trkpt lat="46.65048" lon="3.85091">
        <ele>322.8</ele>
        <time>2018-03-25T08:12:15Z</time>
      </trkpt>
      <trkpt lat="46.65042" lon="3.85093">
        <ele>322.4</ele>
        <time>2018-03-25T08:12:16Z</time>
      </trkpt>
      <trkpt lat="46.65038" lon="3.85096">
        <ele>322.1</ele>
        <time>2018-03-25T08:12:17Z</time>
      </trkpt>
      <trkpt lat="46.65034" lon="3.85098">
        <ele>321.9</ele>
        <time>2018-03-25T08:12:18Z</time>
      </trkpt>
      <trkpt lat="46.65025" lon="3.85102">
        <ele>321.4</ele>
        <time>2018-03-25T08:12:20Z</time>
      </trkpt>
      <trkpt lat="46.65019" lon="3.85105">
        <ele>321.9</ele>
        <time>2018-03-25T08:12:22Z</time>
      </trkpt>
      <trkpt lat="46.65015" lon="3.85108">
        <ele>321.7</ele>
        <time>2018-03-25T08:12:23Z</time>
      </trkpt>
      <trkpt lat="46.65011" lon="3.85112">
        <ele>321.5</ele>
        <time>2018-03-25T08:12:24Z</time>
      </trkpt>
      <trkpt lat="46.65007" lon="3.85117">
        <ele>321.4</ele>
        <time>2018-03-25T08:12:25Z</time>
      </trkpt>
      <trkpt lat="46.65" lon="3.85124">
        <ele>321.4</ele>
        <time>2018-03-25T08:12:27Z</time>
      </trkpt>
      <trkpt lat="46.64994" lon="3.85128">
        <ele>321.3</ele>
        <time>2018-03-25T08:12:29Z</time>
      </trkpt>
      <trkpt lat="46.64987" lon="3.85133">
        <ele>321.7</ele>
        <time>2018-03-25T08:12:31Z</time>
      </trkpt>
      <trkpt lat="46.6498" lon="3.85139">
        <ele>322.1</ele>
        <time>2018-03-25T08:12:33Z</time>
      </trkpt>
      <trkpt lat="46.64974" lon="3.85147">
        <ele>322.1</ele>
        <time>2018-03-25T08:12:35Z</time>
      </trkpt>
      <trkpt lat="46.6497" lon="3.85152">
        <ele>322</ele>
        <time>2018-03-25T08:12:36Z</time>
      </trkpt>
      <trkpt lat="46.64967" lon="3.85157">
        <ele>321.9</ele>
        <time>2018-03-25T08:12:37Z</time>
      </trkpt>
      <trkpt lat="46.64963" lon="3.85163">
        <ele>322</ele>
        <time>2018-03-25T08:12:38Z</time>
      </trkpt>
      <trkpt lat="46.64959" lon="3.8517">
        <ele>322.2</ele>
        <time>2018-03-25T08:12:39Z</time>
      </trkpt>
      <trkpt lat="46.64956" lon="3.85177">
        <ele>322</ele>
        <time>2018-03-25T08:12:40Z</time>
      </trkpt>
      <trkpt lat="46.64953" lon="3.85185">
        <ele>321.9</ele>
        <time>2018-03-25T08:12:41Z</time>
      </trkpt>
      <trkpt lat="46.64951" lon="3.85193">
        <ele>321.4</ele>
        <time>2018-03-25T08:12:42Z</time>
      </trkpt>
      <trkpt lat="46.6495" lon="3.85202">
        <ele>321</ele>
        <time>2018-03-25T08:12:43Z</time>
      </trkpt>
      <trkpt lat="46.6495" lon="3.85211">
        <ele>320.6</ele>
        <time>2018-03-25T08:12:44Z</time>
      </trkpt>
      <trkpt lat="46.6495" lon="3.85218">
        <ele>319.9</ele>
        <time>2018-03-25T08:12:45Z</time>
      </trkpt>
      <trkpt lat="46.64951" lon="3.85225">
        <ele>319.3</ele>
        <time>2018-03-25T08:12:46Z</time>
      </trkpt>
      <trkpt lat="46.64951" lon="3.85233">
        <ele>318.4</ele>
        <time>2018-03-25T08:12:47Z</time>
      </trkpt>
      <trkpt lat="46.64951" lon="3.8524">
        <ele>317.7</ele>
        <time>2018-03-25T08:12:48Z</time>
      </trkpt>
      <trkpt lat="46.64952" lon="3.85247">
        <ele>317.1</ele>
        <time>2018-03-25T08:12:49Z</time>
      </trkpt>
      <trkpt lat="46.64954" lon="3.85255">
        <ele>316.6</ele>
        <time>2018-03-25T08:12:50Z</time>
      </trkpt>
      <trkpt lat="46.64957" lon="3.85263">
        <ele>316.3</ele>
        <time>2018-03-25T08:12:51Z</time>
      </trkpt>
      <trkpt lat="46.64959" lon="3.8527">
        <ele>314.8</ele>
        <time>2018-03-25T08:12:52Z</time>
      </trkpt>
      <trkpt lat="46.64962" lon="3.85277">
        <ele>313.7</ele>
        <time>2018-03-25T08:12:53Z</time>
      </trkpt>
      <trkpt lat="46.64966" lon="3.85285">
        <ele>312.3</ele>
        <time>2018-03-25T08:12:54Z</time>
      </trkpt>
      <trkpt lat="46.64968" lon="3.85293">
        <ele>311.3</ele>
        <time>2018-03-25T08:12:55Z</time>
      </trkpt>
      <trkpt lat="46.6497" lon="3.85302">
        <ele>310.6</ele>
        <time>2018-03-25T08:12:56Z</time>
      </trkpt>
      <trkpt lat="46.64973" lon="3.8531">
        <ele>309</ele>
        <time>2018-03-25T08:12:57Z</time>
      </trkpt>
      <trkpt lat="46.64976" lon="3.8532">
        <ele>307.9</ele>
        <time>2018-03-25T08:12:58Z</time>
      </trkpt>
      <trkpt lat="46.6498" lon="3.8533">
        <ele>306.5</ele>
        <time>2018-03-25T08:12:59Z</time>
      </trkpt>
      <trkpt lat="46.64984" lon="3.85339">
        <ele>305.5</ele>
        <time>2018-03-25T08:13:00Z</time>
      </trkpt>
      <trkpt lat="46.64987" lon="3.8535">
        <ele>304.2</ele>
        <time>2018-03-25T08:13:01Z</time>
      </trkpt>
      <trkpt lat="46.64988" lon="3.85361">
        <ele>303.2</ele>
        <time>2018-03-25T08:13:02Z</time>
      </trkpt>
      <trkpt lat="46.64988" lon="3.85374">
        <ele>302.5</ele>
        <time>2018-03-25T08:13:03Z</time>
      </trkpt>
      <trkpt lat="46.64987" lon="3.85387">
        <ele>301.6</ele>
        <time>2018-03-25T08:13:04Z</time>
      </trkpt>
      <trkpt lat="46.64988" lon="3.85399">
        <ele>301</ele>
        <time>2018-03-25T08:13:05Z</time>
      </trkpt>
      <trkpt lat="46.64989" lon="3.85411">
        <ele>299.6</ele>
        <time>2018-03-25T08:13:06Z</time>
      </trkpt>
      <trkpt lat="46.6499" lon="3.85423">
        <ele>298.5</ele>
        <time>2018-03-25T08:13:07Z</time>
      </trkpt>
      <trkpt lat="46.64989" lon="3.85432">
        <ele>297.5</ele>
        <time>2018-03-25T08:13:08Z</time>
      </trkpt>
      <trkpt lat="46.6499" lon="3.85441">
        <ele>296.7</ele>
        <time>2018-03-25T08:13:09Z</time>
      </trkpt>
      <trkpt lat="46.64991" lon="3.85447">
        <ele>296.1</ele>
        <time>2018-03-25T08:13:10Z</time>
      </trkpt>
      <trkpt lat="46.64993" lon="3.85454">
        <ele>295.5</ele>
        <time>2018-03-25T08:13:11Z</time>
      </trkpt>
      <trkpt lat="46.64995" lon="3.85462">
        <ele>295</ele>
        <time>2018-03-25T08:13:12Z</time>
      </trkpt>
      <trkpt lat="46.64996" lon="3.85468">
        <ele>294.1</ele>
        <time>2018-03-25T08:13:13Z</time>
      </trkpt>
      <trkpt lat="46.64998" lon="3.85475">
        <ele>293.4</ele>
        <time>2018-03-25T08:13:14Z</time>
      </trkpt>
      <trkpt lat="46.65001" lon="3.85488">
        <ele>292.2</ele>
        <time>2018-03-25T08:13:16Z</time>
      </trkpt>
      <trkpt lat="46.65003" lon="3.85495">
        <ele>291.7</ele>
        <time>2018-03-25T08:13:17Z</time>
      </trkpt>
      <trkpt lat="46.65005" lon="3.85503">
        <ele>291.2</ele>
        <time>2018-03-25T08:13:18Z</time>
      </trkpt>
      <trkpt lat="46.65005" lon="3.85511">
        <ele>290.9</ele>
        <time>2018-03-25T08:13:19Z</time>
      </trkpt>
      <trkpt lat="46.65004" lon="3.85519">
        <ele>290.2</ele>
        <time>2018-03-25T08:13:20Z</time>
      </trkpt>
      <trkpt lat="46.65001" lon="3.85525">
        <ele>289.7</ele>
        <time>2018-03-25T08:13:21Z</time>
      </trkpt>
      <trkpt lat="46.64995" lon="3.85529">
        <ele>289.2</ele>
        <time>2018-03-25T08:13:22Z</time>
      </trkpt>
      <trkpt lat="46.64989" lon="3.85531">
        <ele>288.3</ele>
        <time>2018-03-25T08:13:23Z</time>
      </trkpt>
      <trkpt lat="46.64983" lon="3.85532">
        <ele>287.6</ele>
        <time>2018-03-25T08:13:24Z</time>
      </trkpt>
      <trkpt lat="46.64978" lon="3.85535">
        <ele>287.1</ele>
        <time>2018-03-25T08:13:25Z</time>
      </trkpt>
      <trkpt lat="46.64972" lon="3.85538">
        <ele>286.8</ele>
        <time>2018-03-25T08:13:26Z</time>
      </trkpt>
      <trkpt lat="46.64965" lon="3.85537">
        <ele>285.7</ele>
        <time>2018-03-25T08:13:27Z</time>
      </trkpt>
      <trkpt lat="46.6496" lon="3.85534">
        <ele>284.9</ele>
        <time>2018-03-25T08:13:28Z</time>
      </trkpt>
      <trkpt lat="46.64954" lon="3.85529">
        <ele>284.2</ele>
        <time>2018-03-25T08:13:29Z</time>
      </trkpt>
      <trkpt lat="46.6495" lon="3.85523">
        <ele>283.2</ele>
        <time>2018-03-25T08:13:30Z</time>
      </trkpt>
      <trkpt lat="46.64947" lon="3.85516">
        <ele>282.4</ele>
        <time>2018-03-25T08:13:31Z</time>
      </trkpt>
      <trkpt lat="46.64944" lon="3.8551">
        <ele>281.5</ele>
        <time>2018-03-25T08:13:32Z</time>
      </trkpt>
      <trkpt lat="46.64939" lon="3.85505">
        <ele>280.8</ele>
        <time>2018-03-25T08:13:33Z</time>
      </trkpt>
      <trkpt lat="46.64934" lon="3.85506">
        <ele>280.3</ele>
        <time>2018-03-25T08:13:34Z</time>
      </trkpt>
      <trkpt lat="46.6493" lon="3.8551">
        <ele>279.4</ele>
        <time>2018-03-25T08:13:35Z</time>
      </trkpt>
      <trkpt lat="46.64927" lon="3.85523">
        <ele>277.5</ele>
        <time>2018-03-25T08:13:37Z</time>
      </trkpt>
      <trkpt lat="46.64927" lon="3.85535">
        <ele>275.3</ele>
        <time>2018-03-25T08:13:39Z</time>
      </trkpt>
      <trkpt lat="46.64928" lon="3.85541">
        <ele>274.4</ele>
        <time>2018-03-25T08:13:40Z</time>
      </trkpt>
      <trkpt lat="46.64929" lon="3.85548">
        <ele>273.6</ele>
        <time>2018-03-25T08:13:41Z</time>
      </trkpt>
      <trkpt lat="46.64932" lon="3.85555">
        <ele>272.5</ele>
        <time>2018-03-25T08:13:42Z</time>
      </trkpt>
      <trkpt lat="46.64935" lon="3.85561">
        <ele>271.6</ele>
        <time>2018-03-25T08:13:43Z</time>
      </trkpt>
      <trkpt lat="46.64939" lon="3.85572">
        <ele>270.1</ele>
        <time>2018-03-25T08:13:45Z</time>
      </trkpt>
      <trkpt lat="46.64941" lon="3.85578">
        <ele>269</ele>
        <time>2018-03-25T08:13:46Z</time>
      </trkpt>
      <trkpt lat="46.64944" lon="3.8559">
        <ele>267.5</ele>
        <time>2018-03-25T08:13:48Z</time>
      </trkpt>
      <trkpt lat="46.64947" lon="3.856">
        <ele>267.1</ele>
        <time>2018-03-25T08:13:50Z</time>
      </trkpt>
      <trkpt lat="46.64949" lon="3.85612">
        <ele>265.5</ele>
        <time>2018-03-25T08:13:52Z</time>
      </trkpt>
      <trkpt lat="46.6495" lon="3.85618">
        <ele>264.9</ele>
        <time>2018-03-25T08:13:53Z</time>
      </trkpt>
      <trkpt lat="46.64952" lon="3.85626">
        <ele>264.1</ele>
        <time>2018-03-25T08:13:54Z</time>
      </trkpt>
      <trkpt lat="46.64954" lon="3.85633">
        <ele>263.5</ele>
        <time>2018-03-25T08:13:55Z</time>
      </trkpt>
      <trkpt lat="46.64957" lon="3.85639">
        <ele>263.1</ele>
        <time>2018-03-25T08:13:56Z</time>
      </trkpt>
      <trkpt lat="46.64964" lon="3.85648">
        <ele>261.9</ele>
        <time>2018-03-25T08:13:58Z</time>
      </trkpt>
      <trkpt lat="46.64967" lon="3.85659">
        <ele>260</ele>
        <time>2018-03-25T08:14:01Z</time>
      </trkpt>
      <trkpt lat="46.64968" lon="3.8567">
        <ele>258.6</ele>
        <time>2018-03-25T08:14:06Z</time>
      </trkpt>
      <trkpt lat="46.64968" lon="3.85682">
        <ele>257.2</ele>
        <time>2018-03-25T08:14:12Z</time>
      </trkpt>
      <trkpt lat="46.64967" lon="3.85694">
        <ele>257.8</ele>
        <time>2018-03-25T08:14:21Z</time>
      </trkpt>
      <trkpt lat="46.64966" lon="3.85695">
        <ele>257.6</ele>
        <time>2018-03-25T08:14:22Z</time>
      </trkpt>
      <trkpt lat="46.64969" lon="3.8572">
        <ele>257.5</ele>
        <time>2018-03-25T08:14:43Z</time>
      </trkpt>
      <trkpt lat="46.6497" lon="3.85732">
        <ele>256.7</ele>
        <time>2018-03-25T08:15:03Z</time>
      </trkpt>
      <trkpt lat="46.64972" lon="3.85744">
        <ele>258</ele>
        <time>2018-03-25T08:15:11Z</time>
      </trkpt>
      <trkpt lat="46.6497" lon="3.85754">
        <ele>258.3</ele>
        <time>2018-03-25T08:15:16Z</time>
      </trkpt>
      <trkpt lat="46.6497" lon="3.85767">
        <ele>259.2</ele>
        <time>2018-03-25T08:15:20Z</time>
      </trkpt>
      <trkpt lat="46.64971" lon="3.85779">
        <ele>259.7</ele>
        <time>2018-03-25T08:15:24Z</time>
      </trkpt>
      <trkpt lat="46.64971" lon="3.85783">
        <ele>259.7</ele>
        <time>2018-03-25T08:15:25Z</time>
      </trkpt>
      <trkpt lat="46.64968" lon="3.858">
        <ele>260.5</ele>
        <time>2018-03-25T08:15:30Z</time>
      </trkpt>
      <trkpt lat="46.64965" lon="3.85812">
        <ele>260.5</ele>
        <time>2018-03-25T08:15:33Z</time>
      </trkpt>
      <trkpt lat="46.64962" lon="3.8582">
        <ele>260.3</ele>
        <time>2018-03-25T08:15:35Z</time>
      </trkpt>
      <trkpt lat="46.64959" lon="3.85828">
        <ele>261</ele>
        <time>2018-03-25T08:15:37Z</time>
      </trkpt>
      <trkpt lat="46.64955" lon="3.85838">
        <ele>261.2</ele>
        <time>2018-03-25T08:15:40Z</time>
      </trkpt>
      <trkpt lat="46.64949" lon="3.85846">
        <ele>262.1</ele>
        <time>2018-03-25T08:15:44Z</time>
      </trkpt>
      <trkpt lat="46.64943" lon="3.85855">
        <ele>263</ele>
        <time>2018-03-25T08:15:49Z</time>
      </trkpt>
      <trkpt lat="46.64937" lon="3.85862">
        <ele>263.3</ele>
        <time>2018-03-25T08:15:53Z</time>
      </trkpt>
      <trkpt lat="46.64932" lon="3.85871">
        <ele>264.4</ele>
        <time>2018-03-25T08:15:58Z</time>
      </trkpt>
      <trkpt lat="46.64926" lon="3.85882">
        <ele>265.7</ele>
        <time>2018-03-25T08:16:05Z</time>
      </trkpt>
      <trkpt lat="46.6492" lon="3.8589">
        <ele>267.2</ele>
        <time>2018-03-25T08:16:13Z</time>
      </trkpt>
      <trkpt lat="46.64913" lon="3.85898">
        <ele>269.7</ele>
        <time>2018-03-25T08:16:21Z</time>
      </trkpt>
      <trkpt lat="46.64906" lon="3.85905">
        <ele>270.8</ele>
        <time>2018-03-25T08:16:29Z</time>
      </trkpt>
      <trkpt lat="46.64905" lon="3.85906">
        <ele>271</ele>
        <time>2018-03-25T08:16:30Z</time>
      </trkpt>
      <trkpt lat="46.64894" lon="3.85922">
        <ele>273</ele>
        <time>2018-03-25T08:16:46Z</time>
      </trkpt>
      <trkpt lat="46.64887" lon="3.8593">
        <ele>274.6</ele>
        <time>2018-03-25T08:16:54Z</time>
      </trkpt>
      <trkpt lat="46.6488" lon="3.85935">
        <ele>276</ele>
        <time>2018-03-25T08:17:03Z</time>
      </trkpt>
      <trkpt lat="46.64871" lon="3.85937">
        <ele>278.4</ele>
        <time>2018-03-25T08:17:11Z</time>
      </trkpt>
      <trkpt lat="46.64863" lon="3.85938">
        <ele>280.2</ele>
        <time>2018-03-25T08:17:21Z</time>
      </trkpt>
      <trkpt lat="46.64854" lon="3.8594">
        <ele>281.7</ele>
        <time>2018-03-25T08:17:30Z</time>
      </trkpt>
      <trkpt lat="46.64853" lon="3.8594">
        <ele>281.8</ele>
        <time>2018-03-25T08:17:31Z</time>
      </trkpt>
      <trkpt lat="46.64837" lon="3.85945">
        <ele>283.6</ele>
        <time>2018-03-25T08:17:45Z</time>
      </trkpt>
      <trkpt lat="46.64829" lon="3.85949">
        <ele>284.4</ele>
        <time>2018-03-25T08:17:52Z</time>
      </trkpt>
      <trkpt lat="46.64822" lon="3.85954">
        <ele>284.9</ele>
        <time>2018-03-25T08:17:59Z</time>
      </trkpt>
      <trkpt lat="46.64814" lon="3.8596">
        <ele>286</ele>
        <time>2018-03-25T08:18:06Z</time>
      </trkpt>
      <trkpt lat="46.64808" lon="3.85969">
        <ele>287.1</ele>
        <time>2018-03-25T08:18:13Z</time>
      </trkpt>
      <trkpt lat="46.64803" lon="3.85979">
        <ele>288.3</ele>
        <time>2018-03-25T08:18:21Z</time>
      </trkpt>
      <trkpt lat="46.64798" lon="3.85989">
        <ele>289.6</ele>
        <time>2018-03-25T08:18:29Z</time>
      </trkpt>
      <trkpt lat="46.64794" lon="3.86">
        <ele>290.8</ele>
        <time>2018-03-25T08:18:37Z</time>
      </trkpt>
      <trkpt lat="46.64794" lon="3.86002">
        <ele>291.1</ele>
        <time>2018-03-25T08:18:38Z</time>
      </trkpt>
      <trkpt lat="46.64789" lon="3.86024">
        <ele>293.7</ele>
        <time>2018-03-25T08:18:53Z</time>
      </trkpt>
      <trkpt lat="46.64791" lon="3.86036">
        <ele>294.3</ele>
        <time>2018-03-25T08:19:01Z</time>
      </trkpt>
      <trkpt lat="46.64792" lon="3.86048">
        <ele>295.6</ele>
        <time>2018-03-25T08:19:09Z</time>
      </trkpt>
      <trkpt lat="46.64795" lon="3.8606">
        <ele>297.1</ele>
        <time>2018-03-25T08:19:18Z</time>
      </trkpt>
      <trkpt lat="46.64797" lon="3.86072">
        <ele>311.7</ele>
        <time>2018-03-25T08:19:28Z</time>
      </trkpt>
      <trkpt lat="46.648" lon="3.86083">
        <ele>314</ele>
        <time>2018-03-25T08:19:36Z</time>
      </trkpt>
      <trkpt lat="46.64805" lon="3.86093">
        <ele>314.1</ele>
        <time>2018-03-25T08:19:44Z</time>
      </trkpt>
      <trkpt lat="46.64806" lon="3.86094">
        <ele>314.2</ele>
        <time>2018-03-25T08:19:45Z</time>
      </trkpt>
      <trkpt lat="46.64819" lon="3.86108">
        <ele>315.6</ele>
        <time>2018-03-25T08:19:59Z</time>
      </trkpt>
      <trkpt lat="46.64826" lon="3.86114">
        <ele>317.3</ele>
        <time>2018-03-25T08:20:05Z</time>
      </trkpt>
      <trkpt lat="46.64833" lon="3.8612">
        <ele>317.8</ele>
        <time>2018-03-25T08:20:11Z</time>
      </trkpt>
      <trkpt lat="46.6484" lon="3.86126">
        <ele>318.5</ele>
        <time>2018-03-25T08:20:17Z</time>
      </trkpt>
      <trkpt lat="46.64848" lon="3.8613">
        <ele>319.9</ele>
        <time>2018-03-25T08:20:22Z</time>
      </trkpt>
      <trkpt lat="46.64856" lon="3.86136">
        <ele>321.1</ele>
        <time>2018-03-25T08:20:28Z</time>
      </trkpt>
      <trkpt lat="46.64864" lon="3.8614">
        <ele>321.6</ele>
        <time>2018-03-25T08:20:33Z</time>
      </trkpt>
      <trkpt lat="46.64872" lon="3.86144">
        <ele>322.2</ele>
        <time>2018-03-25T08:20:38Z</time>
      </trkpt>
      <trkpt lat="46.64879" lon="3.86149">
        <ele>323.8</ele>
        <time>2018-03-25T08:20:43Z</time>
      </trkpt>
      <trkpt lat="46.64887" lon="3.86154">
        <ele>324.1</ele>
        <time>2018-03-25T08:20:48Z</time>
      </trkpt>
      <trkpt lat="46.64888" lon="3.86155">
        <ele>324.3</ele>
        <time>2018-03-25T08:20:49Z</time>
      </trkpt>
      <trkpt lat="46.64901" lon="3.86162">
        <ele>325.7</ele>
        <time>2018-03-25T08:20:55Z</time>
      </trkpt>
      <trkpt lat="46.64909" lon="3.86168">
        <ele>326.2</ele>
        <time>2018-03-25T08:20:59Z</time>
      </trkpt>
      <trkpt lat="46.64915" lon="3.86175">
        <ele>327.6</ele>
        <time>2018-03-25T08:21:03Z</time>
      </trkpt>
      <trkpt lat="46.6492" lon="3.86183">
        <ele>327.8</ele>
        <time>2018-03-25T08:21:06Z</time>
      </trkpt>
      <trkpt lat="46.64923" lon="3.86191">
        <ele>327.9</ele>
        <time>2018-03-25T08:21:08Z</time>
      </trkpt>
      <trkpt lat="46.64927" lon="3.86199">
        <ele>328.1</ele>
        <time>2018-03-25T08:21:10Z</time>
      </trkpt>
      <trkpt lat="46.64929" lon="3.86205">
        <ele>328.1</ele>
        <time>2018-03-25T08:21:11Z</time>
      </trkpt>
      <trkpt lat="46.64932" lon="3.86211">
        <ele>328.1</ele>
        <time>2018-03-25T08:21:12Z</time>
      </trkpt>
      <trkpt lat="46.64934" lon="3.86217">
        <ele>327.7</ele>
        <time>2018-03-25T08:21:13Z</time>
      </trkpt>
      <trkpt lat="46.64937" lon="3.86223">
        <ele>327.4</ele>
        <time>2018-03-25T08:21:14Z</time>
      </trkpt>
      <trkpt lat="46.64939" lon="3.86228">
        <ele>327.2</ele>
        <time>2018-03-25T08:21:15Z</time>
      </trkpt>
      <trkpt lat="46.64941" lon="3.86234">
        <ele>327</ele>
        <time>2018-03-25T08:21:16Z</time>
      </trkpt>
      <trkpt lat="46.64944" lon="3.8624">
        <ele>327</ele>
        <time>2018-03-25T08:21:17Z</time>
      </trkpt>
      <trkpt lat="46.64946" lon="3.86246">
        <ele>327</ele>
        <time>2018-03-25T08:21:18Z</time>
      </trkpt>
      <trkpt lat="46.64948" lon="3.86251">
        <ele>327.1</ele>
        <time>2018-03-25T08:21:19Z</time>
      </trkpt>
      <trkpt lat="46.64954" lon="3.86261">
        <ele>327.3</ele>
        <time>2018-03-25T08:21:21Z</time>
      </trkpt>
      <trkpt lat="46.64959" lon="3.86269">
        <ele>326.6</ele>
        <time>2018-03-25T08:21:23Z</time>
      </trkpt>
      <trkpt lat="46.64963" lon="3.86276">
        <ele>326.8</ele>
        <time>2018-03-25T08:21:25Z</time>
      </trkpt>
      <trkpt lat="46.64968" lon="3.86286">
        <ele>325.9</ele>
        <time>2018-03-25T08:21:28Z</time>
      </trkpt>
      <trkpt lat="46.64972" lon="3.86295">
        <ele>326.5</ele>
        <time>2018-03-25T08:21:31Z</time>
      </trkpt>
      <trkpt lat="46.64974" lon="3.86306">
        <ele>327</ele>
        <time>2018-03-25T08:21:34Z</time>
      </trkpt>
      <trkpt lat="46.64974" lon="3.86317">
        <ele>327.6</ele>
        <time>2018-03-25T08:21:37Z</time>
      </trkpt>
      <trkpt lat="46.64973" lon="3.86329">
        <ele>327.6</ele>
        <time>2018-03-25T08:21:40Z</time>
      </trkpt>
      <trkpt lat="46.64969" lon="3.8634">
        <ele>327.3</ele>
        <time>2018-03-25T08:21:43Z</time>
      </trkpt>
      <trkpt lat="46.64964" lon="3.8635">
        <ele>326.8</ele>
        <time>2018-03-25T08:21:45Z</time>
      </trkpt>
      <trkpt lat="46.64961" lon="3.86356">
        <ele>326.4</ele>
        <time>2018-03-25T08:21:46Z</time>
      </trkpt>
      <trkpt lat="46.6496" lon="3.86364">
        <ele>326.1</ele>
        <time>2018-03-25T08:21:47Z</time>
      </trkpt>
      <trkpt lat="46.6496" lon="3.86376">
        <ele>325.1</ele>
        <time>2018-03-25T08:21:49Z</time>
      </trkpt>
      <trkpt lat="46.64961" lon="3.86381">
        <ele>324.8</ele>
        <time>2018-03-25T08:21:50Z</time>
      </trkpt>
      <trkpt lat="46.64965" lon="3.86398">
        <ele>323.9</ele>
        <time>2018-03-25T08:21:53Z</time>
      </trkpt>
      <trkpt lat="46.64966" lon="3.86409">
        <ele>323.9</ele>
        <time>2018-03-25T08:21:55Z</time>
      </trkpt>
      <trkpt lat="46.64967" lon="3.86419">
        <ele>323.8</ele>
        <time>2018-03-25T08:21:57Z</time>
      </trkpt>
      <trkpt lat="46.64967" lon="3.86431">
        <ele>323.8</ele>
        <time>2018-03-25T08:21:59Z</time>
      </trkpt>
      <trkpt lat="46.64968" lon="3.86442">
        <ele>324.4</ele>
        <time>2018-03-25T08:22:01Z</time>
      </trkpt>
      <trkpt lat="46.64968" lon="3.86453">
        <ele>325</ele>
        <time>2018-03-25T08:22:03Z</time>
      </trkpt>
      <trkpt lat="46.64967" lon="3.86464">
        <ele>325.3</ele>
        <time>2018-03-25T08:22:05Z</time>
      </trkpt>
      <trkpt lat="46.64967" lon="3.86474">
        <ele>325.2</ele>
        <time>2018-03-25T08:22:07Z</time>
      </trkpt>
      <trkpt lat="46.64966" lon="3.86485">
        <ele>324.9</ele>
        <time>2018-03-25T08:22:09Z</time>
      </trkpt>
      <trkpt lat="46.64964" lon="3.86494">
        <ele>325.6</ele>
        <time>2018-03-25T08:22:11Z</time>
      </trkpt>
      <trkpt lat="46.64963" lon="3.86503">
        <ele>326.4</ele>
        <time>2018-03-25T08:22:13Z</time>
      </trkpt>
      <trkpt lat="46.64961" lon="3.86511">
        <ele>326.8</ele>
        <time>2018-03-25T08:22:15Z</time>
      </trkpt>
      <trkpt lat="46.64958" lon="3.86519">
        <ele>327</ele>
        <time>2018-03-25T08:22:17Z</time>
      </trkpt>
      <trkpt lat="46.64955" lon="3.86531">
        <ele>326.6</ele>
        <time>2018-03-25T08:22:20Z</time>
      </trkpt>
      <trkpt lat="46.64953" lon="3.8654">
        <ele>327</ele>
        <time>2018-03-25T08:22:22Z</time>
      </trkpt>
      <trkpt lat="46.6495" lon="3.86548">
        <ele>327.3</ele>
        <time>2018-03-25T08:22:24Z</time>
      </trkpt>
      <trkpt lat="46.64947" lon="3.8656">
        <ele>328.2</ele>
        <time>2018-03-25T08:22:27Z</time>
      </trkpt>
      <trkpt lat="46.64944" lon="3.86571">
        <ele>328.5</ele>
        <time>2018-03-25T08:22:30Z</time>
      </trkpt>
      <trkpt lat="46.64941" lon="3.86583">
        <ele>329.3</ele>
        <time>2018-03-25T08:22:33Z</time>
      </trkpt>
      <trkpt lat="46.64937" lon="3.86592">
        <ele>329.5</ele>
        <time>2018-03-25T08:22:36Z</time>
      </trkpt>
      <trkpt lat="46.64933" lon="3.86602">
        <ele>329.7</ele>
        <time>2018-03-25T08:22:39Z</time>
      </trkpt>
      <trkpt lat="46.6493" lon="3.86613">
        <ele>330</ele>
        <time>2018-03-25T08:22:42Z</time>
      </trkpt>
      <trkpt lat="46.64927" lon="3.86624">
        <ele>330.8</ele>
        <time>2018-03-25T08:22:45Z</time>
      </trkpt>
      <trkpt lat="46.64925" lon="3.86634">
        <ele>331.2</ele>
        <time>2018-03-25T08:22:48Z</time>
      </trkpt>
      <trkpt lat="46.64924" lon="3.86646">
        <ele>331.3</ele>
        <time>2018-03-25T08:22:51Z</time>
      </trkpt>
      <trkpt lat="46.64924" lon="3.86649">
        <ele>331.2</ele>
        <time>2018-03-25T08:22:52Z</time>
      </trkpt>
      <trkpt lat="46.64921" lon="3.86669">
        <ele>332.6</ele>
        <time>2018-03-25T08:22:57Z</time>
      </trkpt>
      <trkpt lat="46.6492" lon="3.86682">
        <ele>332.9</ele>
        <time>2018-03-25T08:23:00Z</time>
      </trkpt>
      <trkpt lat="46.6492" lon="3.86691">
        <ele>333.1</ele>
        <time>2018-03-25T08:23:02Z</time>
      </trkpt>
      <trkpt lat="46.6492" lon="3.867">
        <ele>333.7</ele>
        <time>2018-03-25T08:23:04Z</time>
      </trkpt>
      <trkpt lat="46.6492" lon="3.86709">
        <ele>334.1</ele>
        <time>2018-03-25T08:23:06Z</time>
      </trkpt>
      <trkpt lat="46.64921" lon="3.86718">
        <ele>334.2</ele>
        <time>2018-03-25T08:23:08Z</time>
      </trkpt>
      <trkpt lat="46.64923" lon="3.86728">
        <ele>334.4</ele>
        <time>2018-03-25T08:23:10Z</time>
      </trkpt>
      <trkpt lat="46.64924" lon="3.86737">
        <ele>334.1</ele>
        <time>2018-03-25T08:23:12Z</time>
      </trkpt>
      <trkpt lat="46.64926" lon="3.86746">
        <ele>334.2</ele>
        <time>2018-03-25T08:23:14Z</time>
      </trkpt>
      <trkpt lat="46.64928" lon="3.86754">
        <ele>334.4</ele>
        <time>2018-03-25T08:23:16Z</time>
      </trkpt>
      <trkpt lat="46.6493" lon="3.86764">
        <ele>334.5</ele>
        <time>2018-03-25T08:23:18Z</time>
      </trkpt>
      <trkpt lat="46.64932" lon="3.86773">
        <ele>334.6</ele>
        <time>2018-03-25T08:23:20Z</time>
      </trkpt>
      <trkpt lat="46.64934" lon="3.86782">
        <ele>334.3</ele>
        <time>2018-03-25T08:23:22Z</time>
      </trkpt>
      <trkpt lat="46.64937" lon="3.86792">
        <ele>334.2</ele>
        <time>2018-03-25T08:23:24Z</time>
      </trkpt>
      <trkpt lat="46.64939" lon="3.86802">
        <ele>334.1</ele>
        <time>2018-03-25T08:23:26Z</time>
      </trkpt>
      <trkpt lat="46.64942" lon="3.86811">
        <ele>334.3</ele>
        <time>2018-03-25T08:23:28Z</time>
      </trkpt>
      <trkpt lat="46.64945" lon="3.86821">
        <ele>335.1</ele>
        <time>2018-03-25T08:23:30Z</time>
      </trkpt>
      <trkpt lat="46.64948" lon="3.8683">
        <ele>335.8</ele>
        <time>2018-03-25T08:23:32Z</time>
      </trkpt>
      <trkpt lat="46.64951" lon="3.8684">
        <ele>336</ele>
        <time>2018-03-25T08:23:34Z</time>
      </trkpt>
      <trkpt lat="46.64953" lon="3.86849">
        <ele>335.5</ele>
        <time>2018-03-25T08:23:36Z</time>
      </trkpt>
      <trkpt lat="46.64956" lon="3.86859">
        <ele>335.4</ele>
        <time>2018-03-25T08:23:38Z</time>
      </trkpt>
      <trkpt lat="46.64959" lon="3.86869">
        <ele>335.3</ele>
        <time>2018-03-25T08:23:40Z</time>
      </trkpt>
      <trkpt lat="46.64961" lon="3.86879">
        <ele>335.4</ele>
        <time>2018-03-25T08:23:42Z</time>
      </trkpt>
      <trkpt lat="46.64964" lon="3.86889">
        <ele>335.6</ele>
        <time>2018-03-25T08:23:44Z</time>
      </trkpt>
      <trkpt lat="46.64965" lon="3.869">
        <ele>335.5</ele>
        <time>2018-03-25T08:23:46Z</time>
      </trkpt>
      <trkpt lat="46.64967" lon="3.8691">
        <ele>335.4</ele>
        <time>2018-03-25T08:23:48Z</time>
      </trkpt>
      <trkpt lat="46.64968" lon="3.86921">
        <ele>335.8</ele>
        <time>2018-03-25T08:23:50Z</time>
      </trkpt>
      <trkpt lat="46.6497" lon="3.86931">
        <ele>336</ele>
        <time>2018-03-25T08:23:52Z</time>
      </trkpt>
      <trkpt lat="46.6497" lon="3.86935">
        <ele>336.1</ele>
        <time>2018-03-25T08:23:53Z</time>
      </trkpt>
      <trkpt lat="46.64973" lon="3.8695">
        <ele>337.2</ele>
        <time>2018-03-25T08:23:56Z</time>
      </trkpt>
      <trkpt lat="46.64974" lon="3.86959">
        <ele>337.5</ele>
        <time>2018-03-25T08:23:58Z</time>
      </trkpt>
      <trkpt lat="46.64976" lon="3.86968">
        <ele>338.1</ele>
        <time>2018-03-25T08:24:00Z</time>
      </trkpt>
      <trkpt lat="46.64979" lon="3.86977">
        <ele>338.2</ele>
        <time>2018-03-25T08:24:02Z</time>
      </trkpt>
      <trkpt lat="46.64981" lon="3.86986">
        <ele>338.2</ele>
        <time>2018-03-25T08:24:04Z</time>
      </trkpt>
      <trkpt lat="46.64984" lon="3.86995">
        <ele>338.1</ele>
        <time>2018-03-25T08:24:06Z</time>
      </trkpt>
      <trkpt lat="46.64988" lon="3.87003">
        <ele>337.8</ele>
        <time>2018-03-25T08:24:08Z</time>
      </trkpt>
      <trkpt lat="46.64991" lon="3.87012">
        <ele>337.5</ele>
        <time>2018-03-25T08:24:10Z</time>
      </trkpt>
      <trkpt lat="46.64994" lon="3.8702">
        <ele>337.7</ele>
        <time>2018-03-25T08:24:12Z</time>
      </trkpt>
      <trkpt lat="46.64998" lon="3.87028">
        <ele>338.4</ele>
        <time>2018-03-25T08:24:14Z</time>
      </trkpt>
      <trkpt lat="46.65001" lon="3.87036">
        <ele>338.8</ele>
        <time>2018-03-25T08:24:16Z</time>
      </trkpt>
      <trkpt lat="46.65004" lon="3.87044">
        <ele>339.4</ele>
        <time>2018-03-25T08:24:18Z</time>
      </trkpt>
      <trkpt lat="46.65008" lon="3.87052">
        <ele>340.4</ele>
        <time>2018-03-25T08:24:20Z</time>
      </trkpt>
      <trkpt lat="46.65011" lon="3.8706">
        <ele>340.8</ele>
        <time>2018-03-25T08:24:22Z</time>
      </trkpt>
      <trkpt lat="46.65014" lon="3.87067">
        <ele>340.5</ele>
        <time>2018-03-25T08:24:24Z</time>
      </trkpt>
      <trkpt lat="46.65017" lon="3.87075">
        <ele>341.2</ele>
        <time>2018-03-25T08:24:26Z</time>
      </trkpt>
      <trkpt lat="46.65021" lon="3.87083">
        <ele>341.5</ele>
        <time>2018-03-25T08:24:28Z</time>
      </trkpt>
      <trkpt lat="46.65024" lon="3.87091">
        <ele>342.1</ele>
        <time>2018-03-25T08:24:30Z</time>
      </trkpt>
      <trkpt lat="46.65028" lon="3.87102">
        <ele>343.3</ele>
        <time>2018-03-25T08:24:33Z</time>
      </trkpt>
      <trkpt lat="46.65033" lon="3.87113">
        <ele>343.7</ele>
        <time>2018-03-25T08:24:36Z</time>
      </trkpt>
      <trkpt lat="46.65037" lon="3.87124">
        <ele>343.8</ele>
        <time>2018-03-25T08:24:39Z</time>
      </trkpt>
      <trkpt lat="46.65042" lon="3.87135">
        <ele>344.6</ele>
        <time>2018-03-25T08:24:42Z</time>
      </trkpt>
      <trkpt lat="46.65046" lon="3.87146">
        <ele>344.2</ele>
        <time>2018-03-25T08:24:45Z</time>
      </trkpt>
      <trkpt lat="46.65051" lon="3.87157">
        <ele>344.4</ele>
        <time>2018-03-25T08:24:48Z</time>
      </trkpt>
      <trkpt lat="46.65055" lon="3.87169">
        <ele>344.7</ele>
        <time>2018-03-25T08:24:51Z</time>
      </trkpt>
      <trkpt lat="46.65058" lon="3.87176">
        <ele>345.2</ele>
        <time>2018-03-25T08:24:53Z</time>
      </trkpt>
      <trkpt lat="46.6506" lon="3.8718">
        <ele>345.4</ele>
        <time>2018-03-25T08:24:54Z</time>
      </trkpt>
      <trkpt lat="46.65056" lon="3.87196">
        <ele>345.3</ele>
        <time>2018-03-25T08:24:59Z</time>
      </trkpt>
      <trkpt lat="46.6505" lon="3.87199">
        <ele>345.8</ele>
        <time>2018-03-25T08:25:01Z</time>
      </trkpt>
      <trkpt lat="46.65042" lon="3.87204">
        <ele>345.5</ele>
        <time>2018-03-25T08:25:03Z</time>
      </trkpt>
      <trkpt lat="46.65035" lon="3.87208">
        <ele>345.9</ele>
        <time>2018-03-25T08:25:05Z</time>
      </trkpt>
      <trkpt lat="46.65027" lon="3.87213">
        <ele>346.8</ele>
        <time>2018-03-25T08:25:07Z</time>
      </trkpt>
      <trkpt lat="46.65019" lon="3.87218">
        <ele>346.3</ele>
        <time>2018-03-25T08:25:09Z</time>
      </trkpt>
      <trkpt lat="46.65014" lon="3.8722">
        <ele>346.2</ele>
        <time>2018-03-25T08:25:10Z</time>
      </trkpt>
      <trkpt lat="46.6501" lon="3.87222">
        <ele>346.1</ele>
        <time>2018-03-25T08:25:11Z</time>
      </trkpt>
      <trkpt lat="46.65005" lon="3.87225">
        <ele>345.5</ele>
        <time>2018-03-25T08:25:12Z</time>
      </trkpt>
      <trkpt lat="46.65001" lon="3.87228">
        <ele>345.1</ele>
        <time>2018-03-25T08:25:13Z</time>
      </trkpt>
      <trkpt lat="46.64996" lon="3.87231">
        <ele>344.8</ele>
        <time>2018-03-25T08:25:14Z</time>
      </trkpt>
      <trkpt lat="46.64991" lon="3.87233">
        <ele>344.6</ele>
        <time>2018-03-25T08:25:15Z</time>
      </trkpt>
      <trkpt lat="46.64986" lon="3.87235">
        <ele>344.5</ele>
        <time>2018-03-25T08:25:16Z</time>
      </trkpt>
      <trkpt lat="46.64981" lon="3.87238">
        <ele>344.2</ele>
        <time>2018-03-25T08:25:17Z</time>
      </trkpt>
      <trkpt lat="46.64976" lon="3.87241">
        <ele>343.9</ele>
        <time>2018-03-25T08:25:18Z</time>
      </trkpt>
      <trkpt lat="46.6497" lon="3.87244">
        <ele>343.7</ele>
        <time>2018-03-25T08:25:19Z</time>
      </trkpt>
      <trkpt lat="46.64965" lon="3.87247">
        <ele>343.6</ele>
        <time>2018-03-25T08:25:20Z</time>
      </trkpt>
      <trkpt lat="46.64959" lon="3.8725">
        <ele>343.6</ele>
        <time>2018-03-25T08:25:21Z</time>
      </trkpt>
      <trkpt lat="46.64954" lon="3.87253">
        <ele>343.4</ele>
        <time>2018-03-25T08:25:22Z</time>
      </trkpt>
      <trkpt lat="46.64948" lon="3.87256">
        <ele>343.2</ele>
        <time>2018-03-25T08:25:23Z</time>
      </trkpt>
      <trkpt lat="46.64943" lon="3.87259">
        <ele>342.8</ele>
        <time>2018-03-25T08:25:24Z</time>
      </trkpt>
      <trkpt lat="46.64939" lon="3.87262">
        <ele>342.5</ele>
        <time>2018-03-25T08:25:25Z</time>
      </trkpt>
      <trkpt lat="46.64934" lon="3.87264">
        <ele>342.3</ele>
        <time>2018-03-25T08:25:26Z</time>
      </trkpt>
      <trkpt lat="46.64929" lon="3.87267">
        <ele>342.1</ele>
        <time>2018-03-25T08:25:27Z</time>
      </trkpt>
      <trkpt lat="46.64924" lon="3.8727">
        <ele>341.9</ele>
        <time>2018-03-25T08:25:28Z</time>
      </trkpt>
      <trkpt lat="46.6492" lon="3.87274">
        <ele>342.3</ele>
        <time>2018-03-25T08:25:29Z</time>
      </trkpt>
      <trkpt lat="46.64915" lon="3.87276">
        <ele>342.6</ele>
        <time>2018-03-25T08:25:30Z</time>
      </trkpt>
      <trkpt lat="46.6491" lon="3.87278">
        <ele>342.1</ele>
        <time>2018-03-25T08:25:31Z</time>
      </trkpt>
      <trkpt lat="46.64905" lon="3.8728">
        <ele>341.8</ele>
        <time>2018-03-25T08:25:32Z</time>
      </trkpt>
      <trkpt lat="46.64901" lon="3.8728">
        <ele>341.6</ele>
        <time>2018-03-25T08:25:33Z</time>
      </trkpt>
      <trkpt lat="46.64896" lon="3.87281">
        <ele>341.9</ele>
        <time>2018-03-25T08:25:34Z</time>
      </trkpt>
      <trkpt lat="46.64891" lon="3.87281">
        <ele>342.1</ele>
        <time>2018-03-25T08:25:35Z</time>
      </trkpt>
      <trkpt lat="46.64886" lon="3.87282">
        <ele>342.4</ele>
        <time>2018-03-25T08:25:36Z</time>
      </trkpt>
      <trkpt lat="46.64881" lon="3.87282">
        <ele>342.7</ele>
        <time>2018-03-25T08:25:37Z</time>
      </trkpt>
      <trkpt lat="46.64876" lon="3.87281">
        <ele>342.8</ele>
        <time>2018-03-25T08:25:38Z</time>
      </trkpt>
      <trkpt lat="46.6487" lon="3.87281">
        <ele>342.9</ele>
        <time>2018-03-25T08:25:39Z</time>
      </trkpt>
      <trkpt lat="46.64864" lon="3.8728">
        <ele>343</ele>
        <time>2018-03-25T08:25:40Z</time>
      </trkpt>
      <trkpt lat="46.64858" lon="3.87279">
        <ele>342.8</ele>
        <time>2018-03-25T08:25:41Z</time>
      </trkpt>
      <trkpt lat="46.64852" lon="3.87279">
        <ele>342.7</ele>
        <time>2018-03-25T08:25:42Z</time>
      </trkpt>
      <trkpt lat="46.64846" lon="3.87279">
        <ele>342.6</ele>
        <time>2018-03-25T08:25:43Z</time>
      </trkpt>
      <trkpt lat="46.6484" lon="3.87278">
        <ele>342.5</ele>
        <time>2018-03-25T08:25:44Z</time>
      </trkpt>
      <trkpt lat="46.64834" lon="3.87277">
        <ele>342.4</ele>
        <time>2018-03-25T08:25:45Z</time>
      </trkpt>
      <trkpt lat="46.64827" lon="3.87276">
        <ele>342.4</ele>
        <time>2018-03-25T08:25:46Z</time>
      </trkpt>
      <trkpt lat="46.64821" lon="3.87276">
        <ele>342.4</ele>
        <time>2018-03-25T08:25:47Z</time>
      </trkpt>
      <trkpt lat="46.64816" lon="3.87275">
        <ele>342</ele>
        <time>2018-03-25T08:25:48Z</time>
      </trkpt>
      <trkpt lat="46.6481" lon="3.87275">
        <ele>341.8</ele>
        <time>2018-03-25T08:25:49Z</time>
      </trkpt>
      <trkpt lat="46.64804" lon="3.87274">
        <ele>341.5</ele>
        <time>2018-03-25T08:25:50Z</time>
      </trkpt>
      <trkpt lat="46.64799" lon="3.87274">
        <ele>341.3</ele>
        <time>2018-03-25T08:25:51Z</time>
      </trkpt>
      <trkpt lat="46.64793" lon="3.87273">
        <ele>341.1</ele>
        <time>2018-03-25T08:25:52Z</time>
      </trkpt>
      <trkpt lat="46.64788" lon="3.87272">
        <ele>340.9</ele>
        <time>2018-03-25T08:25:53Z</time>
      </trkpt>
      <trkpt lat="46.64782" lon="3.8727">
        <ele>340.7</ele>
        <time>2018-03-25T08:25:54Z</time>
      </trkpt>
      <trkpt lat="46.64777" lon="3.87269">
        <ele>340.5</ele>
        <time>2018-03-25T08:25:55Z</time>
      </trkpt>
      <trkpt lat="46.64771" lon="3.87267">
        <ele>340.3</ele>
        <time>2018-03-25T08:25:56Z</time>
      </trkpt>
      <trkpt lat="46.64766" lon="3.87266">
        <ele>340</ele>
        <time>2018-03-25T08:25:57Z</time>
      </trkpt>
      <trkpt lat="46.6476" lon="3.87264">
        <ele>339.7</ele>
        <time>2018-03-25T08:25:58Z</time>
      </trkpt>
      <trkpt lat="46.64755" lon="3.87262">
        <ele>339.5</ele>
        <time>2018-03-25T08:25:59Z</time>
      </trkpt>
      <trkpt lat="46.6475" lon="3.8726">
        <ele>339.9</ele>
        <time>2018-03-25T08:26:00Z</time>
      </trkpt>
      <trkpt lat="46.64745" lon="3.87258">
        <ele>340.2</ele>
        <time>2018-03-25T08:26:01Z</time>
      </trkpt>
      <trkpt lat="46.6474" lon="3.87256">
        <ele>340</ele>
        <time>2018-03-25T08:26:02Z</time>
      </trkpt>
      <trkpt lat="46.64735" lon="3.87253">
        <ele>339.9</ele>
        <time>2018-03-25T08:26:03Z</time>
      </trkpt>
      <trkpt lat="46.64731" lon="3.87251">
        <ele>339.8</ele>
        <time>2018-03-25T08:26:04Z</time>
      </trkpt>
      <trkpt lat="46.64726" lon="3.87248">
        <ele>339.8</ele>
        <time>2018-03-25T08:26:05Z</time>
      </trkpt>
      <trkpt lat="46.64722" lon="3.87245">
        <ele>339.8</ele>
        <time>2018-03-25T08:26:06Z</time>
      </trkpt>
      <trkpt lat="46.64714" lon="3.8724">
        <ele>340.5</ele>
        <time>2018-03-25T08:26:08Z</time>
      </trkpt>
      <trkpt lat="46.64705" lon="3.87237">
        <ele>340.2</ele>
        <time>2018-03-25T08:26:10Z</time>
      </trkpt>
      <trkpt lat="46.64697" lon="3.87235">
        <ele>340</ele>
        <time>2018-03-25T08:26:12Z</time>
      </trkpt>
      <trkpt lat="46.64689" lon="3.87236">
        <ele>340.4</ele>
        <time>2018-03-25T08:26:14Z</time>
      </trkpt>
      <trkpt lat="46.6468" lon="3.87236">
        <ele>340.7</ele>
        <time>2018-03-25T08:26:16Z</time>
      </trkpt>
      <trkpt lat="46.64676" lon="3.87236">
        <ele>340.6</ele>
        <time>2018-03-25T08:26:17Z</time>
      </trkpt>
      <trkpt lat="46.64671" lon="3.87236">
        <ele>340.5</ele>
        <time>2018-03-25T08:26:18Z</time>
      </trkpt>
      <trkpt lat="46.64667" lon="3.87236">
        <ele>340.6</ele>
        <time>2018-03-25T08:26:19Z</time>
      </trkpt>
      <trkpt lat="46.64662" lon="3.87236">
        <ele>340.7</ele>
        <time>2018-03-25T08:26:20Z</time>
      </trkpt>
      <trkpt lat="46.64653" lon="3.87234">
        <ele>340.8</ele>
        <time>2018-03-25T08:26:22Z</time>
      </trkpt>
      <trkpt lat="46.64649" lon="3.87234">
        <ele>340.9</ele>
        <time>2018-03-25T08:26:23Z</time>
      </trkpt>
      <trkpt lat="46.64644" lon="3.87233">
        <ele>340.8</ele>
        <time>2018-03-25T08:26:24Z</time>
      </trkpt>
      <trkpt lat="46.64635" lon="3.87231">
        <ele>340.7</ele>
        <time>2018-03-25T08:26:26Z</time>
      </trkpt>
      <trkpt lat="46.64627" lon="3.87229">
        <ele>340.7</ele>
        <time>2018-03-25T08:26:28Z</time>
      </trkpt>
      <trkpt lat="46.64618" lon="3.87227">
        <ele>340.6</ele>
        <time>2018-03-25T08:26:30Z</time>
      </trkpt>
      <trkpt lat="46.64609" lon="3.87225">
        <ele>340.5</ele>
        <time>2018-03-25T08:26:32Z</time>
      </trkpt>
      <trkpt lat="46.64601" lon="3.87225">
        <ele>340.6</ele>
        <time>2018-03-25T08:26:34Z</time>
      </trkpt>
      <trkpt lat="46.64592" lon="3.87225">
        <ele>340.5</ele>
        <time>2018-03-25T08:26:36Z</time>
      </trkpt>
      <trkpt lat="46.64584" lon="3.87226">
        <ele>340.6</ele>
        <time>2018-03-25T08:26:38Z</time>
      </trkpt>
      <trkpt lat="46.64575" lon="3.87226">
        <ele>340.5</ele>
        <time>2018-03-25T08:26:40Z</time>
      </trkpt>
      <trkpt lat="46.64567" lon="3.87225">
        <ele>340.2</ele>
        <time>2018-03-25T08:26:42Z</time>
      </trkpt>
      <trkpt lat="46.6456" lon="3.87224">
        <ele>340.2</ele>
        <time>2018-03-25T08:26:44Z</time>
      </trkpt>
      <trkpt lat="46.64554" lon="3.87223">
        <ele>340.7</ele>
        <time>2018-03-25T08:26:46Z</time>
      </trkpt>
      <trkpt lat="46.64548" lon="3.87221">
        <ele>341.1</ele>
        <time>2018-03-25T08:26:48Z</time>
      </trkpt>
      <trkpt lat="46.6454" lon="3.87219">
        <ele>341.7</ele>
        <time>2018-03-25T08:26:51Z</time>
      </trkpt>
      <trkpt lat="46.64532" lon="3.87219">
        <ele>343.6</ele>
        <time>2018-03-25T08:26:54Z</time>
      </trkpt>
      <trkpt lat="46.64524" lon="3.87219">
        <ele>344.5</ele>
        <time>2018-03-25T08:26:57Z</time>
      </trkpt>
      <trkpt lat="46.64521" lon="3.8722">
        <ele>344.9</ele>
        <time>2018-03-25T08:26:58Z</time>
      </trkpt>
      <trkpt lat="46.64508" lon="3.87214">
        <ele>346.1</ele>
        <time>2018-03-25T08:27:03Z</time>
      </trkpt>
      <trkpt lat="46.645" lon="3.87207">
        <ele>346.5</ele>
        <time>2018-03-25T08:27:06Z</time>
      </trkpt>
      <trkpt lat="46.64495" lon="3.87201">
        <ele>346.5</ele>
        <time>2018-03-25T08:27:08Z</time>
      </trkpt>
      <trkpt lat="46.6449" lon="3.87196">
        <ele>347.7</ele>
        <time>2018-03-25T08:27:10Z</time>
      </trkpt>
      <trkpt lat="46.64485" lon="3.87189">
        <ele>347.4</ele>
        <time>2018-03-25T08:27:12Z</time>
      </trkpt>
      <trkpt lat="46.64479" lon="3.8718">
        <ele>347</ele>
        <time>2018-03-25T08:27:14Z</time>
      </trkpt>
      <trkpt lat="46.64475" lon="3.87175">
        <ele>346.9</ele>
        <time>2018-03-25T08:27:15Z</time>
      </trkpt>
      <trkpt lat="46.64472" lon="3.87169">
        <ele>346.5</ele>
        <time>2018-03-25T08:27:16Z</time>
      </trkpt>
      <trkpt lat="46.64468" lon="3.87163">
        <ele>346.2</ele>
        <time>2018-03-25T08:27:17Z</time>
      </trkpt>
      <trkpt lat="46.64464" lon="3.87156">
        <ele>346.5</ele>
        <time>2018-03-25T08:27:18Z</time>
      </trkpt>
      <trkpt lat="46.6446" lon="3.87149">
        <ele>346.7</ele>
        <time>2018-03-25T08:27:19Z</time>
      </trkpt>
      <trkpt lat="46.64456" lon="3.8714">
        <ele>346.2</ele>
        <time>2018-03-25T08:27:20Z</time>
      </trkpt>
      <trkpt lat="46.64452" lon="3.87131">
        <ele>345.9</ele>
        <time>2018-03-25T08:27:21Z</time>
      </trkpt>
      <trkpt lat="46.64447" lon="3.87122">
        <ele>345.7</ele>
        <time>2018-03-25T08:27:22Z</time>
      </trkpt>
      <trkpt lat="46.64442" lon="3.87113">
        <ele>345</ele>
        <time>2018-03-25T08:27:23Z</time>
      </trkpt>
      <trkpt lat="46.64437" lon="3.87104">
        <ele>344.4</ele>
        <time>2018-03-25T08:27:24Z</time>
      </trkpt>
      <trkpt lat="46.64432" lon="3.87095">
        <ele>343.5</ele>
        <time>2018-03-25T08:27:25Z</time>
      </trkpt>
      <trkpt lat="46.64427" lon="3.87086">
        <ele>342.9</ele>
        <time>2018-03-25T08:27:26Z</time>
      </trkpt>
      <trkpt lat="46.64422" lon="3.87077">
        <ele>342.4</ele>
        <time>2018-03-25T08:27:27Z</time>
      </trkpt>
      <trkpt lat="46.64417" lon="3.87069">
        <ele>342.1</ele>
        <time>2018-03-25T08:27:28Z</time>
      </trkpt>
      <trkpt lat="46.64412" lon="3.87061">
        <ele>341.9</ele>
        <time>2018-03-25T08:27:29Z</time>
      </trkpt>
      <trkpt lat="46.64407" lon="3.87053">
        <ele>341.4</ele>
        <time>2018-03-25T08:27:30Z</time>
      </trkpt>
      <trkpt lat="46.64402" lon="3.87047">
        <ele>341</ele>
        <time>2018-03-25T08:27:31Z</time>
      </trkpt>
      <trkpt lat="46.64398" lon="3.87041">
        <ele>341</ele>
        <time>2018-03-25T08:27:32Z</time>
      </trkpt>
      <trkpt lat="46.64393" lon="3.87035">
        <ele>341</ele>
        <time>2018-03-25T08:27:33Z</time>
      </trkpt>
      <trkpt lat="46.64389" lon="3.8703">
        <ele>340.9</ele>
        <time>2018-03-25T08:27:34Z</time>
      </trkpt>
      <trkpt lat="46.64385" lon="3.87025">
        <ele>340.7</ele>
        <time>2018-03-25T08:27:35Z</time>
      </trkpt>
      <trkpt lat="46.64382" lon="3.87021">
        <ele>340.5</ele>
        <time>2018-03-25T08:27:36Z</time>
      </trkpt>
      <trkpt lat="46.64375" lon="3.87013">
        <ele>340.5</ele>
        <time>2018-03-25T08:27:38Z</time>
      </trkpt>
      <trkpt lat="46.6437" lon="3.87005">
        <ele>341.6</ele>
        <time>2018-03-25T08:27:40Z</time>
      </trkpt>
      <trkpt lat="46.64365" lon="3.86997">
        <ele>341.9</ele>
        <time>2018-03-25T08:27:42Z</time>
      </trkpt>
      <trkpt lat="46.64361" lon="3.8699">
        <ele>342</ele>
        <time>2018-03-25T08:27:44Z</time>
      </trkpt>
      <trkpt lat="46.64357" lon="3.86983">
        <ele>342</ele>
        <time>2018-03-25T08:27:46Z</time>
      </trkpt>
      <trkpt lat="46.64353" lon="3.86975">
        <ele>342.1</ele>
        <time>2018-03-25T08:27:48Z</time>
      </trkpt>
      <trkpt lat="46.64349" lon="3.86966">
        <ele>342.9</ele>
        <time>2018-03-25T08:27:50Z</time>
      </trkpt>
      <trkpt lat="46.64345" lon="3.86955">
        <ele>342.7</ele>
        <time>2018-03-25T08:27:52Z</time>
      </trkpt>
      <trkpt lat="46.64342" lon="3.8695">
        <ele>342.6</ele>
        <time>2018-03-25T08:27:53Z</time>
      </trkpt>
      <trkpt lat="46.64339" lon="3.86944">
        <ele>342.4</ele>
        <time>2018-03-25T08:27:54Z</time>
      </trkpt>
      <trkpt lat="46.64337" lon="3.86937">
        <ele>342.3</ele>
        <time>2018-03-25T08:27:55Z</time>
      </trkpt>
      <trkpt lat="46.64334" lon="3.86931">
        <ele>341.8</ele>
        <time>2018-03-25T08:27:56Z</time>
      </trkpt>
      <trkpt lat="46.6433" lon="3.86924">
        <ele>341.4</ele>
        <time>2018-03-25T08:27:57Z</time>
      </trkpt>
      <trkpt lat="46.64327" lon="3.86917">
        <ele>341.1</ele>
        <time>2018-03-25T08:27:58Z</time>
      </trkpt>
      <trkpt lat="46.64323" lon="3.86909">
        <ele>340.9</ele>
        <time>2018-03-25T08:27:59Z</time>
      </trkpt>
      <trkpt lat="46.64318" lon="3.869">
        <ele>340.7</ele>
        <time>2018-03-25T08:28:00Z</time>
      </trkpt>
      <trkpt lat="46.64314" lon="3.86891">
        <ele>340.6</ele>
        <time>2018-03-25T08:28:01Z</time>
      </trkpt>
      <trkpt lat="46.6431" lon="3.86882">
        <ele>340.4</ele>
        <time>2018-03-25T08:28:02Z</time>
      </trkpt>
      <trkpt lat="46.64305" lon="3.86873">
        <ele>339.7</ele>
        <time>2018-03-25T08:28:03Z</time>
      </trkpt>
      <trkpt lat="46.643" lon="3.86865">
        <ele>339.2</ele>
        <time>2018-03-25T08:28:04Z</time>
      </trkpt>
      <trkpt lat="46.64294" lon="3.86857">
        <ele>338.8</ele>
        <time>2018-03-25T08:28:05Z</time>
      </trkpt>
      <trkpt lat="46.64287" lon="3.8685">
        <ele>338</ele>
        <time>2018-03-25T08:28:06Z</time>
      </trkpt>
      <trkpt lat="46.6428" lon="3.86844">
        <ele>337.4</ele>
        <time>2018-03-25T08:28:07Z</time>
      </trkpt>
      <trkpt lat="46.64273" lon="3.86838">
        <ele>336.9</ele>
        <time>2018-03-25T08:28:08Z</time>
      </trkpt>
      <trkpt lat="46.64265" lon="3.86834">
        <ele>336.6</ele>
        <time>2018-03-25T08:28:09Z</time>
      </trkpt>
      <trkpt lat="46.64256" lon="3.86832">
        <ele>336.5</ele>
        <time>2018-03-25T08:28:10Z</time>
      </trkpt>
      <trkpt lat="46.64248" lon="3.86832">
        <ele>336.4</ele>
        <time>2018-03-25T08:28:11Z</time>
      </trkpt>
      <trkpt lat="46.64239" lon="3.86834">
        <ele>336.4</ele>
        <time>2018-03-25T08:28:12Z</time>
      </trkpt>
      <trkpt lat="46.6423" lon="3.86838">
        <ele>335.6</ele>
        <time>2018-03-25T08:28:13Z</time>
      </trkpt>
      <trkpt lat="46.64221" lon="3.86844">
        <ele>335</ele>
        <time>2018-03-25T08:28:14Z</time>
      </trkpt>
      <trkpt lat="46.64213" lon="3.86851">
        <ele>334.3</ele>
        <time>2018-03-25T08:28:15Z</time>
      </trkpt>
      <trkpt lat="46.64205" lon="3.8686">
        <ele>333.8</ele>
        <time>2018-03-25T08:28:16Z</time>
      </trkpt>
      <trkpt lat="46.64197" lon="3.86869">
        <ele>332.9</ele>
        <time>2018-03-25T08:28:17Z</time>
      </trkpt>
      <trkpt lat="46.64189" lon="3.86878">
        <ele>332.2</ele>
        <time>2018-03-25T08:28:18Z</time>
      </trkpt>
      <trkpt lat="46.6418" lon="3.86887">
        <ele>331.7</ele>
        <time>2018-03-25T08:28:19Z</time>
      </trkpt>
      <trkpt lat="46.64172" lon="3.86897">
        <ele>331.5</ele>
        <time>2018-03-25T08:28:20Z</time>
      </trkpt>
      <trkpt lat="46.64164" lon="3.86907">
        <ele>331.4</ele>
        <time>2018-03-25T08:28:21Z</time>
      </trkpt>
      <trkpt lat="46.64157" lon="3.86918">
        <ele>330.4</ele>
        <time>2018-03-25T08:28:22Z</time>
      </trkpt>
      <trkpt lat="46.6415" lon="3.86931">
        <ele>329.6</ele>
        <time>2018-03-25T08:28:23Z</time>
      </trkpt>
      <trkpt lat="46.64144" lon="3.86944">
        <ele>328.7</ele>
        <time>2018-03-25T08:28:24Z</time>
      </trkpt>
      <trkpt lat="46.64139" lon="3.86959">
        <ele>328</ele>
        <time>2018-03-25T08:28:25Z</time>
      </trkpt>
      <trkpt lat="46.64135" lon="3.86974">
        <ele>327.5</ele>
        <time>2018-03-25T08:28:26Z</time>
      </trkpt>
      <trkpt lat="46.6413" lon="3.86989">
        <ele>326.8</ele>
        <time>2018-03-25T08:28:27Z</time>
      </trkpt>
      <trkpt lat="46.64126" lon="3.87004">
        <ele>326.3</ele>
        <time>2018-03-25T08:28:28Z</time>
      </trkpt>
      <trkpt lat="46.64123" lon="3.87018">
        <ele>324.6</ele>
        <time>2018-03-25T08:28:29Z</time>
      </trkpt>
      <trkpt lat="46.64119" lon="3.87032">
        <ele>323.3</ele>
        <time>2018-03-25T08:28:30Z</time>
      </trkpt>
      <trkpt lat="46.64117" lon="3.87047">
        <ele>322.3</ele>
        <time>2018-03-25T08:28:31Z</time>
      </trkpt>
      <trkpt lat="46.64117" lon="3.87062">
        <ele>321.4</ele>
        <time>2018-03-25T08:28:32Z</time>
      </trkpt>
      <trkpt lat="46.64119" lon="3.87076">
        <ele>320.8</ele>
        <time>2018-03-25T08:28:33Z</time>
      </trkpt>
      <trkpt lat="46.64122" lon="3.87089">
        <ele>319.5</ele>
        <time>2018-03-25T08:28:34Z</time>
      </trkpt>
      <trkpt lat="46.64128" lon="3.871">
        <ele>318.6</ele>
        <time>2018-03-25T08:28:35Z</time>
      </trkpt>
      <trkpt lat="46.64133" lon="3.87111">
        <ele>317.9</ele>
        <time>2018-03-25T08:28:36Z</time>
      </trkpt>
      <trkpt lat="46.64139" lon="3.87122">
        <ele>317.3</ele>
        <time>2018-03-25T08:28:37Z</time>
      </trkpt>
      <trkpt lat="46.64143" lon="3.87135">
        <ele>316.9</ele>
        <time>2018-03-25T08:28:38Z</time>
      </trkpt>
      <trkpt lat="46.64145" lon="3.87148">
        <ele>316.1</ele>
        <time>2018-03-25T08:28:39Z</time>
      </trkpt>
      <trkpt lat="46.64146" lon="3.87162">
        <ele>315.6</ele>
        <time>2018-03-25T08:28:40Z</time>
      </trkpt>
      <trkpt lat="46.64146" lon="3.87175">
        <ele>315</ele>
        <time>2018-03-25T08:28:41Z</time>
      </trkpt>
      <trkpt lat="46.64145" lon="3.87187">
        <ele>314.7</ele>
        <time>2018-03-25T08:28:42Z</time>
      </trkpt>
      <trkpt lat="46.64144" lon="3.87199">
        <ele>314.4</ele>
        <time>2018-03-25T08:28:43Z</time>
      </trkpt>
      <trkpt lat="46.64142" lon="3.87211">
        <ele>314.2</ele>
        <time>2018-03-25T08:28:44Z</time>
      </trkpt>
      <trkpt lat="46.6414" lon="3.87222">
        <ele>314.1</ele>
        <time>2018-03-25T08:28:45Z</time>
      </trkpt>
      <trkpt lat="46.64138" lon="3.87232">
        <ele>313.5</ele>
        <time>2018-03-25T08:28:46Z</time>
      </trkpt>
      <trkpt lat="46.64135" lon="3.87242">
        <ele>313</ele>
        <time>2018-03-25T08:28:47Z</time>
      </trkpt>
      <trkpt lat="46.64131" lon="3.87252">
        <ele>312.5</ele>
        <time>2018-03-25T08:28:48Z</time>
      </trkpt>
      <trkpt lat="46.64128" lon="3.87261">
        <ele>312.2</ele>
        <time>2018-03-25T08:28:49Z</time>
      </trkpt>
      <trkpt lat="46.64124" lon="3.8727">
        <ele>311.9</ele>
        <time>2018-03-25T08:28:50Z</time>
      </trkpt>
      <trkpt lat="46.64121" lon="3.87279">
        <ele>311.6</ele>
        <time>2018-03-25T08:28:51Z</time>
      </trkpt>
      <trkpt lat="46.64118" lon="3.87288">
        <ele>311.3</ele>
        <time>2018-03-25T08:28:52Z</time>
      </trkpt>
      <trkpt lat="46.64114" lon="3.87297">
        <ele>311.5</ele>
        <time>2018-03-25T08:28:53Z</time>
      </trkpt>
      <trkpt lat="46.6411" lon="3.87305">
        <ele>311.6</ele>
        <time>2018-03-25T08:28:54Z</time>
      </trkpt>
      <trkpt lat="46.64107" lon="3.87314">
        <ele>311.1</ele>
        <time>2018-03-25T08:28:55Z</time>
      </trkpt>
      <trkpt lat="46.64102" lon="3.8732">
        <ele>310.8</ele>
        <time>2018-03-25T08:28:56Z</time>
      </trkpt>
      <trkpt lat="46.64097" lon="3.87323">
        <ele>310.6</ele>
        <time>2018-03-25T08:28:57Z</time>
      </trkpt>
      <trkpt lat="46.64089" lon="3.87317">
        <ele>309.9</ele>
        <time>2018-03-25T08:28:59Z</time>
      </trkpt>
      <trkpt lat="46.64086" lon="3.87312">
        <ele>309.6</ele>
        <time>2018-03-25T08:29:00Z</time>
      </trkpt>
      <trkpt lat="46.64079" lon="3.87298">
        <ele>308.9</ele>
        <time>2018-03-25T08:29:03Z</time>
      </trkpt>
      <trkpt lat="46.64076" lon="3.87289">
        <ele>309.2</ele>
        <time>2018-03-25T08:29:05Z</time>
      </trkpt>
      <trkpt lat="46.64072" lon="3.87278">
        <ele>308.9</ele>
        <time>2018-03-25T08:29:08Z</time>
      </trkpt>
      <trkpt lat="46.64068" lon="3.87268">
        <ele>308.6</ele>
        <time>2018-03-25T08:29:10Z</time>
      </trkpt>
      <trkpt lat="46.64064" lon="3.87257">
        <ele>308.1</ele>
        <time>2018-03-25T08:29:12Z</time>
      </trkpt>
      <trkpt lat="46.64061" lon="3.87251">
        <ele>307.8</ele>
        <time>2018-03-25T08:29:13Z</time>
      </trkpt>
      <trkpt lat="46.64057" lon="3.87245">
        <ele>307.5</ele>
        <time>2018-03-25T08:29:14Z</time>
      </trkpt>
      <trkpt lat="46.64052" lon="3.87239">
        <ele>307.2</ele>
        <time>2018-03-25T08:29:15Z</time>
      </trkpt>
      <trkpt lat="46.64046" lon="3.87232">
        <ele>307.1</ele>
        <time>2018-03-25T08:29:16Z</time>
      </trkpt>
      <trkpt lat="46.6404" lon="3.87225">
        <ele>306</ele>
        <time>2018-03-25T08:29:17Z</time>
      </trkpt>
      <trkpt lat="46.64034" lon="3.87217">
        <ele>305.2</ele>
        <time>2018-03-25T08:29:18Z</time>
      </trkpt>
      <trkpt lat="46.64027" lon="3.8721">
        <ele>304.2</ele>
        <time>2018-03-25T08:29:19Z</time>
      </trkpt>
      <trkpt lat="46.6402" lon="3.87202">
        <ele>303.5</ele>
        <time>2018-03-25T08:29:20Z</time>
      </trkpt>
      <trkpt lat="46.64013" lon="3.87194">
        <ele>302.5</ele>
        <time>2018-03-25T08:29:21Z</time>
      </trkpt>
      <trkpt lat="46.64007" lon="3.87187">
        <ele>301.8</ele>
        <time>2018-03-25T08:29:22Z</time>
      </trkpt>
      <trkpt lat="46.64" lon="3.87179">
        <ele>301.3</ele>
        <time>2018-03-25T08:29:23Z</time>
      </trkpt>
      <trkpt lat="46.63994" lon="3.87171">
        <ele>300.4</ele>
        <time>2018-03-25T08:29:24Z</time>
      </trkpt>
      <trkpt lat="46.63987" lon="3.87163">
        <ele>299.7</ele>
        <time>2018-03-25T08:29:25Z</time>
      </trkpt>
      <trkpt lat="46.63981" lon="3.87154">
        <ele>299.4</ele>
        <time>2018-03-25T08:29:26Z</time>
      </trkpt>
      <trkpt lat="46.63975" lon="3.87146">
        <ele>299.3</ele>
        <time>2018-03-25T08:29:27Z</time>
      </trkpt>
      <trkpt lat="46.63969" lon="3.87137">
        <ele>299.1</ele>
        <time>2018-03-25T08:29:28Z</time>
      </trkpt>
      <trkpt lat="46.63964" lon="3.87129">
        <ele>298.3</ele>
        <time>2018-03-25T08:29:29Z</time>
      </trkpt>
      <trkpt lat="46.6396" lon="3.87123">
        <ele>297.8</ele>
        <time>2018-03-25T08:29:30Z</time>
      </trkpt>
      <trkpt lat="46.63957" lon="3.87117">
        <ele>296.7</ele>
        <time>2018-03-25T08:29:31Z</time>
      </trkpt>
      <trkpt lat="46.63955" lon="3.87105">
        <ele>294.9</ele>
        <time>2018-03-25T08:29:33Z</time>
      </trkpt>
      <trkpt lat="46.63954" lon="3.87095">
        <ele>293.6</ele>
        <time>2018-03-25T08:29:35Z</time>
      </trkpt>
      <trkpt lat="46.63952" lon="3.87082">
        <ele>292.2</ele>
        <time>2018-03-25T08:29:37Z</time>
      </trkpt>
      <trkpt lat="46.6395" lon="3.87071">
        <ele>290.6</ele>
        <time>2018-03-25T08:29:40Z</time>
      </trkpt>
      <trkpt lat="46.63953" lon="3.8706">
        <ele>290.1</ele>
        <time>2018-03-25T08:29:46Z</time>
      </trkpt>
      <trkpt lat="46.63954" lon="3.87048">
        <ele>292.1</ele>
        <time>2018-03-25T08:29:54Z</time>
      </trkpt>
      <trkpt lat="46.63951" lon="3.87036">
        <ele>292.1</ele>
        <time>2018-03-25T08:29:57Z</time>
      </trkpt>
      <trkpt lat="46.63949" lon="3.87027">
        <ele>291.7</ele>
        <time>2018-03-25T08:29:59Z</time>
      </trkpt>
      <trkpt lat="46.63944" lon="3.87019">
        <ele>291</ele>
        <time>2018-03-25T08:30:01Z</time>
      </trkpt>
      <trkpt lat="46.63942" lon="3.87015">
        <ele>291.1</ele>
        <time>2018-03-25T08:30:02Z</time>
      </trkpt>
      <trkpt lat="46.63934" lon="3.87002">
        <ele>290.3</ele>
        <time>2018-03-25T08:30:06Z</time>
      </trkpt>
      <trkpt lat="46.6393" lon="3.86991">
        <ele>289.5</ele>
        <time>2018-03-25T08:30:09Z</time>
      </trkpt>
      <trkpt lat="46.63925" lon="3.8698">
        <ele>288.7</ele>
        <time>2018-03-25T08:30:12Z</time>
      </trkpt>
      <trkpt lat="46.63921" lon="3.8697">
        <ele>288.3</ele>
        <time>2018-03-25T08:30:15Z</time>
      </trkpt>
      <trkpt lat="46.63916" lon="3.8696">
        <ele>288.5</ele>
        <time>2018-03-25T08:30:18Z</time>
      </trkpt>
      <trkpt lat="46.63911" lon="3.86953">
        <ele>287.4</ele>
        <time>2018-03-25T08:30:23Z</time>
      </trkpt>
      <trkpt lat="46.63905" lon="3.86945">
        <ele>287.2</ele>
        <time>2018-03-25T08:30:30Z</time>
      </trkpt>
      <trkpt lat="46.639" lon="3.86934">
        <ele>287.7</ele>
        <time>2018-03-25T08:30:35Z</time>
      </trkpt>
      <trkpt lat="46.63897" lon="3.86925">
        <ele>287.1</ele>
        <time>2018-03-25T08:30:39Z</time>
      </trkpt>
      <trkpt lat="46.63892" lon="3.86914">
        <ele>286.4</ele>
        <time>2018-03-25T08:30:43Z</time>
      </trkpt>
      <trkpt lat="46.63888" lon="3.86903">
        <ele>286.7</ele>
        <time>2018-03-25T08:30:47Z</time>
      </trkpt>
      <trkpt lat="46.63884" lon="3.86893">
        <ele>286.9</ele>
        <time>2018-03-25T08:30:51Z</time>
      </trkpt>
      <trkpt lat="46.63879" lon="3.86884">
        <ele>287</ele>
        <time>2018-03-25T08:30:56Z</time>
      </trkpt>
      <trkpt lat="46.63875" lon="3.86876">
        <ele>286.7</ele>
        <time>2018-03-25T08:30:59Z</time>
      </trkpt>
      <trkpt lat="46.6387" lon="3.86867">
        <ele>287.1</ele>
        <time>2018-03-25T08:31:02Z</time>
      </trkpt>
      <trkpt lat="46.63868" lon="3.86865">
        <ele>286.5</ele>
        <time>2018-03-25T08:31:03Z</time>
      </trkpt>
      <trkpt lat="46.63859" lon="3.8685">
        <ele>286.9</ele>
        <time>2018-03-25T08:31:11Z</time>
      </trkpt>
      <trkpt lat="46.63854" lon="3.86841">
        <ele>285.2</ele>
        <time>2018-03-25T08:31:24Z</time>
      </trkpt>
      <trkpt lat="46.63847" lon="3.86833">
        <ele>286.3</ele>
        <time>2018-03-25T08:31:43Z</time>
      </trkpt>
      <trkpt lat="46.63846" lon="3.86821">
        <ele>285.4</ele>
        <time>2018-03-25T08:31:55Z</time>
      </trkpt>
      <trkpt lat="46.63848" lon="3.86809">
        <ele>286</ele>
        <time>2018-03-25T08:32:01Z</time>
      </trkpt>
      <trkpt lat="46.63847" lon="3.86798">
        <ele>285.7</ele>
        <time>2018-03-25T08:32:07Z</time>
      </trkpt>
      <trkpt lat="46.63846" lon="3.86796">
        <ele>285.5</ele>
        <time>2018-03-25T08:32:08Z</time>
      </trkpt>
      <trkpt lat="46.63844" lon="3.86776">
        <ele>285.8</ele>
        <time>2018-03-25T08:32:18Z</time>
      </trkpt>
      <trkpt lat="46.63843" lon="3.86763">
        <ele>286.1</ele>
        <time>2018-03-25T08:32:23Z</time>
      </trkpt>
      <trkpt lat="46.63841" lon="3.86751">
        <ele>286.6</ele>
        <time>2018-03-25T08:32:28Z</time>
      </trkpt>
      <trkpt lat="46.6384" lon="3.8674">
        <ele>286.6</ele>
        <time>2018-03-25T08:32:33Z</time>
      </trkpt>
      <trkpt lat="46.6384" lon="3.86727">
        <ele>288</ele>
        <time>2018-03-25T08:32:39Z</time>
      </trkpt>
      <trkpt lat="46.63839" lon="3.86714">
        <ele>288.9</ele>
        <time>2018-03-25T08:32:43Z</time>
      </trkpt>
      <trkpt lat="46.63838" lon="3.86701">
        <ele>289.1</ele>
        <time>2018-03-25T08:32:47Z</time>
      </trkpt>
      <trkpt lat="46.63837" lon="3.86689">
        <ele>289.7</ele>
        <time>2018-03-25T08:32:51Z</time>
      </trkpt>
      <trkpt lat="46.63837" lon="3.86676">
        <ele>290.4</ele>
        <time>2018-03-25T08:32:56Z</time>
      </trkpt>
      <trkpt lat="46.63837" lon="3.86664">
        <ele>290.3</ele>
        <time>2018-03-25T08:33:00Z</time>
      </trkpt>
      <trkpt lat="46.63838" lon="3.86652">
        <ele>290.3</ele>
        <time>2018-03-25T08:33:04Z</time>
      </trkpt>
      <trkpt lat="46.63838" lon="3.8664">
        <ele>290.3</ele>
        <time>2018-03-25T08:33:07Z</time>
      </trkpt>
      <trkpt lat="46.63838" lon="3.86629">
        <ele>290.5</ele>
        <time>2018-03-25T08:33:10Z</time>
      </trkpt>
      <trkpt lat="46.63838" lon="3.86626">
        <ele>290.6</ele>
        <time>2018-03-25T08:33:11Z</time>
      </trkpt>
      <trkpt lat="46.6384" lon="3.86608">
        <ele>291</ele>
        <time>2018-03-25T08:33:16Z</time>
      </trkpt>
      <trkpt lat="46.63841" lon="3.86595">
        <ele>291.6</ele>
        <time>2018-03-25T08:33:20Z</time>
      </trkpt>
      <trkpt lat="46.63842" lon="3.86584">
        <ele>292.3</ele>
        <time>2018-03-25T08:33:24Z</time>
      </trkpt>
      <trkpt lat="46.63843" lon="3.86572">
        <ele>292.5</ele>
        <time>2018-03-25T08:33:27Z</time>
      </trkpt>
      <trkpt lat="46.63844" lon="3.86561">
        <ele>292.3</ele>
        <time>2018-03-25T08:33:30Z</time>
      </trkpt>
      <trkpt lat="46.63844" lon="3.86549">
        <ele>293.1</ele>
        <time>2018-03-25T08:33:33Z</time>
      </trkpt>
      <trkpt lat="46.63845" lon="3.86539">
        <ele>292.6</ele>
        <time>2018-03-25T08:33:36Z</time>
      </trkpt>
      <trkpt lat="46.63846" lon="3.86526">
        <ele>292.9</ele>
        <time>2018-03-25T08:33:40Z</time>
      </trkpt>
      <trkpt lat="46.63848" lon="3.86516">
        <ele>295</ele>
        <time>2018-03-25T08:33:46Z</time>
      </trkpt>
      <trkpt lat="46.6385" lon="3.86504">
        <ele>294.5</ele>
        <time>2018-03-25T08:33:51Z</time>
      </trkpt>
      <trkpt lat="46.6385" lon="3.86492">
        <ele>294</ele>
        <time>2018-03-25T08:33:55Z</time>
      </trkpt>
      <trkpt lat="46.63852" lon="3.8648">
        <ele>294.6</ele>
        <time>2018-03-25T08:33:59Z</time>
      </trkpt>
      <trkpt lat="46.63852" lon="3.86469">
        <ele>295.1</ele>
        <time>2018-03-25T08:34:04Z</time>
      </trkpt>
      <trkpt lat="46.6385" lon="3.86456">
        <ele>295</ele>
        <time>2018-03-25T08:34:10Z</time>
      </trkpt>
      <trkpt lat="46.63848" lon="3.86444">
        <ele>295.9</ele>
        <time>2018-03-25T08:34:16Z</time>
      </trkpt>
      <trkpt lat="46.63848" lon="3.86443">
        <ele>296.3</ele>
        <time>2018-03-25T08:34:17Z</time>
      </trkpt>
      <trkpt lat="46.63849" lon="3.8642">
        <ele>297.4</ele>
        <time>2018-03-25T08:34:29Z</time>
      </trkpt>
      <trkpt lat="46.6385" lon="3.86409">
        <ele>298.3</ele>
        <time>2018-03-25T08:34:36Z</time>
      </trkpt>
      <trkpt lat="46.63852" lon="3.86397">
        <ele>300.2</ele>
        <time>2018-03-25T08:34:43Z</time>
      </trkpt>
      <trkpt lat="46.63853" lon="3.86385">
        <ele>301.1</ele>
        <time>2018-03-25T08:34:50Z</time>
      </trkpt>
      <trkpt lat="46.63853" lon="3.86373">
        <ele>302.7</ele>
        <time>2018-03-25T08:34:57Z</time>
      </trkpt>
      <trkpt lat="46.63854" lon="3.8636">
        <ele>303.7</ele>
        <time>2018-03-25T08:35:05Z</time>
      </trkpt>
      <trkpt lat="46.63855" lon="3.86348">
        <ele>304.6</ele>
        <time>2018-03-25T08:35:15Z</time>
      </trkpt>
      <trkpt lat="46.63858" lon="3.86338">
        <ele>304.8</ele>
        <time>2018-03-25T08:35:20Z</time>
      </trkpt>
      <trkpt lat="46.63859" lon="3.86335">
        <ele>304.9</ele>
        <time>2018-03-25T08:35:21Z</time>
      </trkpt>
      <trkpt lat="46.63867" lon="3.86316">
        <ele>307.1</ele>
        <time>2018-03-25T08:35:30Z</time>
      </trkpt>
      <trkpt lat="46.63871" lon="3.86307">
        <ele>308.1</ele>
        <time>2018-03-25T08:35:35Z</time>
      </trkpt>
      <trkpt lat="46.63875" lon="3.86296">
        <ele>307.9</ele>
        <time>2018-03-25T08:35:40Z</time>
      </trkpt>
      <trkpt lat="46.63875" lon="3.86284">
        <ele>309.2</ele>
        <time>2018-03-25T08:35:47Z</time>
      </trkpt>
      <trkpt lat="46.63875" lon="3.86271">
        <ele>311.9</ele>
        <time>2018-03-25T08:35:55Z</time>
      </trkpt>
      <trkpt lat="46.63873" lon="3.86259">
        <ele>312.8</ele>
        <time>2018-03-25T08:36:03Z</time>
      </trkpt>
      <trkpt lat="46.63871" lon="3.86247">
        <ele>313.9</ele>
        <time>2018-03-25T08:36:11Z</time>
      </trkpt>
      <trkpt lat="46.63869" lon="3.86234">
        <ele>315.6</ele>
        <time>2018-03-25T08:36:19Z</time>
      </trkpt>
      <trkpt lat="46.63866" lon="3.86222">
        <ele>316.8</ele>
        <time>2018-03-25T08:36:27Z</time>
      </trkpt>
      <trkpt lat="46.63866" lon="3.86221">
        <ele>317</ele>
        <time>2018-03-25T08:36:28Z</time>
      </trkpt>
      <trkpt lat="46.63861" lon="3.86199">
        <ele>319</ele>
        <time>2018-03-25T08:36:45Z</time>
      </trkpt>
      <trkpt lat="46.63858" lon="3.86187">
        <ele>321.4</ele>
        <time>2018-03-25T08:36:54Z</time>
      </trkpt>
      <trkpt lat="46.63856" lon="3.86174">
        <ele>323.2</ele>
        <time>2018-03-25T08:37:04Z</time>
      </trkpt>
      <trkpt lat="46.63852" lon="3.86163">
        <ele>325</ele>
        <time>2018-03-25T08:37:15Z</time>
      </trkpt>
      <trkpt lat="46.63849" lon="3.86152">
        <ele>327</ele>
        <time>2018-03-25T08:37:32Z</time>
      </trkpt>
      <trkpt lat="46.63849" lon="3.86151">
        <ele>327</ele>
        <time>2018-03-25T08:37:33Z</time>
      </trkpt>
      <trkpt lat="46.63843" lon="3.86129">
        <ele>331.1</ele>
        <time>2018-03-25T08:37:53Z</time>
      </trkpt>
      <trkpt lat="46.63839" lon="3.86118">
        <ele>331.7</ele>
        <time>2018-03-25T08:38:03Z</time>
      </trkpt>
      <trkpt lat="46.63836" lon="3.86106">
        <ele>333.5</ele>
        <time>2018-03-25T08:38:12Z</time>
      </trkpt>
      <trkpt lat="46.63834" lon="3.86094">
        <ele>334.8</ele>
        <time>2018-03-25T08:38:20Z</time>
      </trkpt>
      <trkpt lat="46.63833" lon="3.86082">
        <ele>335.7</ele>
        <time>2018-03-25T08:38:29Z</time>
      </trkpt>
      <trkpt lat="46.6383" lon="3.8607">
        <ele>337.2</ele>
        <time>2018-03-25T08:38:37Z</time>
      </trkpt>
      <trkpt lat="46.63829" lon="3.86068">
        <ele>337.1</ele>
        <time>2018-03-25T08:38:38Z</time>
      </trkpt>
      <trkpt lat="46.63823" lon="3.86048">
        <ele>338.3</ele>
        <time>2018-03-25T08:38:48Z</time>
      </trkpt>
      <trkpt lat="46.6382" lon="3.86036">
        <ele>338.4</ele>
        <time>2018-03-25T08:38:52Z</time>
      </trkpt>
      <trkpt lat="46.63818" lon="3.86027">
        <ele>338.9</ele>
        <time>2018-03-25T08:38:55Z</time>
      </trkpt>
      <trkpt lat="46.63817" lon="3.86017">
        <ele>338.9</ele>
        <time>2018-03-25T08:38:58Z</time>
      </trkpt>
      <trkpt lat="46.63815" lon="3.86005">
        <ele>339.2</ele>
        <time>2018-03-25T08:39:02Z</time>
      </trkpt>
      <trkpt lat="46.63813" lon="3.85995">
        <ele>340.1</ele>
        <time>2018-03-25T08:39:05Z</time>
      </trkpt>
      <trkpt lat="46.63811" lon="3.85985">
        <ele>340.2</ele>
        <time>2018-03-25T08:39:08Z</time>
      </trkpt>
      <trkpt lat="46.63809" lon="3.85975">
        <ele>340.3</ele>
        <time>2018-03-25T08:39:11Z</time>
      </trkpt>
      <trkpt lat="46.63807" lon="3.85964">
        <ele>339.7</ele>
        <time>2018-03-25T08:39:14Z</time>
      </trkpt>
      <trkpt lat="46.63804" lon="3.85954">
        <ele>339.8</ele>
        <time>2018-03-25T08:39:17Z</time>
      </trkpt>
      <trkpt lat="46.63802" lon="3.85945">
        <ele>339.8</ele>
        <time>2018-03-25T08:39:20Z</time>
      </trkpt>
      <trkpt lat="46.63801" lon="3.85935">
        <ele>339.9</ele>
        <time>2018-03-25T08:39:23Z</time>
      </trkpt>
      <trkpt lat="46.63799" lon="3.85924">
        <ele>340.4</ele>
        <time>2018-03-25T08:39:26Z</time>
      </trkpt>
      <trkpt lat="46.63797" lon="3.85913">
        <ele>340.4</ele>
        <time>2018-03-25T08:39:29Z</time>
      </trkpt>
      <trkpt lat="46.63795" lon="3.85903">
        <ele>341.1</ele>
        <time>2018-03-25T08:39:32Z</time>
      </trkpt>
      <trkpt lat="46.63792" lon="3.85891">
        <ele>341.6</ele>
        <time>2018-03-25T08:39:36Z</time>
      </trkpt>
      <trkpt lat="46.63788" lon="3.8588">
        <ele>341.8</ele>
        <time>2018-03-25T08:39:40Z</time>
      </trkpt>
      <trkpt lat="46.63788" lon="3.85877">
        <ele>341.4</ele>
        <time>2018-03-25T08:39:41Z</time>
      </trkpt>
      <trkpt lat="46.63786" lon="3.85858">
        <ele>341.1</ele>
        <time>2018-03-25T08:39:47Z</time>
      </trkpt>
      <trkpt lat="46.63787" lon="3.85848">
        <ele>341.7</ele>
        <time>2018-03-25T08:39:50Z</time>
      </trkpt>
      <trkpt lat="46.63788" lon="3.85838">
        <ele>341.9</ele>
        <time>2018-03-25T08:39:53Z</time>
      </trkpt>
      <trkpt lat="46.63791" lon="3.85829">
        <ele>342.5</ele>
        <time>2018-03-25T08:39:56Z</time>
      </trkpt>
      <trkpt lat="46.63795" lon="3.8582">
        <ele>342.5</ele>
        <time>2018-03-25T08:39:59Z</time>
      </trkpt>
      <trkpt lat="46.63801" lon="3.85811">
        <ele>343.4</ele>
        <time>2018-03-25T08:40:03Z</time>
      </trkpt>
      <trkpt lat="46.63806" lon="3.85803">
        <ele>343.2</ele>
        <time>2018-03-25T08:40:06Z</time>
      </trkpt>
      <trkpt lat="46.63812" lon="3.85794">
        <ele>343.6</ele>
        <time>2018-03-25T08:40:10Z</time>
      </trkpt>
      <trkpt lat="46.63817" lon="3.85785">
        <ele>344</ele>
        <time>2018-03-25T08:40:15Z</time>
      </trkpt>
      <trkpt lat="46.63822" lon="3.85775">
        <ele>345.6</ele>
        <time>2018-03-25T08:40:20Z</time>
      </trkpt>
      <trkpt lat="46.63826" lon="3.85763">
        <ele>346.7</ele>
        <time>2018-03-25T08:40:25Z</time>
      </trkpt>
      <trkpt lat="46.63831" lon="3.85754">
        <ele>347.2</ele>
        <time>2018-03-25T08:40:29Z</time>
      </trkpt>
      <trkpt lat="46.63837" lon="3.85745">
        <ele>348.3</ele>
        <time>2018-03-25T08:40:37Z</time>
      </trkpt>
      <trkpt lat="46.63842" lon="3.85736">
        <ele>348</ele>
        <time>2018-03-25T08:40:43Z</time>
      </trkpt>
      <trkpt lat="46.63843" lon="3.85734">
        <ele>347.9</ele>
        <time>2018-03-25T08:40:44Z</time>
      </trkpt>
      <trkpt lat="46.63852" lon="3.85718">
        <ele>349.9</ele>
        <time>2018-03-25T08:40:56Z</time>
      </trkpt>
      <trkpt lat="46.63857" lon="3.85708">
        <ele>351.5</ele>
        <time>2018-03-25T08:41:04Z</time>
      </trkpt>
      <trkpt lat="46.63864" lon="3.85699">
        <ele>353.5</ele>
        <time>2018-03-25T08:41:13Z</time>
      </trkpt>
      <trkpt lat="46.6387" lon="3.85692">
        <ele>354.5</ele>
        <time>2018-03-25T08:41:20Z</time>
      </trkpt>
      <trkpt lat="46.63876" lon="3.85685">
        <ele>355.9</ele>
        <time>2018-03-25T08:41:27Z</time>
      </trkpt>
      <trkpt lat="46.63883" lon="3.85677">
        <ele>357.7</ele>
        <time>2018-03-25T08:41:34Z</time>
      </trkpt>
      <trkpt lat="46.6389" lon="3.8567">
        <ele>357.6</ele>
        <time>2018-03-25T08:41:41Z</time>
      </trkpt>
      <trkpt lat="46.63898" lon="3.85663">
        <ele>358.9</ele>
        <time>2018-03-25T08:41:48Z</time>
      </trkpt>
      <trkpt lat="46.63899" lon="3.85663">
        <ele>358.6</ele>
        <time>2018-03-25T08:41:49Z</time>
      </trkpt>
      <trkpt lat="46.63914" lon="3.85652">
        <ele>360</ele>
        <time>2018-03-25T08:42:57Z</time>
      </trkpt>
      <trkpt lat="46.63914" lon="3.85652">
        <ele>360.2</ele>
        <time>2018-03-25T08:42:58Z</time>
      </trkpt>
      <trkpt lat="46.63929" lon="3.85641">
        <ele>361</ele>
        <time>2018-03-25T08:44:01Z</time>
      </trkpt>
      <trkpt lat="46.6393" lon="3.85638">
        <ele>361.1</ele>
        <time>2018-03-25T08:44:02Z</time>
      </trkpt>
      <trkpt lat="46.63938" lon="3.85623">
        <ele>362.3</ele>
        <time>2018-03-25T08:44:08Z</time>
      </trkpt>
      <trkpt lat="46.63945" lon="3.85616">
        <ele>362.9</ele>
        <time>2018-03-25T08:44:12Z</time>
      </trkpt>
      <trkpt lat="46.63952" lon="3.85609">
        <ele>363.7</ele>
        <time>2018-03-25T08:44:16Z</time>
      </trkpt>
      <trkpt lat="46.63958" lon="3.85603">
        <ele>364.6</ele>
        <time>2018-03-25T08:44:20Z</time>
      </trkpt>
      <trkpt lat="46.63965" lon="3.85598">
        <ele>365</ele>
        <time>2018-03-25T08:44:24Z</time>
      </trkpt>
      <trkpt lat="46.63972" lon="3.85593">
        <ele>365.9</ele>
        <time>2018-03-25T08:44:28Z</time>
      </trkpt>
      <trkpt lat="46.63979" lon="3.85587">
        <ele>366.6</ele>
        <time>2018-03-25T08:44:33Z</time>
      </trkpt>
      <trkpt lat="46.63985" lon="3.85582">
        <ele>366.5</ele>
        <time>2018-03-25T08:44:36Z</time>
      </trkpt>
      <trkpt lat="46.63992" lon="3.85576">
        <ele>366.8</ele>
        <time>2018-03-25T08:44:39Z</time>
      </trkpt>
      <trkpt lat="46.63999" lon="3.85569">
        <ele>367.7</ele>
        <time>2018-03-25T08:44:42Z</time>
      </trkpt>
      <trkpt lat="46.64006" lon="3.85563">
        <ele>368.3</ele>
        <time>2018-03-25T08:44:45Z</time>
      </trkpt>
      <trkpt lat="46.64012" lon="3.85556">
        <ele>368.8</ele>
        <time>2018-03-25T08:44:48Z</time>
      </trkpt>
      <trkpt lat="46.64017" lon="3.85551">
        <ele>368.6</ele>
        <time>2018-03-25T08:44:50Z</time>
      </trkpt>
      <trkpt lat="46.64023" lon="3.85545">
        <ele>368.4</ele>
        <time>2018-03-25T08:44:52Z</time>
      </trkpt>
      <trkpt lat="46.64028" lon="3.85539">
        <ele>368.1</ele>
        <time>2018-03-25T08:44:54Z</time>
      </trkpt>
      <trkpt lat="46.64035" lon="3.85534">
        <ele>367.8</ele>
        <time>2018-03-25T08:44:56Z</time>
      </trkpt>
      <trkpt lat="46.64041" lon="3.85528">
        <ele>367.3</ele>
        <time>2018-03-25T08:44:58Z</time>
      </trkpt>
      <trkpt lat="46.64047" lon="3.85521">
        <ele>367.4</ele>
        <time>2018-03-25T08:45:00Z</time>
      </trkpt>
      <trkpt lat="46.64053" lon="3.85515">
        <ele>368</ele>
        <time>2018-03-25T08:45:02Z</time>
      </trkpt>
      <trkpt lat="46.64056" lon="3.85512">
        <ele>368.2</ele>
        <time>2018-03-25T08:45:03Z</time>
      </trkpt>
      <trkpt lat="46.64064" lon="3.85504">
        <ele>368</ele>
        <time>2018-03-25T08:45:06Z</time>
      </trkpt>
      <trkpt lat="46.64072" lon="3.85498">
        <ele>368.5</ele>
        <time>2018-03-25T08:45:09Z</time>
      </trkpt>
      <trkpt lat="46.64079" lon="3.85493">
        <ele>369.1</ele>
        <time>2018-03-25T08:45:12Z</time>
      </trkpt>
      <trkpt lat="46.64086" lon="3.85488">
        <ele>369.6</ele>
        <time>2018-03-25T08:45:15Z</time>
      </trkpt>
      <trkpt lat="46.64092" lon="3.85482">
        <ele>370.2</ele>
        <time>2018-03-25T08:45:18Z</time>
      </trkpt>
      <trkpt lat="46.64099" lon="3.85477">
        <ele>371.2</ele>
        <time>2018-03-25T08:45:21Z</time>
      </trkpt>
      <trkpt lat="46.64105" lon="3.85472">
        <ele>371.8</ele>
        <time>2018-03-25T08:45:24Z</time>
      </trkpt>
      <trkpt lat="46.64111" lon="3.85467">
        <ele>372</ele>
        <time>2018-03-25T08:45:27Z</time>
      </trkpt>
      <trkpt lat="46.64118" lon="3.85462">
        <ele>372</ele>
        <time>2018-03-25T08:45:30Z</time>
      </trkpt>
      <trkpt lat="46.64125" lon="3.85456">
        <ele>372.5</ele>
        <time>2018-03-25T08:45:33Z</time>
      </trkpt>
      <trkpt lat="46.64132" lon="3.85451">
        <ele>373.7</ele>
        <time>2018-03-25T08:45:36Z</time>
      </trkpt>
      <trkpt lat="46.64139" lon="3.85445">
        <ele>374.1</ele>
        <time>2018-03-25T08:45:39Z</time>
      </trkpt>
      <trkpt lat="46.64144" lon="3.85439">
        <ele>374.7</ele>
        <time>2018-03-25T08:45:42Z</time>
      </trkpt>
      <trkpt lat="46.6415" lon="3.85433">
        <ele>375.2</ele>
        <time>2018-03-25T08:45:45Z</time>
      </trkpt>
      <trkpt lat="46.64156" lon="3.85427">
        <ele>375.8</ele>
        <time>2018-03-25T08:45:48Z</time>
      </trkpt>
      <trkpt lat="46.64162" lon="3.8542">
        <ele>376.3</ele>
        <time>2018-03-25T08:45:51Z</time>
      </trkpt>
      <trkpt lat="46.64167" lon="3.85414">
        <ele>376.9</ele>
        <time>2018-03-25T08:45:54Z</time>
      </trkpt>
      <trkpt lat="46.64173" lon="3.85408">
        <ele>378.2</ele>
        <time>2018-03-25T08:45:57Z</time>
      </trkpt>
      <trkpt lat="46.64181" lon="3.85402">
        <ele>379.2</ele>
        <time>2018-03-25T08:46:01Z</time>
      </trkpt>
      <trkpt lat="46.64188" lon="3.85395">
        <ele>380.3</ele>
        <time>2018-03-25T08:46:06Z</time>
      </trkpt>
      <trkpt lat="46.64189" lon="3.85394">
        <ele>380.4</ele>
        <time>2018-03-25T08:46:07Z</time>
      </trkpt>
      <trkpt lat="46.64202" lon="3.85381">
        <ele>380.9</ele>
        <time>2018-03-25T08:46:16Z</time>
      </trkpt>
      <trkpt lat="46.64208" lon="3.85374">
        <ele>382.4</ele>
        <time>2018-03-25T08:46:20Z</time>
      </trkpt>
      <trkpt lat="46.64215" lon="3.85366">
        <ele>383</ele>
        <time>2018-03-25T08:46:25Z</time>
      </trkpt>
      <trkpt lat="46.64221" lon="3.85357">
        <ele>384.1</ele>
        <time>2018-03-25T08:46:30Z</time>
      </trkpt>
      <trkpt lat="46.64227" lon="3.85349">
        <ele>383.8</ele>
        <time>2018-03-25T08:46:35Z</time>
      </trkpt>
      <trkpt lat="46.64233" lon="3.8534">
        <ele>385.5</ele>
        <time>2018-03-25T08:46:40Z</time>
      </trkpt>
      <trkpt lat="46.64239" lon="3.85333">
        <ele>385.9</ele>
        <time>2018-03-25T08:46:44Z</time>
      </trkpt>
      <trkpt lat="46.64244" lon="3.85325">
        <ele>386.5</ele>
        <time>2018-03-25T08:46:48Z</time>
      </trkpt>
      <trkpt lat="46.6425" lon="3.85318">
        <ele>386.4</ele>
        <time>2018-03-25T08:46:52Z</time>
      </trkpt>
      <trkpt lat="46.64255" lon="3.8531">
        <ele>387.7</ele>
        <time>2018-03-25T08:46:56Z</time>
      </trkpt>
      <trkpt lat="46.64261" lon="3.85302">
        <ele>388</ele>
        <time>2018-03-25T08:47:00Z</time>
      </trkpt>
      <trkpt lat="46.64266" lon="3.85293">
        <ele>388.6</ele>
        <time>2018-03-25T08:47:04Z</time>
      </trkpt>
      <trkpt lat="46.64271" lon="3.85283">
        <ele>388.1</ele>
        <time>2018-03-25T08:47:09Z</time>
      </trkpt>
      <trkpt lat="46.64272" lon="3.85282">
        <ele>388.5</ele>
        <time>2018-03-25T08:47:10Z</time>
      </trkpt>
      <trkpt lat="46.64283" lon="3.85269">
        <ele>390.2</ele>
        <time>2018-03-25T08:47:18Z</time>
      </trkpt>
      <trkpt lat="46.6429" lon="3.85263">
        <ele>390.3</ele>
        <time>2018-03-25T08:47:21Z</time>
      </trkpt>
      <trkpt lat="46.64296" lon="3.85259">
        <ele>389.6</ele>
        <time>2018-03-25T08:47:23Z</time>
      </trkpt>
      <trkpt lat="46.64301" lon="3.85255">
        <ele>389.7</ele>
        <time>2018-03-25T08:47:25Z</time>
      </trkpt>
      <trkpt lat="46.64307" lon="3.85251">
        <ele>389.7</ele>
        <time>2018-03-25T08:47:27Z</time>
      </trkpt>
      <trkpt lat="46.64313" lon="3.85247">
        <ele>390.3</ele>
        <time>2018-03-25T08:47:29Z</time>
      </trkpt>
      <trkpt lat="46.64321" lon="3.85244">
        <ele>391</ele>
        <time>2018-03-25T08:47:32Z</time>
      </trkpt>
      <trkpt lat="46.64328" lon="3.85239">
        <ele>390.9</ele>
        <time>2018-03-25T08:47:35Z</time>
      </trkpt>
      <trkpt lat="46.64335" lon="3.85234">
        <ele>391.5</ele>
        <time>2018-03-25T08:47:38Z</time>
      </trkpt>
      <trkpt lat="46.64341" lon="3.8523">
        <ele>391.3</ele>
        <time>2018-03-25T08:47:41Z</time>
      </trkpt>
      <trkpt lat="46.64347" lon="3.85225">
        <ele>391.8</ele>
        <time>2018-03-25T08:47:44Z</time>
      </trkpt>
      <trkpt lat="46.64354" lon="3.8522">
        <ele>391.9</ele>
        <time>2018-03-25T08:47:47Z</time>
      </trkpt>
      <trkpt lat="46.6436" lon="3.85215">
        <ele>392.3</ele>
        <time>2018-03-25T08:47:50Z</time>
      </trkpt>
      <trkpt lat="46.64366" lon="3.85209">
        <ele>393</ele>
        <time>2018-03-25T08:47:53Z</time>
      </trkpt>
      <trkpt lat="46.64374" lon="3.85203">
        <ele>393.6</ele>
        <time>2018-03-25T08:47:57Z</time>
      </trkpt>
      <trkpt lat="46.64379" lon="3.85199">
        <ele>394.3</ele>
        <time>2018-03-25T08:48:00Z</time>
      </trkpt>
      <trkpt lat="46.64385" lon="3.85193">
        <ele>395.2</ele>
        <time>2018-03-25T08:48:03Z</time>
      </trkpt>
      <trkpt lat="46.64391" lon="3.85188">
        <ele>395.3</ele>
        <time>2018-03-25T08:48:05Z</time>
      </trkpt>
      <trkpt lat="46.64398" lon="3.85181">
        <ele>395.9</ele>
        <time>2018-03-25T08:48:08Z</time>
      </trkpt>
      <trkpt lat="46.64405" lon="3.85174">
        <ele>395</ele>
        <time>2018-03-25T08:48:11Z</time>
      </trkpt>
      <trkpt lat="46.64407" lon="3.85173">
        <ele>395</ele>
        <time>2018-03-25T08:48:12Z</time>
      </trkpt>
      <trkpt lat="46.64418" lon="3.85162">
        <ele>395.5</ele>
        <time>2018-03-25T08:48:17Z</time>
      </trkpt>
      <trkpt lat="46.64424" lon="3.85155">
        <ele>396.1</ele>
        <time>2018-03-25T08:48:20Z</time>
      </trkpt>
      <trkpt lat="46.64429" lon="3.85147">
        <ele>396.8</ele>
        <time>2018-03-25T08:48:23Z</time>
      </trkpt>
      <trkpt lat="46.64436" lon="3.85138">
        <ele>397.3</ele>
        <time>2018-03-25T08:48:26Z</time>
      </trkpt>
      <trkpt lat="46.64441" lon="3.85131">
        <ele>397.8</ele>
        <time>2018-03-25T08:48:29Z</time>
      </trkpt>
      <trkpt lat="46.64447" lon="3.85124">
        <ele>398.8</ele>
        <time>2018-03-25T08:48:32Z</time>
      </trkpt>
      <trkpt lat="46.64452" lon="3.85117">
        <ele>398.9</ele>
        <time>2018-03-25T08:48:35Z</time>
      </trkpt>
      <trkpt lat="46.64458" lon="3.8511">
        <ele>399.3</ele>
        <time>2018-03-25T08:48:38Z</time>
      </trkpt>
      <trkpt lat="46.64463" lon="3.85103">
        <ele>399.6</ele>
        <time>2018-03-25T08:48:41Z</time>
      </trkpt>
      <trkpt lat="46.64469" lon="3.85095">
        <ele>399.3</ele>
        <time>2018-03-25T08:48:44Z</time>
      </trkpt>
      <trkpt lat="46.64476" lon="3.85088">
        <ele>399.8</ele>
        <time>2018-03-25T08:48:47Z</time>
      </trkpt>
      <trkpt lat="46.6448" lon="3.85081">
        <ele>399.8</ele>
        <time>2018-03-25T08:48:49Z</time>
      </trkpt>
      <trkpt lat="46.64485" lon="3.85075">
        <ele>399.4</ele>
        <time>2018-03-25T08:48:51Z</time>
      </trkpt>
      <trkpt lat="46.6449" lon="3.85068">
        <ele>399.6</ele>
        <time>2018-03-25T08:48:53Z</time>
      </trkpt>
      <trkpt lat="46.64494" lon="3.8506">
        <ele>400.2</ele>
        <time>2018-03-25T08:48:55Z</time>
      </trkpt>
      <trkpt lat="46.64499" lon="3.85052">
        <ele>400.1</ele>
        <time>2018-03-25T08:48:57Z</time>
      </trkpt>
      <trkpt lat="46.64503" lon="3.85045">
        <ele>400.1</ele>
        <time>2018-03-25T08:48:59Z</time>
      </trkpt>
      <trkpt lat="46.64507" lon="3.85037">
        <ele>400.2</ele>
        <time>2018-03-25T08:49:01Z</time>
      </trkpt>
      <trkpt lat="46.64512" lon="3.8503">
        <ele>400.2</ele>
        <time>2018-03-25T08:49:03Z</time>
      </trkpt>
      <trkpt lat="46.64517" lon="3.85023">
        <ele>400.4</ele>
        <time>2018-03-25T08:49:05Z</time>
      </trkpt>
      <trkpt lat="46.64524" lon="3.85017">
        <ele>400.4</ele>
        <time>2018-03-25T08:49:08Z</time>
      </trkpt>
      <trkpt lat="46.64528" lon="3.85008">
        <ele>400.3</ele>
        <time>2018-03-25T08:49:11Z</time>
      </trkpt>
      <trkpt lat="46.64533" lon="3.85001">
        <ele>401.3</ele>
        <time>2018-03-25T08:49:14Z</time>
      </trkpt>
      <trkpt lat="46.64535" lon="3.84999">
        <ele>401.9</ele>
        <time>2018-03-25T08:49:15Z</time>
      </trkpt>
      <trkpt lat="46.64539" lon="3.84978">
        <ele>403</ele>
        <time>2018-03-25T08:49:27Z</time>
      </trkpt>
      <trkpt lat="46.6454" lon="3.84965">
        <ele>405.4</ele>
        <time>2018-03-25T08:49:35Z</time>
      </trkpt>
      <trkpt lat="46.6454" lon="3.84953">
        <ele>406.8</ele>
        <time>2018-03-25T08:49:44Z</time>
      </trkpt>
      <trkpt lat="46.64541" lon="3.8494">
        <ele>408.8</ele>
        <time>2018-03-25T08:49:54Z</time>
      </trkpt>
      <trkpt lat="46.64538" lon="3.84928">
        <ele>409.9</ele>
        <time>2018-03-25T08:50:03Z</time>
      </trkpt>
      <trkpt lat="46.64535" lon="3.84918">
        <ele>412.1</ele>
        <time>2018-03-25T08:50:12Z</time>
      </trkpt>
      <trkpt lat="46.64529" lon="3.8491">
        <ele>412.9</ele>
        <time>2018-03-25T08:50:20Z</time>
      </trkpt>
      <trkpt lat="46.64528" lon="3.84909">
        <ele>412.8</ele>
        <time>2018-03-25T08:50:21Z</time>
      </trkpt>
      <trkpt lat="46.64514" lon="3.84898">
        <ele>414.6</ele>
        <time>2018-03-25T08:50:38Z</time>
      </trkpt>
      <trkpt lat="46.64506" lon="3.84893">
        <ele>416</ele>
        <time>2018-03-25T08:50:47Z</time>
      </trkpt>
      <trkpt lat="46.64498" lon="3.84889">
        <ele>417.4</ele>
        <time>2018-03-25T08:50:57Z</time>
      </trkpt>
      <trkpt lat="46.6449" lon="3.84888">
        <ele>419</ele>
        <time>2018-03-25T08:51:09Z</time>
      </trkpt>
      <trkpt lat="46.64481" lon="3.84888">
        <ele>420.2</ele>
        <time>2018-03-25T08:51:19Z</time>
      </trkpt>
      <trkpt lat="46.64472" lon="3.84887">
        <ele>422</ele>
        <time>2018-03-25T08:51:28Z</time>
      </trkpt>
      <trkpt lat="46.64471" lon="3.84887">
        <ele>422.3</ele>
        <time>2018-03-25T08:51:29Z</time>
      </trkpt>
      <trkpt lat="46.64455" lon="3.84884">
        <ele>422.9</ele>
        <time>2018-03-25T08:52:07Z</time>
      </trkpt>
      <trkpt lat="46.64446" lon="3.84882">
        <ele>424.2</ele>
        <time>2018-03-25T08:52:16Z</time>
      </trkpt>
      <trkpt lat="46.64437" lon="3.8488">
        <ele>426.5</ele>
        <time>2018-03-25T08:52:25Z</time>
      </trkpt>
      <trkpt lat="46.64429" lon="3.84877">
        <ele>428.2</ele>
        <time>2018-03-25T08:52:35Z</time>
      </trkpt>
      <trkpt lat="46.64428" lon="3.84876">
        <ele>428.7</ele>
        <time>2018-03-25T08:52:36Z</time>
      </trkpt>
      <trkpt lat="46.64412" lon="3.84872">
        <ele>432.6</ele>
        <time>2018-03-25T08:52:56Z</time>
      </trkpt>
      <trkpt lat="46.64404" lon="3.84873">
        <ele>433.6</ele>
        <time>2018-03-25T08:53:09Z</time>
      </trkpt>
      <trkpt lat="46.64395" lon="3.84872">
        <ele>435.7</ele>
        <time>2018-03-25T08:53:31Z</time>
      </trkpt>
      <trkpt lat="46.64387" lon="3.8487">
        <ele>436.9</ele>
        <time>2018-03-25T08:53:40Z</time>
      </trkpt>
      <trkpt lat="46.64386" lon="3.8487">
        <ele>436.8</ele>
        <time>2018-03-25T08:53:41Z</time>
      </trkpt>
      <trkpt lat="46.6437" lon="3.84867">
        <ele>440.8</ele>
        <time>2018-03-25T08:54:00Z</time>
      </trkpt>
      <trkpt lat="46.64362" lon="3.84865">
        <ele>441.9</ele>
        <time>2018-03-25T08:54:10Z</time>
      </trkpt>
      <trkpt lat="46.64355" lon="3.84858">
        <ele>444.3</ele>
        <time>2018-03-25T08:54:22Z</time>
      </trkpt>
      <trkpt lat="46.64349" lon="3.84849">
        <ele>445.1</ele>
        <time>2018-03-25T08:54:32Z</time>
      </trkpt>
      <trkpt lat="46.64344" lon="3.84839">
        <ele>446.4</ele>
        <time>2018-03-25T08:54:42Z</time>
      </trkpt>
      <trkpt lat="46.64344" lon="3.84838">
        <ele>446.5</ele>
        <time>2018-03-25T08:54:43Z</time>
      </trkpt>
      <trkpt lat="46.6434" lon="3.84815">
        <ele>449.2</ele>
        <time>2018-03-25T08:55:02Z</time>
      </trkpt>
      <trkpt lat="46.64339" lon="3.84803">
        <ele>450.5</ele>
        <time>2018-03-25T08:55:11Z</time>
      </trkpt>
      <trkpt lat="46.64337" lon="3.84791">
        <ele>450.3</ele>
        <time>2018-03-25T08:55:21Z</time>
      </trkpt>
      <trkpt lat="46.64335" lon="3.84779">
        <ele>451.2</ele>
        <time>2018-03-25T08:55:28Z</time>
      </trkpt>
      <trkpt lat="46.64333" lon="3.84769">
        <ele>451.7</ele>
        <time>2018-03-25T08:55:32Z</time>
      </trkpt>
      <trkpt lat="46.64332" lon="3.84759">
        <ele>451.9</ele>
        <time>2018-03-25T08:55:35Z</time>
      </trkpt>
      <trkpt lat="46.64331" lon="3.84746">
        <ele>452.4</ele>
        <time>2018-03-25T08:55:39Z</time>
      </trkpt>
      <trkpt lat="46.6433" lon="3.84736">
        <ele>452.6</ele>
        <time>2018-03-25T08:55:42Z</time>
      </trkpt>
      <trkpt lat="46.64329" lon="3.84724">
        <ele>452.6</ele>
        <time>2018-03-25T08:55:45Z</time>
      </trkpt>
      <trkpt lat="46.64329" lon="3.84721">
        <ele>452.5</ele>
        <time>2018-03-25T08:55:46Z</time>
      </trkpt>
      <trkpt lat="46.64324" lon="3.84703">
        <ele>451.9</ele>
        <time>2018-03-25T08:55:50Z</time>
      </trkpt>
      <trkpt lat="46.64321" lon="3.84695">
        <ele>451.6</ele>
        <time>2018-03-25T08:55:52Z</time>
      </trkpt>
      <trkpt lat="46.64319" lon="3.84686">
        <ele>450.9</ele>
        <time>2018-03-25T08:55:54Z</time>
      </trkpt>
      <trkpt lat="46.64326" lon="3.84679">
        <ele>449.8</ele>
        <time>2018-03-25T08:55:58Z</time>
      </trkpt>
      <trkpt lat="46.64333" lon="3.84673">
        <ele>450.9</ele>
        <time>2018-03-25T08:56:02Z</time>
      </trkpt>
      <trkpt lat="46.64339" lon="3.84669">
        <ele>451.8</ele>
        <time>2018-03-25T08:56:05Z</time>
      </trkpt>
      <trkpt lat="46.64347" lon="3.84664">
        <ele>452</ele>
        <time>2018-03-25T08:56:09Z</time>
      </trkpt>
      <trkpt lat="46.64352" lon="3.84657">
        <ele>452.7</ele>
        <time>2018-03-25T08:56:12Z</time>
      </trkpt>
      <trkpt lat="46.64356" lon="3.84649">
        <ele>453.7</ele>
        <time>2018-03-25T08:56:15Z</time>
      </trkpt>
      <trkpt lat="46.6436" lon="3.84641">
        <ele>454.7</ele>
        <time>2018-03-25T08:56:18Z</time>
      </trkpt>
      <trkpt lat="46.64365" lon="3.84632">
        <ele>454.7</ele>
        <time>2018-03-25T08:56:21Z</time>
      </trkpt>
      <trkpt lat="46.64369" lon="3.84623">
        <ele>455.1</ele>
        <time>2018-03-25T08:56:24Z</time>
      </trkpt>
      <trkpt lat="46.64372" lon="3.84614">
        <ele>456.1</ele>
        <time>2018-03-25T08:56:27Z</time>
      </trkpt>
      <trkpt lat="46.64375" lon="3.84604">
        <ele>455.6</ele>
        <time>2018-03-25T08:56:30Z</time>
      </trkpt>
      <trkpt lat="46.64377" lon="3.84594">
        <ele>456.1</ele>
        <time>2018-03-25T08:56:33Z</time>
      </trkpt>
      <trkpt lat="46.64381" lon="3.84584">
        <ele>456.2</ele>
        <time>2018-03-25T08:56:36Z</time>
      </trkpt>
      <trkpt lat="46.64385" lon="3.84573">
        <ele>456.4</ele>
        <time>2018-03-25T08:56:39Z</time>
      </trkpt>
      <trkpt lat="46.64388" lon="3.84566">
        <ele>456.5</ele>
        <time>2018-03-25T08:56:41Z</time>
      </trkpt>
      <trkpt lat="46.64391" lon="3.84558">
        <ele>456.5</ele>
        <time>2018-03-25T08:56:43Z</time>
      </trkpt>
      <trkpt lat="46.64394" lon="3.8455">
        <ele>456.4</ele>
        <time>2018-03-25T08:56:45Z</time>
      </trkpt>
      <trkpt lat="46.64398" lon="3.84539">
        <ele>456.7</ele>
        <time>2018-03-25T08:56:48Z</time>
      </trkpt>
      <trkpt lat="46.64399" lon="3.84535">
        <ele>456.7</ele>
        <time>2018-03-25T08:56:49Z</time>
      </trkpt>
      <trkpt lat="46.64405" lon="3.84518">
        <ele>457.4</ele>
        <time>2018-03-25T08:56:54Z</time>
      </trkpt>
      <trkpt lat="46.64408" lon="3.84506">
        <ele>456.7</ele>
        <time>2018-03-25T08:56:57Z</time>
      </trkpt>
      <trkpt lat="46.64411" lon="3.84495">
        <ele>456.6</ele>
        <time>2018-03-25T08:57:00Z</time>
      </trkpt>
      <trkpt lat="46.64413" lon="3.84484">
        <ele>457.1</ele>
        <time>2018-03-25T08:57:03Z</time>
      </trkpt>
      <trkpt lat="46.64416" lon="3.84471">
        <ele>457.7</ele>
        <time>2018-03-25T08:57:07Z</time>
      </trkpt>
      <trkpt lat="46.64418" lon="3.8446">
        <ele>458.9</ele>
        <time>2018-03-25T08:57:11Z</time>
      </trkpt>
      <trkpt lat="46.64421" lon="3.84449">
        <ele>458.6</ele>
        <time>2018-03-25T08:57:15Z</time>
      </trkpt>
      <trkpt lat="46.64423" lon="3.84438">
        <ele>459</ele>
        <time>2018-03-25T08:57:19Z</time>
      </trkpt>
      <trkpt lat="46.64426" lon="3.84426">
        <ele>459.1</ele>
        <time>2018-03-25T08:57:23Z</time>
      </trkpt>
      <trkpt lat="46.64428" lon="3.84416">
        <ele>459.7</ele>
        <time>2018-03-25T08:57:26Z</time>
      </trkpt>
      <trkpt lat="46.64431" lon="3.84406">
        <ele>460.2</ele>
        <time>2018-03-25T08:57:29Z</time>
      </trkpt>
      <trkpt lat="46.64434" lon="3.84396">
        <ele>460.4</ele>
        <time>2018-03-25T08:57:32Z</time>
      </trkpt>
      <trkpt lat="46.64438" lon="3.84384">
        <ele>461</ele>
        <time>2018-03-25T08:57:36Z</time>
      </trkpt>
      <trkpt lat="46.6444" lon="3.84374">
        <ele>461.5</ele>
        <time>2018-03-25T08:57:39Z</time>
      </trkpt>
      <trkpt lat="46.64441" lon="3.84366">
        <ele>461.4</ele>
        <time>2018-03-25T08:57:41Z</time>
      </trkpt>
      <trkpt lat="46.6444" lon="3.84355">
        <ele>461.8</ele>
        <time>2018-03-25T08:57:43Z</time>
      </trkpt>
      <trkpt lat="46.64439" lon="3.84345">
        <ele>462.4</ele>
        <time>2018-03-25T08:57:45Z</time>
      </trkpt>
      <trkpt lat="46.64439" lon="3.84335">
        <ele>461.5</ele>
        <time>2018-03-25T08:57:47Z</time>
      </trkpt>
      <trkpt lat="46.64438" lon="3.84326">
        <ele>460.8</ele>
        <time>2018-03-25T08:57:49Z</time>
      </trkpt>
      <trkpt lat="46.64438" lon="3.84322">
        <ele>460.6</ele>
        <time>2018-03-25T08:57:50Z</time>
      </trkpt>
      <trkpt lat="46.64436" lon="3.84301">
        <ele>461.4</ele>
        <time>2018-03-25T08:57:55Z</time>
      </trkpt>
      <trkpt lat="46.64435" lon="3.84291">
        <ele>461.6</ele>
        <time>2018-03-25T08:57:58Z</time>
      </trkpt>
      <trkpt lat="46.64434" lon="3.84279">
        <ele>462.4</ele>
        <time>2018-03-25T08:58:01Z</time>
      </trkpt>
      <trkpt lat="46.64433" lon="3.84266">
        <ele>461.9</ele>
        <time>2018-03-25T08:58:04Z</time>
      </trkpt>
      <trkpt lat="46.64431" lon="3.84254">
        <ele>462.7</ele>
        <time>2018-03-25T08:58:07Z</time>
      </trkpt>
      <trkpt lat="46.64429" lon="3.84242">
        <ele>463.5</ele>
        <time>2018-03-25T08:58:10Z</time>
      </trkpt>
      <trkpt lat="46.64427" lon="3.84233">
        <ele>463.9</ele>
        <time>2018-03-25T08:58:12Z</time>
      </trkpt>
      <trkpt lat="46.64425" lon="3.84224">
        <ele>464.3</ele>
        <time>2018-03-25T08:58:14Z</time>
      </trkpt>
      <trkpt lat="46.64423" lon="3.84216">
        <ele>464.7</ele>
        <time>2018-03-25T08:58:16Z</time>
      </trkpt>
      <trkpt lat="46.64421" lon="3.84208">
        <ele>465.2</ele>
        <time>2018-03-25T08:58:18Z</time>
      </trkpt>
      <trkpt lat="46.64418" lon="3.84199">
        <ele>465.5</ele>
        <time>2018-03-25T08:58:20Z</time>
      </trkpt>
      <trkpt lat="46.64415" lon="3.84192">
        <ele>465.3</ele>
        <time>2018-03-25T08:58:22Z</time>
      </trkpt>
      <trkpt lat="46.64411" lon="3.84181">
        <ele>465</ele>
        <time>2018-03-25T08:58:25Z</time>
      </trkpt>
      <trkpt lat="46.64407" lon="3.84174">
        <ele>465</ele>
        <time>2018-03-25T08:58:27Z</time>
      </trkpt>
      <trkpt lat="46.64403" lon="3.84166">
        <ele>464.5</ele>
        <time>2018-03-25T08:58:29Z</time>
      </trkpt>
      <trkpt lat="46.64398" lon="3.84158">
        <ele>464.4</ele>
        <time>2018-03-25T08:58:31Z</time>
      </trkpt>
      <trkpt lat="46.64395" lon="3.84151">
        <ele>465.1</ele>
        <time>2018-03-25T08:58:33Z</time>
      </trkpt>
      <trkpt lat="46.64391" lon="3.84143">
        <ele>465.9</ele>
        <time>2018-03-25T08:58:35Z</time>
      </trkpt>
      <trkpt lat="46.64389" lon="3.84135">
        <ele>465.7</ele>
        <time>2018-03-25T08:58:37Z</time>
      </trkpt>
      <trkpt lat="46.64387" lon="3.84126">
        <ele>466</ele>
        <time>2018-03-25T08:58:39Z</time>
      </trkpt>
      <trkpt lat="46.64385" lon="3.84117">
        <ele>466</ele>
        <time>2018-03-25T08:58:41Z</time>
      </trkpt>
      <trkpt lat="46.64383" lon="3.84107">
        <ele>466.1</ele>
        <time>2018-03-25T08:58:43Z</time>
      </trkpt>
      <trkpt lat="46.64381" lon="3.84097">
        <ele>466.1</ele>
        <time>2018-03-25T08:58:45Z</time>
      </trkpt>
      <trkpt lat="46.64379" lon="3.84088">
        <ele>465.9</ele>
        <time>2018-03-25T08:58:47Z</time>
      </trkpt>
      <trkpt lat="46.64378" lon="3.8408">
        <ele>465.9</ele>
        <time>2018-03-25T08:58:49Z</time>
      </trkpt>
      <trkpt lat="46.64376" lon="3.84071">
        <ele>465</ele>
        <time>2018-03-25T08:58:51Z</time>
      </trkpt>
      <trkpt lat="46.64375" lon="3.84066">
        <ele>465.4</ele>
        <time>2018-03-25T08:58:52Z</time>
      </trkpt>
      <trkpt lat="46.64373" lon="3.84052">
        <ele>466</ele>
        <time>2018-03-25T08:58:55Z</time>
      </trkpt>
      <trkpt lat="46.64371" lon="3.84043">
        <ele>466.1</ele>
        <time>2018-03-25T08:58:57Z</time>
      </trkpt>
      <trkpt lat="46.64369" lon="3.84034">
        <ele>465.9</ele>
        <time>2018-03-25T08:58:59Z</time>
      </trkpt>
      <trkpt lat="46.64367" lon="3.84025">
        <ele>465.7</ele>
        <time>2018-03-25T08:59:01Z</time>
      </trkpt>
      <trkpt lat="46.64366" lon="3.84017">
        <ele>465.9</ele>
        <time>2018-03-25T08:59:03Z</time>
      </trkpt>
      <trkpt lat="46.64364" lon="3.84005">
        <ele>465.3</ele>
        <time>2018-03-25T08:59:06Z</time>
      </trkpt>
      <trkpt lat="46.64362" lon="3.83997">
        <ele>465.3</ele>
        <time>2018-03-25T08:59:08Z</time>
      </trkpt>
      <trkpt lat="46.64359" lon="3.83984">
        <ele>465.4</ele>
        <time>2018-03-25T08:59:11Z</time>
      </trkpt>
      <trkpt lat="46.64358" lon="3.83974">
        <ele>465.5</ele>
        <time>2018-03-25T08:59:14Z</time>
      </trkpt>
      <trkpt lat="46.64355" lon="3.83963">
        <ele>465.7</ele>
        <time>2018-03-25T08:59:18Z</time>
      </trkpt>
      <trkpt lat="46.64354" lon="3.83951">
        <ele>466.9</ele>
        <time>2018-03-25T08:59:22Z</time>
      </trkpt>
      <trkpt lat="46.64353" lon="3.83941">
        <ele>466.7</ele>
        <time>2018-03-25T08:59:25Z</time>
      </trkpt>
      <trkpt lat="46.64353" lon="3.83931">
        <ele>466.6</ele>
        <time>2018-03-25T08:59:28Z</time>
      </trkpt>
      <trkpt lat="46.64354" lon="3.83919">
        <ele>466.2</ele>
        <time>2018-03-25T08:59:32Z</time>
      </trkpt>
      <trkpt lat="46.64355" lon="3.83906">
        <ele>465.8</ele>
        <time>2018-03-25T08:59:38Z</time>
      </trkpt>
      <trkpt lat="46.64355" lon="3.83893">
        <ele>465.6</ele>
        <time>2018-03-25T09:00:47Z</time>
      </trkpt>
      <trkpt lat="46.64355" lon="3.83893">
        <ele>465.5</ele>
        <time>2018-03-25T09:00:48Z</time>
      </trkpt>
      <trkpt lat="46.64351" lon="3.83905">
        <ele>466</ele>
        <time>2018-03-25T09:04:18Z</time>
      </trkpt>
      <trkpt lat="46.64338" lon="3.83914">
        <ele>465.8</ele>
        <time>2018-03-25T09:05:15Z</time>
      </trkpt>
      <trkpt lat="46.6433" lon="3.83912">
        <ele>465</ele>
        <time>2018-03-25T09:05:24Z</time>
      </trkpt>
      <trkpt lat="46.64327" lon="3.83911">
        <ele>465.2</ele>
        <time>2018-03-25T09:05:25Z</time>
      </trkpt>
      <trkpt lat="46.64316" lon="3.83907">
        <ele>465.5</ele>
        <time>2018-03-25T09:05:28Z</time>
      </trkpt>
      <trkpt lat="46.64311" lon="3.83904">
        <ele>465.4</ele>
        <time>2018-03-25T09:05:29Z</time>
      </trkpt>
      <trkpt lat="46.64306" lon="3.83901">
        <ele>465.4</ele>
        <time>2018-03-25T09:05:30Z</time>
      </trkpt>
      <trkpt lat="46.64301" lon="3.83897">
        <ele>465.1</ele>
        <time>2018-03-25T09:05:31Z</time>
      </trkpt>
      <trkpt lat="46.64296" lon="3.83893">
        <ele>464.9</ele>
        <time>2018-03-25T09:05:32Z</time>
      </trkpt>
      <trkpt lat="46.6429" lon="3.83888">
        <ele>463.9</ele>
        <time>2018-03-25T09:05:33Z</time>
      </trkpt>
      <trkpt lat="46.64284" lon="3.83884">
        <ele>463.3</ele>
        <time>2018-03-25T09:05:34Z</time>
      </trkpt>
      <trkpt lat="46.64278" lon="3.83879">
        <ele>462.7</ele>
        <time>2018-03-25T09:05:35Z</time>
      </trkpt>
      <trkpt lat="46.64273" lon="3.83875">
        <ele>462.3</ele>
        <time>2018-03-25T09:05:36Z</time>
      </trkpt>
      <trkpt lat="46.64267" lon="3.83869">
        <ele>462</ele>
        <time>2018-03-25T09:05:37Z</time>
      </trkpt>
      <trkpt lat="46.64262" lon="3.83864">
        <ele>461.9</ele>
        <time>2018-03-25T09:05:38Z</time>
      </trkpt>
      <trkpt lat="46.64257" lon="3.83859">
        <ele>461.8</ele>
        <time>2018-03-25T09:05:39Z</time>
      </trkpt>
      <trkpt lat="46.64252" lon="3.83854">
        <ele>461.4</ele>
        <time>2018-03-25T09:05:40Z</time>
      </trkpt>
      <trkpt lat="46.64248" lon="3.83848">
        <ele>461</ele>
        <time>2018-03-25T09:05:41Z</time>
      </trkpt>
      <trkpt lat="46.64242" lon="3.83843">
        <ele>460.8</ele>
        <time>2018-03-25T09:05:42Z</time>
      </trkpt>
      <trkpt lat="46.64238" lon="3.83837">
        <ele>460.8</ele>
        <time>2018-03-25T09:05:43Z</time>
      </trkpt>
      <trkpt lat="46.64233" lon="3.83831">
        <ele>460.8</ele>
        <time>2018-03-25T09:05:44Z</time>
      </trkpt>
      <trkpt lat="46.64227" lon="3.83826">
        <ele>460.5</ele>
        <time>2018-03-25T09:05:45Z</time>
      </trkpt>
      <trkpt lat="46.64222" lon="3.8382">
        <ele>460.3</ele>
        <time>2018-03-25T09:05:46Z</time>
      </trkpt>
      <trkpt lat="46.64217" lon="3.83814">
        <ele>460.1</ele>
        <time>2018-03-25T09:05:47Z</time>
      </trkpt>
      <trkpt lat="46.64212" lon="3.83808">
        <ele>459.4</ele>
        <time>2018-03-25T09:05:48Z</time>
      </trkpt>
      <trkpt lat="46.64207" lon="3.83802">
        <ele>458.9</ele>
        <time>2018-03-25T09:05:49Z</time>
      </trkpt>
      <trkpt lat="46.64202" lon="3.83797">
        <ele>458.3</ele>
        <time>2018-03-25T09:05:50Z</time>
      </trkpt>
      <trkpt lat="46.64196" lon="3.83791">
        <ele>457.9</ele>
        <time>2018-03-25T09:05:51Z</time>
      </trkpt>
      <trkpt lat="46.64191" lon="3.83785">
        <ele>456.7</ele>
        <time>2018-03-25T09:05:52Z</time>
      </trkpt>
      <trkpt lat="46.64185" lon="3.83779">
        <ele>455.9</ele>
        <time>2018-03-25T09:05:53Z</time>
      </trkpt>
      <trkpt lat="46.6418" lon="3.83773">
        <ele>455.3</ele>
        <time>2018-03-25T09:05:54Z</time>
      </trkpt>
      <trkpt lat="46.64174" lon="3.83766">
        <ele>454.3</ele>
        <time>2018-03-25T09:05:55Z</time>
      </trkpt>
      <trkpt lat="46.64169" lon="3.8376">
        <ele>453.5</ele>
        <time>2018-03-25T09:05:56Z</time>
      </trkpt>
      <trkpt lat="46.64163" lon="3.83754">
        <ele>452</ele>
        <time>2018-03-25T09:05:57Z</time>
      </trkpt>
      <trkpt lat="46.64156" lon="3.83747">
        <ele>450.8</ele>
        <time>2018-03-25T09:05:58Z</time>
      </trkpt>
      <trkpt lat="46.6415" lon="3.8374">
        <ele>449.7</ele>
        <time>2018-03-25T09:05:59Z</time>
      </trkpt>
      <trkpt lat="46.64143" lon="3.83733">
        <ele>448.9</ele>
        <time>2018-03-25T09:06:00Z</time>
      </trkpt>
      <trkpt lat="46.64136" lon="3.83725">
        <ele>448.3</ele>
        <time>2018-03-25T09:06:01Z</time>
      </trkpt>
      <trkpt lat="46.64129" lon="3.83717">
        <ele>447.2</ele>
        <time>2018-03-25T09:06:02Z</time>
      </trkpt>
      <trkpt lat="46.64121" lon="3.83709">
        <ele>446.3</ele>
        <time>2018-03-25T09:06:03Z</time>
      </trkpt>
      <trkpt lat="46.64113" lon="3.83701">
        <ele>444.4</ele>
        <time>2018-03-25T09:06:04Z</time>
      </trkpt>
      <trkpt lat="46.64106" lon="3.83692">
        <ele>443</ele>
        <time>2018-03-25T09:06:05Z</time>
      </trkpt>
      <trkpt lat="46.64099" lon="3.83686">
        <ele>442</ele>
        <time>2018-03-25T09:06:06Z</time>
      </trkpt>
      <trkpt lat="46.64093" lon="3.83679">
        <ele>440</ele>
        <time>2018-03-25T09:06:07Z</time>
      </trkpt>
      <trkpt lat="46.64089" lon="3.83674">
        <ele>438.5</ele>
        <time>2018-03-25T09:06:08Z</time>
      </trkpt>
      <trkpt lat="46.64084" lon="3.8367">
        <ele>436.4</ele>
        <time>2018-03-25T09:06:09Z</time>
      </trkpt>
      <trkpt lat="46.64079" lon="3.83665">
        <ele>434.8</ele>
        <time>2018-03-25T09:06:10Z</time>
      </trkpt>
      <trkpt lat="46.64074" lon="3.83659">
        <ele>433.4</ele>
        <time>2018-03-25T09:06:11Z</time>
      </trkpt>
      <trkpt lat="46.64068" lon="3.83653">
        <ele>432.4</ele>
        <time>2018-03-25T09:06:12Z</time>
      </trkpt>
      <trkpt lat="46.64062" lon="3.83646">
        <ele>431.6</ele>
        <time>2018-03-25T09:06:13Z</time>
      </trkpt>
      <trkpt lat="46.64055" lon="3.8364">
        <ele>431</ele>
        <time>2018-03-25T09:06:14Z</time>
      </trkpt>
      <trkpt lat="46.64047" lon="3.83634">
        <ele>430.5</ele>
        <time>2018-03-25T09:06:15Z</time>
      </trkpt>
      <trkpt lat="46.64039" lon="3.83626">
        <ele>429</ele>
        <time>2018-03-25T09:06:16Z</time>
      </trkpt>
      <trkpt lat="46.64031" lon="3.83618">
        <ele>427.9</ele>
        <time>2018-03-25T09:06:17Z</time>
      </trkpt>
      <trkpt lat="46.64023" lon="3.8361">
        <ele>427.1</ele>
        <time>2018-03-25T09:06:18Z</time>
      </trkpt>
      <trkpt lat="46.64016" lon="3.83602">
        <ele>426.5</ele>
        <time>2018-03-25T09:06:19Z</time>
      </trkpt>
      <trkpt lat="46.64009" lon="3.83593">
        <ele>426</ele>
        <time>2018-03-25T09:06:20Z</time>
      </trkpt>
      <trkpt lat="46.64003" lon="3.83585">
        <ele>425.1</ele>
        <time>2018-03-25T09:06:21Z</time>
      </trkpt>
      <trkpt lat="46.63997" lon="3.83576">
        <ele>424.4</ele>
        <time>2018-03-25T09:06:22Z</time>
      </trkpt>
      <trkpt lat="46.63991" lon="3.83566">
        <ele>423</ele>
        <time>2018-03-25T09:06:23Z</time>
      </trkpt>
      <trkpt lat="46.63986" lon="3.83556">
        <ele>421.9</ele>
        <time>2018-03-25T09:06:24Z</time>
      </trkpt>
      <trkpt lat="46.63981" lon="3.83545">
        <ele>421.1</ele>
        <time>2018-03-25T09:06:25Z</time>
      </trkpt>
      <trkpt lat="46.63978" lon="3.83534">
        <ele>419.5</ele>
        <time>2018-03-25T09:06:26Z</time>
      </trkpt>
      <trkpt lat="46.63975" lon="3.83522">
        <ele>418.4</ele>
        <time>2018-03-25T09:06:27Z</time>
      </trkpt>
      <trkpt lat="46.63972" lon="3.8351">
        <ele>417.1</ele>
        <time>2018-03-25T09:06:28Z</time>
      </trkpt>
      <trkpt lat="46.63969" lon="3.83497">
        <ele>416.2</ele>
        <time>2018-03-25T09:06:29Z</time>
      </trkpt>
      <trkpt lat="46.63965" lon="3.83485">
        <ele>414.1</ele>
        <time>2018-03-25T09:06:30Z</time>
      </trkpt>
      <trkpt lat="46.63961" lon="3.83473">
        <ele>412.6</ele>
        <time>2018-03-25T09:06:31Z</time>
      </trkpt>
      <trkpt lat="46.63957" lon="3.83461">
        <ele>411.4</ele>
        <time>2018-03-25T09:06:32Z</time>
      </trkpt>
      <trkpt lat="46.63951" lon="3.83449">
        <ele>410.5</ele>
        <time>2018-03-25T09:06:33Z</time>
      </trkpt>
      <trkpt lat="46.63945" lon="3.83436">
        <ele>409.8</ele>
        <time>2018-03-25T09:06:34Z</time>
      </trkpt>
      <trkpt lat="46.63939" lon="3.83424">
        <ele>408.4</ele>
        <time>2018-03-25T09:06:35Z</time>
      </trkpt>
      <trkpt lat="46.63932" lon="3.83411">
        <ele>407.3</ele>
        <time>2018-03-25T09:06:36Z</time>
      </trkpt>
      <trkpt lat="46.63927" lon="3.83398">
        <ele>405.5</ele>
        <time>2018-03-25T09:06:37Z</time>
      </trkpt>
      <trkpt lat="46.63922" lon="3.83385">
        <ele>404.1</ele>
        <time>2018-03-25T09:06:38Z</time>
      </trkpt>
      <trkpt lat="46.63919" lon="3.8337">
        <ele>403</ele>
        <time>2018-03-25T09:06:39Z</time>
      </trkpt>
      <trkpt lat="46.63917" lon="3.83356">
        <ele>401.6</ele>
        <time>2018-03-25T09:06:40Z</time>
      </trkpt>
      <trkpt lat="46.63914" lon="3.83342">
        <ele>400.5</ele>
        <time>2018-03-25T09:06:41Z</time>
      </trkpt>
      <trkpt lat="46.63911" lon="3.83328">
        <ele>399.1</ele>
        <time>2018-03-25T09:06:42Z</time>
      </trkpt>
      <trkpt lat="46.63908" lon="3.83313">
        <ele>398.1</ele>
        <time>2018-03-25T09:06:43Z</time>
      </trkpt>
      <trkpt lat="46.63907" lon="3.83299">
        <ele>397.4</ele>
        <time>2018-03-25T09:06:44Z</time>
      </trkpt>
      <trkpt lat="46.63906" lon="3.83285">
        <ele>396</ele>
        <time>2018-03-25T09:06:45Z</time>
      </trkpt>
      <trkpt lat="46.63905" lon="3.83271">
        <ele>394.9</ele>
        <time>2018-03-25T09:06:46Z</time>
      </trkpt>
      <trkpt lat="46.63905" lon="3.83257">
        <ele>393.3</ele>
        <time>2018-03-25T09:06:47Z</time>
      </trkpt>
      <trkpt lat="46.63903" lon="3.83244">
        <ele>392</ele>
        <time>2018-03-25T09:06:48Z</time>
      </trkpt>
      <trkpt lat="46.63901" lon="3.8323">
        <ele>390.2</ele>
        <time>2018-03-25T09:06:49Z</time>
      </trkpt>
      <trkpt lat="46.63898" lon="3.83217">
        <ele>388.8</ele>
        <time>2018-03-25T09:06:50Z</time>
      </trkpt>
      <trkpt lat="46.63895" lon="3.83202">
        <ele>387.7</ele>
        <time>2018-03-25T09:06:51Z</time>
      </trkpt>
      <trkpt lat="46.63893" lon="3.83186">
        <ele>386.5</ele>
        <time>2018-03-25T09:06:52Z</time>
      </trkpt>
      <trkpt lat="46.63892" lon="3.83172">
        <ele>385.6</ele>
        <time>2018-03-25T09:06:53Z</time>
      </trkpt>
      <trkpt lat="46.63891" lon="3.83158">
        <ele>384.3</ele>
        <time>2018-03-25T09:06:54Z</time>
      </trkpt>
      <trkpt lat="46.63889" lon="3.83145">
        <ele>383.4</ele>
        <time>2018-03-25T09:06:55Z</time>
      </trkpt>
      <trkpt lat="46.63888" lon="3.83134">
        <ele>381.4</ele>
        <time>2018-03-25T09:06:56Z</time>
      </trkpt>
      <trkpt lat="46.63886" lon="3.83125">
        <ele>379.8</ele>
        <time>2018-03-25T09:06:57Z</time>
      </trkpt>
      <trkpt lat="46.63886" lon="3.83117">
        <ele>378.7</ele>
        <time>2018-03-25T09:06:58Z</time>
      </trkpt>
      <trkpt lat="46.63891" lon="3.83106">
        <ele>376.2</ele>
        <time>2018-03-25T09:07:00Z</time>
      </trkpt>
      <trkpt lat="46.63898" lon="3.83108">
        <ele>374.8</ele>
        <time>2018-03-25T09:07:02Z</time>
      </trkpt>
      <trkpt lat="46.63905" lon="3.83112">
        <ele>374.5</ele>
        <time>2018-03-25T09:07:04Z</time>
      </trkpt>
      <trkpt lat="46.63912" lon="3.83117">
        <ele>374</ele>
        <time>2018-03-25T09:07:06Z</time>
      </trkpt>
      <trkpt lat="46.63919" lon="3.83123">
        <ele>373.6</ele>
        <time>2018-03-25T09:07:08Z</time>
      </trkpt>
      <trkpt lat="46.63924" lon="3.8313">
        <ele>373.4</ele>
        <time>2018-03-25T09:07:10Z</time>
      </trkpt>
      <trkpt lat="46.6393" lon="3.83138">
        <ele>373.5</ele>
        <time>2018-03-25T09:07:12Z</time>
      </trkpt>
      <trkpt lat="46.63935" lon="3.83146">
        <ele>373.7</ele>
        <time>2018-03-25T09:07:14Z</time>
      </trkpt>
      <trkpt lat="46.6394" lon="3.83154">
        <ele>373.5</ele>
        <time>2018-03-25T09:07:16Z</time>
      </trkpt>
      <trkpt lat="46.63945" lon="3.83163">
        <ele>373.7</ele>
        <time>2018-03-25T09:07:18Z</time>
      </trkpt>
      <trkpt lat="46.6395" lon="3.83171">
        <ele>374.1</ele>
        <time>2018-03-25T09:07:20Z</time>
      </trkpt>
      <trkpt lat="46.63955" lon="3.8318">
        <ele>374.3</ele>
        <time>2018-03-25T09:07:22Z</time>
      </trkpt>
      <trkpt lat="46.6396" lon="3.83188">
        <ele>374.3</ele>
        <time>2018-03-25T09:07:24Z</time>
      </trkpt>
      <trkpt lat="46.63966" lon="3.83196">
        <ele>374</ele>
        <time>2018-03-25T09:07:26Z</time>
      </trkpt>
      <trkpt lat="46.63971" lon="3.83203">
        <ele>374.3</ele>
        <time>2018-03-25T09:07:28Z</time>
      </trkpt>
      <trkpt lat="46.63974" lon="3.83206">
        <ele>374.3</ele>
        <time>2018-03-25T09:07:29Z</time>
      </trkpt>
      <trkpt lat="46.63984" lon="3.83214">
        <ele>374.7</ele>
        <time>2018-03-25T09:07:32Z</time>
      </trkpt>
      <trkpt lat="46.63991" lon="3.83219">
        <ele>375.1</ele>
        <time>2018-03-25T09:07:34Z</time>
      </trkpt>
      <trkpt lat="46.63998" lon="3.83222">
        <ele>375.5</ele>
        <time>2018-03-25T09:07:36Z</time>
      </trkpt>
      <trkpt lat="46.64006" lon="3.83224">
        <ele>375.8</ele>
        <time>2018-03-25T09:07:38Z</time>
      </trkpt>
      <trkpt lat="46.64013" lon="3.83225">
        <ele>375.2</ele>
        <time>2018-03-25T09:07:40Z</time>
      </trkpt>
      <trkpt lat="46.64021" lon="3.83226">
        <ele>375.1</ele>
        <time>2018-03-25T09:07:42Z</time>
      </trkpt>
      <trkpt lat="46.64029" lon="3.83227">
        <ele>375.1</ele>
        <time>2018-03-25T09:07:44Z</time>
      </trkpt>
      <trkpt lat="46.64037" lon="3.83227">
        <ele>375.2</ele>
        <time>2018-03-25T09:07:46Z</time>
      </trkpt>
      <trkpt lat="46.64045" lon="3.83227">
        <ele>375.3</ele>
        <time>2018-03-25T09:07:48Z</time>
      </trkpt>
      <trkpt lat="46.64053" lon="3.83226">
        <ele>374.9</ele>
        <time>2018-03-25T09:07:50Z</time>
      </trkpt>
      <trkpt lat="46.64061" lon="3.83225">
        <ele>374.6</ele>
        <time>2018-03-25T09:07:52Z</time>
      </trkpt>
      <trkpt lat="46.64069" lon="3.83224">
        <ele>374.8</ele>
        <time>2018-03-25T09:07:54Z</time>
      </trkpt>
      <trkpt lat="46.64077" lon="3.83222">
        <ele>374.9</ele>
        <time>2018-03-25T09:07:56Z</time>
      </trkpt>
      <trkpt lat="46.64085" lon="3.83218">
        <ele>374.7</ele>
        <time>2018-03-25T09:07:58Z</time>
      </trkpt>
      <trkpt lat="46.64092" lon="3.83213">
        <ele>374.3</ele>
        <time>2018-03-25T09:08:00Z</time>
      </trkpt>
      <trkpt lat="46.64099" lon="3.83207">
        <ele>375</ele>
        <time>2018-03-25T09:08:02Z</time>
      </trkpt>
      <trkpt lat="46.64106" lon="3.832">
        <ele>374.9</ele>
        <time>2018-03-25T09:08:04Z</time>
      </trkpt>
      <trkpt lat="46.64112" lon="3.83192">
        <ele>374.9</ele>
        <time>2018-03-25T09:08:06Z</time>
      </trkpt>
      <trkpt lat="46.64118" lon="3.83185">
        <ele>375</ele>
        <time>2018-03-25T09:08:08Z</time>
      </trkpt>
      <trkpt lat="46.64124" lon="3.83177">
        <ele>374.9</ele>
        <time>2018-03-25T09:08:10Z</time>
      </trkpt>
      <trkpt lat="46.6413" lon="3.83169">
        <ele>375</ele>
        <time>2018-03-25T09:08:12Z</time>
      </trkpt>
      <trkpt lat="46.64136" lon="3.83162">
        <ele>375.3</ele>
        <time>2018-03-25T09:08:14Z</time>
      </trkpt>
      <trkpt lat="46.64143" lon="3.83155">
        <ele>375.3</ele>
        <time>2018-03-25T09:08:16Z</time>
      </trkpt>
      <trkpt lat="46.6415" lon="3.83149">
        <ele>374.6</ele>
        <time>2018-03-25T09:08:18Z</time>
      </trkpt>
      <trkpt lat="46.64158" lon="3.83144">
        <ele>374.4</ele>
        <time>2018-03-25T09:08:20Z</time>
      </trkpt>
      <trkpt lat="46.64166" lon="3.83138">
        <ele>374.7</ele>
        <time>2018-03-25T09:08:22Z</time>
      </trkpt>
      <trkpt lat="46.6417" lon="3.83136">
        <ele>374.8</ele>
        <time>2018-03-25T09:08:23Z</time>
      </trkpt>
      <trkpt lat="46.64175" lon="3.83134">
        <ele>375.1</ele>
        <time>2018-03-25T09:08:24Z</time>
      </trkpt>
      <trkpt lat="46.6418" lon="3.83133">
        <ele>375.3</ele>
        <time>2018-03-25T09:08:25Z</time>
      </trkpt>
      <trkpt lat="46.64185" lon="3.83132">
        <ele>375.5</ele>
        <time>2018-03-25T09:08:26Z</time>
      </trkpt>
      <trkpt lat="46.6419" lon="3.8313">
        <ele>375.1</ele>
        <time>2018-03-25T09:08:27Z</time>
      </trkpt>
      <trkpt lat="46.64195" lon="3.83129">
        <ele>374.8</ele>
        <time>2018-03-25T09:08:28Z</time>
      </trkpt>
      <trkpt lat="46.642" lon="3.83128">
        <ele>374.8</ele>
        <time>2018-03-25T09:08:29Z</time>
      </trkpt>
      <trkpt lat="46.64205" lon="3.83126">
        <ele>374.7</ele>
        <time>2018-03-25T09:08:30Z</time>
      </trkpt>
      <trkpt lat="46.64211" lon="3.83125">
        <ele>374.5</ele>
        <time>2018-03-25T09:08:31Z</time>
      </trkpt>
      <trkpt lat="46.64216" lon="3.83123">
        <ele>374.4</ele>
        <time>2018-03-25T09:08:32Z</time>
      </trkpt>
      <trkpt lat="46.64222" lon="3.83122">
        <ele>374.3</ele>
        <time>2018-03-25T09:08:33Z</time>
      </trkpt>
      <trkpt lat="46.64227" lon="3.83121">
        <ele>374.1</ele>
        <time>2018-03-25T09:08:34Z</time>
      </trkpt>
      <trkpt lat="46.64233" lon="3.8312">
        <ele>374</ele>
        <time>2018-03-25T09:08:35Z</time>
      </trkpt>
      <trkpt lat="46.64239" lon="3.83118">
        <ele>373.8</ele>
        <time>2018-03-25T09:08:36Z</time>
      </trkpt>
      <trkpt lat="46.64244" lon="3.83117">
        <ele>373.7</ele>
        <time>2018-03-25T09:08:37Z</time>
      </trkpt>
      <trkpt lat="46.6425" lon="3.83115">
        <ele>373.6</ele>
        <time>2018-03-25T09:08:38Z</time>
      </trkpt>
      <trkpt lat="46.64256" lon="3.83114">
        <ele>373.3</ele>
        <time>2018-03-25T09:08:39Z</time>
      </trkpt>
      <trkpt lat="46.64262" lon="3.83112">
        <ele>373.1</ele>
        <time>2018-03-25T09:08:40Z</time>
      </trkpt>
      <trkpt lat="46.64268" lon="3.83111">
        <ele>373</ele>
        <time>2018-03-25T09:08:41Z</time>
      </trkpt>
      <trkpt lat="46.64274" lon="3.83109">
        <ele>373</ele>
        <time>2018-03-25T09:08:42Z</time>
      </trkpt>
      <trkpt lat="46.6428" lon="3.83108">
        <ele>372.9</ele>
        <time>2018-03-25T09:08:43Z</time>
      </trkpt>
      <trkpt lat="46.64286" lon="3.83106">
        <ele>372.8</ele>
        <time>2018-03-25T09:08:44Z</time>
      </trkpt>
      <trkpt lat="46.64292" lon="3.83104">
        <ele>372.8</ele>
        <time>2018-03-25T09:08:45Z</time>
      </trkpt>
      <trkpt lat="46.64299" lon="3.83103">
        <ele>372.4</ele>
        <time>2018-03-25T09:08:46Z</time>
      </trkpt>
      <trkpt lat="46.64305" lon="3.83101">
        <ele>372.2</ele>
        <time>2018-03-25T09:08:47Z</time>
      </trkpt>
      <trkpt lat="46.64311" lon="3.831">
        <ele>371.7</ele>
        <time>2018-03-25T09:08:48Z</time>
      </trkpt>
      <trkpt lat="46.64318" lon="3.83098">
        <ele>371.4</ele>
        <time>2018-03-25T09:08:49Z</time>
      </trkpt>
      <trkpt lat="46.64324" lon="3.83097">
        <ele>371.1</ele>
        <time>2018-03-25T09:08:50Z</time>
      </trkpt>
      <trkpt lat="46.64331" lon="3.83096">
        <ele>370.9</ele>
        <time>2018-03-25T09:08:51Z</time>
      </trkpt>
      <trkpt lat="46.64337" lon="3.83094">
        <ele>370.7</ele>
        <time>2018-03-25T09:08:52Z</time>
      </trkpt>
      <trkpt lat="46.64343" lon="3.83093">
        <ele>370.7</ele>
        <time>2018-03-25T09:08:53Z</time>
      </trkpt>
      <trkpt lat="46.6435" lon="3.83092">
        <ele>370.7</ele>
        <time>2018-03-25T09:08:54Z</time>
      </trkpt>
      <trkpt lat="46.64356" lon="3.83091">
        <ele>370.9</ele>
        <time>2018-03-25T09:08:55Z</time>
      </trkpt>
      <trkpt lat="46.64362" lon="3.83089">
        <ele>371</ele>
        <time>2018-03-25T09:08:56Z</time>
      </trkpt>
      <trkpt lat="46.64369" lon="3.83088">
        <ele>370.8</ele>
        <time>2018-03-25T09:08:57Z</time>
      </trkpt>
      <trkpt lat="46.64375" lon="3.83087">
        <ele>370.6</ele>
        <time>2018-03-25T09:08:58Z</time>
      </trkpt>
      <trkpt lat="46.64381" lon="3.83086">
        <ele>370.4</ele>
        <time>2018-03-25T09:08:59Z</time>
      </trkpt>
      <trkpt lat="46.64387" lon="3.83085">
        <ele>370.2</ele>
        <time>2018-03-25T09:09:00Z</time>
      </trkpt>
      <trkpt lat="46.64394" lon="3.83084">
        <ele>370</ele>
        <time>2018-03-25T09:09:01Z</time>
      </trkpt>
      <trkpt lat="46.644" lon="3.83083">
        <ele>369.7</ele>
        <time>2018-03-25T09:09:02Z</time>
      </trkpt>
      <trkpt lat="46.64406" lon="3.83082">
        <ele>369.5</ele>
        <time>2018-03-25T09:09:03Z</time>
      </trkpt>
      <trkpt lat="46.64412" lon="3.8308">
        <ele>369.4</ele>
        <time>2018-03-25T09:09:04Z</time>
      </trkpt>
      <trkpt lat="46.64418" lon="3.83079">
        <ele>369.3</ele>
        <time>2018-03-25T09:09:05Z</time>
      </trkpt>
      <trkpt lat="46.64424" lon="3.83078">
        <ele>369.3</ele>
        <time>2018-03-25T09:09:06Z</time>
      </trkpt>
      <trkpt lat="46.64431" lon="3.83077">
        <ele>369.1</ele>
        <time>2018-03-25T09:09:07Z</time>
      </trkpt>
      <trkpt lat="46.64437" lon="3.83076">
        <ele>368.9</ele>
        <time>2018-03-25T09:09:08Z</time>
      </trkpt>
      <trkpt lat="46.64444" lon="3.83075">
        <ele>368.3</ele>
        <time>2018-03-25T09:09:09Z</time>
      </trkpt>
      <trkpt lat="46.6445" lon="3.83073">
        <ele>367.9</ele>
        <time>2018-03-25T09:09:10Z</time>
      </trkpt>
      <trkpt lat="46.64457" lon="3.83072">
        <ele>367.5</ele>
        <time>2018-03-25T09:09:11Z</time>
      </trkpt>
      <trkpt lat="46.64463" lon="3.83071">
        <ele>367.3</ele>
        <time>2018-03-25T09:09:12Z</time>
      </trkpt>
      <trkpt lat="46.6447" lon="3.8307">
        <ele>367.1</ele>
        <time>2018-03-25T09:09:13Z</time>
      </trkpt>
      <trkpt lat="46.64476" lon="3.83069">
        <ele>366.7</ele>
        <time>2018-03-25T09:09:14Z</time>
      </trkpt>
      <trkpt lat="46.64483" lon="3.83068">
        <ele>366.4</ele>
        <time>2018-03-25T09:09:15Z</time>
      </trkpt>
      <trkpt lat="46.6449" lon="3.83067">
        <ele>366.2</ele>
        <time>2018-03-25T09:09:16Z</time>
      </trkpt>
      <trkpt lat="46.64497" lon="3.83066">
        <ele>365.9</ele>
        <time>2018-03-25T09:09:17Z</time>
      </trkpt>
      <trkpt lat="46.64503" lon="3.83064">
        <ele>365.8</ele>
        <time>2018-03-25T09:09:18Z</time>
      </trkpt>
      <trkpt lat="46.6451" lon="3.83063">
        <ele>365.5</ele>
        <time>2018-03-25T09:09:19Z</time>
      </trkpt>
      <trkpt lat="46.64516" lon="3.83062">
        <ele>365.4</ele>
        <time>2018-03-25T09:09:20Z</time>
      </trkpt>
      <trkpt lat="46.64523" lon="3.83062">
        <ele>364.9</ele>
        <time>2018-03-25T09:09:21Z</time>
      </trkpt>
      <trkpt lat="46.6453" lon="3.83061">
        <ele>364.6</ele>
        <time>2018-03-25T09:09:22Z</time>
      </trkpt>
      <trkpt lat="46.64537" lon="3.83061">
        <ele>364.3</ele>
        <time>2018-03-25T09:09:23Z</time>
      </trkpt>
      <trkpt lat="46.64544" lon="3.83061">
        <ele>364.1</ele>
        <time>2018-03-25T09:09:24Z</time>
      </trkpt>
      <trkpt lat="46.64551" lon="3.83062">
        <ele>363.9</ele>
        <time>2018-03-25T09:09:25Z</time>
      </trkpt>
      <trkpt lat="46.64558" lon="3.83062">
        <ele>363.6</ele>
        <time>2018-03-25T09:09:26Z</time>
      </trkpt>
      <trkpt lat="46.64565" lon="3.83063">
        <ele>363.4</ele>
        <time>2018-03-25T09:09:27Z</time>
      </trkpt>
      <trkpt lat="46.64572" lon="3.83063">
        <ele>362.9</ele>
        <time>2018-03-25T09:09:28Z</time>
      </trkpt>
      <trkpt lat="46.64579" lon="3.83063">
        <ele>362.5</ele>
        <time>2018-03-25T09:09:29Z</time>
      </trkpt>
      <trkpt lat="46.64585" lon="3.83062">
        <ele>362.2</ele>
        <time>2018-03-25T09:09:30Z</time>
      </trkpt>
      <trkpt lat="46.64592" lon="3.83061">
        <ele>362</ele>
        <time>2018-03-25T09:09:31Z</time>
      </trkpt>
      <trkpt lat="46.64598" lon="3.83059">
        <ele>361.9</ele>
        <time>2018-03-25T09:09:32Z</time>
      </trkpt>
      <trkpt lat="46.64604" lon="3.83058">
        <ele>361.4</ele>
        <time>2018-03-25T09:09:33Z</time>
      </trkpt>
      <trkpt lat="46.64611" lon="3.83055">
        <ele>361.1</ele>
        <time>2018-03-25T09:09:34Z</time>
      </trkpt>
      <trkpt lat="46.64617" lon="3.83053">
        <ele>360.8</ele>
        <time>2018-03-25T09:09:35Z</time>
      </trkpt>
      <trkpt lat="46.64623" lon="3.8305">
        <ele>360.8</ele>
        <time>2018-03-25T09:09:36Z</time>
      </trkpt>
      <trkpt lat="46.64629" lon="3.83048">
        <ele>360.8</ele>
        <time>2018-03-25T09:09:37Z</time>
      </trkpt>
      <trkpt lat="46.64634" lon="3.83045">
        <ele>360.8</ele>
        <time>2018-03-25T09:09:38Z</time>
      </trkpt>
      <trkpt lat="46.6464" lon="3.83043">
        <ele>360.8</ele>
        <time>2018-03-25T09:09:39Z</time>
      </trkpt>
      <trkpt lat="46.64646" lon="3.8304">
        <ele>360.9</ele>
        <time>2018-03-25T09:09:40Z</time>
      </trkpt>
      <trkpt lat="46.64651" lon="3.83037">
        <ele>361.1</ele>
        <time>2018-03-25T09:09:41Z</time>
      </trkpt>
      <trkpt lat="46.64656" lon="3.83034">
        <ele>361.2</ele>
        <time>2018-03-25T09:09:42Z</time>
      </trkpt>
      <trkpt lat="46.64661" lon="3.83032">
        <ele>361.6</ele>
        <time>2018-03-25T09:09:43Z</time>
      </trkpt>
      <trkpt lat="46.64666" lon="3.83029">
        <ele>361.9</ele>
        <time>2018-03-25T09:09:44Z</time>
      </trkpt>
      <trkpt lat="46.64671" lon="3.83027">
        <ele>361.8</ele>
        <time>2018-03-25T09:09:45Z</time>
      </trkpt>
      <trkpt lat="46.64676" lon="3.83025">
        <ele>361.8</ele>
        <time>2018-03-25T09:09:46Z</time>
      </trkpt>
      <trkpt lat="46.6468" lon="3.83023">
        <ele>362</ele>
        <time>2018-03-25T09:09:47Z</time>
      </trkpt>
      <trkpt lat="46.64684" lon="3.8302">
        <ele>362.2</ele>
        <time>2018-03-25T09:09:48Z</time>
      </trkpt>
      <trkpt lat="46.64689" lon="3.83018">
        <ele>362.3</ele>
        <time>2018-03-25T09:09:49Z</time>
      </trkpt>
      <trkpt lat="46.64697" lon="3.83014">
        <ele>362.4</ele>
        <time>2018-03-25T09:09:51Z</time>
      </trkpt>
      <trkpt lat="46.64705" lon="3.8301">
        <ele>363.1</ele>
        <time>2018-03-25T09:09:53Z</time>
      </trkpt>
      <trkpt lat="46.64713" lon="3.83006">
        <ele>363.4</ele>
        <time>2018-03-25T09:09:55Z</time>
      </trkpt>
      <trkpt lat="46.6472" lon="3.83002">
        <ele>363.6</ele>
        <time>2018-03-25T09:09:57Z</time>
      </trkpt>
      <trkpt lat="46.64725" lon="3.82997">
        <ele>364.5</ele>
        <time>2018-03-25T09:09:59Z</time>
      </trkpt>
      <trkpt lat="46.64728" lon="3.82988">
        <ele>365.4</ele>
        <time>2018-03-25T09:10:01Z</time>
      </trkpt>
      <trkpt lat="46.64729" lon="3.82976">
        <ele>364.2</ele>
        <time>2018-03-25T09:10:03Z</time>
      </trkpt>
      <trkpt lat="46.64728" lon="3.82969">
        <ele>364</ele>
        <time>2018-03-25T09:10:04Z</time>
      </trkpt>
      <trkpt lat="46.64726" lon="3.82961">
        <ele>363.9</ele>
        <time>2018-03-25T09:10:05Z</time>
      </trkpt>
      <trkpt lat="46.64724" lon="3.82954">
        <ele>363.8</ele>
        <time>2018-03-25T09:10:06Z</time>
      </trkpt>
      <trkpt lat="46.64722" lon="3.82946">
        <ele>363.8</ele>
        <time>2018-03-25T09:10:07Z</time>
      </trkpt>
      <trkpt lat="46.6472" lon="3.82939">
        <ele>363.7</ele>
        <time>2018-03-25T09:10:08Z</time>
      </trkpt>
      <trkpt lat="46.64719" lon="3.8293">
        <ele>362.9</ele>
        <time>2018-03-25T09:10:09Z</time>
      </trkpt>
      <trkpt lat="46.64719" lon="3.82921">
        <ele>362.2</ele>
        <time>2018-03-25T09:10:10Z</time>
      </trkpt>
      <trkpt lat="46.64719" lon="3.82912">
        <ele>361.9</ele>
        <time>2018-03-25T09:10:11Z</time>
      </trkpt>
      <trkpt lat="46.64721" lon="3.82902">
        <ele>361.7</ele>
        <time>2018-03-25T09:10:12Z</time>
      </trkpt>
      <trkpt lat="46.64723" lon="3.82893">
        <ele>361.2</ele>
        <time>2018-03-25T09:10:13Z</time>
      </trkpt>
      <trkpt lat="46.64725" lon="3.82884">
        <ele>360.8</ele>
        <time>2018-03-25T09:10:14Z</time>
      </trkpt>
      <trkpt lat="46.64727" lon="3.82875">
        <ele>360.6</ele>
        <time>2018-03-25T09:10:15Z</time>
      </trkpt>
      <trkpt lat="46.6473" lon="3.82867">
        <ele>360.2</ele>
        <time>2018-03-25T09:10:16Z</time>
      </trkpt>
      <trkpt lat="46.64733" lon="3.8286">
        <ele>359.9</ele>
        <time>2018-03-25T09:10:17Z</time>
      </trkpt>
      <trkpt lat="46.64737" lon="3.82854">
        <ele>359.3</ele>
        <time>2018-03-25T09:10:18Z</time>
      </trkpt>
      <trkpt lat="46.6474" lon="3.82848">
        <ele>358.8</ele>
        <time>2018-03-25T09:10:19Z</time>
      </trkpt>
      <trkpt lat="46.64744" lon="3.82842">
        <ele>358.5</ele>
        <time>2018-03-25T09:10:20Z</time>
      </trkpt>
      <trkpt lat="46.64748" lon="3.82837">
        <ele>358.5</ele>
        <time>2018-03-25T09:10:21Z</time>
      </trkpt>
      <trkpt lat="46.64752" lon="3.82832">
        <ele>358.5</ele>
        <time>2018-03-25T09:10:22Z</time>
      </trkpt>
      <trkpt lat="46.64756" lon="3.82827">
        <ele>358.7</ele>
        <time>2018-03-25T09:10:23Z</time>
      </trkpt>
      <trkpt lat="46.6476" lon="3.82823">
        <ele>358.8</ele>
        <time>2018-03-25T09:10:24Z</time>
      </trkpt>
      <trkpt lat="46.64764" lon="3.82819">
        <ele>358.7</ele>
        <time>2018-03-25T09:10:25Z</time>
      </trkpt>
      <trkpt lat="46.64768" lon="3.82814">
        <ele>358.7</ele>
        <time>2018-03-25T09:10:26Z</time>
      </trkpt>
      <trkpt lat="46.64772" lon="3.8281">
        <ele>358.6</ele>
        <time>2018-03-25T09:10:27Z</time>
      </trkpt>
      <trkpt lat="46.64776" lon="3.82806">
        <ele>358.8</ele>
        <time>2018-03-25T09:10:28Z</time>
      </trkpt>
      <trkpt lat="46.64779" lon="3.82802">
        <ele>358.9</ele>
        <time>2018-03-25T09:10:29Z</time>
      </trkpt>
      <trkpt lat="46.64783" lon="3.82798">
        <ele>359.5</ele>
        <time>2018-03-25T09:10:30Z</time>
      </trkpt>
      <trkpt lat="46.6479" lon="3.8279">
        <ele>360.2</ele>
        <time>2018-03-25T09:10:32Z</time>
      </trkpt>
      <trkpt lat="46.64797" lon="3.82782">
        <ele>360.5</ele>
        <time>2018-03-25T09:10:34Z</time>
      </trkpt>
      <trkpt lat="46.648" lon="3.82777">
        <ele>359.6</ele>
        <time>2018-03-25T09:10:35Z</time>
      </trkpt>
      <trkpt lat="46.64807" lon="3.82769">
        <ele>359.1</ele>
        <time>2018-03-25T09:10:37Z</time>
      </trkpt>
      <trkpt lat="46.64811" lon="3.82764">
        <ele>359.3</ele>
        <time>2018-03-25T09:10:38Z</time>
      </trkpt>
      <trkpt lat="46.64814" lon="3.8276">
        <ele>359.4</ele>
        <time>2018-03-25T09:10:39Z</time>
      </trkpt>
      <trkpt lat="46.64818" lon="3.82755">
        <ele>359.3</ele>
        <time>2018-03-25T09:10:40Z</time>
      </trkpt>
      <trkpt lat="46.64822" lon="3.82751">
        <ele>359.3</ele>
        <time>2018-03-25T09:10:41Z</time>
      </trkpt>
      <trkpt lat="46.64825" lon="3.82746">
        <ele>359.3</ele>
        <time>2018-03-25T09:10:42Z</time>
      </trkpt>
      <trkpt lat="46.64829" lon="3.82742">
        <ele>359.4</ele>
        <time>2018-03-25T09:10:43Z</time>
      </trkpt>
      <trkpt lat="46.64833" lon="3.82737">
        <ele>359.8</ele>
        <time>2018-03-25T09:10:44Z</time>
      </trkpt>
      <trkpt lat="46.64837" lon="3.82732">
        <ele>360.1</ele>
        <time>2018-03-25T09:10:45Z</time>
      </trkpt>
      <trkpt lat="46.6484" lon="3.82728">
        <ele>360.3</ele>
        <time>2018-03-25T09:10:46Z</time>
      </trkpt>
      <trkpt lat="46.64844" lon="3.82723">
        <ele>359.9</ele>
        <time>2018-03-25T09:10:47Z</time>
      </trkpt>
      <trkpt lat="46.64848" lon="3.82718">
        <ele>359.6</ele>
        <time>2018-03-25T09:10:48Z</time>
      </trkpt>
      <trkpt lat="46.64851" lon="3.82713">
        <ele>359.1</ele>
        <time>2018-03-25T09:10:49Z</time>
      </trkpt>
      <trkpt lat="46.64855" lon="3.82707">
        <ele>358.8</ele>
        <time>2018-03-25T09:10:50Z</time>
      </trkpt>
      <trkpt lat="46.64858" lon="3.82701">
        <ele>358.9</ele>
        <time>2018-03-25T09:10:51Z</time>
      </trkpt>
      <trkpt lat="46.6486" lon="3.82695">
        <ele>359</ele>
        <time>2018-03-25T09:10:52Z</time>
      </trkpt>
      <trkpt lat="46.64863" lon="3.82688">
        <ele>359</ele>
        <time>2018-03-25T09:10:53Z</time>
      </trkpt>
      <trkpt lat="46.64865" lon="3.82682">
        <ele>358.5</ele>
        <time>2018-03-25T09:10:54Z</time>
      </trkpt>
      <trkpt lat="46.64866" lon="3.82674">
        <ele>358.2</ele>
        <time>2018-03-25T09:10:55Z</time>
      </trkpt>
      <trkpt lat="46.64868" lon="3.82667">
        <ele>357.8</ele>
        <time>2018-03-25T09:10:56Z</time>
      </trkpt>
      <trkpt lat="46.64869" lon="3.82659">
        <ele>357.6</ele>
        <time>2018-03-25T09:10:57Z</time>
      </trkpt>
      <trkpt lat="46.64871" lon="3.82652">
        <ele>357.4</ele>
        <time>2018-03-25T09:10:58Z</time>
      </trkpt>
      <trkpt lat="46.64873" lon="3.82645">
        <ele>357.4</ele>
        <time>2018-03-25T09:10:59Z</time>
      </trkpt>
      <trkpt lat="46.64875" lon="3.82638">
        <ele>357.4</ele>
        <time>2018-03-25T09:11:00Z</time>
      </trkpt>
      <trkpt lat="46.64876" lon="3.8263">
        <ele>357.4</ele>
        <time>2018-03-25T09:11:01Z</time>
      </trkpt>
      <trkpt lat="46.64878" lon="3.82622">
        <ele>357.4</ele>
        <time>2018-03-25T09:11:02Z</time>
      </trkpt>
      <trkpt lat="46.6488" lon="3.82614">
        <ele>357.2</ele>
        <time>2018-03-25T09:11:03Z</time>
      </trkpt>
      <trkpt lat="46.64882" lon="3.82607">
        <ele>357.1</ele>
        <time>2018-03-25T09:11:04Z</time>
      </trkpt>
      <trkpt lat="46.64884" lon="3.826">
        <ele>357</ele>
        <time>2018-03-25T09:11:05Z</time>
      </trkpt>
      <trkpt lat="46.64886" lon="3.82593">
        <ele>356.6</ele>
        <time>2018-03-25T09:11:06Z</time>
      </trkpt>
      <trkpt lat="46.64888" lon="3.82585">
        <ele>356.4</ele>
        <time>2018-03-25T09:11:07Z</time>
      </trkpt>
      <trkpt lat="46.6489" lon="3.82576">
        <ele>356.5</ele>
        <time>2018-03-25T09:11:08Z</time>
      </trkpt>
      <trkpt lat="46.64892" lon="3.82568">
        <ele>356.6</ele>
        <time>2018-03-25T09:11:09Z</time>
      </trkpt>
      <trkpt lat="46.64894" lon="3.82559">
        <ele>356.3</ele>
        <time>2018-03-25T09:11:10Z</time>
      </trkpt>
      <trkpt lat="46.64897" lon="3.82551">
        <ele>356</ele>
        <time>2018-03-25T09:11:11Z</time>
      </trkpt>
      <trkpt lat="46.649" lon="3.82542">
        <ele>355.8</ele>
        <time>2018-03-25T09:11:12Z</time>
      </trkpt>
      <trkpt lat="46.64903" lon="3.82533">
        <ele>356</ele>
        <time>2018-03-25T09:11:13Z</time>
      </trkpt>
      <trkpt lat="46.64907" lon="3.82524">
        <ele>356.2</ele>
        <time>2018-03-25T09:11:14Z</time>
      </trkpt>
      <trkpt lat="46.6491" lon="3.82515">
        <ele>355.4</ele>
        <time>2018-03-25T09:11:15Z</time>
      </trkpt>
      <trkpt lat="46.64913" lon="3.82506">
        <ele>354.8</ele>
        <time>2018-03-25T09:11:16Z</time>
      </trkpt>
      <trkpt lat="46.64917" lon="3.82497">
        <ele>354.4</ele>
        <time>2018-03-25T09:11:17Z</time>
      </trkpt>
      <trkpt lat="46.6492" lon="3.82488">
        <ele>354</ele>
        <time>2018-03-25T09:11:18Z</time>
      </trkpt>
      <trkpt lat="46.64924" lon="3.82479">
        <ele>353.7</ele>
        <time>2018-03-25T09:11:19Z</time>
      </trkpt>
      <trkpt lat="46.64928" lon="3.8247">
        <ele>353.8</ele>
        <time>2018-03-25T09:11:20Z</time>
      </trkpt>
      <trkpt lat="46.64931" lon="3.82461">
        <ele>354</ele>
        <time>2018-03-25T09:11:21Z</time>
      </trkpt>
      <trkpt lat="46.64935" lon="3.82453">
        <ele>353.6</ele>
        <time>2018-03-25T09:11:22Z</time>
      </trkpt>
      <trkpt lat="46.64938" lon="3.82444">
        <ele>353.3</ele>
        <time>2018-03-25T09:11:23Z</time>
      </trkpt>
      <trkpt lat="46.64942" lon="3.82436">
        <ele>353.1</ele>
        <time>2018-03-25T09:11:24Z</time>
      </trkpt>
      <trkpt lat="46.64946" lon="3.82428">
        <ele>353</ele>
        <time>2018-03-25T09:11:25Z</time>
      </trkpt>
      <trkpt lat="46.64949" lon="3.8242">
        <ele>353</ele>
        <time>2018-03-25T09:11:26Z</time>
      </trkpt>
      <trkpt lat="46.64953" lon="3.82413">
        <ele>352.5</ele>
        <time>2018-03-25T09:11:27Z</time>
      </trkpt>
      <trkpt lat="46.64958" lon="3.82406">
        <ele>352.2</ele>
        <time>2018-03-25T09:11:28Z</time>
      </trkpt>
      <trkpt lat="46.64963" lon="3.824">
        <ele>352.5</ele>
        <time>2018-03-25T09:11:29Z</time>
      </trkpt>
      <trkpt lat="46.64967" lon="3.82394">
        <ele>352.7</ele>
        <time>2018-03-25T09:11:30Z</time>
      </trkpt>
      <trkpt lat="46.64972" lon="3.82389">
        <ele>352.8</ele>
        <time>2018-03-25T09:11:31Z</time>
      </trkpt>
      <trkpt lat="46.64976" lon="3.82382">
        <ele>352.5</ele>
        <time>2018-03-25T09:11:32Z</time>
      </trkpt>
      <trkpt lat="46.6498" lon="3.82376">
        <ele>352.2</ele>
        <time>2018-03-25T09:11:33Z</time>
      </trkpt>
      <trkpt lat="46.64982" lon="3.82368">
        <ele>351.5</ele>
        <time>2018-03-25T09:11:34Z</time>
      </trkpt>
      <trkpt lat="46.64983" lon="3.8236">
        <ele>351</ele>
        <time>2018-03-25T09:11:35Z</time>
      </trkpt>
      <trkpt lat="46.64983" lon="3.82351">
        <ele>350.8</ele>
        <time>2018-03-25T09:11:36Z</time>
      </trkpt>
      <trkpt lat="46.64981" lon="3.82344">
        <ele>350.7</ele>
        <time>2018-03-25T09:11:37Z</time>
      </trkpt>
      <trkpt lat="46.64978" lon="3.82336">
        <ele>350.6</ele>
        <time>2018-03-25T09:11:38Z</time>
      </trkpt>
      <trkpt lat="46.64975" lon="3.82329">
        <ele>350.4</ele>
        <time>2018-03-25T09:11:39Z</time>
      </trkpt>
      <trkpt lat="46.64972" lon="3.82323">
        <ele>350.3</ele>
        <time>2018-03-25T09:11:40Z</time>
      </trkpt>
      <trkpt lat="46.64969" lon="3.82316">
        <ele>350</ele>
        <time>2018-03-25T09:11:41Z</time>
      </trkpt>
      <trkpt lat="46.64965" lon="3.82309">
        <ele>349.8</ele>
        <time>2018-03-25T09:11:42Z</time>
      </trkpt>
      <trkpt lat="46.64962" lon="3.82302">
        <ele>349.6</ele>
        <time>2018-03-25T09:11:43Z</time>
      </trkpt>
      <trkpt lat="46.64959" lon="3.82296">
        <ele>349.3</ele>
        <time>2018-03-25T09:11:44Z</time>
      </trkpt>
      <trkpt lat="46.64957" lon="3.82289">
        <ele>349.1</ele>
        <time>2018-03-25T09:11:45Z</time>
      </trkpt>
      <trkpt lat="46.64955" lon="3.82281">
        <ele>349.1</ele>
        <time>2018-03-25T09:11:46Z</time>
      </trkpt>
      <trkpt lat="46.64953" lon="3.82273">
        <ele>349.1</ele>
        <time>2018-03-25T09:11:47Z</time>
      </trkpt>
      <trkpt lat="46.64953" lon="3.82265">
        <ele>349.2</ele>
        <time>2018-03-25T09:11:48Z</time>
      </trkpt>
      <trkpt lat="46.64953" lon="3.82257">
        <ele>349.2</ele>
        <time>2018-03-25T09:11:49Z</time>
      </trkpt>
      <trkpt lat="46.64954" lon="3.82249">
        <ele>349.3</ele>
        <time>2018-03-25T09:11:50Z</time>
      </trkpt>
      <trkpt lat="46.64955" lon="3.82241">
        <ele>349.2</ele>
        <time>2018-03-25T09:11:51Z</time>
      </trkpt>
      <trkpt lat="46.64956" lon="3.82233">
        <ele>349.2</ele>
        <time>2018-03-25T09:11:52Z</time>
      </trkpt>
      <trkpt lat="46.64957" lon="3.82224">
        <ele>348.9</ele>
        <time>2018-03-25T09:11:53Z</time>
      </trkpt>
      <trkpt lat="46.64958" lon="3.82216">
        <ele>348.7</ele>
        <time>2018-03-25T09:11:54Z</time>
      </trkpt>
      <trkpt lat="46.64959" lon="3.82207">
        <ele>348.5</ele>
        <time>2018-03-25T09:11:55Z</time>
      </trkpt>
      <trkpt lat="46.64961" lon="3.82197">
        <ele>348</ele>
        <time>2018-03-25T09:11:56Z</time>
      </trkpt>
      <trkpt lat="46.64963" lon="3.82187">
        <ele>347.7</ele>
        <time>2018-03-25T09:11:57Z</time>
      </trkpt>
      <trkpt lat="46.64964" lon="3.82176">
        <ele>347.4</ele>
        <time>2018-03-25T09:11:58Z</time>
      </trkpt>
      <trkpt lat="46.64967" lon="3.82166">
        <ele>347.2</ele>
        <time>2018-03-25T09:11:59Z</time>
      </trkpt>
      <trkpt lat="46.64969" lon="3.82155">
        <ele>347.2</ele>
        <time>2018-03-25T09:12:00Z</time>
      </trkpt>
      <trkpt lat="46.64971" lon="3.82144">
        <ele>347.1</ele>
        <time>2018-03-25T09:12:01Z</time>
      </trkpt>
      <trkpt lat="46.64974" lon="3.82133">
        <ele>347.1</ele>
        <time>2018-03-25T09:12:02Z</time>
      </trkpt>
      <trkpt lat="46.64977" lon="3.82121">
        <ele>345.9</ele>
        <time>2018-03-25T09:12:03Z</time>
      </trkpt>
      <trkpt lat="46.6498" lon="3.82109">
        <ele>345</ele>
        <time>2018-03-25T09:12:04Z</time>
      </trkpt>
      <trkpt lat="46.64983" lon="3.82097">
        <ele>344.4</ele>
        <time>2018-03-25T09:12:05Z</time>
      </trkpt>
      <trkpt lat="46.64986" lon="3.82085">
        <ele>343.8</ele>
        <time>2018-03-25T09:12:06Z</time>
      </trkpt>
      <trkpt lat="46.6499" lon="3.82073">
        <ele>342.7</ele>
        <time>2018-03-25T09:12:07Z</time>
      </trkpt>
      <trkpt lat="46.64993" lon="3.8206">
        <ele>341.9</ele>
        <time>2018-03-25T09:12:08Z</time>
      </trkpt>
      <trkpt lat="46.64996" lon="3.82048">
        <ele>341.3</ele>
        <time>2018-03-25T09:12:09Z</time>
      </trkpt>
      <trkpt lat="46.64999" lon="3.82035">
        <ele>340.8</ele>
        <time>2018-03-25T09:12:10Z</time>
      </trkpt>
      <trkpt lat="46.65002" lon="3.82022">
        <ele>340.5</ele>
        <time>2018-03-25T09:12:11Z</time>
      </trkpt>
      <trkpt lat="46.65004" lon="3.82009">
        <ele>340.1</ele>
        <time>2018-03-25T09:12:12Z</time>
      </trkpt>
      <trkpt lat="46.65006" lon="3.81996">
        <ele>339.9</ele>
        <time>2018-03-25T09:12:13Z</time>
      </trkpt>
      <trkpt lat="46.65009" lon="3.81984">
        <ele>339.7</ele>
        <time>2018-03-25T09:12:14Z</time>
      </trkpt>
      <trkpt lat="46.65011" lon="3.81971">
        <ele>339.2</ele>
        <time>2018-03-25T09:12:15Z</time>
      </trkpt>
      <trkpt lat="46.65014" lon="3.81959">
        <ele>338.9</ele>
        <time>2018-03-25T09:12:16Z</time>
      </trkpt>
      <trkpt lat="46.65017" lon="3.81948">
        <ele>338.5</ele>
        <time>2018-03-25T09:12:17Z</time>
      </trkpt>
      <trkpt lat="46.65019" lon="3.81936">
        <ele>338.2</ele>
        <time>2018-03-25T09:12:18Z</time>
      </trkpt>
      <trkpt lat="46.65022" lon="3.81925">
        <ele>337.7</ele>
        <time>2018-03-25T09:12:19Z</time>
      </trkpt>
      <trkpt lat="46.65025" lon="3.81915">
        <ele>337.4</ele>
        <time>2018-03-25T09:12:20Z</time>
      </trkpt>
      <trkpt lat="46.65028" lon="3.81904">
        <ele>337.1</ele>
        <time>2018-03-25T09:12:21Z</time>
      </trkpt>
      <trkpt lat="46.65031" lon="3.81894">
        <ele>336.6</ele>
        <time>2018-03-25T09:12:22Z</time>
      </trkpt>
      <trkpt lat="46.65033" lon="3.81884">
        <ele>336.2</ele>
        <time>2018-03-25T09:12:23Z</time>
      </trkpt>
      <trkpt lat="46.65036" lon="3.81874">
        <ele>336</ele>
        <time>2018-03-25T09:12:24Z</time>
      </trkpt>
      <trkpt lat="46.65039" lon="3.81864">
        <ele>335.9</ele>
        <time>2018-03-25T09:12:25Z</time>
      </trkpt>
      <trkpt lat="46.65042" lon="3.81855">
        <ele>335.5</ele>
        <time>2018-03-25T09:12:26Z</time>
      </trkpt>
      <trkpt lat="46.65045" lon="3.81846">
        <ele>335.2</ele>
        <time>2018-03-25T09:12:27Z</time>
      </trkpt>
      <trkpt lat="46.65048" lon="3.81836">
        <ele>335</ele>
        <time>2018-03-25T09:12:28Z</time>
      </trkpt>
      <trkpt lat="46.65051" lon="3.81827">
        <ele>334.8</ele>
        <time>2018-03-25T09:12:29Z</time>
      </trkpt>
      <trkpt lat="46.65055" lon="3.81818">
        <ele>334.7</ele>
        <time>2018-03-25T09:12:30Z</time>
      </trkpt>
      <trkpt lat="46.65058" lon="3.81809">
        <ele>334.6</ele>
        <time>2018-03-25T09:12:31Z</time>
      </trkpt>
      <trkpt lat="46.65062" lon="3.81801">
        <ele>334.5</ele>
        <time>2018-03-25T09:12:32Z</time>
      </trkpt>
      <trkpt lat="46.65065" lon="3.81793">
        <ele>334.5</ele>
        <time>2018-03-25T09:12:33Z</time>
      </trkpt>
      <trkpt lat="46.65069" lon="3.81785">
        <ele>334.3</ele>
        <time>2018-03-25T09:12:34Z</time>
      </trkpt>
      <trkpt lat="46.65072" lon="3.81776">
        <ele>334.2</ele>
        <time>2018-03-25T09:12:35Z</time>
      </trkpt>
      <trkpt lat="46.65075" lon="3.81768">
        <ele>333.8</ele>
        <time>2018-03-25T09:12:36Z</time>
      </trkpt>
      <trkpt lat="46.65078" lon="3.81759">
        <ele>333.5</ele>
        <time>2018-03-25T09:12:37Z</time>
      </trkpt>
      <trkpt lat="46.65081" lon="3.81751">
        <ele>333.4</ele>
        <time>2018-03-25T09:12:38Z</time>
      </trkpt>
      <trkpt lat="46.65083" lon="3.81743">
        <ele>333.4</ele>
        <time>2018-03-25T09:12:39Z</time>
      </trkpt>
      <trkpt lat="46.65086" lon="3.81735">
        <ele>333.3</ele>
        <time>2018-03-25T09:12:40Z</time>
      </trkpt>
      <trkpt lat="46.65089" lon="3.81727">
        <ele>333.5</ele>
        <time>2018-03-25T09:12:41Z</time>
      </trkpt>
      <trkpt lat="46.65091" lon="3.8172">
        <ele>333.7</ele>
        <time>2018-03-25T09:12:42Z</time>
      </trkpt>
      <trkpt lat="46.65094" lon="3.81712">
        <ele>333.9</ele>
        <time>2018-03-25T09:12:43Z</time>
      </trkpt>
      <trkpt lat="46.65097" lon="3.81704">
        <ele>334.1</ele>
        <time>2018-03-25T09:12:44Z</time>
      </trkpt>
      <trkpt lat="46.65099" lon="3.81696">
        <ele>334</ele>
        <time>2018-03-25T09:12:45Z</time>
      </trkpt>
      <trkpt lat="46.65101" lon="3.81688">
        <ele>334</ele>
        <time>2018-03-25T09:12:46Z</time>
      </trkpt>
      <trkpt lat="46.65103" lon="3.8168">
        <ele>333.9</ele>
        <time>2018-03-25T09:12:47Z</time>
      </trkpt>
      <trkpt lat="46.65104" lon="3.81672">
        <ele>333.4</ele>
        <time>2018-03-25T09:12:48Z</time>
      </trkpt>
      <trkpt lat="46.65105" lon="3.81665">
        <ele>333</ele>
        <time>2018-03-25T09:12:49Z</time>
      </trkpt>
      <trkpt lat="46.65105" lon="3.81656">
        <ele>333</ele>
        <time>2018-03-25T09:12:50Z</time>
      </trkpt>
      <trkpt lat="46.65105" lon="3.81649">
        <ele>332.9</ele>
        <time>2018-03-25T09:12:51Z</time>
      </trkpt>
      <trkpt lat="46.65105" lon="3.81641">
        <ele>333</ele>
        <time>2018-03-25T09:12:52Z</time>
      </trkpt>
      <trkpt lat="46.65106" lon="3.81634">
        <ele>333.1</ele>
        <time>2018-03-25T09:12:53Z</time>
      </trkpt>
      <trkpt lat="46.65107" lon="3.81627">
        <ele>333.1</ele>
        <time>2018-03-25T09:12:54Z</time>
      </trkpt>
      <trkpt lat="46.65109" lon="3.8162">
        <ele>333.6</ele>
        <time>2018-03-25T09:12:55Z</time>
      </trkpt>
      <trkpt lat="46.65111" lon="3.81614">
        <ele>333.9</ele>
        <time>2018-03-25T09:12:56Z</time>
      </trkpt>
      <trkpt lat="46.65116" lon="3.81603">
        <ele>334.1</ele>
        <time>2018-03-25T09:12:58Z</time>
      </trkpt>
      <trkpt lat="46.65122" lon="3.81595">
        <ele>334.5</ele>
        <time>2018-03-25T09:13:00Z</time>
      </trkpt>
      <trkpt lat="46.65129" lon="3.81587">
        <ele>335.4</ele>
        <time>2018-03-25T09:13:02Z</time>
      </trkpt>
      <trkpt lat="46.65137" lon="3.81581">
        <ele>335.7</ele>
        <time>2018-03-25T09:13:04Z</time>
      </trkpt>
      <trkpt lat="46.65145" lon="3.81576">
        <ele>335.8</ele>
        <time>2018-03-25T09:13:06Z</time>
      </trkpt>
      <trkpt lat="46.65149" lon="3.81574">
        <ele>335.7</ele>
        <time>2018-03-25T09:13:07Z</time>
      </trkpt>
      <trkpt lat="46.65153" lon="3.81571">
        <ele>335.7</ele>
        <time>2018-03-25T09:13:08Z</time>
      </trkpt>
      <trkpt lat="46.65158" lon="3.81569">
        <ele>335.9</ele>
        <time>2018-03-25T09:13:09Z</time>
      </trkpt>
      <trkpt lat="46.65162" lon="3.81567">
        <ele>336.1</ele>
        <time>2018-03-25T09:13:10Z</time>
      </trkpt>
      <trkpt lat="46.65166" lon="3.81565">
        <ele>336.5</ele>
        <time>2018-03-25T09:13:11Z</time>
      </trkpt>
      <trkpt lat="46.6517" lon="3.81562">
        <ele>336.7</ele>
        <time>2018-03-25T09:13:12Z</time>
      </trkpt>
      <trkpt lat="46.65174" lon="3.81558">
        <ele>337</ele>
        <time>2018-03-25T09:13:13Z</time>
      </trkpt>
      <trkpt lat="46.65182" lon="3.8155">
        <ele>337.3</ele>
        <time>2018-03-25T09:13:15Z</time>
      </trkpt>
      <trkpt lat="46.65189" lon="3.81543">
        <ele>337</ele>
        <time>2018-03-25T09:13:17Z</time>
      </trkpt>
      <trkpt lat="46.65196" lon="3.81536">
        <ele>336.8</ele>
        <time>2018-03-25T09:13:19Z</time>
      </trkpt>
      <trkpt lat="46.65203" lon="3.8153">
        <ele>336.1</ele>
        <time>2018-03-25T09:13:21Z</time>
      </trkpt>
      <trkpt lat="46.65211" lon="3.81524">
        <ele>335.9</ele>
        <time>2018-03-25T09:13:23Z</time>
      </trkpt>
      <trkpt lat="46.65219" lon="3.8152">
        <ele>336.2</ele>
        <time>2018-03-25T09:13:25Z</time>
      </trkpt>
      <trkpt lat="46.65228" lon="3.81517">
        <ele>336.8</ele>
        <time>2018-03-25T09:13:27Z</time>
      </trkpt>
      <trkpt lat="46.65236" lon="3.81515">
        <ele>336.7</ele>
        <time>2018-03-25T09:13:29Z</time>
      </trkpt>
      <trkpt lat="46.65241" lon="3.81513">
        <ele>336.7</ele>
        <time>2018-03-25T09:13:30Z</time>
      </trkpt>
      <trkpt lat="46.65248" lon="3.81506">
        <ele>336.6</ele>
        <time>2018-03-25T09:13:32Z</time>
      </trkpt>
      <trkpt lat="46.65252" lon="3.81501">
        <ele>336.7</ele>
        <time>2018-03-25T09:13:33Z</time>
      </trkpt>
      <trkpt lat="46.65256" lon="3.81491">
        <ele>337.3</ele>
        <time>2018-03-25T09:13:35Z</time>
      </trkpt>
      <trkpt lat="46.6526" lon="3.81479">
        <ele>338</ele>
        <time>2018-03-25T09:13:37Z</time>
      </trkpt>
      <trkpt lat="46.65264" lon="3.81468">
        <ele>337.3</ele>
        <time>2018-03-25T09:13:39Z</time>
      </trkpt>
      <trkpt lat="46.65265" lon="3.81462">
        <ele>337.4</ele>
        <time>2018-03-25T09:13:40Z</time>
      </trkpt>
      <trkpt lat="46.65269" lon="3.8145">
        <ele>337.2</ele>
        <time>2018-03-25T09:13:42Z</time>
      </trkpt>
      <trkpt lat="46.65273" lon="3.81438">
        <ele>336.7</ele>
        <time>2018-03-25T09:13:44Z</time>
      </trkpt>
      <trkpt lat="46.65275" lon="3.81432">
        <ele>336.6</ele>
        <time>2018-03-25T09:13:45Z</time>
      </trkpt>
      <trkpt lat="46.65278" lon="3.81427">
        <ele>336.5</ele>
        <time>2018-03-25T09:13:46Z</time>
      </trkpt>
      <trkpt lat="46.65281" lon="3.81421">
        <ele>335.9</ele>
        <time>2018-03-25T09:13:47Z</time>
      </trkpt>
      <trkpt lat="46.65285" lon="3.81414">
        <ele>335.6</ele>
        <time>2018-03-25T09:13:48Z</time>
      </trkpt>
      <trkpt lat="46.65288" lon="3.81405">
        <ele>335.3</ele>
        <time>2018-03-25T09:13:49Z</time>
      </trkpt>
      <trkpt lat="46.65291" lon="3.81395">
        <ele>335.5</ele>
        <time>2018-03-25T09:13:50Z</time>
      </trkpt>
      <trkpt lat="46.65294" lon="3.81384">
        <ele>335.6</ele>
        <time>2018-03-25T09:13:51Z</time>
      </trkpt>
      <trkpt lat="46.65298" lon="3.81374">
        <ele>335.3</ele>
        <time>2018-03-25T09:13:52Z</time>
      </trkpt>
      <trkpt lat="46.65303" lon="3.81365">
        <ele>335</ele>
        <time>2018-03-25T09:13:53Z</time>
      </trkpt>
      <trkpt lat="46.65307" lon="3.81355">
        <ele>334.9</ele>
        <time>2018-03-25T09:13:54Z</time>
      </trkpt>
      <trkpt lat="46.65312" lon="3.81345">
        <ele>334.8</ele>
        <time>2018-03-25T09:13:55Z</time>
      </trkpt>
      <trkpt lat="46.65317" lon="3.81334">
        <ele>334.8</ele>
        <time>2018-03-25T09:13:56Z</time>
      </trkpt>
      <trkpt lat="46.65322" lon="3.81324">
        <ele>334.2</ele>
        <time>2018-03-25T09:13:57Z</time>
      </trkpt>
      <trkpt lat="46.65329" lon="3.81315">
        <ele>333.9</ele>
        <time>2018-03-25T09:13:58Z</time>
      </trkpt>
      <trkpt lat="46.65337" lon="3.81309">
        <ele>332.8</ele>
        <time>2018-03-25T09:13:59Z</time>
      </trkpt>
      <trkpt lat="46.65346" lon="3.81306">
        <ele>331.9</ele>
        <time>2018-03-25T09:14:00Z</time>
      </trkpt>
      <trkpt lat="46.65354" lon="3.81305">
        <ele>331</ele>
        <time>2018-03-25T09:14:01Z</time>
      </trkpt>
      <trkpt lat="46.65363" lon="3.81304">
        <ele>330.4</ele>
        <time>2018-03-25T09:14:02Z</time>
      </trkpt>
      <trkpt lat="46.65372" lon="3.81303">
        <ele>329.9</ele>
        <time>2018-03-25T09:14:03Z</time>
      </trkpt>
      <trkpt lat="46.6538" lon="3.81302">
        <ele>329.3</ele>
        <time>2018-03-25T09:14:04Z</time>
      </trkpt>
      <trkpt lat="46.65389" lon="3.81301">
        <ele>328.9</ele>
        <time>2018-03-25T09:14:05Z</time>
      </trkpt>
      <trkpt lat="46.65397" lon="3.81298">
        <ele>328.4</ele>
        <time>2018-03-25T09:14:06Z</time>
      </trkpt>
      <trkpt lat="46.65406" lon="3.81295">
        <ele>328.1</ele>
        <time>2018-03-25T09:14:07Z</time>
      </trkpt>
      <trkpt lat="46.65415" lon="3.81292">
        <ele>327.4</ele>
        <time>2018-03-25T09:14:08Z</time>
      </trkpt>
      <trkpt lat="46.65424" lon="3.81288">
        <ele>326.9</ele>
        <time>2018-03-25T09:14:09Z</time>
      </trkpt>
      <trkpt lat="46.65433" lon="3.81284">
        <ele>326.5</ele>
        <time>2018-03-25T09:14:10Z</time>
      </trkpt>
      <trkpt lat="46.65442" lon="3.8128">
        <ele>325.9</ele>
        <time>2018-03-25T09:14:11Z</time>
      </trkpt>
      <trkpt lat="46.6545" lon="3.81276">
        <ele>325.4</ele>
        <time>2018-03-25T09:14:12Z</time>
      </trkpt>
      <trkpt lat="46.65459" lon="3.81271">
        <ele>324.7</ele>
        <time>2018-03-25T09:14:13Z</time>
      </trkpt>
      <trkpt lat="46.65467" lon="3.81264">
        <ele>324.1</ele>
        <time>2018-03-25T09:14:14Z</time>
      </trkpt>
      <trkpt lat="46.65474" lon="3.81256">
        <ele>323.7</ele>
        <time>2018-03-25T09:14:15Z</time>
      </trkpt>
      <trkpt lat="46.6548" lon="3.81246">
        <ele>323.8</ele>
        <time>2018-03-25T09:14:16Z</time>
      </trkpt>
      <trkpt lat="46.65486" lon="3.81236">
        <ele>323.8</ele>
        <time>2018-03-25T09:14:17Z</time>
      </trkpt>
      <trkpt lat="46.65492" lon="3.81225">
        <ele>323.2</ele>
        <time>2018-03-25T09:14:18Z</time>
      </trkpt>
      <trkpt lat="46.65497" lon="3.81213">
        <ele>322.8</ele>
        <time>2018-03-25T09:14:19Z</time>
      </trkpt>
      <trkpt lat="46.65502" lon="3.81202">
        <ele>321.9</ele>
        <time>2018-03-25T09:14:20Z</time>
      </trkpt>
      <trkpt lat="46.65505" lon="3.8119">
        <ele>321.3</ele>
        <time>2018-03-25T09:14:21Z</time>
      </trkpt>
      <trkpt lat="46.6551" lon="3.81178">
        <ele>320.8</ele>
        <time>2018-03-25T09:14:22Z</time>
      </trkpt>
      <trkpt lat="46.65515" lon="3.81167">
        <ele>320.4</ele>
        <time>2018-03-25T09:14:23Z</time>
      </trkpt>
      <trkpt lat="46.65521" lon="3.81157">
        <ele>320.1</ele>
        <time>2018-03-25T09:14:24Z</time>
      </trkpt>
      <trkpt lat="46.65527" lon="3.81148">
        <ele>319.6</ele>
        <time>2018-03-25T09:14:25Z</time>
      </trkpt>
      <trkpt lat="46.65533" lon="3.81139">
        <ele>319.2</ele>
        <time>2018-03-25T09:14:26Z</time>
      </trkpt>
      <trkpt lat="46.65539" lon="3.8113">
        <ele>318.3</ele>
        <time>2018-03-25T09:14:27Z</time>
      </trkpt>
      <trkpt lat="46.65545" lon="3.8112">
        <ele>317.6</ele>
        <time>2018-03-25T09:14:28Z</time>
      </trkpt>
      <trkpt lat="46.65551" lon="3.81108">
        <ele>317.1</ele>
        <time>2018-03-25T09:14:29Z</time>
      </trkpt>
      <trkpt lat="46.65556" lon="3.81097">
        <ele>316.5</ele>
        <time>2018-03-25T09:14:30Z</time>
      </trkpt>
      <trkpt lat="46.65561" lon="3.81085">
        <ele>316.1</ele>
        <time>2018-03-25T09:14:31Z</time>
      </trkpt>
      <trkpt lat="46.65566" lon="3.81072">
        <ele>315</ele>
        <time>2018-03-25T09:14:32Z</time>
      </trkpt>
      <trkpt lat="46.65571" lon="3.8106">
        <ele>314.1</ele>
        <time>2018-03-25T09:14:33Z</time>
      </trkpt>
      <trkpt lat="46.65576" lon="3.8105">
        <ele>313.5</ele>
        <time>2018-03-25T09:14:34Z</time>
      </trkpt>
      <trkpt lat="46.65583" lon="3.81038">
        <ele>312.6</ele>
        <time>2018-03-25T09:14:35Z</time>
      </trkpt>
      <trkpt lat="46.65589" lon="3.81025">
        <ele>312</ele>
        <time>2018-03-25T09:14:36Z</time>
      </trkpt>
      <trkpt lat="46.65595" lon="3.81013">
        <ele>311.3</ele>
        <time>2018-03-25T09:14:37Z</time>
      </trkpt>
      <trkpt lat="46.656" lon="3.81001">
        <ele>310.8</ele>
        <time>2018-03-25T09:14:38Z</time>
      </trkpt>
      <trkpt lat="46.65604" lon="3.80989">
        <ele>309.6</ele>
        <time>2018-03-25T09:14:39Z</time>
      </trkpt>
      <trkpt lat="46.65608" lon="3.80977">
        <ele>308.7</ele>
        <time>2018-03-25T09:14:40Z</time>
      </trkpt>
      <trkpt lat="46.65612" lon="3.80964">
        <ele>308.1</ele>
        <time>2018-03-25T09:14:41Z</time>
      </trkpt>
      <trkpt lat="46.65616" lon="3.8095">
        <ele>306.8</ele>
        <time>2018-03-25T09:14:42Z</time>
      </trkpt>
      <trkpt lat="46.65622" lon="3.80938">
        <ele>305.8</ele>
        <time>2018-03-25T09:14:43Z</time>
      </trkpt>
      <trkpt lat="46.65627" lon="3.80925">
        <ele>304.9</ele>
        <time>2018-03-25T09:14:44Z</time>
      </trkpt>
      <trkpt lat="46.65631" lon="3.80911">
        <ele>304.1</ele>
        <time>2018-03-25T09:14:45Z</time>
      </trkpt>
      <trkpt lat="46.65633" lon="3.80897">
        <ele>302.5</ele>
        <time>2018-03-25T09:14:46Z</time>
      </trkpt>
      <trkpt lat="46.65634" lon="3.80881">
        <ele>301.3</ele>
        <time>2018-03-25T09:14:47Z</time>
      </trkpt>
      <trkpt lat="46.65633" lon="3.80866">
        <ele>300.3</ele>
        <time>2018-03-25T09:14:48Z</time>
      </trkpt>
      <trkpt lat="46.65632" lon="3.8085">
        <ele>299.3</ele>
        <time>2018-03-25T09:14:49Z</time>
      </trkpt>
      <trkpt lat="46.6563" lon="3.80834">
        <ele>298.5</ele>
        <time>2018-03-25T09:14:50Z</time>
      </trkpt>
      <trkpt lat="46.65629" lon="3.80818">
        <ele>297.2</ele>
        <time>2018-03-25T09:14:51Z</time>
      </trkpt>
      <trkpt lat="46.65627" lon="3.80802">
        <ele>296.2</ele>
        <time>2018-03-25T09:14:52Z</time>
      </trkpt>
      <trkpt lat="46.65627" lon="3.80787">
        <ele>295.5</ele>
        <time>2018-03-25T09:14:53Z</time>
      </trkpt>
      <trkpt lat="46.65625" lon="3.80773">
        <ele>294.7</ele>
        <time>2018-03-25T09:14:54Z</time>
      </trkpt>
      <trkpt lat="46.65623" lon="3.80762">
        <ele>294</ele>
        <time>2018-03-25T09:14:55Z</time>
      </trkpt>
      <trkpt lat="46.65619" lon="3.80754">
        <ele>292.6</ele>
        <time>2018-03-25T09:14:56Z</time>
      </trkpt>
      <trkpt lat="46.65613" lon="3.80747">
        <ele>291.6</ele>
        <time>2018-03-25T09:14:57Z</time>
      </trkpt>
      <trkpt lat="46.65607" lon="3.80745">
        <ele>290.7</ele>
        <time>2018-03-25T09:14:58Z</time>
      </trkpt>
      <trkpt lat="46.65601" lon="3.80745">
        <ele>290.1</ele>
        <time>2018-03-25T09:14:59Z</time>
      </trkpt>
      <trkpt lat="46.65595" lon="3.80745">
        <ele>289.6</ele>
        <time>2018-03-25T09:15:00Z</time>
      </trkpt>
      <trkpt lat="46.6559" lon="3.80746">
        <ele>288.4</ele>
        <time>2018-03-25T09:15:01Z</time>
      </trkpt>
      <trkpt lat="46.65586" lon="3.80749">
        <ele>287.6</ele>
        <time>2018-03-25T09:15:02Z</time>
      </trkpt>
      <trkpt lat="46.65581" lon="3.8075">
        <ele>286.7</ele>
        <time>2018-03-25T09:15:03Z</time>
      </trkpt>
      <trkpt lat="46.65573" lon="3.80754">
        <ele>286.2</ele>
        <time>2018-03-25T09:15:05Z</time>
      </trkpt>
      <trkpt lat="46.65566" lon="3.80756">
        <ele>286.2</ele>
        <time>2018-03-25T09:15:07Z</time>
      </trkpt>
      <trkpt lat="46.65559" lon="3.80758">
        <ele>286.3</ele>
        <time>2018-03-25T09:15:09Z</time>
      </trkpt>
      <trkpt lat="46.65552" lon="3.80761">
        <ele>285.8</ele>
        <time>2018-03-25T09:15:11Z</time>
      </trkpt>
      <trkpt lat="46.65545" lon="3.80764">
        <ele>286</ele>
        <time>2018-03-25T09:15:13Z</time>
      </trkpt>
      <trkpt lat="46.65538" lon="3.80766">
        <ele>286.5</ele>
        <time>2018-03-25T09:15:15Z</time>
      </trkpt>
      <trkpt lat="46.65531" lon="3.80769">
        <ele>286.5</ele>
        <time>2018-03-25T09:15:17Z</time>
      </trkpt>
      <trkpt lat="46.65525" lon="3.80771">
        <ele>286.3</ele>
        <time>2018-03-25T09:15:19Z</time>
      </trkpt>
      <trkpt lat="46.65516" lon="3.80773">
        <ele>286.9</ele>
        <time>2018-03-25T09:15:22Z</time>
      </trkpt>
      <trkpt lat="46.6551" lon="3.80775">
        <ele>287.2</ele>
        <time>2018-03-25T09:15:24Z</time>
      </trkpt>
      <trkpt lat="46.65503" lon="3.80777">
        <ele>287.6</ele>
        <time>2018-03-25T09:15:26Z</time>
      </trkpt>
      <trkpt lat="46.65497" lon="3.80779">
        <ele>288.5</ele>
        <time>2018-03-25T09:15:28Z</time>
      </trkpt>
      <trkpt lat="46.65491" lon="3.80781">
        <ele>288.5</ele>
        <time>2018-03-25T09:15:30Z</time>
      </trkpt>
      <trkpt lat="46.65482" lon="3.80785">
        <ele>289</ele>
        <time>2018-03-25T09:15:33Z</time>
      </trkpt>
      <trkpt lat="46.65474" lon="3.80789">
        <ele>289</ele>
        <time>2018-03-25T09:15:36Z</time>
      </trkpt>
      <trkpt lat="46.65466" lon="3.80794">
        <ele>289.2</ele>
        <time>2018-03-25T09:15:39Z</time>
      </trkpt>
      <trkpt lat="46.65461" lon="3.80797">
        <ele>289.7</ele>
        <time>2018-03-25T09:15:41Z</time>
      </trkpt>
      <trkpt lat="46.65453" lon="3.80801">
        <ele>290.2</ele>
        <time>2018-03-25T09:15:44Z</time>
      </trkpt>
      <trkpt lat="46.6545" lon="3.80802">
        <ele>290.3</ele>
        <time>2018-03-25T09:15:45Z</time>
      </trkpt>
      <trkpt lat="46.6544" lon="3.8081">
        <ele>291</ele>
        <time>2018-03-25T09:15:49Z</time>
      </trkpt>
      <trkpt lat="46.65435" lon="3.80814">
        <ele>291.5</ele>
        <time>2018-03-25T09:15:51Z</time>
      </trkpt>
      <trkpt lat="46.65429" lon="3.80818">
        <ele>292.2</ele>
        <time>2018-03-25T09:15:53Z</time>
      </trkpt>
      <trkpt lat="46.65423" lon="3.80821">
        <ele>292.8</ele>
        <time>2018-03-25T09:15:55Z</time>
      </trkpt>
      <trkpt lat="46.65417" lon="3.80824">
        <ele>293</ele>
        <time>2018-03-25T09:15:57Z</time>
      </trkpt>
      <trkpt lat="46.65411" lon="3.80826">
        <ele>293</ele>
        <time>2018-03-25T09:15:59Z</time>
      </trkpt>
      <trkpt lat="46.65404" lon="3.80828">
        <ele>293.1</ele>
        <time>2018-03-25T09:16:01Z</time>
      </trkpt>
      <trkpt lat="46.65397" lon="3.8083">
        <ele>293</ele>
        <time>2018-03-25T09:16:03Z</time>
      </trkpt>
      <trkpt lat="46.65391" lon="3.80831">
        <ele>292.9</ele>
        <time>2018-03-25T09:16:05Z</time>
      </trkpt>
      <trkpt lat="46.65384" lon="3.80832">
        <ele>293.2</ele>
        <time>2018-03-25T09:16:07Z</time>
      </trkpt>
      <trkpt lat="46.65377" lon="3.80834">
        <ele>293.6</ele>
        <time>2018-03-25T09:16:09Z</time>
      </trkpt>
      <trkpt lat="46.6537" lon="3.80836">
        <ele>293.1</ele>
        <time>2018-03-25T09:16:11Z</time>
      </trkpt>
      <trkpt lat="46.65364" lon="3.80838">
        <ele>293.1</ele>
        <time>2018-03-25T09:16:13Z</time>
      </trkpt>
      <trkpt lat="46.65357" lon="3.80841">
        <ele>293.3</ele>
        <time>2018-03-25T09:16:15Z</time>
      </trkpt>
      <trkpt lat="46.6535" lon="3.80844">
        <ele>293.5</ele>
        <time>2018-03-25T09:16:17Z</time>
      </trkpt>
      <trkpt lat="46.65342" lon="3.80846">
        <ele>293.8</ele>
        <time>2018-03-25T09:16:19Z</time>
      </trkpt>
      <trkpt lat="46.65335" lon="3.80848">
        <ele>293.4</ele>
        <time>2018-03-25T09:16:21Z</time>
      </trkpt>
      <trkpt lat="46.65328" lon="3.80849">
        <ele>292.9</ele>
        <time>2018-03-25T09:16:23Z</time>
      </trkpt>
      <trkpt lat="46.6532" lon="3.8085">
        <ele>293.4</ele>
        <time>2018-03-25T09:16:25Z</time>
      </trkpt>
      <trkpt lat="46.65313" lon="3.80851">
        <ele>293.1</ele>
        <time>2018-03-25T09:16:27Z</time>
      </trkpt>
      <trkpt lat="46.65304" lon="3.80851">
        <ele>293.8</ele>
        <time>2018-03-25T09:16:29Z</time>
      </trkpt>
      <trkpt lat="46.65296" lon="3.80853">
        <ele>294.1</ele>
        <time>2018-03-25T09:16:31Z</time>
      </trkpt>
      <trkpt lat="46.65289" lon="3.80853">
        <ele>293.9</ele>
        <time>2018-03-25T09:16:33Z</time>
      </trkpt>
      <trkpt lat="46.65281" lon="3.80854">
        <ele>293.5</ele>
        <time>2018-03-25T09:16:35Z</time>
      </trkpt>
      <trkpt lat="46.65274" lon="3.80856">
        <ele>293.8</ele>
        <time>2018-03-25T09:16:37Z</time>
      </trkpt>
      <trkpt lat="46.65267" lon="3.80857">
        <ele>292.5</ele>
        <time>2018-03-25T09:16:39Z</time>
      </trkpt>
      <trkpt lat="46.6526" lon="3.80857">
        <ele>293.3</ele>
        <time>2018-03-25T09:16:41Z</time>
      </trkpt>
      <trkpt lat="46.65253" lon="3.80858">
        <ele>293.4</ele>
        <time>2018-03-25T09:16:43Z</time>
      </trkpt>
      <trkpt lat="46.65245" lon="3.80858">
        <ele>293.4</ele>
        <time>2018-03-25T09:16:45Z</time>
      </trkpt>
      <trkpt lat="46.65238" lon="3.80858">
        <ele>293.4</ele>
        <time>2018-03-25T09:16:47Z</time>
      </trkpt>
      <trkpt lat="46.65234" lon="3.80857">
        <ele>293.3</ele>
        <time>2018-03-25T09:16:48Z</time>
      </trkpt>
      <trkpt lat="46.65224" lon="3.80856">
        <ele>293.9</ele>
        <time>2018-03-25T09:16:51Z</time>
      </trkpt>
      <trkpt lat="46.65216" lon="3.80854">
        <ele>293.4</ele>
        <time>2018-03-25T09:16:53Z</time>
      </trkpt>
      <trkpt lat="46.65209" lon="3.80853">
        <ele>293.3</ele>
        <time>2018-03-25T09:16:55Z</time>
      </trkpt>
      <trkpt lat="46.65201" lon="3.80851">
        <ele>293.4</ele>
        <time>2018-03-25T09:16:57Z</time>
      </trkpt>
      <trkpt lat="46.65194" lon="3.80849">
        <ele>293.9</ele>
        <time>2018-03-25T09:16:59Z</time>
      </trkpt>
      <trkpt lat="46.65187" lon="3.80847">
        <ele>294.5</ele>
        <time>2018-03-25T09:17:01Z</time>
      </trkpt>
      <trkpt lat="46.65178" lon="3.80846">
        <ele>293.9</ele>
        <time>2018-03-25T09:17:04Z</time>
      </trkpt>
      <trkpt lat="46.65171" lon="3.80845">
        <ele>294</ele>
        <time>2018-03-25T09:17:06Z</time>
      </trkpt>
      <trkpt lat="46.65163" lon="3.80844">
        <ele>294.3</ele>
        <time>2018-03-25T09:17:08Z</time>
      </trkpt>
      <trkpt lat="46.65156" lon="3.80843">
        <ele>294.3</ele>
        <time>2018-03-25T09:17:10Z</time>
      </trkpt>
      <trkpt lat="46.6515" lon="3.80843">
        <ele>294.5</ele>
        <time>2018-03-25T09:17:12Z</time>
      </trkpt>
      <trkpt lat="46.65141" lon="3.8084">
        <ele>294</ele>
        <time>2018-03-25T09:17:15Z</time>
      </trkpt>
      <trkpt lat="46.65133" lon="3.80836">
        <ele>294.9</ele>
        <time>2018-03-25T09:17:18Z</time>
      </trkpt>
      <trkpt lat="46.65127" lon="3.80834">
        <ele>295.3</ele>
        <time>2018-03-25T09:17:20Z</time>
      </trkpt>
      <trkpt lat="46.65121" lon="3.80831">
        <ele>295.7</ele>
        <time>2018-03-25T09:17:22Z</time>
      </trkpt>
      <trkpt lat="46.65113" lon="3.80827">
        <ele>296.2</ele>
        <time>2018-03-25T09:17:25Z</time>
      </trkpt>
      <trkpt lat="46.65105" lon="3.80824">
        <ele>296.7</ele>
        <time>2018-03-25T09:17:28Z</time>
      </trkpt>
      <trkpt lat="46.65096" lon="3.80824">
        <ele>297</ele>
        <time>2018-03-25T09:17:31Z</time>
      </trkpt>
      <trkpt lat="46.65091" lon="3.80819">
        <ele>298.2</ele>
        <time>2018-03-25T09:17:37Z</time>
      </trkpt>
      <trkpt lat="46.65084" lon="3.80813">
        <ele>298.5</ele>
        <time>2018-03-25T09:17:40Z</time>
      </trkpt>
      <trkpt lat="46.65076" lon="3.80811">
        <ele>298.8</ele>
        <time>2018-03-25T09:17:45Z</time>
      </trkpt>
      <trkpt lat="46.65068" lon="3.80806">
        <ele>298.3</ele>
        <time>2018-03-25T09:17:49Z</time>
      </trkpt>
      <trkpt lat="46.65066" lon="3.80805">
        <ele>298.4</ele>
        <time>2018-03-25T09:17:50Z</time>
      </trkpt>
      <trkpt lat="46.65053" lon="3.80798">
        <ele>298.9</ele>
        <time>2018-03-25T09:17:56Z</time>
      </trkpt>
      <trkpt lat="46.65046" lon="3.80794">
        <ele>299.3</ele>
        <time>2018-03-25T09:17:59Z</time>
      </trkpt>
      <trkpt lat="46.6504" lon="3.8079">
        <ele>299.5</ele>
        <time>2018-03-25T09:18:02Z</time>
      </trkpt>
      <trkpt lat="46.65032" lon="3.80785">
        <ele>298.8</ele>
        <time>2018-03-25T09:18:05Z</time>
      </trkpt>
      <trkpt lat="46.65025" lon="3.80778">
        <ele>298.7</ele>
        <time>2018-03-25T09:18:08Z</time>
      </trkpt>
      <trkpt lat="46.65018" lon="3.80771">
        <ele>298.7</ele>
        <time>2018-03-25T09:18:11Z</time>
      </trkpt>
      <trkpt lat="46.65011" lon="3.80766">
        <ele>298.2</ele>
        <time>2018-03-25T09:18:14Z</time>
      </trkpt>
      <trkpt lat="46.65006" lon="3.80761">
        <ele>298.4</ele>
        <time>2018-03-25T09:18:16Z</time>
      </trkpt>
      <trkpt lat="46.65001" lon="3.80753">
        <ele>298.3</ele>
        <time>2018-03-25T09:18:18Z</time>
      </trkpt>
      <trkpt lat="46.64995" lon="3.80745">
        <ele>298</ele>
        <time>2018-03-25T09:18:20Z</time>
      </trkpt>
      <trkpt lat="46.64989" lon="3.80737">
        <ele>297.7</ele>
        <time>2018-03-25T09:18:22Z</time>
      </trkpt>
      <trkpt lat="46.64982" lon="3.80732">
        <ele>297.3</ele>
        <time>2018-03-25T09:18:24Z</time>
      </trkpt>
      <trkpt lat="46.64975" lon="3.80732">
        <ele>296.9</ele>
        <time>2018-03-25T09:18:26Z</time>
      </trkpt>
      <trkpt lat="46.64966" lon="3.80732">
        <ele>295</ele>
        <time>2018-03-25T09:18:29Z</time>
      </trkpt>
      <trkpt lat="46.6496" lon="3.80737">
        <ele>296.9</ele>
        <time>2018-03-25T09:18:34Z</time>
      </trkpt>
      <trkpt lat="46.64954" lon="3.80743">
        <ele>297.5</ele>
        <time>2018-03-25T09:18:38Z</time>
      </trkpt>
      <trkpt lat="46.64947" lon="3.8075">
        <ele>297.9</ele>
        <time>2018-03-25T09:18:43Z</time>
      </trkpt>
      <trkpt lat="46.64942" lon="3.80761">
        <ele>299.9</ele>
        <time>2018-03-25T09:18:48Z</time>
      </trkpt>
      <trkpt lat="46.64936" lon="3.8077">
        <ele>300.3</ele>
        <time>2018-03-25T09:18:53Z</time>
      </trkpt>
      <trkpt lat="46.64935" lon="3.80772">
        <ele>300.7</ele>
        <time>2018-03-25T09:18:54Z</time>
      </trkpt>
      <trkpt lat="46.64925" lon="3.80788">
        <ele>301.3</ele>
        <time>2018-03-25T09:19:03Z</time>
      </trkpt>
      <trkpt lat="46.64921" lon="3.80798">
        <ele>302.8</ele>
        <time>2018-03-25T09:19:10Z</time>
      </trkpt>
      <trkpt lat="46.64916" lon="3.80807">
        <ele>303.6</ele>
        <time>2018-03-25T09:19:16Z</time>
      </trkpt>
      <trkpt lat="46.64912" lon="3.80818">
        <ele>305.9</ele>
        <time>2018-03-25T09:19:23Z</time>
      </trkpt>
      <trkpt lat="46.6491" lon="3.80831">
        <ele>307.7</ele>
        <time>2018-03-25T09:19:31Z</time>
      </trkpt>
      <trkpt lat="46.64907" lon="3.80843">
        <ele>307.7</ele>
        <time>2018-03-25T09:19:42Z</time>
      </trkpt>
      <trkpt lat="46.64903" lon="3.80854">
        <ele>310.6</ele>
        <time>2018-03-25T09:19:50Z</time>
      </trkpt>
      <trkpt lat="46.64899" lon="3.80864">
        <ele>311.1</ele>
        <time>2018-03-25T09:19:59Z</time>
      </trkpt>
      <trkpt lat="46.64899" lon="3.80866">
        <ele>311.2</ele>
        <time>2018-03-25T09:20:00Z</time>
      </trkpt>
      <trkpt lat="46.64894" lon="3.80887">
        <ele>313.4</ele>
        <time>2018-03-25T09:20:13Z</time>
      </trkpt>
      <trkpt lat="46.64891" lon="3.80898">
        <ele>314.2</ele>
        <time>2018-03-25T09:20:19Z</time>
      </trkpt>
      <trkpt lat="46.64887" lon="3.8091">
        <ele>314.7</ele>
        <time>2018-03-25T09:20:27Z</time>
      </trkpt>
      <trkpt lat="46.64885" lon="3.8092">
        <ele>316</ele>
        <time>2018-03-25T09:20:33Z</time>
      </trkpt>
      <trkpt lat="46.64881" lon="3.80931">
        <ele>317.3</ele>
        <time>2018-03-25T09:20:40Z</time>
      </trkpt>
      <trkpt lat="46.64879" lon="3.80943">
        <ele>317.5</ele>
        <time>2018-03-25T09:20:47Z</time>
      </trkpt>
      <trkpt lat="46.64876" lon="3.80955">
        <ele>317.9</ele>
        <time>2018-03-25T09:20:53Z</time>
      </trkpt>
      <trkpt lat="46.64874" lon="3.80966">
        <ele>319.5</ele>
        <time>2018-03-25T09:21:00Z</time>
      </trkpt>
      <trkpt lat="46.64871" lon="3.80978">
        <ele>320.7</ele>
        <time>2018-03-25T09:21:07Z</time>
      </trkpt>
      <trkpt lat="46.64871" lon="3.80979">
        <ele>320.7</ele>
        <time>2018-03-25T09:21:08Z</time>
      </trkpt>
      <trkpt lat="46.64866" lon="3.81002">
        <ele>321</ele>
        <time>2018-03-25T09:21:21Z</time>
      </trkpt>
      <trkpt lat="46.64862" lon="3.81012">
        <ele>321.8</ele>
        <time>2018-03-25T09:21:27Z</time>
      </trkpt>
      <trkpt lat="46.64859" lon="3.81024">
        <ele>321.9</ele>
        <time>2018-03-25T09:21:33Z</time>
      </trkpt>
      <trkpt lat="46.64856" lon="3.81035">
        <ele>322.5</ele>
        <time>2018-03-25T09:21:39Z</time>
      </trkpt>
      <trkpt lat="46.64852" lon="3.81047">
        <ele>323.4</ele>
        <time>2018-03-25T09:21:46Z</time>
      </trkpt>
      <trkpt lat="46.64849" lon="3.81057">
        <ele>324.3</ele>
        <time>2018-03-25T09:21:52Z</time>
      </trkpt>
      <trkpt lat="46.64845" lon="3.81068">
        <ele>324.7</ele>
        <time>2018-03-25T09:21:58Z</time>
      </trkpt>
      <trkpt lat="46.64842" lon="3.8108">
        <ele>325.2</ele>
        <time>2018-03-25T09:22:05Z</time>
      </trkpt>
      <trkpt lat="46.64838" lon="3.81091">
        <ele>325.3</ele>
        <time>2018-03-25T09:22:12Z</time>
      </trkpt>
      <trkpt lat="46.64838" lon="3.81092">
        <ele>325.7</ele>
        <time>2018-03-25T09:22:13Z</time>
      </trkpt>
      <trkpt lat="46.64826" lon="3.81108">
        <ele>328</ele>
        <time>2018-03-25T09:22:29Z</time>
      </trkpt>
      <trkpt lat="46.64819" lon="3.81109">
        <ele>328.2</ele>
        <time>2018-03-25T09:22:36Z</time>
      </trkpt>
      <trkpt lat="46.6481" lon="3.81108">
        <ele>328.8</ele>
        <time>2018-03-25T09:22:41Z</time>
      </trkpt>
      <trkpt lat="46.64801" lon="3.81108">
        <ele>328.7</ele>
        <time>2018-03-25T09:22:46Z</time>
      </trkpt>
      <trkpt lat="46.64793" lon="3.81103">
        <ele>329.4</ele>
        <time>2018-03-25T09:22:50Z</time>
      </trkpt>
      <trkpt lat="46.64785" lon="3.81098">
        <ele>330.2</ele>
        <time>2018-03-25T09:22:54Z</time>
      </trkpt>
      <trkpt lat="46.64777" lon="3.81093">
        <ele>329.3</ele>
        <time>2018-03-25T09:22:57Z</time>
      </trkpt>
      <trkpt lat="46.6477" lon="3.81087">
        <ele>330.1</ele>
        <time>2018-03-25T09:23:00Z</time>
      </trkpt>
      <trkpt lat="46.64763" lon="3.81083">
        <ele>329.9</ele>
        <time>2018-03-25T09:23:03Z</time>
      </trkpt>
      <trkpt lat="46.64756" lon="3.81078">
        <ele>329.4</ele>
        <time>2018-03-25T09:23:07Z</time>
      </trkpt>
      <trkpt lat="46.64747" lon="3.81074">
        <ele>329.1</ele>
        <time>2018-03-25T09:23:11Z</time>
      </trkpt>
      <trkpt lat="46.64739" lon="3.81073">
        <ele>328.3</ele>
        <time>2018-03-25T09:23:15Z</time>
      </trkpt>
      <trkpt lat="46.64736" lon="3.81072">
        <ele>328.2</ele>
        <time>2018-03-25T09:23:16Z</time>
      </trkpt>
      <trkpt lat="46.64724" lon="3.81069">
        <ele>328.6</ele>
        <time>2018-03-25T09:23:20Z</time>
      </trkpt>
      <trkpt lat="46.64717" lon="3.81067">
        <ele>329.1</ele>
        <time>2018-03-25T09:23:24Z</time>
      </trkpt>
      <trkpt lat="46.64708" lon="3.81064">
        <ele>327.9</ele>
        <time>2018-03-25T09:23:28Z</time>
      </trkpt>
      <trkpt lat="46.647" lon="3.81062">
        <ele>328.3</ele>
        <time>2018-03-25T09:23:31Z</time>
      </trkpt>
      <trkpt lat="46.64693" lon="3.81061">
        <ele>328.5</ele>
        <time>2018-03-25T09:23:34Z</time>
      </trkpt>
      <trkpt lat="46.64685" lon="3.8106">
        <ele>328</ele>
        <time>2018-03-25T09:23:37Z</time>
      </trkpt>
      <trkpt lat="46.64677" lon="3.81061">
        <ele>328</ele>
        <time>2018-03-25T09:23:40Z</time>
      </trkpt>
      <trkpt lat="46.6467" lon="3.81062">
        <ele>328.2</ele>
        <time>2018-03-25T09:23:43Z</time>
      </trkpt>
      <trkpt lat="46.64662" lon="3.81059">
        <ele>329.9</ele>
        <time>2018-03-25T09:23:47Z</time>
      </trkpt>
      <trkpt lat="46.64655" lon="3.81054">
        <ele>329.3</ele>
        <time>2018-03-25T09:23:50Z</time>
      </trkpt>
      <trkpt lat="46.64648" lon="3.81049">
        <ele>329</ele>
        <time>2018-03-25T09:23:53Z</time>
      </trkpt>
      <trkpt lat="46.6464" lon="3.81043">
        <ele>328.5</ele>
        <time>2018-03-25T09:23:56Z</time>
      </trkpt>
      <trkpt lat="46.64634" lon="3.81036">
        <ele>327.4</ele>
        <time>2018-03-25T09:23:59Z</time>
      </trkpt>
      <trkpt lat="46.64628" lon="3.81027">
        <ele>326.6</ele>
        <time>2018-03-25T09:24:02Z</time>
      </trkpt>
      <trkpt lat="46.64625" lon="3.8102">
        <ele>325.4</ele>
        <time>2018-03-25T09:24:04Z</time>
      </trkpt>
      <trkpt lat="46.64622" lon="3.81012">
        <ele>324.3</ele>
        <time>2018-03-25T09:24:06Z</time>
      </trkpt>
      <trkpt lat="46.64619" lon="3.81005">
        <ele>323.8</ele>
        <time>2018-03-25T09:24:08Z</time>
      </trkpt>
      <trkpt lat="46.64617" lon="3.80996">
        <ele>323.8</ele>
        <time>2018-03-25T09:24:10Z</time>
      </trkpt>
      <trkpt lat="46.64613" lon="3.80986">
        <ele>322.9</ele>
        <time>2018-03-25T09:24:12Z</time>
      </trkpt>
      <trkpt lat="46.64607" lon="3.80978">
        <ele>322.2</ele>
        <time>2018-03-25T09:24:14Z</time>
      </trkpt>
      <trkpt lat="46.64601" lon="3.80972">
        <ele>321.8</ele>
        <time>2018-03-25T09:24:16Z</time>
      </trkpt>
      <trkpt lat="46.64597" lon="3.80968">
        <ele>321.7</ele>
        <time>2018-03-25T09:24:17Z</time>
      </trkpt>
      <trkpt lat="46.64586" lon="3.80963">
        <ele>320.9</ele>
        <time>2018-03-25T09:24:20Z</time>
      </trkpt>
      <trkpt lat="46.64577" lon="3.80959">
        <ele>319.8</ele>
        <time>2018-03-25T09:24:22Z</time>
      </trkpt>
      <trkpt lat="46.64573" lon="3.80956">
        <ele>319.9</ele>
        <time>2018-03-25T09:24:23Z</time>
      </trkpt>
      <trkpt lat="46.64569" lon="3.80954">
        <ele>320</ele>
        <time>2018-03-25T09:24:24Z</time>
      </trkpt>
      <trkpt lat="46.64564" lon="3.80951">
        <ele>320.1</ele>
        <time>2018-03-25T09:24:25Z</time>
      </trkpt>
      <trkpt lat="46.64559" lon="3.80947">
        <ele>319.8</ele>
        <time>2018-03-25T09:24:26Z</time>
      </trkpt>
      <trkpt lat="46.64555" lon="3.80944">
        <ele>319.5</ele>
        <time>2018-03-25T09:24:27Z</time>
      </trkpt>
      <trkpt lat="46.64551" lon="3.8094">
        <ele>319.6</ele>
        <time>2018-03-25T09:24:28Z</time>
      </trkpt>
      <trkpt lat="46.64546" lon="3.80937">
        <ele>319.6</ele>
        <time>2018-03-25T09:24:29Z</time>
      </trkpt>
      <trkpt lat="46.64542" lon="3.80933">
        <ele>319.1</ele>
        <time>2018-03-25T09:24:30Z</time>
      </trkpt>
      <trkpt lat="46.64538" lon="3.80929">
        <ele>318.8</ele>
        <time>2018-03-25T09:24:31Z</time>
      </trkpt>
      <trkpt lat="46.64534" lon="3.80925">
        <ele>318.5</ele>
        <time>2018-03-25T09:24:32Z</time>
      </trkpt>
      <trkpt lat="46.6453" lon="3.80922">
        <ele>318.1</ele>
        <time>2018-03-25T09:24:33Z</time>
      </trkpt>
      <trkpt lat="46.64526" lon="3.80918">
        <ele>317.8</ele>
        <time>2018-03-25T09:24:34Z</time>
      </trkpt>
      <trkpt lat="46.64521" lon="3.80915">
        <ele>317.7</ele>
        <time>2018-03-25T09:24:35Z</time>
      </trkpt>
      <trkpt lat="46.64517" lon="3.80911">
        <ele>317.6</ele>
        <time>2018-03-25T09:24:36Z</time>
      </trkpt>
      <trkpt lat="46.64513" lon="3.80908">
        <ele>317.2</ele>
        <time>2018-03-25T09:24:37Z</time>
      </trkpt>
      <trkpt lat="46.64508" lon="3.80904">
        <ele>316.9</ele>
        <time>2018-03-25T09:24:38Z</time>
      </trkpt>
      <trkpt lat="46.64504" lon="3.80901">
        <ele>316.6</ele>
        <time>2018-03-25T09:24:39Z</time>
      </trkpt>
      <trkpt lat="46.64499" lon="3.80897">
        <ele>315.9</ele>
        <time>2018-03-25T09:24:40Z</time>
      </trkpt>
      <trkpt lat="46.64494" lon="3.80893">
        <ele>315.4</ele>
        <time>2018-03-25T09:24:41Z</time>
      </trkpt>
      <trkpt lat="46.64489" lon="3.80889">
        <ele>315</ele>
        <time>2018-03-25T09:24:42Z</time>
      </trkpt>
      <trkpt lat="46.64483" lon="3.80884">
        <ele>314.6</ele>
        <time>2018-03-25T09:24:43Z</time>
      </trkpt>
      <trkpt lat="46.64478" lon="3.8088">
        <ele>314.3</ele>
        <time>2018-03-25T09:24:44Z</time>
      </trkpt>
      <trkpt lat="46.64471" lon="3.80877">
        <ele>314.1</ele>
        <time>2018-03-25T09:24:45Z</time>
      </trkpt>
      <trkpt lat="46.64466" lon="3.80872">
        <ele>314</ele>
        <time>2018-03-25T09:24:46Z</time>
      </trkpt>
      <trkpt lat="46.64462" lon="3.80867">
        <ele>313.2</ele>
        <time>2018-03-25T09:24:47Z</time>
      </trkpt>
      <trkpt lat="46.64459" lon="3.80858">
        <ele>312.1</ele>
        <time>2018-03-25T09:24:49Z</time>
      </trkpt>
      <trkpt lat="46.6446" lon="3.80849">
        <ele>311.4</ele>
        <time>2018-03-25T09:24:51Z</time>
      </trkpt>
      <trkpt lat="46.64462" lon="3.8084">
        <ele>310.8</ele>
        <time>2018-03-25T09:24:53Z</time>
      </trkpt>
      <trkpt lat="46.64463" lon="3.80831">
        <ele>310.2</ele>
        <time>2018-03-25T09:24:55Z</time>
      </trkpt>
      <trkpt lat="46.64463" lon="3.80818">
        <ele>309.7</ele>
        <time>2018-03-25T09:24:58Z</time>
      </trkpt>
      <trkpt lat="46.64462" lon="3.80809">
        <ele>309.9</ele>
        <time>2018-03-25T09:25:00Z</time>
      </trkpt>
      <trkpt lat="46.64461" lon="3.80797">
        <ele>309.5</ele>
        <time>2018-03-25T09:25:02Z</time>
      </trkpt>
      <trkpt lat="46.64461" lon="3.80785">
        <ele>309.2</ele>
        <time>2018-03-25T09:25:04Z</time>
      </trkpt>
      <trkpt lat="46.64462" lon="3.80779">
        <ele>309.1</ele>
        <time>2018-03-25T09:25:05Z</time>
      </trkpt>
      <trkpt lat="46.64464" lon="3.80772">
        <ele>308.5</ele>
        <time>2018-03-25T09:25:06Z</time>
      </trkpt>
      <trkpt lat="46.64466" lon="3.80765">
        <ele>308</ele>
        <time>2018-03-25T09:25:07Z</time>
      </trkpt>
      <trkpt lat="46.64468" lon="3.80758">
        <ele>307.6</ele>
        <time>2018-03-25T09:25:08Z</time>
      </trkpt>
      <trkpt lat="46.6447" lon="3.80752">
        <ele>307.3</ele>
        <time>2018-03-25T09:25:09Z</time>
      </trkpt>
      <trkpt lat="46.64473" lon="3.80741">
        <ele>306.5</ele>
        <time>2018-03-25T09:25:11Z</time>
      </trkpt>
      <trkpt lat="46.64475" lon="3.80735">
        <ele>306.2</ele>
        <time>2018-03-25T09:25:12Z</time>
      </trkpt>
      <trkpt lat="46.64477" lon="3.80729">
        <ele>305.9</ele>
        <time>2018-03-25T09:25:13Z</time>
      </trkpt>
      <trkpt lat="46.64479" lon="3.80722">
        <ele>305.7</ele>
        <time>2018-03-25T09:25:14Z</time>
      </trkpt>
      <trkpt lat="46.64482" lon="3.80711">
        <ele>305.1</ele>
        <time>2018-03-25T09:25:16Z</time>
      </trkpt>
      <trkpt lat="46.64486" lon="3.80699">
        <ele>304.6</ele>
        <time>2018-03-25T09:25:18Z</time>
      </trkpt>
      <trkpt lat="46.64488" lon="3.80695">
        <ele>304.4</ele>
        <time>2018-03-25T09:25:19Z</time>
      </trkpt>
      <trkpt lat="46.64496" lon="3.80687">
        <ele>303.1</ele>
        <time>2018-03-25T09:25:22Z</time>
      </trkpt>
      <trkpt lat="46.64501" lon="3.80682">
        <ele>302.4</ele>
        <time>2018-03-25T09:25:24Z</time>
      </trkpt>
      <trkpt lat="46.64506" lon="3.80672">
        <ele>302.5</ele>
        <time>2018-03-25T09:25:27Z</time>
      </trkpt>
      <trkpt lat="46.6451" lon="3.80665">
        <ele>302.1</ele>
        <time>2018-03-25T09:25:29Z</time>
      </trkpt>
      <trkpt lat="46.64516" lon="3.80662">
        <ele>301.3</ele>
        <time>2018-03-25T09:25:31Z</time>
      </trkpt>
      <trkpt lat="46.64521" lon="3.80659">
        <ele>300.9</ele>
        <time>2018-03-25T09:25:33Z</time>
      </trkpt>
      <trkpt lat="46.64528" lon="3.80654">
        <ele>300.4</ele>
        <time>2018-03-25T09:25:35Z</time>
      </trkpt>
      <trkpt lat="46.64532" lon="3.8065">
        <ele>300.3</ele>
        <time>2018-03-25T09:25:36Z</time>
      </trkpt>
      <trkpt lat="46.64536" lon="3.80646">
        <ele>299.5</ele>
        <time>2018-03-25T09:25:37Z</time>
      </trkpt>
      <trkpt lat="46.64539" lon="3.80641">
        <ele>299</ele>
        <time>2018-03-25T09:25:38Z</time>
      </trkpt>
      <trkpt lat="46.64542" lon="3.80634">
        <ele>298.5</ele>
        <time>2018-03-25T09:25:39Z</time>
      </trkpt>
      <trkpt lat="46.64546" lon="3.80628">
        <ele>298.1</ele>
        <time>2018-03-25T09:25:40Z</time>
      </trkpt>
      <trkpt lat="46.64551" lon="3.80622">
        <ele>296.7</ele>
        <time>2018-03-25T09:25:41Z</time>
      </trkpt>
      <trkpt lat="46.64555" lon="3.80615">
        <ele>295.7</ele>
        <time>2018-03-25T09:25:42Z</time>
      </trkpt>
      <trkpt lat="46.6456" lon="3.8061">
        <ele>294.9</ele>
        <time>2018-03-25T09:25:43Z</time>
      </trkpt>
      <trkpt lat="46.64565" lon="3.80605">
        <ele>293.7</ele>
        <time>2018-03-25T09:25:44Z</time>
      </trkpt>
      <trkpt lat="46.64571" lon="3.80599">
        <ele>292.9</ele>
        <time>2018-03-25T09:25:45Z</time>
      </trkpt>
      <trkpt lat="46.64576" lon="3.80593">
        <ele>291.5</ele>
        <time>2018-03-25T09:25:46Z</time>
      </trkpt>
      <trkpt lat="46.64581" lon="3.80588">
        <ele>290.5</ele>
        <time>2018-03-25T09:25:47Z</time>
      </trkpt>
      <trkpt lat="46.64586" lon="3.80583">
        <ele>289.7</ele>
        <time>2018-03-25T09:25:48Z</time>
      </trkpt>
      <trkpt lat="46.6459" lon="3.80578">
        <ele>289.3</ele>
        <time>2018-03-25T09:25:49Z</time>
      </trkpt>
      <trkpt lat="46.64594" lon="3.80572">
        <ele>289</ele>
        <time>2018-03-25T09:25:50Z</time>
      </trkpt>
      <trkpt lat="46.64598" lon="3.80566">
        <ele>288.3</ele>
        <time>2018-03-25T09:25:51Z</time>
      </trkpt>
      <trkpt lat="46.64603" lon="3.80559">
        <ele>287.9</ele>
        <time>2018-03-25T09:25:52Z</time>
      </trkpt>
      <trkpt lat="46.64607" lon="3.80552">
        <ele>286.8</ele>
        <time>2018-03-25T09:25:53Z</time>
      </trkpt>
      <trkpt lat="46.64612" lon="3.80545">
        <ele>286</ele>
        <time>2018-03-25T09:25:54Z</time>
      </trkpt>
      <trkpt lat="46.64616" lon="3.80539">
        <ele>285.3</ele>
        <time>2018-03-25T09:25:55Z</time>
      </trkpt>
      <trkpt lat="46.64621" lon="3.80533">
        <ele>284.8</ele>
        <time>2018-03-25T09:25:56Z</time>
      </trkpt>
      <trkpt lat="46.64626" lon="3.80528">
        <ele>284.3</ele>
        <time>2018-03-25T09:25:57Z</time>
      </trkpt>
      <trkpt lat="46.64631" lon="3.80523">
        <ele>284</ele>
        <time>2018-03-25T09:25:58Z</time>
      </trkpt>
      <trkpt lat="46.64635" lon="3.80518">
        <ele>283.7</ele>
        <time>2018-03-25T09:25:59Z</time>
      </trkpt>
      <trkpt lat="46.6464" lon="3.80514">
        <ele>283.2</ele>
        <time>2018-03-25T09:26:00Z</time>
      </trkpt>
      <trkpt lat="46.64645" lon="3.80509">
        <ele>282.8</ele>
        <time>2018-03-25T09:26:01Z</time>
      </trkpt>
      <trkpt lat="46.64649" lon="3.80504">
        <ele>282.6</ele>
        <time>2018-03-25T09:26:02Z</time>
      </trkpt>
      <trkpt lat="46.64654" lon="3.805">
        <ele>281.9</ele>
        <time>2018-03-25T09:26:03Z</time>
      </trkpt>
      <trkpt lat="46.64658" lon="3.80497">
        <ele>281.4</ele>
        <time>2018-03-25T09:26:04Z</time>
      </trkpt>
      <trkpt lat="46.64662" lon="3.80493">
        <ele>280.6</ele>
        <time>2018-03-25T09:26:05Z</time>
      </trkpt>
      <trkpt lat="46.64666" lon="3.80487">
        <ele>279.9</ele>
        <time>2018-03-25T09:26:06Z</time>
      </trkpt>
      <trkpt lat="46.6467" lon="3.80482">
        <ele>279.5</ele>
        <time>2018-03-25T09:26:07Z</time>
      </trkpt>
      <trkpt lat="46.64675" lon="3.80478">
        <ele>278.2</ele>
        <time>2018-03-25T09:26:08Z</time>
      </trkpt>
      <trkpt lat="46.6468" lon="3.80472">
        <ele>277.3</ele>
        <time>2018-03-25T09:26:09Z</time>
      </trkpt>
      <trkpt lat="46.64684" lon="3.80465">
        <ele>276.7</ele>
        <time>2018-03-25T09:26:10Z</time>
      </trkpt>
      <trkpt lat="46.64688" lon="3.8046">
        <ele>276.3</ele>
        <time>2018-03-25T09:26:11Z</time>
      </trkpt>
      <trkpt lat="46.64691" lon="3.80454">
        <ele>275.2</ele>
        <time>2018-03-25T09:26:12Z</time>
      </trkpt>
      <trkpt lat="46.64695" lon="3.80448">
        <ele>274.4</ele>
        <time>2018-03-25T09:26:13Z</time>
      </trkpt>
      <trkpt lat="46.64699" lon="3.80441">
        <ele>273.8</ele>
        <time>2018-03-25T09:26:14Z</time>
      </trkpt>
      <trkpt lat="46.64703" lon="3.80435">
        <ele>273.2</ele>
        <time>2018-03-25T09:26:15Z</time>
      </trkpt>
      <trkpt lat="46.64707" lon="3.8043">
        <ele>272.7</ele>
        <time>2018-03-25T09:26:16Z</time>
      </trkpt>
      <trkpt lat="46.64711" lon="3.80425">
        <ele>271.3</ele>
        <time>2018-03-25T09:26:17Z</time>
      </trkpt>
      <trkpt lat="46.64715" lon="3.80419">
        <ele>270.3</ele>
        <time>2018-03-25T09:26:18Z</time>
      </trkpt>
      <trkpt lat="46.64719" lon="3.80414">
        <ele>269.7</ele>
        <time>2018-03-25T09:26:19Z</time>
      </trkpt>
      <trkpt lat="46.64723" lon="3.80408">
        <ele>269.3</ele>
        <time>2018-03-25T09:26:20Z</time>
      </trkpt>
      <trkpt lat="46.64728" lon="3.80402">
        <ele>269</ele>
        <time>2018-03-25T09:26:21Z</time>
      </trkpt>
      <trkpt lat="46.64733" lon="3.80396">
        <ele>268.2</ele>
        <time>2018-03-25T09:26:22Z</time>
      </trkpt>
      <trkpt lat="46.64738" lon="3.8039">
        <ele>267.7</ele>
        <time>2018-03-25T09:26:23Z</time>
      </trkpt>
      <trkpt lat="46.64742" lon="3.80384">
        <ele>267.2</ele>
        <time>2018-03-25T09:26:24Z</time>
      </trkpt>
      <trkpt lat="46.64747" lon="3.80379">
        <ele>266.9</ele>
        <time>2018-03-25T09:26:25Z</time>
      </trkpt>
      <trkpt lat="46.64751" lon="3.80375">
        <ele>266.6</ele>
        <time>2018-03-25T09:26:26Z</time>
      </trkpt>
      <trkpt lat="46.64754" lon="3.8037">
        <ele>266.1</ele>
        <time>2018-03-25T09:26:27Z</time>
      </trkpt>
      <trkpt lat="46.64758" lon="3.80366">
        <ele>265.7</ele>
        <time>2018-03-25T09:26:28Z</time>
      </trkpt>
      <trkpt lat="46.64762" lon="3.80361">
        <ele>265.6</ele>
        <time>2018-03-25T09:26:29Z</time>
      </trkpt>
      <trkpt lat="46.64769" lon="3.80355">
        <ele>265.2</ele>
        <time>2018-03-25T09:26:31Z</time>
      </trkpt>
      <trkpt lat="46.64777" lon="3.8035">
        <ele>264.8</ele>
        <time>2018-03-25T09:26:33Z</time>
      </trkpt>
      <trkpt lat="46.64783" lon="3.80345">
        <ele>263.6</ele>
        <time>2018-03-25T09:26:35Z</time>
      </trkpt>
      <trkpt lat="46.64789" lon="3.8034">
        <ele>263.2</ele>
        <time>2018-03-25T09:26:37Z</time>
      </trkpt>
      <trkpt lat="46.64795" lon="3.80333">
        <ele>263.3</ele>
        <time>2018-03-25T09:26:40Z</time>
      </trkpt>
      <trkpt lat="46.64801" lon="3.80326">
        <ele>263</ele>
        <time>2018-03-25T09:26:44Z</time>
      </trkpt>
      <trkpt lat="46.64807" lon="3.80319">
        <ele>263.4</ele>
        <time>2018-03-25T09:26:47Z</time>
      </trkpt>
      <trkpt lat="46.64813" lon="3.80313">
        <ele>264.1</ele>
        <time>2018-03-25T09:26:50Z</time>
      </trkpt>
      <trkpt lat="46.6482" lon="3.80308">
        <ele>264.7</ele>
        <time>2018-03-25T09:26:53Z</time>
      </trkpt>
      <trkpt lat="46.64827" lon="3.80303">
        <ele>264.6</ele>
        <time>2018-03-25T09:26:56Z</time>
      </trkpt>
      <trkpt lat="46.64832" lon="3.80297">
        <ele>265.5</ele>
        <time>2018-03-25T09:26:59Z</time>
      </trkpt>
      <trkpt lat="46.6484" lon="3.80292">
        <ele>266.6</ele>
        <time>2018-03-25T09:27:02Z</time>
      </trkpt>
      <trkpt lat="46.64847" lon="3.80287">
        <ele>267.4</ele>
        <time>2018-03-25T09:27:05Z</time>
      </trkpt>
      <trkpt lat="46.64853" lon="3.80281">
        <ele>267.1</ele>
        <time>2018-03-25T09:27:08Z</time>
      </trkpt>
      <trkpt lat="46.64858" lon="3.80276">
        <ele>266.7</ele>
        <time>2018-03-25T09:27:10Z</time>
      </trkpt>
      <trkpt lat="46.64864" lon="3.8027">
        <ele>266.7</ele>
        <time>2018-03-25T09:27:12Z</time>
      </trkpt>
      <trkpt lat="46.64869" lon="3.80264">
        <ele>266.7</ele>
        <time>2018-03-25T09:27:14Z</time>
      </trkpt>
      <trkpt lat="46.64875" lon="3.80259">
        <ele>266</ele>
        <time>2018-03-25T09:27:16Z</time>
      </trkpt>
      <trkpt lat="46.64881" lon="3.80251">
        <ele>265.3</ele>
        <time>2018-03-25T09:27:18Z</time>
      </trkpt>
      <trkpt lat="46.64884" lon="3.80247">
        <ele>264.7</ele>
        <time>2018-03-25T09:27:19Z</time>
      </trkpt>
      <trkpt lat="46.64887" lon="3.80241">
        <ele>264.3</ele>
        <time>2018-03-25T09:27:20Z</time>
      </trkpt>
      <trkpt lat="46.64891" lon="3.80234">
        <ele>263.7</ele>
        <time>2018-03-25T09:27:21Z</time>
      </trkpt>
      <trkpt lat="46.64894" lon="3.80227">
        <ele>263.2</ele>
        <time>2018-03-25T09:27:22Z</time>
      </trkpt>
      <trkpt lat="46.64896" lon="3.80219">
        <ele>262.8</ele>
        <time>2018-03-25T09:27:23Z</time>
      </trkpt>
      <trkpt lat="46.64899" lon="3.8021">
        <ele>262.5</ele>
        <time>2018-03-25T09:27:24Z</time>
      </trkpt>
      <trkpt lat="46.64902" lon="3.80199">
        <ele>262.3</ele>
        <time>2018-03-25T09:27:25Z</time>
      </trkpt>
      <trkpt lat="46.64904" lon="3.8019">
        <ele>261.1</ele>
        <time>2018-03-25T09:27:26Z</time>
      </trkpt>
      <trkpt lat="46.64905" lon="3.8018">
        <ele>260.2</ele>
        <time>2018-03-25T09:27:27Z</time>
      </trkpt>
      <trkpt lat="46.64903" lon="3.80171">
        <ele>258.6</ele>
        <time>2018-03-25T09:27:28Z</time>
      </trkpt>
      <trkpt lat="46.64902" lon="3.80163">
        <ele>257.4</ele>
        <time>2018-03-25T09:27:29Z</time>
      </trkpt>
      <trkpt lat="46.649" lon="3.80156">
        <ele>256.5</ele>
        <time>2018-03-25T09:27:30Z</time>
      </trkpt>
      <trkpt lat="46.64898" lon="3.80145">
        <ele>255.6</ele>
        <time>2018-03-25T09:27:32Z</time>
      </trkpt>
      <trkpt lat="46.64898" lon="3.80135">
        <ele>254.3</ele>
        <time>2018-03-25T09:27:34Z</time>
      </trkpt>
      <trkpt lat="46.64896" lon="3.80125">
        <ele>254.1</ele>
        <time>2018-03-25T09:27:36Z</time>
      </trkpt>
      <trkpt lat="46.64894" lon="3.80115">
        <ele>253.5</ele>
        <time>2018-03-25T09:27:39Z</time>
      </trkpt>
      <trkpt lat="46.64892" lon="3.80104">
        <ele>254</ele>
        <time>2018-03-25T09:27:42Z</time>
      </trkpt>
      <trkpt lat="46.6489" lon="3.80093">
        <ele>253.9</ele>
        <time>2018-03-25T09:27:45Z</time>
      </trkpt>
      <trkpt lat="46.64888" lon="3.80082">
        <ele>254.3</ele>
        <time>2018-03-25T09:27:48Z</time>
      </trkpt>
      <trkpt lat="46.64885" lon="3.80072">
        <ele>254.5</ele>
        <time>2018-03-25T09:27:51Z</time>
      </trkpt>
      <trkpt lat="46.64883" lon="3.8006">
        <ele>255</ele>
        <time>2018-03-25T09:27:55Z</time>
      </trkpt>
      <trkpt lat="46.64882" lon="3.80048">
        <ele>256</ele>
        <time>2018-03-25T09:27:59Z</time>
      </trkpt>
      <trkpt lat="46.64882" lon="3.80037">
        <ele>257.3</ele>
        <time>2018-03-25T09:28:03Z</time>
      </trkpt>
      <trkpt lat="46.64884" lon="3.80026">
        <ele>257.6</ele>
        <time>2018-03-25T09:28:07Z</time>
      </trkpt>
      <trkpt lat="46.64886" lon="3.80014">
        <ele>258</ele>
        <time>2018-03-25T09:28:11Z</time>
      </trkpt>
      <trkpt lat="46.64888" lon="3.80004">
        <ele>258.5</ele>
        <time>2018-03-25T09:28:15Z</time>
      </trkpt>
      <trkpt lat="46.64891" lon="3.79992">
        <ele>259.4</ele>
        <time>2018-03-25T09:28:19Z</time>
      </trkpt>
      <trkpt lat="46.64893" lon="3.7998">
        <ele>260.2</ele>
        <time>2018-03-25T09:28:23Z</time>
      </trkpt>
      <trkpt lat="46.64893" lon="3.79976">
        <ele>260.2</ele>
        <time>2018-03-25T09:28:24Z</time>
      </trkpt>
      <trkpt lat="46.64894" lon="3.79955">
        <ele>261.2</ele>
        <time>2018-03-25T09:28:32Z</time>
      </trkpt>
      <trkpt lat="46.64894" lon="3.79944">
        <ele>261.6</ele>
        <time>2018-03-25T09:28:36Z</time>
      </trkpt>
      <trkpt lat="46.64895" lon="3.79933">
        <ele>262.7</ele>
        <time>2018-03-25T09:28:40Z</time>
      </trkpt>
      <trkpt lat="46.64897" lon="3.79923">
        <ele>263.9</ele>
        <time>2018-03-25T09:28:44Z</time>
      </trkpt>
      <trkpt lat="46.64901" lon="3.79913">
        <ele>264</ele>
        <time>2018-03-25T09:28:48Z</time>
      </trkpt>
      <trkpt lat="46.64904" lon="3.79902">
        <ele>266.2</ele>
        <time>2018-03-25T09:28:52Z</time>
      </trkpt>
      <trkpt lat="46.64906" lon="3.79892">
        <ele>267.5</ele>
        <time>2018-03-25T09:28:56Z</time>
      </trkpt>
      <trkpt lat="46.6491" lon="3.79882">
        <ele>267.7</ele>
        <time>2018-03-25T09:29:00Z</time>
      </trkpt>
      <trkpt lat="46.64913" lon="3.7987">
        <ele>268.5</ele>
        <time>2018-03-25T09:29:05Z</time>
      </trkpt>
      <trkpt lat="46.64915" lon="3.79858">
        <ele>269</ele>
        <time>2018-03-25T09:29:09Z</time>
      </trkpt>
      <trkpt lat="46.64916" lon="3.79847">
        <ele>270.3</ele>
        <time>2018-03-25T09:29:13Z</time>
      </trkpt>
      <trkpt lat="46.64914" lon="3.79836">
        <ele>270.9</ele>
        <time>2018-03-25T09:29:17Z</time>
      </trkpt>
      <trkpt lat="46.64911" lon="3.79824">
        <ele>271.2</ele>
        <time>2018-03-25T09:29:21Z</time>
      </trkpt>
      <trkpt lat="46.64907" lon="3.79813">
        <ele>272.3</ele>
        <time>2018-03-25T09:29:25Z</time>
      </trkpt>
      <trkpt lat="46.64906" lon="3.79811">
        <ele>272.7</ele>
        <time>2018-03-25T09:29:26Z</time>
      </trkpt>
      <trkpt lat="46.649" lon="3.79792">
        <ele>273.2</ele>
        <time>2018-03-25T09:29:33Z</time>
      </trkpt>
      <trkpt lat="46.64896" lon="3.7978">
        <ele>273.8</ele>
        <time>2018-03-25T09:29:37Z</time>
      </trkpt>
      <trkpt lat="46.64894" lon="3.79768">
        <ele>273.7</ele>
        <time>2018-03-25T09:29:41Z</time>
      </trkpt>
      <trkpt lat="46.64896" lon="3.79755">
        <ele>273.1</ele>
        <time>2018-03-25T09:29:45Z</time>
      </trkpt>
      <trkpt lat="46.64896" lon="3.79743">
        <ele>274.4</ele>
        <time>2018-03-25T09:29:50Z</time>
      </trkpt>
      <trkpt lat="46.64894" lon="3.79732">
        <ele>273.6</ele>
        <time>2018-03-25T09:29:54Z</time>
      </trkpt>
      <trkpt lat="46.64893" lon="3.79721">
        <ele>274.7</ele>
        <time>2018-03-25T09:29:58Z</time>
      </trkpt>
      <trkpt lat="46.64889" lon="3.79711">
        <ele>274</ele>
        <time>2018-03-25T09:30:02Z</time>
      </trkpt>
      <trkpt lat="46.64886" lon="3.79699">
        <ele>274.8</ele>
        <time>2018-03-25T09:30:07Z</time>
      </trkpt>
      <trkpt lat="46.64884" lon="3.79687">
        <ele>274.3</ele>
        <time>2018-03-25T09:30:11Z</time>
      </trkpt>
      <trkpt lat="46.64883" lon="3.79676">
        <ele>274.1</ele>
        <time>2018-03-25T09:30:14Z</time>
      </trkpt>
      <trkpt lat="46.64881" lon="3.79664">
        <ele>274.1</ele>
        <time>2018-03-25T09:30:17Z</time>
      </trkpt>
      <trkpt lat="46.64879" lon="3.79654">
        <ele>274.2</ele>
        <time>2018-03-25T09:30:19Z</time>
      </trkpt>
      <trkpt lat="46.64877" lon="3.79644">
        <ele>274.4</ele>
        <time>2018-03-25T09:30:21Z</time>
      </trkpt>
      <trkpt lat="46.64873" lon="3.79635">
        <ele>273.5</ele>
        <time>2018-03-25T09:30:23Z</time>
      </trkpt>
      <trkpt lat="46.64866" lon="3.79631">
        <ele>272.9</ele>
        <time>2018-03-25T09:30:25Z</time>
      </trkpt>
      <trkpt lat="46.64858" lon="3.7963">
        <ele>272.9</ele>
        <time>2018-03-25T09:30:27Z</time>
      </trkpt>
      <trkpt lat="46.64854" lon="3.7963">
        <ele>272.9</ele>
        <time>2018-03-25T09:30:28Z</time>
      </trkpt>
      <trkpt lat="46.64843" lon="3.79629">
        <ele>273.8</ele>
        <time>2018-03-25T09:30:31Z</time>
      </trkpt>
      <trkpt lat="46.64835" lon="3.7963">
        <ele>274.1</ele>
        <time>2018-03-25T09:30:33Z</time>
      </trkpt>
      <trkpt lat="46.64827" lon="3.79631">
        <ele>274.4</ele>
        <time>2018-03-25T09:30:35Z</time>
      </trkpt>
      <trkpt lat="46.6482" lon="3.79633">
        <ele>274.2</ele>
        <time>2018-03-25T09:30:37Z</time>
      </trkpt>
      <trkpt lat="46.64813" lon="3.79636">
        <ele>274.6</ele>
        <time>2018-03-25T09:30:39Z</time>
      </trkpt>
      <trkpt lat="46.64806" lon="3.79639">
        <ele>273.8</ele>
        <time>2018-03-25T09:30:41Z</time>
      </trkpt>
      <trkpt lat="46.64799" lon="3.79644">
        <ele>273.5</ele>
        <time>2018-03-25T09:30:43Z</time>
      </trkpt>
      <trkpt lat="46.64793" lon="3.79649">
        <ele>273.7</ele>
        <time>2018-03-25T09:30:45Z</time>
      </trkpt>
      <trkpt lat="46.64787" lon="3.79656">
        <ele>273.9</ele>
        <time>2018-03-25T09:30:47Z</time>
      </trkpt>
      <trkpt lat="46.64781" lon="3.79662">
        <ele>274.6</ele>
        <time>2018-03-25T09:30:49Z</time>
      </trkpt>
      <trkpt lat="46.64776" lon="3.79668">
        <ele>274.8</ele>
        <time>2018-03-25T09:30:51Z</time>
      </trkpt>
      <trkpt lat="46.64771" lon="3.79675">
        <ele>275.7</ele>
        <time>2018-03-25T09:30:53Z</time>
      </trkpt>
      <trkpt lat="46.64766" lon="3.79682">
        <ele>275.8</ele>
        <time>2018-03-25T09:30:55Z</time>
      </trkpt>
      <trkpt lat="46.64761" lon="3.79688">
        <ele>276</ele>
        <time>2018-03-25T09:30:57Z</time>
      </trkpt>
      <trkpt lat="46.64756" lon="3.79695">
        <ele>276.2</ele>
        <time>2018-03-25T09:30:59Z</time>
      </trkpt>
      <trkpt lat="46.64751" lon="3.79702">
        <ele>276</ele>
        <time>2018-03-25T09:31:01Z</time>
      </trkpt>
      <trkpt lat="46.64747" lon="3.79708">
        <ele>276.6</ele>
        <time>2018-03-25T09:31:03Z</time>
      </trkpt>
      <trkpt lat="46.64742" lon="3.79715">
        <ele>277.5</ele>
        <time>2018-03-25T09:31:05Z</time>
      </trkpt>
      <trkpt lat="46.64738" lon="3.79722">
        <ele>277.6</ele>
        <time>2018-03-25T09:31:07Z</time>
      </trkpt>
      <trkpt lat="46.64733" lon="3.79728">
        <ele>277.8</ele>
        <time>2018-03-25T09:31:09Z</time>
      </trkpt>
      <trkpt lat="46.64728" lon="3.79735">
        <ele>277.9</ele>
        <time>2018-03-25T09:31:11Z</time>
      </trkpt>
      <trkpt lat="46.64723" lon="3.79742">
        <ele>278</ele>
        <time>2018-03-25T09:31:13Z</time>
      </trkpt>
      <trkpt lat="46.64719" lon="3.79749">
        <ele>278.6</ele>
        <time>2018-03-25T09:31:15Z</time>
      </trkpt>
      <trkpt lat="46.64714" lon="3.79755">
        <ele>278.9</ele>
        <time>2018-03-25T09:31:17Z</time>
      </trkpt>
      <trkpt lat="46.64709" lon="3.79762">
        <ele>279.3</ele>
        <time>2018-03-25T09:31:19Z</time>
      </trkpt>
      <trkpt lat="46.64704" lon="3.79769">
        <ele>279.2</ele>
        <time>2018-03-25T09:31:21Z</time>
      </trkpt>
      <trkpt lat="46.647" lon="3.79776">
        <ele>278.9</ele>
        <time>2018-03-25T09:31:23Z</time>
      </trkpt>
      <trkpt lat="46.64695" lon="3.79782">
        <ele>278.8</ele>
        <time>2018-03-25T09:31:25Z</time>
      </trkpt>
      <trkpt lat="46.6469" lon="3.79788">
        <ele>279.2</ele>
        <time>2018-03-25T09:31:27Z</time>
      </trkpt>
      <trkpt lat="46.64684" lon="3.79794">
        <ele>280.1</ele>
        <time>2018-03-25T09:31:29Z</time>
      </trkpt>
      <trkpt lat="46.64682" lon="3.79797">
        <ele>280.4</ele>
        <time>2018-03-25T09:31:30Z</time>
      </trkpt>
      <trkpt lat="46.64673" lon="3.79804">
        <ele>281.3</ele>
        <time>2018-03-25T09:31:33Z</time>
      </trkpt>
      <trkpt lat="46.64668" lon="3.79809">
        <ele>281.6</ele>
        <time>2018-03-25T09:31:35Z</time>
      </trkpt>
      <trkpt lat="46.64661" lon="3.79813">
        <ele>281.6</ele>
        <time>2018-03-25T09:31:37Z</time>
      </trkpt>
      <trkpt lat="46.64655" lon="3.79818">
        <ele>281.2</ele>
        <time>2018-03-25T09:31:39Z</time>
      </trkpt>
      <trkpt lat="46.64649" lon="3.79823">
        <ele>281.5</ele>
        <time>2018-03-25T09:31:41Z</time>
      </trkpt>
      <trkpt lat="46.64643" lon="3.79828">
        <ele>281.9</ele>
        <time>2018-03-25T09:31:43Z</time>
      </trkpt>
      <trkpt lat="46.64637" lon="3.79833">
        <ele>281.7</ele>
        <time>2018-03-25T09:31:45Z</time>
      </trkpt>
      <trkpt lat="46.64632" lon="3.79839">
        <ele>282</ele>
        <time>2018-03-25T09:31:47Z</time>
      </trkpt>
      <trkpt lat="46.64627" lon="3.79845">
        <ele>282.5</ele>
        <time>2018-03-25T09:31:49Z</time>
      </trkpt>
      <trkpt lat="46.64622" lon="3.79851">
        <ele>282.5</ele>
        <time>2018-03-25T09:31:51Z</time>
      </trkpt>
      <trkpt lat="46.64617" lon="3.79858">
        <ele>282.3</ele>
        <time>2018-03-25T09:31:53Z</time>
      </trkpt>
      <trkpt lat="46.64613" lon="3.79864">
        <ele>283</ele>
        <time>2018-03-25T09:31:55Z</time>
      </trkpt>
      <trkpt lat="46.64608" lon="3.79871">
        <ele>282.7</ele>
        <time>2018-03-25T09:31:57Z</time>
      </trkpt>
      <trkpt lat="46.64603" lon="3.79877">
        <ele>282.9</ele>
        <time>2018-03-25T09:31:59Z</time>
      </trkpt>
      <trkpt lat="46.64598" lon="3.79884">
        <ele>283.3</ele>
        <time>2018-03-25T09:32:01Z</time>
      </trkpt>
      <trkpt lat="46.64594" lon="3.7989">
        <ele>283.5</ele>
        <time>2018-03-25T09:32:03Z</time>
      </trkpt>
      <trkpt lat="46.64589" lon="3.79896">
        <ele>284.5</ele>
        <time>2018-03-25T09:32:05Z</time>
      </trkpt>
      <trkpt lat="46.64584" lon="3.79902">
        <ele>284.4</ele>
        <time>2018-03-25T09:32:07Z</time>
      </trkpt>
      <trkpt lat="46.64577" lon="3.7991">
        <ele>285.2</ele>
        <time>2018-03-25T09:32:10Z</time>
      </trkpt>
      <trkpt lat="46.6457" lon="3.79918">
        <ele>285.1</ele>
        <time>2018-03-25T09:32:13Z</time>
      </trkpt>
      <trkpt lat="46.64563" lon="3.79924">
        <ele>285.2</ele>
        <time>2018-03-25T09:32:16Z</time>
      </trkpt>
      <trkpt lat="46.64558" lon="3.79929">
        <ele>286.2</ele>
        <time>2018-03-25T09:32:18Z</time>
      </trkpt>
      <trkpt lat="46.64553" lon="3.79934">
        <ele>286.5</ele>
        <time>2018-03-25T09:32:20Z</time>
      </trkpt>
      <trkpt lat="46.64548" lon="3.79939">
        <ele>286.6</ele>
        <time>2018-03-25T09:32:22Z</time>
      </trkpt>
      <trkpt lat="46.64543" lon="3.79944">
        <ele>287.2</ele>
        <time>2018-03-25T09:32:24Z</time>
      </trkpt>
      <trkpt lat="46.64538" lon="3.7995">
        <ele>287.5</ele>
        <time>2018-03-25T09:32:26Z</time>
      </trkpt>
      <trkpt lat="46.64532" lon="3.79956">
        <ele>287.1</ele>
        <time>2018-03-25T09:32:28Z</time>
      </trkpt>
      <trkpt lat="46.64527" lon="3.79962">
        <ele>286.8</ele>
        <time>2018-03-25T09:32:30Z</time>
      </trkpt>
      <trkpt lat="46.64525" lon="3.79965">
        <ele>286.7</ele>
        <time>2018-03-25T09:32:31Z</time>
      </trkpt>
      <trkpt lat="46.64518" lon="3.79975">
        <ele>287.9</ele>
        <time>2018-03-25T09:32:34Z</time>
      </trkpt>
      <trkpt lat="46.64513" lon="3.79982">
        <ele>288.7</ele>
        <time>2018-03-25T09:32:36Z</time>
      </trkpt>
      <trkpt lat="46.64506" lon="3.79994">
        <ele>288</ele>
        <time>2018-03-25T09:32:39Z</time>
      </trkpt>
      <trkpt lat="46.645" lon="3.80004">
        <ele>289</ele>
        <time>2018-03-25T09:32:42Z</time>
      </trkpt>
      <trkpt lat="46.64497" lon="3.80012">
        <ele>289.2</ele>
        <time>2018-03-25T09:32:44Z</time>
      </trkpt>
      <trkpt lat="46.64493" lon="3.8002">
        <ele>289.4</ele>
        <time>2018-03-25T09:32:46Z</time>
      </trkpt>
      <trkpt lat="46.64489" lon="3.80028">
        <ele>289.5</ele>
        <time>2018-03-25T09:32:48Z</time>
      </trkpt>
      <trkpt lat="46.64485" lon="3.80037">
        <ele>289.2</ele>
        <time>2018-03-25T09:32:50Z</time>
      </trkpt>
      <trkpt lat="46.64481" lon="3.80045">
        <ele>288.9</ele>
        <time>2018-03-25T09:32:52Z</time>
      </trkpt>
      <trkpt lat="46.64477" lon="3.80053">
        <ele>289.1</ele>
        <time>2018-03-25T09:32:54Z</time>
      </trkpt>
      <trkpt lat="46.64473" lon="3.80062">
        <ele>289.7</ele>
        <time>2018-03-25T09:32:56Z</time>
      </trkpt>
      <trkpt lat="46.64469" lon="3.80071">
        <ele>289.5</ele>
        <time>2018-03-25T09:32:58Z</time>
      </trkpt>
      <trkpt lat="46.64465" lon="3.80079">
        <ele>288.8</ele>
        <time>2018-03-25T09:33:00Z</time>
      </trkpt>
      <trkpt lat="46.64461" lon="3.80087">
        <ele>288.9</ele>
        <time>2018-03-25T09:33:02Z</time>
      </trkpt>
      <trkpt lat="46.64457" lon="3.80096">
        <ele>288.5</ele>
        <time>2018-03-25T09:33:04Z</time>
      </trkpt>
      <trkpt lat="46.64453" lon="3.80105">
        <ele>288.6</ele>
        <time>2018-03-25T09:33:06Z</time>
      </trkpt>
      <trkpt lat="46.64449" lon="3.80113">
        <ele>288.4</ele>
        <time>2018-03-25T09:33:08Z</time>
      </trkpt>
      <trkpt lat="46.64444" lon="3.80121">
        <ele>288.7</ele>
        <time>2018-03-25T09:33:10Z</time>
      </trkpt>
      <trkpt lat="46.6444" lon="3.80129">
        <ele>289.3</ele>
        <time>2018-03-25T09:33:12Z</time>
      </trkpt>
      <trkpt lat="46.64436" lon="3.80136">
        <ele>289.7</ele>
        <time>2018-03-25T09:33:14Z</time>
      </trkpt>
      <trkpt lat="46.64431" lon="3.80144">
        <ele>289.4</ele>
        <time>2018-03-25T09:33:16Z</time>
      </trkpt>
      <trkpt lat="46.64427" lon="3.80152">
        <ele>289.9</ele>
        <time>2018-03-25T09:33:18Z</time>
      </trkpt>
      <trkpt lat="46.64421" lon="3.80159">
        <ele>290.4</ele>
        <time>2018-03-25T09:33:20Z</time>
      </trkpt>
      <trkpt lat="46.64416" lon="3.80167">
        <ele>290.8</ele>
        <time>2018-03-25T09:33:22Z</time>
      </trkpt>
      <trkpt lat="46.64411" lon="3.80174">
        <ele>291</ele>
        <time>2018-03-25T09:33:24Z</time>
      </trkpt>
      <trkpt lat="46.64406" lon="3.8018">
        <ele>291.2</ele>
        <time>2018-03-25T09:33:26Z</time>
      </trkpt>
      <trkpt lat="46.644" lon="3.80187">
        <ele>292.3</ele>
        <time>2018-03-25T09:33:28Z</time>
      </trkpt>
      <trkpt lat="46.64395" lon="3.80193">
        <ele>291.8</ele>
        <time>2018-03-25T09:33:30Z</time>
      </trkpt>
      <trkpt lat="46.64388" lon="3.802">
        <ele>291.4</ele>
        <time>2018-03-25T09:33:33Z</time>
      </trkpt>
      <trkpt lat="46.64386" lon="3.80202">
        <ele>291.5</ele>
        <time>2018-03-25T09:33:34Z</time>
      </trkpt>
      <trkpt lat="46.64377" lon="3.80211">
        <ele>291.2</ele>
        <time>2018-03-25T09:33:39Z</time>
      </trkpt>
      <trkpt lat="46.64371" lon="3.80217">
        <ele>291.4</ele>
        <time>2018-03-25T09:33:42Z</time>
      </trkpt>
      <trkpt lat="46.64365" lon="3.80222">
        <ele>292.5</ele>
        <time>2018-03-25T09:33:45Z</time>
      </trkpt>
      <trkpt lat="46.64358" lon="3.80229">
        <ele>292</ele>
        <time>2018-03-25T09:33:49Z</time>
      </trkpt>
      <trkpt lat="46.64352" lon="3.80235">
        <ele>291.6</ele>
        <time>2018-03-25T09:33:53Z</time>
      </trkpt>
      <trkpt lat="46.64345" lon="3.8023">
        <ele>292.6</ele>
        <time>2018-03-25T09:33:57Z</time>
      </trkpt>
      <trkpt lat="46.64338" lon="3.80223">
        <ele>293.2</ele>
        <time>2018-03-25T09:34:00Z</time>
      </trkpt>
      <trkpt lat="46.64334" lon="3.80217">
        <ele>293.1</ele>
        <time>2018-03-25T09:34:02Z</time>
      </trkpt>
      <trkpt lat="46.64329" lon="3.80211">
        <ele>293.1</ele>
        <time>2018-03-25T09:34:04Z</time>
      </trkpt>
      <trkpt lat="46.64324" lon="3.80205">
        <ele>293.5</ele>
        <time>2018-03-25T09:34:06Z</time>
      </trkpt>
      <trkpt lat="46.64319" lon="3.80198">
        <ele>293.4</ele>
        <time>2018-03-25T09:34:08Z</time>
      </trkpt>
      <trkpt lat="46.64314" lon="3.80191">
        <ele>293.5</ele>
        <time>2018-03-25T09:34:10Z</time>
      </trkpt>
      <trkpt lat="46.64308" lon="3.80184">
        <ele>293.4</ele>
        <time>2018-03-25T09:34:12Z</time>
      </trkpt>
      <trkpt lat="46.64303" lon="3.80178">
        <ele>293.5</ele>
        <time>2018-03-25T09:34:14Z</time>
      </trkpt>
      <trkpt lat="46.64298" lon="3.80171">
        <ele>293.9</ele>
        <time>2018-03-25T09:34:16Z</time>
      </trkpt>
      <trkpt lat="46.64292" lon="3.80165">
        <ele>293.6</ele>
        <time>2018-03-25T09:34:18Z</time>
      </trkpt>
      <trkpt lat="46.64286" lon="3.80158">
        <ele>292.8</ele>
        <time>2018-03-25T09:34:20Z</time>
      </trkpt>
      <trkpt lat="46.6428" lon="3.8015">
        <ele>292.8</ele>
        <time>2018-03-25T09:34:22Z</time>
      </trkpt>
      <trkpt lat="46.64275" lon="3.80142">
        <ele>292.3</ele>
        <time>2018-03-25T09:34:24Z</time>
      </trkpt>
      <trkpt lat="46.64268" lon="3.80134">
        <ele>292</ele>
        <time>2018-03-25T09:34:26Z</time>
      </trkpt>
      <trkpt lat="46.64262" lon="3.80126">
        <ele>291.9</ele>
        <time>2018-03-25T09:34:28Z</time>
      </trkpt>
      <trkpt lat="46.64259" lon="3.80121">
        <ele>291.7</ele>
        <time>2018-03-25T09:34:29Z</time>
      </trkpt>
      <trkpt lat="46.64255" lon="3.80116">
        <ele>291.6</ele>
        <time>2018-03-25T09:34:30Z</time>
      </trkpt>
      <trkpt lat="46.64252" lon="3.80111">
        <ele>291.4</ele>
        <time>2018-03-25T09:34:31Z</time>
      </trkpt>
      <trkpt lat="46.64249" lon="3.80104">
        <ele>291.3</ele>
        <time>2018-03-25T09:34:32Z</time>
      </trkpt>
      <trkpt lat="46.64246" lon="3.80097">
        <ele>290.4</ele>
        <time>2018-03-25T09:34:33Z</time>
      </trkpt>
      <trkpt lat="46.64244" lon="3.80089">
        <ele>289.7</ele>
        <time>2018-03-25T09:34:34Z</time>
      </trkpt>
      <trkpt lat="46.64242" lon="3.8008">
        <ele>289.2</ele>
        <time>2018-03-25T09:34:35Z</time>
      </trkpt>
      <trkpt lat="46.64241" lon="3.80071">
        <ele>288.6</ele>
        <time>2018-03-25T09:34:36Z</time>
      </trkpt>
      <trkpt lat="46.64238" lon="3.80061">
        <ele>288.1</ele>
        <time>2018-03-25T09:34:37Z</time>
      </trkpt>
      <trkpt lat="46.64235" lon="3.80052">
        <ele>288.2</ele>
        <time>2018-03-25T09:34:38Z</time>
      </trkpt>
      <trkpt lat="46.64231" lon="3.80045">
        <ele>288.3</ele>
        <time>2018-03-25T09:34:39Z</time>
      </trkpt>
      <trkpt lat="46.64227" lon="3.80036">
        <ele>287.9</ele>
        <time>2018-03-25T09:34:40Z</time>
      </trkpt>
      <trkpt lat="46.64222" lon="3.80028">
        <ele>287.7</ele>
        <time>2018-03-25T09:34:41Z</time>
      </trkpt>
      <trkpt lat="46.64216" lon="3.80021">
        <ele>287.5</ele>
        <time>2018-03-25T09:34:42Z</time>
      </trkpt>
      <trkpt lat="46.6421" lon="3.80013">
        <ele>286.6</ele>
        <time>2018-03-25T09:34:43Z</time>
      </trkpt>
      <trkpt lat="46.64204" lon="3.80006">
        <ele>286</ele>
        <time>2018-03-25T09:34:44Z</time>
      </trkpt>
      <trkpt lat="46.64198" lon="3.8">
        <ele>284.8</ele>
        <time>2018-03-25T09:34:45Z</time>
      </trkpt>
      <trkpt lat="46.64193" lon="3.79995">
        <ele>283.8</ele>
        <time>2018-03-25T09:34:46Z</time>
      </trkpt>
      <trkpt lat="46.64189" lon="3.7999">
        <ele>283</ele>
        <time>2018-03-25T09:34:47Z</time>
      </trkpt>
      <trkpt lat="46.64185" lon="3.7998">
        <ele>282</ele>
        <time>2018-03-25T09:34:49Z</time>
      </trkpt>
      <trkpt lat="46.64182" lon="3.79969">
        <ele>280</ele>
        <time>2018-03-25T09:34:51Z</time>
      </trkpt>
      <trkpt lat="46.64179" lon="3.79962">
        <ele>279.1</ele>
        <time>2018-03-25T09:34:52Z</time>
      </trkpt>
      <trkpt lat="46.64176" lon="3.79956">
        <ele>278.4</ele>
        <time>2018-03-25T09:34:53Z</time>
      </trkpt>
      <trkpt lat="46.64174" lon="3.79949">
        <ele>277.6</ele>
        <time>2018-03-25T09:34:54Z</time>
      </trkpt>
      <trkpt lat="46.64169" lon="3.79941">
        <ele>276.5</ele>
        <time>2018-03-25T09:34:56Z</time>
      </trkpt>
      <trkpt lat="46.64163" lon="3.79933">
        <ele>275</ele>
        <time>2018-03-25T09:35:00Z</time>
      </trkpt>
      <trkpt lat="46.64156" lon="3.79926">
        <ele>275.3</ele>
        <time>2018-03-25T09:35:04Z</time>
      </trkpt>
      <trkpt lat="46.64149" lon="3.79918">
        <ele>275.8</ele>
        <time>2018-03-25T09:35:09Z</time>
      </trkpt>
      <trkpt lat="46.64143" lon="3.79908">
        <ele>277.2</ele>
        <time>2018-03-25T09:35:16Z</time>
      </trkpt>
      <trkpt lat="46.64137" lon="3.799">
        <ele>278.9</ele>
        <time>2018-03-25T09:35:22Z</time>
      </trkpt>
      <trkpt lat="46.64129" lon="3.79893">
        <ele>280.1</ele>
        <time>2018-03-25T09:35:30Z</time>
      </trkpt>
      <trkpt lat="46.64122" lon="3.79891">
        <ele>280.9</ele>
        <time>2018-03-25T09:35:38Z</time>
      </trkpt>
      <trkpt lat="46.6412" lon="3.79891">
        <ele>280.8</ele>
        <time>2018-03-25T09:35:39Z</time>
      </trkpt>
      <trkpt lat="46.64106" lon="3.79886">
        <ele>281.1</ele>
        <time>2018-03-25T09:35:47Z</time>
      </trkpt>
      <trkpt lat="46.64099" lon="3.79884">
        <ele>281.9</ele>
        <time>2018-03-25T09:35:51Z</time>
      </trkpt>
      <trkpt lat="46.6409" lon="3.79882">
        <ele>282.4</ele>
        <time>2018-03-25T09:35:55Z</time>
      </trkpt>
      <trkpt lat="46.64083" lon="3.79879">
        <ele>283</ele>
        <time>2018-03-25T09:35:59Z</time>
      </trkpt>
      <trkpt lat="46.64075" lon="3.79876">
        <ele>283.5</ele>
        <time>2018-03-25T09:36:04Z</time>
      </trkpt>
      <trkpt lat="46.64067" lon="3.79873">
        <ele>283.8</ele>
        <time>2018-03-25T09:36:09Z</time>
      </trkpt>
      <trkpt lat="46.64059" lon="3.79874">
        <ele>284</ele>
        <time>2018-03-25T09:36:13Z</time>
      </trkpt>
      <trkpt lat="46.64052" lon="3.79879">
        <ele>284.1</ele>
        <time>2018-03-25T09:36:18Z</time>
      </trkpt>
      <trkpt lat="46.64046" lon="3.79889">
        <ele>284</ele>
        <time>2018-03-25T09:36:25Z</time>
      </trkpt>
      <trkpt lat="46.64044" lon="3.79901">
        <ele>283.9</ele>
        <time>2018-03-25T09:36:30Z</time>
      </trkpt>
      <trkpt lat="46.64041" lon="3.79911">
        <ele>284.9</ele>
        <time>2018-03-25T09:36:34Z</time>
      </trkpt>
      <trkpt lat="46.64037" lon="3.79921">
        <ele>285.1</ele>
        <time>2018-03-25T09:36:38Z</time>
      </trkpt>
      <trkpt lat="46.64029" lon="3.79927">
        <ele>285.8</ele>
        <time>2018-03-25T09:36:44Z</time>
      </trkpt>
      <trkpt lat="46.64028" lon="3.79927">
        <ele>285.6</ele>
        <time>2018-03-25T09:36:45Z</time>
      </trkpt>
      <trkpt lat="46.64013" lon="3.79932">
        <ele>286.8</ele>
        <time>2018-03-25T09:36:56Z</time>
      </trkpt>
      <trkpt lat="46.64005" lon="3.79933">
        <ele>288.5</ele>
        <time>2018-03-25T09:37:03Z</time>
      </trkpt>
      <trkpt lat="46.63996" lon="3.79935">
        <ele>289.2</ele>
        <time>2018-03-25T09:37:11Z</time>
      </trkpt>
      <trkpt lat="46.63988" lon="3.79935">
        <ele>288.2</ele>
        <time>2018-03-25T09:37:20Z</time>
      </trkpt>
      <trkpt lat="46.6398" lon="3.79935">
        <ele>289.2</ele>
        <time>2018-03-25T09:37:28Z</time>
      </trkpt>
      <trkpt lat="46.63971" lon="3.79935">
        <ele>291.5</ele>
        <time>2018-03-25T09:37:36Z</time>
      </trkpt>
      <trkpt lat="46.63963" lon="3.79936">
        <ele>291.4</ele>
        <time>2018-03-25T09:37:46Z</time>
      </trkpt>
      <trkpt lat="46.63962" lon="3.79936">
        <ele>291.4</ele>
        <time>2018-03-25T09:37:47Z</time>
      </trkpt>
      <trkpt lat="46.63946" lon="3.79935">
        <ele>293.1</ele>
        <time>2018-03-25T09:38:03Z</time>
      </trkpt>
      <trkpt lat="46.63937" lon="3.79933">
        <ele>292.4</ele>
        <time>2018-03-25T09:38:11Z</time>
      </trkpt>
      <trkpt lat="46.6393" lon="3.7993">
        <ele>294.6</ele>
        <time>2018-03-25T09:38:19Z</time>
      </trkpt>
      <trkpt lat="46.63922" lon="3.79925">
        <ele>294.4</ele>
        <time>2018-03-25T09:38:28Z</time>
      </trkpt>
      <trkpt lat="46.63914" lon="3.79921">
        <ele>297.1</ele>
        <time>2018-03-25T09:38:38Z</time>
      </trkpt>
      <trkpt lat="46.63905" lon="3.79919">
        <ele>297</ele>
        <time>2018-03-25T09:38:48Z</time>
      </trkpt>
      <trkpt lat="46.63904" lon="3.79919">
        <ele>297.4</ele>
        <time>2018-03-25T09:38:49Z</time>
      </trkpt>
      <trkpt lat="46.63888" lon="3.79923">
        <ele>299.6</ele>
        <time>2018-03-25T09:39:10Z</time>
      </trkpt>
      <trkpt lat="46.63879" lon="3.79923">
        <ele>300.9</ele>
        <time>2018-03-25T09:39:19Z</time>
      </trkpt>
      <trkpt lat="46.63871" lon="3.79924">
        <ele>301.7</ele>
        <time>2018-03-25T09:39:26Z</time>
      </trkpt>
      <trkpt lat="46.63862" lon="3.79922">
        <ele>302.3</ele>
        <time>2018-03-25T09:39:34Z</time>
      </trkpt>
      <trkpt lat="46.63855" lon="3.79918">
        <ele>303.5</ele>
        <time>2018-03-25T09:39:40Z</time>
      </trkpt>
      <trkpt lat="46.63847" lon="3.79912">
        <ele>304.3</ele>
        <time>2018-03-25T09:39:49Z</time>
      </trkpt>
      <trkpt lat="46.63846" lon="3.79911">
        <ele>304.5</ele>
        <time>2018-03-25T09:39:50Z</time>
      </trkpt>
      <trkpt lat="46.63831" lon="3.79907">
        <ele>305.5</ele>
        <time>2018-03-25T09:40:03Z</time>
      </trkpt>
      <trkpt lat="46.63822" lon="3.79906">
        <ele>305.5</ele>
        <time>2018-03-25T09:40:09Z</time>
      </trkpt>
      <trkpt lat="46.63815" lon="3.7991">
        <ele>305.4</ele>
        <time>2018-03-25T09:40:15Z</time>
      </trkpt>
      <trkpt lat="46.63807" lon="3.79916">
        <ele>306.5</ele>
        <time>2018-03-25T09:40:21Z</time>
      </trkpt>
      <trkpt lat="46.63799" lon="3.79922">
        <ele>306</ele>
        <time>2018-03-25T09:40:27Z</time>
      </trkpt>
      <trkpt lat="46.63792" lon="3.79929">
        <ele>307.5</ele>
        <time>2018-03-25T09:40:33Z</time>
      </trkpt>
      <trkpt lat="46.63784" lon="3.79933">
        <ele>308.3</ele>
        <time>2018-03-25T09:40:37Z</time>
      </trkpt>
      <trkpt lat="46.63777" lon="3.79941">
        <ele>308.6</ele>
        <time>2018-03-25T09:40:41Z</time>
      </trkpt>
      <trkpt lat="46.6377" lon="3.79948">
        <ele>308.3</ele>
        <time>2018-03-25T09:40:45Z</time>
      </trkpt>
      <trkpt lat="46.63763" lon="3.79953">
        <ele>308.8</ele>
        <time>2018-03-25T09:40:48Z</time>
      </trkpt>
      <trkpt lat="46.63757" lon="3.79957">
        <ele>309.3</ele>
        <time>2018-03-25T09:40:51Z</time>
      </trkpt>
      <trkpt lat="46.63755" lon="3.79959">
        <ele>309.4</ele>
        <time>2018-03-25T09:40:52Z</time>
      </trkpt>
      <trkpt lat="46.63741" lon="3.79964">
        <ele>309.8</ele>
        <time>2018-03-25T09:40:59Z</time>
      </trkpt>
      <trkpt lat="46.63734" lon="3.79967">
        <ele>310.7</ele>
        <time>2018-03-25T09:41:03Z</time>
      </trkpt>
      <trkpt lat="46.63726" lon="3.7997">
        <ele>311.1</ele>
        <time>2018-03-25T09:41:07Z</time>
      </trkpt>
      <trkpt lat="46.63717" lon="3.7997">
        <ele>311.2</ele>
        <time>2018-03-25T09:41:11Z</time>
      </trkpt>
      <trkpt lat="46.63709" lon="3.79971">
        <ele>311.1</ele>
        <time>2018-03-25T09:41:14Z</time>
      </trkpt>
      <trkpt lat="46.63701" lon="3.79973">
        <ele>311.8</ele>
        <time>2018-03-25T09:41:17Z</time>
      </trkpt>
      <trkpt lat="46.63694" lon="3.79975">
        <ele>311.5</ele>
        <time>2018-03-25T09:41:20Z</time>
      </trkpt>
      <trkpt lat="46.63687" lon="3.79979">
        <ele>311.6</ele>
        <time>2018-03-25T09:41:23Z</time>
      </trkpt>
      <trkpt lat="46.63679" lon="3.79982">
        <ele>311.6</ele>
        <time>2018-03-25T09:41:26Z</time>
      </trkpt>
      <trkpt lat="46.63671" lon="3.79985">
        <ele>311.4</ele>
        <time>2018-03-25T09:41:29Z</time>
      </trkpt>
      <trkpt lat="46.63663" lon="3.79989">
        <ele>311.7</ele>
        <time>2018-03-25T09:41:32Z</time>
      </trkpt>
      <trkpt lat="46.63655" lon="3.79992">
        <ele>312.4</ele>
        <time>2018-03-25T09:41:35Z</time>
      </trkpt>
      <trkpt lat="46.63647" lon="3.79995">
        <ele>313.1</ele>
        <time>2018-03-25T09:41:38Z</time>
      </trkpt>
      <trkpt lat="46.63638" lon="3.79998">
        <ele>313.8</ele>
        <time>2018-03-25T09:41:41Z</time>
      </trkpt>
      <trkpt lat="46.63632" lon="3.80001">
        <ele>313.8</ele>
        <time>2018-03-25T09:41:43Z</time>
      </trkpt>
      <trkpt lat="46.63627" lon="3.80003">
        <ele>313.6</ele>
        <time>2018-03-25T09:41:45Z</time>
      </trkpt>
      <trkpt lat="46.63618" lon="3.80007">
        <ele>313.7</ele>
        <time>2018-03-25T09:41:48Z</time>
      </trkpt>
      <trkpt lat="46.63612" lon="3.8001">
        <ele>314</ele>
        <time>2018-03-25T09:41:50Z</time>
      </trkpt>
      <trkpt lat="46.63604" lon="3.80013">
        <ele>314.4</ele>
        <time>2018-03-25T09:41:53Z</time>
      </trkpt>
      <trkpt lat="46.63601" lon="3.80014">
        <ele>314.5</ele>
        <time>2018-03-25T09:41:54Z</time>
      </trkpt>
      <trkpt lat="46.6359" lon="3.80017">
        <ele>314.9</ele>
        <time>2018-03-25T09:41:57Z</time>
      </trkpt>
      <trkpt lat="46.63583" lon="3.80017">
        <ele>314.5</ele>
        <time>2018-03-25T09:41:59Z</time>
      </trkpt>
      <trkpt lat="46.63577" lon="3.80017">
        <ele>313.9</ele>
        <time>2018-03-25T09:42:01Z</time>
      </trkpt>
      <trkpt lat="46.63569" lon="3.80017">
        <ele>314.6</ele>
        <time>2018-03-25T09:42:04Z</time>
      </trkpt>
      <trkpt lat="46.63562" lon="3.80013">
        <ele>314.5</ele>
        <time>2018-03-25T09:42:07Z</time>
      </trkpt>
      <trkpt lat="46.63554" lon="3.80009">
        <ele>315.2</ele>
        <time>2018-03-25T09:42:10Z</time>
      </trkpt>
      <trkpt lat="46.6355" lon="3.80004">
        <ele>314.9</ele>
        <time>2018-03-25T09:42:12Z</time>
      </trkpt>
      <trkpt lat="46.63545" lon="3.79996">
        <ele>315</ele>
        <time>2018-03-25T09:42:14Z</time>
      </trkpt>
      <trkpt lat="46.6354" lon="3.79988">
        <ele>315.3</ele>
        <time>2018-03-25T09:42:16Z</time>
      </trkpt>
      <trkpt lat="46.63535" lon="3.79979">
        <ele>315</ele>
        <time>2018-03-25T09:42:18Z</time>
      </trkpt>
      <trkpt lat="46.63529" lon="3.79971">
        <ele>314.3</ele>
        <time>2018-03-25T09:42:20Z</time>
      </trkpt>
      <trkpt lat="46.63523" lon="3.79963">
        <ele>313.8</ele>
        <time>2018-03-25T09:42:22Z</time>
      </trkpt>
      <trkpt lat="46.63515" lon="3.79958">
        <ele>314.2</ele>
        <time>2018-03-25T09:42:24Z</time>
      </trkpt>
      <trkpt lat="46.6351" lon="3.79957">
        <ele>314.4</ele>
        <time>2018-03-25T09:42:25Z</time>
      </trkpt>
      <trkpt lat="46.63506" lon="3.79956">
        <ele>313.8</ele>
        <time>2018-03-25T09:42:26Z</time>
      </trkpt>
      <trkpt lat="46.63501" lon="3.79956">
        <ele>313.3</ele>
        <time>2018-03-25T09:42:27Z</time>
      </trkpt>
      <trkpt lat="46.63496" lon="3.79958">
        <ele>313.1</ele>
        <time>2018-03-25T09:42:28Z</time>
      </trkpt>
      <trkpt lat="46.63491" lon="3.7996">
        <ele>313</ele>
        <time>2018-03-25T09:42:29Z</time>
      </trkpt>
      <trkpt lat="46.63486" lon="3.79962">
        <ele>312.6</ele>
        <time>2018-03-25T09:42:30Z</time>
      </trkpt>
      <trkpt lat="46.63481" lon="3.79963">
        <ele>312.4</ele>
        <time>2018-03-25T09:42:31Z</time>
      </trkpt>
      <trkpt lat="46.63475" lon="3.79965">
        <ele>312.2</ele>
        <time>2018-03-25T09:42:32Z</time>
      </trkpt>
      <trkpt lat="46.6347" lon="3.79966">
        <ele>312</ele>
        <time>2018-03-25T09:42:33Z</time>
      </trkpt>
      <trkpt lat="46.63465" lon="3.79967">
        <ele>311.9</ele>
        <time>2018-03-25T09:42:34Z</time>
      </trkpt>
      <trkpt lat="46.63459" lon="3.79968">
        <ele>311.4</ele>
        <time>2018-03-25T09:42:35Z</time>
      </trkpt>
      <trkpt lat="46.63453" lon="3.79969">
        <ele>311</ele>
        <time>2018-03-25T09:42:36Z</time>
      </trkpt>
      <trkpt lat="46.63447" lon="3.7997">
        <ele>310.9</ele>
        <time>2018-03-25T09:42:37Z</time>
      </trkpt>
      <trkpt lat="46.63441" lon="3.79971">
        <ele>310.7</ele>
        <time>2018-03-25T09:42:38Z</time>
      </trkpt>
      <trkpt lat="46.63434" lon="3.79973">
        <ele>310.7</ele>
        <time>2018-03-25T09:42:39Z</time>
      </trkpt>
      <trkpt lat="46.63428" lon="3.79975">
        <ele>310.1</ele>
        <time>2018-03-25T09:42:40Z</time>
      </trkpt>
      <trkpt lat="46.63421" lon="3.79978">
        <ele>309.7</ele>
        <time>2018-03-25T09:42:41Z</time>
      </trkpt>
      <trkpt lat="46.63414" lon="3.7998">
        <ele>309.5</ele>
        <time>2018-03-25T09:42:42Z</time>
      </trkpt>
      <trkpt lat="46.63406" lon="3.79982">
        <ele>309.4</ele>
        <time>2018-03-25T09:42:43Z</time>
      </trkpt>
      <trkpt lat="46.63399" lon="3.79984">
        <ele>309.3</ele>
        <time>2018-03-25T09:42:44Z</time>
      </trkpt>
      <trkpt lat="46.63392" lon="3.79985">
        <ele>309.1</ele>
        <time>2018-03-25T09:42:45Z</time>
      </trkpt>
      <trkpt lat="46.63384" lon="3.79987">
        <ele>308.9</ele>
        <time>2018-03-25T09:42:46Z</time>
      </trkpt>
      <trkpt lat="46.63377" lon="3.79988">
        <ele>308.8</ele>
        <time>2018-03-25T09:42:47Z</time>
      </trkpt>
      <trkpt lat="46.6337" lon="3.7999">
        <ele>308.8</ele>
        <time>2018-03-25T09:42:48Z</time>
      </trkpt>
      <trkpt lat="46.63363" lon="3.79992">
        <ele>308.2</ele>
        <time>2018-03-25T09:42:49Z</time>
      </trkpt>
      <trkpt lat="46.63356" lon="3.79994">
        <ele>307.8</ele>
        <time>2018-03-25T09:42:50Z</time>
      </trkpt>
      <trkpt lat="46.63349" lon="3.79997">
        <ele>307.5</ele>
        <time>2018-03-25T09:42:51Z</time>
      </trkpt>
      <trkpt lat="46.63343" lon="3.79999">
        <ele>307.1</ele>
        <time>2018-03-25T09:42:52Z</time>
      </trkpt>
      <trkpt lat="46.63336" lon="3.80001">
        <ele>306.7</ele>
        <time>2018-03-25T09:42:53Z</time>
      </trkpt>
      <trkpt lat="46.6333" lon="3.80003">
        <ele>306</ele>
        <time>2018-03-25T09:42:54Z</time>
      </trkpt>
      <trkpt lat="46.63324" lon="3.80005">
        <ele>305.4</ele>
        <time>2018-03-25T09:42:55Z</time>
      </trkpt>
      <trkpt lat="46.63318" lon="3.80007">
        <ele>305.2</ele>
        <time>2018-03-25T09:42:56Z</time>
      </trkpt>
      <trkpt lat="46.63313" lon="3.80009">
        <ele>305.1</ele>
        <time>2018-03-25T09:42:57Z</time>
      </trkpt>
      <trkpt lat="46.63308" lon="3.80011">
        <ele>305</ele>
        <time>2018-03-25T09:42:58Z</time>
      </trkpt>
      <trkpt lat="46.63303" lon="3.80009">
        <ele>304.6</ele>
        <time>2018-03-25T09:42:59Z</time>
      </trkpt>
      <trkpt lat="46.63299" lon="3.80005">
        <ele>304.3</ele>
        <time>2018-03-25T09:43:00Z</time>
      </trkpt>
      <trkpt lat="46.63296" lon="3.8">
        <ele>304.1</ele>
        <time>2018-03-25T09:43:01Z</time>
      </trkpt>
      <trkpt lat="46.63292" lon="3.79993">
        <ele>304</ele>
        <time>2018-03-25T09:43:02Z</time>
      </trkpt>
      <trkpt lat="46.63288" lon="3.79987">
        <ele>303.9</ele>
        <time>2018-03-25T09:43:03Z</time>
      </trkpt>
      <trkpt lat="46.63284" lon="3.7998">
        <ele>303.8</ele>
        <time>2018-03-25T09:43:04Z</time>
      </trkpt>
      <trkpt lat="46.63279" lon="3.79972">
        <ele>303.8</ele>
        <time>2018-03-25T09:43:05Z</time>
      </trkpt>
      <trkpt lat="46.63275" lon="3.79964">
        <ele>303.6</ele>
        <time>2018-03-25T09:43:06Z</time>
      </trkpt>
      <trkpt lat="46.6327" lon="3.79955">
        <ele>303.4</ele>
        <time>2018-03-25T09:43:07Z</time>
      </trkpt>
      <trkpt lat="46.63265" lon="3.79947">
        <ele>303</ele>
        <time>2018-03-25T09:43:08Z</time>
      </trkpt>
      <trkpt lat="46.6326" lon="3.79938">
        <ele>302.7</ele>
        <time>2018-03-25T09:43:09Z</time>
      </trkpt>
      <trkpt lat="46.63255" lon="3.79929">
        <ele>302.5</ele>
        <time>2018-03-25T09:43:10Z</time>
      </trkpt>
      <trkpt lat="46.63249" lon="3.7992">
        <ele>302</ele>
        <time>2018-03-25T09:43:11Z</time>
      </trkpt>
      <trkpt lat="46.63244" lon="3.7991">
        <ele>301.6</ele>
        <time>2018-03-25T09:43:12Z</time>
      </trkpt>
      <trkpt lat="46.63238" lon="3.799">
        <ele>301.1</ele>
        <time>2018-03-25T09:43:13Z</time>
      </trkpt>
      <trkpt lat="46.63233" lon="3.79891">
        <ele>300.8</ele>
        <time>2018-03-25T09:43:14Z</time>
      </trkpt>
      <trkpt lat="46.63227" lon="3.79882">
        <ele>300.7</ele>
        <time>2018-03-25T09:43:15Z</time>
      </trkpt>
      <trkpt lat="46.63222" lon="3.79872">
        <ele>300.6</ele>
        <time>2018-03-25T09:43:16Z</time>
      </trkpt>
      <trkpt lat="46.63216" lon="3.79863">
        <ele>300.5</ele>
        <time>2018-03-25T09:43:17Z</time>
      </trkpt>
      <trkpt lat="46.63211" lon="3.79854">
        <ele>300.4</ele>
        <time>2018-03-25T09:43:18Z</time>
      </trkpt>
      <trkpt lat="46.63206" lon="3.79844">
        <ele>300.3</ele>
        <time>2018-03-25T09:43:19Z</time>
      </trkpt>
      <trkpt lat="46.63201" lon="3.79835">
        <ele>300.1</ele>
        <time>2018-03-25T09:43:20Z</time>
      </trkpt>
      <trkpt lat="46.63183" lon="3.79804">
        <ele>299</ele>
        <time>2018-03-25T09:43:23Z</time>
      </trkpt>
      <trkpt lat="46.63176" lon="3.79791">
        <ele>298.8</ele>
        <time>2018-03-25T09:43:25Z</time>
      </trkpt>
      <trkpt lat="46.63171" lon="3.79783">
        <ele>298.4</ele>
        <time>2018-03-25T09:43:26Z</time>
      </trkpt>
      <trkpt lat="46.63166" lon="3.79774">
        <ele>298</ele>
        <time>2018-03-25T09:43:27Z</time>
      </trkpt>
      <trkpt lat="46.63161" lon="3.79765">
        <ele>297.7</ele>
        <time>2018-03-25T09:43:28Z</time>
      </trkpt>
      <trkpt lat="46.63156" lon="3.79755">
        <ele>297.5</ele>
        <time>2018-03-25T09:43:29Z</time>
      </trkpt>
      <trkpt lat="46.6315" lon="3.79746">
        <ele>297.7</ele>
        <time>2018-03-25T09:43:30Z</time>
      </trkpt>
      <trkpt lat="46.63144" lon="3.79736">
        <ele>297.8</ele>
        <time>2018-03-25T09:43:31Z</time>
      </trkpt>
      <trkpt lat="46.63139" lon="3.79726">
        <ele>297.6</ele>
        <time>2018-03-25T09:43:32Z</time>
      </trkpt>
      <trkpt lat="46.63133" lon="3.79715">
        <ele>297.4</ele>
        <time>2018-03-25T09:43:33Z</time>
      </trkpt>
      <trkpt lat="46.63127" lon="3.79705">
        <ele>297.5</ele>
        <time>2018-03-25T09:43:34Z</time>
      </trkpt>
      <trkpt lat="46.63121" lon="3.79694">
        <ele>297.5</ele>
        <time>2018-03-25T09:43:35Z</time>
      </trkpt>
      <trkpt lat="46.63115" lon="3.79683">
        <ele>297.5</ele>
        <time>2018-03-25T09:43:36Z</time>
      </trkpt>
      <trkpt lat="46.63109" lon="3.79673">
        <ele>296.9</ele>
        <time>2018-03-25T09:43:37Z</time>
      </trkpt>
      <trkpt lat="46.63103" lon="3.79662">
        <ele>296.5</ele>
        <time>2018-03-25T09:43:38Z</time>
      </trkpt>
      <trkpt lat="46.63097" lon="3.79652">
        <ele>296.4</ele>
        <time>2018-03-25T09:43:39Z</time>
      </trkpt>
      <trkpt lat="46.63092" lon="3.79642">
        <ele>296.4</ele>
        <time>2018-03-25T09:43:40Z</time>
      </trkpt>
      <trkpt lat="46.63086" lon="3.79633">
        <ele>296.5</ele>
        <time>2018-03-25T09:43:41Z</time>
      </trkpt>
      <trkpt lat="46.6308" lon="3.79624">
        <ele>296.5</ele>
        <time>2018-03-25T09:43:42Z</time>
      </trkpt>
      <trkpt lat="46.63075" lon="3.79615">
        <ele>296.5</ele>
        <time>2018-03-25T09:43:43Z</time>
      </trkpt>
      <trkpt lat="46.63069" lon="3.79606">
        <ele>295.8</ele>
        <time>2018-03-25T09:43:44Z</time>
      </trkpt>
      <trkpt lat="46.63064" lon="3.79597">
        <ele>295.2</ele>
        <time>2018-03-25T09:43:45Z</time>
      </trkpt>
      <trkpt lat="46.63059" lon="3.79588">
        <ele>294.4</ele>
        <time>2018-03-25T09:43:46Z</time>
      </trkpt>
      <trkpt lat="46.63053" lon="3.7958">
        <ele>293.9</ele>
        <time>2018-03-25T09:43:47Z</time>
      </trkpt>
      <trkpt lat="46.63048" lon="3.79571">
        <ele>293.4</ele>
        <time>2018-03-25T09:43:48Z</time>
      </trkpt>
      <trkpt lat="46.63044" lon="3.79562">
        <ele>293.3</ele>
        <time>2018-03-25T09:43:49Z</time>
      </trkpt>
      <trkpt lat="46.63039" lon="3.79553">
        <ele>293.2</ele>
        <time>2018-03-25T09:43:50Z</time>
      </trkpt>
      <trkpt lat="46.63035" lon="3.79545">
        <ele>293.5</ele>
        <time>2018-03-25T09:43:51Z</time>
      </trkpt>
      <trkpt lat="46.63031" lon="3.79536">
        <ele>293.7</ele>
        <time>2018-03-25T09:43:52Z</time>
      </trkpt>
      <trkpt lat="46.63027" lon="3.79528">
        <ele>294.1</ele>
        <time>2018-03-25T09:43:53Z</time>
      </trkpt>
      <trkpt lat="46.63023" lon="3.7952">
        <ele>294.3</ele>
        <time>2018-03-25T09:43:54Z</time>
      </trkpt>
      <trkpt lat="46.63019" lon="3.79512">
        <ele>294.5</ele>
        <time>2018-03-25T09:43:55Z</time>
      </trkpt>
      <trkpt lat="46.63015" lon="3.79504">
        <ele>294.4</ele>
        <time>2018-03-25T09:43:56Z</time>
      </trkpt>
      <trkpt lat="46.63012" lon="3.79496">
        <ele>294.4</ele>
        <time>2018-03-25T09:43:57Z</time>
      </trkpt>
      <trkpt lat="46.63008" lon="3.79489">
        <ele>294.5</ele>
        <time>2018-03-25T09:43:58Z</time>
      </trkpt>
      <trkpt lat="46.63005" lon="3.79481">
        <ele>294.6</ele>
        <time>2018-03-25T09:43:59Z</time>
      </trkpt>
      <trkpt lat="46.63002" lon="3.79474">
        <ele>295.1</ele>
        <time>2018-03-25T09:44:00Z</time>
      </trkpt>
      <trkpt lat="46.62999" lon="3.79466">
        <ele>295.4</ele>
        <time>2018-03-25T09:44:01Z</time>
      </trkpt>
      <trkpt lat="46.62996" lon="3.79458">
        <ele>295.7</ele>
        <time>2018-03-25T09:44:02Z</time>
      </trkpt>
      <trkpt lat="46.62994" lon="3.7945">
        <ele>295.6</ele>
        <time>2018-03-25T09:44:03Z</time>
      </trkpt>
      <trkpt lat="46.62991" lon="3.79442">
        <ele>295.5</ele>
        <time>2018-03-25T09:44:04Z</time>
      </trkpt>
      <trkpt lat="46.62988" lon="3.79434">
        <ele>295.4</ele>
        <time>2018-03-25T09:44:05Z</time>
      </trkpt>
      <trkpt lat="46.62985" lon="3.79426">
        <ele>295.3</ele>
        <time>2018-03-25T09:44:06Z</time>
      </trkpt>
      <trkpt lat="46.62982" lon="3.79418">
        <ele>295.3</ele>
        <time>2018-03-25T09:44:07Z</time>
      </trkpt>
      <trkpt lat="46.62979" lon="3.7941">
        <ele>294.9</ele>
        <time>2018-03-25T09:44:08Z</time>
      </trkpt>
      <trkpt lat="46.62975" lon="3.79403">
        <ele>294.7</ele>
        <time>2018-03-25T09:44:09Z</time>
      </trkpt>
      <trkpt lat="46.62971" lon="3.79396">
        <ele>294.7</ele>
        <time>2018-03-25T09:44:10Z</time>
      </trkpt>
      <trkpt lat="46.62968" lon="3.79389">
        <ele>294.7</ele>
        <time>2018-03-25T09:44:11Z</time>
      </trkpt>
      <trkpt lat="46.62964" lon="3.79381">
        <ele>294.9</ele>
        <time>2018-03-25T09:44:12Z</time>
      </trkpt>
      <trkpt lat="46.62961" lon="3.79374">
        <ele>295</ele>
        <time>2018-03-25T09:44:13Z</time>
      </trkpt>
      <trkpt lat="46.62957" lon="3.79367">
        <ele>295.1</ele>
        <time>2018-03-25T09:44:14Z</time>
      </trkpt>
      <trkpt lat="46.62953" lon="3.79359">
        <ele>294.9</ele>
        <time>2018-03-25T09:44:15Z</time>
      </trkpt>
      <trkpt lat="46.62949" lon="3.79352">
        <ele>294.7</ele>
        <time>2018-03-25T09:44:16Z</time>
      </trkpt>
      <trkpt lat="46.62945" lon="3.79343">
        <ele>294.1</ele>
        <time>2018-03-25T09:44:17Z</time>
      </trkpt>
      <trkpt lat="46.62941" lon="3.79334">
        <ele>293.6</ele>
        <time>2018-03-25T09:44:18Z</time>
      </trkpt>
      <trkpt lat="46.62936" lon="3.79325">
        <ele>293.2</ele>
        <time>2018-03-25T09:44:19Z</time>
      </trkpt>
      <trkpt lat="46.62932" lon="3.79316">
        <ele>292.6</ele>
        <time>2018-03-25T09:44:20Z</time>
      </trkpt>
      <trkpt lat="46.62928" lon="3.79307">
        <ele>292.1</ele>
        <time>2018-03-25T09:44:21Z</time>
      </trkpt>
      <trkpt lat="46.62923" lon="3.79297">
        <ele>292</ele>
        <time>2018-03-25T09:44:22Z</time>
      </trkpt>
      <trkpt lat="46.62918" lon="3.79287">
        <ele>291.8</ele>
        <time>2018-03-25T09:44:23Z</time>
      </trkpt>
      <trkpt lat="46.62914" lon="3.79277">
        <ele>291.2</ele>
        <time>2018-03-25T09:44:24Z</time>
      </trkpt>
      <trkpt lat="46.62908" lon="3.79267">
        <ele>290.7</ele>
        <time>2018-03-25T09:44:25Z</time>
      </trkpt>
      <trkpt lat="46.62903" lon="3.79257">
        <ele>290.3</ele>
        <time>2018-03-25T09:44:26Z</time>
      </trkpt>
      <trkpt lat="46.62898" lon="3.79246">
        <ele>289.6</ele>
        <time>2018-03-25T09:44:27Z</time>
      </trkpt>
      <trkpt lat="46.62894" lon="3.79236">
        <ele>289.1</ele>
        <time>2018-03-25T09:44:28Z</time>
      </trkpt>
      <trkpt lat="46.62889" lon="3.79225">
        <ele>288.4</ele>
        <time>2018-03-25T09:44:29Z</time>
      </trkpt>
      <trkpt lat="46.62884" lon="3.79214">
        <ele>287.9</ele>
        <time>2018-03-25T09:44:30Z</time>
      </trkpt>
      <trkpt lat="46.62879" lon="3.79203">
        <ele>288</ele>
        <time>2018-03-25T09:44:31Z</time>
      </trkpt>
      <trkpt lat="46.62874" lon="3.79193">
        <ele>288</ele>
        <time>2018-03-25T09:44:32Z</time>
      </trkpt>
      <trkpt lat="46.62868" lon="3.79182">
        <ele>288.1</ele>
        <time>2018-03-25T09:44:33Z</time>
      </trkpt>
      <trkpt lat="46.62863" lon="3.79171">
        <ele>287</ele>
        <time>2018-03-25T09:44:34Z</time>
      </trkpt>
      <trkpt lat="46.62858" lon="3.79159">
        <ele>286.2</ele>
        <time>2018-03-25T09:44:35Z</time>
      </trkpt>
      <trkpt lat="46.62853" lon="3.79148">
        <ele>285.9</ele>
        <time>2018-03-25T09:44:36Z</time>
      </trkpt>
      <trkpt lat="46.62848" lon="3.79137">
        <ele>285.8</ele>
        <time>2018-03-25T09:44:37Z</time>
      </trkpt>
      <trkpt lat="46.62842" lon="3.79125">
        <ele>285.6</ele>
        <time>2018-03-25T09:44:38Z</time>
      </trkpt>
      <trkpt lat="46.62837" lon="3.79114">
        <ele>284.6</ele>
        <time>2018-03-25T09:44:39Z</time>
      </trkpt>
      <trkpt lat="46.62831" lon="3.79103">
        <ele>283.9</ele>
        <time>2018-03-25T09:44:40Z</time>
      </trkpt>
      <trkpt lat="46.62826" lon="3.79091">
        <ele>283.5</ele>
        <time>2018-03-25T09:44:41Z</time>
      </trkpt>
      <trkpt lat="46.6282" lon="3.7908">
        <ele>283.2</ele>
        <time>2018-03-25T09:44:42Z</time>
      </trkpt>
      <trkpt lat="46.62815" lon="3.79069">
        <ele>282.9</ele>
        <time>2018-03-25T09:44:43Z</time>
      </trkpt>
      <trkpt lat="46.6281" lon="3.79058">
        <ele>282.7</ele>
        <time>2018-03-25T09:44:44Z</time>
      </trkpt>
      <trkpt lat="46.62804" lon="3.79047">
        <ele>282.6</ele>
        <time>2018-03-25T09:44:45Z</time>
      </trkpt>
      <trkpt lat="46.62799" lon="3.79036">
        <ele>281.9</ele>
        <time>2018-03-25T09:44:46Z</time>
      </trkpt>
      <trkpt lat="46.62794" lon="3.79026">
        <ele>281.4</ele>
        <time>2018-03-25T09:44:47Z</time>
      </trkpt>
      <trkpt lat="46.62792" lon="3.79017">
        <ele>281.4</ele>
        <time>2018-03-25T09:44:48Z</time>
      </trkpt>
      <trkpt lat="46.62792" lon="3.79008">
        <ele>281.3</ele>
        <time>2018-03-25T09:44:49Z</time>
      </trkpt>
      <trkpt lat="46.62797" lon="3.78999">
        <ele>281.1</ele>
        <time>2018-03-25T09:44:51Z</time>
      </trkpt>
      <trkpt lat="46.62803" lon="3.78991">
        <ele>280.1</ele>
        <time>2018-03-25T09:44:54Z</time>
      </trkpt>
      <trkpt lat="46.62809" lon="3.78982">
        <ele>281.2</ele>
        <time>2018-03-25T09:44:57Z</time>
      </trkpt>
      <trkpt lat="46.62811" lon="3.78979">
        <ele>281.3</ele>
        <time>2018-03-25T09:44:58Z</time>
      </trkpt>
      <trkpt lat="46.6282" lon="3.78963">
        <ele>282.4</ele>
        <time>2018-03-25T09:45:03Z</time>
      </trkpt>
      <trkpt lat="46.62825" lon="3.78954">
        <ele>283</ele>
        <time>2018-03-25T09:45:06Z</time>
      </trkpt>
      <trkpt lat="46.62829" lon="3.78946">
        <ele>284</ele>
        <time>2018-03-25T09:45:09Z</time>
      </trkpt>
      <trkpt lat="46.62834" lon="3.78937">
        <ele>284.4</ele>
        <time>2018-03-25T09:45:12Z</time>
      </trkpt>
      <trkpt lat="46.62838" lon="3.78928">
        <ele>285</ele>
        <time>2018-03-25T09:45:15Z</time>
      </trkpt>
      <trkpt lat="46.62842" lon="3.7892">
        <ele>286.1</ele>
        <time>2018-03-25T09:45:18Z</time>
      </trkpt>
      <trkpt lat="46.62847" lon="3.7891">
        <ele>287</ele>
        <time>2018-03-25T09:45:22Z</time>
      </trkpt>
      <trkpt lat="46.62852" lon="3.78901">
        <ele>288</ele>
        <time>2018-03-25T09:45:26Z</time>
      </trkpt>
      <trkpt lat="46.62857" lon="3.78891">
        <ele>289.9</ele>
        <time>2018-03-25T09:45:30Z</time>
      </trkpt>
      <trkpt lat="46.62862" lon="3.7888">
        <ele>290.1</ele>
        <time>2018-03-25T09:45:34Z</time>
      </trkpt>
      <trkpt lat="46.62867" lon="3.78872">
        <ele>292</ele>
        <time>2018-03-25T09:45:37Z</time>
      </trkpt>
      <trkpt lat="46.62872" lon="3.78862">
        <ele>292.6</ele>
        <time>2018-03-25T09:45:42Z</time>
      </trkpt>
      <trkpt lat="46.62874" lon="3.78849">
        <ele>293.3</ele>
        <time>2018-03-25T09:45:47Z</time>
      </trkpt>
      <trkpt lat="46.62875" lon="3.78838">
        <ele>293.6</ele>
        <time>2018-03-25T09:45:51Z</time>
      </trkpt>
      <trkpt lat="46.62875" lon="3.78828">
        <ele>293.9</ele>
        <time>2018-03-25T09:45:54Z</time>
      </trkpt>
      <trkpt lat="46.62875" lon="3.78817">
        <ele>293.5</ele>
        <time>2018-03-25T09:45:57Z</time>
      </trkpt>
      <trkpt lat="46.62876" lon="3.78808">
        <ele>293.4</ele>
        <time>2018-03-25T09:45:59Z</time>
      </trkpt>
      <trkpt lat="46.62877" lon="3.78804">
        <ele>293.4</ele>
        <time>2018-03-25T09:46:00Z</time>
      </trkpt>
      <trkpt lat="46.62886" lon="3.78788">
        <ele>294.4</ele>
        <time>2018-03-25T09:46:05Z</time>
      </trkpt>
      <trkpt lat="46.62893" lon="3.78779">
        <ele>294</ele>
        <time>2018-03-25T09:46:08Z</time>
      </trkpt>
      <trkpt lat="46.62899" lon="3.78771">
        <ele>294.8</ele>
        <time>2018-03-25T09:46:11Z</time>
      </trkpt>
      <trkpt lat="46.62905" lon="3.78763">
        <ele>295.1</ele>
        <time>2018-03-25T09:46:14Z</time>
      </trkpt>
      <trkpt lat="46.6291" lon="3.78756">
        <ele>294.8</ele>
        <time>2018-03-25T09:46:17Z</time>
      </trkpt>
      <trkpt lat="46.62915" lon="3.78749">
        <ele>295.9</ele>
        <time>2018-03-25T09:46:20Z</time>
      </trkpt>
      <trkpt lat="46.6292" lon="3.78741">
        <ele>295.5</ele>
        <time>2018-03-25T09:46:23Z</time>
      </trkpt>
      <trkpt lat="46.62925" lon="3.78733">
        <ele>297.1</ele>
        <time>2018-03-25T09:46:26Z</time>
      </trkpt>
      <trkpt lat="46.62932" lon="3.78725">
        <ele>297.6</ele>
        <time>2018-03-25T09:46:30Z</time>
      </trkpt>
      <trkpt lat="46.62938" lon="3.78719">
        <ele>297.8</ele>
        <time>2018-03-25T09:46:33Z</time>
      </trkpt>
      <trkpt lat="46.62943" lon="3.78713">
        <ele>298</ele>
        <time>2018-03-25T09:46:36Z</time>
      </trkpt>
      <trkpt lat="46.62949" lon="3.78705">
        <ele>298.3</ele>
        <time>2018-03-25T09:46:39Z</time>
      </trkpt>
      <trkpt lat="46.62949" lon="3.78693">
        <ele>298</ele>
        <time>2018-03-25T09:46:42Z</time>
      </trkpt>
      <trkpt lat="46.62943" lon="3.78683">
        <ele>297.1</ele>
        <time>2018-03-25T09:46:45Z</time>
      </trkpt>
      <trkpt lat="46.62938" lon="3.78675">
        <ele>296.9</ele>
        <time>2018-03-25T09:46:48Z</time>
      </trkpt>
      <trkpt lat="46.62933" lon="3.78666">
        <ele>296.5</ele>
        <time>2018-03-25T09:46:52Z</time>
      </trkpt>
      <trkpt lat="46.62929" lon="3.78657">
        <ele>296</ele>
        <time>2018-03-25T09:46:55Z</time>
      </trkpt>
      <trkpt lat="46.62925" lon="3.7865">
        <ele>296.5</ele>
        <time>2018-03-25T09:46:57Z</time>
      </trkpt>
      <trkpt lat="46.6292" lon="3.78642">
        <ele>296.3</ele>
        <time>2018-03-25T09:46:59Z</time>
      </trkpt>
      <trkpt lat="46.62915" lon="3.78633">
        <ele>295.6</ele>
        <time>2018-03-25T09:47:01Z</time>
      </trkpt>
      <trkpt lat="46.62912" lon="3.78628">
        <ele>295.3</ele>
        <time>2018-03-25T09:47:02Z</time>
      </trkpt>
      <trkpt lat="46.62909" lon="3.78623">
        <ele>295.3</ele>
        <time>2018-03-25T09:47:03Z</time>
      </trkpt>
      <trkpt lat="46.62906" lon="3.78618">
        <ele>295.3</ele>
        <time>2018-03-25T09:47:04Z</time>
      </trkpt>
      <trkpt lat="46.62903" lon="3.78612">
        <ele>295.3</ele>
        <time>2018-03-25T09:47:05Z</time>
      </trkpt>
      <trkpt lat="46.62899" lon="3.78606">
        <ele>295.1</ele>
        <time>2018-03-25T09:47:06Z</time>
      </trkpt>
      <trkpt lat="46.62896" lon="3.78601">
        <ele>294.9</ele>
        <time>2018-03-25T09:47:07Z</time>
      </trkpt>
      <trkpt lat="46.62893" lon="3.78594">
        <ele>295</ele>
        <time>2018-03-25T09:47:08Z</time>
      </trkpt>
      <trkpt lat="46.6289" lon="3.78588">
        <ele>295</ele>
        <time>2018-03-25T09:47:09Z</time>
      </trkpt>
      <trkpt lat="46.62887" lon="3.78582">
        <ele>294.2</ele>
        <time>2018-03-25T09:47:10Z</time>
      </trkpt>
      <trkpt lat="46.62884" lon="3.78575">
        <ele>293.7</ele>
        <time>2018-03-25T09:47:11Z</time>
      </trkpt>
      <trkpt lat="46.62881" lon="3.78568">
        <ele>293.3</ele>
        <time>2018-03-25T09:47:12Z</time>
      </trkpt>
      <trkpt lat="46.62878" lon="3.78561">
        <ele>293</ele>
        <time>2018-03-25T09:47:13Z</time>
      </trkpt>
      <trkpt lat="46.62875" lon="3.78554">
        <ele>292.8</ele>
        <time>2018-03-25T09:47:14Z</time>
      </trkpt>
      <trkpt lat="46.62873" lon="3.78546">
        <ele>292.8</ele>
        <time>2018-03-25T09:47:15Z</time>
      </trkpt>
      <trkpt lat="46.6287" lon="3.78538">
        <ele>292.8</ele>
        <time>2018-03-25T09:47:16Z</time>
      </trkpt>
      <trkpt lat="46.62868" lon="3.7853">
        <ele>292.9</ele>
        <time>2018-03-25T09:47:17Z</time>
      </trkpt>
      <trkpt lat="46.62866" lon="3.78521">
        <ele>293</ele>
        <time>2018-03-25T09:47:18Z</time>
      </trkpt>
      <trkpt lat="46.62863" lon="3.78513">
        <ele>293.1</ele>
        <time>2018-03-25T09:47:19Z</time>
      </trkpt>
      <trkpt lat="46.62861" lon="3.78504">
        <ele>292.7</ele>
        <time>2018-03-25T09:47:20Z</time>
      </trkpt>
      <trkpt lat="46.62859" lon="3.78495">
        <ele>292.3</ele>
        <time>2018-03-25T09:47:21Z</time>
      </trkpt>
      <trkpt lat="46.62856" lon="3.78486">
        <ele>292.3</ele>
        <time>2018-03-25T09:47:22Z</time>
      </trkpt>
      <trkpt lat="46.62854" lon="3.78477">
        <ele>292.3</ele>
        <time>2018-03-25T09:47:23Z</time>
      </trkpt>
      <trkpt lat="46.62851" lon="3.78468">
        <ele>292.2</ele>
        <time>2018-03-25T09:47:24Z</time>
      </trkpt>
      <trkpt lat="46.62849" lon="3.78459">
        <ele>292</ele>
        <time>2018-03-25T09:47:25Z</time>
      </trkpt>
      <trkpt lat="46.62846" lon="3.7845">
        <ele>291.8</ele>
        <time>2018-03-25T09:47:26Z</time>
      </trkpt>
      <trkpt lat="46.62844" lon="3.78441">
        <ele>291.4</ele>
        <time>2018-03-25T09:47:27Z</time>
      </trkpt>
      <trkpt lat="46.62842" lon="3.78432">
        <ele>291.1</ele>
        <time>2018-03-25T09:47:28Z</time>
      </trkpt>
      <trkpt lat="46.6284" lon="3.78423">
        <ele>290.9</ele>
        <time>2018-03-25T09:47:29Z</time>
      </trkpt>
      <trkpt lat="46.62837" lon="3.78414">
        <ele>290.7</ele>
        <time>2018-03-25T09:47:30Z</time>
      </trkpt>
      <trkpt lat="46.62836" lon="3.78405">
        <ele>290.5</ele>
        <time>2018-03-25T09:47:31Z</time>
      </trkpt>
      <trkpt lat="46.62834" lon="3.78396">
        <ele>290</ele>
        <time>2018-03-25T09:47:32Z</time>
      </trkpt>
      <trkpt lat="46.62832" lon="3.78387">
        <ele>289.6</ele>
        <time>2018-03-25T09:47:33Z</time>
      </trkpt>
      <trkpt lat="46.6283" lon="3.78379">
        <ele>289.3</ele>
        <time>2018-03-25T09:47:34Z</time>
      </trkpt>
      <trkpt lat="46.62828" lon="3.7837">
        <ele>289.2</ele>
        <time>2018-03-25T09:47:35Z</time>
      </trkpt>
      <trkpt lat="46.62827" lon="3.78362">
        <ele>289</ele>
        <time>2018-03-25T09:47:36Z</time>
      </trkpt>
      <trkpt lat="46.62825" lon="3.78354">
        <ele>288.8</ele>
        <time>2018-03-25T09:47:37Z</time>
      </trkpt>
      <trkpt lat="46.62823" lon="3.78345">
        <ele>288.6</ele>
        <time>2018-03-25T09:47:38Z</time>
      </trkpt>
      <trkpt lat="46.62821" lon="3.78337">
        <ele>288.5</ele>
        <time>2018-03-25T09:47:39Z</time>
      </trkpt>
      <trkpt lat="46.62819" lon="3.78328">
        <ele>288.4</ele>
        <time>2018-03-25T09:47:40Z</time>
      </trkpt>
      <trkpt lat="46.62818" lon="3.7832">
        <ele>288.3</ele>
        <time>2018-03-25T09:47:41Z</time>
      </trkpt>
      <trkpt lat="46.62816" lon="3.78311">
        <ele>288.3</ele>
        <time>2018-03-25T09:47:42Z</time>
      </trkpt>
      <trkpt lat="46.62814" lon="3.78303">
        <ele>288.3</ele>
        <time>2018-03-25T09:47:43Z</time>
      </trkpt>
      <trkpt lat="46.62812" lon="3.78294">
        <ele>287.9</ele>
        <time>2018-03-25T09:47:44Z</time>
      </trkpt>
      <trkpt lat="46.62811" lon="3.78285">
        <ele>287.6</ele>
        <time>2018-03-25T09:47:45Z</time>
      </trkpt>
      <trkpt lat="46.62809" lon="3.78277">
        <ele>287.4</ele>
        <time>2018-03-25T09:47:46Z</time>
      </trkpt>
      <trkpt lat="46.62808" lon="3.78268">
        <ele>287.2</ele>
        <time>2018-03-25T09:47:47Z</time>
      </trkpt>
      <trkpt lat="46.62806" lon="3.78259">
        <ele>286.9</ele>
        <time>2018-03-25T09:47:48Z</time>
      </trkpt>
      <trkpt lat="46.62805" lon="3.7825">
        <ele>286.6</ele>
        <time>2018-03-25T09:47:49Z</time>
      </trkpt>
      <trkpt lat="46.62803" lon="3.78241">
        <ele>286.4</ele>
        <time>2018-03-25T09:47:50Z</time>
      </trkpt>
      <trkpt lat="46.62802" lon="3.78232">
        <ele>286</ele>
        <time>2018-03-25T09:47:51Z</time>
      </trkpt>
      <trkpt lat="46.62801" lon="3.78223">
        <ele>285.8</ele>
        <time>2018-03-25T09:47:52Z</time>
      </trkpt>
      <trkpt lat="46.628" lon="3.78214">
        <ele>285.5</ele>
        <time>2018-03-25T09:47:53Z</time>
      </trkpt>
      <trkpt lat="46.62799" lon="3.78206">
        <ele>285.3</ele>
        <time>2018-03-25T09:47:54Z</time>
      </trkpt>
      <trkpt lat="46.62797" lon="3.78197">
        <ele>285.2</ele>
        <time>2018-03-25T09:47:55Z</time>
      </trkpt>
      <trkpt lat="46.62796" lon="3.78188">
        <ele>285</ele>
        <time>2018-03-25T09:47:56Z</time>
      </trkpt>
      <trkpt lat="46.62795" lon="3.78179">
        <ele>284.8</ele>
        <time>2018-03-25T09:47:57Z</time>
      </trkpt>
      <trkpt lat="46.62794" lon="3.7817">
        <ele>284.6</ele>
        <time>2018-03-25T09:47:58Z</time>
      </trkpt>
      <trkpt lat="46.62793" lon="3.78161">
        <ele>284.4</ele>
        <time>2018-03-25T09:47:59Z</time>
      </trkpt>
      <trkpt lat="46.62792" lon="3.78152">
        <ele>284.8</ele>
        <time>2018-03-25T09:48:00Z</time>
      </trkpt>
      <trkpt lat="46.62791" lon="3.78144">
        <ele>285</ele>
        <time>2018-03-25T09:48:01Z</time>
      </trkpt>
      <trkpt lat="46.6279" lon="3.78135">
        <ele>285.2</ele>
        <time>2018-03-25T09:48:02Z</time>
      </trkpt>
      <trkpt lat="46.62789" lon="3.78127">
        <ele>285.1</ele>
        <time>2018-03-25T09:48:03Z</time>
      </trkpt>
      <trkpt lat="46.62788" lon="3.78119">
        <ele>285</ele>
        <time>2018-03-25T09:48:04Z</time>
      </trkpt>
      <trkpt lat="46.62787" lon="3.78111">
        <ele>285.1</ele>
        <time>2018-03-25T09:48:05Z</time>
      </trkpt>
      <trkpt lat="46.62786" lon="3.78103">
        <ele>285.2</ele>
        <time>2018-03-25T09:48:06Z</time>
      </trkpt>
      <trkpt lat="46.62785" lon="3.78095">
        <ele>285.2</ele>
        <time>2018-03-25T09:48:07Z</time>
      </trkpt>
      <trkpt lat="46.62784" lon="3.78087">
        <ele>285.2</ele>
        <time>2018-03-25T09:48:08Z</time>
      </trkpt>
      <trkpt lat="46.62783" lon="3.78079">
        <ele>285.2</ele>
        <time>2018-03-25T09:48:09Z</time>
      </trkpt>
      <trkpt lat="46.62781" lon="3.78072">
        <ele>285.2</ele>
        <time>2018-03-25T09:48:10Z</time>
      </trkpt>
      <trkpt lat="46.6278" lon="3.78064">
        <ele>285.2</ele>
        <time>2018-03-25T09:48:11Z</time>
      </trkpt>
      <trkpt lat="46.62779" lon="3.78057">
        <ele>284.7</ele>
        <time>2018-03-25T09:48:12Z</time>
      </trkpt>
      <trkpt lat="46.62777" lon="3.78049">
        <ele>284.2</ele>
        <time>2018-03-25T09:48:13Z</time>
      </trkpt>
      <trkpt lat="46.62776" lon="3.78042">
        <ele>283.9</ele>
        <time>2018-03-25T09:48:14Z</time>
      </trkpt>
      <trkpt lat="46.62774" lon="3.78035">
        <ele>283.7</ele>
        <time>2018-03-25T09:48:15Z</time>
      </trkpt>
      <trkpt lat="46.62772" lon="3.78029">
        <ele>283.6</ele>
        <time>2018-03-25T09:48:16Z</time>
      </trkpt>
      <trkpt lat="46.6277" lon="3.78023">
        <ele>283.6</ele>
        <time>2018-03-25T09:48:17Z</time>
      </trkpt>
      <trkpt lat="46.62768" lon="3.78016">
        <ele>283.6</ele>
        <time>2018-03-25T09:48:18Z</time>
      </trkpt>
      <trkpt lat="46.62765" lon="3.78004">
        <ele>284.1</ele>
        <time>2018-03-25T09:48:20Z</time>
      </trkpt>
      <trkpt lat="46.62761" lon="3.77993">
        <ele>284.8</ele>
        <time>2018-03-25T09:48:22Z</time>
      </trkpt>
      <trkpt lat="46.62757" lon="3.77982">
        <ele>285.3</ele>
        <time>2018-03-25T09:48:24Z</time>
      </trkpt>
      <trkpt lat="46.62753" lon="3.77971">
        <ele>285.6</ele>
        <time>2018-03-25T09:48:26Z</time>
      </trkpt>
      <trkpt lat="46.6275" lon="3.7796">
        <ele>285.8</ele>
        <time>2018-03-25T09:48:28Z</time>
      </trkpt>
      <trkpt lat="46.62746" lon="3.77948">
        <ele>285.4</ele>
        <time>2018-03-25T09:48:30Z</time>
      </trkpt>
      <trkpt lat="46.62743" lon="3.77936">
        <ele>285.8</ele>
        <time>2018-03-25T09:48:32Z</time>
      </trkpt>
      <trkpt lat="46.62741" lon="3.77925">
        <ele>286.2</ele>
        <time>2018-03-25T09:48:34Z</time>
      </trkpt>
      <trkpt lat="46.62738" lon="3.77913">
        <ele>286.6</ele>
        <time>2018-03-25T09:48:36Z</time>
      </trkpt>
      <trkpt lat="46.62736" lon="3.779">
        <ele>286.7</ele>
        <time>2018-03-25T09:48:38Z</time>
      </trkpt>
      <trkpt lat="46.62734" lon="3.77888">
        <ele>286.6</ele>
        <time>2018-03-25T09:48:40Z</time>
      </trkpt>
      <trkpt lat="46.62732" lon="3.77876">
        <ele>286.7</ele>
        <time>2018-03-25T09:48:42Z</time>
      </trkpt>
      <trkpt lat="46.62729" lon="3.77864">
        <ele>286.7</ele>
        <time>2018-03-25T09:48:44Z</time>
      </trkpt>
      <trkpt lat="46.62727" lon="3.77851">
        <ele>286.7</ele>
        <time>2018-03-25T09:48:46Z</time>
      </trkpt>
      <trkpt lat="46.62726" lon="3.77839">
        <ele>287.4</ele>
        <time>2018-03-25T09:48:48Z</time>
      </trkpt>
      <trkpt lat="46.62723" lon="3.77828">
        <ele>288.2</ele>
        <time>2018-03-25T09:48:50Z</time>
      </trkpt>
      <trkpt lat="46.62722" lon="3.77816">
        <ele>288.7</ele>
        <time>2018-03-25T09:48:52Z</time>
      </trkpt>
      <trkpt lat="46.6272" lon="3.77804">
        <ele>288.6</ele>
        <time>2018-03-25T09:48:54Z</time>
      </trkpt>
      <trkpt lat="46.62718" lon="3.77793">
        <ele>289.4</ele>
        <time>2018-03-25T09:48:56Z</time>
      </trkpt>
      <trkpt lat="46.62716" lon="3.77781">
        <ele>289.4</ele>
        <time>2018-03-25T09:48:58Z</time>
      </trkpt>
      <trkpt lat="46.62713" lon="3.7777">
        <ele>289.5</ele>
        <time>2018-03-25T09:49:00Z</time>
      </trkpt>
      <trkpt lat="46.62709" lon="3.7776">
        <ele>290.6</ele>
        <time>2018-03-25T09:49:02Z</time>
      </trkpt>
      <trkpt lat="46.62705" lon="3.77749">
        <ele>291.5</ele>
        <time>2018-03-25T09:49:04Z</time>
      </trkpt>
      <trkpt lat="46.62703" lon="3.77744">
        <ele>291.6</ele>
        <time>2018-03-25T09:49:05Z</time>
      </trkpt>
      <trkpt lat="46.62695" lon="3.77729">
        <ele>292.1</ele>
        <time>2018-03-25T09:49:08Z</time>
      </trkpt>
      <trkpt lat="46.62691" lon="3.77719">
        <ele>292</ele>
        <time>2018-03-25T09:49:10Z</time>
      </trkpt>
      <trkpt lat="46.62686" lon="3.77709">
        <ele>291.7</ele>
        <time>2018-03-25T09:49:12Z</time>
      </trkpt>
      <trkpt lat="46.62682" lon="3.77698">
        <ele>291.5</ele>
        <time>2018-03-25T09:49:14Z</time>
      </trkpt>
      <trkpt lat="46.6268" lon="3.77692">
        <ele>291.5</ele>
        <time>2018-03-25T09:49:15Z</time>
      </trkpt>
      <trkpt lat="46.62679" lon="3.77685">
        <ele>291.7</ele>
        <time>2018-03-25T09:49:16Z</time>
      </trkpt>
      <trkpt lat="46.62678" lon="3.77679">
        <ele>291.9</ele>
        <time>2018-03-25T09:49:17Z</time>
      </trkpt>
      <trkpt lat="46.62676" lon="3.77671">
        <ele>292</ele>
        <time>2018-03-25T09:49:18Z</time>
      </trkpt>
      <trkpt lat="46.62676" lon="3.77665">
        <ele>291.7</ele>
        <time>2018-03-25T09:49:19Z</time>
      </trkpt>
      <trkpt lat="46.62675" lon="3.77658">
        <ele>291.5</ele>
        <time>2018-03-25T09:49:20Z</time>
      </trkpt>
      <trkpt lat="46.62674" lon="3.7765">
        <ele>291.1</ele>
        <time>2018-03-25T09:49:21Z</time>
      </trkpt>
      <trkpt lat="46.62673" lon="3.77642">
        <ele>290.7</ele>
        <time>2018-03-25T09:49:22Z</time>
      </trkpt>
      <trkpt lat="46.62671" lon="3.77634">
        <ele>290.5</ele>
        <time>2018-03-25T09:49:23Z</time>
      </trkpt>
      <trkpt lat="46.6267" lon="3.77625">
        <ele>290.2</ele>
        <time>2018-03-25T09:49:24Z</time>
      </trkpt>
      <trkpt lat="46.62667" lon="3.77617">
        <ele>290.1</ele>
        <time>2018-03-25T09:49:25Z</time>
      </trkpt>
      <trkpt lat="46.62664" lon="3.77609">
        <ele>290</ele>
        <time>2018-03-25T09:49:26Z</time>
      </trkpt>
      <trkpt lat="46.62661" lon="3.776">
        <ele>289.9</ele>
        <time>2018-03-25T09:49:27Z</time>
      </trkpt>
      <trkpt lat="46.62657" lon="3.77592">
        <ele>289.4</ele>
        <time>2018-03-25T09:49:28Z</time>
      </trkpt>
      <trkpt lat="46.62653" lon="3.77584">
        <ele>289</ele>
        <time>2018-03-25T09:49:29Z</time>
      </trkpt>
      <trkpt lat="46.62648" lon="3.77576">
        <ele>288.5</ele>
        <time>2018-03-25T09:49:30Z</time>
      </trkpt>
      <trkpt lat="46.62644" lon="3.77567">
        <ele>288.2</ele>
        <time>2018-03-25T09:49:31Z</time>
      </trkpt>
      <trkpt lat="46.62639" lon="3.77558">
        <ele>287.9</ele>
        <time>2018-03-25T09:49:32Z</time>
      </trkpt>
      <trkpt lat="46.62634" lon="3.7755">
        <ele>287.3</ele>
        <time>2018-03-25T09:49:33Z</time>
      </trkpt>
      <trkpt lat="46.6263" lon="3.77541">
        <ele>286.9</ele>
        <time>2018-03-25T09:49:34Z</time>
      </trkpt>
      <trkpt lat="46.62626" lon="3.77532">
        <ele>286.7</ele>
        <time>2018-03-25T09:49:35Z</time>
      </trkpt>
      <trkpt lat="46.62621" lon="3.77522">
        <ele>286.6</ele>
        <time>2018-03-25T09:49:36Z</time>
      </trkpt>
      <trkpt lat="46.62618" lon="3.77512">
        <ele>286.5</ele>
        <time>2018-03-25T09:49:37Z</time>
      </trkpt>
      <trkpt lat="46.62614" lon="3.77502">
        <ele>285.9</ele>
        <time>2018-03-25T09:49:38Z</time>
      </trkpt>
      <trkpt lat="46.6261" lon="3.77492">
        <ele>285.5</ele>
        <time>2018-03-25T09:49:39Z</time>
      </trkpt>
      <trkpt lat="46.62607" lon="3.77482">
        <ele>284.3</ele>
        <time>2018-03-25T09:49:40Z</time>
      </trkpt>
      <trkpt lat="46.62603" lon="3.77471">
        <ele>283.5</ele>
        <time>2018-03-25T09:49:41Z</time>
      </trkpt>
      <trkpt lat="46.626" lon="3.77461">
        <ele>283.1</ele>
        <time>2018-03-25T09:49:42Z</time>
      </trkpt>
      <trkpt lat="46.62596" lon="3.77451">
        <ele>282.8</ele>
        <time>2018-03-25T09:49:43Z</time>
      </trkpt>
      <trkpt lat="46.62593" lon="3.7744">
        <ele>282.6</ele>
        <time>2018-03-25T09:49:44Z</time>
      </trkpt>
      <trkpt lat="46.6259" lon="3.77431">
        <ele>281.9</ele>
        <time>2018-03-25T09:49:45Z</time>
      </trkpt>
      <trkpt lat="46.62588" lon="3.77423">
        <ele>281.5</ele>
        <time>2018-03-25T09:49:46Z</time>
      </trkpt>
      <trkpt lat="46.62586" lon="3.77412">
        <ele>280</ele>
        <time>2018-03-25T09:49:48Z</time>
      </trkpt>
      <trkpt lat="46.62584" lon="3.77403">
        <ele>278.6</ele>
        <time>2018-03-25T09:49:50Z</time>
      </trkpt>
      <trkpt lat="46.62579" lon="3.77396">
        <ele>277.5</ele>
        <time>2018-03-25T09:49:52Z</time>
      </trkpt>
      <trkpt lat="46.62573" lon="3.77387">
        <ele>277.1</ele>
        <time>2018-03-25T09:49:54Z</time>
      </trkpt>
      <trkpt lat="46.6257" lon="3.77381">
        <ele>277.2</ele>
        <time>2018-03-25T09:49:55Z</time>
      </trkpt>
      <trkpt lat="46.62567" lon="3.77375">
        <ele>277.2</ele>
        <time>2018-03-25T09:49:56Z</time>
      </trkpt>
      <trkpt lat="46.62565" lon="3.77368">
        <ele>277.2</ele>
        <time>2018-03-25T09:49:57Z</time>
      </trkpt>
      <trkpt lat="46.62562" lon="3.77361">
        <ele>277.2</ele>
        <time>2018-03-25T09:49:58Z</time>
      </trkpt>
      <trkpt lat="46.62558" lon="3.77353">
        <ele>276.7</ele>
        <time>2018-03-25T09:49:59Z</time>
      </trkpt>
      <trkpt lat="46.62555" lon="3.77346">
        <ele>276.4</ele>
        <time>2018-03-25T09:50:00Z</time>
      </trkpt>
      <trkpt lat="46.62551" lon="3.77338">
        <ele>275.7</ele>
        <time>2018-03-25T09:50:01Z</time>
      </trkpt>
      <trkpt lat="46.62547" lon="3.7733">
        <ele>275.3</ele>
        <time>2018-03-25T09:50:02Z</time>
      </trkpt>
      <trkpt lat="46.62543" lon="3.77322">
        <ele>274.9</ele>
        <time>2018-03-25T09:50:03Z</time>
      </trkpt>
      <trkpt lat="46.6254" lon="3.77314">
        <ele>274.9</ele>
        <time>2018-03-25T09:50:04Z</time>
      </trkpt>
      <trkpt lat="46.62536" lon="3.77305">
        <ele>274.9</ele>
        <time>2018-03-25T09:50:05Z</time>
      </trkpt>
      <trkpt lat="46.62532" lon="3.77297">
        <ele>274.3</ele>
        <time>2018-03-25T09:50:06Z</time>
      </trkpt>
      <trkpt lat="46.62528" lon="3.77288">
        <ele>273.9</ele>
        <time>2018-03-25T09:50:07Z</time>
      </trkpt>
      <trkpt lat="46.62525" lon="3.77279">
        <ele>273.6</ele>
        <time>2018-03-25T09:50:08Z</time>
      </trkpt>
      <trkpt lat="46.62521" lon="3.7727">
        <ele>273.3</ele>
        <time>2018-03-25T09:50:09Z</time>
      </trkpt>
      <trkpt lat="46.62517" lon="3.77261">
        <ele>273.1</ele>
        <time>2018-03-25T09:50:10Z</time>
      </trkpt>
      <trkpt lat="46.62514" lon="3.77252">
        <ele>272.9</ele>
        <time>2018-03-25T09:50:11Z</time>
      </trkpt>
      <trkpt lat="46.6251" lon="3.77243">
        <ele>272.7</ele>
        <time>2018-03-25T09:50:12Z</time>
      </trkpt>
      <trkpt lat="46.62507" lon="3.77234">
        <ele>272</ele>
        <time>2018-03-25T09:50:13Z</time>
      </trkpt>
      <trkpt lat="46.62503" lon="3.77225">
        <ele>271.4</ele>
        <time>2018-03-25T09:50:14Z</time>
      </trkpt>
      <trkpt lat="46.625" lon="3.77216">
        <ele>271</ele>
        <time>2018-03-25T09:50:15Z</time>
      </trkpt>
      <trkpt lat="46.62497" lon="3.77207">
        <ele>270.8</ele>
        <time>2018-03-25T09:50:16Z</time>
      </trkpt>
      <trkpt lat="46.62493" lon="3.77199">
        <ele>270.7</ele>
        <time>2018-03-25T09:50:17Z</time>
      </trkpt>
      <trkpt lat="46.62489" lon="3.77191">
        <ele>270.7</ele>
        <time>2018-03-25T09:50:18Z</time>
      </trkpt>
      <trkpt lat="46.62485" lon="3.77184">
        <ele>270.7</ele>
        <time>2018-03-25T09:50:19Z</time>
      </trkpt>
      <trkpt lat="46.62481" lon="3.77177">
        <ele>270.5</ele>
        <time>2018-03-25T09:50:20Z</time>
      </trkpt>
      <trkpt lat="46.62477" lon="3.7717">
        <ele>270.4</ele>
        <time>2018-03-25T09:50:21Z</time>
      </trkpt>
      <trkpt lat="46.62473" lon="3.77164">
        <ele>270.2</ele>
        <time>2018-03-25T09:50:22Z</time>
      </trkpt>
      <trkpt lat="46.62468" lon="3.77157">
        <ele>270.1</ele>
        <time>2018-03-25T09:50:23Z</time>
      </trkpt>
      <trkpt lat="46.62464" lon="3.77151">
        <ele>270.1</ele>
        <time>2018-03-25T09:50:24Z</time>
      </trkpt>
      <trkpt lat="46.62463" lon="3.77143">
        <ele>270.2</ele>
        <time>2018-03-25T09:50:25Z</time>
      </trkpt>
      <trkpt lat="46.62464" lon="3.77136">
        <ele>270.3</ele>
        <time>2018-03-25T09:50:26Z</time>
      </trkpt>
      <trkpt lat="46.62466" lon="3.77129">
        <ele>270.3</ele>
        <time>2018-03-25T09:50:27Z</time>
      </trkpt>
      <trkpt lat="46.62468" lon="3.77121">
        <ele>270.2</ele>
        <time>2018-03-25T09:50:28Z</time>
      </trkpt>
      <trkpt lat="46.62469" lon="3.77113">
        <ele>270</ele>
        <time>2018-03-25T09:50:29Z</time>
      </trkpt>
      <trkpt lat="46.62467" lon="3.77105">
        <ele>269.9</ele>
        <time>2018-03-25T09:50:30Z</time>
      </trkpt>
      <trkpt lat="46.62465" lon="3.77097">
        <ele>269.9</ele>
        <time>2018-03-25T09:50:31Z</time>
      </trkpt>
      <trkpt lat="46.62463" lon="3.77089">
        <ele>269.8</ele>
        <time>2018-03-25T09:50:32Z</time>
      </trkpt>
      <trkpt lat="46.62461" lon="3.77081">
        <ele>269.8</ele>
        <time>2018-03-25T09:50:33Z</time>
      </trkpt>
      <trkpt lat="46.62459" lon="3.77073">
        <ele>269.7</ele>
        <time>2018-03-25T09:50:34Z</time>
      </trkpt>
      <trkpt lat="46.62457" lon="3.77066">
        <ele>269.2</ele>
        <time>2018-03-25T09:50:35Z</time>
      </trkpt>
      <trkpt lat="46.62455" lon="3.77058">
        <ele>268.8</ele>
        <time>2018-03-25T09:50:36Z</time>
      </trkpt>
      <trkpt lat="46.62454" lon="3.7705">
        <ele>268.8</ele>
        <time>2018-03-25T09:50:37Z</time>
      </trkpt>
      <trkpt lat="46.62452" lon="3.77042">
        <ele>268.8</ele>
        <time>2018-03-25T09:50:38Z</time>
      </trkpt>
      <trkpt lat="46.6245" lon="3.77035">
        <ele>268.6</ele>
        <time>2018-03-25T09:50:39Z</time>
      </trkpt>
      <trkpt lat="46.62448" lon="3.77028">
        <ele>268.4</ele>
        <time>2018-03-25T09:50:40Z</time>
      </trkpt>
      <trkpt lat="46.62446" lon="3.77021">
        <ele>268.2</ele>
        <time>2018-03-25T09:50:41Z</time>
      </trkpt>
      <trkpt lat="46.62444" lon="3.77013">
        <ele>268</ele>
        <time>2018-03-25T09:50:42Z</time>
      </trkpt>
      <trkpt lat="46.62442" lon="3.77006">
        <ele>267.8</ele>
        <time>2018-03-25T09:50:43Z</time>
      </trkpt>
      <trkpt lat="46.62441" lon="3.76998">
        <ele>268.1</ele>
        <time>2018-03-25T09:50:44Z</time>
      </trkpt>
      <trkpt lat="46.62439" lon="3.7699">
        <ele>268.3</ele>
        <time>2018-03-25T09:50:45Z</time>
      </trkpt>
      <trkpt lat="46.62437" lon="3.76982">
        <ele>268</ele>
        <time>2018-03-25T09:50:46Z</time>
      </trkpt>
      <trkpt lat="46.62435" lon="3.76973">
        <ele>267.7</ele>
        <time>2018-03-25T09:50:47Z</time>
      </trkpt>
      <trkpt lat="46.62434" lon="3.76965">
        <ele>267.5</ele>
        <time>2018-03-25T09:50:48Z</time>
      </trkpt>
      <trkpt lat="46.62432" lon="3.76956">
        <ele>267.3</ele>
        <time>2018-03-25T09:50:49Z</time>
      </trkpt>
      <trkpt lat="46.62431" lon="3.76948">
        <ele>267.1</ele>
        <time>2018-03-25T09:50:50Z</time>
      </trkpt>
      <trkpt lat="46.6243" lon="3.76939">
        <ele>267.1</ele>
        <time>2018-03-25T09:50:51Z</time>
      </trkpt>
      <trkpt lat="46.62429" lon="3.76931">
        <ele>267</ele>
        <time>2018-03-25T09:50:52Z</time>
      </trkpt>
      <trkpt lat="46.62427" lon="3.76923">
        <ele>267</ele>
        <time>2018-03-25T09:50:53Z</time>
      </trkpt>
      <trkpt lat="46.62426" lon="3.76915">
        <ele>266.9</ele>
        <time>2018-03-25T09:50:54Z</time>
      </trkpt>
      <trkpt lat="46.62425" lon="3.76906">
        <ele>266.8</ele>
        <time>2018-03-25T09:50:55Z</time>
      </trkpt>
      <trkpt lat="46.62423" lon="3.76898">
        <ele>266.8</ele>
        <time>2018-03-25T09:50:56Z</time>
      </trkpt>
      <trkpt lat="46.62422" lon="3.7689">
        <ele>266.8</ele>
        <time>2018-03-25T09:50:57Z</time>
      </trkpt>
      <trkpt lat="46.6242" lon="3.76882">
        <ele>266.7</ele>
        <time>2018-03-25T09:50:58Z</time>
      </trkpt>
      <trkpt lat="46.62417" lon="3.76874">
        <ele>266.7</ele>
        <time>2018-03-25T09:50:59Z</time>
      </trkpt>
      <trkpt lat="46.62414" lon="3.76867">
        <ele>266.6</ele>
        <time>2018-03-25T09:51:00Z</time>
      </trkpt>
      <trkpt lat="46.6241" lon="3.7686">
        <ele>266.8</ele>
        <time>2018-03-25T09:51:01Z</time>
      </trkpt>
      <trkpt lat="46.62406" lon="3.76855">
        <ele>267</ele>
        <time>2018-03-25T09:51:02Z</time>
      </trkpt>
      <trkpt lat="46.62401" lon="3.76851">
        <ele>266.5</ele>
        <time>2018-03-25T09:51:03Z</time>
      </trkpt>
      <trkpt lat="46.62396" lon="3.76848">
        <ele>266.2</ele>
        <time>2018-03-25T09:51:04Z</time>
      </trkpt>
      <trkpt lat="46.62391" lon="3.76846">
        <ele>266.1</ele>
        <time>2018-03-25T09:51:05Z</time>
      </trkpt>
      <trkpt lat="46.62386" lon="3.76845">
        <ele>266</ele>
        <time>2018-03-25T09:51:06Z</time>
      </trkpt>
      <trkpt lat="46.6238" lon="3.76844">
        <ele>265.9</ele>
        <time>2018-03-25T09:51:07Z</time>
      </trkpt>
      <trkpt lat="46.62373" lon="3.76844">
        <ele>265.9</ele>
        <time>2018-03-25T09:51:08Z</time>
      </trkpt>
      <trkpt lat="46.62367" lon="3.76843">
        <ele>265.9</ele>
        <time>2018-03-25T09:51:09Z</time>
      </trkpt>
      <trkpt lat="46.62359" lon="3.76842">
        <ele>265</ele>
        <time>2018-03-25T09:51:11Z</time>
      </trkpt>
      <trkpt lat="46.62352" lon="3.7684">
        <ele>264.2</ele>
        <time>2018-03-25T09:51:13Z</time>
      </trkpt>
      <trkpt lat="46.62343" lon="3.7684">
        <ele>263.4</ele>
        <time>2018-03-25T09:51:15Z</time>
      </trkpt>
      <trkpt lat="46.62338" lon="3.7684">
        <ele>263.1</ele>
        <time>2018-03-25T09:51:16Z</time>
      </trkpt>
      <trkpt lat="46.62333" lon="3.7684">
        <ele>262.7</ele>
        <time>2018-03-25T09:51:17Z</time>
      </trkpt>
      <trkpt lat="46.62327" lon="3.7684">
        <ele>262.4</ele>
        <time>2018-03-25T09:51:18Z</time>
      </trkpt>
      <trkpt lat="46.62321" lon="3.76839">
        <ele>262.1</ele>
        <time>2018-03-25T09:51:19Z</time>
      </trkpt>
      <trkpt lat="46.62315" lon="3.76839">
        <ele>262.3</ele>
        <time>2018-03-25T09:51:20Z</time>
      </trkpt>
      <trkpt lat="46.62308" lon="3.76839">
        <ele>262.4</ele>
        <time>2018-03-25T09:51:21Z</time>
      </trkpt>
      <trkpt lat="46.62301" lon="3.76837">
        <ele>261.9</ele>
        <time>2018-03-25T09:51:22Z</time>
      </trkpt>
      <trkpt lat="46.62294" lon="3.76833">
        <ele>261.6</ele>
        <time>2018-03-25T09:51:23Z</time>
      </trkpt>
      <trkpt lat="46.62287" lon="3.76828">
        <ele>260.7</ele>
        <time>2018-03-25T09:51:24Z</time>
      </trkpt>
      <trkpt lat="46.62281" lon="3.76824">
        <ele>260</ele>
        <time>2018-03-25T09:51:25Z</time>
      </trkpt>
      <trkpt lat="46.62276" lon="3.7682">
        <ele>259.5</ele>
        <time>2018-03-25T09:51:26Z</time>
      </trkpt>
      <trkpt lat="46.62269" lon="3.76812">
        <ele>257.9</ele>
        <time>2018-03-25T09:51:28Z</time>
      </trkpt>
      <trkpt lat="46.62266" lon="3.76807">
        <ele>257.4</ele>
        <time>2018-03-25T09:51:29Z</time>
      </trkpt>
      <trkpt lat="46.62262" lon="3.76802">
        <ele>257.1</ele>
        <time>2018-03-25T09:51:30Z</time>
      </trkpt>
      <trkpt lat="46.62258" lon="3.76797">
        <ele>256.9</ele>
        <time>2018-03-25T09:51:31Z</time>
      </trkpt>
      <trkpt lat="46.62253" lon="3.76793">
        <ele>256.9</ele>
        <time>2018-03-25T09:51:32Z</time>
      </trkpt>
      <trkpt lat="46.62248" lon="3.76789">
        <ele>257</ele>
        <time>2018-03-25T09:51:33Z</time>
      </trkpt>
      <trkpt lat="46.62242" lon="3.76785">
        <ele>256.4</ele>
        <time>2018-03-25T09:51:34Z</time>
      </trkpt>
      <trkpt lat="46.62236" lon="3.76781">
        <ele>255.9</ele>
        <time>2018-03-25T09:51:35Z</time>
      </trkpt>
      <trkpt lat="46.62229" lon="3.76777">
        <ele>255.5</ele>
        <time>2018-03-25T09:51:36Z</time>
      </trkpt>
      <trkpt lat="46.62221" lon="3.76774">
        <ele>255.2</ele>
        <time>2018-03-25T09:51:37Z</time>
      </trkpt>
      <trkpt lat="46.62213" lon="3.7677">
        <ele>255</ele>
        <time>2018-03-25T09:51:38Z</time>
      </trkpt>
      <trkpt lat="46.62205" lon="3.76767">
        <ele>254.6</ele>
        <time>2018-03-25T09:51:39Z</time>
      </trkpt>
      <trkpt lat="46.62197" lon="3.76763">
        <ele>254.2</ele>
        <time>2018-03-25T09:51:40Z</time>
      </trkpt>
      <trkpt lat="46.62189" lon="3.76759">
        <ele>254.2</ele>
        <time>2018-03-25T09:51:41Z</time>
      </trkpt>
      <trkpt lat="46.6218" lon="3.76755">
        <ele>254.2</ele>
        <time>2018-03-25T09:51:42Z</time>
      </trkpt>
      <trkpt lat="46.62172" lon="3.76751">
        <ele>253.7</ele>
        <time>2018-03-25T09:51:43Z</time>
      </trkpt>
      <trkpt lat="46.62163" lon="3.76746">
        <ele>253.3</ele>
        <time>2018-03-25T09:51:44Z</time>
      </trkpt>
      <trkpt lat="46.62154" lon="3.76742">
        <ele>253</ele>
        <time>2018-03-25T09:51:45Z</time>
      </trkpt>
      <trkpt lat="46.62145" lon="3.76737">
        <ele>252.2</ele>
        <time>2018-03-25T09:51:46Z</time>
      </trkpt>
      <trkpt lat="46.62136" lon="3.76733">
        <ele>251.5</ele>
        <time>2018-03-25T09:51:47Z</time>
      </trkpt>
      <trkpt lat="46.62126" lon="3.76728">
        <ele>250.3</ele>
        <time>2018-03-25T09:51:48Z</time>
      </trkpt>
      <trkpt lat="46.62117" lon="3.76724">
        <ele>249.4</ele>
        <time>2018-03-25T09:51:49Z</time>
      </trkpt>
      <trkpt lat="46.62108" lon="3.7672">
        <ele>248.8</ele>
        <time>2018-03-25T09:51:50Z</time>
      </trkpt>
      <trkpt lat="46.621" lon="3.76717">
        <ele>248.2</ele>
        <time>2018-03-25T09:51:51Z</time>
      </trkpt>
      <trkpt lat="46.62093" lon="3.76714">
        <ele>247.7</ele>
        <time>2018-03-25T09:51:52Z</time>
      </trkpt>
      <trkpt lat="46.62087" lon="3.76711">
        <ele>246.7</ele>
        <time>2018-03-25T09:51:53Z</time>
      </trkpt>
      <trkpt lat="46.62083" lon="3.76706">
        <ele>246</ele>
        <time>2018-03-25T09:51:54Z</time>
      </trkpt>
      <trkpt lat="46.62082" lon="3.76698">
        <ele>245.1</ele>
        <time>2018-03-25T09:51:55Z</time>
      </trkpt>
      <trkpt lat="46.62083" lon="3.76688">
        <ele>244.5</ele>
        <time>2018-03-25T09:51:56Z</time>
      </trkpt>
      <trkpt lat="46.62085" lon="3.76679">
        <ele>244</ele>
        <time>2018-03-25T09:51:57Z</time>
      </trkpt>
      <trkpt lat="46.62088" lon="3.76669">
        <ele>243.6</ele>
        <time>2018-03-25T09:51:58Z</time>
      </trkpt>
      <trkpt lat="46.62091" lon="3.76659">
        <ele>243.3</ele>
        <time>2018-03-25T09:51:59Z</time>
      </trkpt>
      <trkpt lat="46.62095" lon="3.7665">
        <ele>243</ele>
        <time>2018-03-25T09:52:00Z</time>
      </trkpt>
      <trkpt lat="46.62098" lon="3.76639">
        <ele>242.8</ele>
        <time>2018-03-25T09:52:01Z</time>
      </trkpt>
      <trkpt lat="46.62101" lon="3.76628">
        <ele>242.1</ele>
        <time>2018-03-25T09:52:02Z</time>
      </trkpt>
      <trkpt lat="46.62103" lon="3.76617">
        <ele>241.6</ele>
        <time>2018-03-25T09:52:03Z</time>
      </trkpt>
      <trkpt lat="46.62106" lon="3.76606">
        <ele>241.2</ele>
        <time>2018-03-25T09:52:04Z</time>
      </trkpt>
      <trkpt lat="46.62108" lon="3.76595">
        <ele>240.6</ele>
        <time>2018-03-25T09:52:05Z</time>
      </trkpt>
      <trkpt lat="46.62111" lon="3.76583">
        <ele>240.1</ele>
        <time>2018-03-25T09:52:06Z</time>
      </trkpt>
      <trkpt lat="46.62113" lon="3.76571">
        <ele>239.6</ele>
        <time>2018-03-25T09:52:07Z</time>
      </trkpt>
      <trkpt lat="46.62115" lon="3.76559">
        <ele>239.1</ele>
        <time>2018-03-25T09:52:08Z</time>
      </trkpt>
      <trkpt lat="46.62118" lon="3.76547">
        <ele>238.8</ele>
        <time>2018-03-25T09:52:09Z</time>
      </trkpt>
      <trkpt lat="46.62119" lon="3.76535">
        <ele>238.8</ele>
        <time>2018-03-25T09:52:10Z</time>
      </trkpt>
      <trkpt lat="46.6212" lon="3.76522">
        <ele>238.7</ele>
        <time>2018-03-25T09:52:11Z</time>
      </trkpt>
      <trkpt lat="46.6212" lon="3.7651">
        <ele>238.2</ele>
        <time>2018-03-25T09:52:12Z</time>
      </trkpt>
      <trkpt lat="46.6212" lon="3.76497">
        <ele>237.8</ele>
        <time>2018-03-25T09:52:13Z</time>
      </trkpt>
      <trkpt lat="46.6212" lon="3.76485">
        <ele>236.9</ele>
        <time>2018-03-25T09:52:14Z</time>
      </trkpt>
      <trkpt lat="46.62119" lon="3.76472">
        <ele>236.1</ele>
        <time>2018-03-25T09:52:15Z</time>
      </trkpt>
      <trkpt lat="46.62119" lon="3.76459">
        <ele>235.6</ele>
        <time>2018-03-25T09:52:16Z</time>
      </trkpt>
      <trkpt lat="46.62119" lon="3.76446">
        <ele>235.1</ele>
        <time>2018-03-25T09:52:17Z</time>
      </trkpt>
      <trkpt lat="46.6212" lon="3.76434">
        <ele>234.8</ele>
        <time>2018-03-25T09:52:18Z</time>
      </trkpt>
      <trkpt lat="46.62121" lon="3.76421">
        <ele>234.2</ele>
        <time>2018-03-25T09:52:19Z</time>
      </trkpt>
      <trkpt lat="46.62123" lon="3.7641">
        <ele>233.7</ele>
        <time>2018-03-25T09:52:20Z</time>
      </trkpt>
      <trkpt lat="46.62127" lon="3.76399">
        <ele>233.5</ele>
        <time>2018-03-25T09:52:21Z</time>
      </trkpt>
      <trkpt lat="46.62131" lon="3.7639">
        <ele>233.4</ele>
        <time>2018-03-25T09:52:22Z</time>
      </trkpt>
      <trkpt lat="46.62135" lon="3.76381">
        <ele>233.3</ele>
        <time>2018-03-25T09:52:23Z</time>
      </trkpt>
      <trkpt lat="46.6214" lon="3.76373">
        <ele>233</ele>
        <time>2018-03-25T09:52:24Z</time>
      </trkpt>
      <trkpt lat="46.62144" lon="3.76365">
        <ele>232.8</ele>
        <time>2018-03-25T09:52:25Z</time>
      </trkpt>
      <trkpt lat="46.62148" lon="3.76358">
        <ele>232.7</ele>
        <time>2018-03-25T09:52:26Z</time>
      </trkpt>
      <trkpt lat="46.62152" lon="3.7635">
        <ele>232.6</ele>
        <time>2018-03-25T09:52:27Z</time>
      </trkpt>
      <trkpt lat="46.62153" lon="3.76341">
        <ele>232.5</ele>
        <time>2018-03-25T09:52:28Z</time>
      </trkpt>
      <trkpt lat="46.62155" lon="3.76333">
        <ele>232.1</ele>
        <time>2018-03-25T09:52:29Z</time>
      </trkpt>
      <trkpt lat="46.62158" lon="3.76325">
        <ele>231.7</ele>
        <time>2018-03-25T09:52:30Z</time>
      </trkpt>
      <trkpt lat="46.62162" lon="3.76318">
        <ele>231.7</ele>
        <time>2018-03-25T09:52:31Z</time>
      </trkpt>
      <trkpt lat="46.62167" lon="3.76312">
        <ele>231.6</ele>
        <time>2018-03-25T09:52:32Z</time>
      </trkpt>
      <trkpt lat="46.62171" lon="3.76304">
        <ele>231.3</ele>
        <time>2018-03-25T09:52:33Z</time>
      </trkpt>
      <trkpt lat="46.62173" lon="3.76295">
        <ele>231</ele>
        <time>2018-03-25T09:52:34Z</time>
      </trkpt>
      <trkpt lat="46.62177" lon="3.76287">
        <ele>230.8</ele>
        <time>2018-03-25T09:52:35Z</time>
      </trkpt>
      <trkpt lat="46.6218" lon="3.76279">
        <ele>230.4</ele>
        <time>2018-03-25T09:52:36Z</time>
      </trkpt>
      <trkpt lat="46.62183" lon="3.76271">
        <ele>230</ele>
        <time>2018-03-25T09:52:37Z</time>
      </trkpt>
      <trkpt lat="46.62184" lon="3.76262">
        <ele>230.1</ele>
        <time>2018-03-25T09:52:38Z</time>
      </trkpt>
      <trkpt lat="46.62184" lon="3.76254">
        <ele>230.1</ele>
        <time>2018-03-25T09:52:39Z</time>
      </trkpt>
      <trkpt lat="46.62185" lon="3.76246">
        <ele>230.2</ele>
        <time>2018-03-25T09:52:40Z</time>
      </trkpt>
      <trkpt lat="46.62188" lon="3.76239">
        <ele>230.3</ele>
        <time>2018-03-25T09:52:41Z</time>
      </trkpt>
      <trkpt lat="46.62191" lon="3.76232">
        <ele>230.3</ele>
        <time>2018-03-25T09:52:42Z</time>
      </trkpt>
      <trkpt lat="46.62193" lon="3.76224">
        <ele>230.2</ele>
        <time>2018-03-25T09:52:43Z</time>
      </trkpt>
      <trkpt lat="46.62195" lon="3.76216">
        <ele>230.1</ele>
        <time>2018-03-25T09:52:44Z</time>
      </trkpt>
      <trkpt lat="46.62196" lon="3.76207">
        <ele>230.6</ele>
        <time>2018-03-25T09:52:45Z</time>
      </trkpt>
      <trkpt lat="46.62198" lon="3.76199">
        <ele>231.1</ele>
        <time>2018-03-25T09:52:46Z</time>
      </trkpt>
      <trkpt lat="46.62199" lon="3.7619">
        <ele>231.4</ele>
        <time>2018-03-25T09:52:47Z</time>
      </trkpt>
      <trkpt lat="46.62201" lon="3.76181">
        <ele>231.7</ele>
        <time>2018-03-25T09:52:48Z</time>
      </trkpt>
      <trkpt lat="46.62203" lon="3.76172">
        <ele>231.8</ele>
        <time>2018-03-25T09:52:49Z</time>
      </trkpt>
      <trkpt lat="46.62205" lon="3.76163">
        <ele>231.9</ele>
        <time>2018-03-25T09:52:50Z</time>
      </trkpt>
      <trkpt lat="46.62207" lon="3.76154">
        <ele>231.9</ele>
        <time>2018-03-25T09:52:51Z</time>
      </trkpt>
      <trkpt lat="46.62208" lon="3.76146">
        <ele>231.6</ele>
        <time>2018-03-25T09:52:52Z</time>
      </trkpt>
      <trkpt lat="46.62211" lon="3.76137">
        <ele>231.3</ele>
        <time>2018-03-25T09:52:53Z</time>
      </trkpt>
      <trkpt lat="46.62213" lon="3.76129">
        <ele>231.2</ele>
        <time>2018-03-25T09:52:54Z</time>
      </trkpt>
      <trkpt lat="46.62215" lon="3.76121">
        <ele>230.6</ele>
        <time>2018-03-25T09:52:55Z</time>
      </trkpt>
      <trkpt lat="46.62217" lon="3.76113">
        <ele>230.2</ele>
        <time>2018-03-25T09:52:56Z</time>
      </trkpt>
      <trkpt lat="46.6222" lon="3.76105">
        <ele>230.4</ele>
        <time>2018-03-25T09:52:57Z</time>
      </trkpt>
      <trkpt lat="46.62222" lon="3.76096">
        <ele>230.4</ele>
        <time>2018-03-25T09:52:58Z</time>
      </trkpt>
      <trkpt lat="46.62224" lon="3.76088">
        <ele>230.4</ele>
        <time>2018-03-25T09:52:59Z</time>
      </trkpt>
      <trkpt lat="46.62226" lon="3.7608">
        <ele>230.4</ele>
        <time>2018-03-25T09:53:00Z</time>
      </trkpt>
      <trkpt lat="46.62228" lon="3.76071">
        <ele>230.4</ele>
        <time>2018-03-25T09:53:01Z</time>
      </trkpt>
      <trkpt lat="46.62231" lon="3.76062">
        <ele>230.3</ele>
        <time>2018-03-25T09:53:02Z</time>
      </trkpt>
      <trkpt lat="46.62234" lon="3.76054">
        <ele>230.2</ele>
        <time>2018-03-25T09:53:03Z</time>
      </trkpt>
      <trkpt lat="46.62235" lon="3.76044">
        <ele>230.1</ele>
        <time>2018-03-25T09:53:04Z</time>
      </trkpt>
      <trkpt lat="46.62235" lon="3.76035">
        <ele>230</ele>
        <time>2018-03-25T09:53:05Z</time>
      </trkpt>
      <trkpt lat="46.62235" lon="3.76026">
        <ele>230</ele>
        <time>2018-03-25T09:53:06Z</time>
      </trkpt>
      <trkpt lat="46.62235" lon="3.76017">
        <ele>230.1</ele>
        <time>2018-03-25T09:53:07Z</time>
      </trkpt>
      <trkpt lat="46.62236" lon="3.76008">
        <ele>230.2</ele>
        <time>2018-03-25T09:53:08Z</time>
      </trkpt>
      <trkpt lat="46.62236" lon="3.76">
        <ele>230.1</ele>
        <time>2018-03-25T09:53:09Z</time>
      </trkpt>
      <trkpt lat="46.62237" lon="3.75992">
        <ele>230</ele>
        <time>2018-03-25T09:53:10Z</time>
      </trkpt>
      <trkpt lat="46.62237" lon="3.75984">
        <ele>229.8</ele>
        <time>2018-03-25T09:53:11Z</time>
      </trkpt>
      <trkpt lat="46.62238" lon="3.75976">
        <ele>229.6</ele>
        <time>2018-03-25T09:53:12Z</time>
      </trkpt>
      <trkpt lat="46.62238" lon="3.75968">
        <ele>229.5</ele>
        <time>2018-03-25T09:53:13Z</time>
      </trkpt>
      <trkpt lat="46.62239" lon="3.7596">
        <ele>230.1</ele>
        <time>2018-03-25T09:53:14Z</time>
      </trkpt>
      <trkpt lat="46.6224" lon="3.75953">
        <ele>230.5</ele>
        <time>2018-03-25T09:53:15Z</time>
      </trkpt>
      <trkpt lat="46.6224" lon="3.75945">
        <ele>230.2</ele>
        <time>2018-03-25T09:53:16Z</time>
      </trkpt>
      <trkpt lat="46.62242" lon="3.75937">
        <ele>230.1</ele>
        <time>2018-03-25T09:53:17Z</time>
      </trkpt>
      <trkpt lat="46.62243" lon="3.7593">
        <ele>229.7</ele>
        <time>2018-03-25T09:53:18Z</time>
      </trkpt>
      <trkpt lat="46.62244" lon="3.75923">
        <ele>229.4</ele>
        <time>2018-03-25T09:53:19Z</time>
      </trkpt>
      <trkpt lat="46.62245" lon="3.75916">
        <ele>229.2</ele>
        <time>2018-03-25T09:53:20Z</time>
      </trkpt>
      <trkpt lat="46.62246" lon="3.75908">
        <ele>229.3</ele>
        <time>2018-03-25T09:53:21Z</time>
      </trkpt>
      <trkpt lat="46.62247" lon="3.75902">
        <ele>229.4</ele>
        <time>2018-03-25T09:53:22Z</time>
      </trkpt>
      <trkpt lat="46.62247" lon="3.75895">
        <ele>229.3</ele>
        <time>2018-03-25T09:53:23Z</time>
      </trkpt>
      <trkpt lat="46.62248" lon="3.75888">
        <ele>229.2</ele>
        <time>2018-03-25T09:53:24Z</time>
      </trkpt>
      <trkpt lat="46.62248" lon="3.75881">
        <ele>229.1</ele>
        <time>2018-03-25T09:53:25Z</time>
      </trkpt>
      <trkpt lat="46.62249" lon="3.75875">
        <ele>229.4</ele>
        <time>2018-03-25T09:53:26Z</time>
      </trkpt>
      <trkpt lat="46.62249" lon="3.75868">
        <ele>229.7</ele>
        <time>2018-03-25T09:53:27Z</time>
      </trkpt>
      <trkpt lat="46.62251" lon="3.75861">
        <ele>229.6</ele>
        <time>2018-03-25T09:53:28Z</time>
      </trkpt>
      <trkpt lat="46.62252" lon="3.75854">
        <ele>229.5</ele>
        <time>2018-03-25T09:53:29Z</time>
      </trkpt>
      <trkpt lat="46.62254" lon="3.75846">
        <ele>229</ele>
        <time>2018-03-25T09:53:30Z</time>
      </trkpt>
      <trkpt lat="46.62254" lon="3.75838">
        <ele>228.7</ele>
        <time>2018-03-25T09:53:31Z</time>
      </trkpt>
      <trkpt lat="46.62255" lon="3.7583">
        <ele>228.4</ele>
        <time>2018-03-25T09:53:32Z</time>
      </trkpt>
      <trkpt lat="46.62255" lon="3.75823">
        <ele>228.1</ele>
        <time>2018-03-25T09:53:33Z</time>
      </trkpt>
      <trkpt lat="46.62257" lon="3.75815">
        <ele>227.9</ele>
        <time>2018-03-25T09:53:34Z</time>
      </trkpt>
      <trkpt lat="46.62259" lon="3.75807">
        <ele>227.9</ele>
        <time>2018-03-25T09:53:35Z</time>
      </trkpt>
      <trkpt lat="46.62262" lon="3.75801">
        <ele>228</ele>
        <time>2018-03-25T09:53:36Z</time>
      </trkpt>
      <trkpt lat="46.62267" lon="3.75796">
        <ele>228.1</ele>
        <time>2018-03-25T09:53:37Z</time>
      </trkpt>
      <trkpt lat="46.62272" lon="3.75793">
        <ele>228.2</ele>
        <time>2018-03-25T09:53:38Z</time>
      </trkpt>
      <trkpt lat="46.62277" lon="3.75789">
        <ele>228.3</ele>
        <time>2018-03-25T09:53:39Z</time>
      </trkpt>
      <trkpt lat="46.62279" lon="3.75782">
        <ele>228.7</ele>
        <time>2018-03-25T09:53:40Z</time>
      </trkpt>
      <trkpt lat="46.62279" lon="3.75775">
        <ele>229</ele>
        <time>2018-03-25T09:53:41Z</time>
      </trkpt>
      <trkpt lat="46.62276" lon="3.75768">
        <ele>229</ele>
        <time>2018-03-25T09:53:42Z</time>
      </trkpt>
      <trkpt lat="46.62274" lon="3.7576">
        <ele>229.1</ele>
        <time>2018-03-25T09:53:43Z</time>
      </trkpt>
      <trkpt lat="46.62273" lon="3.75751">
        <ele>229.1</ele>
        <time>2018-03-25T09:53:44Z</time>
      </trkpt>
      <trkpt lat="46.62272" lon="3.75743">
        <ele>229</ele>
        <time>2018-03-25T09:53:45Z</time>
      </trkpt>
      <trkpt lat="46.62272" lon="3.75735">
        <ele>228.9</ele>
        <time>2018-03-25T09:53:46Z</time>
      </trkpt>
      <trkpt lat="46.62272" lon="3.75727">
        <ele>228.9</ele>
        <time>2018-03-25T09:53:47Z</time>
      </trkpt>
      <trkpt lat="46.62273" lon="3.75719">
        <ele>228.9</ele>
        <time>2018-03-25T09:53:48Z</time>
      </trkpt>
      <trkpt lat="46.62274" lon="3.7571">
        <ele>228.4</ele>
        <time>2018-03-25T09:53:49Z</time>
      </trkpt>
      <trkpt lat="46.62275" lon="3.75702">
        <ele>228.1</ele>
        <time>2018-03-25T09:53:50Z</time>
      </trkpt>
      <trkpt lat="46.62276" lon="3.75694">
        <ele>227.9</ele>
        <time>2018-03-25T09:53:51Z</time>
      </trkpt>
      <trkpt lat="46.62277" lon="3.75686">
        <ele>227.9</ele>
        <time>2018-03-25T09:53:52Z</time>
      </trkpt>
      <trkpt lat="46.62278" lon="3.75679">
        <ele>227.9</ele>
        <time>2018-03-25T09:53:53Z</time>
      </trkpt>
      <trkpt lat="46.62279" lon="3.75672">
        <ele>228.4</ele>
        <time>2018-03-25T09:53:54Z</time>
      </trkpt>
      <trkpt lat="46.62281" lon="3.75664">
        <ele>228.8</ele>
        <time>2018-03-25T09:53:55Z</time>
      </trkpt>
      <trkpt lat="46.62281" lon="3.75655">
        <ele>228.7</ele>
        <time>2018-03-25T09:53:56Z</time>
      </trkpt>
      <trkpt lat="46.62282" lon="3.75647">
        <ele>228.6</ele>
        <time>2018-03-25T09:53:57Z</time>
      </trkpt>
      <trkpt lat="46.62283" lon="3.75639">
        <ele>228.6</ele>
        <time>2018-03-25T09:53:58Z</time>
      </trkpt>
      <trkpt lat="46.62284" lon="3.75631">
        <ele>228.9</ele>
        <time>2018-03-25T09:53:59Z</time>
      </trkpt>
      <trkpt lat="46.62284" lon="3.75623">
        <ele>229.1</ele>
        <time>2018-03-25T09:54:00Z</time>
      </trkpt>
      <trkpt lat="46.62284" lon="3.75615">
        <ele>229.4</ele>
        <time>2018-03-25T09:54:01Z</time>
      </trkpt>
      <trkpt lat="46.62284" lon="3.75607">
        <ele>229.6</ele>
        <time>2018-03-25T09:54:02Z</time>
      </trkpt>
      <trkpt lat="46.62284" lon="3.75599">
        <ele>229.8</ele>
        <time>2018-03-25T09:54:03Z</time>
      </trkpt>
      <trkpt lat="46.62283" lon="3.75592">
        <ele>229.9</ele>
        <time>2018-03-25T09:54:04Z</time>
      </trkpt>
      <trkpt lat="46.62282" lon="3.75584">
        <ele>230</ele>
        <time>2018-03-25T09:54:05Z</time>
      </trkpt>
      <trkpt lat="46.6228" lon="3.75577">
        <ele>229.9</ele>
        <time>2018-03-25T09:54:06Z</time>
      </trkpt>
      <trkpt lat="46.62278" lon="3.7557">
        <ele>229.9</ele>
        <time>2018-03-25T09:54:07Z</time>
      </trkpt>
      <trkpt lat="46.62277" lon="3.75563">
        <ele>229.5</ele>
        <time>2018-03-25T09:54:08Z</time>
      </trkpt>
      <trkpt lat="46.62276" lon="3.75556">
        <ele>229.1</ele>
        <time>2018-03-25T09:54:09Z</time>
      </trkpt>
      <trkpt lat="46.62275" lon="3.75549">
        <ele>228.8</ele>
        <time>2018-03-25T09:54:10Z</time>
      </trkpt>
      <trkpt lat="46.62275" lon="3.75542">
        <ele>228.9</ele>
        <time>2018-03-25T09:54:11Z</time>
      </trkpt>
      <trkpt lat="46.62275" lon="3.75535">
        <ele>229</ele>
        <time>2018-03-25T09:54:12Z</time>
      </trkpt>
      <trkpt lat="46.62275" lon="3.75527">
        <ele>229</ele>
        <time>2018-03-25T09:54:13Z</time>
      </trkpt>
      <trkpt lat="46.62275" lon="3.75519">
        <ele>229</ele>
        <time>2018-03-25T09:54:14Z</time>
      </trkpt>
      <trkpt lat="46.62275" lon="3.75511">
        <ele>228.4</ele>
        <time>2018-03-25T09:54:15Z</time>
      </trkpt>
      <trkpt lat="46.62275" lon="3.75504">
        <ele>228</ele>
        <time>2018-03-25T09:54:16Z</time>
      </trkpt>
      <trkpt lat="46.62275" lon="3.75496">
        <ele>227.7</ele>
        <time>2018-03-25T09:54:17Z</time>
      </trkpt>
      <trkpt lat="46.62275" lon="3.75489">
        <ele>227.6</ele>
        <time>2018-03-25T09:54:18Z</time>
      </trkpt>
      <trkpt lat="46.62274" lon="3.75481">
        <ele>227.6</ele>
        <time>2018-03-25T09:54:19Z</time>
      </trkpt>
      <trkpt lat="46.62273" lon="3.75473">
        <ele>227.7</ele>
        <time>2018-03-25T09:54:20Z</time>
      </trkpt>
      <trkpt lat="46.62272" lon="3.75466">
        <ele>227.9</ele>
        <time>2018-03-25T09:54:21Z</time>
      </trkpt>
      <trkpt lat="46.62271" lon="3.75458">
        <ele>228.1</ele>
        <time>2018-03-25T09:54:22Z</time>
      </trkpt>
      <trkpt lat="46.6227" lon="3.7545">
        <ele>228.3</ele>
        <time>2018-03-25T09:54:23Z</time>
      </trkpt>
      <trkpt lat="46.62269" lon="3.75442">
        <ele>228.5</ele>
        <time>2018-03-25T09:54:24Z</time>
      </trkpt>
      <trkpt lat="46.62267" lon="3.75434">
        <ele>228.6</ele>
        <time>2018-03-25T09:54:25Z</time>
      </trkpt>
      <trkpt lat="46.62266" lon="3.75427">
        <ele>228.6</ele>
        <time>2018-03-25T09:54:26Z</time>
      </trkpt>
      <trkpt lat="46.62264" lon="3.7542">
        <ele>229</ele>
        <time>2018-03-25T09:54:27Z</time>
      </trkpt>
      <trkpt lat="46.62262" lon="3.75413">
        <ele>229.3</ele>
        <time>2018-03-25T09:54:28Z</time>
      </trkpt>
      <trkpt lat="46.6226" lon="3.75407">
        <ele>229.5</ele>
        <time>2018-03-25T09:54:29Z</time>
      </trkpt>
      <trkpt lat="46.62259" lon="3.75399">
        <ele>229.1</ele>
        <time>2018-03-25T09:54:30Z</time>
      </trkpt>
      <trkpt lat="46.62257" lon="3.75392">
        <ele>228.9</ele>
        <time>2018-03-25T09:54:31Z</time>
      </trkpt>
      <trkpt lat="46.62255" lon="3.75386">
        <ele>228.7</ele>
        <time>2018-03-25T09:54:32Z</time>
      </trkpt>
      <trkpt lat="46.62252" lon="3.7538">
        <ele>228.5</ele>
        <time>2018-03-25T09:54:33Z</time>
      </trkpt>
      <trkpt lat="46.62248" lon="3.75374">
        <ele>228</ele>
        <time>2018-03-25T09:54:34Z</time>
      </trkpt>
      <trkpt lat="46.62245" lon="3.75369">
        <ele>227.7</ele>
        <time>2018-03-25T09:54:35Z</time>
      </trkpt>
      <trkpt lat="46.62242" lon="3.75363">
        <ele>227.4</ele>
        <time>2018-03-25T09:54:36Z</time>
      </trkpt>
      <trkpt lat="46.62239" lon="3.75358">
        <ele>227.5</ele>
        <time>2018-03-25T09:54:37Z</time>
      </trkpt>
      <trkpt lat="46.62232" lon="3.7535">
        <ele>228.2</ele>
        <time>2018-03-25T09:54:39Z</time>
      </trkpt>
      <trkpt lat="46.62225" lon="3.75345">
        <ele>228.8</ele>
        <time>2018-03-25T09:54:41Z</time>
      </trkpt>
      <trkpt lat="46.62217" lon="3.75338">
        <ele>229</ele>
        <time>2018-03-25T09:54:43Z</time>
      </trkpt>
      <trkpt lat="46.62211" lon="3.75331">
        <ele>228.5</ele>
        <time>2018-03-25T09:54:45Z</time>
      </trkpt>
      <trkpt lat="46.62207" lon="3.75321">
        <ele>228.5</ele>
        <time>2018-03-25T09:54:47Z</time>
      </trkpt>
      <trkpt lat="46.62206" lon="3.75311">
        <ele>228.4</ele>
        <time>2018-03-25T09:54:49Z</time>
      </trkpt>
      <trkpt lat="46.62206" lon="3.753">
        <ele>228.3</ele>
        <time>2018-03-25T09:54:51Z</time>
      </trkpt>
      <trkpt lat="46.62205" lon="3.75288">
        <ele>228.6</ele>
        <time>2018-03-25T09:54:53Z</time>
      </trkpt>
      <trkpt lat="46.62202" lon="3.75278">
        <ele>228.9</ele>
        <time>2018-03-25T09:54:55Z</time>
      </trkpt>
      <trkpt lat="46.62198" lon="3.75268">
        <ele>229.1</ele>
        <time>2018-03-25T09:54:57Z</time>
      </trkpt>
      <trkpt lat="46.62193" lon="3.75257">
        <ele>228.5</ele>
        <time>2018-03-25T09:54:59Z</time>
      </trkpt>
      <trkpt lat="46.62189" lon="3.75246">
        <ele>228.2</ele>
        <time>2018-03-25T09:55:01Z</time>
      </trkpt>
      <trkpt lat="46.62181" lon="3.7524">
        <ele>228.1</ele>
        <time>2018-03-25T09:55:03Z</time>
      </trkpt>
      <trkpt lat="46.62177" lon="3.75241">
        <ele>228</ele>
        <time>2018-03-25T09:55:04Z</time>
      </trkpt>
      <trkpt lat="46.62172" lon="3.75242">
        <ele>228.3</ele>
        <time>2018-03-25T09:55:05Z</time>
      </trkpt>
      <trkpt lat="46.62167" lon="3.75244">
        <ele>228.5</ele>
        <time>2018-03-25T09:55:06Z</time>
      </trkpt>
      <trkpt lat="46.62162" lon="3.75245">
        <ele>228.7</ele>
        <time>2018-03-25T09:55:07Z</time>
      </trkpt>
      <trkpt lat="46.62157" lon="3.75247">
        <ele>228.7</ele>
        <time>2018-03-25T09:55:08Z</time>
      </trkpt>
      <trkpt lat="46.62152" lon="3.75249">
        <ele>228.7</ele>
        <time>2018-03-25T09:55:09Z</time>
      </trkpt>
      <trkpt lat="46.62148" lon="3.7525">
        <ele>228.4</ele>
        <time>2018-03-25T09:55:10Z</time>
      </trkpt>
      <trkpt lat="46.62143" lon="3.75252">
        <ele>228.2</ele>
        <time>2018-03-25T09:55:11Z</time>
      </trkpt>
      <trkpt lat="46.62138" lon="3.75253">
        <ele>228.3</ele>
        <time>2018-03-25T09:55:12Z</time>
      </trkpt>
      <trkpt lat="46.62132" lon="3.75255">
        <ele>228.4</ele>
        <time>2018-03-25T09:55:13Z</time>
      </trkpt>
      <trkpt lat="46.62127" lon="3.75257">
        <ele>228.4</ele>
        <time>2018-03-25T09:55:14Z</time>
      </trkpt>
      <trkpt lat="46.62122" lon="3.75259">
        <ele>228.3</ele>
        <time>2018-03-25T09:55:15Z</time>
      </trkpt>
      <trkpt lat="46.62117" lon="3.75261">
        <ele>228.3</ele>
        <time>2018-03-25T09:55:16Z</time>
      </trkpt>
      <trkpt lat="46.62112" lon="3.75263">
        <ele>228.3</ele>
        <time>2018-03-25T09:55:17Z</time>
      </trkpt>
      <trkpt lat="46.62106" lon="3.75264">
        <ele>228.3</ele>
        <time>2018-03-25T09:55:18Z</time>
      </trkpt>
      <trkpt lat="46.62102" lon="3.75266">
        <ele>227.7</ele>
        <time>2018-03-25T09:55:19Z</time>
      </trkpt>
      <trkpt lat="46.62097" lon="3.75268">
        <ele>227.3</ele>
        <time>2018-03-25T09:55:20Z</time>
      </trkpt>
      <trkpt lat="46.62089" lon="3.7527">
        <ele>226.6</ele>
        <time>2018-03-25T09:55:22Z</time>
      </trkpt>
      <trkpt lat="46.62082" lon="3.75272">
        <ele>226.4</ele>
        <time>2018-03-25T09:55:24Z</time>
      </trkpt>
      <trkpt lat="46.62076" lon="3.75275">
        <ele>226.6</ele>
        <time>2018-03-25T09:55:26Z</time>
      </trkpt>
      <trkpt lat="46.62068" lon="3.75279">
        <ele>227.7</ele>
        <time>2018-03-25T09:55:29Z</time>
      </trkpt>
      <trkpt lat="46.62061" lon="3.75282">
        <ele>227.4</ele>
        <time>2018-03-25T09:55:31Z</time>
      </trkpt>
      <trkpt lat="46.62054" lon="3.75285">
        <ele>227.1</ele>
        <time>2018-03-25T09:55:33Z</time>
      </trkpt>
      <trkpt lat="46.62047" lon="3.75288">
        <ele>226.4</ele>
        <time>2018-03-25T09:55:35Z</time>
      </trkpt>
      <trkpt lat="46.6204" lon="3.75291">
        <ele>226.6</ele>
        <time>2018-03-25T09:55:37Z</time>
      </trkpt>
      <trkpt lat="46.62033" lon="3.75294">
        <ele>227.5</ele>
        <time>2018-03-25T09:55:39Z</time>
      </trkpt>
      <trkpt lat="46.62025" lon="3.75297">
        <ele>227.7</ele>
        <time>2018-03-25T09:55:41Z</time>
      </trkpt>
      <trkpt lat="46.62018" lon="3.753">
        <ele>228</ele>
        <time>2018-03-25T09:55:43Z</time>
      </trkpt>
      <trkpt lat="46.62012" lon="3.75303">
        <ele>228.5</ele>
        <time>2018-03-25T09:55:45Z</time>
      </trkpt>
      <trkpt lat="46.62005" lon="3.75306">
        <ele>228.6</ele>
        <time>2018-03-25T09:55:47Z</time>
      </trkpt>
      <trkpt lat="46.61998" lon="3.75315">
        <ele>228.2</ele>
        <time>2018-03-25T09:55:50Z</time>
      </trkpt>
      <trkpt lat="46.61999" lon="3.75327">
        <ele>228</ele>
        <time>2018-03-25T09:55:53Z</time>
      </trkpt>
      <trkpt lat="46.61997" lon="3.75339">
        <ele>228.2</ele>
        <time>2018-03-25T09:55:57Z</time>
      </trkpt>
      <trkpt lat="46.61997" lon="3.75352">
        <ele>227.4</ele>
        <time>2018-03-25T09:56:02Z</time>
      </trkpt>
      <trkpt lat="46.61994" lon="3.75365">
        <ele>228</ele>
        <time>2018-03-25T09:57:18Z</time>
      </trkpt>
      <trkpt lat="46.61993" lon="3.75367">
        <ele>228.6</ele>
        <time>2018-03-25T09:57:20Z</time>
      </trkpt>
      <trkpt lat="46.62002" lon="3.7536">
        <ele>229.1</ele>
        <time>2018-03-25T09:59:58Z</time>
      </trkpt>
      <trkpt lat="46.62003" lon="3.75362">
        <ele>228.4</ele>
        <time>2018-03-25T10:00:54Z</time>
      </trkpt>
      <trkpt lat="46.61988" lon="3.75369">
        <ele>228.5</ele>
        <time>2018-03-25T10:01:23Z</time>
      </trkpt>
      <trkpt lat="46.61987" lon="3.7537">
        <ele>228.5</ele>
        <time>2018-03-25T10:01:24Z</time>
      </trkpt>
      <trkpt lat="46.61997" lon="3.75362">
        <ele>229</ele>
        <time>2018-03-25T10:02:30Z</time>
      </trkpt>
      <trkpt lat="46.62011" lon="3.7536">
        <ele>228.7</ele>
        <time>2018-03-25T10:02:53Z</time>
      </trkpt>
      <trkpt lat="46.62003" lon="3.75363">
        <ele>227.5</ele>
        <time>2018-03-25T10:03:15Z</time>
      </trkpt>
      <trkpt lat="46.61995" lon="3.75369">
        <ele>228.6</ele>
        <time>2018-03-25T10:04:11Z</time>
      </trkpt>
      <trkpt lat="46.61994" lon="3.75369">
        <ele>228.6</ele>
        <time>2018-03-25T10:04:12Z</time>
      </trkpt>
      <trkpt lat="46.61989" lon="3.75358">
        <ele>228.8</ele>
        <time>2018-03-25T10:05:33Z</time>
      </trkpt>
      <trkpt lat="46.61997" lon="3.75367">
        <ele>228.9</ele>
        <time>2018-03-25T10:07:56Z</time>
      </trkpt>
      <trkpt lat="46.61995" lon="3.75388">
        <ele>229</ele>
        <time>2018-03-25T10:08:41Z</time>
      </trkpt>
      <trkpt lat="46.6199" lon="3.75398">
        <ele>228.3</ele>
        <time>2018-03-25T10:08:55Z</time>
      </trkpt>
      <trkpt lat="46.61993" lon="3.75389">
        <ele>228.9</ele>
        <time>2018-03-25T10:10:32Z</time>
      </trkpt>
      <trkpt lat="46.61994" lon="3.75386">
        <ele>229</ele>
        <time>2018-03-25T10:10:33Z</time>
      </trkpt>
      <trkpt lat="46.62003" lon="3.75368">
        <ele>228.7</ele>
        <time>2018-03-25T10:12:02Z</time>
      </trkpt>
      <trkpt lat="46.62003" lon="3.75368">
        <ele>228.6</ele>
        <time>2018-03-25T10:12:03Z</time>
      </trkpt>
      <trkpt lat="46.62001" lon="3.75346">
        <ele>227.8</ele>
        <time>2018-03-25T10:12:22Z</time>
      </trkpt>
      <trkpt lat="46.62002" lon="3.75334">
        <ele>228.5</ele>
        <time>2018-03-25T10:12:25Z</time>
      </trkpt>
      <trkpt lat="46.62002" lon="3.75324">
        <ele>229</ele>
        <time>2018-03-25T10:12:27Z</time>
      </trkpt>
      <trkpt lat="46.62004" lon="3.75313">
        <ele>228.6</ele>
        <time>2018-03-25T10:12:30Z</time>
      </trkpt>
      <trkpt lat="46.62012" lon="3.75307">
        <ele>228.4</ele>
        <time>2018-03-25T10:12:34Z</time>
      </trkpt>
      <trkpt lat="46.62019" lon="3.753">
        <ele>228.7</ele>
        <time>2018-03-25T10:12:40Z</time>
      </trkpt>
      <trkpt lat="46.62027" lon="3.75295">
        <ele>228.4</ele>
        <time>2018-03-25T10:12:43Z</time>
      </trkpt>
      <trkpt lat="46.62033" lon="3.75292">
        <ele>228.8</ele>
        <time>2018-03-25T10:12:45Z</time>
      </trkpt>
      <trkpt lat="46.62041" lon="3.75289">
        <ele>229.1</ele>
        <time>2018-03-25T10:12:47Z</time>
      </trkpt>
      <trkpt lat="46.62049" lon="3.75285">
        <ele>229</ele>
        <time>2018-03-25T10:12:49Z</time>
      </trkpt>
      <trkpt lat="46.62058" lon="3.75281">
        <ele>228.6</ele>
        <time>2018-03-25T10:12:51Z</time>
      </trkpt>
      <trkpt lat="46.62066" lon="3.75278">
        <ele>228.2</ele>
        <time>2018-03-25T10:12:53Z</time>
      </trkpt>
      <trkpt lat="46.62073" lon="3.75274">
        <ele>228.3</ele>
        <time>2018-03-25T10:12:55Z</time>
      </trkpt>
      <trkpt lat="46.62081" lon="3.7527">
        <ele>228.6</ele>
        <time>2018-03-25T10:12:57Z</time>
      </trkpt>
      <trkpt lat="46.62085" lon="3.75268">
        <ele>228.7</ele>
        <time>2018-03-25T10:12:58Z</time>
      </trkpt>
      <trkpt lat="46.6209" lon="3.75266">
        <ele>228.5</ele>
        <time>2018-03-25T10:12:59Z</time>
      </trkpt>
      <trkpt lat="46.62095" lon="3.75265">
        <ele>228.4</ele>
        <time>2018-03-25T10:13:00Z</time>
      </trkpt>
      <trkpt lat="46.62099" lon="3.75263">
        <ele>228.4</ele>
        <time>2018-03-25T10:13:01Z</time>
      </trkpt>
      <trkpt lat="46.62104" lon="3.75261">
        <ele>228.4</ele>
        <time>2018-03-25T10:13:02Z</time>
      </trkpt>
      <trkpt lat="46.62113" lon="3.75259">
        <ele>228.5</ele>
        <time>2018-03-25T10:13:04Z</time>
      </trkpt>
      <trkpt lat="46.62117" lon="3.75257">
        <ele>228.5</ele>
        <time>2018-03-25T10:13:05Z</time>
      </trkpt>
      <trkpt lat="46.62125" lon="3.75253">
        <ele>228.3</ele>
        <time>2018-03-25T10:13:07Z</time>
      </trkpt>
      <trkpt lat="46.6213" lon="3.75251">
        <ele>227.9</ele>
        <time>2018-03-25T10:13:08Z</time>
      </trkpt>
      <trkpt lat="46.62138" lon="3.75248">
        <ele>227.3</ele>
        <time>2018-03-25T10:13:10Z</time>
      </trkpt>
      <trkpt lat="46.62145" lon="3.75245">
        <ele>228.1</ele>
        <time>2018-03-25T10:13:12Z</time>
      </trkpt>
      <trkpt lat="46.62153" lon="3.7524">
        <ele>228.6</ele>
        <time>2018-03-25T10:13:15Z</time>
      </trkpt>
      <trkpt lat="46.62159" lon="3.75237">
        <ele>228.7</ele>
        <time>2018-03-25T10:13:17Z</time>
      </trkpt>
      <trkpt lat="46.62168" lon="3.75234">
        <ele>228</ele>
        <time>2018-03-25T10:13:19Z</time>
      </trkpt>
      <trkpt lat="46.62176" lon="3.75232">
        <ele>228</ele>
        <time>2018-03-25T10:13:21Z</time>
      </trkpt>
      <trkpt lat="46.62185" lon="3.7523">
        <ele>228.3</ele>
        <time>2018-03-25T10:13:23Z</time>
      </trkpt>
      <trkpt lat="46.6219" lon="3.75228">
        <ele>228.5</ele>
        <time>2018-03-25T10:13:24Z</time>
      </trkpt>
      <trkpt lat="46.62194" lon="3.75227">
        <ele>228.7</ele>
        <time>2018-03-25T10:13:25Z</time>
      </trkpt>
      <trkpt lat="46.62203" lon="3.75224">
        <ele>229.3</ele>
        <time>2018-03-25T10:13:27Z</time>
      </trkpt>
      <trkpt lat="46.6221" lon="3.75222">
        <ele>229.9</ele>
        <time>2018-03-25T10:13:29Z</time>
      </trkpt>
      <trkpt lat="46.62218" lon="3.7522">
        <ele>230.6</ele>
        <time>2018-03-25T10:13:31Z</time>
      </trkpt>
      <trkpt lat="46.62226" lon="3.75217">
        <ele>230.8</ele>
        <time>2018-03-25T10:13:33Z</time>
      </trkpt>
      <trkpt lat="46.62235" lon="3.75215">
        <ele>231.3</ele>
        <time>2018-03-25T10:13:35Z</time>
      </trkpt>
      <trkpt lat="46.62243" lon="3.75213">
        <ele>232</ele>
        <time>2018-03-25T10:13:37Z</time>
      </trkpt>
      <trkpt lat="46.62251" lon="3.75211">
        <ele>232.6</ele>
        <time>2018-03-25T10:13:39Z</time>
      </trkpt>
      <trkpt lat="46.6226" lon="3.75209">
        <ele>233.1</ele>
        <time>2018-03-25T10:13:41Z</time>
      </trkpt>
      <trkpt lat="46.62267" lon="3.75207">
        <ele>232.8</ele>
        <time>2018-03-25T10:13:43Z</time>
      </trkpt>
      <trkpt lat="46.62275" lon="3.75205">
        <ele>233.8</ele>
        <time>2018-03-25T10:13:45Z</time>
      </trkpt>
      <trkpt lat="46.62283" lon="3.75204">
        <ele>234.1</ele>
        <time>2018-03-25T10:13:47Z</time>
      </trkpt>
      <trkpt lat="46.6229" lon="3.75202">
        <ele>234.3</ele>
        <time>2018-03-25T10:13:49Z</time>
      </trkpt>
      <trkpt lat="46.62299" lon="3.75201">
        <ele>236</ele>
        <time>2018-03-25T10:13:52Z</time>
      </trkpt>
      <trkpt lat="46.62307" lon="3.75198">
        <ele>237</ele>
        <time>2018-03-25T10:13:55Z</time>
      </trkpt>
      <trkpt lat="46.62315" lon="3.75196">
        <ele>236.7</ele>
        <time>2018-03-25T10:13:57Z</time>
      </trkpt>
      <trkpt lat="46.62322" lon="3.75195">
        <ele>236.6</ele>
        <time>2018-03-25T10:13:59Z</time>
      </trkpt>
      <trkpt lat="46.6233" lon="3.75193">
        <ele>236.8</ele>
        <time>2018-03-25T10:14:01Z</time>
      </trkpt>
      <trkpt lat="46.62336" lon="3.75192">
        <ele>237</ele>
        <time>2018-03-25T10:14:03Z</time>
      </trkpt>
      <trkpt lat="46.62342" lon="3.75193">
        <ele>237.3</ele>
        <time>2018-03-25T10:14:05Z</time>
      </trkpt>
      <trkpt lat="46.62346" lon="3.75192">
        <ele>237.5</ele>
        <time>2018-03-25T10:14:06Z</time>
      </trkpt>
      <trkpt lat="46.62357" lon="3.75192">
        <ele>238.4</ele>
        <time>2018-03-25T10:14:11Z</time>
      </trkpt>
      <trkpt lat="46.62364" lon="3.7519">
        <ele>238.4</ele>
        <time>2018-03-25T10:14:13Z</time>
      </trkpt>
      <trkpt lat="46.6237" lon="3.75187">
        <ele>238.8</ele>
        <time>2018-03-25T10:14:15Z</time>
      </trkpt>
      <trkpt lat="46.62378" lon="3.75184">
        <ele>239.3</ele>
        <time>2018-03-25T10:14:17Z</time>
      </trkpt>
      <trkpt lat="46.62385" lon="3.75182">
        <ele>239.5</ele>
        <time>2018-03-25T10:14:19Z</time>
      </trkpt>
      <trkpt lat="46.62392" lon="3.75179">
        <ele>239.3</ele>
        <time>2018-03-25T10:14:21Z</time>
      </trkpt>
      <trkpt lat="46.62399" lon="3.75177">
        <ele>239.8</ele>
        <time>2018-03-25T10:14:23Z</time>
      </trkpt>
      <trkpt lat="46.62405" lon="3.75173">
        <ele>239.7</ele>
        <time>2018-03-25T10:14:25Z</time>
      </trkpt>
      <trkpt lat="46.6241" lon="3.75169">
        <ele>239.3</ele>
        <time>2018-03-25T10:14:27Z</time>
      </trkpt>
      <trkpt lat="46.62418" lon="3.75167">
        <ele>239.6</ele>
        <time>2018-03-25T10:14:29Z</time>
      </trkpt>
      <trkpt lat="46.62426" lon="3.75165">
        <ele>240.1</ele>
        <time>2018-03-25T10:14:31Z</time>
      </trkpt>
      <trkpt lat="46.62431" lon="3.75163">
        <ele>240</ele>
        <time>2018-03-25T10:14:32Z</time>
      </trkpt>
      <trkpt lat="46.62439" lon="3.75161">
        <ele>240.2</ele>
        <time>2018-03-25T10:14:34Z</time>
      </trkpt>
      <trkpt lat="46.62445" lon="3.7516">
        <ele>240.6</ele>
        <time>2018-03-25T10:14:36Z</time>
      </trkpt>
      <trkpt lat="46.62454" lon="3.75158">
        <ele>240.9</ele>
        <time>2018-03-25T10:14:38Z</time>
      </trkpt>
      <trkpt lat="46.62462" lon="3.75151">
        <ele>240.6</ele>
        <time>2018-03-25T10:14:40Z</time>
      </trkpt>
      <trkpt lat="46.62465" lon="3.7514">
        <ele>239.9</ele>
        <time>2018-03-25T10:14:42Z</time>
      </trkpt>
      <trkpt lat="46.62466" lon="3.75129">
        <ele>239.8</ele>
        <time>2018-03-25T10:14:44Z</time>
      </trkpt>
      <trkpt lat="46.62468" lon="3.75116">
        <ele>240.1</ele>
        <time>2018-03-25T10:14:46Z</time>
      </trkpt>
      <trkpt lat="46.62469" lon="3.75103">
        <ele>239.9</ele>
        <time>2018-03-25T10:14:48Z</time>
      </trkpt>
      <trkpt lat="46.62472" lon="3.75091">
        <ele>239.5</ele>
        <time>2018-03-25T10:14:50Z</time>
      </trkpt>
      <trkpt lat="46.62475" lon="3.75079">
        <ele>239.9</ele>
        <time>2018-03-25T10:14:52Z</time>
      </trkpt>
      <trkpt lat="46.62477" lon="3.75067">
        <ele>240.3</ele>
        <time>2018-03-25T10:14:54Z</time>
      </trkpt>
      <trkpt lat="46.6248" lon="3.75055">
        <ele>240.7</ele>
        <time>2018-03-25T10:14:56Z</time>
      </trkpt>
      <trkpt lat="46.62483" lon="3.75044">
        <ele>240.7</ele>
        <time>2018-03-25T10:14:58Z</time>
      </trkpt>
      <trkpt lat="46.62485" lon="3.75032">
        <ele>240.5</ele>
        <time>2018-03-25T10:15:00Z</time>
      </trkpt>
      <trkpt lat="46.62488" lon="3.75021">
        <ele>240.3</ele>
        <time>2018-03-25T10:15:02Z</time>
      </trkpt>
      <trkpt lat="46.6249" lon="3.7501">
        <ele>241</ele>
        <time>2018-03-25T10:15:04Z</time>
      </trkpt>
      <trkpt lat="46.62491" lon="3.74998">
        <ele>241.6</ele>
        <time>2018-03-25T10:15:06Z</time>
      </trkpt>
      <trkpt lat="46.62492" lon="3.74992">
        <ele>241.4</ele>
        <time>2018-03-25T10:15:07Z</time>
      </trkpt>
      <trkpt lat="46.62498" lon="3.74977">
        <ele>240.9</ele>
        <time>2018-03-25T10:15:10Z</time>
      </trkpt>
      <trkpt lat="46.62506" lon="3.74973">
        <ele>240.9</ele>
        <time>2018-03-25T10:15:13Z</time>
      </trkpt>
      <trkpt lat="46.62514" lon="3.74972">
        <ele>241.5</ele>
        <time>2018-03-25T10:15:15Z</time>
      </trkpt>
      <trkpt lat="46.62518" lon="3.74971">
        <ele>242</ele>
        <time>2018-03-25T10:15:16Z</time>
      </trkpt>
      <trkpt lat="46.62523" lon="3.7497">
        <ele>242.2</ele>
        <time>2018-03-25T10:15:17Z</time>
      </trkpt>
      <trkpt lat="46.62527" lon="3.74969">
        <ele>242.3</ele>
        <time>2018-03-25T10:15:18Z</time>
      </trkpt>
      <trkpt lat="46.62532" lon="3.74968">
        <ele>242.6</ele>
        <time>2018-03-25T10:15:19Z</time>
      </trkpt>
      <trkpt lat="46.62541" lon="3.74966">
        <ele>243</ele>
        <time>2018-03-25T10:15:21Z</time>
      </trkpt>
      <trkpt lat="46.62549" lon="3.74962">
        <ele>243.4</ele>
        <time>2018-03-25T10:15:23Z</time>
      </trkpt>
      <trkpt lat="46.62557" lon="3.74961">
        <ele>243.5</ele>
        <time>2018-03-25T10:15:25Z</time>
      </trkpt>
      <trkpt lat="46.62565" lon="3.7496">
        <ele>242.9</ele>
        <time>2018-03-25T10:15:27Z</time>
      </trkpt>
      <trkpt lat="46.6257" lon="3.74959">
        <ele>242.3</ele>
        <time>2018-03-25T10:15:28Z</time>
      </trkpt>
      <trkpt lat="46.62575" lon="3.74959">
        <ele>243.1</ele>
        <time>2018-03-25T10:15:29Z</time>
      </trkpt>
      <trkpt lat="46.62579" lon="3.74958">
        <ele>243.7</ele>
        <time>2018-03-25T10:15:30Z</time>
      </trkpt>
      <trkpt lat="46.62588" lon="3.74957">
        <ele>243.4</ele>
        <time>2018-03-25T10:15:32Z</time>
      </trkpt>
      <trkpt lat="46.62593" lon="3.74957">
        <ele>243.3</ele>
        <time>2018-03-25T10:15:33Z</time>
      </trkpt>
      <trkpt lat="46.62598" lon="3.74956">
        <ele>243.5</ele>
        <time>2018-03-25T10:15:34Z</time>
      </trkpt>
      <trkpt lat="46.62605" lon="3.74951">
        <ele>243.5</ele>
        <time>2018-03-25T10:15:36Z</time>
      </trkpt>
      <trkpt lat="46.6261" lon="3.74942">
        <ele>243.6</ele>
        <time>2018-03-25T10:15:38Z</time>
      </trkpt>
      <trkpt lat="46.62615" lon="3.74931">
        <ele>244</ele>
        <time>2018-03-25T10:15:40Z</time>
      </trkpt>
      <trkpt lat="46.62617" lon="3.74925">
        <ele>243.6</ele>
        <time>2018-03-25T10:15:41Z</time>
      </trkpt>
      <trkpt lat="46.6262" lon="3.74919">
        <ele>243.4</ele>
        <time>2018-03-25T10:15:42Z</time>
      </trkpt>
      <trkpt lat="46.62623" lon="3.74913">
        <ele>243.4</ele>
        <time>2018-03-25T10:15:43Z</time>
      </trkpt>
      <trkpt lat="46.62625" lon="3.74906">
        <ele>243.3</ele>
        <time>2018-03-25T10:15:44Z</time>
      </trkpt>
      <trkpt lat="46.62626" lon="3.74899">
        <ele>243.3</ele>
        <time>2018-03-25T10:15:45Z</time>
      </trkpt>
      <trkpt lat="46.62627" lon="3.74892">
        <ele>243</ele>
        <time>2018-03-25T10:15:46Z</time>
      </trkpt>
      <trkpt lat="46.62629" lon="3.74884">
        <ele>242.7</ele>
        <time>2018-03-25T10:15:47Z</time>
      </trkpt>
      <trkpt lat="46.6263" lon="3.74877">
        <ele>243.1</ele>
        <time>2018-03-25T10:15:48Z</time>
      </trkpt>
      <trkpt lat="46.62632" lon="3.7487">
        <ele>243.4</ele>
        <time>2018-03-25T10:15:49Z</time>
      </trkpt>
      <trkpt lat="46.62634" lon="3.74863">
        <ele>242.9</ele>
        <time>2018-03-25T10:15:50Z</time>
      </trkpt>
      <trkpt lat="46.62637" lon="3.74856">
        <ele>242.5</ele>
        <time>2018-03-25T10:15:51Z</time>
      </trkpt>
      <trkpt lat="46.62638" lon="3.74848">
        <ele>242.3</ele>
        <time>2018-03-25T10:15:52Z</time>
      </trkpt>
      <trkpt lat="46.6264" lon="3.74841">
        <ele>242.2</ele>
        <time>2018-03-25T10:15:53Z</time>
      </trkpt>
      <trkpt lat="46.62641" lon="3.74833">
        <ele>242.1</ele>
        <time>2018-03-25T10:15:54Z</time>
      </trkpt>
      <trkpt lat="46.62643" lon="3.74825">
        <ele>242</ele>
        <time>2018-03-25T10:15:55Z</time>
      </trkpt>
      <trkpt lat="46.62644" lon="3.74818">
        <ele>241.8</ele>
        <time>2018-03-25T10:15:56Z</time>
      </trkpt>
      <trkpt lat="46.62646" lon="3.7481">
        <ele>241.9</ele>
        <time>2018-03-25T10:15:57Z</time>
      </trkpt>
      <trkpt lat="46.62647" lon="3.74803">
        <ele>242</ele>
        <time>2018-03-25T10:15:58Z</time>
      </trkpt>
      <trkpt lat="46.62648" lon="3.74797">
        <ele>242.1</ele>
        <time>2018-03-25T10:15:59Z</time>
      </trkpt>
      <trkpt lat="46.62648" lon="3.74789">
        <ele>241.8</ele>
        <time>2018-03-25T10:16:00Z</time>
      </trkpt>
      <trkpt lat="46.6265" lon="3.74781">
        <ele>241.5</ele>
        <time>2018-03-25T10:16:01Z</time>
      </trkpt>
      <trkpt lat="46.62652" lon="3.74772">
        <ele>241.5</ele>
        <time>2018-03-25T10:16:02Z</time>
      </trkpt>
      <trkpt lat="46.62654" lon="3.74764">
        <ele>241.5</ele>
        <time>2018-03-25T10:16:03Z</time>
      </trkpt>
      <trkpt lat="46.62657" lon="3.74756">
        <ele>241.5</ele>
        <time>2018-03-25T10:16:04Z</time>
      </trkpt>
      <trkpt lat="46.6266" lon="3.74747">
        <ele>241.2</ele>
        <time>2018-03-25T10:16:05Z</time>
      </trkpt>
      <trkpt lat="46.62662" lon="3.74738">
        <ele>241</ele>
        <time>2018-03-25T10:16:06Z</time>
      </trkpt>
      <trkpt lat="46.62665" lon="3.7473">
        <ele>240.7</ele>
        <time>2018-03-25T10:16:07Z</time>
      </trkpt>
      <trkpt lat="46.62667" lon="3.74721">
        <ele>240.4</ele>
        <time>2018-03-25T10:16:08Z</time>
      </trkpt>
      <trkpt lat="46.62668" lon="3.74713">
        <ele>239.9</ele>
        <time>2018-03-25T10:16:09Z</time>
      </trkpt>
      <trkpt lat="46.6267" lon="3.74705">
        <ele>239.6</ele>
        <time>2018-03-25T10:16:10Z</time>
      </trkpt>
      <trkpt lat="46.62672" lon="3.74697">
        <ele>239.3</ele>
        <time>2018-03-25T10:16:11Z</time>
      </trkpt>
      <trkpt lat="46.62674" lon="3.74689">
        <ele>238.9</ele>
        <time>2018-03-25T10:16:12Z</time>
      </trkpt>
      <trkpt lat="46.62676" lon="3.74681">
        <ele>238.6</ele>
        <time>2018-03-25T10:16:13Z</time>
      </trkpt>
      <trkpt lat="46.62679" lon="3.74673">
        <ele>238.9</ele>
        <time>2018-03-25T10:16:14Z</time>
      </trkpt>
      <trkpt lat="46.62681" lon="3.74665">
        <ele>239.2</ele>
        <time>2018-03-25T10:16:15Z</time>
      </trkpt>
      <trkpt lat="46.62683" lon="3.74657">
        <ele>239</ele>
        <time>2018-03-25T10:16:16Z</time>
      </trkpt>
      <trkpt lat="46.62685" lon="3.74649">
        <ele>238.9</ele>
        <time>2018-03-25T10:16:17Z</time>
      </trkpt>
      <trkpt lat="46.62686" lon="3.74642">
        <ele>238.8</ele>
        <time>2018-03-25T10:16:18Z</time>
      </trkpt>
      <trkpt lat="46.62688" lon="3.74635">
        <ele>238.7</ele>
        <time>2018-03-25T10:16:19Z</time>
      </trkpt>
      <trkpt lat="46.6269" lon="3.74627">
        <ele>238.6</ele>
        <time>2018-03-25T10:16:20Z</time>
      </trkpt>
      <trkpt lat="46.62692" lon="3.7462">
        <ele>238.6</ele>
        <time>2018-03-25T10:16:21Z</time>
      </trkpt>
      <trkpt lat="46.62693" lon="3.74612">
        <ele>238.6</ele>
        <time>2018-03-25T10:16:22Z</time>
      </trkpt>
      <trkpt lat="46.62694" lon="3.74605">
        <ele>238.7</ele>
        <time>2018-03-25T10:16:23Z</time>
      </trkpt>
      <trkpt lat="46.62696" lon="3.74598">
        <ele>238.4</ele>
        <time>2018-03-25T10:16:24Z</time>
      </trkpt>
      <trkpt lat="46.62698" lon="3.74591">
        <ele>238.1</ele>
        <time>2018-03-25T10:16:25Z</time>
      </trkpt>
      <trkpt lat="46.627" lon="3.74584">
        <ele>238.2</ele>
        <time>2018-03-25T10:16:26Z</time>
      </trkpt>
      <trkpt lat="46.62703" lon="3.74577">
        <ele>238.2</ele>
        <time>2018-03-25T10:16:27Z</time>
      </trkpt>
      <trkpt lat="46.62705" lon="3.7457">
        <ele>238.6</ele>
        <time>2018-03-25T10:16:28Z</time>
      </trkpt>
      <trkpt lat="46.62707" lon="3.74563">
        <ele>238.9</ele>
        <time>2018-03-25T10:16:29Z</time>
      </trkpt>
      <trkpt lat="46.62709" lon="3.74556">
        <ele>239.2</ele>
        <time>2018-03-25T10:16:30Z</time>
      </trkpt>
      <trkpt lat="46.62711" lon="3.74549">
        <ele>239.1</ele>
        <time>2018-03-25T10:16:31Z</time>
      </trkpt>
      <trkpt lat="46.62712" lon="3.74542">
        <ele>239</ele>
        <time>2018-03-25T10:16:32Z</time>
      </trkpt>
      <trkpt lat="46.62714" lon="3.74535">
        <ele>238.8</ele>
        <time>2018-03-25T10:16:33Z</time>
      </trkpt>
      <trkpt lat="46.62715" lon="3.74528">
        <ele>238.7</ele>
        <time>2018-03-25T10:16:34Z</time>
      </trkpt>
      <trkpt lat="46.62717" lon="3.74521">
        <ele>238.6</ele>
        <time>2018-03-25T10:16:35Z</time>
      </trkpt>
      <trkpt lat="46.62719" lon="3.74514">
        <ele>238.8</ele>
        <time>2018-03-25T10:16:36Z</time>
      </trkpt>
      <trkpt lat="46.62721" lon="3.74507">
        <ele>239</ele>
        <time>2018-03-25T10:16:37Z</time>
      </trkpt>
      <trkpt lat="46.62723" lon="3.745">
        <ele>238.8</ele>
        <time>2018-03-25T10:16:38Z</time>
      </trkpt>
      <trkpt lat="46.62724" lon="3.74493">
        <ele>238.7</ele>
        <time>2018-03-25T10:16:39Z</time>
      </trkpt>
      <trkpt lat="46.62726" lon="3.74486">
        <ele>238.7</ele>
        <time>2018-03-25T10:16:40Z</time>
      </trkpt>
      <trkpt lat="46.62727" lon="3.7448">
        <ele>238.6</ele>
        <time>2018-03-25T10:16:41Z</time>
      </trkpt>
      <trkpt lat="46.62729" lon="3.74473">
        <ele>238.6</ele>
        <time>2018-03-25T10:16:42Z</time>
      </trkpt>
      <trkpt lat="46.6273" lon="3.74466">
        <ele>238.5</ele>
        <time>2018-03-25T10:16:43Z</time>
      </trkpt>
      <trkpt lat="46.62732" lon="3.7446">
        <ele>238.5</ele>
        <time>2018-03-25T10:16:44Z</time>
      </trkpt>
      <trkpt lat="46.62734" lon="3.74453">
        <ele>238.7</ele>
        <time>2018-03-25T10:16:45Z</time>
      </trkpt>
      <trkpt lat="46.62736" lon="3.74446">
        <ele>238.8</ele>
        <time>2018-03-25T10:16:46Z</time>
      </trkpt>
      <trkpt lat="46.62737" lon="3.74439">
        <ele>238.8</ele>
        <time>2018-03-25T10:16:47Z</time>
      </trkpt>
      <trkpt lat="46.62738" lon="3.74432">
        <ele>238.9</ele>
        <time>2018-03-25T10:16:48Z</time>
      </trkpt>
      <trkpt lat="46.62739" lon="3.74425">
        <ele>238.9</ele>
        <time>2018-03-25T10:16:49Z</time>
      </trkpt>
      <trkpt lat="46.62741" lon="3.74419">
        <ele>239.3</ele>
        <time>2018-03-25T10:16:50Z</time>
      </trkpt>
      <trkpt lat="46.62743" lon="3.74412">
        <ele>239.6</ele>
        <time>2018-03-25T10:16:51Z</time>
      </trkpt>
      <trkpt lat="46.62745" lon="3.74405">
        <ele>239.9</ele>
        <time>2018-03-25T10:16:52Z</time>
      </trkpt>
      <trkpt lat="46.62747" lon="3.74399">
        <ele>240.1</ele>
        <time>2018-03-25T10:16:53Z</time>
      </trkpt>
      <trkpt lat="46.62748" lon="3.74392">
        <ele>240.2</ele>
        <time>2018-03-25T10:16:54Z</time>
      </trkpt>
      <trkpt lat="46.6275" lon="3.74385">
        <ele>240</ele>
        <time>2018-03-25T10:16:55Z</time>
      </trkpt>
      <trkpt lat="46.62753" lon="3.74379">
        <ele>239.9</ele>
        <time>2018-03-25T10:16:56Z</time>
      </trkpt>
      <trkpt lat="46.62756" lon="3.74374">
        <ele>240.1</ele>
        <time>2018-03-25T10:16:57Z</time>
      </trkpt>
      <trkpt lat="46.62761" lon="3.74364">
        <ele>240.2</ele>
        <time>2018-03-25T10:16:59Z</time>
      </trkpt>
      <trkpt lat="46.62766" lon="3.74355">
        <ele>240.2</ele>
        <time>2018-03-25T10:17:01Z</time>
      </trkpt>
      <trkpt lat="46.62767" lon="3.74349">
        <ele>240.2</ele>
        <time>2018-03-25T10:17:02Z</time>
      </trkpt>
      <trkpt lat="46.62769" lon="3.74343">
        <ele>240.2</ele>
        <time>2018-03-25T10:17:03Z</time>
      </trkpt>
      <trkpt lat="46.6277" lon="3.74336">
        <ele>240</ele>
        <time>2018-03-25T10:17:04Z</time>
      </trkpt>
      <trkpt lat="46.62772" lon="3.74329">
        <ele>239.8</ele>
        <time>2018-03-25T10:17:05Z</time>
      </trkpt>
      <trkpt lat="46.62773" lon="3.74323">
        <ele>239.4</ele>
        <time>2018-03-25T10:17:06Z</time>
      </trkpt>
      <trkpt lat="46.62775" lon="3.74316">
        <ele>239.1</ele>
        <time>2018-03-25T10:17:07Z</time>
      </trkpt>
      <trkpt lat="46.62777" lon="3.7431">
        <ele>238.9</ele>
        <time>2018-03-25T10:17:08Z</time>
      </trkpt>
      <trkpt lat="46.62779" lon="3.74303">
        <ele>239.1</ele>
        <time>2018-03-25T10:17:09Z</time>
      </trkpt>
      <trkpt lat="46.62781" lon="3.74296">
        <ele>239.2</ele>
        <time>2018-03-25T10:17:10Z</time>
      </trkpt>
      <trkpt lat="46.62782" lon="3.7429">
        <ele>239.8</ele>
        <time>2018-03-25T10:17:11Z</time>
      </trkpt>
      <trkpt lat="46.62784" lon="3.74283">
        <ele>240.2</ele>
        <time>2018-03-25T10:17:12Z</time>
      </trkpt>
      <trkpt lat="46.62786" lon="3.74276">
        <ele>240.5</ele>
        <time>2018-03-25T10:17:13Z</time>
      </trkpt>
      <trkpt lat="46.62787" lon="3.74269">
        <ele>240.4</ele>
        <time>2018-03-25T10:17:14Z</time>
      </trkpt>
      <trkpt lat="46.62789" lon="3.74262">
        <ele>240.3</ele>
        <time>2018-03-25T10:17:15Z</time>
      </trkpt>
      <trkpt lat="46.62791" lon="3.74255">
        <ele>240.1</ele>
        <time>2018-03-25T10:17:16Z</time>
      </trkpt>
      <trkpt lat="46.62792" lon="3.74248">
        <ele>240.1</ele>
        <time>2018-03-25T10:17:17Z</time>
      </trkpt>
      <trkpt lat="46.62794" lon="3.74241">
        <ele>239.8</ele>
        <time>2018-03-25T10:17:18Z</time>
      </trkpt>
      <trkpt lat="46.62795" lon="3.74234">
        <ele>239.6</ele>
        <time>2018-03-25T10:17:19Z</time>
      </trkpt>
      <trkpt lat="46.62797" lon="3.74227">
        <ele>239.5</ele>
        <time>2018-03-25T10:17:20Z</time>
      </trkpt>
      <trkpt lat="46.62798" lon="3.7422">
        <ele>239.2</ele>
        <time>2018-03-25T10:17:21Z</time>
      </trkpt>
      <trkpt lat="46.628" lon="3.74213">
        <ele>239.1</ele>
        <time>2018-03-25T10:17:22Z</time>
      </trkpt>
      <trkpt lat="46.62801" lon="3.74206">
        <ele>238.7</ele>
        <time>2018-03-25T10:17:23Z</time>
      </trkpt>
      <trkpt lat="46.62803" lon="3.74199">
        <ele>238.4</ele>
        <time>2018-03-25T10:17:24Z</time>
      </trkpt>
      <trkpt lat="46.62804" lon="3.74192">
        <ele>238.1</ele>
        <time>2018-03-25T10:17:25Z</time>
      </trkpt>
      <trkpt lat="46.62806" lon="3.74185">
        <ele>237.7</ele>
        <time>2018-03-25T10:17:26Z</time>
      </trkpt>
      <trkpt lat="46.6281" lon="3.74174">
        <ele>237.7</ele>
        <time>2018-03-25T10:17:28Z</time>
      </trkpt>
      <trkpt lat="46.62815" lon="3.74168">
        <ele>238</ele>
        <time>2018-03-25T10:17:30Z</time>
      </trkpt>
      <trkpt lat="46.62823" lon="3.74165">
        <ele>238.1</ele>
        <time>2018-03-25T10:17:32Z</time>
      </trkpt>
      <trkpt lat="46.6283" lon="3.7416">
        <ele>237.9</ele>
        <time>2018-03-25T10:17:34Z</time>
      </trkpt>
      <trkpt lat="46.62837" lon="3.74153">
        <ele>238</ele>
        <time>2018-03-25T10:17:36Z</time>
      </trkpt>
      <trkpt lat="46.6284" lon="3.7415">
        <ele>238.3</ele>
        <time>2018-03-25T10:17:37Z</time>
      </trkpt>
      <trkpt lat="46.62844" lon="3.74145">
        <ele>238.6</ele>
        <time>2018-03-25T10:17:38Z</time>
      </trkpt>
      <trkpt lat="46.62847" lon="3.74141">
        <ele>238.7</ele>
        <time>2018-03-25T10:17:39Z</time>
      </trkpt>
      <trkpt lat="46.62851" lon="3.74136">
        <ele>239.2</ele>
        <time>2018-03-25T10:17:40Z</time>
      </trkpt>
      <trkpt lat="46.62854" lon="3.74131">
        <ele>239.5</ele>
        <time>2018-03-25T10:17:41Z</time>
      </trkpt>
      <trkpt lat="46.62857" lon="3.74126">
        <ele>239.2</ele>
        <time>2018-03-25T10:17:42Z</time>
      </trkpt>
      <trkpt lat="46.62863" lon="3.74116">
        <ele>238.9</ele>
        <time>2018-03-25T10:17:44Z</time>
      </trkpt>
      <trkpt lat="46.62869" lon="3.74107">
        <ele>238.7</ele>
        <time>2018-03-25T10:17:46Z</time>
      </trkpt>
      <trkpt lat="46.62874" lon="3.74097">
        <ele>238.9</ele>
        <time>2018-03-25T10:17:48Z</time>
      </trkpt>
      <trkpt lat="46.62876" lon="3.74085">
        <ele>239.3</ele>
        <time>2018-03-25T10:17:52Z</time>
      </trkpt>
      <trkpt lat="46.62878" lon="3.74073">
        <ele>239.8</ele>
        <time>2018-03-25T10:19:06Z</time>
      </trkpt>
      <trkpt lat="46.62878" lon="3.74072">
        <ele>239.7</ele>
        <time>2018-03-25T10:19:07Z</time>
      </trkpt>
      <trkpt lat="46.62885" lon="3.74076">
        <ele>239.3</ele>
        <time>2018-03-25T10:20:17Z</time>
      </trkpt>
    </trkseg>
  </trk>
</gpx>